<?xml version='1.0' encoding='UTF-8'?><gpx version="1.1" creator="JPX - https://github.com/jenetics/jpx" xmlns="http://www.topografix.com/GPX/1/1"><trk><trkseg><trkpt lat="43.34266720196614" lon="11.88165045285841"><ele>257.0</ele><time>2026-05-03T14:25:17.001Z</time></trkpt><trkpt lat="43.34252830846658" lon="11.881672450841217"><ele>257.0</ele><time>2026-05-03T14:25:18.001Z</time></trkpt><trkpt lat="43.3423695120743" lon="11.881695891800046"><ele>257.0</ele><time>2026-05-03T14:25:20.001Z</time></trkpt><trkpt lat="43.342261365099205" lon="11.881715907135444"><ele>257.0</ele><time>2026-05-03T14:25:21.001Z</time></trkpt><trkpt lat="43.342135009745455" lon="11.88173663143374"><ele>256.75</ele><time>2026-05-03T14:25:22.001Z</time></trkpt><trkpt lat="43.34199725252052" lon="11.881750214256298"><ele>256.5</ele><time>2026-05-03T14:25:23.001Z</time></trkpt><trkpt lat="43.34185525717317" lon="11.881768709705792"><ele>256.25</ele><time>2026-05-03T14:25:24.001Z</time></trkpt><trkpt lat="43.34171834925969" lon="11.881777327228043"><ele>256.0</ele><time>2026-05-03T14:25:25.001Z</time></trkpt><trkpt lat="43.34155534421912" lon="11.881788702781098"><ele>255.66666666666666</ele><time>2026-05-03T14:25:26.001Z</time></trkpt><trkpt lat="43.341380460901824" lon="11.881801535006797"><ele>255.33333333333331</ele><time>2026-05-03T14:25:27.001Z</time></trkpt><trkpt lat="43.34120811649245" lon="11.881811787663647"><ele>255.0</ele><time>2026-05-03T14:25:28.001Z</time></trkpt><trkpt lat="43.34102094678398" lon="11.881821182560572"><ele>255.0</ele><time>2026-05-03T14:25:29.001Z</time></trkpt><trkpt lat="43.34082668108992" lon="11.881829207153851"><ele>255.0</ele><time>2026-05-03T14:25:30.001Z</time></trkpt><trkpt lat="43.34063583380193" lon="11.88184042918984"><ele>255.0</ele><time>2026-05-03T14:25:31Z</time></trkpt><trkpt lat="43.34044333442149" lon="11.881847918330493"><ele>254.33333333333331</ele><time>2026-05-03T14:25:32Z</time></trkpt><trkpt lat="43.34024945687273" lon="11.881855700319694"><ele>253.66666666666666</ele><time>2026-05-03T14:25:33Z</time></trkpt><trkpt lat="43.34005641481033" lon="11.881857043209646"><ele>253.0</ele><time>2026-05-03T14:25:34Z</time></trkpt><trkpt lat="43.33985946875971" lon="11.881866927295182"><ele>252.66666666666666</ele><time>2026-05-03T14:25:35Z</time></trkpt><trkpt lat="43.339664813725" lon="11.881883555359227"><ele>252.33333333333331</ele><time>2026-05-03T14:25:36Z</time></trkpt><trkpt lat="43.3394682381381" lon="11.881897356559625"><ele>252.0</ele><time>2026-05-03T14:25:37Z</time></trkpt><trkpt lat="43.33926770813661" lon="11.881908118940661"><ele>252.0</ele><time>2026-05-03T14:25:38Z</time></trkpt><trkpt lat="43.339064953449196" lon="11.881919089985194"><ele>252.0</ele><time>2026-05-03T14:25:39Z</time></trkpt><trkpt lat="43.33885726099191" lon="11.881930854692595"><ele>252.0</ele><time>2026-05-03T14:25:40Z</time></trkpt><trkpt lat="43.338646341415256" lon="11.881942684961405"><ele>251.66666666666669</ele><time>2026-05-03T14:25:41Z</time></trkpt><trkpt lat="43.33843051857011" lon="11.881957263448266"><ele>251.33333333333334</ele><time>2026-05-03T14:25:42Z</time></trkpt><trkpt lat="43.33821591059225" lon="11.881970990655358"><ele>251.0</ele><time>2026-05-03T14:25:43Z</time></trkpt><trkpt lat="43.33799847073284" lon="11.881980203752136"><ele>251.0</ele><time>2026-05-03T14:25:44Z</time></trkpt><trkpt lat="43.33778067058651" lon="11.881982478642092"><ele>251.0</ele><time>2026-05-03T14:25:45Z</time></trkpt><trkpt lat="43.33756447404272" lon="11.881987202730212"><ele>251.0</ele><time>2026-05-03T14:25:46Z</time></trkpt><trkpt lat="43.33735461419535" lon="11.88198994147657"><ele>251.33333333333334</ele><time>2026-05-03T14:25:47Z</time></trkpt><trkpt lat="43.337146672908794" lon="11.881998779738343"><ele>251.66666666666669</ele><time>2026-05-03T14:25:48Z</time></trkpt><trkpt lat="43.33694633386153" lon="11.882011452093838"><ele>252.0</ele><time>2026-05-03T14:25:49Z</time></trkpt><trkpt lat="43.336745537611705" lon="11.882019630026983"><ele>252.0</ele><time>2026-05-03T14:25:50Z</time></trkpt><trkpt lat="43.33656271411052" lon="11.882036235431933"><ele>252.0</ele><time>2026-05-03T14:25:51Z</time></trkpt><trkpt lat="43.33639199446546" lon="11.882048433142742"><ele>252.0</ele><time>2026-05-03T14:25:52Z</time></trkpt><trkpt lat="43.33623661003776" lon="11.882053616956334"><ele>252.5</ele><time>2026-05-03T14:25:53Z</time></trkpt><trkpt lat="43.336090581825985" lon="11.882054412650156"><ele>253.0</ele><time>2026-05-03T14:25:54Z</time></trkpt><trkpt lat="43.335956869554934" lon="11.882059215267793"><ele>253.5</ele><time>2026-05-03T14:25:55Z</time></trkpt><trkpt lat="43.33583476125181" lon="11.882064965507531"><ele>254.0</ele><time>2026-05-03T14:25:56Z</time></trkpt><trkpt lat="43.33572229730416" lon="11.882063136737477"><ele>254.0</ele><time>2026-05-03T14:25:57Z</time></trkpt><trkpt lat="43.33559108465427" lon="11.88205090725641"><ele>253.99999999999997</ele><time>2026-05-03T14:25:59Z</time></trkpt><trkpt lat="43.33551511505383" lon="11.882042826349368"><ele>253.99999999999997</ele><time>2026-05-03T14:26:00Z</time></trkpt><trkpt lat="43.33545110880593" lon="11.881998447152498"><ele>254.0</ele><time>2026-05-03T14:26:02Z</time></trkpt><trkpt lat="43.335353291080104" lon="11.881950190913097"><ele>254.0</ele><time>2026-05-03T14:26:31Z</time></trkpt><trkpt lat="43.335299401629065" lon="11.881765386728443"><ele>254.2</ele><time>2026-05-03T14:26:33Z</time></trkpt><trkpt lat="43.33528115853202" lon="11.881628613578512"><ele>254.39999999999998</ele><time>2026-05-03T14:26:34Z</time></trkpt><trkpt lat="43.335241919235955" lon="11.881505003454995"><ele>254.6</ele><time>2026-05-03T14:26:35Z</time></trkpt><trkpt lat="43.33520990870215" lon="11.881361232946954"><ele>254.8</ele><time>2026-05-03T14:26:36Z</time></trkpt><trkpt lat="43.335179656431954" lon="11.881176520817439"><ele>255.0</ele><time>2026-05-03T14:26:37Z</time></trkpt><trkpt lat="43.33514663267136" lon="11.88097994906789"><ele>255.0</ele><time>2026-05-03T14:26:38Z</time></trkpt><trkpt lat="43.33512244349885" lon="11.880805456225438"><ele>255.0</ele><time>2026-05-03T14:26:39Z</time></trkpt><trkpt lat="43.33510760903664" lon="11.880600640770666"><ele>255.0</ele><time>2026-05-03T14:26:40Z</time></trkpt><trkpt lat="43.33510532205953" lon="11.880377281510208"><ele>255.0</ele><time>2026-05-03T14:26:41Z</time></trkpt><trkpt lat="43.335112539817445" lon="11.880169618840641"><ele>255.0</ele><time>2026-05-03T14:26:42Z</time></trkpt><trkpt lat="43.335106890205545" lon="11.879948845026608"><ele>255.0</ele><time>2026-05-03T14:26:43Z</time></trkpt><trkpt lat="43.335106704648005" lon="11.87970448805937"><ele>255.0</ele><time>2026-05-03T14:26:44Z</time></trkpt><trkpt lat="43.335102317177" lon="11.879453044378003"><ele>255.0</ele><time>2026-05-03T14:26:45Z</time></trkpt><trkpt lat="43.33510026982442" lon="11.879203259936933"><ele>255.0</ele><time>2026-05-03T14:26:46Z</time></trkpt><trkpt lat="43.33509812011483" lon="11.87896248976146"><ele>255.0</ele><time>2026-05-03T14:26:47Z</time></trkpt><trkpt lat="43.33509367431926" lon="11.878706108238354"><ele>255.0</ele><time>2026-05-03T14:26:48Z</time></trkpt><trkpt lat="43.33508677528051" lon="11.878434704817142"><ele>255.0</ele><time>2026-05-03T14:26:49Z</time></trkpt><trkpt lat="43.33508167023542" lon="11.878157499608522"><ele>255.0</ele><time>2026-05-03T14:26:50Z</time></trkpt><trkpt lat="43.33507863929877" lon="11.877869690194018"><ele>254.66666666666669</ele><time>2026-05-03T14:26:51Z</time></trkpt><trkpt lat="43.33507318567862" lon="11.877583031290031"><ele>254.33333333333334</ele><time>2026-05-03T14:26:52Z</time></trkpt><trkpt lat="43.33506931629152" lon="11.877285929696223"><ele>254.0</ele><time>2026-05-03T14:26:53Z</time></trkpt><trkpt lat="43.33506263041713" lon="11.87700096178897"><ele>254.33333333333334</ele><time>2026-05-03T14:26:54Z</time></trkpt><trkpt lat="43.335059781825834" lon="11.876717833974906"><ele>254.66666666666669</ele><time>2026-05-03T14:26:55Z</time></trkpt><trkpt lat="43.33506282868288" lon="11.876423622698944"><ele>255.0</ele><time>2026-05-03T14:26:56Z</time></trkpt><trkpt lat="43.335054058258535" lon="11.876132485552777"><ele>255.0</ele><time>2026-05-03T14:26:57Z</time></trkpt><trkpt lat="43.3350430232402" lon="11.875845882421658"><ele>255.0</ele><time>2026-05-03T14:26:58Z</time></trkpt><trkpt lat="43.33504003269773" lon="11.87555498298039"><ele>255.0</ele><time>2026-05-03T14:26:59Z</time></trkpt><trkpt lat="43.33504183659705" lon="11.87526208600547"><ele>254.33333333333331</ele><time>2026-05-03T14:27:00Z</time></trkpt><trkpt lat="43.335057775064776" lon="11.874969727550658"><ele>253.66666666666666</ele><time>2026-05-03T14:27:01Z</time></trkpt><trkpt lat="43.33508508845887" lon="11.874678159725326"><ele>253.0</ele><time>2026-05-03T14:27:02Z</time></trkpt><trkpt lat="43.33511492357254" lon="11.874393099719155"><ele>253.0</ele><time>2026-05-03T14:27:03Z</time></trkpt><trkpt lat="43.33514801791887" lon="11.87410459935745"><ele>253.0</ele><time>2026-05-03T14:27:04Z</time></trkpt><trkpt lat="43.33518194724609" lon="11.873810852651149"><ele>253.0</ele><time>2026-05-03T14:27:05Z</time></trkpt><trkpt lat="43.33521131369418" lon="11.873518071610937"><ele>253.33333333333331</ele><time>2026-05-03T14:27:06Z</time></trkpt><trkpt lat="43.33524186942873" lon="11.873229658737326"><ele>253.66666666666669</ele><time>2026-05-03T14:27:07Z</time></trkpt><trkpt lat="43.335266155929155" lon="11.872943816305408"><ele>254.0</ele><time>2026-05-03T14:27:08Z</time></trkpt><trkpt lat="43.33526472091573" lon="11.872660067227715"><ele>254.66666666666669</ele><time>2026-05-03T14:27:09Z</time></trkpt><trkpt lat="43.3352388703317" lon="11.872384801584632"><ele>255.33333333333331</ele><time>2026-05-03T14:27:10Z</time></trkpt><trkpt lat="43.3351875685849" lon="11.872111906855288"><ele>256.0</ele><time>2026-05-03T14:27:11Z</time></trkpt><trkpt lat="43.33512603241718" lon="11.871832366647213"><ele>256.0</ele><time>2026-05-03T14:27:12Z</time></trkpt><trkpt lat="43.33505553183137" lon="11.871539228094374"><ele>256.0</ele><time>2026-05-03T14:27:13Z</time></trkpt><trkpt lat="43.33498299288824" lon="11.871243158913686"><ele>256.0</ele><time>2026-05-03T14:27:14Z</time></trkpt><trkpt lat="43.33490834491772" lon="11.870943994952585"><ele>256.0</ele><time>2026-05-03T14:27:15Z</time></trkpt><trkpt lat="43.33482000141193" lon="11.870645148137546"><ele>256.5</ele><time>2026-05-03T14:27:16Z</time></trkpt><trkpt lat="43.33471672553737" lon="11.870343643214179"><ele>257.0</ele><time>2026-05-03T14:27:17Z</time></trkpt><trkpt lat="43.33461030736017" lon="11.87004567838431"><ele>257.0</ele><time>2026-05-03T14:27:18Z</time></trkpt><trkpt lat="43.33450961637815" lon="11.869736126055406"><ele>257.0</ele><time>2026-05-03T14:27:19Z</time></trkpt><trkpt lat="43.3343868837502" lon="11.8694289379685"><ele>256.5</ele><time>2026-05-03T14:27:20Z</time></trkpt><trkpt lat="43.334276223735934" lon="11.869111686407349"><ele>256.0</ele><time>2026-05-03T14:27:21Z</time></trkpt><trkpt lat="43.334165303644625" lon="11.86880019118765"><ele>256.0</ele><time>2026-05-03T14:27:22Z</time></trkpt><trkpt lat="43.33405287333402" lon="11.868486215514682"><ele>256.0</ele><time>2026-05-03T14:27:23Z</time></trkpt><trkpt lat="43.33393876409765" lon="11.868166137320129"><ele>257.0</ele><time>2026-05-03T14:27:24Z</time></trkpt><trkpt lat="43.33383144578618" lon="11.867857152779276"><ele>258.0</ele><time>2026-05-03T14:27:25Z</time></trkpt><trkpt lat="43.333723268440686" lon="11.867558793377567"><ele>258.5</ele><time>2026-05-03T14:27:26Z</time></trkpt><trkpt lat="43.333616473396155" lon="11.867261065424419"><ele>259.0</ele><time>2026-05-03T14:27:27Z</time></trkpt><trkpt lat="43.33350418393922" lon="11.866961973530582"><ele>259.5</ele><time>2026-05-03T14:27:28Z</time></trkpt><trkpt lat="43.333396383810864" lon="11.866664841948362"><ele>260.0</ele><time>2026-05-03T14:27:29Z</time></trkpt><trkpt lat="43.33328857148302" lon="11.866370390554966"><ele>260.0</ele><time>2026-05-03T14:27:30Z</time></trkpt><trkpt lat="43.333180682702654" lon="11.866077422158478"><ele>260.0</ele><time>2026-05-03T14:27:31Z</time></trkpt><trkpt lat="43.33307414525479" lon="11.865785756320232"><ele>259.5</ele><time>2026-05-03T14:27:32Z</time></trkpt><trkpt lat="43.33296899719738" lon="11.865493556393682"><ele>259.0</ele><time>2026-05-03T14:27:33Z</time></trkpt><trkpt lat="43.332862581747484" lon="11.865201349322003"><ele>259.0</ele><time>2026-05-03T14:27:34Z</time></trkpt><trkpt lat="43.332754676635794" lon="11.864906393454214"><ele>259.0</ele><time>2026-05-03T14:27:35Z</time></trkpt><trkpt lat="43.33264602579642" lon="11.864607101045854"><ele>259.0</ele><time>2026-05-03T14:27:36Z</time></trkpt><trkpt lat="43.3325327890141" lon="11.86430526948103"><ele>259.0</ele><time>2026-05-03T14:27:37Z</time></trkpt><trkpt lat="43.332417844508825" lon="11.864004711412218"><ele>259.5</ele><time>2026-05-03T14:27:38Z</time></trkpt><trkpt lat="43.33230167480632" lon="11.863707891201045"><ele>260.0</ele><time>2026-05-03T14:27:39Z</time></trkpt><trkpt lat="43.332187760039986" lon="11.863410754051902"><ele>260.0</ele><time>2026-05-03T14:27:40Z</time></trkpt><trkpt lat="43.33207628987651" lon="11.863119655426512"><ele>260.0</ele><time>2026-05-03T14:27:41Z</time></trkpt><trkpt lat="43.331958867625474" lon="11.862828038789464"><ele>260.5</ele><time>2026-05-03T14:27:42Z</time></trkpt><trkpt lat="43.33184641572002" lon="11.86254001060557"><ele>261.0</ele><time>2026-05-03T14:27:43Z</time></trkpt><trkpt lat="43.331741546163805" lon="11.86225379875314"><ele>261.0</ele><time>2026-05-03T14:27:44Z</time></trkpt><trkpt lat="43.33163105910705" lon="11.861966982582485"><ele>261.0</ele><time>2026-05-03T14:27:45Z</time></trkpt><trkpt lat="43.331534811741484" lon="11.861673356079852"><ele>260.5</ele><time>2026-05-03T14:27:46Z</time></trkpt><trkpt lat="43.33142608904388" lon="11.861391485002144"><ele>260.0</ele><time>2026-05-03T14:27:47Z</time></trkpt><trkpt lat="43.33130242025809" lon="11.861119137220035"><ele>260.5</ele><time>2026-05-03T14:27:48Z</time></trkpt><trkpt lat="43.33119376996632" lon="11.860826764385093"><ele>261.0</ele><time>2026-05-03T14:27:49Z</time></trkpt><trkpt lat="43.33107961567733" lon="11.860541622185652"><ele>261.0</ele><time>2026-05-03T14:27:50Z</time></trkpt><trkpt lat="43.33098296273419" lon="11.860245544043877"><ele>261.0</ele><time>2026-05-03T14:27:51Z</time></trkpt><trkpt lat="43.33087281388887" lon="11.859962095658796"><ele>261.0</ele><time>2026-05-03T14:27:52Z</time></trkpt><trkpt lat="43.33076161297011" lon="11.859675939948458"><ele>261.0</ele><time>2026-05-03T14:27:53Z</time></trkpt><trkpt lat="43.330636511283814" lon="11.859400778633987"><ele>261.5</ele><time>2026-05-03T14:27:54Z</time></trkpt><trkpt lat="43.3305410327615" lon="11.859108316185415"><ele>262.0</ele><time>2026-05-03T14:27:55Z</time></trkpt><trkpt lat="43.330432722325256" lon="11.85882959861676"><ele>262.0</ele><time>2026-05-03T14:27:56Z</time></trkpt><trkpt lat="43.33032578742105" lon="11.858554420736954"><ele>262.0</ele><time>2026-05-03T14:27:57Z</time></trkpt><trkpt lat="43.3302032959989" lon="11.858293181934673"><ele>262.0</ele><time>2026-05-03T14:27:58Z</time></trkpt><trkpt lat="43.33010163667046" lon="11.858018114728289"><ele>262.0</ele><time>2026-05-03T14:27:59Z</time></trkpt><trkpt lat="43.32999948728893" lon="11.857745178843667"><ele>262.0</ele><time>2026-05-03T14:28:00Z</time></trkpt><trkpt lat="43.329894120068566" lon="11.857478381085846"><ele>263.0</ele><time>2026-05-03T14:28:01Z</time></trkpt><trkpt lat="43.32979904802172" lon="11.857211564711054"><ele>264.0</ele><time>2026-05-03T14:28:02Z</time></trkpt><trkpt lat="43.32970170583061" lon="11.856956081970004"><ele>265.0</ele><time>2026-05-03T14:28:03Z</time></trkpt><trkpt lat="43.32960668124094" lon="11.856712840814442"><ele>265.0</ele><time>2026-05-03T14:28:04Z</time></trkpt><trkpt lat="43.329517194496944" lon="11.856469280685072"><ele>265.0</ele><time>2026-05-03T14:28:05Z</time></trkpt><trkpt lat="43.32942984496372" lon="11.856230162194505"><ele>265.0</ele><time>2026-05-03T14:28:06Z</time></trkpt><trkpt lat="43.32933925856511" lon="11.855996503472365"><ele>265.3333333333333</ele><time>2026-05-03T14:28:07Z</time></trkpt><trkpt lat="43.329249990475056" lon="11.855761174835601"><ele>265.6666666666667</ele><time>2026-05-03T14:28:08Z</time></trkpt><trkpt lat="43.32915849542384" lon="11.855525236411554"><ele>266.0</ele><time>2026-05-03T14:28:09Z</time></trkpt><trkpt lat="43.32906659044277" lon="11.855284790191204"><ele>266.33333333333337</ele><time>2026-05-03T14:28:10Z</time></trkpt><trkpt lat="43.32897691882241" lon="11.855037099410342"><ele>266.6666666666667</ele><time>2026-05-03T14:28:11Z</time></trkpt><trkpt lat="43.32888346301362" lon="11.854788423386937"><ele>267.0</ele><time>2026-05-03T14:28:12Z</time></trkpt><trkpt lat="43.328787751378655" lon="11.854534839439197"><ele>266.3333333333333</ele><time>2026-05-03T14:28:13Z</time></trkpt><trkpt lat="43.32868844656057" lon="11.85428047446681"><ele>265.66666666666663</ele><time>2026-05-03T14:28:14Z</time></trkpt><trkpt lat="43.32858817943927" lon="11.8540240321743"><ele>265.0</ele><time>2026-05-03T14:28:15Z</time></trkpt><trkpt lat="43.328492478191095" lon="11.853763880253375"><ele>265.0</ele><time>2026-05-03T14:28:16Z</time></trkpt><trkpt lat="43.32839473240522" lon="11.853504952837813"><ele>265.0</ele><time>2026-05-03T14:28:17Z</time></trkpt><trkpt lat="43.328298848347416" lon="11.85324696490213"><ele>265.0</ele><time>2026-05-03T14:28:18Z</time></trkpt><trkpt lat="43.32820403925165" lon="11.85298565421206"><ele>265.0</ele><time>2026-05-03T14:28:19Z</time></trkpt><trkpt lat="43.328113749638824" lon="11.852725076620604"><ele>265.0</ele><time>2026-05-03T14:28:20Z</time></trkpt><trkpt lat="43.328019333825075" lon="11.852466513150274"><ele>265.0</ele><time>2026-05-03T14:28:21Z</time></trkpt><trkpt lat="43.327925475061534" lon="11.852211127454439"><ele>265.3333333333333</ele><time>2026-05-03T14:28:22Z</time></trkpt><trkpt lat="43.32783585179132" lon="11.851957577320636"><ele>265.6666666666667</ele><time>2026-05-03T14:28:23Z</time></trkpt><trkpt lat="43.32775057997394" lon="11.851701907256466"><ele>266.0</ele><time>2026-05-03T14:28:24Z</time></trkpt><trkpt lat="43.32766510439206" lon="11.851445881583413"><ele>266.0</ele><time>2026-05-03T14:28:25Z</time></trkpt><trkpt lat="43.32758007658596" lon="11.85119178166317"><ele>266.0</ele><time>2026-05-03T14:28:26Z</time></trkpt><trkpt lat="43.32749600466311" lon="11.850941214227879"><ele>266.0</ele><time>2026-05-03T14:28:27Z</time></trkpt><trkpt lat="43.327412922166864" lon="11.850695485458179"><ele>266.33333333333337</ele><time>2026-05-03T14:28:28Z</time></trkpt><trkpt lat="43.32733305044063" lon="11.850464597222928"><ele>266.6666666666667</ele><time>2026-05-03T14:28:29Z</time></trkpt><trkpt lat="43.327255847478206" lon="11.850236413547274"><ele>267.0</ele><time>2026-05-03T14:28:30Z</time></trkpt><trkpt lat="43.32718012071427" lon="11.850009731214467"><ele>267.0</ele><time>2026-05-03T14:28:31Z</time></trkpt><trkpt lat="43.32709932830063" lon="11.849796077639628"><ele>267.0</ele><time>2026-05-03T14:28:32Z</time></trkpt><trkpt lat="43.327002340526874" lon="11.84960433954545"><ele>267.0</ele><time>2026-05-03T14:28:33Z</time></trkpt><trkpt lat="43.326889252012506" lon="11.849430663347517"><ele>266.6666666666667</ele><time>2026-05-03T14:28:34Z</time></trkpt><trkpt lat="43.32675803728598" lon="11.84927395975347"><ele>266.33333333333337</ele><time>2026-05-03T14:28:35Z</time></trkpt><trkpt lat="43.326611680698846" lon="11.84913288488558"><ele>266.0</ele><time>2026-05-03T14:28:36Z</time></trkpt><trkpt lat="43.326456699701524" lon="11.849004463828248"><ele>266.0</ele><time>2026-05-03T14:28:37Z</time></trkpt><trkpt lat="43.32629918102581" lon="11.84887305414873"><ele>266.0</ele><time>2026-05-03T14:28:38Z</time></trkpt><trkpt lat="43.3261424363365" lon="11.848735406210691"><ele>266.0</ele><time>2026-05-03T14:28:39Z</time></trkpt><trkpt lat="43.325982754563746" lon="11.848597997579104"><ele>266.0</ele><time>2026-05-03T14:28:40Z</time></trkpt><trkpt lat="43.32582359533721" lon="11.848465555692897"><ele>266.0</ele><time>2026-05-03T14:28:41Z</time></trkpt><trkpt lat="43.32566655321063" lon="11.848331249810432"><ele>266.0</ele><time>2026-05-03T14:28:42Z</time></trkpt><trkpt lat="43.325503835812036" lon="11.848197679690745"><ele>263.6666666666667</ele><time>2026-05-03T14:28:43Z</time></trkpt><trkpt lat="43.325340389599326" lon="11.848063064192564"><ele>261.3333333333333</ele><time>2026-05-03T14:28:44Z</time></trkpt><trkpt lat="43.32517659367006" lon="11.84792957403366"><ele>259.0</ele><time>2026-05-03T14:28:45Z</time></trkpt><trkpt lat="43.325012933690466" lon="11.847795052404583"><ele>259.0</ele><time>2026-05-03T14:28:46Z</time></trkpt><trkpt lat="43.3248493484019" lon="11.847656038831007"><ele>259.0</ele><time>2026-05-03T14:28:47Z</time></trkpt><trkpt lat="43.32468786624089" lon="11.84752142944048"><ele>259.0</ele><time>2026-05-03T14:28:48Z</time></trkpt><trkpt lat="43.32452859457025" lon="11.847382878192079"><ele>255.33333333333331</ele><time>2026-05-03T14:28:49Z</time></trkpt><trkpt lat="43.32436934268907" lon="11.84724884154126"><ele>251.66666666666669</ele><time>2026-05-03T14:28:50Z</time></trkpt><trkpt lat="43.32421275025725" lon="11.847111849223788"><ele>248.0</ele><time>2026-05-03T14:28:51Z</time></trkpt><trkpt lat="43.324074249597274" lon="11.846957221644658"><ele>247.33333333333334</ele><time>2026-05-03T14:28:52Z</time></trkpt><trkpt lat="43.32395467472152" lon="11.846777023650882"><ele>246.66666666666669</ele><time>2026-05-03T14:28:53Z</time></trkpt><trkpt lat="43.32385192376229" lon="11.846575411857822"><ele>246.0</ele><time>2026-05-03T14:28:54Z</time></trkpt><trkpt lat="43.32375957514004" lon="11.846358445999842"><ele>245.66666666666669</ele><time>2026-05-03T14:28:55Z</time></trkpt><trkpt lat="43.32367917558286" lon="11.846127198882195"><ele>245.33333333333334</ele><time>2026-05-03T14:28:56Z</time></trkpt><trkpt lat="43.32361008397304" lon="11.845889672733595"><ele>245.0</ele><time>2026-05-03T14:28:57Z</time></trkpt><trkpt lat="43.32354850656488" lon="11.845656859048686"><ele>244.0</ele><time>2026-05-03T14:28:58Z</time></trkpt><trkpt lat="43.32348711248313" lon="11.845433896388505"><ele>243.0</ele><time>2026-05-03T14:28:59Z</time></trkpt><trkpt lat="43.3234272128279" lon="11.845215023031528"><ele>242.0</ele><time>2026-05-03T14:29:00Z</time></trkpt><trkpt lat="43.32336607431322" lon="11.844993267356912"><ele>241.66666666666669</ele><time>2026-05-03T14:29:01Z</time></trkpt><trkpt lat="43.32330867145452" lon="11.844774376541281"><ele>241.33333333333331</ele><time>2026-05-03T14:29:02Z</time></trkpt><trkpt lat="43.32324869285718" lon="11.844556849784444"><ele>241.0</ele><time>2026-05-03T14:29:03Z</time></trkpt><trkpt lat="43.32318854948861" lon="11.844334215307308"><ele>241.33333333333331</ele><time>2026-05-03T14:29:04Z</time></trkpt><trkpt lat="43.32312371213105" lon="11.844104514089343"><ele>241.66666666666669</ele><time>2026-05-03T14:29:05Z</time></trkpt><trkpt lat="43.32305591791245" lon="11.843864909035421"><ele>242.0</ele><time>2026-05-03T14:29:06Z</time></trkpt><trkpt lat="43.322989988852285" lon="11.84361892389846"><ele>241.33333333333334</ele><time>2026-05-03T14:29:07Z</time></trkpt><trkpt lat="43.32292144477202" lon="11.843367990462058"><ele>240.66666666666669</ele><time>2026-05-03T14:29:08Z</time></trkpt><trkpt lat="43.32285422052506" lon="11.843122092587063"><ele>240.0</ele><time>2026-05-03T14:29:09Z</time></trkpt><trkpt lat="43.32278790641268" lon="11.8428736882943"><ele>240.33333333333331</ele><time>2026-05-03T14:29:10Z</time></trkpt><trkpt lat="43.3227187795265" lon="11.842622366368243"><ele>240.66666666666666</ele><time>2026-05-03T14:29:11Z</time></trkpt><trkpt lat="43.322651615091345" lon="11.842376467150887"><ele>241.0</ele><time>2026-05-03T14:29:12Z</time></trkpt><trkpt lat="43.32258171578982" lon="11.842133991991034"><ele>241.0</ele><time>2026-05-03T14:29:13Z</time></trkpt><trkpt lat="43.32251527445413" lon="11.841893281441926"><ele>241.0</ele><time>2026-05-03T14:29:14Z</time></trkpt><trkpt lat="43.322454301802594" lon="11.841652667804633"><ele>241.0</ele><time>2026-05-03T14:29:15Z</time></trkpt><trkpt lat="43.32238874041833" lon="11.841414466033887"><ele>241.0</ele><time>2026-05-03T14:29:16Z</time></trkpt><trkpt lat="43.32231984049329" lon="11.841180318225305"><ele>241.0</ele><time>2026-05-03T14:29:17Z</time></trkpt><trkpt lat="43.32224640331855" lon="11.84095025766855"><ele>241.0</ele><time>2026-05-03T14:29:18Z</time></trkpt><trkpt lat="43.32216715956979" lon="11.840727297574617"><ele>241.0</ele><time>2026-05-03T14:29:19Z</time></trkpt><trkpt lat="43.32208160138975" lon="11.840507031453306"><ele>241.0</ele><time>2026-05-03T14:29:20Z</time></trkpt><trkpt lat="43.32199558725323" lon="11.840285850136537"><ele>241.0</ele><time>2026-05-03T14:29:21Z</time></trkpt><trkpt lat="43.32190791802203" lon="11.840066321859062"><ele>240.66666666666666</ele><time>2026-05-03T14:29:22Z</time></trkpt><trkpt lat="43.32181891076018" lon="11.83984830739677"><ele>240.33333333333331</ele><time>2026-05-03T14:29:23Z</time></trkpt><trkpt lat="43.32174295184597" lon="11.839613563581656"><ele>240.0</ele><time>2026-05-03T14:29:24Z</time></trkpt><trkpt lat="43.32164178603623" lon="11.839406894181849"><ele>240.0</ele><time>2026-05-03T14:29:25Z</time></trkpt><trkpt lat="43.321556056687086" lon="11.839186060625641"><ele>240.0</ele><time>2026-05-03T14:29:26Z</time></trkpt><trkpt lat="43.32147020960272" lon="11.838966782194783"><ele>240.0</ele><time>2026-05-03T14:29:27Z</time></trkpt><trkpt lat="43.32138690073007" lon="11.838754674455057"><ele>240.0</ele><time>2026-05-03T14:29:28Z</time></trkpt><trkpt lat="43.321311191154386" lon="11.83855831274694"><ele>240.0</ele><time>2026-05-03T14:29:29Z</time></trkpt><trkpt lat="43.32123759400881" lon="11.838369167842679"><ele>240.0</ele><time>2026-05-03T14:29:30Z</time></trkpt><trkpt lat="43.3211675653182" lon="11.83819256866559"><ele>240.25</ele><time>2026-05-03T14:29:31Z</time></trkpt><trkpt lat="43.321099861723525" lon="11.838030184249392"><ele>240.5</ele><time>2026-05-03T14:29:32Z</time></trkpt><trkpt lat="43.32103755315463" lon="11.837873556740593"><ele>240.75</ele><time>2026-05-03T14:29:33Z</time></trkpt><trkpt lat="43.32097773958573" lon="11.837724510318738"><ele>241.0</ele><time>2026-05-03T14:29:34Z</time></trkpt><trkpt lat="43.320929178229584" lon="11.83758386268956"><ele>241.16666666666666</ele><time>2026-05-03T14:29:35Z</time></trkpt><trkpt lat="43.320878360921824" lon="11.83745515932696"><ele>241.33333333333331</ele><time>2026-05-03T14:29:36Z</time></trkpt><trkpt lat="43.32082879402099" lon="11.837332840046017"><ele>241.5</ele><time>2026-05-03T14:29:37Z</time></trkpt><trkpt lat="43.32078197278424" lon="11.837226115932657"><ele>241.66666666666669</ele><time>2026-05-03T14:29:38Z</time></trkpt><trkpt lat="43.32074102377889" lon="11.83712979347453"><ele>241.83333333333334</ele><time>2026-05-03T14:29:39Z</time></trkpt><trkpt lat="43.32070730960476" lon="11.83704953079003"><ele>242.0</ele><time>2026-05-03T14:29:40Z</time></trkpt><trkpt lat="43.32067524975828" lon="11.836973595365997"><ele>242.0</ele><time>2026-05-03T14:29:41Z</time></trkpt><trkpt lat="43.32062635976872" lon="11.836855922961167"><ele>242.0</ele><time>2026-05-03T14:29:43Z</time></trkpt><trkpt lat="43.320591356731114" lon="11.836780599815704"><ele>242.0</ele><time>2026-05-03T14:30:28Z</time></trkpt><trkpt lat="43.320547732757184" lon="11.836666206484558"><ele>242.0</ele><time>2026-05-03T14:30:30Z</time></trkpt><trkpt lat="43.320503690249" lon="11.836504675134236"><ele>242.0</ele><time>2026-05-03T14:30:32Z</time></trkpt><trkpt lat="43.32047208136145" lon="11.836395219406272"><ele>241.8</ele><time>2026-05-03T14:30:33Z</time></trkpt><trkpt lat="43.32043805415815" lon="11.836267863162712"><ele>241.6</ele><time>2026-05-03T14:30:34Z</time></trkpt><trkpt lat="43.320405159878895" lon="11.836142760450718"><ele>241.40000000000003</ele><time>2026-05-03T14:30:35Z</time></trkpt><trkpt lat="43.320366152368905" lon="11.835989698089117"><ele>241.20000000000002</ele><time>2026-05-03T14:30:36Z</time></trkpt><trkpt lat="43.32032885119707" lon="11.835842609392198"><ele>241.0</ele><time>2026-05-03T14:30:37Z</time></trkpt><trkpt lat="43.32028852707455" lon="11.835705153724358"><ele>241.0</ele><time>2026-05-03T14:30:38Z</time></trkpt><trkpt lat="43.320224445727966" lon="11.835562853478367"><ele>241.0</ele><time>2026-05-03T14:30:39Z</time></trkpt><trkpt lat="43.32016202487739" lon="11.835414362663874"><ele>241.0</ele><time>2026-05-03T14:30:40Z</time></trkpt><trkpt lat="43.32007217613432" lon="11.83527049191015"><ele>241.0</ele><time>2026-05-03T14:30:41Z</time></trkpt><trkpt lat="43.319974225458566" lon="11.835125111793896"><ele>241.5</ele><time>2026-05-03T14:30:42Z</time></trkpt><trkpt lat="43.31987728254546" lon="11.834976573664196"><ele>242.0</ele><time>2026-05-03T14:30:43Z</time></trkpt><trkpt lat="43.31978171680167" lon="11.834831152719635"><ele>242.5</ele><time>2026-05-03T14:30:44Z</time></trkpt><trkpt lat="43.31967246009455" lon="11.83467413424521"><ele>243.0</ele><time>2026-05-03T14:30:45Z</time></trkpt><trkpt lat="43.31956598698108" lon="11.83451287632675"><ele>243.0</ele><time>2026-05-03T14:30:46Z</time></trkpt><trkpt lat="43.31946157949945" lon="11.834353435372412"><ele>243.0</ele><time>2026-05-03T14:30:47Z</time></trkpt><trkpt lat="43.31936113134213" lon="11.834184329286394"><ele>243.0</ele><time>2026-05-03T14:30:48Z</time></trkpt><trkpt lat="43.31926450337162" lon="11.834017588693118"><ele>243.0</ele><time>2026-05-03T14:30:49Z</time></trkpt><trkpt lat="43.319172620424325" lon="11.833853564711957"><ele>243.0</ele><time>2026-05-03T14:30:50Z</time></trkpt><trkpt lat="43.31908035538377" lon="11.833680616608284"><ele>243.0</ele><time>2026-05-03T14:30:51Z</time></trkpt><trkpt lat="43.31898598948945" lon="11.833510727098977"><ele>243.0</ele><time>2026-05-03T14:30:52Z</time></trkpt><trkpt lat="43.318891602271634" lon="11.833331911577144"><ele>243.0</ele><time>2026-05-03T14:30:53Z</time></trkpt><trkpt lat="43.31879673997884" lon="11.833151196300888"><ele>243.0</ele><time>2026-05-03T14:30:54Z</time></trkpt><trkpt lat="43.31870285516123" lon="11.832975023493537"><ele>243.0</ele><time>2026-05-03T14:30:55Z</time></trkpt><trkpt lat="43.31860855903398" lon="11.832796476217275"><ele>243.0</ele><time>2026-05-03T14:30:56Z</time></trkpt><trkpt lat="43.318518335742" lon="11.832613883558983"><ele>243.0</ele><time>2026-05-03T14:30:57Z</time></trkpt><trkpt lat="43.318430878556825" lon="11.8324360568439"><ele>243.0</ele><time>2026-05-03T14:30:58Z</time></trkpt><trkpt lat="43.31834419183935" lon="11.83225553374387"><ele>243.0</ele><time>2026-05-03T14:30:59Z</time></trkpt><trkpt lat="43.31826841893931" lon="11.832069432319614"><ele>243.0</ele><time>2026-05-03T14:31:00Z</time></trkpt><trkpt lat="43.318206769096484" lon="11.831866759431726"><ele>243.0</ele><time>2026-05-03T14:31:01Z</time></trkpt><trkpt lat="43.3181660591813" lon="11.831664362189581"><ele>243.0</ele><time>2026-05-03T14:31:02Z</time></trkpt><trkpt lat="43.318141403625404" lon="11.831456596153764"><ele>243.0</ele><time>2026-05-03T14:31:03Z</time></trkpt><trkpt lat="43.31813200513438" lon="11.831238186176115"><ele>243.0</ele><time>2026-05-03T14:31:04Z</time></trkpt><trkpt lat="43.318138015899756" lon="11.831014843220794"><ele>243.0</ele><time>2026-05-03T14:31:05Z</time></trkpt><trkpt lat="43.3181536758714" lon="11.83079238628274"><ele>243.0</ele><time>2026-05-03T14:31:06Z</time></trkpt><trkpt lat="43.31817525638404" lon="11.83055975752856"><ele>242.66666666666669</ele><time>2026-05-03T14:31:07Z</time></trkpt><trkpt lat="43.31819700421714" lon="11.830327324484148"><ele>242.33333333333334</ele><time>2026-05-03T14:31:08Z</time></trkpt><trkpt lat="43.3182232249658" lon="11.830097853948928"><ele>242.0</ele><time>2026-05-03T14:31:09Z</time></trkpt><trkpt lat="43.31824189934401" lon="11.829863457085981"><ele>243.0</ele><time>2026-05-03T14:31:10Z</time></trkpt><trkpt lat="43.31826275240607" lon="11.829631621562974"><ele>244.0</ele><time>2026-05-03T14:31:11Z</time></trkpt><trkpt lat="43.318284420649015" lon="11.8293980306131"><ele>245.0</ele><time>2026-05-03T14:31:12Z</time></trkpt><trkpt lat="43.31830513040323" lon="11.829170170055578"><ele>245.0</ele><time>2026-05-03T14:31:13Z</time></trkpt><trkpt lat="43.318325854586874" lon="11.828945068886876"><ele>245.0</ele><time>2026-05-03T14:31:14Z</time></trkpt><trkpt lat="43.318348239612305" lon="11.828721138312018"><ele>245.0</ele><time>2026-05-03T14:31:15Z</time></trkpt><trkpt lat="43.318371742417455" lon="11.828500187041776"><ele>244.66666666666669</ele><time>2026-05-03T14:31:16Z</time></trkpt><trkpt lat="43.31839344805233" lon="11.828281011616113"><ele>244.33333333333331</ele><time>2026-05-03T14:31:17Z</time></trkpt><trkpt lat="43.318415001956446" lon="11.82805020703949"><ele>244.0</ele><time>2026-05-03T14:31:18Z</time></trkpt><trkpt lat="43.318436498683766" lon="11.827815703730627"><ele>244.33333333333331</ele><time>2026-05-03T14:31:19Z</time></trkpt><trkpt lat="43.31845898216003" lon="11.827572193949713"><ele>244.66666666666669</ele><time>2026-05-03T14:31:20Z</time></trkpt><trkpt lat="43.3184832963792" lon="11.827311660893686"><ele>245.0</ele><time>2026-05-03T14:31:21Z</time></trkpt><trkpt lat="43.318510256615" lon="11.827040670785145"><ele>244.66666666666669</ele><time>2026-05-03T14:31:22Z</time></trkpt><trkpt lat="43.318536417312764" lon="11.826765173064544"><ele>244.33333333333331</ele><time>2026-05-03T14:31:23Z</time></trkpt><trkpt lat="43.31856338639541" lon="11.826484186576854"><ele>244.0</ele><time>2026-05-03T14:31:24Z</time></trkpt><trkpt lat="43.31859081098341" lon="11.826206159799792"><ele>244.0</ele><time>2026-05-03T14:31:25Z</time></trkpt><trkpt lat="43.31861669691563" lon="11.825930224940748"><ele>244.0</ele><time>2026-05-03T14:31:26Z</time></trkpt><trkpt lat="43.318641742136066" lon="11.825659869998313"><ele>244.0</ele><time>2026-05-03T14:31:27Z</time></trkpt><trkpt lat="43.31866847518338" lon="11.825392709767097"><ele>243.66666666666666</ele><time>2026-05-03T14:31:28Z</time></trkpt><trkpt lat="43.318695153030404" lon="11.825124682677393"><ele>243.33333333333331</ele><time>2026-05-03T14:31:29Z</time></trkpt><trkpt lat="43.318719343862504" lon="11.824858201190123"><ele>243.0</ele><time>2026-05-03T14:31:30Z</time></trkpt><trkpt lat="43.31874494911554" lon="11.824590682101539"><ele>243.0</ele><time>2026-05-03T14:31:31Z</time></trkpt><trkpt lat="43.318771940946846" lon="11.8243221804825"><ele>243.0</ele><time>2026-05-03T14:31:32Z</time></trkpt><trkpt lat="43.31880037711599" lon="11.824056136403085"><ele>243.0</ele><time>2026-05-03T14:31:33Z</time></trkpt><trkpt lat="43.318826514343954" lon="11.823791190316058"><ele>243.33333333333331</ele><time>2026-05-03T14:31:34Z</time></trkpt><trkpt lat="43.31885242421198" lon="11.823527140074953"><ele>243.66666666666666</ele><time>2026-05-03T14:31:35Z</time></trkpt><trkpt lat="43.31887832838335" lon="11.823274287076757"><ele>244.0</ele><time>2026-05-03T14:31:36Z</time></trkpt><trkpt lat="43.3189052916294" lon="11.823009853557139"><ele>244.0</ele><time>2026-05-03T14:31:37Z</time></trkpt><trkpt lat="43.318931429818875" lon="11.82274027785017"><ele>244.0</ele><time>2026-05-03T14:31:38Z</time></trkpt><trkpt lat="43.318956649293206" lon="11.822467338190963"><ele>244.0</ele><time>2026-05-03T14:31:39Z</time></trkpt><trkpt lat="43.318979835245834" lon="11.822194543047573"><ele>244.0</ele><time>2026-05-03T14:31:40Z</time></trkpt><trkpt lat="43.319005095175086" lon="11.821922468449275"><ele>244.0</ele><time>2026-05-03T14:31:41Z</time></trkpt><trkpt lat="43.31903362311885" lon="11.821650791272916"><ele>244.0</ele><time>2026-05-03T14:31:42Z</time></trkpt><trkpt lat="43.31906020616169" lon="11.821380006433635"><ele>244.0</ele><time>2026-05-03T14:31:43Z</time></trkpt><trkpt lat="43.31908490601191" lon="11.82111067158961"><ele>244.0</ele><time>2026-05-03T14:31:44Z</time></trkpt><trkpt lat="43.31910917875764" lon="11.820841680928265"><ele>244.0</ele><time>2026-05-03T14:31:45Z</time></trkpt><trkpt lat="43.319132623308946" lon="11.820576071108865"><ele>244.66666666666666</ele><time>2026-05-03T14:31:46Z</time></trkpt><trkpt lat="43.31915567626505" lon="11.820312933190317"><ele>245.33333333333331</ele><time>2026-05-03T14:31:47Z</time></trkpt><trkpt lat="43.31918026447736" lon="11.820050186631843"><ele>246.0</ele><time>2026-05-03T14:31:48Z</time></trkpt><trkpt lat="43.31920514698849" lon="11.819791415373794"><ele>246.0</ele><time>2026-05-03T14:31:49Z</time></trkpt><trkpt lat="43.31922927427157" lon="11.81953154714539"><ele>246.0</ele><time>2026-05-03T14:31:50Z</time></trkpt><trkpt lat="43.31925438549394" lon="11.819272006365818"><ele>246.0</ele><time>2026-05-03T14:31:51Z</time></trkpt><trkpt lat="43.31927989233768" lon="11.819009862334388"><ele>246.0</ele><time>2026-05-03T14:31:52Z</time></trkpt><trkpt lat="43.31930615355513" lon="11.81874703041895"><ele>246.0</ele><time>2026-05-03T14:31:53Z</time></trkpt><trkpt lat="43.31933256124154" lon="11.818486832650471"><ele>246.0</ele><time>2026-05-03T14:31:54Z</time></trkpt><trkpt lat="43.31936085974612" lon="11.81822479690851"><ele>245.66666666666669</ele><time>2026-05-03T14:31:55Z</time></trkpt><trkpt lat="43.3193887333483" lon="11.817964264389195"><ele>245.33333333333334</ele><time>2026-05-03T14:31:56Z</time></trkpt><trkpt lat="43.31941670237941" lon="11.817704157410388"><ele>245.0</ele><time>2026-05-03T14:31:57Z</time></trkpt><trkpt lat="43.31944546165116" lon="11.817443199571203"><ele>245.0</ele><time>2026-05-03T14:31:58Z</time></trkpt><trkpt lat="43.319474422251005" lon="11.817187707939418"><ele>245.0</ele><time>2026-05-03T14:31:59Z</time></trkpt><trkpt lat="43.31950109690777" lon="11.81694543970664"><ele>245.0</ele><time>2026-05-03T14:32:00Z</time></trkpt><trkpt lat="43.319527099820704" lon="11.816715068709902"><ele>245.33333333333334</ele><time>2026-05-03T14:32:01Z</time></trkpt><trkpt lat="43.319549777402194" lon="11.816499347309325"><ele>245.66666666666669</ele><time>2026-05-03T14:32:02Z</time></trkpt><trkpt lat="43.31957388254652" lon="11.81628811061786"><ele>246.0</ele><time>2026-05-03T14:32:03Z</time></trkpt><trkpt lat="43.31959559800521" lon="11.816077355987943"><ele>245.75</ele><time>2026-05-03T14:32:04Z</time></trkpt><trkpt lat="43.319606873872345" lon="11.815875408164873"><ele>245.5</ele><time>2026-05-03T14:32:05Z</time></trkpt><trkpt lat="43.319605682275025" lon="11.815675561586877"><ele>245.25</ele><time>2026-05-03T14:32:06Z</time></trkpt><trkpt lat="43.31958566638011" lon="11.815477145074178"><ele>245.0</ele><time>2026-05-03T14:32:07Z</time></trkpt><trkpt lat="43.31954432530714" lon="11.81528496938582"><ele>245.0</ele><time>2026-05-03T14:32:08Z</time></trkpt><trkpt lat="43.319485436505296" lon="11.815099853439007"><ele>245.0</ele><time>2026-05-03T14:32:09Z</time></trkpt><trkpt lat="43.31941376029885" lon="11.81492664133147"><ele>245.0</ele><time>2026-05-03T14:32:10Z</time></trkpt><trkpt lat="43.319327767731906" lon="11.814764894897676"><ele>245.0</ele><time>2026-05-03T14:32:11Z</time></trkpt><trkpt lat="43.31923162368621" lon="11.814612926436512"><ele>245.0</ele><time>2026-05-03T14:32:12Z</time></trkpt><trkpt lat="43.319127556553376" lon="11.81446839363554"><ele>245.0</ele><time>2026-05-03T14:32:13Z</time></trkpt><trkpt lat="43.319025834363245" lon="11.814321586489939"><ele>245.0</ele><time>2026-05-03T14:32:14Z</time></trkpt><trkpt lat="43.318924914870365" lon="11.81417771894272"><ele>245.0</ele><time>2026-05-03T14:32:15Z</time></trkpt><trkpt lat="43.318827171499635" lon="11.81403818802655"><ele>245.25</ele><time>2026-05-03T14:32:16Z</time></trkpt><trkpt lat="43.31873696121016" lon="11.81390757493024"><ele>245.5</ele><time>2026-05-03T14:32:17Z</time></trkpt><trkpt lat="43.318646745125285" lon="11.813780128960577"><ele>245.75</ele><time>2026-05-03T14:32:18Z</time></trkpt><trkpt lat="43.31856512111019" lon="11.81366424482819"><ele>246.0</ele><time>2026-05-03T14:32:19Z</time></trkpt><trkpt lat="43.31848785796886" lon="11.813552599031931"><ele>246.16666666666666</ele><time>2026-05-03T14:32:20Z</time></trkpt><trkpt lat="43.31841212576429" lon="11.813447074463081"><ele>246.33333333333331</ele><time>2026-05-03T14:32:21Z</time></trkpt><trkpt lat="43.318347080270804" lon="11.813350516998096"><ele>246.5</ele><time>2026-05-03T14:32:22Z</time></trkpt><trkpt lat="43.31828895637763" lon="11.813264413835135"><ele>246.66666666666666</ele><time>2026-05-03T14:32:23Z</time></trkpt><trkpt lat="43.31823260616894" lon="11.813181282522715"><ele>246.83333333333331</ele><time>2026-05-03T14:32:24Z</time></trkpt><trkpt lat="43.318183849808285" lon="11.813110866611439"><ele>247.0</ele><time>2026-05-03T14:32:25Z</time></trkpt><trkpt lat="43.31813724935332" lon="11.813038814787937"><ele>247.0</ele><time>2026-05-03T14:32:27Z</time></trkpt><trkpt lat="43.318114792755225" lon="11.81295493256525"><ele>247.0</ele><time>2026-05-03T14:32:29Z</time></trkpt><trkpt lat="43.31805635663347" lon="11.812868517153431"><ele>247.0</ele><time>2026-05-03T14:32:31Z</time></trkpt><trkpt lat="43.3180495592144" lon="11.812718520776839"><ele>247.0</ele><time>2026-05-03T14:32:33Z</time></trkpt><trkpt lat="43.31801593542815" lon="11.812573003597182"><ele>247.0</ele><time>2026-05-03T14:32:35Z</time></trkpt><trkpt lat="43.31791408362205" lon="11.812469803295421"><ele>247.39999999999998</ele><time>2026-05-03T14:32:37Z</time></trkpt><trkpt lat="43.31783015282524" lon="11.812435644701862"><ele>247.79999999999998</ele><time>2026-05-03T14:32:38Z</time></trkpt><trkpt lat="43.31773274644022" lon="11.812386906029026"><ele>248.2</ele><time>2026-05-03T14:32:39Z</time></trkpt><trkpt lat="43.31765193816316" lon="11.812299237454425"><ele>248.6</ele><time>2026-05-03T14:32:40Z</time></trkpt><trkpt lat="43.31757595656788" lon="11.81220276008832"><ele>249.0</ele><time>2026-05-03T14:32:41Z</time></trkpt><trkpt lat="43.31748853671344" lon="11.81208199865923"><ele>249.0</ele><time>2026-05-03T14:32:42Z</time></trkpt><trkpt lat="43.317397497809935" lon="11.811957890235673"><ele>249.0</ele><time>2026-05-03T14:32:43Z</time></trkpt><trkpt lat="43.31730302481907" lon="11.811823803424666"><ele>249.0</ele><time>2026-05-03T14:32:44Z</time></trkpt><trkpt lat="43.317202583679915" lon="11.811685636394934"><ele>249.0</ele><time>2026-05-03T14:32:45Z</time></trkpt><trkpt lat="43.31709650079108" lon="11.811543210528383"><ele>249.0</ele><time>2026-05-03T14:32:46Z</time></trkpt><trkpt lat="43.31699541838251" lon="11.811402699623462"><ele>249.0</ele><time>2026-05-03T14:32:47Z</time></trkpt><trkpt lat="43.3168897367526" lon="11.811257411183528"><ele>249.0</ele><time>2026-05-03T14:32:48Z</time></trkpt><trkpt lat="43.31678229920989" lon="11.811103267659586"><ele>249.0</ele><time>2026-05-03T14:32:49Z</time></trkpt><trkpt lat="43.31667462941628" lon="11.810947359922075"><ele>249.0</ele><time>2026-05-03T14:32:50Z</time></trkpt><trkpt lat="43.316561232364585" lon="11.810788280921683"><ele>249.0</ele><time>2026-05-03T14:32:51Z</time></trkpt><trkpt lat="43.31645123323047" lon="11.810631780319092"><ele>249.0</ele><time>2026-05-03T14:32:52Z</time></trkpt><trkpt lat="43.316338826037814" lon="11.810483090688622"><ele>249.33333333333331</ele><time>2026-05-03T14:32:53Z</time></trkpt><trkpt lat="43.31623168429565" lon="11.810332449668671"><ele>249.66666666666666</ele><time>2026-05-03T14:32:54Z</time></trkpt><trkpt lat="43.31612518410203" lon="11.81017755165731"><ele>250.0</ele><time>2026-05-03T14:32:55Z</time></trkpt><trkpt lat="43.31602179923152" lon="11.810027174524196"><ele>250.66666666666666</ele><time>2026-05-03T14:32:56Z</time></trkpt><trkpt lat="43.315913060905984" lon="11.809874258307106"><ele>251.33333333333331</ele><time>2026-05-03T14:32:57Z</time></trkpt><trkpt lat="43.31580704447815" lon="11.809717308930798"><ele>252.0</ele><time>2026-05-03T14:32:58Z</time></trkpt><trkpt lat="43.31570615494219" lon="11.809556357625159"><ele>252.0</ele><time>2026-05-03T14:32:59Z</time></trkpt><trkpt lat="43.31560340841998" lon="11.80938623937611"><ele>252.0</ele><time>2026-05-03T14:33:00Z</time></trkpt><trkpt lat="43.31550008231796" lon="11.809208943732452"><ele>252.0</ele><time>2026-05-03T14:33:01Z</time></trkpt><trkpt lat="43.31538050310553" lon="11.809019957942994"><ele>253.66666666666669</ele><time>2026-05-03T14:33:02Z</time></trkpt><trkpt lat="43.31526712555755" lon="11.808826550875503"><ele>255.33333333333334</ele><time>2026-05-03T14:33:03Z</time></trkpt><trkpt lat="43.31514821061871" lon="11.808630775495281"><ele>257.0</ele><time>2026-05-03T14:33:04Z</time></trkpt><trkpt lat="43.31503146283288" lon="11.80843758376309"><ele>258.0</ele><time>2026-05-03T14:33:05Z</time></trkpt><trkpt lat="43.31491420168135" lon="11.808250466629408"><ele>259.0</ele><time>2026-05-03T14:33:06Z</time></trkpt><trkpt lat="43.314801099677524" lon="11.808064136447227"><ele>260.0</ele><time>2026-05-03T14:33:07Z</time></trkpt><trkpt lat="43.31469335314748" lon="11.807885036777176"><ele>261.0</ele><time>2026-05-03T14:33:08Z</time></trkpt><trkpt lat="43.314580435336566" lon="11.807696531819678"><ele>262.0</ele><time>2026-05-03T14:33:09Z</time></trkpt><trkpt lat="43.31446346701859" lon="11.807507675951253"><ele>263.0</ele><time>2026-05-03T14:33:10Z</time></trkpt><trkpt lat="43.31434343387685" lon="11.807311025364758"><ele>263.0</ele><time>2026-05-03T14:33:11Z</time></trkpt><trkpt lat="43.31422160838268" lon="11.80711285262646"><ele>263.0</ele><time>2026-05-03T14:33:12Z</time></trkpt><trkpt lat="43.31409470043244" lon="11.806902466861425"><ele>263.0</ele><time>2026-05-03T14:33:13Z</time></trkpt><trkpt lat="43.31396533199598" lon="11.8066905333201"><ele>260.6666666666667</ele><time>2026-05-03T14:33:14Z</time></trkpt><trkpt lat="43.31383705983448" lon="11.806477630081554"><ele>258.3333333333333</ele><time>2026-05-03T14:33:15Z</time></trkpt><trkpt lat="43.31371092760597" lon="11.806268453948507"><ele>256.0</ele><time>2026-05-03T14:33:16Z</time></trkpt><trkpt lat="43.31358837187231" lon="11.806068971901427"><ele>255.66666666666666</ele><time>2026-05-03T14:33:17Z</time></trkpt><trkpt lat="43.31345808867856" lon="11.805852883588656"><ele>255.33333333333331</ele><time>2026-05-03T14:33:18Z</time></trkpt><trkpt lat="43.31332328511672" lon="11.805629448539811"><ele>255.0</ele><time>2026-05-03T14:33:19Z</time></trkpt><trkpt lat="43.31318800323043" lon="11.805401569585118"><ele>254.66666666666669</ele><time>2026-05-03T14:33:20Z</time></trkpt><trkpt lat="43.31305083392863" lon="11.805174513182708"><ele>254.33333333333334</ele><time>2026-05-03T14:33:21Z</time></trkpt><trkpt lat="43.31290797742926" lon="11.804937096468636"><ele>254.0</ele><time>2026-05-03T14:33:22Z</time></trkpt><trkpt lat="43.312767026893155" lon="11.804697505177272"><ele>254.0</ele><time>2026-05-03T14:33:23Z</time></trkpt><trkpt lat="43.31262389414487" lon="11.804461000110026"><ele>254.0</ele><time>2026-05-03T14:33:24Z</time></trkpt><trkpt lat="43.31247864297074" lon="11.804225302804682"><ele>254.0</ele><time>2026-05-03T14:33:25Z</time></trkpt><trkpt lat="43.31233422178688" lon="11.803992939685802"><ele>255.66666666666669</ele><time>2026-05-03T14:33:26Z</time></trkpt><trkpt lat="43.31218772321413" lon="11.803770894616843"><ele>257.3333333333333</ele><time>2026-05-03T14:33:27Z</time></trkpt><trkpt lat="43.31203385743059" lon="11.803568934737143"><ele>259.0</ele><time>2026-05-03T14:33:28Z</time></trkpt><trkpt lat="43.311869441500974" lon="11.803393619300435"><ele>259.66666666666663</ele><time>2026-05-03T14:33:29Z</time></trkpt><trkpt lat="43.311694785240896" lon="11.803237898321775"><ele>260.3333333333333</ele><time>2026-05-03T14:33:30Z</time></trkpt><trkpt lat="43.311518253785444" lon="11.803094130087402"><ele>261.0</ele><time>2026-05-03T14:33:31Z</time></trkpt><trkpt lat="43.311331484369134" lon="11.802956744861145"><ele>263.0</ele><time>2026-05-03T14:33:32Z</time></trkpt><trkpt lat="43.31114094359076" lon="11.802820310157212"><ele>265.0</ele><time>2026-05-03T14:33:33Z</time></trkpt><trkpt lat="43.310948598542254" lon="11.802686538467274"><ele>267.0</ele><time>2026-05-03T14:33:34Z</time></trkpt><trkpt lat="43.310764963021136" lon="11.802531407638922"><ele>268.0</ele><time>2026-05-03T14:33:35Z</time></trkpt><trkpt lat="43.310576404122884" lon="11.80238565605354"><ele>269.0</ele><time>2026-05-03T14:33:36Z</time></trkpt><trkpt lat="43.31038515885765" lon="11.802237567611169"><ele>270.0</ele><time>2026-05-03T14:33:37Z</time></trkpt><trkpt lat="43.31019062921813" lon="11.802088013863997"><ele>272.5</ele><time>2026-05-03T14:33:38Z</time></trkpt><trkpt lat="43.309988613780895" lon="11.801955228864916"><ele>275.0</ele><time>2026-05-03T14:33:39Z</time></trkpt><trkpt lat="43.30979411610699" lon="11.80179712872153"><ele>277.6666666666667</ele><time>2026-05-03T14:33:40Z</time></trkpt><trkpt lat="43.30960146546512" lon="11.801645196895548"><ele>280.3333333333333</ele><time>2026-05-03T14:33:41Z</time></trkpt><trkpt lat="43.309411614184214" lon="11.80149238481841"><ele>283.0</ele><time>2026-05-03T14:33:42Z</time></trkpt><trkpt lat="43.30922393961752" lon="11.801340608713492"><ele>283.0</ele><time>2026-05-03T14:33:43Z</time></trkpt><trkpt lat="43.30903747748272" lon="11.801188756143247"><ele>283.0</ele><time>2026-05-03T14:33:44Z</time></trkpt><trkpt lat="43.30885099727915" lon="11.801033539630685"><ele>283.0</ele><time>2026-05-03T14:33:45Z</time></trkpt><trkpt lat="43.308664919002524" lon="11.800871928283263"><ele>286.0</ele><time>2026-05-03T14:33:46Z</time></trkpt><trkpt lat="43.308487033763136" lon="11.800710833059627"><ele>289.0</ele><time>2026-05-03T14:33:47Z</time></trkpt><trkpt lat="43.308316040072896" lon="11.80054955835763"><ele>292.0</ele><time>2026-05-03T14:33:48Z</time></trkpt><trkpt lat="43.30815021613425" lon="11.800380081950319"><ele>293.0</ele><time>2026-05-03T14:33:49Z</time></trkpt><trkpt lat="43.30799118794629" lon="11.800204613559355"><ele>294.0</ele><time>2026-05-03T14:33:50Z</time></trkpt><trkpt lat="43.307839632734414" lon="11.800039223570257"><ele>295.0</ele><time>2026-05-03T14:33:51Z</time></trkpt><trkpt lat="43.307694652021254" lon="11.799874302282806"><ele>295.0</ele><time>2026-05-03T14:33:52Z</time></trkpt><trkpt lat="43.307548903624166" lon="11.799710023529931"><ele>295.0</ele><time>2026-05-03T14:33:53Z</time></trkpt><trkpt lat="43.30739840394337" lon="11.799547581771396"><ele>295.0</ele><time>2026-05-03T14:33:54Z</time></trkpt><trkpt lat="43.307248694933705" lon="11.79937886679562"><ele>293.3333333333333</ele><time>2026-05-03T14:33:55Z</time></trkpt><trkpt lat="43.30709965175448" lon="11.799202729197628"><ele>291.6666666666667</ele><time>2026-05-03T14:33:56Z</time></trkpt><trkpt lat="43.30695369287469" lon="11.79902168904939"><ele>290.0</ele><time>2026-05-03T14:33:57Z</time></trkpt><trkpt lat="43.30681399800117" lon="11.798832925422674"><ele>290.0</ele><time>2026-05-03T14:33:58Z</time></trkpt><trkpt lat="43.306680941701146" lon="11.7986345570476"><ele>290.0</ele><time>2026-05-03T14:33:59Z</time></trkpt><trkpt lat="43.30655757665908" lon="11.798425643300867"><ele>290.0</ele><time>2026-05-03T14:34:00Z</time></trkpt><trkpt lat="43.30644961245243" lon="11.798203995116824"><ele>290.0</ele><time>2026-05-03T14:34:01Z</time></trkpt><trkpt lat="43.30634506393002" lon="11.79797179352324"><ele>290.0</ele><time>2026-05-03T14:34:02Z</time></trkpt><trkpt lat="43.306244241343656" lon="11.797734553204942"><ele>290.0</ele><time>2026-05-03T14:34:03Z</time></trkpt><trkpt lat="43.306152290440636" lon="11.79749529110239"><ele>290.0</ele><time>2026-05-03T14:34:04Z</time></trkpt><trkpt lat="43.30606436084859" lon="11.797249024526026"><ele>290.0</ele><time>2026-05-03T14:34:05Z</time></trkpt><trkpt lat="43.30598196222684" lon="11.79700017980064"><ele>290.0</ele><time>2026-05-03T14:34:06Z</time></trkpt><trkpt lat="43.305909930926134" lon="11.796755964728995"><ele>290.6666666666667</ele><time>2026-05-03T14:34:07Z</time></trkpt><trkpt lat="43.30584783353877" lon="11.796510213458511"><ele>291.3333333333333</ele><time>2026-05-03T14:34:08Z</time></trkpt><trkpt lat="43.305799810723485" lon="11.796263937182115"><ele>292.0</ele><time>2026-05-03T14:34:09Z</time></trkpt><trkpt lat="43.305770519865526" lon="11.79602060153248"><ele>293.0</ele><time>2026-05-03T14:34:10Z</time></trkpt><trkpt lat="43.30575030489404" lon="11.795782310517112"><ele>294.0</ele><time>2026-05-03T14:34:11Z</time></trkpt><trkpt lat="43.305732785557865" lon="11.795554316511682"><ele>295.0</ele><time>2026-05-03T14:34:12Z</time></trkpt><trkpt lat="43.305716043840796" lon="11.79532981300065"><ele>295.75</ele><time>2026-05-03T14:34:13Z</time></trkpt><trkpt lat="43.30570445262388" lon="11.795109692369415"><ele>296.5</ele><time>2026-05-03T14:34:14Z</time></trkpt><trkpt lat="43.305694415596584" lon="11.794905192868296"><ele>297.25</ele><time>2026-05-03T14:34:15Z</time></trkpt><trkpt lat="43.305691006897895" lon="11.794717338308295"><ele>298.0</ele><time>2026-05-03T14:34:16Z</time></trkpt><trkpt lat="43.30569796683661" lon="11.794550413203888"><ele>298.0</ele><time>2026-05-03T14:34:17Z</time></trkpt><trkpt lat="43.305710961254896" lon="11.79440315037831"><ele>298.0</ele><time>2026-05-03T14:34:18Z</time></trkpt><trkpt lat="43.30573117897312" lon="11.794278214065951"><ele>298.0</ele><time>2026-05-03T14:34:19Z</time></trkpt><trkpt lat="43.30575601659971" lon="11.794163793192393"><ele>298.0</ele><time>2026-05-03T14:34:20Z</time></trkpt><trkpt lat="43.305786065713875" lon="11.794050783823717"><ele>298.0</ele><time>2026-05-03T14:34:21Z</time></trkpt><trkpt lat="43.30581868585359" lon="11.793934318086555"><ele>298.8</ele><time>2026-05-03T14:34:22Z</time></trkpt><trkpt lat="43.30585606983073" lon="11.793810814419569"><ele>299.6</ele><time>2026-05-03T14:34:23Z</time></trkpt><trkpt lat="43.30589402569703" lon="11.793676494552722"><ele>300.4</ele><time>2026-05-03T14:34:24Z</time></trkpt><trkpt lat="43.305932735827845" lon="11.79353145062943"><ele>301.2</ele><time>2026-05-03T14:34:25Z</time></trkpt><trkpt lat="43.30597328374192" lon="11.793382595543651"><ele>302.0</ele><time>2026-05-03T14:34:26Z</time></trkpt><trkpt lat="43.30601824483476" lon="11.793228391899321"><ele>301.75</ele><time>2026-05-03T14:34:27Z</time></trkpt><trkpt lat="43.3060677851313" lon="11.793068396010767"><ele>301.5</ele><time>2026-05-03T14:34:28Z</time></trkpt><trkpt lat="43.30611674291097" lon="11.7929025585006"><ele>301.25</ele><time>2026-05-03T14:34:29Z</time></trkpt><trkpt lat="43.30616491132149" lon="11.7927294872746"><ele>301.0</ele><time>2026-05-03T14:34:30Z</time></trkpt><trkpt lat="43.30621200693585" lon="11.792561784976145"><ele>301.0</ele><time>2026-05-03T14:34:31Z</time></trkpt><trkpt lat="43.306256791528654" lon="11.792401004128575"><ele>301.0</ele><time>2026-05-03T14:34:32Z</time></trkpt><trkpt lat="43.30629748469405" lon="11.792239985437668"><ele>301.0</ele><time>2026-05-03T14:34:33Z</time></trkpt><trkpt lat="43.30633175826957" lon="11.79207485244817"><ele>301.0</ele><time>2026-05-03T14:34:34Z</time></trkpt><trkpt lat="43.306351152553226" lon="11.791903285883617"><ele>300.5</ele><time>2026-05-03T14:34:35Z</time></trkpt><trkpt lat="43.3063550680389" lon="11.791729126893385"><ele>300.0</ele><time>2026-05-03T14:34:36Z</time></trkpt><trkpt lat="43.30635266318137" lon="11.791558794920649"><ele>299.5</ele><time>2026-05-03T14:34:37Z</time></trkpt><trkpt lat="43.30635199374319" lon="11.791388534726776"><ele>299.0</ele><time>2026-05-03T14:34:38Z</time></trkpt><trkpt lat="43.30635415143997" lon="11.79121397528257"><ele>299.0</ele><time>2026-05-03T14:34:39Z</time></trkpt><trkpt lat="43.30635240334287" lon="11.791038777042038"><ele>299.0</ele><time>2026-05-03T14:34:40Z</time></trkpt><trkpt lat="43.30635034624608" lon="11.79086141694362"><ele>299.0</ele><time>2026-05-03T14:34:41Z</time></trkpt><trkpt lat="43.306347409091224" lon="11.790682560719738"><ele>299.0</ele><time>2026-05-03T14:34:42Z</time></trkpt><trkpt lat="43.30634667454833" lon="11.790506504051171"><ele>299.5</ele><time>2026-05-03T14:34:43Z</time></trkpt><trkpt lat="43.30634529449745" lon="11.790340605159313"><ele>300.0</ele><time>2026-05-03T14:34:44Z</time></trkpt><trkpt lat="43.30633981458992" lon="11.790176661149687"><ele>300.5</ele><time>2026-05-03T14:34:45Z</time></trkpt><trkpt lat="43.30633357824142" lon="11.790015671151437"><ele>301.0</ele><time>2026-05-03T14:34:46Z</time></trkpt><trkpt lat="43.30632403162293" lon="11.789854779203024"><ele>301.75</ele><time>2026-05-03T14:34:47Z</time></trkpt><trkpt lat="43.306302919859135" lon="11.789697080475154"><ele>302.5</ele><time>2026-05-03T14:34:48Z</time></trkpt><trkpt lat="43.30626014444743" lon="11.789536875470105"><ele>303.25</ele><time>2026-05-03T14:34:49Z</time></trkpt><trkpt lat="43.30620225009981" lon="11.789385792111695"><ele>304.0</ele><time>2026-05-03T14:34:50Z</time></trkpt><trkpt lat="43.30612941903145" lon="11.789240970235745"><ele>305.5</ele><time>2026-05-03T14:34:51Z</time></trkpt><trkpt lat="43.306049555779914" lon="11.789104536449877"><ele>307.0</ele><time>2026-05-03T14:34:52Z</time></trkpt><trkpt lat="43.305973522747784" lon="11.788972714551804"><ele>308.5</ele><time>2026-05-03T14:34:53Z</time></trkpt><trkpt lat="43.30589263793157" lon="11.78883157635291"><ele>310.0</ele><time>2026-05-03T14:34:54Z</time></trkpt><trkpt lat="43.30581056014231" lon="11.788677228694041"><ele>310.0</ele><time>2026-05-03T14:34:55Z</time></trkpt><trkpt lat="43.30572922390536" lon="11.788518595780019"><ele>310.0</ele><time>2026-05-03T14:34:56Z</time></trkpt><trkpt lat="43.30565432303484" lon="11.788359248414434"><ele>310.0</ele><time>2026-05-03T14:34:57Z</time></trkpt><trkpt lat="43.30558313747094" lon="11.788196130008101"><ele>310.0</ele><time>2026-05-03T14:34:58Z</time></trkpt><trkpt lat="43.30552115096925" lon="11.788029761108415"><ele>309.5</ele><time>2026-05-03T14:34:59Z</time></trkpt><trkpt lat="43.30546496169064" lon="11.787863974281404"><ele>309.0</ele><time>2026-05-03T14:35:00Z</time></trkpt><trkpt lat="43.30541548153433" lon="11.78770795183523"><ele>308.5</ele><time>2026-05-03T14:35:01Z</time></trkpt><trkpt lat="43.30536010893759" lon="11.787564057904982"><ele>308.0</ele><time>2026-05-03T14:35:02Z</time></trkpt><trkpt lat="43.305287313222394" lon="11.787442158680163"><ele>309.25</ele><time>2026-05-03T14:35:03Z</time></trkpt><trkpt lat="43.305201162886924" lon="11.787329997066802"><ele>310.5</ele><time>2026-05-03T14:35:04Z</time></trkpt><trkpt lat="43.30510571086008" lon="11.787225295586552"><ele>311.75</ele><time>2026-05-03T14:35:05Z</time></trkpt><trkpt lat="43.30501031314457" lon="11.787118045512328"><ele>313.0</ele><time>2026-05-03T14:35:06Z</time></trkpt><trkpt lat="43.304907330978025" lon="11.787010126932094"><ele>313.0</ele><time>2026-05-03T14:35:07Z</time></trkpt><trkpt lat="43.30480855258072" lon="11.786897798619233"><ele>313.0</ele><time>2026-05-03T14:35:08Z</time></trkpt><trkpt lat="43.304710856543416" lon="11.786792041968845"><ele>313.0</ele><time>2026-05-03T14:35:09Z</time></trkpt><trkpt lat="43.30462240760793" lon="11.786686386224309"><ele>313.0</ele><time>2026-05-03T14:35:10Z</time></trkpt><trkpt lat="43.30454031321691" lon="11.786585197937326"><ele>312.6</ele><time>2026-05-03T14:35:11Z</time></trkpt><trkpt lat="43.30446085104839" lon="11.786496223269078"><ele>312.20000000000005</ele><time>2026-05-03T14:35:12Z</time></trkpt><trkpt lat="43.304368293614694" lon="11.786443532643434"><ele>311.8</ele><time>2026-05-03T14:35:13Z</time></trkpt><trkpt lat="43.30426565123676" lon="11.786401142680774"><ele>311.40000000000003</ele><time>2026-05-03T14:35:14Z</time></trkpt><trkpt lat="43.3041520072755" lon="11.786358289345404"><ele>311.0</ele><time>2026-05-03T14:35:15Z</time></trkpt><trkpt lat="43.30402328138399" lon="11.786300005139447"><ele>310.0</ele><time>2026-05-03T14:35:16Z</time></trkpt><trkpt lat="43.30389430644434" lon="11.786216261051361"><ele>309.0</ele><time>2026-05-03T14:35:17Z</time></trkpt><trkpt lat="43.30374291186163" lon="11.786168081977712"><ele>308.0</ele><time>2026-05-03T14:35:18Z</time></trkpt><trkpt lat="43.30359057440149" lon="11.78610771728073"><ele>308.0</ele><time>2026-05-03T14:35:19Z</time></trkpt><trkpt lat="43.3034416484275" lon="11.786061778832616"><ele>308.0</ele><time>2026-05-03T14:35:20Z</time></trkpt><trkpt lat="43.30329231984994" lon="11.786017452800944"><ele>308.0</ele><time>2026-05-03T14:35:21Z</time></trkpt><trkpt lat="43.30314436008131" lon="11.785966301926582"><ele>309.0</ele><time>2026-05-03T14:35:22Z</time></trkpt><trkpt lat="43.302997563685125" lon="11.785919748074488"><ele>310.0</ele><time>2026-05-03T14:35:23Z</time></trkpt><trkpt lat="43.302847676834794" lon="11.78587376277199"><ele>311.0</ele><time>2026-05-03T14:35:24Z</time></trkpt><trkpt lat="43.30269109094458" lon="11.78582689774383"><ele>311.0</ele><time>2026-05-03T14:35:25Z</time></trkpt><trkpt lat="43.30253055132602" lon="11.785775914389106"><ele>311.0</ele><time>2026-05-03T14:35:26Z</time></trkpt><trkpt lat="43.30236185850367" lon="11.785733464990585"><ele>311.0</ele><time>2026-05-03T14:35:27Z</time></trkpt><trkpt lat="43.302183030150125" lon="11.785708364992963"><ele>310.33333333333337</ele><time>2026-05-03T14:35:28Z</time></trkpt><trkpt lat="43.30200216955064" lon="11.785690006243724"><ele>309.6666666666667</ele><time>2026-05-03T14:35:29Z</time></trkpt><trkpt lat="43.30181685980381" lon="11.78564438539217"><ele>309.0</ele><time>2026-05-03T14:35:30Z</time></trkpt><trkpt lat="43.3016268857185" lon="11.785622335479083"><ele>309.0</ele><time>2026-05-03T14:35:31Z</time></trkpt><trkpt lat="43.30143522429506" lon="11.785600089715059"><ele>309.0</ele><time>2026-05-03T14:35:32Z</time></trkpt><trkpt lat="43.30122739071109" lon="11.785594047562201"><ele>309.0</ele><time>2026-05-03T14:35:33Z</time></trkpt><trkpt lat="43.30102914462458" lon="11.785572483943092"><ele>306.3333333333333</ele><time>2026-05-03T14:35:34Z</time></trkpt><trkpt lat="43.300835946039406" lon="11.785543075725831"><ele>303.66666666666663</ele><time>2026-05-03T14:35:35Z</time></trkpt><trkpt lat="43.30064024530615" lon="11.785517854223862"><ele>301.0</ele><time>2026-05-03T14:35:36Z</time></trkpt><trkpt lat="43.30044658582125" lon="11.785497643764224"><ele>299.3333333333333</ele><time>2026-05-03T14:35:37Z</time></trkpt><trkpt lat="43.30024824395513" lon="11.785454256629139"><ele>297.6666666666667</ele><time>2026-05-03T14:35:38Z</time></trkpt><trkpt lat="43.300041739067844" lon="11.785466977578967"><ele>296.0</ele><time>2026-05-03T14:35:39Z</time></trkpt><trkpt lat="43.299836375952694" lon="11.785460815940835"><ele>297.0</ele><time>2026-05-03T14:35:40Z</time></trkpt><trkpt lat="43.299627395976295" lon="11.785459167305936"><ele>298.0</ele><time>2026-05-03T14:35:41Z</time></trkpt><trkpt lat="43.29941699442127" lon="11.785453393558743"><ele>299.0</ele><time>2026-05-03T14:35:42Z</time></trkpt><trkpt lat="43.29920986801529" lon="11.785441150638686"><ele>299.0</ele><time>2026-05-03T14:35:43Z</time></trkpt><trkpt lat="43.29900445117262" lon="11.785412841677791"><ele>299.0</ele><time>2026-05-03T14:35:44Z</time></trkpt><trkpt lat="43.298801829819055" lon="11.785373036878719"><ele>299.0</ele><time>2026-05-03T14:35:45Z</time></trkpt><trkpt lat="43.29859424952567" lon="11.785322338870541"><ele>299.6666666666667</ele><time>2026-05-03T14:35:46Z</time></trkpt><trkpt lat="43.29838121746739" lon="11.785272173064298"><ele>300.3333333333333</ele><time>2026-05-03T14:35:47Z</time></trkpt><trkpt lat="43.2981593646591" lon="11.78521816012671"><ele>301.0</ele><time>2026-05-03T14:35:48Z</time></trkpt><trkpt lat="43.297934610676634" lon="11.785170291871793"><ele>299.0</ele><time>2026-05-03T14:35:49Z</time></trkpt><trkpt lat="43.29771629952521" lon="11.785099857118832"><ele>297.0</ele><time>2026-05-03T14:35:50Z</time></trkpt><trkpt lat="43.29750602989462" lon="11.785050936826512"><ele>295.0</ele><time>2026-05-03T14:35:51Z</time></trkpt><trkpt lat="43.297302852982625" lon="11.785002356660934"><ele>294.0</ele><time>2026-05-03T14:35:52Z</time></trkpt><trkpt lat="43.29710297015794" lon="11.78497401709837"><ele>293.0</ele><time>2026-05-03T14:35:53Z</time></trkpt><trkpt lat="43.29690560916305" lon="11.784927124767558"><ele>292.0</ele><time>2026-05-03T14:35:54Z</time></trkpt><trkpt lat="43.296708087355306" lon="11.784884220837132"><ele>292.0</ele><time>2026-05-03T14:35:55Z</time></trkpt><trkpt lat="43.29650931409198" lon="11.784837722205344"><ele>292.0</ele><time>2026-05-03T14:35:56Z</time></trkpt><trkpt lat="43.29630760326017" lon="11.784791296132687"><ele>292.0</ele><time>2026-05-03T14:35:57Z</time></trkpt><trkpt lat="43.29610592977353" lon="11.784742219962997"><ele>290.66666666666663</ele><time>2026-05-03T14:35:58Z</time></trkpt><trkpt lat="43.29590370443025" lon="11.784694367204876"><ele>289.3333333333333</ele><time>2026-05-03T14:35:59Z</time></trkpt><trkpt lat="43.295698749710425" lon="11.784649743863895"><ele>288.0</ele><time>2026-05-03T14:36:00Z</time></trkpt><trkpt lat="43.29549800351291" lon="11.784609215318948"><ele>286.6666666666667</ele><time>2026-05-03T14:36:01Z</time></trkpt><trkpt lat="43.295298635686" lon="11.784563741589734"><ele>285.33333333333337</ele><time>2026-05-03T14:36:02Z</time></trkpt><trkpt lat="43.2950987595681" lon="11.784517569686946"><ele>284.0</ele><time>2026-05-03T14:36:03Z</time></trkpt><trkpt lat="43.29490370614482" lon="11.78447048844859"><ele>284.33333333333337</ele><time>2026-05-03T14:36:04Z</time></trkpt><trkpt lat="43.29471348348454" lon="11.784405695642361"><ele>284.6666666666667</ele><time>2026-05-03T14:36:05Z</time></trkpt><trkpt lat="43.29453449739359" lon="11.784305985154482"><ele>285.0</ele><time>2026-05-03T14:36:06Z</time></trkpt><trkpt lat="43.294365216796784" lon="11.784172206510505"><ele>285.0</ele><time>2026-05-03T14:36:07Z</time></trkpt><trkpt lat="43.29420023342454" lon="11.784009077775762"><ele>285.0</ele><time>2026-05-03T14:36:08Z</time></trkpt><trkpt lat="43.29404131989006" lon="11.783829000220882"><ele>285.0</ele><time>2026-05-03T14:36:09Z</time></trkpt><trkpt lat="43.293887178218725" lon="11.783632758134472"><ele>285.3333333333333</ele><time>2026-05-03T14:36:10Z</time></trkpt><trkpt lat="43.29374591432671" lon="11.783420781633836"><ele>285.66666666666663</ele><time>2026-05-03T14:36:11Z</time></trkpt><trkpt lat="43.29362079403845" lon="11.783187283644462"><ele>286.0</ele><time>2026-05-03T14:36:12Z</time></trkpt><trkpt lat="43.2935143018912" lon="11.782938054010641"><ele>286.0</ele><time>2026-05-03T14:36:13Z</time></trkpt><trkpt lat="43.29341511284501" lon="11.782679529816445"><ele>286.0</ele><time>2026-05-03T14:36:14Z</time></trkpt><trkpt lat="43.29332231810522" lon="11.782422165770255"><ele>286.0</ele><time>2026-05-03T14:36:15Z</time></trkpt><trkpt lat="43.293228427456484" lon="11.78216248007808"><ele>286.0</ele><time>2026-05-03T14:36:16Z</time></trkpt><trkpt lat="43.29313412813878" lon="11.781913377773455"><ele>286.0</ele><time>2026-05-03T14:36:17Z</time></trkpt><trkpt lat="43.29304702656571" lon="11.781673142164514"><ele>286.0</ele><time>2026-05-03T14:36:18Z</time></trkpt><trkpt lat="43.292961301357245" lon="11.781444332372914"><ele>286.0</ele><time>2026-05-03T14:36:19Z</time></trkpt><trkpt lat="43.29287326858686" lon="11.781220912443967"><ele>286.0</ele><time>2026-05-03T14:36:20Z</time></trkpt><trkpt lat="43.292780037217774" lon="11.781010753744269"><ele>286.0</ele><time>2026-05-03T14:36:21Z</time></trkpt><trkpt lat="43.29267139032145" lon="11.780809691599645"><ele>285.3333333333333</ele><time>2026-05-03T14:36:22Z</time></trkpt><trkpt lat="43.29253872416082" lon="11.780629469843042"><ele>284.6666666666667</ele><time>2026-05-03T14:36:23Z</time></trkpt><trkpt lat="43.292389236521664" lon="11.780451542917328"><ele>284.0</ele><time>2026-05-03T14:36:24Z</time></trkpt><trkpt lat="43.2922251326209" lon="11.780293857762345"><ele>280.6666666666667</ele><time>2026-05-03T14:36:25Z</time></trkpt><trkpt lat="43.292059903997135" lon="11.780144917218493"><ele>277.3333333333333</ele><time>2026-05-03T14:36:26Z</time></trkpt><trkpt lat="43.29188510006798" lon="11.78002202380498"><ele>274.0</ele><time>2026-05-03T14:36:27Z</time></trkpt><trkpt lat="43.291702478065915" lon="11.779918129321052"><ele>274.0</ele><time>2026-05-03T14:36:28Z</time></trkpt><trkpt lat="43.291513989867305" lon="11.779824182330849"><ele>274.0</ele><time>2026-05-03T14:36:29Z</time></trkpt><trkpt lat="43.291325007654265" lon="11.779732651608185"><ele>274.0</ele><time>2026-05-03T14:36:30Z</time></trkpt><trkpt lat="43.29113632513358" lon="11.779643731411438"><ele>273.66666666666663</ele><time>2026-05-03T14:36:31Z</time></trkpt><trkpt lat="43.29095722065604" lon="11.779567679136939"><ele>273.3333333333333</ele><time>2026-05-03T14:36:32Z</time></trkpt><trkpt lat="43.29077584765651" lon="11.77950812558925"><ele>273.0</ele><time>2026-05-03T14:36:33Z</time></trkpt><trkpt lat="43.290597165785194" lon="11.779467092124724"><ele>270.6666666666667</ele><time>2026-05-03T14:36:34Z</time></trkpt><trkpt lat="43.29042052672998" lon="11.779446320593925"><ele>268.33333333333337</ele><time>2026-05-03T14:36:35Z</time></trkpt><trkpt lat="43.29024514810044" lon="11.779433931919991"><ele>266.0</ele><time>2026-05-03T14:36:36Z</time></trkpt><trkpt lat="43.290076566223824" lon="11.779421262648995"><ele>266.0</ele><time>2026-05-03T14:36:37Z</time></trkpt><trkpt lat="43.289912926857276" lon="11.779406575732617"><ele>266.0</ele><time>2026-05-03T14:36:38Z</time></trkpt><trkpt lat="43.28975793876751" lon="11.779388999152632"><ele>266.0</ele><time>2026-05-03T14:36:39Z</time></trkpt><trkpt lat="43.289614363224466" lon="11.77935068744882"><ele>264.0</ele><time>2026-05-03T14:36:40Z</time></trkpt><trkpt lat="43.28948383546228" lon="11.779282998336418"><ele>262.0</ele><time>2026-05-03T14:36:41Z</time></trkpt><trkpt lat="43.289368791882005" lon="11.7791850002374"><ele>260.0</ele><time>2026-05-03T14:36:42Z</time></trkpt><trkpt lat="43.289275679803474" lon="11.779059464275244"><ele>258.0</ele><time>2026-05-03T14:36:43Z</time></trkpt><trkpt lat="43.289200717053646" lon="11.778904920314568"><ele>258.0</ele><time>2026-05-03T14:36:44Z</time></trkpt><trkpt lat="43.28913887529105" lon="11.778725806908572"><ele>258.0</ele><time>2026-05-03T14:36:45Z</time></trkpt><trkpt lat="43.28906437021818" lon="11.778535915503229"><ele>258.0</ele><time>2026-05-03T14:36:46Z</time></trkpt><trkpt lat="43.28897073966339" lon="11.778349449703457"><ele>258.0</ele><time>2026-05-03T14:36:47Z</time></trkpt><trkpt lat="43.288863936187106" lon="11.778171752251575"><ele>258.0</ele><time>2026-05-03T14:36:48Z</time></trkpt><trkpt lat="43.288754098353124" lon="11.778002774148714"><ele>258.0</ele><time>2026-05-03T14:36:49Z</time></trkpt><trkpt lat="43.28864947188167" lon="11.77784090416424"><ele>257.6666666666667</ele><time>2026-05-03T14:36:50Z</time></trkpt><trkpt lat="43.288549903346976" lon="11.777681996569928"><ele>257.33333333333337</ele><time>2026-05-03T14:36:51Z</time></trkpt><trkpt lat="43.28844924414307" lon="11.777524001778064"><ele>257.0</ele><time>2026-05-03T14:36:52Z</time></trkpt><trkpt lat="43.28835066974924" lon="11.777372731425919"><ele>257.0</ele><time>2026-05-03T14:36:53Z</time></trkpt><trkpt lat="43.28824840477223" lon="11.77722336015049"><ele>257.0</ele><time>2026-05-03T14:36:54Z</time></trkpt><trkpt lat="43.288141382358546" lon="11.777062664585532"><ele>257.0</ele><time>2026-05-03T14:36:55Z</time></trkpt><trkpt lat="43.28802701950497" lon="11.776888739277405"><ele>256.33333333333337</ele><time>2026-05-03T14:36:56Z</time></trkpt><trkpt lat="43.287909224400224" lon="11.776703914027923"><ele>255.66666666666669</ele><time>2026-05-03T14:36:57Z</time></trkpt><trkpt lat="43.28778309821438" lon="11.7765161798726"><ele>255.0</ele><time>2026-05-03T14:36:58Z</time></trkpt><trkpt lat="43.287640908339405" lon="11.776342208030522"><ele>255.0</ele><time>2026-05-03T14:36:59Z</time></trkpt><trkpt lat="43.28748387901604" lon="11.776187404944954"><ele>255.0</ele><time>2026-05-03T14:37:00Z</time></trkpt><trkpt lat="43.28731903342528" lon="11.776063956488986"><ele>255.0</ele><time>2026-05-03T14:37:01Z</time></trkpt><trkpt lat="43.28715036222341" lon="11.775955667807704"><ele>254.66666666666669</ele><time>2026-05-03T14:37:02Z</time></trkpt><trkpt lat="43.286978610962386" lon="11.775845582268639"><ele>254.33333333333334</ele><time>2026-05-03T14:37:03Z</time></trkpt><trkpt lat="43.28680571504237" lon="11.77573422262815"><ele>254.0</ele><time>2026-05-03T14:37:04Z</time></trkpt><trkpt lat="43.286638556369155" lon="11.775625701625804"><ele>254.0</ele><time>2026-05-03T14:37:05Z</time></trkpt><trkpt lat="43.28648025689085" lon="11.775519066004245"><ele>254.0</ele><time>2026-05-03T14:37:06Z</time></trkpt><trkpt lat="43.28633133415606" lon="11.775399435124434"><ele>254.0</ele><time>2026-05-03T14:37:07Z</time></trkpt><trkpt lat="43.28620177399844" lon="11.77526119692844"><ele>254.33333333333334</ele><time>2026-05-03T14:37:08Z</time></trkpt><trkpt lat="43.28609700369408" lon="11.775095829957769"><ele>254.66666666666669</ele><time>2026-05-03T14:37:09Z</time></trkpt><trkpt lat="43.2860095447348" lon="11.774921011762535"><ele>255.0</ele><time>2026-05-03T14:37:10Z</time></trkpt><trkpt lat="43.285926070955" lon="11.774746826109139"><ele>255.0</ele><time>2026-05-03T14:37:11Z</time></trkpt><trkpt lat="43.28584444480449" lon="11.774567567041416"><ele>255.0</ele><time>2026-05-03T14:37:12Z</time></trkpt><trkpt lat="43.285760098342806" lon="11.7743885199193"><ele>255.0</ele><time>2026-05-03T14:37:13Z</time></trkpt><trkpt lat="43.285676053135845" lon="11.774208999264356"><ele>255.0</ele><time>2026-05-03T14:37:14Z</time></trkpt><trkpt lat="43.285590919160036" lon="11.774027180583674"><ele>255.0</ele><time>2026-05-03T14:37:15Z</time></trkpt><trkpt lat="43.28551118664176" lon="11.773849006154075"><ele>255.0</ele><time>2026-05-03T14:37:16Z</time></trkpt><trkpt lat="43.28542996759915" lon="11.773672248964848"><ele>255.25</ele><time>2026-05-03T14:37:17Z</time></trkpt><trkpt lat="43.28535420512507" lon="11.773505610411656"><ele>255.5</ele><time>2026-05-03T14:37:18Z</time></trkpt><trkpt lat="43.285281952125985" lon="11.773346698760765"><ele>255.75</ele><time>2026-05-03T14:37:19Z</time></trkpt><trkpt lat="43.28521737640097" lon="11.773191072164447"><ele>256.0</ele><time>2026-05-03T14:37:20Z</time></trkpt><trkpt lat="43.28517259373214" lon="11.773031066905755"><ele>256.0</ele><time>2026-05-03T14:37:21Z</time></trkpt><trkpt lat="43.28515374616324" lon="11.772871576297534"><ele>256.0</ele><time>2026-05-03T14:37:22Z</time></trkpt><trkpt lat="43.285160915308" lon="11.77272010098855"><ele>256.0</ele><time>2026-05-03T14:37:23Z</time></trkpt><trkpt lat="43.285191224274996" lon="11.772583841379777"><ele>256.0</ele><time>2026-05-03T14:37:24Z</time></trkpt><trkpt lat="43.285248150009515" lon="11.772465148711474"><ele>256.0</ele><time>2026-05-03T14:37:25Z</time></trkpt><trkpt lat="43.285325119603705" lon="11.772373941896847"><ele>255.99999999999997</ele><time>2026-05-03T14:37:26Z</time></trkpt><trkpt lat="43.28541795945323" lon="11.772320179542174"><ele>256.0</ele><time>2026-05-03T14:37:27Z</time></trkpt><trkpt lat="43.285513325482476" lon="11.772295925906905"><ele>256.0</ele><time>2026-05-03T14:37:28Z</time></trkpt><trkpt lat="43.285607523100346" lon="11.772303405343349"><ele>256.0</ele><time>2026-05-03T14:37:29Z</time></trkpt><trkpt lat="43.28568855786401" lon="11.772303700210356"><ele>255.99999999999997</ele><time>2026-05-03T14:37:30Z</time></trkpt><trkpt lat="43.28575992824845" lon="11.77227575914739"><ele>256.0</ele><time>2026-05-03T14:37:31Z</time></trkpt><trkpt lat="43.28581470446525" lon="11.77222214720851"><ele>255.99999999999997</ele><time>2026-05-03T14:37:32Z</time></trkpt><trkpt lat="43.28584631660778" lon="11.772146266306251"><ele>256.0</ele><time>2026-05-03T14:37:33Z</time></trkpt><trkpt lat="43.285852880615536" lon="11.77205803577211"><ele>256.0</ele><time>2026-05-03T14:37:34Z</time></trkpt><trkpt lat="43.28584526325515" lon="11.771959956276586"><ele>256.0</ele><time>2026-05-03T14:37:35Z</time></trkpt><trkpt lat="43.285817674757915" lon="11.771865011076976"><ele>255.99999999999997</ele><time>2026-05-03T14:37:36Z</time></trkpt><trkpt lat="43.28570414661866" lon="11.771801299304215"><ele>256.0</ele><time>2026-05-03T14:37:37Z</time></trkpt><trkpt lat="43.28560107594046" lon="11.77177652966978"><ele>256.25</ele><time>2026-05-03T14:37:38Z</time></trkpt><trkpt lat="43.28550342361632" lon="11.771697010313659"><ele>256.5</ele><time>2026-05-03T14:37:39Z</time></trkpt><trkpt lat="43.285414946188006" lon="11.771588147082532"><ele>256.75</ele><time>2026-05-03T14:37:40Z</time></trkpt><trkpt lat="43.28535300741705" lon="11.771445089305669"><ele>257.0</ele><time>2026-05-03T14:37:41Z</time></trkpt><trkpt lat="43.28528252163142" lon="11.771288025451089"><ele>257.0</ele><time>2026-05-03T14:37:42Z</time></trkpt><trkpt lat="43.28520573098881" lon="11.77111712009066"><ele>257.0</ele><time>2026-05-03T14:37:43Z</time></trkpt><trkpt lat="43.285125508174794" lon="11.77093977258168"><ele>257.0</ele><time>2026-05-03T14:37:44Z</time></trkpt><trkpt lat="43.28504630931529" lon="11.770765967927945"><ele>257.0</ele><time>2026-05-03T14:37:45Z</time></trkpt><trkpt lat="43.28496315817075" lon="11.770585943255936"><ele>257.0</ele><time>2026-05-03T14:37:46Z</time></trkpt><trkpt lat="43.28486668827646" lon="11.770413561590702"><ele>257.0</ele><time>2026-05-03T14:37:47Z</time></trkpt><trkpt lat="43.284787029081734" lon="11.770227232593147"><ele>257.0</ele><time>2026-05-03T14:37:48Z</time></trkpt><trkpt lat="43.28470996887771" lon="11.770050831768815"><ele>257.0</ele><time>2026-05-03T14:37:49Z</time></trkpt><trkpt lat="43.284639131958286" lon="11.769895885619112"><ele>257.0</ele><time>2026-05-03T14:37:50Z</time></trkpt><trkpt lat="43.284566109049145" lon="11.76975657975261"><ele>257.0</ele><time>2026-05-03T14:37:51Z</time></trkpt><trkpt lat="43.28448942461921" lon="11.769642081139125"><ele>257.0</ele><time>2026-05-03T14:37:52Z</time></trkpt><trkpt lat="43.28441619716636" lon="11.769543602047694"><ele>257.0</ele><time>2026-05-03T14:37:53Z</time></trkpt><trkpt lat="43.28434778865179" lon="11.769448105930884"><ele>257.0</ele><time>2026-05-03T14:37:54Z</time></trkpt><trkpt lat="43.28426750976903" lon="11.769344483626737"><ele>257.0</ele><time>2026-05-03T14:37:55Z</time></trkpt><trkpt lat="43.28418390765859" lon="11.769240198548665"><ele>257.0</ele><time>2026-05-03T14:37:56Z</time></trkpt><trkpt lat="43.28409217505183" lon="11.76912322380807"><ele>257.0</ele><time>2026-05-03T14:37:57Z</time></trkpt><trkpt lat="43.28398850273968" lon="11.76899574014907"><ele>257.0</ele><time>2026-05-03T14:37:58Z</time></trkpt><trkpt lat="43.28387998960223" lon="11.76886009621743"><ele>257.0</ele><time>2026-05-03T14:37:59Z</time></trkpt><trkpt lat="43.28377822115985" lon="11.768731278193622"><ele>257.0</ele><time>2026-05-03T14:38:00Z</time></trkpt><trkpt lat="43.283672568452445" lon="11.768604056011181"><ele>257.0</ele><time>2026-05-03T14:38:01Z</time></trkpt><trkpt lat="43.28356273911203" lon="11.768481468832423"><ele>256.75</ele><time>2026-05-03T14:38:02Z</time></trkpt><trkpt lat="43.28345384295092" lon="11.768357052480061"><ele>256.5</ele><time>2026-05-03T14:38:03Z</time></trkpt><trkpt lat="43.28334329865133" lon="11.768232203424404"><ele>256.25</ele><time>2026-05-03T14:38:04Z</time></trkpt><trkpt lat="43.28323441369067" lon="11.768106494983654"><ele>256.0</ele><time>2026-05-03T14:38:05Z</time></trkpt><trkpt lat="43.28312506915431" lon="11.767981081276446"><ele>255.75</ele><time>2026-05-03T14:38:06Z</time></trkpt><trkpt lat="43.2830122887868" lon="11.767853979966166"><ele>255.5</ele><time>2026-05-03T14:38:07Z</time></trkpt><trkpt lat="43.282900488320436" lon="11.767730306180532"><ele>255.25</ele><time>2026-05-03T14:38:08Z</time></trkpt><trkpt lat="43.28279099247789" lon="11.767611992341036"><ele>255.0</ele><time>2026-05-03T14:38:09Z</time></trkpt><trkpt lat="43.28267422542384" lon="11.767513849701155"><ele>255.0</ele><time>2026-05-03T14:38:10Z</time></trkpt><trkpt lat="43.28255023815601" lon="11.767436640560767"><ele>255.0</ele><time>2026-05-03T14:38:11Z</time></trkpt><trkpt lat="43.28242317029927" lon="11.767377499494977"><ele>255.0</ele><time>2026-05-03T14:38:12Z</time></trkpt><trkpt lat="43.28229439184764" lon="11.76732868851895"><ele>255.0</ele><time>2026-05-03T14:38:13Z</time></trkpt><trkpt lat="43.282165845662696" lon="11.767284186264355"><ele>255.25</ele><time>2026-05-03T14:38:14Z</time></trkpt><trkpt lat="43.28203877166634" lon="11.767228568296838"><ele>255.5</ele><time>2026-05-03T14:38:15Z</time></trkpt><trkpt lat="43.28191531264484" lon="11.76716494494322"><ele>255.75</ele><time>2026-05-03T14:38:16Z</time></trkpt><trkpt lat="43.28180115895129" lon="11.767090651743828"><ele>256.0</ele><time>2026-05-03T14:38:17Z</time></trkpt><trkpt lat="43.281693404594996" lon="11.767001784542945"><ele>256.0</ele><time>2026-05-03T14:38:18Z</time></trkpt><trkpt lat="43.281593542899884" lon="11.766897655511745"><ele>256.0</ele><time>2026-05-03T14:38:19Z</time></trkpt><trkpt lat="43.28150130944033" lon="11.766780368939346"><ele>256.0</ele><time>2026-05-03T14:38:20Z</time></trkpt><trkpt lat="43.281420388905026" lon="11.766651544309122"><ele>256.0</ele><time>2026-05-03T14:38:21Z</time></trkpt><trkpt lat="43.281350886795096" lon="11.76651545557654"><ele>256.25</ele><time>2026-05-03T14:38:22Z</time></trkpt><trkpt lat="43.28129075736576" lon="11.766373403170368"><ele>256.5</ele><time>2026-05-03T14:38:23Z</time></trkpt><trkpt lat="43.28123941047988" lon="11.766223017605675"><ele>256.75</ele><time>2026-05-03T14:38:24Z</time></trkpt><trkpt lat="43.281187343430055" lon="11.766070325141342"><ele>257.0</ele><time>2026-05-03T14:38:25Z</time></trkpt><trkpt lat="43.28113314082238" lon="11.765915605709818"><ele>258.0</ele><time>2026-05-03T14:38:26Z</time></trkpt><trkpt lat="43.281074317872736" lon="11.7657570897043"><ele>259.0</ele><time>2026-05-03T14:38:27Z</time></trkpt><trkpt lat="43.28101816693958" lon="11.765592908900626"><ele>260.0</ele><time>2026-05-03T14:38:28Z</time></trkpt><trkpt lat="43.28096109553151" lon="11.765429129423518"><ele>261.0</ele><time>2026-05-03T14:38:29Z</time></trkpt><trkpt lat="43.28090327444805" lon="11.76525508638348"><ele>261.75</ele><time>2026-05-03T14:38:30Z</time></trkpt><trkpt lat="43.2808505929109" lon="11.765077296689462"><ele>262.5</ele><time>2026-05-03T14:38:31Z</time></trkpt><trkpt lat="43.28080054040489" lon="11.764893492537432"><ele>263.25</ele><time>2026-05-03T14:38:32Z</time></trkpt><trkpt lat="43.28075081421262" lon="11.764708169055895"><ele>264.0</ele><time>2026-05-03T14:38:33Z</time></trkpt><trkpt lat="43.280705169438235" lon="11.76452370425192"><ele>263.5</ele><time>2026-05-03T14:38:34Z</time></trkpt><trkpt lat="43.280654625661725" lon="11.764348501115313"><ele>263.0</ele><time>2026-05-03T14:38:35Z</time></trkpt><trkpt lat="43.280598803866724" lon="11.764188537260301"><ele>262.5</ele><time>2026-05-03T14:38:36Z</time></trkpt><trkpt lat="43.28052728277592" lon="11.764038986248792"><ele>262.0</ele><time>2026-05-03T14:38:37Z</time></trkpt><trkpt lat="43.280435675804874" lon="11.763905028806551"><ele>261.75</ele><time>2026-05-03T14:38:38Z</time></trkpt><trkpt lat="43.28032468104298" lon="11.763789130035676"><ele>261.5</ele><time>2026-05-03T14:38:39Z</time></trkpt><trkpt lat="43.2801987251039" lon="11.763690696816811"><ele>261.25</ele><time>2026-05-03T14:38:40Z</time></trkpt><trkpt lat="43.28006470603621" lon="11.763607232250097"><ele>261.0</ele><time>2026-05-03T14:38:41Z</time></trkpt><trkpt lat="43.27992750560898" lon="11.763523846381885"><ele>260.6666666666667</ele><time>2026-05-03T14:38:42Z</time></trkpt><trkpt lat="43.27978530901957" lon="11.76343734860299"><ele>260.33333333333337</ele><time>2026-05-03T14:38:43Z</time></trkpt><trkpt lat="43.27964278286827" lon="11.763348514969485"><ele>260.0</ele><time>2026-05-03T14:38:44Z</time></trkpt><trkpt lat="43.27950054614827" lon="11.763248723891278"><ele>259.33333333333337</ele><time>2026-05-03T14:38:45Z</time></trkpt><trkpt lat="43.27935850089089" lon="11.763158104561182"><ele>258.6666666666667</ele><time>2026-05-03T14:38:46Z</time></trkpt><trkpt lat="43.27921305008526" lon="11.7630673980023"><ele>258.0</ele><time>2026-05-03T14:38:47Z</time></trkpt><trkpt lat="43.27906648646339" lon="11.762980854651166"><ele>258.0</ele><time>2026-05-03T14:38:48Z</time></trkpt><trkpt lat="43.27892207817191" lon="11.762889212518953"><ele>258.0</ele><time>2026-05-03T14:38:49Z</time></trkpt><trkpt lat="43.27878071099939" lon="11.762799005781574"><ele>258.0</ele><time>2026-05-03T14:38:50Z</time></trkpt><trkpt lat="43.278642835944474" lon="11.762709033167503"><ele>261.3333333333333</ele><time>2026-05-03T14:38:51Z</time></trkpt><trkpt lat="43.278504288082424" lon="11.762606741279447"><ele>264.66666666666663</ele><time>2026-05-03T14:38:52Z</time></trkpt><trkpt lat="43.27837476248731" lon="11.762482073034052"><ele>268.0</ele><time>2026-05-03T14:38:53Z</time></trkpt><trkpt lat="43.27825718326843" lon="11.762336195807528"><ele>268.0</ele><time>2026-05-03T14:38:54Z</time></trkpt><trkpt lat="43.27814771369833" lon="11.762171573710464"><ele>268.0</ele><time>2026-05-03T14:38:55Z</time></trkpt><trkpt lat="43.27804548690733" lon="11.761993054445789"><ele>268.0</ele><time>2026-05-03T14:38:56Z</time></trkpt><trkpt lat="43.277943684260265" lon="11.761816717172922"><ele>269.66666666666663</ele><time>2026-05-03T14:38:57Z</time></trkpt><trkpt lat="43.27784806054946" lon="11.761641327809205"><ele>271.3333333333333</ele><time>2026-05-03T14:38:58Z</time></trkpt><trkpt lat="43.27775096263122" lon="11.76146751042101"><ele>273.0</ele><time>2026-05-03T14:38:59Z</time></trkpt><trkpt lat="43.27765917510575" lon="11.761298047281317"><ele>273.0</ele><time>2026-05-03T14:39:00Z</time></trkpt><trkpt lat="43.27756671178439" lon="11.761132075061147"><ele>273.0</ele><time>2026-05-03T14:39:01Z</time></trkpt><trkpt lat="43.277474737793334" lon="11.760967504107418"><ele>273.0</ele><time>2026-05-03T14:39:02Z</time></trkpt><trkpt lat="43.27738705014341" lon="11.760801332400854"><ele>273.25</ele><time>2026-05-03T14:39:03Z</time></trkpt><trkpt lat="43.277298790180296" lon="11.760641214630224"><ele>273.5</ele><time>2026-05-03T14:39:04Z</time></trkpt><trkpt lat="43.27721203631592" lon="11.760478580339356"><ele>273.75</ele><time>2026-05-03T14:39:05Z</time></trkpt><trkpt lat="43.27712488904706" lon="11.760316860002575"><ele>274.0</ele><time>2026-05-03T14:39:06Z</time></trkpt><trkpt lat="43.277036863830766" lon="11.760160372365727"><ele>275.25</ele><time>2026-05-03T14:39:07Z</time></trkpt><trkpt lat="43.27695001291199" lon="11.760012328146406"><ele>276.5</ele><time>2026-05-03T14:39:08Z</time></trkpt><trkpt lat="43.276859755777025" lon="11.759870311984017"><ele>277.75</ele><time>2026-05-03T14:39:09Z</time></trkpt><trkpt lat="43.276754753492064" lon="11.759746725330295"><ele>279.0</ele><time>2026-05-03T14:39:10Z</time></trkpt><trkpt lat="43.27663853265841" lon="11.759646735197158"><ele>279.0</ele><time>2026-05-03T14:39:11Z</time></trkpt><trkpt lat="43.27651549097159" lon="11.759576926024849"><ele>279.0</ele><time>2026-05-03T14:39:12Z</time></trkpt><trkpt lat="43.27638673586251" lon="11.759537467141291"><ele>279.0</ele><time>2026-05-03T14:39:13Z</time></trkpt><trkpt lat="43.27625638457222" lon="11.759522467325834"><ele>279.0</ele><time>2026-05-03T14:39:14Z</time></trkpt><trkpt lat="43.276126233464964" lon="11.759536874045509"><ele>280.0</ele><time>2026-05-03T14:39:15Z</time></trkpt><trkpt lat="43.27599815468759" lon="11.759578754830981"><ele>281.0</ele><time>2026-05-03T14:39:16Z</time></trkpt><trkpt lat="43.275878303190304" lon="11.759651110205402"><ele>282.0</ele><time>2026-05-03T14:39:17Z</time></trkpt><trkpt lat="43.27576041801787" lon="11.759739711492678"><ele>283.0</ele><time>2026-05-03T14:39:18Z</time></trkpt><trkpt lat="43.27564240703075" lon="11.759816408237944"><ele>285.0</ele><time>2026-05-03T14:39:19Z</time></trkpt><trkpt lat="43.275523391988266" lon="11.759903795468261"><ele>287.0</ele><time>2026-05-03T14:39:20Z</time></trkpt><trkpt lat="43.27539544189867" lon="11.759998428124472"><ele>289.0</ele><time>2026-05-03T14:39:21Z</time></trkpt><trkpt lat="43.275266199534116" lon="11.760094886201097"><ele>291.0</ele><time>2026-05-03T14:39:22Z</time></trkpt><trkpt lat="43.27513519203332" lon="11.760192051214627"><ele>291.25</ele><time>2026-05-03T14:39:23Z</time></trkpt><trkpt lat="43.27500522087545" lon="11.760287821514893"><ele>291.5</ele><time>2026-05-03T14:39:24Z</time></trkpt><trkpt lat="43.27487744213675" lon="11.760383230682324"><ele>291.75</ele><time>2026-05-03T14:39:25Z</time></trkpt><trkpt lat="43.27475578143319" lon="11.760476023403506"><ele>292.0</ele><time>2026-05-03T14:39:26Z</time></trkpt><trkpt lat="43.274640033711556" lon="11.760564904870396"><ele>292.0</ele><time>2026-05-03T14:39:27Z</time></trkpt><trkpt lat="43.274524527720786" lon="11.760654319560231"><ele>292.0</ele><time>2026-05-03T14:39:28Z</time></trkpt><trkpt lat="43.27441333468125" lon="11.760737483494948"><ele>292.0</ele><time>2026-05-03T14:39:29Z</time></trkpt><trkpt lat="43.274306559422676" lon="11.76081421855186"><ele>292.0</ele><time>2026-05-03T14:39:30Z</time></trkpt><trkpt lat="43.27420505198173" lon="11.760883884973856"><ele>292.0</ele><time>2026-05-03T14:39:31Z</time></trkpt><trkpt lat="43.274107752944474" lon="11.760944944212937"><ele>292.0</ele><time>2026-05-03T14:39:32Z</time></trkpt><trkpt lat="43.27401577193172" lon="11.761005556493291"><ele>292.0</ele><time>2026-05-03T14:39:33Z</time></trkpt><trkpt lat="43.27393593813654" lon="11.761057436092765"><ele>292.0</ele><time>2026-05-03T14:39:34Z</time></trkpt><trkpt lat="43.27386239207223" lon="11.761097704709906"><ele>292.0</ele><time>2026-05-03T14:39:35Z</time></trkpt><trkpt lat="43.27380027928479" lon="11.761122140099923"><ele>292.0</ele><time>2026-05-03T14:39:36Z</time></trkpt><trkpt lat="43.27370480307275" lon="11.761126749986255"><ele>291.66666666666663</ele><time>2026-05-03T14:39:38Z</time></trkpt><trkpt lat="43.273638487763264" lon="11.761096125878332"><ele>291.3333333333333</ele><time>2026-05-03T14:39:40Z</time></trkpt><trkpt lat="43.27357263842649" lon="11.760993991883714"><ele>291.0</ele><time>2026-05-03T14:39:42Z</time></trkpt><trkpt lat="43.273557990043194" lon="11.760903571983699"><ele>290.6666666666667</ele><time>2026-05-03T14:39:43Z</time></trkpt><trkpt lat="43.27355368300161" lon="11.760794133142415"><ele>290.33333333333337</ele><time>2026-05-03T14:39:44Z</time></trkpt><trkpt lat="43.273551050612106" lon="11.760663181691768"><ele>290.0</ele><time>2026-05-03T14:39:45Z</time></trkpt><trkpt lat="43.2735567358275" lon="11.760535268445448"><ele>291.0</ele><time>2026-05-03T14:39:46Z</time></trkpt><trkpt lat="43.273574411639835" lon="11.760415920702837"><ele>292.0</ele><time>2026-05-03T14:39:47Z</time></trkpt><trkpt lat="43.27361464526741" lon="11.760281364384666"><ele>293.0</ele><time>2026-05-03T14:39:48Z</time></trkpt><trkpt lat="43.27367602995962" lon="11.76015704042021"><ele>294.0</ele><time>2026-05-03T14:39:49Z</time></trkpt><trkpt lat="43.273746100899515" lon="11.760049651254585"><ele>295.0</ele><time>2026-05-03T14:39:50Z</time></trkpt><trkpt lat="43.273813623315434" lon="11.759957356247451"><ele>295.66666666666663</ele><time>2026-05-03T14:39:51Z</time></trkpt><trkpt lat="43.273876289183" lon="11.759878416943605"><ele>296.3333333333333</ele><time>2026-05-03T14:39:52Z</time></trkpt><trkpt lat="43.27393600725878" lon="11.759806354379476"><ele>297.0</ele><time>2026-05-03T14:39:53Z</time></trkpt><trkpt lat="43.27399726349722" lon="11.759733617925422"><ele>297.6666666666667</ele><time>2026-05-03T14:39:54Z</time></trkpt><trkpt lat="43.274060551686986" lon="11.759660237418323"><ele>298.33333333333337</ele><time>2026-05-03T14:39:55Z</time></trkpt><trkpt lat="43.274124186913944" lon="11.759582611493935"><ele>299.0</ele><time>2026-05-03T14:39:56Z</time></trkpt><trkpt lat="43.2741921725792" lon="11.759508147881634"><ele>299.0</ele><time>2026-05-03T14:39:57Z</time></trkpt><trkpt lat="43.27426103712847" lon="11.759431870767255"><ele>299.0</ele><time>2026-05-03T14:39:58Z</time></trkpt><trkpt lat="43.27433172194421" lon="11.759346342679013"><ele>299.0</ele><time>2026-05-03T14:39:59Z</time></trkpt><trkpt lat="43.274401600379164" lon="11.759248454034074"><ele>299.0</ele><time>2026-05-03T14:40:00Z</time></trkpt><trkpt lat="43.27447975760696" lon="11.75915043981261"><ele>299.0</ele><time>2026-05-03T14:40:01Z</time></trkpt><trkpt lat="43.274567368554656" lon="11.759049703144688"><ele>300.25</ele><time>2026-05-03T14:40:02Z</time></trkpt><trkpt lat="43.2746613631049" lon="11.758941621462009"><ele>301.5</ele><time>2026-05-03T14:40:03Z</time></trkpt><trkpt lat="43.274759541001536" lon="11.758824637159666"><ele>302.75</ele><time>2026-05-03T14:40:04Z</time></trkpt><trkpt lat="43.27486809546844" lon="11.758693558285099"><ele>304.0</ele><time>2026-05-03T14:40:05Z</time></trkpt><trkpt lat="43.27497644385357" lon="11.758556971337597"><ele>307.75</ele><time>2026-05-03T14:40:06Z</time></trkpt><trkpt lat="43.275075221449484" lon="11.758427445872556"><ele>311.5</ele><time>2026-05-03T14:40:07Z</time></trkpt><trkpt lat="43.275175487339254" lon="11.758279347741865"><ele>315.25</ele><time>2026-05-03T14:40:08Z</time></trkpt><trkpt lat="43.275280741468855" lon="11.758124950453976"><ele>319.0</ele><time>2026-05-03T14:40:09Z</time></trkpt><trkpt lat="43.275385525046715" lon="11.757968317426775"><ele>319.0</ele><time>2026-05-03T14:40:10Z</time></trkpt><trkpt lat="43.27548398348018" lon="11.757807644116996"><ele>319.0</ele><time>2026-05-03T14:40:11Z</time></trkpt><trkpt lat="43.27558098735123" lon="11.757651282511507"><ele>319.0</ele><time>2026-05-03T14:40:12Z</time></trkpt><trkpt lat="43.275669467725876" lon="11.757496165876493"><ele>319.0</ele><time>2026-05-03T14:40:13Z</time></trkpt><trkpt lat="43.27575800699214" lon="11.757348850745899"><ele>319.5</ele><time>2026-05-03T14:40:14Z</time></trkpt><trkpt lat="43.27584429007944" lon="11.75720881616395"><ele>320.0</ele><time>2026-05-03T14:40:15Z</time></trkpt><trkpt lat="43.275927578938266" lon="11.757069589644761"><ele>320.5</ele><time>2026-05-03T14:40:16Z</time></trkpt><trkpt lat="43.27601100173958" lon="11.756937153343673"><ele>321.0</ele><time>2026-05-03T14:40:17Z</time></trkpt><trkpt lat="43.27609420508527" lon="11.756811848166452"><ele>323.0</ele><time>2026-05-03T14:40:18Z</time></trkpt><trkpt lat="43.276182748874305" lon="11.756699500981222"><ele>325.0</ele><time>2026-05-03T14:40:19Z</time></trkpt><trkpt lat="43.27627350525173" lon="11.756596828426318"><ele>327.0</ele><time>2026-05-03T14:40:20Z</time></trkpt><trkpt lat="43.27636585386483" lon="11.756501183562138"><ele>329.0</ele><time>2026-05-03T14:40:21Z</time></trkpt><trkpt lat="43.276459315191666" lon="11.7564047992443"><ele>329.0</ele><time>2026-05-03T14:40:22Z</time></trkpt><trkpt lat="43.276544008972955" lon="11.75631876601211"><ele>329.0</ele><time>2026-05-03T14:40:23Z</time></trkpt><trkpt lat="43.27661726103844" lon="11.756244310285465"><ele>329.0</ele><time>2026-05-03T14:40:24Z</time></trkpt><trkpt lat="43.27668212538224" lon="11.756177899252782"><ele>329.0</ele><time>2026-05-03T14:40:25Z</time></trkpt><trkpt lat="43.276746547677924" lon="11.75611097300952"><ele>329.0</ele><time>2026-05-03T14:40:26Z</time></trkpt><trkpt lat="43.27680702762318" lon="11.756036473861764"><ele>329.0</ele><time>2026-05-03T14:40:27Z</time></trkpt><trkpt lat="43.276852406691596" lon="11.75596755672092"><ele>331.4</ele><time>2026-05-03T14:40:28Z</time></trkpt><trkpt lat="43.27689067231254" lon="11.755878992600492"><ele>333.79999999999995</ele><time>2026-05-03T14:40:29Z</time></trkpt><trkpt lat="43.27691023018007" lon="11.755764863105492"><ele>336.20000000000005</ele><time>2026-05-03T14:40:30Z</time></trkpt><trkpt lat="43.276906985631335" lon="11.755636390908812"><ele>338.6</ele><time>2026-05-03T14:40:31Z</time></trkpt><trkpt lat="43.27688372132529" lon="11.755501170441786"><ele>341.0</ele><time>2026-05-03T14:40:32Z</time></trkpt><trkpt lat="43.27685006977478" lon="11.755357952010169"><ele>341.0</ele><time>2026-05-03T14:40:33Z</time></trkpt><trkpt lat="43.27682461412415" lon="11.755206638625866"><ele>341.0</ele><time>2026-05-03T14:40:34Z</time></trkpt><trkpt lat="43.27679547721514" lon="11.755055730889358"><ele>341.0</ele><time>2026-05-03T14:40:35Z</time></trkpt><trkpt lat="43.27676044852219" lon="11.754906627267177"><ele>341.0</ele><time>2026-05-03T14:40:36Z</time></trkpt><trkpt lat="43.276726545298395" lon="11.754755233270307"><ele>342.4</ele><time>2026-05-03T14:40:37Z</time></trkpt><trkpt lat="43.27669672842338" lon="11.754604505182773"><ele>343.8</ele><time>2026-05-03T14:40:38Z</time></trkpt><trkpt lat="43.27666598702172" lon="11.754457633478976"><ele>345.2</ele><time>2026-05-03T14:40:39Z</time></trkpt><trkpt lat="43.27663297122001" lon="11.754317476166122"><ele>346.59999999999997</ele><time>2026-05-03T14:40:40Z</time></trkpt><trkpt lat="43.276595395003035" lon="11.754179389222964"><ele>348.0</ele><time>2026-05-03T14:40:41Z</time></trkpt><trkpt lat="43.276565489513466" lon="11.75404177081391"><ele>348.2</ele><time>2026-05-03T14:40:42Z</time></trkpt><trkpt lat="43.2765361594126" lon="11.75389717363641"><ele>348.4</ele><time>2026-05-03T14:40:43Z</time></trkpt><trkpt lat="43.27650444018691" lon="11.753753430293921"><ele>348.59999999999997</ele><time>2026-05-03T14:40:44Z</time></trkpt><trkpt lat="43.2764738825107" lon="11.753606112063604"><ele>348.79999999999995</ele><time>2026-05-03T14:40:45Z</time></trkpt><trkpt lat="43.276441956147686" lon="11.753478217075234"><ele>349.0</ele><time>2026-05-03T14:40:46Z</time></trkpt><trkpt lat="43.27640141695354" lon="11.7533549655088"><ele>350.0</ele><time>2026-05-03T14:40:47Z</time></trkpt><trkpt lat="43.276353717791864" lon="11.753235143085295"><ele>351.0</ele><time>2026-05-03T14:40:48Z</time></trkpt><trkpt lat="43.27630982740609" lon="11.753109624321972"><ele>352.0</ele><time>2026-05-03T14:40:49Z</time></trkpt><trkpt lat="43.27627313691463" lon="11.752968985541763"><ele>353.0</ele><time>2026-05-03T14:40:50Z</time></trkpt><trkpt lat="43.27624626733486" lon="11.752823216674644"><ele>354.0</ele><time>2026-05-03T14:40:51Z</time></trkpt><trkpt lat="43.27622679794704" lon="11.752688142276448"><ele>354.6</ele><time>2026-05-03T14:40:52Z</time></trkpt><trkpt lat="43.27621243329979" lon="11.752560869339376"><ele>355.2</ele><time>2026-05-03T14:40:53Z</time></trkpt><trkpt lat="43.276204906747246" lon="11.752429781694358"><ele>355.8</ele><time>2026-05-03T14:40:54Z</time></trkpt><trkpt lat="43.27620719070661" lon="11.752306306796735"><ele>356.40000000000003</ele><time>2026-05-03T14:40:55Z</time></trkpt><trkpt lat="43.2762107272963" lon="11.752186086802217"><ele>357.0</ele><time>2026-05-03T14:40:56Z</time></trkpt><trkpt lat="43.2762131087341" lon="11.752070135655169"><ele>357.0</ele><time>2026-05-03T14:40:57Z</time></trkpt><trkpt lat="43.27621795187961" lon="11.751951976065978"><ele>357.0</ele><time>2026-05-03T14:40:58Z</time></trkpt><trkpt lat="43.276226967322984" lon="11.751828990005803"><ele>357.0</ele><time>2026-05-03T14:40:59Z</time></trkpt><trkpt lat="43.27623557954852" lon="11.75170290134073"><ele>357.0</ele><time>2026-05-03T14:41:00Z</time></trkpt><trkpt lat="43.27624240838146" lon="11.751567838391209"><ele>357.0</ele><time>2026-05-03T14:41:01Z</time></trkpt><trkpt lat="43.276235683043495" lon="11.751427254059159"><ele>358.0</ele><time>2026-05-03T14:41:02Z</time></trkpt><trkpt lat="43.27621555094521" lon="11.751288118019405"><ele>359.0</ele><time>2026-05-03T14:41:03Z</time></trkpt><trkpt lat="43.27618489050061" lon="11.75114506382476"><ele>360.0</ele><time>2026-05-03T14:41:04Z</time></trkpt><trkpt lat="43.27614901707268" lon="11.75100120110443"><ele>361.0</ele><time>2026-05-03T14:41:05Z</time></trkpt><trkpt lat="43.276117541236914" lon="11.750855876861062"><ele>362.0</ele><time>2026-05-03T14:41:06Z</time></trkpt><trkpt lat="43.27608527605027" lon="11.750715316370725"><ele>363.20000000000005</ele><time>2026-05-03T14:41:07Z</time></trkpt><trkpt lat="43.2760498582699" lon="11.750576473797414"><ele>364.4</ele><time>2026-05-03T14:41:08Z</time></trkpt><trkpt lat="43.276014964423034" lon="11.75043944970874"><ele>365.6</ele><time>2026-05-03T14:41:09Z</time></trkpt><trkpt lat="43.275979063128204" lon="11.750304814508855"><ele>366.79999999999995</ele><time>2026-05-03T14:41:10Z</time></trkpt><trkpt lat="43.27594251008497" lon="11.750176606384759"><ele>368.0</ele><time>2026-05-03T14:41:11Z</time></trkpt><trkpt lat="43.27591260088977" lon="11.750058990154425"><ele>368.33333333333337</ele><time>2026-05-03T14:41:12Z</time></trkpt><trkpt lat="43.27588637376466" lon="11.749953883186187"><ele>368.6666666666667</ele><time>2026-05-03T14:41:13Z</time></trkpt><trkpt lat="43.27586497882132" lon="11.749858857609675"><ele>369.0</ele><time>2026-05-03T14:41:14Z</time></trkpt><trkpt lat="43.27584379608247" lon="11.749763002477751"><ele>369.3333333333333</ele><time>2026-05-03T14:41:15Z</time></trkpt><trkpt lat="43.275823839135874" lon="11.749679183570246"><ele>369.66666666666663</ele><time>2026-05-03T14:41:16Z</time></trkpt><trkpt lat="43.275781524908595" lon="11.74951011152906"><ele>370.0</ele><time>2026-05-03T14:41:18Z</time></trkpt><trkpt lat="43.27575401289262" lon="11.749417811421514"><ele>370.5</ele><time>2026-05-03T14:41:19Z</time></trkpt><trkpt lat="43.27572840864896" lon="11.749316338253298"><ele>371.0</ele><time>2026-05-03T14:41:20Z</time></trkpt><trkpt lat="43.275706968390985" lon="11.749216493502189"><ele>371.5</ele><time>2026-05-03T14:41:21Z</time></trkpt><trkpt lat="43.275683834818025" lon="11.749122173758023"><ele>372.0</ele><time>2026-05-03T14:41:22Z</time></trkpt><trkpt lat="43.27565307041844" lon="11.74902818516928"><ele>372.5</ele><time>2026-05-03T14:41:23Z</time></trkpt><trkpt lat="43.27561918471475" lon="11.748930686416672"><ele>373.0</ele><time>2026-05-03T14:41:24Z</time></trkpt><trkpt lat="43.27558356426467" lon="11.74884153018095"><ele>373.79999999999995</ele><time>2026-05-03T14:41:25Z</time></trkpt><trkpt lat="43.27555019998452" lon="11.748765706595394"><ele>374.6</ele><time>2026-05-03T14:41:26Z</time></trkpt><trkpt lat="43.27547537848252" lon="11.74861137438156"><ele>375.4</ele><time>2026-05-03T14:41:28Z</time></trkpt><trkpt lat="43.27542584957571" lon="11.748512592108384"><ele>376.20000000000005</ele><time>2026-05-03T14:41:29Z</time></trkpt><trkpt lat="43.27537249117401" lon="11.748395119973305"><ele>377.0</ele><time>2026-05-03T14:41:30Z</time></trkpt><trkpt lat="43.275315556524994" lon="11.748276607787856"><ele>377.0</ele><time>2026-05-03T14:41:31Z</time></trkpt><trkpt lat="43.2752581947728" lon="11.748171912644338"><ele>377.0</ele><time>2026-05-03T14:41:32Z</time></trkpt><trkpt lat="43.275195510452036" lon="11.748085371691731"><ele>377.0</ele><time>2026-05-03T14:41:33Z</time></trkpt><trkpt lat="43.27511548480315" lon="11.748028875852016"><ele>377.0</ele><time>2026-05-03T14:41:34Z</time></trkpt><trkpt lat="43.27502369723982" lon="11.748005474047396"><ele>377.0</ele><time>2026-05-03T14:41:35Z</time></trkpt><trkpt lat="43.27493865353673" lon="11.7480029663026"><ele>377.0</ele><time>2026-05-03T14:41:36Z</time></trkpt><trkpt lat="43.274858258816266" lon="11.748005315856428"><ele>377.0</ele><time>2026-05-03T14:41:37Z</time></trkpt><trkpt lat="43.27478411026567" lon="11.748000838684284"><ele>377.0</ele><time>2026-05-03T14:41:38Z</time></trkpt><trkpt lat="43.27470034040461" lon="11.74796289576788"><ele>377.0</ele><time>2026-05-03T14:41:39Z</time></trkpt><trkpt lat="43.27459964048382" lon="11.747910444979413"><ele>377.0</ele><time>2026-05-03T14:41:40Z</time></trkpt><trkpt lat="43.27448487138408" lon="11.747855112006867"><ele>378.5</ele><time>2026-05-03T14:41:41Z</time></trkpt><trkpt lat="43.27437431295757" lon="11.747802856982707"><ele>380.0</ele><time>2026-05-03T14:41:42Z</time></trkpt><trkpt lat="43.274257083528795" lon="11.747745680925327"><ele>381.5</ele><time>2026-05-03T14:41:43Z</time></trkpt><trkpt lat="43.27413054177565" lon="11.747690623380144"><ele>383.0</ele><time>2026-05-03T14:41:44Z</time></trkpt><trkpt lat="43.274002285183705" lon="11.74763272660712"><ele>380.0</ele><time>2026-05-03T14:41:45Z</time></trkpt><trkpt lat="43.27387747627885" lon="11.747574488527041"><ele>377.0</ele><time>2026-05-03T14:41:46Z</time></trkpt><trkpt lat="43.27376051707205" lon="11.747516873623521"><ele>374.0</ele><time>2026-05-03T14:41:47Z</time></trkpt><trkpt lat="43.27364592778336" lon="11.747468722312037"><ele>371.0</ele><time>2026-05-03T14:41:48Z</time></trkpt><trkpt lat="43.27353342410594" lon="11.747423217378493"><ele>371.0</ele><time>2026-05-03T14:41:49Z</time></trkpt><trkpt lat="43.27342321794878" lon="11.74738713157737"><ele>371.0</ele><time>2026-05-03T14:41:50Z</time></trkpt><trkpt lat="43.273322367458405" lon="11.747359256901916"><ele>371.0</ele><time>2026-05-03T14:41:51Z</time></trkpt><trkpt lat="43.27323258603765" lon="11.74733665625424"><ele>371.0</ele><time>2026-05-03T14:41:52Z</time></trkpt><trkpt lat="43.273157147856644" lon="11.747311562266297"><ele>371.0</ele><time>2026-05-03T14:41:53Z</time></trkpt><trkpt lat="43.27309795915759" lon="11.747259610753245"><ele>371.5</ele><time>2026-05-03T14:41:54Z</time></trkpt><trkpt lat="43.27297792272492" lon="11.747133019171034"><ele>372.0</ele><time>2026-05-03T14:41:56Z</time></trkpt><trkpt lat="43.272898132556215" lon="11.747045840042142"><ele>372.5</ele><time>2026-05-03T14:41:57Z</time></trkpt><trkpt lat="43.272810292861436" lon="11.7469502972143"><ele>373.0</ele><time>2026-05-03T14:41:58Z</time></trkpt><trkpt lat="43.27272431636465" lon="11.746859473017988"><ele>373.0</ele><time>2026-05-03T14:41:59Z</time></trkpt><trkpt lat="43.272644328814856" lon="11.746774113954077"><ele>373.0</ele><time>2026-05-03T14:42:00Z</time></trkpt><trkpt lat="43.272566573025784" lon="11.746688076466464"><ele>373.0</ele><time>2026-05-03T14:42:01Z</time></trkpt><trkpt lat="43.2725074969487" lon="11.746599710936032"><ele>373.0</ele><time>2026-05-03T14:42:02Z</time></trkpt><trkpt lat="43.27245492346226" lon="11.746506034281625"><ele>373.0</ele><time>2026-05-03T14:42:03Z</time></trkpt><trkpt lat="43.27242371977291" lon="11.74641607947708"><ele>373.0</ele><time>2026-05-03T14:42:04Z</time></trkpt><trkpt lat="43.27239747885808" lon="11.746325423936195"><ele>373.0</ele><time>2026-05-03T14:42:05Z</time></trkpt><trkpt lat="43.272360636656344" lon="11.74617218051807"><ele>373.0</ele><time>2026-05-03T14:42:07Z</time></trkpt><trkpt lat="43.27233972470434" lon="11.746021554283205"><ele>373.0</ele><time>2026-05-03T14:42:09Z</time></trkpt><trkpt lat="43.27230788396611" lon="11.745858644003249"><ele>373.0</ele><time>2026-05-03T14:42:11Z</time></trkpt><trkpt lat="43.272291479117634" lon="11.745771078425069"><ele>373.0</ele><time>2026-05-03T14:42:12Z</time></trkpt><trkpt lat="43.272273963085944" lon="11.745682477890583"><ele>373.59999999999997</ele><time>2026-05-03T14:42:13Z</time></trkpt><trkpt lat="43.272256283425854" lon="11.745599145352049"><ele>374.2</ele><time>2026-05-03T14:42:14Z</time></trkpt><trkpt lat="43.27222150084976" lon="11.745437857975164"><ele>374.8</ele><time>2026-05-03T14:42:16Z</time></trkpt><trkpt lat="43.272188020890354" lon="11.745278665314103"><ele>375.4</ele><time>2026-05-03T14:42:18Z</time></trkpt><trkpt lat="43.27214527578015" lon="11.745121959203892"><ele>376.0</ele><time>2026-05-03T14:42:20Z</time></trkpt><trkpt lat="43.27214186744734" lon="11.745027276962947"><ele>376.0</ele><time>2026-05-03T14:42:21Z</time></trkpt><trkpt lat="43.272140934287535" lon="11.74493198121369"><ele>376.0</ele><time>2026-05-03T14:42:22Z</time></trkpt><trkpt lat="43.272144446731964" lon="11.74484369241647"><ele>376.0</ele><time>2026-05-03T14:42:23Z</time></trkpt><trkpt lat="43.27215525259788" lon="11.744693043162314"><ele>376.0</ele><time>2026-05-03T14:42:25Z</time></trkpt><trkpt lat="43.27215674926828" lon="11.744601295265484"><ele>376.0</ele><time>2026-05-03T14:42:27Z</time></trkpt><trkpt lat="43.27214871401846" lon="11.744487883491594"><ele>376.0</ele><time>2026-05-03T14:42:30Z</time></trkpt><trkpt lat="43.27214538259589" lon="11.744401475312099"><ele>376.66666666666663</ele><time>2026-05-03T14:42:33Z</time></trkpt><trkpt lat="43.27212918674307" lon="11.744279215953986"><ele>377.3333333333333</ele><time>2026-05-03T14:42:44Z</time></trkpt><trkpt lat="43.27200300406055" lon="11.74423821121677"><ele>378.0</ele><time>2026-05-03T14:42:46Z</time></trkpt><trkpt lat="43.27193397053765" lon="11.744221595703456"><ele>378.6666666666667</ele><time>2026-05-03T14:42:47Z</time></trkpt><trkpt lat="43.271862333531054" lon="11.74420124915185"><ele>379.33333333333337</ele><time>2026-05-03T14:42:48Z</time></trkpt><trkpt lat="43.27177980724913" lon="11.744173498701485"><ele>380.0</ele><time>2026-05-03T14:42:49Z</time></trkpt><trkpt lat="43.2716917205626" lon="11.744142878907214"><ele>380.0</ele><time>2026-05-03T14:42:50Z</time></trkpt><trkpt lat="43.27159433509887" lon="11.744110091163355"><ele>380.0</ele><time>2026-05-03T14:42:51Z</time></trkpt><trkpt lat="43.27148466318212" lon="11.74407701543117"><ele>380.0</ele><time>2026-05-03T14:42:52Z</time></trkpt><trkpt lat="43.27137723596603" lon="11.744045000816378"><ele>380.0</ele><time>2026-05-03T14:42:53Z</time></trkpt><trkpt lat="43.27125923996161" lon="11.744012568405086"><ele>380.0</ele><time>2026-05-03T14:42:54Z</time></trkpt><trkpt lat="43.27113623809965" lon="11.743979928131813"><ele>377.0</ele><time>2026-05-03T14:42:55Z</time></trkpt><trkpt lat="43.27101348512005" lon="11.743947122455962"><ele>374.0</ele><time>2026-05-03T14:42:56Z</time></trkpt><trkpt lat="43.270884742532765" lon="11.743909028393043"><ele>371.0</ele><time>2026-05-03T14:42:57Z</time></trkpt><trkpt lat="43.27075267283769" lon="11.743861556831671"><ele>368.0</ele><time>2026-05-03T14:42:58Z</time></trkpt><trkpt lat="43.27061431986142" lon="11.74381317775826"><ele>364.6666666666667</ele><time>2026-05-03T14:42:59Z</time></trkpt><trkpt lat="43.27047301210928" lon="11.743748819510172"><ele>361.3333333333333</ele><time>2026-05-03T14:43:00Z</time></trkpt><trkpt lat="43.27033172775094" lon="11.743674885844587"><ele>358.0</ele><time>2026-05-03T14:43:01Z</time></trkpt><trkpt lat="43.2701888118369" lon="11.74359501106877"><ele>357.3333333333333</ele><time>2026-05-03T14:43:02Z</time></trkpt><trkpt lat="43.27004431762145" lon="11.743510742717984"><ele>356.6666666666667</ele><time>2026-05-03T14:43:03Z</time></trkpt><trkpt lat="43.269900116067284" lon="11.74342555976916"><ele>356.0</ele><time>2026-05-03T14:43:04Z</time></trkpt><trkpt lat="43.2697624416853" lon="11.74334127449224"><ele>356.0</ele><time>2026-05-03T14:43:05Z</time></trkpt><trkpt lat="43.26963011731686" lon="11.743259521500903"><ele>356.0</ele><time>2026-05-03T14:43:06Z</time></trkpt><trkpt lat="43.269504176254856" lon="11.74318216722479"><ele>356.0</ele><time>2026-05-03T14:43:07Z</time></trkpt><trkpt lat="43.26938385693405" lon="11.743102912853148"><ele>356.0</ele><time>2026-05-03T14:43:08Z</time></trkpt><trkpt lat="43.2692664519399" lon="11.743035044857397"><ele>356.0</ele><time>2026-05-03T14:43:09Z</time></trkpt><trkpt lat="43.26916026887978" lon="11.742957997560104"><ele>356.0</ele><time>2026-05-03T14:43:10Z</time></trkpt><trkpt lat="43.269056537628835" lon="11.742877980437648"><ele>356.0</ele><time>2026-05-03T14:43:11Z</time></trkpt><trkpt lat="43.268963460092486" lon="11.742795233613153"><ele>356.0</ele><time>2026-05-03T14:43:12Z</time></trkpt><trkpt lat="43.268879084787514" lon="11.742697572978459"><ele>353.8</ele><time>2026-05-03T14:43:13Z</time></trkpt><trkpt lat="43.26881689404515" lon="11.742580528495013"><ele>351.6</ele><time>2026-05-03T14:43:14Z</time></trkpt><trkpt lat="43.268775721819175" lon="11.742448417898613"><ele>349.4</ele><time>2026-05-03T14:43:15Z</time></trkpt><trkpt lat="43.268756242652834" lon="11.742301585347084"><ele>347.2</ele><time>2026-05-03T14:43:16Z</time></trkpt><trkpt lat="43.26875214523379" lon="11.742143790734985"><ele>345.0</ele><time>2026-05-03T14:43:17Z</time></trkpt><trkpt lat="43.26875820834276" lon="11.741969308330097"><ele>344.5</ele><time>2026-05-03T14:43:18Z</time></trkpt><trkpt lat="43.26877432091605" lon="11.741788421223879"><ele>344.0</ele><time>2026-05-03T14:43:19Z</time></trkpt><trkpt lat="43.26880637244532" lon="11.741604637601279"><ele>343.5</ele><time>2026-05-03T14:43:20Z</time></trkpt><trkpt lat="43.26884854973912" lon="11.741419206030598"><ele>343.0</ele><time>2026-05-03T14:43:21Z</time></trkpt><trkpt lat="43.26890452764379" lon="11.741237699845525"><ele>343.5</ele><time>2026-05-03T14:43:22Z</time></trkpt><trkpt lat="43.26897470152258" lon="11.741066100254875"><ele>344.0</ele><time>2026-05-03T14:43:23Z</time></trkpt><trkpt lat="43.26905111813824" lon="11.740908554056256"><ele>344.5</ele><time>2026-05-03T14:43:24Z</time></trkpt><trkpt lat="43.26912926483525" lon="11.740751825120142"><ele>345.0</ele><time>2026-05-03T14:43:25Z</time></trkpt><trkpt lat="43.269214269923005" lon="11.740607844831896"><ele>345.0</ele><time>2026-05-03T14:43:26Z</time></trkpt><trkpt lat="43.2693088950193" lon="11.740483014980228"><ele>345.0</ele><time>2026-05-03T14:43:27Z</time></trkpt><trkpt lat="43.26941519098152" lon="11.740375289977244"><ele>345.0</ele><time>2026-05-03T14:43:28Z</time></trkpt><trkpt lat="43.269535331237456" lon="11.740280916812221"><ele>345.0</ele><time>2026-05-03T14:43:29Z</time></trkpt><trkpt lat="43.26967017115528" lon="11.740193882554536"><ele>342.0</ele><time>2026-05-03T14:43:30Z</time></trkpt><trkpt lat="43.26981315848752" lon="11.740100725857646"><ele>339.0</ele><time>2026-05-03T14:43:31Z</time></trkpt><trkpt lat="43.26995712826316" lon="11.739997830195598"><ele>336.0</ele><time>2026-05-03T14:43:32Z</time></trkpt><trkpt lat="43.27010877299332" lon="11.739898542314416"><ele>336.0</ele><time>2026-05-03T14:43:33Z</time></trkpt><trkpt lat="43.270261542034575" lon="11.739793816654723"><ele>336.0</ele><time>2026-05-03T14:43:34Z</time></trkpt><trkpt lat="43.27041471488227" lon="11.739680427589265"><ele>336.0</ele><time>2026-05-03T14:43:35Z</time></trkpt><trkpt lat="43.27056415810333" lon="11.73955756747514"><ele>337.0</ele><time>2026-05-03T14:43:36Z</time></trkpt><trkpt lat="43.27070598638168" lon="11.739439571371266"><ele>338.0</ele><time>2026-05-03T14:43:37Z</time></trkpt><trkpt lat="43.27083500927462" lon="11.73934096447463"><ele>339.0</ele><time>2026-05-03T14:43:38Z</time></trkpt><trkpt lat="43.270949223142274" lon="11.739249857794306"><ele>340.0</ele><time>2026-05-03T14:43:39Z</time></trkpt><trkpt lat="43.271049571720816" lon="11.739167092282468"><ele>337.0</ele><time>2026-05-03T14:43:40Z</time></trkpt><trkpt lat="43.27113949001563" lon="11.739076750407953"><ele>334.0</ele><time>2026-05-03T14:43:41Z</time></trkpt><trkpt lat="43.27121350597915" lon="11.73896420215797"><ele>331.0</ele><time>2026-05-03T14:43:42Z</time></trkpt><trkpt lat="43.27126356244711" lon="11.738834868183499"><ele>328.0</ele><time>2026-05-03T14:43:43Z</time></trkpt><trkpt lat="43.271290454416096" lon="11.738692723764473"><ele>325.0</ele><time>2026-05-03T14:43:44Z</time></trkpt><trkpt lat="43.27128607517577" lon="11.738539083522927"><ele>323.4</ele><time>2026-05-03T14:43:45Z</time></trkpt><trkpt lat="43.27126583767807" lon="11.738386363496488"><ele>321.8</ele><time>2026-05-03T14:43:46Z</time></trkpt><trkpt lat="43.2712165866539" lon="11.738246545038178"><ele>320.2</ele><time>2026-05-03T14:43:47Z</time></trkpt><trkpt lat="43.271149027835" lon="11.738130876533559"><ele>318.6</ele><time>2026-05-03T14:43:48Z</time></trkpt><trkpt lat="43.27106674614844" lon="11.738050815941017"><ele>317.0</ele><time>2026-05-03T14:43:49Z</time></trkpt><trkpt lat="43.27097887598065" lon="11.737998494359278"><ele>317.0</ele><time>2026-05-03T14:43:50Z</time></trkpt><trkpt lat="43.27088819855248" lon="11.73794678333812"><ele>317.0</ele><time>2026-05-03T14:43:51Z</time></trkpt><trkpt lat="43.2708028043892" lon="11.737874762102166"><ele>317.0</ele><time>2026-05-03T14:43:52Z</time></trkpt><trkpt lat="43.27073451723417" lon="11.737776092982402"><ele>317.0</ele><time>2026-05-03T14:43:53Z</time></trkpt><trkpt lat="43.27068788092746" lon="11.737656107694068"><ele>317.0</ele><time>2026-05-03T14:43:54Z</time></trkpt><trkpt lat="43.270661768660794" lon="11.737524704483617"><ele>316.5</ele><time>2026-05-03T14:43:55Z</time></trkpt><trkpt lat="43.27064771278503" lon="11.737378846500475"><ele>316.0</ele><time>2026-05-03T14:43:56Z</time></trkpt><trkpt lat="43.27064201837474" lon="11.737225349970542"><ele>315.5</ele><time>2026-05-03T14:43:57Z</time></trkpt><trkpt lat="43.27063541045752" lon="11.737061940968317"><ele>315.0</ele><time>2026-05-03T14:43:58Z</time></trkpt><trkpt lat="43.27062281608969" lon="11.736889017384053"><ele>312.0</ele><time>2026-05-03T14:43:59Z</time></trkpt><trkpt lat="43.270601197428036" lon="11.736713784774784"><ele>309.0</ele><time>2026-05-03T14:44:00Z</time></trkpt><trkpt lat="43.270555484016406" lon="11.736537878820357"><ele>306.0</ele><time>2026-05-03T14:44:01Z</time></trkpt><trkpt lat="43.27048503251046" lon="11.736381626544116"><ele>303.0</ele><time>2026-05-03T14:44:02Z</time></trkpt><trkpt lat="43.27040055409999" lon="11.736241947830303"><ele>303.0</ele><time>2026-05-03T14:44:03Z</time></trkpt><trkpt lat="43.270309443692625" lon="11.73609737996863"><ele>303.0</ele><time>2026-05-03T14:44:04Z</time></trkpt><trkpt lat="43.27019359702695" lon="11.735992671434929"><ele>303.0</ele><time>2026-05-03T14:44:05Z</time></trkpt><trkpt lat="43.270069854519896" lon="11.735910043632234"><ele>303.0</ele><time>2026-05-03T14:44:06Z</time></trkpt><trkpt lat="43.26993908745252" lon="11.735827845677798"><ele>304.0</ele><time>2026-05-03T14:44:07Z</time></trkpt><trkpt lat="43.26981057141912" lon="11.735748595158983"><ele>305.0</ele><time>2026-05-03T14:44:08Z</time></trkpt><trkpt lat="43.26968832625683" lon="11.735668080630935"><ele>306.0</ele><time>2026-05-03T14:44:09Z</time></trkpt><trkpt lat="43.2695771215898" lon="11.73558754226861"><ele>307.0</ele><time>2026-05-03T14:44:10Z</time></trkpt><trkpt lat="43.26947709050123" lon="11.73551712467752"><ele>305.0</ele><time>2026-05-03T14:44:11Z</time></trkpt><trkpt lat="43.26940322216055" lon="11.735410410766107"><ele>303.0</ele><time>2026-05-03T14:44:12Z</time></trkpt><trkpt lat="43.269353840894624" lon="11.735278864604224"><ele>301.0</ele><time>2026-05-03T14:44:13Z</time></trkpt><trkpt lat="43.26933052562747" lon="11.735137359526833"><ele>299.0</ele><time>2026-05-03T14:44:14Z</time></trkpt><trkpt lat="43.26933259609149" lon="11.734997946498858"><ele>297.0</ele><time>2026-05-03T14:44:15Z</time></trkpt><trkpt lat="43.26935686680223" lon="11.734861801883966"><ele>297.0</ele><time>2026-05-03T14:44:16Z</time></trkpt><trkpt lat="43.26941036338487" lon="11.734734884350818"><ele>297.0</ele><time>2026-05-03T14:44:17Z</time></trkpt><trkpt lat="43.26949100662414" lon="11.734628825681087"><ele>297.0</ele><time>2026-05-03T14:44:18Z</time></trkpt><trkpt lat="43.269589460548744" lon="11.734551668734186"><ele>297.0</ele><time>2026-05-03T14:44:19Z</time></trkpt><trkpt lat="43.26970335435346" lon="11.73450720936837"><ele>296.25</ele><time>2026-05-03T14:44:20Z</time></trkpt><trkpt lat="43.26982433737126" lon="11.734489273712759"><ele>295.5</ele><time>2026-05-03T14:44:21Z</time></trkpt><trkpt lat="43.26994762449391" lon="11.734474925656734"><ele>294.75</ele><time>2026-05-03T14:44:22Z</time></trkpt><trkpt lat="43.270080543409286" lon="11.734438618812678"><ele>294.0</ele><time>2026-05-03T14:44:23Z</time></trkpt><trkpt lat="43.270202784569214" lon="11.734383131630075"><ele>294.0</ele><time>2026-05-03T14:44:24Z</time></trkpt><trkpt lat="43.270321782168104" lon="11.734316835992505"><ele>294.0</ele><time>2026-05-03T14:44:25Z</time></trkpt><trkpt lat="43.270441383907915" lon="11.734241170532254"><ele>294.0</ele><time>2026-05-03T14:44:26Z</time></trkpt><trkpt lat="43.27055370885648" lon="11.73416247059712"><ele>294.0</ele><time>2026-05-03T14:44:27Z</time></trkpt><trkpt lat="43.270658868082876" lon="11.734081435832078"><ele>294.2</ele><time>2026-05-03T14:44:28Z</time></trkpt><trkpt lat="43.27075105960198" lon="11.733992261248883"><ele>294.4</ele><time>2026-05-03T14:44:29Z</time></trkpt><trkpt lat="43.27082376607197" lon="11.733883658898163"><ele>294.6</ele><time>2026-05-03T14:44:30Z</time></trkpt><trkpt lat="43.270870585513826" lon="11.733750596354124"><ele>294.8</ele><time>2026-05-03T14:44:31Z</time></trkpt><trkpt lat="43.270891130328586" lon="11.733601336971594"><ele>295.0</ele><time>2026-05-03T14:44:32Z</time></trkpt><trkpt lat="43.27088990354431" lon="11.733450004586432"><ele>293.25</ele><time>2026-05-03T14:44:33Z</time></trkpt><trkpt lat="43.270874685402916" lon="11.733287744606914"><ele>291.5</ele><time>2026-05-03T14:44:34Z</time></trkpt><trkpt lat="43.27085469574414" lon="11.73311720295484"><ele>289.75</ele><time>2026-05-03T14:44:35Z</time></trkpt><trkpt lat="43.27083289150363" lon="11.732934315061007"><ele>288.0</ele><time>2026-05-03T14:44:36Z</time></trkpt><trkpt lat="43.27080983877211" lon="11.732744699477815"><ele>287.25</ele><time>2026-05-03T14:44:37Z</time></trkpt><trkpt lat="43.270789211421686" lon="11.732549200245549"><ele>286.5</ele><time>2026-05-03T14:44:38Z</time></trkpt><trkpt lat="43.27076468743865" lon="11.7323563634999"><ele>285.75</ele><time>2026-05-03T14:44:39Z</time></trkpt><trkpt lat="43.2707305389917" lon="11.73216751497967"><ele>285.0</ele><time>2026-05-03T14:44:40Z</time></trkpt><trkpt lat="43.27068034710802" lon="11.731984878763376"><ele>284.25</ele><time>2026-05-03T14:44:41Z</time></trkpt><trkpt lat="43.27061427825765" lon="11.731811934027565"><ele>283.5</ele><time>2026-05-03T14:44:42Z</time></trkpt><trkpt lat="43.270542226455994" lon="11.731652149166583"><ele>282.75</ele><time>2026-05-03T14:44:43Z</time></trkpt><trkpt lat="43.27046585175594" lon="11.731508722939687"><ele>282.0</ele><time>2026-05-03T14:44:44Z</time></trkpt><trkpt lat="43.27037947599226" lon="11.73138208795235"><ele>282.0</ele><time>2026-05-03T14:44:45Z</time></trkpt><trkpt lat="43.27029022130322" lon="11.73126600421315"><ele>282.0</ele><time>2026-05-03T14:44:46Z</time></trkpt><trkpt lat="43.27019775078475" lon="11.731159023838687"><ele>282.0</ele><time>2026-05-03T14:44:47Z</time></trkpt><trkpt lat="43.2701070167971" lon="11.731057934187966"><ele>282.0</ele><time>2026-05-03T14:44:48Z</time></trkpt><trkpt lat="43.27001936995804" lon="11.730962056299502"><ele>281.6</ele><time>2026-05-03T14:44:49Z</time></trkpt><trkpt lat="43.26993963089905" lon="11.730861251705946"><ele>281.2</ele><time>2026-05-03T14:44:50Z</time></trkpt><trkpt lat="43.26986794458028" lon="11.730751773391782"><ele>280.8</ele><time>2026-05-03T14:44:51Z</time></trkpt><trkpt lat="43.269809786357925" lon="11.730637581504055"><ele>280.4</ele><time>2026-05-03T14:44:52Z</time></trkpt><trkpt lat="43.26976528728298" lon="11.73052090276165"><ele>280.0</ele><time>2026-05-03T14:44:53Z</time></trkpt><trkpt lat="43.26972712116812" lon="11.730390260768875"><ele>279.25</ele><time>2026-05-03T14:44:54Z</time></trkpt><trkpt lat="43.26969537639357" lon="11.730249950125984"><ele>278.5</ele><time>2026-05-03T14:44:55Z</time></trkpt><trkpt lat="43.269667809115724" lon="11.730105175156254"><ele>277.75</ele><time>2026-05-03T14:44:56Z</time></trkpt><trkpt lat="43.2696320922948" lon="11.729940816415347"><ele>277.0</ele><time>2026-05-03T14:44:57Z</time></trkpt><trkpt lat="43.269599297245875" lon="11.729790672683528"><ele>277.0</ele><time>2026-05-03T14:44:58Z</time></trkpt><trkpt lat="43.26956656978079" lon="11.729643499941043"><ele>277.0</ele><time>2026-05-03T14:44:59Z</time></trkpt><trkpt lat="43.269533690528036" lon="11.729498298049352"><ele>277.0</ele><time>2026-05-03T14:45:00Z</time></trkpt><trkpt lat="43.269503747700966" lon="11.729355669543287"><ele>277.0</ele><time>2026-05-03T14:45:01Z</time></trkpt><trkpt lat="43.26947627819054" lon="11.72921766780053"><ele>277.0</ele><time>2026-05-03T14:45:02Z</time></trkpt><trkpt lat="43.26945128519522" lon="11.729084698028712"><ele>276.8333333333333</ele><time>2026-05-03T14:45:03Z</time></trkpt><trkpt lat="43.2694271697794" lon="11.72895935367559"><ele>276.66666666666663</ele><time>2026-05-03T14:45:04Z</time></trkpt><trkpt lat="43.269402374557075" lon="11.728841208839926"><ele>276.5</ele><time>2026-05-03T14:45:05Z</time></trkpt><trkpt lat="43.26937742425275" lon="11.728727001730773"><ele>276.3333333333333</ele><time>2026-05-03T14:45:06Z</time></trkpt><trkpt lat="43.26935410092316" lon="11.728617806495283"><ele>276.1666666666667</ele><time>2026-05-03T14:45:07Z</time></trkpt><trkpt lat="43.26933009356477" lon="11.72851028557291"><ele>276.0</ele><time>2026-05-03T14:45:08Z</time></trkpt><trkpt lat="43.26931454910757" lon="11.728407875617794"><ele>275.5</ele><time>2026-05-03T14:45:09Z</time></trkpt><trkpt lat="43.26930738423469" lon="11.728298176603586"><ele>275.0</ele><time>2026-05-03T14:45:10Z</time></trkpt><trkpt lat="43.26931597655706" lon="11.728184461483599"><ele>274.5</ele><time>2026-05-03T14:45:11Z</time></trkpt><trkpt lat="43.26933558357949" lon="11.728069657728101"><ele>274.0</ele><time>2026-05-03T14:45:12Z</time></trkpt><trkpt lat="43.269343953290125" lon="11.727959792589271"><ele>273.5</ele><time>2026-05-03T14:45:13Z</time></trkpt><trkpt lat="43.26933675902802" lon="11.727853008294751"><ele>273.0</ele><time>2026-05-03T14:45:14Z</time></trkpt><trkpt lat="43.269310457999865" lon="11.727754547214218"><ele>272.6</ele><time>2026-05-03T14:45:15Z</time></trkpt><trkpt lat="43.26926520383135" lon="11.727660938694326"><ele>272.20000000000005</ele><time>2026-05-03T14:45:16Z</time></trkpt><trkpt lat="43.26920959432372" lon="11.727571374292257"><ele>271.8</ele><time>2026-05-03T14:45:17Z</time></trkpt><trkpt lat="43.2691523538556" lon="11.727475556458861"><ele>271.40000000000003</ele><time>2026-05-03T14:45:18Z</time></trkpt><trkpt lat="43.26910590669651" lon="11.727355849568662"><ele>271.0</ele><time>2026-05-03T14:45:19Z</time></trkpt><trkpt lat="43.26906680537537" lon="11.727218492511277"><ele>271.0</ele><time>2026-05-03T14:45:20Z</time></trkpt><trkpt lat="43.26903042566026" lon="11.72706788083434"><ele>271.0</ele><time>2026-05-03T14:45:21Z</time></trkpt><trkpt lat="43.268994579399966" lon="11.726905941706326"><ele>271.0</ele><time>2026-05-03T14:45:22Z</time></trkpt><trkpt lat="43.26896002441365" lon="11.726732167949196"><ele>271.0</ele><time>2026-05-03T14:45:23Z</time></trkpt><trkpt lat="43.26892079492505" lon="11.726552153890864"><ele>270.75</ele><time>2026-05-03T14:45:24Z</time></trkpt><trkpt lat="43.26888503022308" lon="11.726380399625732"><ele>270.5</ele><time>2026-05-03T14:45:25Z</time></trkpt><trkpt lat="43.26884817895398" lon="11.726205562192536"><ele>270.25</ele><time>2026-05-03T14:45:26Z</time></trkpt><trkpt lat="43.26881122514304" lon="11.726027888537832"><ele>270.0</ele><time>2026-05-03T14:45:27Z</time></trkpt><trkpt lat="43.26877455820859" lon="11.725847410841986"><ele>270.0</ele><time>2026-05-03T14:45:28Z</time></trkpt><trkpt lat="43.26873346020357" lon="11.725666441035532"><ele>270.0</ele><time>2026-05-03T14:45:29Z</time></trkpt><trkpt lat="43.26869430278916" lon="11.725479127384952"><ele>270.0</ele><time>2026-05-03T14:45:30Z</time></trkpt><trkpt lat="43.268655114022735" lon="11.725287414201864"><ele>270.0</ele><time>2026-05-03T14:45:31Z</time></trkpt><trkpt lat="43.26861414765535" lon="11.725093759659185"><ele>270.0</ele><time>2026-05-03T14:45:32Z</time></trkpt><trkpt lat="43.26857215937056" lon="11.72489937973155"><ele>270.0</ele><time>2026-05-03T14:45:33Z</time></trkpt><trkpt lat="43.26853213591034" lon="11.724703140751034"><ele>270.0</ele><time>2026-05-03T14:45:34Z</time></trkpt><trkpt lat="43.26849220476028" lon="11.724504801389163"><ele>270.0</ele><time>2026-05-03T14:45:35Z</time></trkpt><trkpt lat="43.26845232044159" lon="11.724305549636625"><ele>270.25</ele><time>2026-05-03T14:45:36Z</time></trkpt><trkpt lat="43.268413482215735" lon="11.724112021221114"><ele>270.5</ele><time>2026-05-03T14:45:37Z</time></trkpt><trkpt lat="43.268376723776704" lon="11.723926343258677"><ele>270.75</ele><time>2026-05-03T14:45:38Z</time></trkpt><trkpt lat="43.26834929185556" lon="11.72373899028082"><ele>271.0</ele><time>2026-05-03T14:45:39Z</time></trkpt><trkpt lat="43.26833133240085" lon="11.72355155010246"><ele>271.0</ele><time>2026-05-03T14:45:40Z</time></trkpt><trkpt lat="43.2683195250338" lon="11.723359006019875"><ele>271.0</ele><time>2026-05-03T14:45:41Z</time></trkpt><trkpt lat="43.26831428852799" lon="11.72316671959769"><ele>271.0</ele><time>2026-05-03T14:45:42Z</time></trkpt><trkpt lat="43.268310749392334" lon="11.722969757057509"><ele>271.0</ele><time>2026-05-03T14:45:43Z</time></trkpt><trkpt lat="43.26830389001519" lon="11.722766994774341"><ele>271.0</ele><time>2026-05-03T14:45:44Z</time></trkpt><trkpt lat="43.26829413300008" lon="11.722564321478433"><ele>271.0</ele><time>2026-05-03T14:45:45Z</time></trkpt><trkpt lat="43.26827520284703" lon="11.722361455674715"><ele>271.0</ele><time>2026-05-03T14:45:46Z</time></trkpt><trkpt lat="43.26825200637331" lon="11.72215660428056"><ele>271.0</ele><time>2026-05-03T14:45:47Z</time></trkpt><trkpt lat="43.26822446525109" lon="11.721952819622407"><ele>270.66666666666663</ele><time>2026-05-03T14:45:48Z</time></trkpt><trkpt lat="43.26819239387583" lon="11.721748779131287"><ele>270.3333333333333</ele><time>2026-05-03T14:45:49Z</time></trkpt><trkpt lat="43.268158633579546" lon="11.721544806273913"><ele>270.0</ele><time>2026-05-03T14:45:50Z</time></trkpt><trkpt lat="43.26812430289955" lon="11.721338856851881"><ele>269.6666666666667</ele><time>2026-05-03T14:45:51Z</time></trkpt><trkpt lat="43.26809061377604" lon="11.721133330741086"><ele>269.33333333333337</ele><time>2026-05-03T14:45:52Z</time></trkpt><trkpt lat="43.26805730965624" lon="11.720928515378255"><ele>269.0</ele><time>2026-05-03T14:45:53Z</time></trkpt><trkpt lat="43.26802305169019" lon="11.720725487445256"><ele>269.0</ele><time>2026-05-03T14:45:54Z</time></trkpt><trkpt lat="43.26798310987803" lon="11.720533003614568"><ele>269.0</ele><time>2026-05-03T14:45:55Z</time></trkpt><trkpt lat="43.26793714438888" lon="11.720351689057454"><ele>269.0</ele><time>2026-05-03T14:45:56Z</time></trkpt><trkpt lat="43.26788525617831" lon="11.720180347618003"><ele>269.0</ele><time>2026-05-03T14:45:57Z</time></trkpt><trkpt lat="43.26782927292003" lon="11.720016451412206"><ele>269.25</ele><time>2026-05-03T14:45:58Z</time></trkpt><trkpt lat="43.26776923315836" lon="11.719866945947658"><ele>269.5</ele><time>2026-05-03T14:45:59Z</time></trkpt><trkpt lat="43.26770942575914" lon="11.719735148198906"><ele>269.75</ele><time>2026-05-03T14:46:00Z</time></trkpt><trkpt lat="43.267649118364126" lon="11.719611471138116"><ele>270.0</ele><time>2026-05-03T14:46:01Z</time></trkpt><trkpt lat="43.26757965166372" lon="11.719488682100064"><ele>270.0</ele><time>2026-05-03T14:46:02Z</time></trkpt><trkpt lat="43.26750441727188" lon="11.719370672966825"><ele>270.0</ele><time>2026-05-03T14:46:03Z</time></trkpt><trkpt lat="43.26742173491743" lon="11.719261806914222"><ele>270.0</ele><time>2026-05-03T14:46:04Z</time></trkpt><trkpt lat="43.2673334203672" lon="11.719162528847951"><ele>270.0</ele><time>2026-05-03T14:46:05Z</time></trkpt><trkpt lat="43.26724115606669" lon="11.719077924165337"><ele>270.0</ele><time>2026-05-03T14:46:06Z</time></trkpt><trkpt lat="43.26714201502909" lon="11.718998042418932"><ele>270.0</ele><time>2026-05-03T14:46:07Z</time></trkpt><trkpt lat="43.26703813288592" lon="11.71891721631816"><ele>270.0</ele><time>2026-05-03T14:46:08Z</time></trkpt><trkpt lat="43.266935161834226" lon="11.718832866075399"><ele>270.0</ele><time>2026-05-03T14:46:09Z</time></trkpt><trkpt lat="43.26682844188309" lon="11.718741914526964"><ele>270.0</ele><time>2026-05-03T14:46:10Z</time></trkpt><trkpt lat="43.26672478939264" lon="11.718645799270591"><ele>270.0</ele><time>2026-05-03T14:46:11Z</time></trkpt><trkpt lat="43.266625009241544" lon="11.718540164977398"><ele>270.0</ele><time>2026-05-03T14:46:12Z</time></trkpt><trkpt lat="43.26653359389244" lon="11.718419925344152"><ele>270.0</ele><time>2026-05-03T14:46:13Z</time></trkpt><trkpt lat="43.26645073957317" lon="11.718281791799845"><ele>270.0</ele><time>2026-05-03T14:46:14Z</time></trkpt><trkpt lat="43.2663782330404" lon="11.718128797889918"><ele>270.0</ele><time>2026-05-03T14:46:15Z</time></trkpt><trkpt lat="43.26631519470161" lon="11.717965236676289"><ele>270.0</ele><time>2026-05-03T14:46:16Z</time></trkpt><trkpt lat="43.26625903007373" lon="11.717793930802605"><ele>270.0</ele><time>2026-05-03T14:46:17Z</time></trkpt><trkpt lat="43.26620443877007" lon="11.71760994606303"><ele>270.0</ele><time>2026-05-03T14:46:18Z</time></trkpt><trkpt lat="43.266143768596905" lon="11.717409877895976"><ele>270.0</ele><time>2026-05-03T14:46:19Z</time></trkpt><trkpt lat="43.26607987436824" lon="11.717205914212878"><ele>270.0</ele><time>2026-05-03T14:46:20Z</time></trkpt><trkpt lat="43.266008939210586" lon="11.716999920681314"><ele>270.6666666666667</ele><time>2026-05-03T14:46:21Z</time></trkpt><trkpt lat="43.26592511515458" lon="11.716803673776399"><ele>271.33333333333337</ele><time>2026-05-03T14:46:22Z</time></trkpt><trkpt lat="43.26582516867963" lon="11.716618839697107"><ele>272.0</ele><time>2026-05-03T14:46:23Z</time></trkpt><trkpt lat="43.26571382797481" lon="11.716452142530247"><ele>271.6666666666667</ele><time>2026-05-03T14:46:24Z</time></trkpt><trkpt lat="43.26558877606989" lon="11.716299093054252"><ele>271.3333333333333</ele><time>2026-05-03T14:46:25Z</time></trkpt><trkpt lat="43.26545847695054" lon="11.716150737348741"><ele>271.0</ele><time>2026-05-03T14:46:26Z</time></trkpt><trkpt lat="43.2653276314919" lon="11.716002422317818"><ele>271.0</ele><time>2026-05-03T14:46:27Z</time></trkpt><trkpt lat="43.26519553552733" lon="11.71585485273193"><ele>271.0</ele><time>2026-05-03T14:46:28Z</time></trkpt><trkpt lat="43.265059902025044" lon="11.715705139555089"><ele>271.0</ele><time>2026-05-03T14:46:29Z</time></trkpt><trkpt lat="43.26492816359401" lon="11.715558859123302"><ele>271.0</ele><time>2026-05-03T14:46:30Z</time></trkpt><trkpt lat="43.26479599827471" lon="11.715411894808256"><ele>271.0</ele><time>2026-05-03T14:46:31Z</time></trkpt><trkpt lat="43.264663682795955" lon="11.715261291228437"><ele>271.0</ele><time>2026-05-03T14:46:32Z</time></trkpt><trkpt lat="43.26453081667648" lon="11.71511167331195"><ele>270.66666666666663</ele><time>2026-05-03T14:46:33Z</time></trkpt><trkpt lat="43.26439661649987" lon="11.714962511730809"><ele>270.3333333333333</ele><time>2026-05-03T14:46:34Z</time></trkpt><trkpt lat="43.26426253931657" lon="11.71481711418468"><ele>270.0</ele><time>2026-05-03T14:46:35Z</time></trkpt><trkpt lat="43.26412146969977" lon="11.71467891509113"><ele>270.0</ele><time>2026-05-03T14:46:36Z</time></trkpt><trkpt lat="43.26397359900258" lon="11.71455956358339"><ele>270.0</ele><time>2026-05-03T14:46:37Z</time></trkpt><trkpt lat="43.26381477678674" lon="11.714454252573631"><ele>270.0</ele><time>2026-05-03T14:46:38Z</time></trkpt><trkpt lat="43.263652873369956" lon="11.714355635561033"><ele>269.3333333333333</ele><time>2026-05-03T14:46:39Z</time></trkpt><trkpt lat="43.263488335974024" lon="11.714260195636573"><ele>268.66666666666663</ele><time>2026-05-03T14:46:40Z</time></trkpt><trkpt lat="43.26332459196602" lon="11.714166473520276"><ele>268.0</ele><time>2026-05-03T14:46:41Z</time></trkpt><trkpt lat="43.26316489420366" lon="11.714078919245106"><ele>268.0</ele><time>2026-05-03T14:46:42Z</time></trkpt><trkpt lat="43.26300317246843" lon="11.713989490844051"><ele>268.0</ele><time>2026-05-03T14:46:43Z</time></trkpt><trkpt lat="43.26284843443481" lon="11.713902454008652"><ele>268.0</ele><time>2026-05-03T14:46:44Z</time></trkpt><trkpt lat="43.262694388067324" lon="11.713815605715771"><ele>268.0</ele><time>2026-05-03T14:46:45Z</time></trkpt><trkpt lat="43.26254205280307" lon="11.713728815517022"><ele>268.0</ele><time>2026-05-03T14:46:46Z</time></trkpt><trkpt lat="43.26239345116266" lon="11.713643408788274"><ele>268.0</ele><time>2026-05-03T14:46:47Z</time></trkpt><trkpt lat="43.26224484439668" lon="11.71355965463377"><ele>267.66666666666663</ele><time>2026-05-03T14:46:48Z</time></trkpt><trkpt lat="43.262097010521046" lon="11.713474765823808"><ele>267.3333333333333</ele><time>2026-05-03T14:46:49Z</time></trkpt><trkpt lat="43.26195011167989" lon="11.713388943087928"><ele>267.0</ele><time>2026-05-03T14:46:50Z</time></trkpt><trkpt lat="43.26180452270424" lon="11.713305348112122"><ele>267.0</ele><time>2026-05-03T14:46:51Z</time></trkpt><trkpt lat="43.26165622068532" lon="11.713224620149226"><ele>267.0</ele><time>2026-05-03T14:46:52Z</time></trkpt><trkpt lat="43.261504944437405" lon="11.713142135516867"><ele>267.0</ele><time>2026-05-03T14:46:53Z</time></trkpt><trkpt lat="43.261354190958734" lon="11.713059593815164"><ele>266.6666666666667</ele><time>2026-05-03T14:46:54Z</time></trkpt><trkpt lat="43.26120395705143" lon="11.712972694980001"><ele>266.33333333333337</ele><time>2026-05-03T14:46:55Z</time></trkpt><trkpt lat="43.26105016416569" lon="11.712887047502647"><ele>266.0</ele><time>2026-05-03T14:46:56Z</time></trkpt><trkpt lat="43.26089559887319" lon="11.712792733328872"><ele>266.33333333333337</ele><time>2026-05-03T14:46:57Z</time></trkpt><trkpt lat="43.26074000965421" lon="11.712691644120941"><ele>266.6666666666667</ele><time>2026-05-03T14:46:58Z</time></trkpt><trkpt lat="43.2605898608631" lon="11.712574568321532"><ele>267.0</ele><time>2026-05-03T14:46:59Z</time></trkpt><trkpt lat="43.26044634323373" lon="11.712444211395622"><ele>267.3333333333333</ele><time>2026-05-03T14:47:00Z</time></trkpt><trkpt lat="43.26030297521641" lon="11.712303469234996"><ele>267.66666666666663</ele><time>2026-05-03T14:47:01Z</time></trkpt><trkpt lat="43.260165946399354" lon="11.71215288363743"><ele>268.0</ele><time>2026-05-03T14:47:02Z</time></trkpt><trkpt lat="43.2600337692626" lon="11.711986938412736"><ele>268.0</ele><time>2026-05-03T14:47:03Z</time></trkpt><trkpt lat="43.25989620497321" lon="11.711814972856375"><ele>268.0</ele><time>2026-05-03T14:47:04Z</time></trkpt><trkpt lat="43.25975859080059" lon="11.71164208262916"><ele>268.0</ele><time>2026-05-03T14:47:05Z</time></trkpt><trkpt lat="43.25962215934564" lon="11.711472899067028"><ele>268.0</ele><time>2026-05-03T14:47:06Z</time></trkpt><trkpt lat="43.25948580429789" lon="11.711300347374372"><ele>268.0</ele><time>2026-05-03T14:47:07Z</time></trkpt><trkpt lat="43.25934893741972" lon="11.711129878951978"><ele>268.0</ele><time>2026-05-03T14:47:08Z</time></trkpt><trkpt lat="43.25921424916884" lon="11.710961966755317"><ele>268.0</ele><time>2026-05-03T14:47:09Z</time></trkpt><trkpt lat="43.25908179272046" lon="11.71079184611109"><ele>268.0</ele><time>2026-05-03T14:47:10Z</time></trkpt><trkpt lat="43.25895188005461" lon="11.710623857409644"><ele>268.0</ele><time>2026-05-03T14:47:11Z</time></trkpt><trkpt lat="43.258818370466585" lon="11.710457239320837"><ele>268.0</ele><time>2026-05-03T14:47:12Z</time></trkpt><trkpt lat="43.25868483804372" lon="11.710295496716526"><ele>268.0</ele><time>2026-05-03T14:47:13Z</time></trkpt><trkpt lat="43.258551893153474" lon="11.710135659654277"><ele>268.0</ele><time>2026-05-03T14:47:14Z</time></trkpt><trkpt lat="43.25842205720764" lon="11.7099748560336"><ele>268.0</ele><time>2026-05-03T14:47:15Z</time></trkpt><trkpt lat="43.258289987788906" lon="11.709821893074901"><ele>268.0</ele><time>2026-05-03T14:47:16Z</time></trkpt><trkpt lat="43.258158647259606" lon="11.709667690117925"><ele>268.0</ele><time>2026-05-03T14:47:17Z</time></trkpt><trkpt lat="43.25802687171905" lon="11.709515756459131"><ele>269.0</ele><time>2026-05-03T14:47:18Z</time></trkpt><trkpt lat="43.257902206183516" lon="11.709365488979982"><ele>270.0</ele><time>2026-05-03T14:47:19Z</time></trkpt><trkpt lat="43.2577782375919" lon="11.709203381769548"><ele>271.0</ele><time>2026-05-03T14:47:20Z</time></trkpt><trkpt lat="43.25765522705144" lon="11.70904444769493"><ele>271.0</ele><time>2026-05-03T14:47:21Z</time></trkpt><trkpt lat="43.25753185719975" lon="11.708892377314271"><ele>271.0</ele><time>2026-05-03T14:47:22Z</time></trkpt><trkpt lat="43.257413562826116" lon="11.708757280476167"><ele>271.0</ele><time>2026-05-03T14:47:23Z</time></trkpt><trkpt lat="43.25729833058822" lon="11.70863260225736"><ele>271.5</ele><time>2026-05-03T14:47:24Z</time></trkpt><trkpt lat="43.257191675397394" lon="11.708516389396548"><ele>272.0</ele><time>2026-05-03T14:47:25Z</time></trkpt><trkpt lat="43.25709662258397" lon="11.708392490351924"><ele>272.5</ele><time>2026-05-03T14:47:26Z</time></trkpt><trkpt lat="43.25702043475073" lon="11.70825151441888"><ele>273.0</ele><time>2026-05-03T14:47:27Z</time></trkpt><trkpt lat="43.25696561737504" lon="11.708091385150702"><ele>273.0</ele><time>2026-05-03T14:47:28Z</time></trkpt><trkpt lat="43.25694111618065" lon="11.707912052383112"><ele>273.0</ele><time>2026-05-03T14:47:29Z</time></trkpt><trkpt lat="43.256943096331256" lon="11.707726609825592"><ele>273.0</ele><time>2026-05-03T14:47:30Z</time></trkpt><trkpt lat="43.256964259391594" lon="11.707532369385644"><ele>273.0</ele><time>2026-05-03T14:47:31Z</time></trkpt><trkpt lat="43.256982494338345" lon="11.707343111276165"><ele>273.0</ele><time>2026-05-03T14:47:32Z</time></trkpt><trkpt lat="43.25699613396333" lon="11.707170798568239"><ele>273.0</ele><time>2026-05-03T14:47:33Z</time></trkpt><trkpt lat="43.257007609893115" lon="11.70701510709926"><ele>273.0</ele><time>2026-05-03T14:47:34Z</time></trkpt><trkpt lat="43.2570230431378" lon="11.706873118885383"><ele>273.0</ele><time>2026-05-03T14:47:35Z</time></trkpt><trkpt lat="43.25704858829017" lon="11.706633252221113"><ele>273.0</ele><time>2026-05-03T14:47:37Z</time></trkpt><trkpt lat="43.25705935631058" lon="11.70652231193296"><ele>273.0</ele><time>2026-05-03T14:47:38Z</time></trkpt><trkpt lat="43.25706814948962" lon="11.706410279398535"><ele>273.0</ele><time>2026-05-03T14:47:39Z</time></trkpt><trkpt lat="43.257077026723394" lon="11.706294319089825"><ele>273.0</ele><time>2026-05-03T14:47:40Z</time></trkpt><trkpt lat="43.25708663094016" lon="11.706183133445158"><ele>273.0</ele><time>2026-05-03T14:47:41Z</time></trkpt><trkpt lat="43.25709400006987" lon="11.706086155298905"><ele>273.0</ele><time>2026-05-03T14:47:42Z</time></trkpt><trkpt lat="43.25710025591921" lon="11.70598934830113"><ele>273.1666666666667</ele><time>2026-05-03T14:47:43Z</time></trkpt><trkpt lat="43.257105416231525" lon="11.705891566991747"><ele>273.3333333333333</ele><time>2026-05-03T14:47:44Z</time></trkpt><trkpt lat="43.25710379877003" lon="11.70580117923912"><ele>273.5</ele><time>2026-05-03T14:47:45Z</time></trkpt><trkpt lat="43.257102813990905" lon="11.705644439671978"><ele>273.66666666666663</ele><time>2026-05-03T14:47:47Z</time></trkpt><trkpt lat="43.25713081121356" lon="11.705482705988487"><ele>273.8333333333333</ele><time>2026-05-03T14:47:49Z</time></trkpt><trkpt lat="43.25714805225422" lon="11.705380942852605"><ele>274.0</ele><time>2026-05-03T14:47:50Z</time></trkpt><trkpt lat="43.257155705933094" lon="11.705271548339844"><ele>274.0</ele><time>2026-05-03T14:47:51Z</time></trkpt><trkpt lat="43.25715720398334" lon="11.705160299417164"><ele>274.0</ele><time>2026-05-03T14:47:52Z</time></trkpt><trkpt lat="43.25715805548574" lon="11.705041568970994"><ele>274.0</ele><time>2026-05-03T14:47:53Z</time></trkpt><trkpt lat="43.2571543419107" lon="11.704920680610446"><ele>274.0</ele><time>2026-05-03T14:47:54Z</time></trkpt><trkpt lat="43.257151610896855" lon="11.704800057667748"><ele>274.0</ele><time>2026-05-03T14:47:55Z</time></trkpt><trkpt lat="43.25715040571414" lon="11.704677134007596"><ele>274.0</ele><time>2026-05-03T14:47:56Z</time></trkpt><trkpt lat="43.257152882697234" lon="11.70454626443391"><ele>274.2</ele><time>2026-05-03T14:47:57Z</time></trkpt><trkpt lat="43.257151602009685" lon="11.704405073046177"><ele>274.4</ele><time>2026-05-03T14:47:58Z</time></trkpt><trkpt lat="43.257149126293804" lon="11.704251812193522"><ele>274.6</ele><time>2026-05-03T14:47:59Z</time></trkpt><trkpt lat="43.25715017453402" lon="11.704089482106632"><ele>274.8</ele><time>2026-05-03T14:48:00Z</time></trkpt><trkpt lat="43.25714804104118" lon="11.703935402978567"><ele>275.0</ele><time>2026-05-03T14:48:01Z</time></trkpt><trkpt lat="43.25714733272705" lon="11.703777105172323"><ele>275.0</ele><time>2026-05-03T14:48:02Z</time></trkpt><trkpt lat="43.257144981274855" lon="11.70360929808125"><ele>275.0</ele><time>2026-05-03T14:48:03Z</time></trkpt><trkpt lat="43.257139625764964" lon="11.703433994999676"><ele>275.0</ele><time>2026-05-03T14:48:04Z</time></trkpt><trkpt lat="43.257140521707726" lon="11.703250737207389"><ele>275.0</ele><time>2026-05-03T14:48:05Z</time></trkpt><trkpt lat="43.2571507699757" lon="11.703046818783966"><ele>275.0</ele><time>2026-05-03T14:48:06Z</time></trkpt><trkpt lat="43.25715314946863" lon="11.702835801659317"><ele>275.0</ele><time>2026-05-03T14:48:07Z</time></trkpt><trkpt lat="43.25715557278215" lon="11.702615141428284"><ele>275.0</ele><time>2026-05-03T14:48:08Z</time></trkpt><trkpt lat="43.25715958429999" lon="11.702398840507525"><ele>275.0</ele><time>2026-05-03T14:48:09Z</time></trkpt><trkpt lat="43.25716857448712" lon="11.702174047030537"><ele>275.0</ele><time>2026-05-03T14:48:10Z</time></trkpt><trkpt lat="43.2571786424063" lon="11.701946275125533"><ele>275.0</ele><time>2026-05-03T14:48:11Z</time></trkpt><trkpt lat="43.257187726782995" lon="11.70171653661181"><ele>275.33333333333337</ele><time>2026-05-03T14:48:12Z</time></trkpt><trkpt lat="43.25719982327962" lon="11.701485527391375"><ele>275.6666666666667</ele><time>2026-05-03T14:48:13Z</time></trkpt><trkpt lat="43.25721385526633" lon="11.701255938721843"><ele>276.0</ele><time>2026-05-03T14:48:14Z</time></trkpt><trkpt lat="43.25722658447515" lon="11.701022593590057"><ele>275.3333333333333</ele><time>2026-05-03T14:48:15Z</time></trkpt><trkpt lat="43.25723857944814" lon="11.700782762988908"><ele>274.66666666666663</ele><time>2026-05-03T14:48:16Z</time></trkpt><trkpt lat="43.25725118417891" lon="11.7005397731317"><ele>274.0</ele><time>2026-05-03T14:48:17Z</time></trkpt><trkpt lat="43.25726416217129" lon="11.700292687850332"><ele>274.3333333333333</ele><time>2026-05-03T14:48:18Z</time></trkpt><trkpt lat="43.25727809359957" lon="11.70004546320023"><ele>274.6666666666667</ele><time>2026-05-03T14:48:19Z</time></trkpt><trkpt lat="43.25729414359057" lon="11.699798881115735"><ele>275.0</ele><time>2026-05-03T14:48:20Z</time></trkpt><trkpt lat="43.25731012311001" lon="11.6995546581655"><ele>279.0</ele><time>2026-05-03T14:48:21Z</time></trkpt><trkpt lat="43.257326005422556" lon="11.699307648909405"><ele>283.0</ele><time>2026-05-03T14:48:22Z</time></trkpt><trkpt lat="43.25733915364319" lon="11.699065418679282"><ele>287.0</ele><time>2026-05-03T14:48:23Z</time></trkpt><trkpt lat="43.25734276149655" lon="11.698816052754589"><ele>285.6666666666667</ele><time>2026-05-03T14:48:24Z</time></trkpt><trkpt lat="43.25734130445851" lon="11.698564953278298"><ele>284.3333333333333</ele><time>2026-05-03T14:48:25Z</time></trkpt><trkpt lat="43.25733010330676" lon="11.698288471500312"><ele>283.0</ele><time>2026-05-03T14:48:26Z</time></trkpt><trkpt lat="43.25732191639853" lon="11.698000433741264"><ele>283.3333333333333</ele><time>2026-05-03T14:48:27Z</time></trkpt><trkpt lat="43.25731465424231" lon="11.697722541103914"><ele>283.6666666666667</ele><time>2026-05-03T14:48:28Z</time></trkpt><trkpt lat="43.25731009322957" lon="11.697442211606807"><ele>284.0</ele><time>2026-05-03T14:48:29Z</time></trkpt><trkpt lat="43.257305471716236" lon="11.697165088489228"><ele>286.33333333333337</ele><time>2026-05-03T14:48:30Z</time></trkpt><trkpt lat="43.25730320290252" lon="11.696888915352684"><ele>288.6666666666667</ele><time>2026-05-03T14:48:31Z</time></trkpt><trkpt lat="43.25730036879128" lon="11.6966203505207"><ele>291.0</ele><time>2026-05-03T14:48:32Z</time></trkpt><trkpt lat="43.257306348723674" lon="11.696349995383871"><ele>291.0</ele><time>2026-05-03T14:48:33Z</time></trkpt><trkpt lat="43.25731394677901" lon="11.69608718980745"><ele>291.0</ele><time>2026-05-03T14:48:34Z</time></trkpt><trkpt lat="43.25732059177404" lon="11.695846073463864"><ele>291.0</ele><time>2026-05-03T14:48:35Z</time></trkpt><trkpt lat="43.25732454461874" lon="11.695615029014746"><ele>291.3333333333333</ele><time>2026-05-03T14:48:36Z</time></trkpt><trkpt lat="43.25733113515078" lon="11.69538288429381"><ele>291.66666666666663</ele><time>2026-05-03T14:48:37Z</time></trkpt><trkpt lat="43.257339143804316" lon="11.695151167469366"><ele>292.0</ele><time>2026-05-03T14:48:38Z</time></trkpt><trkpt lat="43.25734702056762" lon="11.694919036715957"><ele>292.0</ele><time>2026-05-03T14:48:39Z</time></trkpt><trkpt lat="43.257357732024644" lon="11.694686719242393"><ele>292.0</ele><time>2026-05-03T14:48:40Z</time></trkpt><trkpt lat="43.25737687740252" lon="11.694457367052658"><ele>292.0</ele><time>2026-05-03T14:48:41Z</time></trkpt><trkpt lat="43.257391727664256" lon="11.694228520682204"><ele>289.66666666666663</ele><time>2026-05-03T14:48:42Z</time></trkpt><trkpt lat="43.257410272818284" lon="11.69400366350618"><ele>287.3333333333333</ele><time>2026-05-03T14:48:43Z</time></trkpt><trkpt lat="43.25743409481128" lon="11.693795156706745"><ele>285.0</ele><time>2026-05-03T14:48:44Z</time></trkpt><trkpt lat="43.257464750719585" lon="11.693582153310281"><ele>284.3333333333333</ele><time>2026-05-03T14:48:45Z</time></trkpt><trkpt lat="43.257507311374525" lon="11.693366709536624"><ele>283.66666666666663</ele><time>2026-05-03T14:48:46Z</time></trkpt><trkpt lat="43.257556338035926" lon="11.693146041881672"><ele>283.0</ele><time>2026-05-03T14:48:47Z</time></trkpt><trkpt lat="43.25761375847939" lon="11.692919274672898"><ele>283.3333333333333</ele><time>2026-05-03T14:48:48Z</time></trkpt><trkpt lat="43.25766816357843" lon="11.692690115929137"><ele>283.6666666666667</ele><time>2026-05-03T14:48:49Z</time></trkpt><trkpt lat="43.25772142743425" lon="11.692467632207668"><ele>284.0</ele><time>2026-05-03T14:48:50Z</time></trkpt><trkpt lat="43.25777089395002" lon="11.692250952344876"><ele>284.0</ele><time>2026-05-03T14:48:51Z</time></trkpt><trkpt lat="43.25782630972598" lon="11.692049780784153"><ele>284.0</ele><time>2026-05-03T14:48:52Z</time></trkpt><trkpt lat="43.25788652944512" lon="11.691869259537915"><ele>284.0</ele><time>2026-05-03T14:48:53Z</time></trkpt><trkpt lat="43.25794991422844" lon="11.691691951120907"><ele>284.0</ele><time>2026-05-03T14:48:54Z</time></trkpt><trkpt lat="43.258003759142426" lon="11.691514098147744"><ele>283.0</ele><time>2026-05-03T14:48:55Z</time></trkpt><trkpt lat="43.25804098135083" lon="11.691323676531214"><ele>282.0</ele><time>2026-05-03T14:48:56Z</time></trkpt><trkpt lat="43.25805463188486" lon="11.691117612017221"><ele>281.0</ele><time>2026-05-03T14:48:57Z</time></trkpt><trkpt lat="43.25805558113398" lon="11.690897513621437"><ele>280.33333333333337</ele><time>2026-05-03T14:48:58Z</time></trkpt><trkpt lat="43.258067112388545" lon="11.690660946915246"><ele>279.6666666666667</ele><time>2026-05-03T14:48:59Z</time></trkpt><trkpt lat="43.25808338394964" lon="11.69041450375418"><ele>279.0</ele><time>2026-05-03T14:49:00Z</time></trkpt><trkpt lat="43.258095533708946" lon="11.69018070879181"><ele>279.0</ele><time>2026-05-03T14:49:01Z</time></trkpt><trkpt lat="43.25810290088328" lon="11.689964395785994"><ele>279.0</ele><time>2026-05-03T14:49:02Z</time></trkpt><trkpt lat="43.25809996851993" lon="11.689766877932184"><ele>279.0</ele><time>2026-05-03T14:49:03Z</time></trkpt><trkpt lat="43.258079327108774" lon="11.6895872566448"><ele>279.0</ele><time>2026-05-03T14:49:04Z</time></trkpt><trkpt lat="43.25803301274957" lon="11.689426420498153"><ele>279.75</ele><time>2026-05-03T14:49:05Z</time></trkpt><trkpt lat="43.25796737569736" lon="11.689281580044357"><ele>280.5</ele><time>2026-05-03T14:49:06Z</time></trkpt><trkpt lat="43.257879393452775" lon="11.689155067778435"><ele>281.25</ele><time>2026-05-03T14:49:07Z</time></trkpt><trkpt lat="43.25777689657564" lon="11.689040503011743"><ele>282.0</ele><time>2026-05-03T14:49:08Z</time></trkpt><trkpt lat="43.25767569962947" lon="11.688940458456877"><ele>282.0</ele><time>2026-05-03T14:49:09Z</time></trkpt><trkpt lat="43.257577721718405" lon="11.688844510563984"><ele>282.0</ele><time>2026-05-03T14:49:10Z</time></trkpt><trkpt lat="43.257483177803294" lon="11.68875350851297"><ele>282.0</ele><time>2026-05-03T14:49:11Z</time></trkpt><trkpt lat="43.25739098662454" lon="11.68867453469315"><ele>282.0</ele><time>2026-05-03T14:49:12Z</time></trkpt><trkpt lat="43.257298240480914" lon="11.688613179105362"><ele>282.0</ele><time>2026-05-03T14:49:13Z</time></trkpt><trkpt lat="43.25720732784104" lon="11.688574817117166"><ele>281.6666666666667</ele><time>2026-05-03T14:49:14Z</time></trkpt><trkpt lat="43.25712461077404" lon="11.68854557157978"><ele>281.3333333333333</ele><time>2026-05-03T14:49:15Z</time></trkpt><trkpt lat="43.257055622685016" lon="11.688517118082402"><ele>281.0</ele><time>2026-05-03T14:49:16Z</time></trkpt><trkpt lat="43.25700109964212" lon="11.688465526827144"><ele>280.66666666666663</ele><time>2026-05-03T14:49:17Z</time></trkpt><trkpt lat="43.25696434460178" lon="11.688375531258284"><ele>280.3333333333333</ele><time>2026-05-03T14:49:18Z</time></trkpt><trkpt lat="43.256934931884096" lon="11.688259042030788"><ele>280.0</ele><time>2026-05-03T14:49:19Z</time></trkpt><trkpt lat="43.25690472603085" lon="11.688113674818114"><ele>280.0</ele><time>2026-05-03T14:49:20Z</time></trkpt><trkpt lat="43.25686072242206" lon="11.68795492322187"><ele>280.0</ele><time>2026-05-03T14:49:21Z</time></trkpt><trkpt lat="43.256799197240895" lon="11.687792920186382"><ele>280.0</ele><time>2026-05-03T14:49:22Z</time></trkpt><trkpt lat="43.25671756468565" lon="11.687650875021527"><ele>280.0</ele><time>2026-05-03T14:49:23Z</time></trkpt><trkpt lat="43.25664461743649" lon="11.687495931361724"><ele>280.0</ele><time>2026-05-03T14:49:24Z</time></trkpt><trkpt lat="43.25655193147826" lon="11.687348619608224"><ele>280.0</ele><time>2026-05-03T14:49:25Z</time></trkpt><trkpt lat="43.25643069015667" lon="11.687226665207792"><ele>280.0</ele><time>2026-05-03T14:49:26Z</time></trkpt><trkpt lat="43.256306006225294" lon="11.68709445848492"><ele>280.0</ele><time>2026-05-03T14:49:27Z</time></trkpt><trkpt lat="43.25618022819618" lon="11.686958627250947"><ele>280.0</ele><time>2026-05-03T14:49:28Z</time></trkpt><trkpt lat="43.25606143609818" lon="11.68683065515395"><ele>280.0</ele><time>2026-05-03T14:49:29Z</time></trkpt><trkpt lat="43.25593728059321" lon="11.686699137906139"><ele>280.5</ele><time>2026-05-03T14:49:30Z</time></trkpt><trkpt lat="43.25581155773002" lon="11.686583812283999"><ele>281.0</ele><time>2026-05-03T14:49:31Z</time></trkpt><trkpt lat="43.25571571135659" lon="11.686448937392326"><ele>281.5</ele><time>2026-05-03T14:49:32Z</time></trkpt><trkpt lat="43.25562390967952" lon="11.686314145001466"><ele>282.0</ele><time>2026-05-03T14:49:33Z</time></trkpt><trkpt lat="43.255526165623685" lon="11.686165867973264"><ele>282.0</ele><time>2026-05-03T14:49:34Z</time></trkpt><trkpt lat="43.255440023129076" lon="11.686006387132116"><ele>282.0</ele><time>2026-05-03T14:49:35Z</time></trkpt><trkpt lat="43.255359321701306" lon="11.68582915216441"><ele>282.0</ele><time>2026-05-03T14:49:36Z</time></trkpt><trkpt lat="43.25526558172247" lon="11.685624927749695"><ele>282.0</ele><time>2026-05-03T14:49:37Z</time></trkpt><trkpt lat="43.25517919702476" lon="11.68542648290543"><ele>282.0</ele><time>2026-05-03T14:49:38Z</time></trkpt><trkpt lat="43.2551026828363" lon="11.68522631082893"><ele>282.0</ele><time>2026-05-03T14:49:39Z</time></trkpt><trkpt lat="43.255019425988465" lon="11.685025006363043"><ele>281.3333333333333</ele><time>2026-05-03T14:49:40Z</time></trkpt><trkpt lat="43.25492772737919" lon="11.684836170388936"><ele>280.66666666666663</ele><time>2026-05-03T14:49:41Z</time></trkpt><trkpt lat="43.25482594782053" lon="11.684650194554667"><ele>280.0</ele><time>2026-05-03T14:49:42Z</time></trkpt><trkpt lat="43.254713523310365" lon="11.684468310237191"><ele>282.0</ele><time>2026-05-03T14:49:43Z</time></trkpt><trkpt lat="43.2545988398394" lon="11.684294447181685"><ele>284.0</ele><time>2026-05-03T14:49:44Z</time></trkpt><trkpt lat="43.254481218791675" lon="11.684123330498648"><ele>286.0</ele><time>2026-05-03T14:49:45Z</time></trkpt><trkpt lat="43.254371117124315" lon="11.683943611804132"><ele>286.0</ele><time>2026-05-03T14:49:46Z</time></trkpt><trkpt lat="43.25426387063506" lon="11.683757675585694"><ele>286.0</ele><time>2026-05-03T14:49:47Z</time></trkpt><trkpt lat="43.25416260218181" lon="11.683570660962092"><ele>286.0</ele><time>2026-05-03T14:49:48Z</time></trkpt><trkpt lat="43.2540632330924" lon="11.683379914201558"><ele>284.66666666666663</ele><time>2026-05-03T14:49:49Z</time></trkpt><trkpt lat="43.253959052967666" lon="11.68319328475695"><ele>283.3333333333333</ele><time>2026-05-03T14:49:50Z</time></trkpt><trkpt lat="43.253864303783445" lon="11.683021958867924"><ele>282.0</ele><time>2026-05-03T14:49:51Z</time></trkpt><trkpt lat="43.25377376713629" lon="11.682849444128703"><ele>283.3333333333333</ele><time>2026-05-03T14:49:52Z</time></trkpt><trkpt lat="43.25369290436807" lon="11.682673448379008"><ele>284.66666666666663</ele><time>2026-05-03T14:49:53Z</time></trkpt><trkpt lat="43.25361792487182" lon="11.682494126655962"><ele>286.0</ele><time>2026-05-03T14:49:54Z</time></trkpt><trkpt lat="43.25355118538254" lon="11.68230803740059"><ele>286.0</ele><time>2026-05-03T14:49:55Z</time></trkpt><trkpt lat="43.25349359741052" lon="11.682126105950783"><ele>286.0</ele><time>2026-05-03T14:49:56Z</time></trkpt><trkpt lat="43.25344218110435" lon="11.68193504886716"><ele>286.0</ele><time>2026-05-03T14:49:57Z</time></trkpt><trkpt lat="43.25339258635399" lon="11.681748437294521"><ele>286.0</ele><time>2026-05-03T14:49:58Z</time></trkpt><trkpt lat="43.25335806334445" lon="11.681557417777906"><ele>287.25</ele><time>2026-05-03T14:49:59Z</time></trkpt><trkpt lat="43.25333623940174" lon="11.681362433545136"><ele>288.5</ele><time>2026-05-03T14:50:00Z</time></trkpt><trkpt lat="43.2533190462583" lon="11.681168908405667"><ele>289.75</ele><time>2026-05-03T14:50:01Z</time></trkpt><trkpt lat="43.25331317120506" lon="11.68096937958895"><ele>291.0</ele><time>2026-05-03T14:50:02Z</time></trkpt><trkpt lat="43.25330422219267" lon="11.680754360747768"><ele>291.25</ele><time>2026-05-03T14:50:03Z</time></trkpt><trkpt lat="43.25330719162028" lon="11.680547492761761"><ele>291.5</ele><time>2026-05-03T14:50:04Z</time></trkpt><trkpt lat="43.25331604924912" lon="11.680342917700047"><ele>291.75</ele><time>2026-05-03T14:50:05Z</time></trkpt><trkpt lat="43.253332929588176" lon="11.680150345513212"><ele>292.0</ele><time>2026-05-03T14:50:06Z</time></trkpt><trkpt lat="43.25336764029627" lon="11.679965988011283"><ele>290.5</ele><time>2026-05-03T14:50:07Z</time></trkpt><trkpt lat="43.25340497726518" lon="11.679795137479461"><ele>289.0</ele><time>2026-05-03T14:50:08Z</time></trkpt><trkpt lat="43.253430750293084" lon="11.679602379311671"><ele>287.5</ele><time>2026-05-03T14:50:09Z</time></trkpt><trkpt lat="43.25346836593632" lon="11.679429817021024"><ele>286.0</ele><time>2026-05-03T14:50:10Z</time></trkpt><trkpt lat="43.25350225653098" lon="11.679271595881696"><ele>285.8</ele><time>2026-05-03T14:50:11Z</time></trkpt><trkpt lat="43.25352871084461" lon="11.679126059018758"><ele>285.6</ele><time>2026-05-03T14:50:12Z</time></trkpt><trkpt lat="43.2535497789811" lon="11.678981819971813"><ele>285.4</ele><time>2026-05-03T14:50:13Z</time></trkpt><trkpt lat="43.25356414460373" lon="11.678851454002618"><ele>285.2</ele><time>2026-05-03T14:50:14Z</time></trkpt><trkpt lat="43.253584886666395" lon="11.678730678026712"><ele>285.0</ele><time>2026-05-03T14:50:15Z</time></trkpt><trkpt lat="43.25359349125069" lon="11.67861772874717"><ele>285.0</ele><time>2026-05-03T14:50:16Z</time></trkpt><trkpt lat="43.25360172522778" lon="11.678522667380097"><ele>285.0</ele><time>2026-05-03T14:50:17Z</time></trkpt><trkpt lat="43.25361053593908" lon="11.678393786172778"><ele>285.0</ele><time>2026-05-03T14:50:19Z</time></trkpt><trkpt lat="43.25361856370955" lon="11.678224612622882"><ele>285.0</ele><time>2026-05-03T14:52:09Z</time></trkpt><trkpt lat="43.253625525381715" lon="11.678121386237523"><ele>285.0</ele><time>2026-05-03T14:52:10Z</time></trkpt><trkpt lat="43.253636175223924" lon="11.67801210358921"><ele>285.0</ele><time>2026-05-03T14:52:11Z</time></trkpt><trkpt lat="43.25364647325841" lon="11.677899928224805"><ele>285.0</ele><time>2026-05-03T14:52:12Z</time></trkpt><trkpt lat="43.25365296590876" lon="11.67779934809973"><ele>285.0</ele><time>2026-05-03T14:52:13Z</time></trkpt><trkpt lat="43.25366293308321" lon="11.67769155407663"><ele>285.0</ele><time>2026-05-03T14:52:14Z</time></trkpt><trkpt lat="43.25367095742495" lon="11.677570426042497"><ele>285.0</ele><time>2026-05-03T14:52:15Z</time></trkpt><trkpt lat="43.253680052640554" lon="11.677446492355019"><ele>285.0</ele><time>2026-05-03T14:52:16Z</time></trkpt><trkpt lat="43.25368868099463" lon="11.677316150607306"><ele>285.0</ele><time>2026-05-03T14:52:17Z</time></trkpt><trkpt lat="43.25370468674875" lon="11.677176709928789"><ele>285.25</ele><time>2026-05-03T14:52:18Z</time></trkpt><trkpt lat="43.253708652570154" lon="11.677020056197671"><ele>285.5</ele><time>2026-05-03T14:52:19Z</time></trkpt><trkpt lat="43.25370104272376" lon="11.67685473516775"><ele>285.75</ele><time>2026-05-03T14:52:20Z</time></trkpt><trkpt lat="43.25368458733843" lon="11.67668801638753"><ele>286.0</ele><time>2026-05-03T14:52:21Z</time></trkpt><trkpt lat="43.253668278508655" lon="11.676523003328125"><ele>286.0</ele><time>2026-05-03T14:52:22Z</time></trkpt><trkpt lat="43.253634624365404" lon="11.676347979064897"><ele>286.0</ele><time>2026-05-03T14:52:23Z</time></trkpt><trkpt lat="43.25359260512136" lon="11.676150301930395"><ele>286.0</ele><time>2026-05-03T14:52:24Z</time></trkpt><trkpt lat="43.253547173926655" lon="11.675932888879148"><ele>286.0</ele><time>2026-05-03T14:52:25Z</time></trkpt><trkpt lat="43.25350376269399" lon="11.675715292219234"><ele>286.0</ele><time>2026-05-03T14:52:26Z</time></trkpt><trkpt lat="43.25344923887622" lon="11.67547670337471"><ele>286.0</ele><time>2026-05-03T14:52:27Z</time></trkpt><trkpt lat="43.25339789985781" lon="11.675236836909244"><ele>286.0</ele><time>2026-05-03T14:52:28Z</time></trkpt><trkpt lat="43.25334727005843" lon="11.674997274564683"><ele>286.0</ele><time>2026-05-03T14:52:29Z</time></trkpt><trkpt lat="43.253302611620974" lon="11.674772055308415"><ele>286.0</ele><time>2026-05-03T14:52:30Z</time></trkpt><trkpt lat="43.25326142889456" lon="11.674549451059749"><ele>286.0</ele><time>2026-05-03T14:52:31Z</time></trkpt><trkpt lat="43.25321669764954" lon="11.674323229179604"><ele>286.0</ele><time>2026-05-03T14:52:32Z</time></trkpt><trkpt lat="43.25316819565683" lon="11.674097708525283"><ele>286.0</ele><time>2026-05-03T14:52:33Z</time></trkpt><trkpt lat="43.25312094533707" lon="11.673873203988927"><ele>286.0</ele><time>2026-05-03T14:52:34Z</time></trkpt><trkpt lat="43.25307172956272" lon="11.673651119363205"><ele>284.66666666666663</ele><time>2026-05-03T14:52:35Z</time></trkpt><trkpt lat="43.253020538338546" lon="11.67343142489803"><ele>283.3333333333333</ele><time>2026-05-03T14:52:36Z</time></trkpt><trkpt lat="43.252977200536115" lon="11.673212339133839"><ele>282.0</ele><time>2026-05-03T14:52:37Z</time></trkpt><trkpt lat="43.25293604020239" lon="11.672992367869439"><ele>282.0</ele><time>2026-05-03T14:52:38Z</time></trkpt><trkpt lat="43.2528936238425" lon="11.672772720212258"><ele>282.0</ele><time>2026-05-03T14:52:39Z</time></trkpt><trkpt lat="43.252862639418275" lon="11.672549926583539"><ele>282.0</ele><time>2026-05-03T14:52:40Z</time></trkpt><trkpt lat="43.25279672686647" lon="11.67234522844048"><ele>282.0</ele><time>2026-05-03T14:52:41Z</time></trkpt><trkpt lat="43.25273655128838" lon="11.67213292075878"><ele>282.0</ele><time>2026-05-03T14:52:42Z</time></trkpt><trkpt lat="43.25267515460017" lon="11.671921975984695"><ele>282.0</ele><time>2026-05-03T14:52:43Z</time></trkpt><trkpt lat="43.25261183544196" lon="11.671711872473937"><ele>282.0</ele><time>2026-05-03T14:52:44Z</time></trkpt><trkpt lat="43.25254800782512" lon="11.671500094574144"><ele>282.0</ele><time>2026-05-03T14:52:45Z</time></trkpt><trkpt lat="43.252481497405846" lon="11.671285598044642"><ele>282.0</ele><time>2026-05-03T14:52:46Z</time></trkpt><trkpt lat="43.25241584297323" lon="11.671066026690875"><ele>282.3333333333333</ele><time>2026-05-03T14:52:47Z</time></trkpt><trkpt lat="43.252351190772714" lon="11.670853124881312"><ele>282.66666666666663</ele><time>2026-05-03T14:52:48Z</time></trkpt><trkpt lat="43.252283754323535" lon="11.67064207347496"><ele>283.0</ele><time>2026-05-03T14:52:49Z</time></trkpt><trkpt lat="43.25222116232132" lon="11.670431554851785"><ele>282.66666666666663</ele><time>2026-05-03T14:52:50Z</time></trkpt><trkpt lat="43.25215662579314" lon="11.670218524021939"><ele>282.3333333333333</ele><time>2026-05-03T14:52:51Z</time></trkpt><trkpt lat="43.252092563715074" lon="11.670002761491814"><ele>282.0</ele><time>2026-05-03T14:52:52Z</time></trkpt><trkpt lat="43.252027809956545" lon="11.669789952710264"><ele>282.0</ele><time>2026-05-03T14:52:53Z</time></trkpt><trkpt lat="43.25195955509565" lon="11.669571655519258"><ele>282.0</ele><time>2026-05-03T14:52:54Z</time></trkpt><trkpt lat="43.251890257906716" lon="11.669352424280296"><ele>282.0</ele><time>2026-05-03T14:52:55Z</time></trkpt><trkpt lat="43.25181338124034" lon="11.669127491934297"><ele>282.6666666666667</ele><time>2026-05-03T14:52:56Z</time></trkpt><trkpt lat="43.25173861810313" lon="11.668890651542734"><ele>283.33333333333337</ele><time>2026-05-03T14:52:57Z</time></trkpt><trkpt lat="43.25166586658117" lon="11.668649808515235"><ele>284.0</ele><time>2026-05-03T14:52:58Z</time></trkpt><trkpt lat="43.251594730530336" lon="11.668412617900524"><ele>284.33333333333337</ele><time>2026-05-03T14:52:59Z</time></trkpt><trkpt lat="43.251525172672494" lon="11.668173076465788"><ele>284.6666666666667</ele><time>2026-05-03T14:53:00Z</time></trkpt><trkpt lat="43.25145607449209" lon="11.667929893298151"><ele>285.0</ele><time>2026-05-03T14:53:01Z</time></trkpt><trkpt lat="43.251393529955934" lon="11.667683276372133"><ele>285.0</ele><time>2026-05-03T14:53:02Z</time></trkpt><trkpt lat="43.25133029983375" lon="11.6674317261308"><ele>285.0</ele><time>2026-05-03T14:53:03Z</time></trkpt><trkpt lat="43.25126337632024" lon="11.667179247067159"><ele>285.0</ele><time>2026-05-03T14:53:04Z</time></trkpt><trkpt lat="43.25119834552367" lon="11.666926007637601"><ele>285.3333333333333</ele><time>2026-05-03T14:53:05Z</time></trkpt><trkpt lat="43.25113155552332" lon="11.666666754238184"><ele>285.66666666666663</ele><time>2026-05-03T14:53:06Z</time></trkpt><trkpt lat="43.25107122443538" lon="11.666411103724865"><ele>286.0</ele><time>2026-05-03T14:53:07Z</time></trkpt><trkpt lat="43.25101279254159" lon="11.666158656219103"><ele>288.0</ele><time>2026-05-03T14:53:08Z</time></trkpt><trkpt lat="43.25095264207774" lon="11.665913781920157"><ele>290.0</ele><time>2026-05-03T14:53:09Z</time></trkpt><trkpt lat="43.25089096164266" lon="11.66566916024252"><ele>292.0</ele><time>2026-05-03T14:53:10Z</time></trkpt><trkpt lat="43.25082971507618" lon="11.665431651700706"><ele>293.0</ele><time>2026-05-03T14:53:11Z</time></trkpt><trkpt lat="43.25076723075458" lon="11.66519509574015"><ele>294.0</ele><time>2026-05-03T14:53:12Z</time></trkpt><trkpt lat="43.250708222551914" lon="11.664964448914654"><ele>295.0</ele><time>2026-05-03T14:53:13Z</time></trkpt><trkpt lat="43.25065370029171" lon="11.664734159759412"><ele>292.3333333333333</ele><time>2026-05-03T14:53:14Z</time></trkpt><trkpt lat="43.25060111562715" lon="11.664500525640937"><ele>289.6666666666667</ele><time>2026-05-03T14:53:15Z</time></trkpt><trkpt lat="43.25055944526718" lon="11.664263282924395"><ele>287.0</ele><time>2026-05-03T14:53:16Z</time></trkpt><trkpt lat="43.250526594190006" lon="11.664021216871419"><ele>287.0</ele><time>2026-05-03T14:53:17Z</time></trkpt><trkpt lat="43.250491917993585" lon="11.663773077699704"><ele>287.0</ele><time>2026-05-03T14:53:18Z</time></trkpt><trkpt lat="43.25045608737729" lon="11.663511819828111"><ele>287.0</ele><time>2026-05-03T14:53:19Z</time></trkpt><trkpt lat="43.25042665313442" lon="11.663256545318829"><ele>287.33333333333337</ele><time>2026-05-03T14:53:20Z</time></trkpt><trkpt lat="43.25039355155963" lon="11.662998162353356"><ele>287.6666666666667</ele><time>2026-05-03T14:53:21Z</time></trkpt><trkpt lat="43.25036171272614" lon="11.662744762680628"><ele>288.0</ele><time>2026-05-03T14:53:22Z</time></trkpt><trkpt lat="43.25038043828263" lon="11.66250550441178"><ele>288.6666666666667</ele><time>2026-05-03T14:53:23Z</time></trkpt><trkpt lat="43.25034969829297" lon="11.662281454138876"><ele>289.33333333333337</ele><time>2026-05-03T14:53:24Z</time></trkpt><trkpt lat="43.25031642476331" lon="11.662066700313902"><ele>290.0</ele><time>2026-05-03T14:53:25Z</time></trkpt><trkpt lat="43.250289630792295" lon="11.66186758914078"><ele>290.25</ele><time>2026-05-03T14:53:26Z</time></trkpt><trkpt lat="43.250256452657005" lon="11.661674708060579"><ele>290.5</ele><time>2026-05-03T14:53:27Z</time></trkpt><trkpt lat="43.2502706124511" lon="11.661479954000281"><ele>290.75</ele><time>2026-05-03T14:53:28Z</time></trkpt><trkpt lat="43.25028405909417" lon="11.661278220826766"><ele>291.0</ele><time>2026-05-03T14:53:29Z</time></trkpt><trkpt lat="43.250306194430955" lon="11.661076496572342"><ele>289.6666666666667</ele><time>2026-05-03T14:53:30Z</time></trkpt><trkpt lat="43.25029458758784" lon="11.660838477158629"><ele>288.33333333333337</ele><time>2026-05-03T14:53:31Z</time></trkpt><trkpt lat="43.250296151277496" lon="11.660604871760583"><ele>287.0</ele><time>2026-05-03T14:53:32Z</time></trkpt><trkpt lat="43.25030767450553" lon="11.660377901380706"><ele>286.33333333333337</ele><time>2026-05-03T14:53:33Z</time></trkpt><trkpt lat="43.25030828972963" lon="11.66015488341117"><ele>285.6666666666667</ele><time>2026-05-03T14:53:34Z</time></trkpt><trkpt lat="43.25030436136445" lon="11.659926064370778"><ele>285.0</ele><time>2026-05-03T14:53:35Z</time></trkpt><trkpt lat="43.25027832340462" lon="11.65969719965876"><ele>285.0</ele><time>2026-05-03T14:53:36Z</time></trkpt><trkpt lat="43.250222507179444" lon="11.659486332766743"><ele>285.0</ele><time>2026-05-03T14:53:37Z</time></trkpt><trkpt lat="43.250191486698554" lon="11.659268742801176"><ele>285.0</ele><time>2026-05-03T14:53:38Z</time></trkpt><trkpt lat="43.25013093307011" lon="11.659080680628234"><ele>285.0</ele><time>2026-05-03T14:53:39Z</time></trkpt><trkpt lat="43.25009579148464" lon="11.658897904422048"><ele>285.0</ele><time>2026-05-03T14:53:40Z</time></trkpt><trkpt lat="43.2500385578704" lon="11.658753177880572"><ele>285.0</ele><time>2026-05-03T14:53:41Z</time></trkpt><trkpt lat="43.24996953271668" lon="11.658632745788259"><ele>285.0</ele><time>2026-05-03T14:53:42Z</time></trkpt><trkpt lat="43.249881713077286" lon="11.658538780244363"><ele>286.25</ele><time>2026-05-03T14:53:43Z</time></trkpt><trkpt lat="43.249786928599846" lon="11.658461969205126"><ele>287.5</ele><time>2026-05-03T14:53:44Z</time></trkpt><trkpt lat="43.24968265905376" lon="11.658386489235898"><ele>288.75</ele><time>2026-05-03T14:53:45Z</time></trkpt><trkpt lat="43.249569840918596" lon="11.65829621501537"><ele>290.0</ele><time>2026-05-03T14:53:46Z</time></trkpt><trkpt lat="43.24946131747323" lon="11.658199695496844"><ele>290.0</ele><time>2026-05-03T14:53:47Z</time></trkpt><trkpt lat="43.24936368118712" lon="11.658093520364332"><ele>290.0</ele><time>2026-05-03T14:53:48Z</time></trkpt><trkpt lat="43.24928243911727" lon="11.657983534135667"><ele>290.0</ele><time>2026-05-03T14:53:49Z</time></trkpt><trkpt lat="43.249218055640114" lon="11.657851940795942"><ele>290.0</ele><time>2026-05-03T14:53:50Z</time></trkpt><trkpt lat="43.24918080502719" lon="11.657694787575355"><ele>291.0</ele><time>2026-05-03T14:53:51Z</time></trkpt><trkpt lat="43.24916398785373" lon="11.657521754170785"><ele>292.0</ele><time>2026-05-03T14:53:52Z</time></trkpt><trkpt lat="43.24915998402613" lon="11.657331765836883"><ele>293.0</ele><time>2026-05-03T14:53:53Z</time></trkpt><trkpt lat="43.24916039956278" lon="11.657125278636904"><ele>294.0</ele><time>2026-05-03T14:53:54Z</time></trkpt><trkpt lat="43.24916596767079" lon="11.656918925117793"><ele>294.5</ele><time>2026-05-03T14:53:55Z</time></trkpt><trkpt lat="43.24917551572337" lon="11.656714563726146"><ele>295.0</ele><time>2026-05-03T14:53:56Z</time></trkpt><trkpt lat="43.2491824226087" lon="11.656525507434432"><ele>295.5</ele><time>2026-05-03T14:53:57Z</time></trkpt><trkpt lat="43.2491837355835" lon="11.656343404155296"><ele>296.0</ele><time>2026-05-03T14:53:58Z</time></trkpt><trkpt lat="43.24917084100247" lon="11.656179698286442"><ele>295.25</ele><time>2026-05-03T14:53:59Z</time></trkpt><trkpt lat="43.24913800469987" lon="11.65601026560246"><ele>294.5</ele><time>2026-05-03T14:54:00Z</time></trkpt><trkpt lat="43.24909114771289" lon="11.655848073321838"><ele>293.75</ele><time>2026-05-03T14:54:01Z</time></trkpt><trkpt lat="43.24902939336266" lon="11.655685116534436"><ele>293.0</ele><time>2026-05-03T14:54:02Z</time></trkpt><trkpt lat="43.24897183970699" lon="11.655516442142051"><ele>291.5</ele><time>2026-05-03T14:54:03Z</time></trkpt><trkpt lat="43.24892006643904" lon="11.655342106061122"><ele>290.0</ele><time>2026-05-03T14:54:04Z</time></trkpt><trkpt lat="43.248870257231445" lon="11.655168128453337"><ele>288.5</ele><time>2026-05-03T14:54:05Z</time></trkpt><trkpt lat="43.24883090922201" lon="11.654989217968057"><ele>287.0</ele><time>2026-05-03T14:54:06Z</time></trkpt><trkpt lat="43.24879913695608" lon="11.654804637788141"><ele>287.0</ele><time>2026-05-03T14:54:07Z</time></trkpt><trkpt lat="43.248780221027125" lon="11.654606409051555"><ele>287.0</ele><time>2026-05-03T14:54:08Z</time></trkpt><trkpt lat="43.24877648634051" lon="11.654400783797993"><ele>287.0</ele><time>2026-05-03T14:54:09Z</time></trkpt><trkpt lat="43.24877616117499" lon="11.654184540604302"><ele>287.0</ele><time>2026-05-03T14:54:10Z</time></trkpt><trkpt lat="43.2487716961973" lon="11.653960097389968"><ele>287.0</ele><time>2026-05-03T14:54:11Z</time></trkpt><trkpt lat="43.24875585360349" lon="11.653741325771332"><ele>287.0</ele><time>2026-05-03T14:54:12Z</time></trkpt><trkpt lat="43.24872904972944" lon="11.653498815806575"><ele>286.6666666666667</ele><time>2026-05-03T14:54:13Z</time></trkpt><trkpt lat="43.24870077014975" lon="11.653242776675572"><ele>286.3333333333333</ele><time>2026-05-03T14:54:14Z</time></trkpt><trkpt lat="43.248676867424315" lon="11.652984912844666"><ele>286.0</ele><time>2026-05-03T14:54:15Z</time></trkpt><trkpt lat="43.248657425577406" lon="11.652725870328718"><ele>286.0</ele><time>2026-05-03T14:54:16Z</time></trkpt><trkpt lat="43.2486415207756" lon="11.652472715810092"><ele>286.0</ele><time>2026-05-03T14:54:17Z</time></trkpt><trkpt lat="43.24862465577561" lon="11.652223377258629"><ele>286.0</ele><time>2026-05-03T14:54:18Z</time></trkpt><trkpt lat="43.24860884714093" lon="11.651979849528248"><ele>286.3333333333333</ele><time>2026-05-03T14:54:19Z</time></trkpt><trkpt lat="43.248591142010675" lon="11.651739974889686"><ele>286.6666666666667</ele><time>2026-05-03T14:54:20Z</time></trkpt><trkpt lat="43.24857557845484" lon="11.651509659404754"><ele>287.0</ele><time>2026-05-03T14:54:21Z</time></trkpt><trkpt lat="43.248569149919" lon="11.651278713744993"><ele>287.0</ele><time>2026-05-03T14:54:22Z</time></trkpt><trkpt lat="43.24858171222411" lon="11.651051064023045"><ele>287.0</ele><time>2026-05-03T14:54:23Z</time></trkpt><trkpt lat="43.24860921779166" lon="11.650827086572006"><ele>287.0</ele><time>2026-05-03T14:54:24Z</time></trkpt><trkpt lat="43.24865698127828" lon="11.65060914471176"><ele>287.0</ele><time>2026-05-03T14:54:25Z</time></trkpt><trkpt lat="43.248708150652384" lon="11.650388568258474"><ele>287.0</ele><time>2026-05-03T14:54:26Z</time></trkpt><trkpt lat="43.248748178174154" lon="11.650164003688667"><ele>287.0</ele><time>2026-05-03T14:54:27Z</time></trkpt><trkpt lat="43.24879202338806" lon="11.649935519826183"><ele>287.33333333333337</ele><time>2026-05-03T14:54:28Z</time></trkpt><trkpt lat="43.24883364755367" lon="11.649707751743806"><ele>287.6666666666667</ele><time>2026-05-03T14:54:29Z</time></trkpt><trkpt lat="43.24887348486325" lon="11.649483403219124"><ele>288.0</ele><time>2026-05-03T14:54:30Z</time></trkpt><trkpt lat="43.248915779310515" lon="11.649254589830484"><ele>288.0</ele><time>2026-05-03T14:54:31Z</time></trkpt><trkpt lat="43.24895250198146" lon="11.649027489286361"><ele>288.0</ele><time>2026-05-03T14:54:32Z</time></trkpt><trkpt lat="43.24898712825541" lon="11.648804487569638"><ele>288.0</ele><time>2026-05-03T14:54:33Z</time></trkpt><trkpt lat="43.24902428874387" lon="11.64857971671132"><ele>288.6666666666667</ele><time>2026-05-03T14:54:34Z</time></trkpt><trkpt lat="43.249063531894116" lon="11.648356592583186"><ele>289.33333333333337</ele><time>2026-05-03T14:54:35Z</time></trkpt><trkpt lat="43.249100332072565" lon="11.648133869871172"><ele>290.0</ele><time>2026-05-03T14:54:36Z</time></trkpt><trkpt lat="43.24914016730152" lon="11.647913739003524"><ele>289.33333333333337</ele><time>2026-05-03T14:54:37Z</time></trkpt><trkpt lat="43.24917777853226" lon="11.647698471704352"><ele>288.6666666666667</ele><time>2026-05-03T14:54:38Z</time></trkpt><trkpt lat="43.2492102902152" lon="11.647493298169428"><ele>288.0</ele><time>2026-05-03T14:54:39Z</time></trkpt><trkpt lat="43.24924121821253" lon="11.647303159838575"><ele>288.0</ele><time>2026-05-03T14:54:40Z</time></trkpt><trkpt lat="43.24927298452218" lon="11.647126938921518"><ele>288.0</ele><time>2026-05-03T14:54:41Z</time></trkpt><trkpt lat="43.249300268355555" lon="11.646963445039571"><ele>288.0</ele><time>2026-05-03T14:54:42Z</time></trkpt><trkpt lat="43.249335213416025" lon="11.646812811966218"><ele>288.0</ele><time>2026-05-03T14:54:43Z</time></trkpt><trkpt lat="43.249352809513496" lon="11.646678275483625"><ele>288.0</ele><time>2026-05-03T14:54:44Z</time></trkpt><trkpt lat="43.24938209809153" lon="11.64654621770346"><ele>288.0</ele><time>2026-05-03T14:54:45Z</time></trkpt><trkpt lat="43.24938371743125" lon="11.646403252439724"><ele>288.0</ele><time>2026-05-03T14:54:46Z</time></trkpt><trkpt lat="43.24937190053501" lon="11.646264186604272"><ele>288.0</ele><time>2026-05-03T14:54:47Z</time></trkpt><trkpt lat="43.24935426225198" lon="11.64612181057922"><ele>288.0</ele><time>2026-05-03T14:54:48Z</time></trkpt><trkpt lat="43.249331002271525" lon="11.645980593127481"><ele>288.6</ele><time>2026-05-03T14:54:49Z</time></trkpt><trkpt lat="43.24929815267442" lon="11.645842420238926"><ele>289.20000000000005</ele><time>2026-05-03T14:54:50Z</time></trkpt><trkpt lat="43.249248982949766" lon="11.645714487780838"><ele>289.8</ele><time>2026-05-03T14:54:51Z</time></trkpt><trkpt lat="43.24918701721323" lon="11.645584172477331"><ele>290.40000000000003</ele><time>2026-05-03T14:54:52Z</time></trkpt><trkpt lat="43.2491138301509" lon="11.645445918215529"><ele>291.0</ele><time>2026-05-03T14:54:53Z</time></trkpt><trkpt lat="43.24902302447238" lon="11.645303070792496"><ele>290.3333333333333</ele><time>2026-05-03T14:54:54Z</time></trkpt><trkpt lat="43.24891293248114" lon="11.645155306281346"><ele>289.66666666666663</ele><time>2026-05-03T14:54:55Z</time></trkpt><trkpt lat="43.24879173385495" lon="11.645010317759793"><ele>289.0</ele><time>2026-05-03T14:54:56Z</time></trkpt><trkpt lat="43.24866913767296" lon="11.644868465870006"><ele>289.0</ele><time>2026-05-03T14:54:57Z</time></trkpt><trkpt lat="43.248547398091496" lon="11.64472531015064"><ele>289.0</ele><time>2026-05-03T14:54:58Z</time></trkpt><trkpt lat="43.24842953691438" lon="11.64458350483115"><ele>289.0</ele><time>2026-05-03T14:54:59Z</time></trkpt><trkpt lat="43.24831198263893" lon="11.644448374811557"><ele>289.0</ele><time>2026-05-03T14:55:00Z</time></trkpt><trkpt lat="43.248199448947226" lon="11.644316193428134"><ele>289.0</ele><time>2026-05-03T14:55:01Z</time></trkpt><trkpt lat="43.24809106112596" lon="11.644186482986187"><ele>289.0</ele><time>2026-05-03T14:55:02Z</time></trkpt><trkpt lat="43.24797913672641" lon="11.6440481270856"><ele>289.0</ele><time>2026-05-03T14:55:03Z</time></trkpt><trkpt lat="43.24786548157555" lon="11.64391496692738"><ele>289.0</ele><time>2026-05-03T14:55:04Z</time></trkpt><trkpt lat="43.24775601162067" lon="11.643789783068872"><ele>289.0</ele><time>2026-05-03T14:55:05Z</time></trkpt><trkpt lat="43.24764921315148" lon="11.643662452116308"><ele>289.0</ele><time>2026-05-03T14:55:06Z</time></trkpt><trkpt lat="43.247546780831456" lon="11.643541240600364"><ele>289.0</ele><time>2026-05-03T14:55:07Z</time></trkpt><trkpt lat="43.247446450309745" lon="11.643418828279879"><ele>289.25</ele><time>2026-05-03T14:55:08Z</time></trkpt><trkpt lat="43.247340337484424" lon="11.643294726566173"><ele>289.5</ele><time>2026-05-03T14:55:09Z</time></trkpt><trkpt lat="43.24722820893942" lon="11.643166026300923"><ele>289.75</ele><time>2026-05-03T14:55:10Z</time></trkpt><trkpt lat="43.247112402857496" lon="11.64303237625315"><ele>290.0</ele><time>2026-05-03T14:55:11Z</time></trkpt><trkpt lat="43.24699469076309" lon="11.642901891483417"><ele>290.33333333333337</ele><time>2026-05-03T14:55:12Z</time></trkpt><trkpt lat="43.246875531222244" lon="11.642772446895563"><ele>290.6666666666667</ele><time>2026-05-03T14:55:13Z</time></trkpt><trkpt lat="43.2467542983101" lon="11.642635551896682"><ele>291.0</ele><time>2026-05-03T14:55:14Z</time></trkpt><trkpt lat="43.24663368473426" lon="11.6425018352998"><ele>291.0</ele><time>2026-05-03T14:55:15Z</time></trkpt><trkpt lat="43.246512469629785" lon="11.64237153142582"><ele>291.0</ele><time>2026-05-03T14:55:16Z</time></trkpt><trkpt lat="43.246390422602026" lon="11.642245559365476"><ele>291.0</ele><time>2026-05-03T14:55:17Z</time></trkpt><trkpt lat="43.246270955182474" lon="11.64211935079193"><ele>290.75</ele><time>2026-05-03T14:55:18Z</time></trkpt><trkpt lat="43.246151015833405" lon="11.641990264038919"><ele>290.5</ele><time>2026-05-03T14:55:19Z</time></trkpt><trkpt lat="43.24603503155778" lon="11.64186516494011"><ele>290.25</ele><time>2026-05-03T14:55:20Z</time></trkpt><trkpt lat="43.24591896761677" lon="11.641737663020283"><ele>290.0</ele><time>2026-05-03T14:55:21Z</time></trkpt><trkpt lat="43.24580348967287" lon="11.641610662472221"><ele>290.0</ele><time>2026-05-03T14:55:22Z</time></trkpt><trkpt lat="43.245690676767424" lon="11.64148124204541"><ele>290.0</ele><time>2026-05-03T14:55:23Z</time></trkpt><trkpt lat="43.245578969570786" lon="11.64134412802524"><ele>290.0</ele><time>2026-05-03T14:55:24Z</time></trkpt><trkpt lat="43.24546905082634" lon="11.641200377420308"><ele>290.0</ele><time>2026-05-03T14:55:25Z</time></trkpt><trkpt lat="43.24536465238102" lon="11.641061079226787"><ele>291.25</ele><time>2026-05-03T14:55:26Z</time></trkpt><trkpt lat="43.24526927301855" lon="11.640931109153046"><ele>292.5</ele><time>2026-05-03T14:55:27Z</time></trkpt><trkpt lat="43.245182421000855" lon="11.64080879236803"><ele>293.75</ele><time>2026-05-03T14:55:28Z</time></trkpt><trkpt lat="43.24510477880077" lon="11.640700477631205"><ele>295.0</ele><time>2026-05-03T14:55:29Z</time></trkpt><trkpt lat="43.24503052015436" lon="11.640606692509728"><ele>295.0</ele><time>2026-05-03T14:55:30Z</time></trkpt><trkpt lat="43.24495406155196" lon="11.640537189073015"><ele>295.0</ele><time>2026-05-03T14:55:31Z</time></trkpt><trkpt lat="43.24486142996896" lon="11.640481682643406"><ele>295.0</ele><time>2026-05-03T14:55:32Z</time></trkpt><trkpt lat="43.24475163591074" lon="11.640453763059387"><ele>295.0</ele><time>2026-05-03T14:55:33Z</time></trkpt><trkpt lat="43.244633855190564" lon="11.640445586886074"><ele>295.0</ele><time>2026-05-03T14:55:34Z</time></trkpt><trkpt lat="43.24451034885776" lon="11.640436492639974"><ele>295.0</ele><time>2026-05-03T14:55:35Z</time></trkpt><trkpt lat="43.24438299393503" lon="11.640431795706116"><ele>295.0</ele><time>2026-05-03T14:55:36Z</time></trkpt><trkpt lat="43.24425762142488" lon="11.640417364672553"><ele>295.0</ele><time>2026-05-03T14:55:37Z</time></trkpt><trkpt lat="43.24413545089057" lon="11.640383710539677"><ele>295.0</ele><time>2026-05-03T14:55:38Z</time></trkpt><trkpt lat="43.24402084053159" lon="11.640336777151992"><ele>297.0</ele><time>2026-05-03T14:55:39Z</time></trkpt><trkpt lat="43.24390909916208" lon="11.640270688636681"><ele>299.0</ele><time>2026-05-03T14:55:40Z</time></trkpt><trkpt lat="43.24380174890156" lon="11.640205765690405"><ele>301.0</ele><time>2026-05-03T14:55:41Z</time></trkpt><trkpt lat="43.24369652772536" lon="11.640150759179464"><ele>303.0</ele><time>2026-05-03T14:55:42Z</time></trkpt><trkpt lat="43.24357909805282" lon="11.640104380388749"><ele>303.0</ele><time>2026-05-03T14:55:43Z</time></trkpt><trkpt lat="43.24345269715809" lon="11.64009747443945"><ele>303.0</ele><time>2026-05-03T14:55:44Z</time></trkpt><trkpt lat="43.24331773932838" lon="11.640124060529143"><ele>303.0</ele><time>2026-05-03T14:55:45Z</time></trkpt><trkpt lat="43.24318049036914" lon="11.640169137566177"><ele>303.0</ele><time>2026-05-03T14:55:46Z</time></trkpt><trkpt lat="43.24306046201353" lon="11.640216684709982"><ele>304.4</ele><time>2026-05-03T14:55:47Z</time></trkpt><trkpt lat="43.242960283360446" lon="11.640264965426015"><ele>305.8</ele><time>2026-05-03T14:55:48Z</time></trkpt><trkpt lat="43.242875333539025" lon="11.640309810613003"><ele>307.2</ele><time>2026-05-03T14:55:49Z</time></trkpt><trkpt lat="43.24280799845903" lon="11.64034668645198"><ele>308.6</ele><time>2026-05-03T14:55:50Z</time></trkpt><trkpt lat="43.24268448485548" lon="11.64038304859307"><ele>310.0</ele><time>2026-05-03T14:55:52Z</time></trkpt><trkpt lat="43.242581127386444" lon="11.640295183021195"><ele>310.0</ele><time>2026-05-03T14:55:54Z</time></trkpt><trkpt lat="43.24254815136434" lon="11.640203163456484"><ele>310.0</ele><time>2026-05-03T14:55:55Z</time></trkpt><trkpt lat="43.24251954553228" lon="11.640099234978928"><ele>310.0</ele><time>2026-05-03T14:55:56Z</time></trkpt><trkpt lat="43.242480653017275" lon="11.639986850768931"><ele>310.0</ele><time>2026-05-03T14:55:57Z</time></trkpt><trkpt lat="43.24244443480393" lon="11.639872064581274"><ele>310.0</ele><time>2026-05-03T14:55:58Z</time></trkpt><trkpt lat="43.242403496842336" lon="11.639755948230475"><ele>310.0</ele><time>2026-05-03T14:55:59Z</time></trkpt><trkpt lat="43.2423599761376" lon="11.639651454369977"><ele>310.0</ele><time>2026-05-03T14:56:00Z</time></trkpt><trkpt lat="43.2423140779643" lon="11.639544943786097"><ele>310.0</ele><time>2026-05-03T14:56:01Z</time></trkpt><trkpt lat="43.24227308432972" lon="11.639441992030292"><ele>310.0</ele><time>2026-05-03T14:56:02Z</time></trkpt><trkpt lat="43.242230674798726" lon="11.639342335571355"><ele>310.0</ele><time>2026-05-03T14:56:03Z</time></trkpt><trkpt lat="43.24219231446314" lon="11.639253911563134"><ele>310.0</ele><time>2026-05-03T14:56:04Z</time></trkpt><trkpt lat="43.242156631430625" lon="11.639176729319656"><ele>310.0</ele><time>2026-05-03T14:56:05Z</time></trkpt><trkpt lat="43.242118316504545" lon="11.639103967438189"><ele>313.0</ele><time>2026-05-03T14:56:06Z</time></trkpt><trkpt lat="43.24204298763527" lon="11.63898658758996"><ele>316.0</ele><time>2026-05-03T14:56:08Z</time></trkpt><trkpt lat="43.2419305571208" lon="11.638946317602334"><ele>319.0</ele><time>2026-05-03T14:56:10Z</time></trkpt><trkpt lat="43.24186526496355" lon="11.638986705907932"><ele>322.0</ele><time>2026-05-03T14:56:11Z</time></trkpt><trkpt lat="43.24178952267066" lon="11.639069459753019"><ele>325.0</ele><time>2026-05-03T14:56:12Z</time></trkpt><trkpt lat="43.241703565731676" lon="11.639174966418166"><ele>325.0</ele><time>2026-05-03T14:56:13Z</time></trkpt><trkpt lat="43.24161265826113" lon="11.639297115682405"><ele>325.0</ele><time>2026-05-03T14:56:14Z</time></trkpt><trkpt lat="43.24151977451563" lon="11.639419062876248"><ele>325.0</ele><time>2026-05-03T14:56:15Z</time></trkpt><trkpt lat="43.24144347856842" lon="11.639548785581775"><ele>325.0</ele><time>2026-05-03T14:56:16Z</time></trkpt><trkpt lat="43.241377063213484" lon="11.639677713490855"><ele>327.4</ele><time>2026-05-03T14:56:17Z</time></trkpt><trkpt lat="43.241323555706934" lon="11.63980407679001"><ele>329.8</ele><time>2026-05-03T14:56:18Z</time></trkpt><trkpt lat="43.24128004972291" lon="11.639929158386732"><ele>332.20000000000005</ele><time>2026-05-03T14:56:19Z</time></trkpt><trkpt lat="43.24123239995497" lon="11.6400459569338"><ele>334.6</ele><time>2026-05-03T14:56:20Z</time></trkpt><trkpt lat="43.24117755592167" lon="11.640146866470575"><ele>337.0</ele><time>2026-05-03T14:56:21Z</time></trkpt><trkpt lat="43.241112423452904" lon="11.640215777815204"><ele>337.0</ele><time>2026-05-03T14:56:22Z</time></trkpt><trkpt lat="43.2410354878529" lon="11.640248209836244"><ele>337.0</ele><time>2026-05-03T14:56:23Z</time></trkpt><trkpt lat="43.24095441284056" lon="11.640233231857003"><ele>337.0</ele><time>2026-05-03T14:56:24Z</time></trkpt><trkpt lat="43.240873076639446" lon="11.640175156054571"><ele>337.0</ele><time>2026-05-03T14:56:25Z</time></trkpt><trkpt lat="43.24078873239372" lon="11.640093675345451"><ele>337.0</ele><time>2026-05-03T14:56:26Z</time></trkpt><trkpt lat="43.24070298012854" lon="11.640000816501349"><ele>337.0</ele><time>2026-05-03T14:56:27Z</time></trkpt><trkpt lat="43.24063769901167" lon="11.639912648859342"><ele>337.0</ele><time>2026-05-03T14:56:28Z</time></trkpt><trkpt lat="43.24056678602365" lon="11.639820815413826"><ele>337.0</ele><time>2026-05-03T14:56:29Z</time></trkpt><trkpt lat="43.240482930976526" lon="11.639721692769392"><ele>337.0</ele><time>2026-05-03T14:56:30Z</time></trkpt><trkpt lat="43.24039488702657" lon="11.639631718510742"><ele>337.0</ele><time>2026-05-03T14:56:31Z</time></trkpt><trkpt lat="43.24030739799004" lon="11.63953357154362"><ele>339.3333333333333</ele><time>2026-05-03T14:56:32Z</time></trkpt><trkpt lat="43.24022743544136" lon="11.639441164707153"><ele>341.66666666666663</ele><time>2026-05-03T14:56:33Z</time></trkpt><trkpt lat="43.24016148881256" lon="11.639364420206075"><ele>344.0</ele><time>2026-05-03T14:56:34Z</time></trkpt><trkpt lat="43.24011283817646" lon="11.639298126348091"><ele>346.3333333333333</ele><time>2026-05-03T14:56:35Z</time></trkpt><trkpt lat="43.24008888635028" lon="11.639214732205435"><ele>348.6666666666667</ele><time>2026-05-03T14:56:36Z</time></trkpt><trkpt lat="43.240080407066365" lon="11.63911836515732"><ele>351.0</ele><time>2026-05-03T14:56:37Z</time></trkpt><trkpt lat="43.240089703251094" lon="11.639010993226854"><ele>351.0</ele><time>2026-05-03T14:56:38Z</time></trkpt><trkpt lat="43.2400880162218" lon="11.638889996591292"><ele>351.0</ele><time>2026-05-03T14:56:39Z</time></trkpt><trkpt lat="43.24009268715562" lon="11.638754610793429"><ele>351.0</ele><time>2026-05-03T14:56:40Z</time></trkpt><trkpt lat="43.240076335502586" lon="11.638618543971427"><ele>351.0</ele><time>2026-05-03T14:56:41Z</time></trkpt><trkpt lat="43.24004387328705" lon="11.638486483118859"><ele>351.0</ele><time>2026-05-03T14:56:42Z</time></trkpt><trkpt lat="43.23998934543625" lon="11.63836207460726"><ele>351.0</ele><time>2026-05-03T14:56:43Z</time></trkpt><trkpt lat="43.23993644492187" lon="11.638233205670776"><ele>351.0</ele><time>2026-05-03T14:56:44Z</time></trkpt><trkpt lat="43.23987036790011" lon="11.638103528969612"><ele>351.0</ele><time>2026-05-03T14:56:45Z</time></trkpt><trkpt lat="43.23982239506729" lon="11.637963756826723"><ele>351.0</ele><time>2026-05-03T14:56:46Z</time></trkpt><trkpt lat="43.2397579600642" lon="11.637830937399562"><ele>352.4</ele><time>2026-05-03T14:56:47Z</time></trkpt><trkpt lat="43.23969071757889" lon="11.63770985402852"><ele>353.8</ele><time>2026-05-03T14:56:48Z</time></trkpt><trkpt lat="43.239619255477336" lon="11.637602620981296"><ele>355.2</ele><time>2026-05-03T14:56:49Z</time></trkpt><trkpt lat="43.239539472981356" lon="11.637507665982783"><ele>356.59999999999997</ele><time>2026-05-03T14:56:50Z</time></trkpt><trkpt lat="43.239447602419276" lon="11.637439897592882"><ele>358.0</ele><time>2026-05-03T14:56:51Z</time></trkpt><trkpt lat="43.239346764570186" lon="11.63741035025033"><ele>358.0</ele><time>2026-05-03T14:56:52Z</time></trkpt><trkpt lat="43.23923561653779" lon="11.63739330761631"><ele>358.0</ele><time>2026-05-03T14:56:53Z</time></trkpt><trkpt lat="43.23911942534355" lon="11.637370963660592"><ele>358.0</ele><time>2026-05-03T14:56:54Z</time></trkpt><trkpt lat="43.23901673016411" lon="11.637350519782514"><ele>358.0</ele><time>2026-05-03T14:56:55Z</time></trkpt><trkpt lat="43.23890815185976" lon="11.637325181939728"><ele>358.0</ele><time>2026-05-03T14:56:56Z</time></trkpt><trkpt lat="43.23879740261884" lon="11.637301257002994"><ele>358.75</ele><time>2026-05-03T14:56:57Z</time></trkpt><trkpt lat="43.238695448919415" lon="11.63725869400902"><ele>359.5</ele><time>2026-05-03T14:56:58Z</time></trkpt><trkpt lat="43.238584236821616" lon="11.63722498134389"><ele>360.25</ele><time>2026-05-03T14:56:59Z</time></trkpt><trkpt lat="43.238465323200636" lon="11.637187885760854"><ele>361.0</ele><time>2026-05-03T14:57:00Z</time></trkpt><trkpt lat="43.23834242099452" lon="11.637161193475386"><ele>361.0</ele><time>2026-05-03T14:57:01Z</time></trkpt><trkpt lat="43.238215501732455" lon="11.637101240342432"><ele>361.0</ele><time>2026-05-03T14:57:02Z</time></trkpt><trkpt lat="43.23808603653184" lon="11.637033376479316"><ele>361.0</ele><time>2026-05-03T14:57:03Z</time></trkpt><trkpt lat="43.23794463716454" lon="11.636959863203636"><ele>361.0</ele><time>2026-05-03T14:57:04Z</time></trkpt><trkpt lat="43.23779491724201" lon="11.636887492855664"><ele>363.0</ele><time>2026-05-03T14:57:05Z</time></trkpt><trkpt lat="43.23764272564723" lon="11.636806319229834"><ele>365.0</ele><time>2026-05-03T14:57:06Z</time></trkpt><trkpt lat="43.23749501892565" lon="11.636726519253031"><ele>367.0</ele><time>2026-05-03T14:57:07Z</time></trkpt><trkpt lat="43.23735771334274" lon="11.636654353756466"><ele>364.75</ele><time>2026-05-03T14:57:08Z</time></trkpt><trkpt lat="43.237223283256654" lon="11.636587244585074"><ele>362.5</ele><time>2026-05-03T14:57:09Z</time></trkpt><trkpt lat="43.23709983862686" lon="11.636508658986761"><ele>360.25</ele><time>2026-05-03T14:57:10Z</time></trkpt><trkpt lat="43.23697924095034" lon="11.636422303355879"><ele>358.0</ele><time>2026-05-03T14:57:11Z</time></trkpt><trkpt lat="43.23686108792532" lon="11.636336393505058"><ele>358.0</ele><time>2026-05-03T14:57:12Z</time></trkpt><trkpt lat="43.236746167866656" lon="11.636243457896137"><ele>358.0</ele><time>2026-05-03T14:57:13Z</time></trkpt><trkpt lat="43.236635627863976" lon="11.636140532192272"><ele>358.0</ele><time>2026-05-03T14:57:14Z</time></trkpt><trkpt lat="43.23653159378425" lon="11.636023303171145"><ele>358.0</ele><time>2026-05-03T14:57:15Z</time></trkpt><trkpt lat="43.23643187736705" lon="11.635895093743178"><ele>356.25</ele><time>2026-05-03T14:57:16Z</time></trkpt><trkpt lat="43.236333622925216" lon="11.635761407454433"><ele>354.5</ele><time>2026-05-03T14:57:17Z</time></trkpt><trkpt lat="43.23623397018588" lon="11.63561895588194"><ele>352.75</ele><time>2026-05-03T14:57:18Z</time></trkpt><trkpt lat="43.236137653662915" lon="11.63547037471144"><ele>351.0</ele><time>2026-05-03T14:57:19Z</time></trkpt><trkpt lat="43.23604709743277" lon="11.635315193542844"><ele>353.25</ele><time>2026-05-03T14:57:20Z</time></trkpt><trkpt lat="43.2359637594329" lon="11.635155164532144"><ele>355.5</ele><time>2026-05-03T14:57:21Z</time></trkpt><trkpt lat="43.23588825181404" lon="11.635001516645056"><ele>357.75</ele><time>2026-05-03T14:57:22Z</time></trkpt><trkpt lat="43.235819176838454" lon="11.634852236268772"><ele>360.0</ele><time>2026-05-03T14:57:23Z</time></trkpt><trkpt lat="43.2357478461793" lon="11.634715541489664"><ele>360.0</ele><time>2026-05-03T14:57:24Z</time></trkpt><trkpt lat="43.23566485062144" lon="11.634606304659593"><ele>360.0</ele><time>2026-05-03T14:57:25Z</time></trkpt><trkpt lat="43.23556948228923" lon="11.63451404130446"><ele>360.0</ele><time>2026-05-03T14:57:26Z</time></trkpt><trkpt lat="43.235457405249875" lon="11.634437782958832"><ele>360.0</ele><time>2026-05-03T14:57:27Z</time></trkpt><trkpt lat="43.23533319752678" lon="11.634366674720992"><ele>359.75</ele><time>2026-05-03T14:57:28Z</time></trkpt><trkpt lat="43.23519812097817" lon="11.634290745093487"><ele>359.5</ele><time>2026-05-03T14:57:29Z</time></trkpt><trkpt lat="43.2350658499653" lon="11.634215674225223"><ele>359.25</ele><time>2026-05-03T14:57:30Z</time></trkpt><trkpt lat="43.23492457702142" lon="11.634147262116382"><ele>359.0</ele><time>2026-05-03T14:57:31Z</time></trkpt><trkpt lat="43.23477732809906" lon="11.634091566085795"><ele>357.0</ele><time>2026-05-03T14:57:32Z</time></trkpt><trkpt lat="43.23462094418643" lon="11.634038221222548"><ele>355.0</ele><time>2026-05-03T14:57:33Z</time></trkpt><trkpt lat="43.234463074895274" lon="11.634001469954914"><ele>353.0</ele><time>2026-05-03T14:57:34Z</time></trkpt><trkpt lat="43.234300920252004" lon="11.633973844908535"><ele>353.0</ele><time>2026-05-03T14:57:35Z</time></trkpt><trkpt lat="43.23413443285078" lon="11.633956775154644"><ele>353.0</ele><time>2026-05-03T14:57:36Z</time></trkpt><trkpt lat="43.23396518485008" lon="11.633951492228748"><ele>353.0</ele><time>2026-05-03T14:57:37Z</time></trkpt><trkpt lat="43.233797817211006" lon="11.633957114865277"><ele>353.0</ele><time>2026-05-03T14:57:38Z</time></trkpt><trkpt lat="43.233630934380805" lon="11.633967934949"><ele>353.0</ele><time>2026-05-03T14:57:39Z</time></trkpt><trkpt lat="43.23346625494212" lon="11.633966916725365"><ele>353.0</ele><time>2026-05-03T14:57:40Z</time></trkpt><trkpt lat="43.23330290219421" lon="11.633936142517209"><ele>353.0</ele><time>2026-05-03T14:57:41Z</time></trkpt><trkpt lat="43.23314067160166" lon="11.633885153383474"><ele>353.0</ele><time>2026-05-03T14:57:42Z</time></trkpt><trkpt lat="43.232983589506865" lon="11.63382476294371"><ele>353.0</ele><time>2026-05-03T14:57:43Z</time></trkpt><trkpt lat="43.23282541985457" lon="11.633765383323665"><ele>354.6666666666667</ele><time>2026-05-03T14:57:44Z</time></trkpt><trkpt lat="43.23266535636211" lon="11.633701458007117"><ele>356.3333333333333</ele><time>2026-05-03T14:57:45Z</time></trkpt><trkpt lat="43.23250866978193" lon="11.633639320603947"><ele>358.0</ele><time>2026-05-03T14:57:46Z</time></trkpt><trkpt lat="43.232352893399366" lon="11.633578137290046"><ele>360.66666666666663</ele><time>2026-05-03T14:57:47Z</time></trkpt><trkpt lat="43.23219849326205" lon="11.63351815142145"><ele>363.3333333333333</ele><time>2026-05-03T14:57:48Z</time></trkpt><trkpt lat="43.23204257115935" lon="11.633458743583555"><ele>366.0</ele><time>2026-05-03T14:57:49Z</time></trkpt><trkpt lat="43.23189109239971" lon="11.63339882552367"><ele>366.0</ele><time>2026-05-03T14:57:50Z</time></trkpt><trkpt lat="43.23174605848515" lon="11.633330428929717"><ele>366.0</ele><time>2026-05-03T14:57:51Z</time></trkpt><trkpt lat="43.2316049180924" lon="11.633270971303082"><ele>366.0</ele><time>2026-05-03T14:57:52Z</time></trkpt><trkpt lat="43.23146680620245" lon="11.633213984354049"><ele>366.0</ele><time>2026-05-03T14:57:53Z</time></trkpt><trkpt lat="43.23134076125044" lon="11.633156242499446"><ele>367.6</ele><time>2026-05-03T14:57:54Z</time></trkpt><trkpt lat="43.23121868392971" lon="11.633091852869578"><ele>369.20000000000005</ele><time>2026-05-03T14:57:55Z</time></trkpt><trkpt lat="43.23110921265783" lon="11.633016874750993"><ele>370.79999999999995</ele><time>2026-05-03T14:57:56Z</time></trkpt><trkpt lat="43.23102160397975" lon="11.632946255158856"><ele>372.4</ele><time>2026-05-03T14:57:57Z</time></trkpt><trkpt lat="43.23094517002823" lon="11.632887147061506"><ele>374.0</ele><time>2026-05-03T14:57:58Z</time></trkpt><trkpt lat="43.2308781727469" lon="11.632837821461317"><ele>375.0</ele><time>2026-05-03T14:57:59Z</time></trkpt><trkpt lat="43.2308121339221" lon="11.632778869240108"><ele>376.0</ele><time>2026-05-03T14:58:00Z</time></trkpt><trkpt lat="43.23076320323507" lon="11.632679804062338"><ele>377.0</ele><time>2026-05-03T14:58:01Z</time></trkpt><trkpt lat="43.23072976231851" lon="11.63255836125679"><ele>378.0</ele><time>2026-05-03T14:58:02Z</time></trkpt><trkpt lat="43.23073516659791" lon="11.632419320178435"><ele>379.0</ele><time>2026-05-03T14:58:03Z</time></trkpt><trkpt lat="43.230766333467564" lon="11.632271894129008"><ele>379.0</ele><time>2026-05-03T14:58:04Z</time></trkpt><trkpt lat="43.230814155856336" lon="11.632103078274277"><ele>379.0</ele><time>2026-05-03T14:58:05Z</time></trkpt><trkpt lat="43.23087589423772" lon="11.631930624877059"><ele>379.0</ele><time>2026-05-03T14:58:06Z</time></trkpt><trkpt lat="43.23094464863168" lon="11.631751877800466"><ele>379.0</ele><time>2026-05-03T14:58:07Z</time></trkpt><trkpt lat="43.23101850935241" lon="11.631568087373"><ele>379.0</ele><time>2026-05-03T14:58:08Z</time></trkpt><trkpt lat="43.23109292421189" lon="11.63138475010835"><ele>379.0</ele><time>2026-05-03T14:58:09Z</time></trkpt><trkpt lat="43.231165367005325" lon="11.631208016533904"><ele>379.0</ele><time>2026-05-03T14:58:10Z</time></trkpt><trkpt lat="43.231243323072086" lon="11.631024165718658"><ele>380.66666666666663</ele><time>2026-05-03T14:58:11Z</time></trkpt><trkpt lat="43.231322850421726" lon="11.630840517731679"><ele>382.3333333333333</ele><time>2026-05-03T14:58:12Z</time></trkpt><trkpt lat="43.23140417011676" lon="11.630664121311428"><ele>384.0</ele><time>2026-05-03T14:58:13Z</time></trkpt><trkpt lat="43.23148055687218" lon="11.630499940896215"><ele>383.25</ele><time>2026-05-03T14:58:14Z</time></trkpt><trkpt lat="43.231556908914065" lon="11.63034003074812"><ele>382.5</ele><time>2026-05-03T14:58:15Z</time></trkpt><trkpt lat="43.23164503063182" lon="11.630188121672225"><ele>381.75</ele><time>2026-05-03T14:58:16Z</time></trkpt><trkpt lat="43.23174444680764" lon="11.630043376989867"><ele>381.0</ele><time>2026-05-03T14:58:17Z</time></trkpt><trkpt lat="43.231853315617194" lon="11.629907069578842"><ele>381.0</ele><time>2026-05-03T14:58:18Z</time></trkpt><trkpt lat="43.23196738580814" lon="11.629776554140507"><ele>381.0</ele><time>2026-05-03T14:58:19Z</time></trkpt><trkpt lat="43.232086111072505" lon="11.629652841612435"><ele>381.0</ele><time>2026-05-03T14:58:20Z</time></trkpt><trkpt lat="43.232199696421425" lon="11.629541917865787"><ele>381.0</ele><time>2026-05-03T14:58:21Z</time></trkpt><trkpt lat="43.23230614423713" lon="11.629430567999975"><ele>380.25</ele><time>2026-05-03T14:58:22Z</time></trkpt><trkpt lat="43.23240610936629" lon="11.62931871109539"><ele>379.5</ele><time>2026-05-03T14:58:23Z</time></trkpt><trkpt lat="43.23250904157698" lon="11.629204051842342"><ele>378.75</ele><time>2026-05-03T14:58:24Z</time></trkpt><trkpt lat="43.232611242078875" lon="11.62908546391173"><ele>378.0</ele><time>2026-05-03T14:58:25Z</time></trkpt><trkpt lat="43.23270921051131" lon="11.628964684701481"><ele>378.0</ele><time>2026-05-03T14:58:26Z</time></trkpt><trkpt lat="43.23280753227527" lon="11.628836154080377"><ele>378.0</ele><time>2026-05-03T14:58:27Z</time></trkpt><trkpt lat="43.23290102816842" lon="11.628699679776528"><ele>378.0</ele><time>2026-05-03T14:58:28Z</time></trkpt><trkpt lat="43.232991658244345" lon="11.628563321467976"><ele>378.0</ele><time>2026-05-03T14:58:29Z</time></trkpt><trkpt lat="43.23307622255077" lon="11.628417851783455"><ele>376.25</ele><time>2026-05-03T14:58:30Z</time></trkpt><trkpt lat="43.23314491398343" lon="11.628267476369606"><ele>374.5</ele><time>2026-05-03T14:58:31Z</time></trkpt><trkpt lat="43.23320659636881" lon="11.628120010049111"><ele>372.75</ele><time>2026-05-03T14:58:32Z</time></trkpt><trkpt lat="43.23325778304842" lon="11.627975151211421"><ele>371.0</ele><time>2026-05-03T14:58:33Z</time></trkpt><trkpt lat="43.23330861300814" lon="11.627834170641787"><ele>371.20000000000005</ele><time>2026-05-03T14:58:34Z</time></trkpt><trkpt lat="43.23335928765518" lon="11.627690887416433"><ele>371.40000000000003</ele><time>2026-05-03T14:58:35Z</time></trkpt><trkpt lat="43.23339346264684" lon="11.627555623878612"><ele>371.6</ele><time>2026-05-03T14:58:36Z</time></trkpt><trkpt lat="43.23341744648509" lon="11.627421281768132"><ele>371.8</ele><time>2026-05-03T14:58:37Z</time></trkpt><trkpt lat="43.2334289900401" lon="11.627287458163574"><ele>372.0</ele><time>2026-05-03T14:58:38Z</time></trkpt><trkpt lat="43.23343536832824" lon="11.627157766319824"><ele>372.0</ele><time>2026-05-03T14:58:39Z</time></trkpt><trkpt lat="43.23343640403048" lon="11.627033188756522"><ele>372.0</ele><time>2026-05-03T14:58:40Z</time></trkpt><trkpt lat="43.23344506379635" lon="11.626911939156582"><ele>372.0</ele><time>2026-05-03T14:58:41Z</time></trkpt><trkpt lat="43.23347368121334" lon="11.626797371578949"><ele>372.0</ele><time>2026-05-03T14:58:42Z</time></trkpt><trkpt lat="43.23351358437133" lon="11.626696703101354"><ele>372.0</ele><time>2026-05-03T14:58:43Z</time></trkpt><trkpt lat="43.2335709065173" lon="11.626608876219226"><ele>372.0</ele><time>2026-05-03T14:58:44Z</time></trkpt><trkpt lat="43.23362867681406" lon="11.626531859525498"><ele>371.8</ele><time>2026-05-03T14:58:45Z</time></trkpt><trkpt lat="43.23368304085537" lon="11.626450238254202"><ele>371.6</ele><time>2026-05-03T14:58:46Z</time></trkpt><trkpt lat="43.2337234098725" lon="11.626347117024592"><ele>371.40000000000003</ele><time>2026-05-03T14:58:47Z</time></trkpt><trkpt lat="43.2337392629178" lon="11.62622009889987"><ele>371.20000000000005</ele><time>2026-05-03T14:58:48Z</time></trkpt><trkpt lat="43.233726023299525" lon="11.626078707573708"><ele>371.0</ele><time>2026-05-03T14:58:49Z</time></trkpt><trkpt lat="43.233701922877984" lon="11.625922504744024"><ele>371.0</ele><time>2026-05-03T14:58:50Z</time></trkpt><trkpt lat="43.23367969360709" lon="11.625755110106445"><ele>371.0</ele><time>2026-05-03T14:58:51Z</time></trkpt><trkpt lat="43.233656806670616" lon="11.625581975211945"><ele>371.0</ele><time>2026-05-03T14:58:52Z</time></trkpt><trkpt lat="43.23362536390088" lon="11.625421874584921"><ele>371.0</ele><time>2026-05-03T14:58:53Z</time></trkpt><trkpt lat="43.233586342174824" lon="11.62526894916786"><ele>369.6</ele><time>2026-05-03T14:58:54Z</time></trkpt><trkpt lat="43.23353395890823" lon="11.625131834040413"><ele>368.20000000000005</ele><time>2026-05-03T14:58:55Z</time></trkpt><trkpt lat="43.2334731655661" lon="11.6250074514137"><ele>366.79999999999995</ele><time>2026-05-03T14:58:56Z</time></trkpt><trkpt lat="43.2334067592795" lon="11.624894194273036"><ele>365.4</ele><time>2026-05-03T14:58:57Z</time></trkpt><trkpt lat="43.23334354350907" lon="11.624787884740453"><ele>364.0</ele><time>2026-05-03T14:58:58Z</time></trkpt><trkpt lat="43.23328365060284" lon="11.624675185321665"><ele>364.0</ele><time>2026-05-03T14:58:59Z</time></trkpt><trkpt lat="43.233221862568534" lon="11.624541893275373"><ele>364.0</ele><time>2026-05-03T14:59:00Z</time></trkpt><trkpt lat="43.23316233171749" lon="11.624390317761485"><ele>364.0</ele><time>2026-05-03T14:59:01Z</time></trkpt><trkpt lat="43.23310866137392" lon="11.6242249579022"><ele>364.0</ele><time>2026-05-03T14:59:02Z</time></trkpt><trkpt lat="43.233045658851395" lon="11.624060965369418"><ele>363.75</ele><time>2026-05-03T14:59:03Z</time></trkpt><trkpt lat="43.23298113074206" lon="11.623898219456683"><ele>363.5</ele><time>2026-05-03T14:59:04Z</time></trkpt><trkpt lat="43.23291965410594" lon="11.623743993966386"><ele>363.25</ele><time>2026-05-03T14:59:05Z</time></trkpt><trkpt lat="43.232863108022826" lon="11.62360518179103"><ele>363.0</ele><time>2026-05-03T14:59:06Z</time></trkpt><trkpt lat="43.232803894260314" lon="11.623476434635068"><ele>361.0</ele><time>2026-05-03T14:59:07Z</time></trkpt><trkpt lat="43.232730132247134" lon="11.623363329179622"><ele>359.0</ele><time>2026-05-03T14:59:08Z</time></trkpt><trkpt lat="43.232642925484036" lon="11.623272167497616"><ele>357.0</ele><time>2026-05-03T14:59:09Z</time></trkpt><trkpt lat="43.23255609556034" lon="11.623180920736662"><ele>355.0</ele><time>2026-05-03T14:59:10Z</time></trkpt><trkpt lat="43.232475625435484" lon="11.623072098846176"><ele>353.0</ele><time>2026-05-03T14:59:11Z</time></trkpt><trkpt lat="43.23240904318809" lon="11.622947303267948"><ele>353.25</ele><time>2026-05-03T14:59:12Z</time></trkpt><trkpt lat="43.23236657886144" lon="11.62280632294987"><ele>353.5</ele><time>2026-05-03T14:59:13Z</time></trkpt><trkpt lat="43.23233088904562" lon="11.622653694212502"><ele>353.75</ele><time>2026-05-03T14:59:14Z</time></trkpt><trkpt lat="43.23229251221738" lon="11.622474277103917"><ele>354.0</ele><time>2026-05-03T14:59:15Z</time></trkpt><trkpt lat="43.23225027914197" lon="11.622294938696914"><ele>354.0</ele><time>2026-05-03T14:59:16Z</time></trkpt><trkpt lat="43.2322116945207" lon="11.622103420508969"><ele>354.0</ele><time>2026-05-03T14:59:17Z</time></trkpt><trkpt lat="43.232171134446446" lon="11.621910726141959"><ele>354.0</ele><time>2026-05-03T14:59:18Z</time></trkpt><trkpt lat="43.2321245738176" lon="11.621723286849141"><ele>354.0</ele><time>2026-05-03T14:59:19Z</time></trkpt><trkpt lat="43.23208379640713" lon="11.621543024366778"><ele>349.25</ele><time>2026-05-03T14:59:20Z</time></trkpt><trkpt lat="43.232045583374635" lon="11.621356662777973"><ele>344.5</ele><time>2026-05-03T14:59:21Z</time></trkpt><trkpt lat="43.232009330543974" lon="11.621167432300966"><ele>339.75</ele><time>2026-05-03T14:59:22Z</time></trkpt><trkpt lat="43.23196849307814" lon="11.620973591348362"><ele>335.0</ele><time>2026-05-03T14:59:23Z</time></trkpt><trkpt lat="43.23193088786743" lon="11.620765010348281"><ele>331.6666666666667</ele><time>2026-05-03T14:59:24Z</time></trkpt><trkpt lat="43.23189391164382" lon="11.62054807618547"><ele>328.3333333333333</ele><time>2026-05-03T14:59:25Z</time></trkpt><trkpt lat="43.23186356746347" lon="11.620344799279067"><ele>325.0</ele><time>2026-05-03T14:59:26Z</time></trkpt><trkpt lat="43.23182777130569" lon="11.62012367215912"><ele>323.66666666666663</ele><time>2026-05-03T14:59:27Z</time></trkpt><trkpt lat="43.23178926234283" lon="11.619888858853495"><ele>322.3333333333333</ele><time>2026-05-03T14:59:28Z</time></trkpt><trkpt lat="43.23175179997476" lon="11.619666782545176"><ele>321.0</ele><time>2026-05-03T14:59:29Z</time></trkpt><trkpt lat="43.23171600935442" lon="11.619437798103274"><ele>320.3333333333333</ele><time>2026-05-03T14:59:30Z</time></trkpt><trkpt lat="43.23167926741024" lon="11.619214186019853"><ele>319.66666666666663</ele><time>2026-05-03T14:59:31Z</time></trkpt><trkpt lat="43.231638168411116" lon="11.61899953507822"><ele>319.0</ele><time>2026-05-03T14:59:32Z</time></trkpt><trkpt lat="43.23160036192433" lon="11.618787867262123"><ele>318.0</ele><time>2026-05-03T14:59:33Z</time></trkpt><trkpt lat="43.231577496434355" lon="11.618573124351988"><ele>317.0</ele><time>2026-05-03T14:59:34Z</time></trkpt><trkpt lat="43.23152411629819" lon="11.618372250816462"><ele>316.0</ele><time>2026-05-03T14:59:35Z</time></trkpt><trkpt lat="43.231471324302255" lon="11.618178395371668"><ele>315.0</ele><time>2026-05-03T14:59:36Z</time></trkpt><trkpt lat="43.231418832216576" lon="11.617993874299112"><ele>314.0</ele><time>2026-05-03T14:59:37Z</time></trkpt><trkpt lat="43.23136686082654" lon="11.617816973429317"><ele>313.0</ele><time>2026-05-03T14:59:38Z</time></trkpt><trkpt lat="43.231317248223796" lon="11.617646468664484"><ele>312.0</ele><time>2026-05-03T14:59:39Z</time></trkpt><trkpt lat="43.231269930634255" lon="11.617476335626685"><ele>311.25</ele><time>2026-05-03T14:59:40Z</time></trkpt><trkpt lat="43.231213162825206" lon="11.617299293742963"><ele>310.5</ele><time>2026-05-03T14:59:41Z</time></trkpt><trkpt lat="43.231174818825345" lon="11.617106795376344"><ele>309.75</ele><time>2026-05-03T14:59:42Z</time></trkpt><trkpt lat="43.23114417478301" lon="11.616906493525455"><ele>309.0</ele><time>2026-05-03T14:59:43Z</time></trkpt><trkpt lat="43.231124885702165" lon="11.616688099665042"><ele>308.0</ele><time>2026-05-03T14:59:44Z</time></trkpt><trkpt lat="43.23111450371637" lon="11.616463632510838"><ele>307.0</ele><time>2026-05-03T14:59:45Z</time></trkpt><trkpt lat="43.23113293415978" lon="11.616230485974569"><ele>306.0</ele><time>2026-05-03T14:59:46Z</time></trkpt><trkpt lat="43.23112722966967" lon="11.61599154299773"><ele>305.0</ele><time>2026-05-03T14:59:47Z</time></trkpt><trkpt lat="43.23114963246072" lon="11.61575342614187"><ele>304.0</ele><time>2026-05-03T14:59:48Z</time></trkpt><trkpt lat="43.23117932754914" lon="11.615506705116738"><ele>303.0</ele><time>2026-05-03T14:59:49Z</time></trkpt><trkpt lat="43.23121216572894" lon="11.615248650457096"><ele>302.3333333333333</ele><time>2026-05-03T14:59:50Z</time></trkpt><trkpt lat="43.23124419071604" lon="11.614990075160698"><ele>301.66666666666663</ele><time>2026-05-03T14:59:51Z</time></trkpt><trkpt lat="43.23127481663795" lon="11.614736091939623"><ele>301.0</ele><time>2026-05-03T14:59:52Z</time></trkpt><trkpt lat="43.231300939878295" lon="11.614488941478513"><ele>300.66666666666663</ele><time>2026-05-03T14:59:53Z</time></trkpt><trkpt lat="43.23132855609888" lon="11.614250317273859"><ele>300.3333333333333</ele><time>2026-05-03T14:59:54Z</time></trkpt><trkpt lat="43.23135010391214" lon="11.614011018698186"><ele>300.0</ele><time>2026-05-03T14:59:55Z</time></trkpt><trkpt lat="43.23137304993208" lon="11.613777644527381"><ele>298.6666666666667</ele><time>2026-05-03T14:59:56Z</time></trkpt><trkpt lat="43.23139737393837" lon="11.613546462368307"><ele>297.33333333333337</ele><time>2026-05-03T14:59:57Z</time></trkpt><trkpt lat="43.23142304415847" lon="11.613316559406195"><ele>296.0</ele><time>2026-05-03T14:59:58Z</time></trkpt><trkpt lat="43.23144728523306" lon="11.613087503943412"><ele>296.0</ele><time>2026-05-03T14:59:59Z</time></trkpt><trkpt lat="43.23147266024327" lon="11.612854199733695"><ele>296.0</ele><time>2026-05-03T15:00:00Z</time></trkpt><trkpt lat="43.231493794290536" lon="11.612628358358087"><ele>296.0</ele><time>2026-05-03T15:00:01Z</time></trkpt><trkpt lat="43.23151352035211" lon="11.612412063703452"><ele>296.0</ele><time>2026-05-03T15:00:02Z</time></trkpt><trkpt lat="43.231553963249475" lon="11.612206496367136"><ele>296.0</ele><time>2026-05-03T15:00:03Z</time></trkpt><trkpt lat="43.23157733347584" lon="11.611996162928982"><ele>296.0</ele><time>2026-05-03T15:00:04Z</time></trkpt><trkpt lat="43.23159946204512" lon="11.611796262403702"><ele>295.5</ele><time>2026-05-03T15:00:05Z</time></trkpt><trkpt lat="43.231623022368055" lon="11.611605577917318"><ele>295.0</ele><time>2026-05-03T15:00:06Z</time></trkpt><trkpt lat="43.231642380090854" lon="11.611419152592457"><ele>294.5</ele><time>2026-05-03T15:00:07Z</time></trkpt><trkpt lat="43.231696004581856" lon="11.611250467636278"><ele>294.0</ele><time>2026-05-03T15:00:08Z</time></trkpt><trkpt lat="43.23176061304537" lon="11.611101218038812"><ele>293.25</ele><time>2026-05-03T15:00:09Z</time></trkpt><trkpt lat="43.231835692836164" lon="11.610948013270312"><ele>292.5</ele><time>2026-05-03T15:00:10Z</time></trkpt><trkpt lat="43.23191361071974" lon="11.61079270812245"><ele>291.75</ele><time>2026-05-03T15:00:11Z</time></trkpt><trkpt lat="43.23198882545428" lon="11.610629173902545"><ele>291.0</ele><time>2026-05-03T15:00:12Z</time></trkpt><trkpt lat="43.23205553429005" lon="11.610461042085925"><ele>290.0</ele><time>2026-05-03T15:00:13Z</time></trkpt><trkpt lat="43.232122541417375" lon="11.610286991159327"><ele>289.0</ele><time>2026-05-03T15:00:14Z</time></trkpt><trkpt lat="43.232181129900354" lon="11.610104514588942"><ele>288.0</ele><time>2026-05-03T15:00:15Z</time></trkpt><trkpt lat="43.23222313985207" lon="11.609909185038996"><ele>287.0</ele><time>2026-05-03T15:00:16Z</time></trkpt><trkpt lat="43.23225450341456" lon="11.60970278839648"><ele>286.6666666666667</ele><time>2026-05-03T15:00:17Z</time></trkpt><trkpt lat="43.23227759653802" lon="11.609484803946899"><ele>286.3333333333333</ele><time>2026-05-03T15:00:18Z</time></trkpt><trkpt lat="43.23230517076888" lon="11.609261650989007"><ele>286.0</ele><time>2026-05-03T15:00:19Z</time></trkpt><trkpt lat="43.2323296312295" lon="11.609037401462151"><ele>286.0</ele><time>2026-05-03T15:00:20Z</time></trkpt><trkpt lat="43.232363325232456" lon="11.608814238349616"><ele>286.0</ele><time>2026-05-03T15:00:21Z</time></trkpt><trkpt lat="43.23236158739816" lon="11.608585780734352"><ele>286.0</ele><time>2026-05-03T15:00:22Z</time></trkpt><trkpt lat="43.232347042008" lon="11.60835597321911"><ele>284.66666666666663</ele><time>2026-05-03T15:00:23Z</time></trkpt><trkpt lat="43.23233199943307" lon="11.608125533900921"><ele>283.3333333333333</ele><time>2026-05-03T15:00:24Z</time></trkpt><trkpt lat="43.23231597134441" lon="11.607891025094043"><ele>282.0</ele><time>2026-05-03T15:00:25Z</time></trkpt><trkpt lat="43.23230007898947" lon="11.607659975055373"><ele>281.3333333333333</ele><time>2026-05-03T15:00:26Z</time></trkpt><trkpt lat="43.23228499481291" lon="11.60741245948734"><ele>280.66666666666663</ele><time>2026-05-03T15:00:27Z</time></trkpt><trkpt lat="43.232270289253805" lon="11.60717650281652"><ele>280.0</ele><time>2026-05-03T15:00:28Z</time></trkpt><trkpt lat="43.232256116744466" lon="11.606947596480923"><ele>278.66666666666663</ele><time>2026-05-03T15:00:29Z</time></trkpt><trkpt lat="43.2322420363556" lon="11.606718447560068"><ele>277.3333333333333</ele><time>2026-05-03T15:00:30Z</time></trkpt><trkpt lat="43.23222842202599" lon="11.606496883397211"><ele>276.0</ele><time>2026-05-03T15:00:31Z</time></trkpt><trkpt lat="43.232202986737285" lon="11.606287777424331"><ele>275.75</ele><time>2026-05-03T15:00:32Z</time></trkpt><trkpt lat="43.23219175429023" lon="11.606087902528477"><ele>275.5</ele><time>2026-05-03T15:00:33Z</time></trkpt><trkpt lat="43.2321924071821" lon="11.605902983783139"><ele>275.25</ele><time>2026-05-03T15:00:34Z</time></trkpt><trkpt lat="43.2321804773401" lon="11.60574272905173"><ele>275.0</ele><time>2026-05-03T15:00:35Z</time></trkpt><trkpt lat="43.232167219361386" lon="11.605605100842459"><ele>275.0</ele><time>2026-05-03T15:00:36Z</time></trkpt><trkpt lat="43.23216887328239" lon="11.605483014549021"><ele>275.0</ele><time>2026-05-03T15:00:37Z</time></trkpt><trkpt lat="43.23216426371768" lon="11.605369990213"><ele>275.0</ele><time>2026-05-03T15:00:38Z</time></trkpt><trkpt lat="43.232158126011115" lon="11.60526933025095"><ele>275.0</ele><time>2026-05-03T15:00:39Z</time></trkpt><trkpt lat="43.232153912438086" lon="11.60517133287727"><ele>275.0</ele><time>2026-05-03T15:00:40Z</time></trkpt><trkpt lat="43.232141532966686" lon="11.605057638565397"><ele>275.0</ele><time>2026-05-03T15:00:41Z</time></trkpt><trkpt lat="43.23212135769602" lon="11.604937251949018"><ele>274.6</ele><time>2026-05-03T15:00:42Z</time></trkpt><trkpt lat="43.23209630619285" lon="11.604807241949361"><ele>274.2</ele><time>2026-05-03T15:00:43Z</time></trkpt><trkpt lat="43.232068162647245" lon="11.60466854060056"><ele>273.8</ele><time>2026-05-03T15:00:44Z</time></trkpt><trkpt lat="43.23203860564592" lon="11.60451937232562"><ele>273.4</ele><time>2026-05-03T15:00:45Z</time></trkpt><trkpt lat="43.232001189929555" lon="11.604353885191438"><ele>273.0</ele><time>2026-05-03T15:00:46Z</time></trkpt><trkpt lat="43.23195729573926" lon="11.604169573979313"><ele>272.3333333333333</ele><time>2026-05-03T15:00:47Z</time></trkpt><trkpt lat="43.23188537619355" lon="11.60398616227419"><ele>271.66666666666663</ele><time>2026-05-03T15:00:48Z</time></trkpt><trkpt lat="43.23180379836454" lon="11.603793068444434"><ele>271.0</ele><time>2026-05-03T15:00:49Z</time></trkpt><trkpt lat="43.23173047658153" lon="11.60359572335202"><ele>271.0</ele><time>2026-05-03T15:00:50Z</time></trkpt><trkpt lat="43.23168148025911" lon="11.60338433706508"><ele>271.0</ele><time>2026-05-03T15:00:51Z</time></trkpt><trkpt lat="43.2316638228935" lon="11.603166419929996"><ele>271.0</ele><time>2026-05-03T15:00:52Z</time></trkpt><trkpt lat="43.23165938224011" lon="11.602924693339496"><ele>271.3333333333333</ele><time>2026-05-03T15:00:53Z</time></trkpt><trkpt lat="43.23165997948935" lon="11.60270136371257"><ele>271.6666666666667</ele><time>2026-05-03T15:00:54Z</time></trkpt><trkpt lat="43.231657209773346" lon="11.602487891427709"><ele>272.0</ele><time>2026-05-03T15:00:55Z</time></trkpt><trkpt lat="43.231655284205736" lon="11.60226733498072"><ele>272.0</ele><time>2026-05-03T15:00:56Z</time></trkpt><trkpt lat="43.23165215643726" lon="11.602052346116873"><ele>272.0</ele><time>2026-05-03T15:00:57Z</time></trkpt><trkpt lat="43.23165035509946" lon="11.601841211158572"><ele>272.0</ele><time>2026-05-03T15:00:58Z</time></trkpt><trkpt lat="43.23164829166781" lon="11.601631682351993"><ele>272.0</ele><time>2026-05-03T15:00:59Z</time></trkpt><trkpt lat="43.231648364897495" lon="11.601421911026913"><ele>272.0</ele><time>2026-05-03T15:01:00Z</time></trkpt><trkpt lat="43.23164592199872" lon="11.601213384287856"><ele>272.0</ele><time>2026-05-03T15:01:01Z</time></trkpt><trkpt lat="43.231648794035934" lon="11.601001563509726"><ele>272.33333333333337</ele><time>2026-05-03T15:01:02Z</time></trkpt><trkpt lat="43.231663510107396" lon="11.600788584515783"><ele>272.6666666666667</ele><time>2026-05-03T15:01:03Z</time></trkpt><trkpt lat="43.231704898450836" lon="11.60057769521566"><ele>273.0</ele><time>2026-05-03T15:01:04Z</time></trkpt><trkpt lat="43.231761961428724" lon="11.600368525414664"><ele>272.6666666666667</ele><time>2026-05-03T15:01:05Z</time></trkpt><trkpt lat="43.23182386831322" lon="11.600161446204266"><ele>272.33333333333337</ele><time>2026-05-03T15:01:06Z</time></trkpt><trkpt lat="43.231890319432786" lon="11.599953325675669"><ele>272.0</ele><time>2026-05-03T15:01:07Z</time></trkpt><trkpt lat="43.23195364268427" lon="11.599743716534176"><ele>272.0</ele><time>2026-05-03T15:01:08Z</time></trkpt><trkpt lat="43.23201912849934" lon="11.599541267278717"><ele>272.0</ele><time>2026-05-03T15:01:09Z</time></trkpt><trkpt lat="43.23208999085238" lon="11.599342751584679"><ele>272.0</ele><time>2026-05-03T15:01:10Z</time></trkpt><trkpt lat="43.23215606523652" lon="11.599150493327521"><ele>272.0</ele><time>2026-05-03T15:01:11Z</time></trkpt><trkpt lat="43.23222032517389" lon="11.598968286645261"><ele>272.0</ele><time>2026-05-03T15:01:12Z</time></trkpt><trkpt lat="43.23227262725336" lon="11.598792915455016"><ele>272.0</ele><time>2026-05-03T15:01:13Z</time></trkpt><trkpt lat="43.23231626332937" lon="11.59861233801036"><ele>272.0</ele><time>2026-05-03T15:01:14Z</time></trkpt><trkpt lat="43.23235017212799" lon="11.598421576632655"><ele>272.33333333333337</ele><time>2026-05-03T15:01:15Z</time></trkpt><trkpt lat="43.232374844273124" lon="11.598222702170727"><ele>272.6666666666667</ele><time>2026-05-03T15:01:16Z</time></trkpt><trkpt lat="43.232403349627994" lon="11.598013037243296"><ele>273.0</ele><time>2026-05-03T15:01:17Z</time></trkpt><trkpt lat="43.232433108977254" lon="11.597797635518178"><ele>271.0</ele><time>2026-05-03T15:01:18Z</time></trkpt><trkpt lat="43.2324612049913" lon="11.597575827225622"><ele>269.0</ele><time>2026-05-03T15:01:19Z</time></trkpt><trkpt lat="43.23248576407436" lon="11.5973530331003"><ele>267.0</ele><time>2026-05-03T15:01:20Z</time></trkpt><trkpt lat="43.23250950101682" lon="11.597127905624305"><ele>266.0</ele><time>2026-05-03T15:01:21Z</time></trkpt><trkpt lat="43.23252729275939" lon="11.596901062049445"><ele>265.0</ele><time>2026-05-03T15:01:22Z</time></trkpt><trkpt lat="43.23254271962053" lon="11.596671598307742"><ele>264.0</ele><time>2026-05-03T15:01:23Z</time></trkpt><trkpt lat="43.23254843003706" lon="11.596445245780247"><ele>264.0</ele><time>2026-05-03T15:01:24Z</time></trkpt><trkpt lat="43.23255142299744" lon="11.596214081748403"><ele>264.0</ele><time>2026-05-03T15:01:25Z</time></trkpt><trkpt lat="43.23255488622967" lon="11.595986933419722"><ele>264.0</ele><time>2026-05-03T15:01:26Z</time></trkpt><trkpt lat="43.23255985203022" lon="11.595757213767184"><ele>262.6666666666667</ele><time>2026-05-03T15:01:27Z</time></trkpt><trkpt lat="43.23256629261402" lon="11.595527849483764"><ele>261.33333333333337</ele><time>2026-05-03T15:01:28Z</time></trkpt><trkpt lat="43.2325710622141" lon="11.595296423024212"><ele>260.0</ele><time>2026-05-03T15:01:29Z</time></trkpt><trkpt lat="43.23256730127621" lon="11.59506406863452"><ele>259.0</ele><time>2026-05-03T15:01:30Z</time></trkpt><trkpt lat="43.23256527662999" lon="11.594822905251432"><ele>258.0</ele><time>2026-05-03T15:01:31Z</time></trkpt><trkpt lat="43.23253516311397" lon="11.59458534157894"><ele>257.0</ele><time>2026-05-03T15:01:32Z</time></trkpt><trkpt lat="43.232488173330616" lon="11.594351343969334"><ele>256.33333333333337</ele><time>2026-05-03T15:01:33Z</time></trkpt><trkpt lat="43.23243436903217" lon="11.594123423225442"><ele>255.66666666666669</ele><time>2026-05-03T15:01:34Z</time></trkpt><trkpt lat="43.23236481114178" lon="11.593903957469937"><ele>255.0</ele><time>2026-05-03T15:01:35Z</time></trkpt><trkpt lat="43.23231037241716" lon="11.5936775978742"><ele>252.0</ele><time>2026-05-03T15:01:36Z</time></trkpt><trkpt lat="43.23225139284915" lon="11.593461649209722"><ele>249.0</ele><time>2026-05-03T15:01:37Z</time></trkpt><trkpt lat="43.2321967885481" lon="11.593237963207484"><ele>246.0</ele><time>2026-05-03T15:01:38Z</time></trkpt><trkpt lat="43.23215167460397" lon="11.593005460408984"><ele>247.66666666666669</ele><time>2026-05-03T15:01:39Z</time></trkpt><trkpt lat="43.23209302191289" lon="11.592792595708842"><ele>249.33333333333334</ele><time>2026-05-03T15:01:40Z</time></trkpt><trkpt lat="43.23202383211741" lon="11.592586641289548"><ele>251.0</ele><time>2026-05-03T15:01:41Z</time></trkpt><trkpt lat="43.231948456922446" lon="11.592383185069849"><ele>251.0</ele><time>2026-05-03T15:01:42Z</time></trkpt><trkpt lat="43.231863337953634" lon="11.592179486194874"><ele>251.0</ele><time>2026-05-03T15:01:43Z</time></trkpt><trkpt lat="43.23177409553111" lon="11.5919738913426"><ele>251.0</ele><time>2026-05-03T15:01:44Z</time></trkpt><trkpt lat="43.2316758569516" lon="11.591775526231109"><ele>251.66666666666669</ele><time>2026-05-03T15:01:45Z</time></trkpt><trkpt lat="43.231608451639524" lon="11.591552027507738"><ele>252.33333333333331</ele><time>2026-05-03T15:01:46Z</time></trkpt><trkpt lat="43.23154715756531" lon="11.591322336399571"><ele>253.0</ele><time>2026-05-03T15:01:47Z</time></trkpt><trkpt lat="43.231507255253355" lon="11.591093448335018"><ele>252.33333333333331</ele><time>2026-05-03T15:01:48Z</time></trkpt><trkpt lat="43.231450559155775" lon="11.590869668067956"><ele>251.66666666666669</ele><time>2026-05-03T15:01:49Z</time></trkpt><trkpt lat="43.23139287249693" lon="11.590644321506442"><ele>251.0</ele><time>2026-05-03T15:01:50Z</time></trkpt><trkpt lat="43.23133559770214" lon="11.59042183611594"><ele>251.66666666666669</ele><time>2026-05-03T15:01:51Z</time></trkpt><trkpt lat="43.23127300281143" lon="11.590203305759175"><ele>252.33333333333331</ele><time>2026-05-03T15:01:52Z</time></trkpt><trkpt lat="43.23120297245866" lon="11.589992998414681"><ele>253.0</ele><time>2026-05-03T15:01:53Z</time></trkpt><trkpt lat="43.231130096023364" lon="11.589787476364625"><ele>253.0</ele><time>2026-05-03T15:01:54Z</time></trkpt><trkpt lat="43.231058954068544" lon="11.589587753615161"><ele>253.0</ele><time>2026-05-03T15:01:55Z</time></trkpt><trkpt lat="43.23098803907892" lon="11.589388667893804"><ele>253.0</ele><time>2026-05-03T15:01:56Z</time></trkpt><trkpt lat="43.23090768393809" lon="11.589203995616762"><ele>253.75</ele><time>2026-05-03T15:01:57Z</time></trkpt><trkpt lat="43.23086205758487" lon="11.589007206880789"><ele>254.5</ele><time>2026-05-03T15:01:58Z</time></trkpt><trkpt lat="43.230837127151965" lon="11.588809972411374"><ele>255.25</ele><time>2026-05-03T15:01:59Z</time></trkpt><trkpt lat="43.23083470959435" lon="11.58861399424718"><ele>256.0</ele><time>2026-05-03T15:02:00Z</time></trkpt><trkpt lat="43.23084170624335" lon="11.588415463022754"><ele>256.0</ele><time>2026-05-03T15:02:01Z</time></trkpt><trkpt lat="43.230851847370275" lon="11.588212147020018"><ele>256.0</ele><time>2026-05-03T15:02:02Z</time></trkpt><trkpt lat="43.230853749954086" lon="11.5880080061713"><ele>256.0</ele><time>2026-05-03T15:02:03Z</time></trkpt><trkpt lat="43.230875701430485" lon="11.58781351736869"><ele>256.0</ele><time>2026-05-03T15:02:04Z</time></trkpt><trkpt lat="43.2308831918769" lon="11.587611333692951"><ele>256.0</ele><time>2026-05-03T15:02:05Z</time></trkpt><trkpt lat="43.230890763392345" lon="11.587406961804604"><ele>256.0</ele><time>2026-05-03T15:02:06Z</time></trkpt><trkpt lat="43.230897924246186" lon="11.587202399276746"><ele>256.0</ele><time>2026-05-03T15:02:07Z</time></trkpt><trkpt lat="43.230895220245074" lon="11.586991318258583"><ele>255.66666666666666</ele><time>2026-05-03T15:02:08Z</time></trkpt><trkpt lat="43.23092885516918" lon="11.586778607265902"><ele>255.33333333333331</ele><time>2026-05-03T15:02:09Z</time></trkpt><trkpt lat="43.230986625382215" lon="11.586561753699533"><ele>255.0</ele><time>2026-05-03T15:02:10Z</time></trkpt><trkpt lat="43.23105296514411" lon="11.586339184656284"><ele>255.0</ele><time>2026-05-03T15:02:11Z</time></trkpt><trkpt lat="43.231120943838306" lon="11.58611335585855"><ele>255.0</ele><time>2026-05-03T15:02:12Z</time></trkpt><trkpt lat="43.23118820846953" lon="11.585879592812601"><ele>255.0</ele><time>2026-05-03T15:02:13Z</time></trkpt><trkpt lat="43.231257348803844" lon="11.58564071007864"><ele>255.0</ele><time>2026-05-03T15:02:14Z</time></trkpt><trkpt lat="43.231327539509415" lon="11.58540669751898"><ele>255.0</ele><time>2026-05-03T15:02:15Z</time></trkpt><trkpt lat="43.231399385965865" lon="11.58517428671371"><ele>255.0</ele><time>2026-05-03T15:02:16Z</time></trkpt><trkpt lat="43.2314727694802" lon="11.584944531314806"><ele>255.0</ele><time>2026-05-03T15:02:17Z</time></trkpt><trkpt lat="43.23154265555076" lon="11.584713962310502"><ele>255.0</ele><time>2026-05-03T15:02:18Z</time></trkpt><trkpt lat="43.23160511596278" lon="11.584484442508852"><ele>255.0</ele><time>2026-05-03T15:02:19Z</time></trkpt><trkpt lat="43.23165709560477" lon="11.584254575732524"><ele>255.0</ele><time>2026-05-03T15:02:20Z</time></trkpt><trkpt lat="43.231699869312756" lon="11.58403285191266"><ele>255.0</ele><time>2026-05-03T15:02:21Z</time></trkpt><trkpt lat="43.2317329314478" lon="11.583816727297252"><ele>255.0</ele><time>2026-05-03T15:02:22Z</time></trkpt><trkpt lat="43.2317534990706" lon="11.583614079109724"><ele>255.0</ele><time>2026-05-03T15:02:23Z</time></trkpt><trkpt lat="43.231754654085385" lon="11.583408204822195"><ele>255.0</ele><time>2026-05-03T15:02:24Z</time></trkpt><trkpt lat="43.231739506082995" lon="11.583198860892654"><ele>255.0</ele><time>2026-05-03T15:02:25Z</time></trkpt><trkpt lat="43.23171546606611" lon="11.582990780441346"><ele>255.33333333333331</ele><time>2026-05-03T15:02:26Z</time></trkpt><trkpt lat="43.231689977363104" lon="11.582777638789697"><ele>255.66666666666666</ele><time>2026-05-03T15:02:27Z</time></trkpt><trkpt lat="43.23166407754596" lon="11.58256431328868"><ele>256.0</ele><time>2026-05-03T15:02:28Z</time></trkpt><trkpt lat="43.231640082976114" lon="11.582348838452324"><ele>256.0</ele><time>2026-05-03T15:02:29Z</time></trkpt><trkpt lat="43.231614494754524" lon="11.582127415150545"><ele>256.0</ele><time>2026-05-03T15:02:30Z</time></trkpt><trkpt lat="43.23158804069522" lon="11.581905008839403"><ele>256.0</ele><time>2026-05-03T15:02:31Z</time></trkpt><trkpt lat="43.23157764498672" lon="11.581677248984795"><ele>255.0</ele><time>2026-05-03T15:02:32Z</time></trkpt><trkpt lat="43.23153961079517" lon="11.581445345399038"><ele>254.0</ele><time>2026-05-03T15:02:33Z</time></trkpt><trkpt lat="43.23152109819465" lon="11.581209604659119"><ele>253.0</ele><time>2026-05-03T15:02:34Z</time></trkpt><trkpt lat="43.23150133291911" lon="11.580969459311488"><ele>253.0</ele><time>2026-05-03T15:02:35Z</time></trkpt><trkpt lat="43.23148146548858" lon="11.58072878344088"><ele>253.0</ele><time>2026-05-03T15:02:36Z</time></trkpt><trkpt lat="43.23146131013615" lon="11.58048164575688"><ele>253.0</ele><time>2026-05-03T15:02:37Z</time></trkpt><trkpt lat="43.231441950692684" lon="11.58022934416086"><ele>251.66666666666666</ele><time>2026-05-03T15:02:38Z</time></trkpt><trkpt lat="43.23142222133049" lon="11.579976520164337"><ele>250.33333333333331</ele><time>2026-05-03T15:02:39Z</time></trkpt><trkpt lat="43.23140066058078" lon="11.579723263243825"><ele>249.0</ele><time>2026-05-03T15:02:40Z</time></trkpt><trkpt lat="43.2313819303904" lon="11.579463415143316"><ele>248.33333333333331</ele><time>2026-05-03T15:02:41Z</time></trkpt><trkpt lat="43.23136609346784" lon="11.579201713128645"><ele>247.66666666666666</ele><time>2026-05-03T15:02:42Z</time></trkpt><trkpt lat="43.231347294278024" lon="11.578932869031693"><ele>247.0</ele><time>2026-05-03T15:02:43Z</time></trkpt><trkpt lat="43.231329360163876" lon="11.578664902770422"><ele>246.33333333333331</ele><time>2026-05-03T15:02:44Z</time></trkpt><trkpt lat="43.23131344991174" lon="11.578403861082782"><ele>245.66666666666669</ele><time>2026-05-03T15:02:45Z</time></trkpt><trkpt lat="43.23129908865889" lon="11.578142199186038"><ele>245.0</ele><time>2026-05-03T15:02:46Z</time></trkpt><trkpt lat="43.2312853521867" lon="11.577880965235604"><ele>244.33333333333334</ele><time>2026-05-03T15:02:47Z</time></trkpt><trkpt lat="43.23127279357674" lon="11.577625118821809"><ele>243.66666666666669</ele><time>2026-05-03T15:02:48Z</time></trkpt><trkpt lat="43.23126314906352" lon="11.577382722610665"><ele>243.0</ele><time>2026-05-03T15:02:49Z</time></trkpt><trkpt lat="43.23125036837054" lon="11.577152847898951"><ele>243.0</ele><time>2026-05-03T15:02:50Z</time></trkpt><trkpt lat="43.23123809364398" lon="11.576935151322077"><ele>243.0</ele><time>2026-05-03T15:02:51Z</time></trkpt><trkpt lat="43.23121712775943" lon="11.576731334807393"><ele>243.0</ele><time>2026-05-03T15:02:52Z</time></trkpt><trkpt lat="43.23118969456508" lon="11.576533517738822"><ele>243.0</ele><time>2026-05-03T15:02:53Z</time></trkpt><trkpt lat="43.231156243207394" lon="11.576346565913003"><ele>243.0</ele><time>2026-05-03T15:02:54Z</time></trkpt><trkpt lat="43.23112050042705" lon="11.576169292845584"><ele>243.0</ele><time>2026-05-03T15:02:55Z</time></trkpt><trkpt lat="43.231088938508414" lon="11.575993626594514"><ele>243.0</ele><time>2026-05-03T15:02:56Z</time></trkpt><trkpt lat="43.23106133364434" lon="11.57582838541803"><ele>243.0</ele><time>2026-05-03T15:02:57Z</time></trkpt><trkpt lat="43.23103744767515" lon="11.575675757972197"><ele>243.0</ele><time>2026-05-03T15:02:58Z</time></trkpt><trkpt lat="43.231010115052854" lon="11.575529157327594"><ele>243.0</ele><time>2026-05-03T15:02:59Z</time></trkpt><trkpt lat="43.23097964308723" lon="11.575384478094238"><ele>243.0</ele><time>2026-05-03T15:03:00Z</time></trkpt><trkpt lat="43.23094945073689" lon="11.575226028463879"><ele>242.5</ele><time>2026-05-03T15:03:01Z</time></trkpt><trkpt lat="43.230920895695654" lon="11.575064578947273"><ele>242.0</ele><time>2026-05-03T15:03:02Z</time></trkpt><trkpt lat="43.23089439787192" lon="11.574900009910873"><ele>241.5</ele><time>2026-05-03T15:03:03Z</time></trkpt><trkpt lat="43.2308717568918" lon="11.57473000761043"><ele>241.0</ele><time>2026-05-03T15:03:04Z</time></trkpt><trkpt lat="43.23084923249646" lon="11.574557972123435"><ele>241.25</ele><time>2026-05-03T15:03:05Z</time></trkpt><trkpt lat="43.230826058075564" lon="11.574370963152397"><ele>241.5</ele><time>2026-05-03T15:03:06Z</time></trkpt><trkpt lat="43.23079928568456" lon="11.574175661650617"><ele>241.75</ele><time>2026-05-03T15:03:07Z</time></trkpt><trkpt lat="43.23077063679088" lon="11.573968064652961"><ele>242.0</ele><time>2026-05-03T15:03:08Z</time></trkpt><trkpt lat="43.23074445180865" lon="11.57376324038842"><ele>241.75</ele><time>2026-05-03T15:03:09Z</time></trkpt><trkpt lat="43.23071670294813" lon="11.573570567722253"><ele>241.5</ele><time>2026-05-03T15:03:10Z</time></trkpt><trkpt lat="43.23069110613422" lon="11.573390761667218"><ele>241.25</ele><time>2026-05-03T15:03:11Z</time></trkpt><trkpt lat="43.230668453783416" lon="11.5732165845757"><ele>241.0</ele><time>2026-05-03T15:03:12Z</time></trkpt><trkpt lat="43.230646140858525" lon="11.573054073571889"><ele>241.0</ele><time>2026-05-03T15:03:13Z</time></trkpt><trkpt lat="43.230629608735875" lon="11.57289897238994"><ele>241.00000000000003</ele><time>2026-05-03T15:03:14Z</time></trkpt><trkpt lat="43.23061021765968" lon="11.572756511696682"><ele>241.00000000000003</ele><time>2026-05-03T15:03:15Z</time></trkpt><trkpt lat="43.23059184557585" lon="11.57262578249752"><ele>241.0</ele><time>2026-05-03T15:03:16Z</time></trkpt><trkpt lat="43.230573811095816" lon="11.572503228620308"><ele>241.0</ele><time>2026-05-03T15:03:17Z</time></trkpt><trkpt lat="43.23055448388486" lon="11.57237780105856"><ele>241.0</ele><time>2026-05-03T15:03:18Z</time></trkpt><trkpt lat="43.230535426630624" lon="11.572243145418941"><ele>241.0</ele><time>2026-05-03T15:03:19Z</time></trkpt><trkpt lat="43.23050992749774" lon="11.572099179588676"><ele>241.0</ele><time>2026-05-03T15:03:20Z</time></trkpt><trkpt lat="43.23047634118407" lon="11.571933939330014"><ele>241.0</ele><time>2026-05-03T15:03:21Z</time></trkpt><trkpt lat="43.230453406929904" lon="11.571745748883854"><ele>241.0</ele><time>2026-05-03T15:03:22Z</time></trkpt><trkpt lat="43.23040877595716" lon="11.571556598496445"><ele>241.0</ele><time>2026-05-03T15:03:23Z</time></trkpt><trkpt lat="43.23034585309575" lon="11.571378886094202"><ele>241.0</ele><time>2026-05-03T15:03:24Z</time></trkpt><trkpt lat="43.230299489110344" lon="11.571202318977537"><ele>241.0</ele><time>2026-05-03T15:03:25Z</time></trkpt><trkpt lat="43.23025331737799" lon="11.571033542443725"><ele>240.75</ele><time>2026-05-03T15:03:26Z</time></trkpt><trkpt lat="43.230204694308334" lon="11.570878321476293"><ele>240.5</ele><time>2026-05-03T15:03:27Z</time></trkpt><trkpt lat="43.23014473346882" lon="11.570723888326505"><ele>240.25</ele><time>2026-05-03T15:03:28Z</time></trkpt><trkpt lat="43.23007602692967" lon="11.570562189880219"><ele>240.0</ele><time>2026-05-03T15:03:29Z</time></trkpt><trkpt lat="43.229992795735704" lon="11.570434337061753"><ele>239.8</ele><time>2026-05-03T15:03:30Z</time></trkpt><trkpt lat="43.2299104994174" lon="11.570321476862201"><ele>239.6</ele><time>2026-05-03T15:03:31Z</time></trkpt><trkpt lat="43.229825952494416" lon="11.570233544676643"><ele>239.39999999999998</ele><time>2026-05-03T15:03:32Z</time></trkpt><trkpt lat="43.22976170918265" lon="11.570143485272942"><ele>239.2</ele><time>2026-05-03T15:03:33Z</time></trkpt><trkpt lat="43.229703589289365" lon="11.57006249898223"><ele>239.0</ele><time>2026-05-03T15:03:34Z</time></trkpt><trkpt lat="43.229647675159256" lon="11.569985553887843"><ele>239.0</ele><time>2026-05-03T15:03:35Z</time></trkpt><trkpt lat="43.22958866644369" lon="11.56991019056604"><ele>238.99999999999997</ele><time>2026-05-03T15:03:36Z</time></trkpt><trkpt lat="43.22952125879934" lon="11.569823486331348"><ele>238.99999999999997</ele><time>2026-05-03T15:03:37Z</time></trkpt><trkpt lat="43.22944986910285" lon="11.56972883905831"><ele>239.0</ele><time>2026-05-03T15:03:38Z</time></trkpt><trkpt lat="43.22938253258726" lon="11.569609954856462"><ele>239.0</ele><time>2026-05-03T15:03:39Z</time></trkpt><trkpt lat="43.2293259256215" lon="11.569463124328198"><ele>238.75</ele><time>2026-05-03T15:03:40Z</time></trkpt><trkpt lat="43.22928072354114" lon="11.569295419727252"><ele>238.5</ele><time>2026-05-03T15:03:41Z</time></trkpt><trkpt lat="43.22924759113024" lon="11.569119423980213"><ele>238.25</ele><time>2026-05-03T15:03:42Z</time></trkpt><trkpt lat="43.229206684279575" lon="11.568960372430345"><ele>238.0</ele><time>2026-05-03T15:03:43Z</time></trkpt><trkpt lat="43.22916838499771" lon="11.56881585185962"><ele>237.8</ele><time>2026-05-03T15:03:44Z</time></trkpt><trkpt lat="43.22914874014567" lon="11.568669452247047"><ele>237.60000000000002</ele><time>2026-05-03T15:03:45Z</time></trkpt><trkpt lat="43.229130749644845" lon="11.56853393566426"><ele>237.39999999999998</ele><time>2026-05-03T15:03:46Z</time></trkpt><trkpt lat="43.22912838522495" lon="11.568403484592062"><ele>237.2</ele><time>2026-05-03T15:03:47Z</time></trkpt><trkpt lat="43.229150329772054" lon="11.5682786256918"><ele>237.0</ele><time>2026-05-03T15:03:48Z</time></trkpt><trkpt lat="43.22919306861267" lon="11.568144699606933"><ele>237.0</ele><time>2026-05-03T15:03:49Z</time></trkpt><trkpt lat="43.229255173125516" lon="11.568003283300577"><ele>237.0</ele><time>2026-05-03T15:03:50Z</time></trkpt><trkpt lat="43.229329649470365" lon="11.567845126055236"><ele>237.0</ele><time>2026-05-03T15:03:51Z</time></trkpt><trkpt lat="43.22941151279095" lon="11.56767039194349"><ele>237.0</ele><time>2026-05-03T15:03:52Z</time></trkpt><trkpt lat="43.229496029948635" lon="11.567483971822655"><ele>236.66666666666669</ele><time>2026-05-03T15:03:53Z</time></trkpt><trkpt lat="43.22958543530289" lon="11.567287448680592"><ele>236.33333333333334</ele><time>2026-05-03T15:03:54Z</time></trkpt><trkpt lat="43.22966939029955" lon="11.567087894670747"><ele>236.0</ele><time>2026-05-03T15:03:55Z</time></trkpt><trkpt lat="43.22974476162638" lon="11.56689696117069"><ele>235.5</ele><time>2026-05-03T15:03:56Z</time></trkpt><trkpt lat="43.22981481273872" lon="11.56671989568199"><ele>235.0</ele><time>2026-05-03T15:03:57Z</time></trkpt><trkpt lat="43.22988133635841" lon="11.566550873856514"><ele>234.5</ele><time>2026-05-03T15:03:58Z</time></trkpt><trkpt lat="43.22995500073808" lon="11.566384799993838"><ele>234.0</ele><time>2026-05-03T15:03:59Z</time></trkpt><trkpt lat="43.230039859306416" lon="11.566234746926073"><ele>234.33333333333331</ele><time>2026-05-03T15:04:00Z</time></trkpt><trkpt lat="43.23011669953051" lon="11.566061443587637"><ele>234.66666666666666</ele><time>2026-05-03T15:04:01Z</time></trkpt><trkpt lat="43.23018151754352" lon="11.5658734688403"><ele>235.0</ele><time>2026-05-03T15:04:02Z</time></trkpt><trkpt lat="43.2302551322981" lon="11.565687363040968"><ele>235.0</ele><time>2026-05-03T15:04:03Z</time></trkpt><trkpt lat="43.230318423716284" lon="11.565495019975652"><ele>235.0</ele><time>2026-05-03T15:04:04Z</time></trkpt><trkpt lat="43.23039016881794" lon="11.565301389682052"><ele>235.0</ele><time>2026-05-03T15:04:05Z</time></trkpt><trkpt lat="43.230460608370876" lon="11.565108700218806"><ele>234.75</ele><time>2026-05-03T15:04:06Z</time></trkpt><trkpt lat="43.230526104862456" lon="11.564928101464208"><ele>234.5</ele><time>2026-05-03T15:04:07Z</time></trkpt><trkpt lat="43.230584569994896" lon="11.56476099657691"><ele>234.25</ele><time>2026-05-03T15:04:08Z</time></trkpt><trkpt lat="43.23066027409514" lon="11.564603798437625"><ele>234.0</ele><time>2026-05-03T15:04:09Z</time></trkpt><trkpt lat="43.23071911483589" lon="11.564453506730079"><ele>232.25</ele><time>2026-05-03T15:04:10Z</time></trkpt><trkpt lat="43.230778003882506" lon="11.564309656515052"><ele>230.5</ele><time>2026-05-03T15:04:11Z</time></trkpt><trkpt lat="43.23083670540739" lon="11.564171292169078"><ele>228.75</ele><time>2026-05-03T15:04:12Z</time></trkpt><trkpt lat="43.23089857444588" lon="11.564038724511947"><ele>227.0</ele><time>2026-05-03T15:04:13Z</time></trkpt><trkpt lat="43.23095802681945" lon="11.56391568390412"><ele>227.00000000000003</ele><time>2026-05-03T15:04:14Z</time></trkpt><trkpt lat="43.2310135070886" lon="11.563797528612204"><ele>227.0</ele><time>2026-05-03T15:04:15Z</time></trkpt><trkpt lat="43.23106264973676" lon="11.563683449191164"><ele>227.0</ele><time>2026-05-03T15:04:16Z</time></trkpt><trkpt lat="43.231114357353064" lon="11.563582471118105"><ele>227.0</ele><time>2026-05-03T15:04:17Z</time></trkpt><trkpt lat="43.23116677186279" lon="11.563502797775607"><ele>227.00000000000003</ele><time>2026-05-03T15:04:18Z</time></trkpt><trkpt lat="43.23123066501009" lon="11.5634484559549"><ele>227.0</ele><time>2026-05-03T15:04:19Z</time></trkpt><trkpt lat="43.231290234777845" lon="11.563402831885009"><ele>227.00000000000003</ele><time>2026-05-03T15:04:20Z</time></trkpt><trkpt lat="43.231348871064355" lon="11.563365901943934"><ele>227.0</ele><time>2026-05-03T15:04:21Z</time></trkpt><trkpt lat="43.231415815399416" lon="11.56333057188814"><ele>227.0</ele><time>2026-05-03T15:04:22Z</time></trkpt><trkpt lat="43.23150118543661" lon="11.563289258905943"><ele>227.0</ele><time>2026-05-03T15:04:23Z</time></trkpt><trkpt lat="43.23159913371396" lon="11.563245331750103"><ele>227.00000000000003</ele><time>2026-05-03T15:04:24Z</time></trkpt><trkpt lat="43.23169855736958" lon="11.563205663985569"><ele>227.0</ele><time>2026-05-03T15:04:25Z</time></trkpt><trkpt lat="43.231795690407104" lon="11.563165710717628"><ele>225.8</ele><time>2026-05-03T15:04:26Z</time></trkpt><trkpt lat="43.23188672099373" lon="11.563132583922586"><ele>224.6</ele><time>2026-05-03T15:04:27Z</time></trkpt><trkpt lat="43.23197476220725" lon="11.563099202608162"><ele>223.40000000000003</ele><time>2026-05-03T15:04:28Z</time></trkpt><trkpt lat="43.232063452408475" lon="11.563055022742779"><ele>222.20000000000002</ele><time>2026-05-03T15:04:29Z</time></trkpt><trkpt lat="43.23215063504622" lon="11.56301401489652"><ele>221.0</ele><time>2026-05-03T15:04:30Z</time></trkpt><trkpt lat="43.23223259945675" lon="11.56298314978383"><ele>219.8</ele><time>2026-05-03T15:04:31Z</time></trkpt><trkpt lat="43.23231640006328" lon="11.56294511284407"><ele>218.60000000000002</ele><time>2026-05-03T15:04:32Z</time></trkpt><trkpt lat="43.2324064030937" lon="11.562903296253095"><ele>217.4</ele><time>2026-05-03T15:04:33Z</time></trkpt><trkpt lat="43.2324984438769" lon="11.562857464607044"><ele>216.2</ele><time>2026-05-03T15:04:34Z</time></trkpt><trkpt lat="43.23258599406436" lon="11.562814330104867"><ele>215.0</ele><time>2026-05-03T15:04:35Z</time></trkpt><trkpt lat="43.23267827607949" lon="11.562797889824132"><ele>215.00000000000003</ele><time>2026-05-03T15:04:36Z</time></trkpt><trkpt lat="43.23274923843362" lon="11.562749233208343"><ele>215.0</ele><time>2026-05-03T15:04:37Z</time></trkpt><trkpt lat="43.23282701544808" lon="11.562753820052036"><ele>215.0</ele><time>2026-05-03T15:04:38Z</time></trkpt><trkpt lat="43.23289595780273" lon="11.562783589498276"><ele>215.0</ele><time>2026-05-03T15:04:39Z</time></trkpt><trkpt lat="43.232965952243795" lon="11.56282682476981"><ele>215.00000000000003</ele><time>2026-05-03T15:04:40Z</time></trkpt><trkpt lat="43.23304138993699" lon="11.562885497652456"><ele>215.0</ele><time>2026-05-03T15:04:41Z</time></trkpt><trkpt lat="43.23310528574527" lon="11.562931358234968"><ele>213.8</ele><time>2026-05-03T15:04:42Z</time></trkpt><trkpt lat="43.23317043946354" lon="11.562958329662333"><ele>212.6</ele><time>2026-05-03T15:04:43Z</time></trkpt><trkpt lat="43.233281424257434" lon="11.563009454314681"><ele>211.39999999999998</ele><time>2026-05-03T15:04:45Z</time></trkpt><trkpt lat="43.23340341176427" lon="11.562903238941818"><ele>210.2</ele><time>2026-05-03T15:04:47Z</time></trkpt><trkpt lat="43.233468910942214" lon="11.562849429229574"><ele>209.0</ele><time>2026-05-03T15:04:48Z</time></trkpt><trkpt lat="43.233542122391725" lon="11.562785677651924"><ele>209.00000000000003</ele><time>2026-05-03T15:04:49Z</time></trkpt><trkpt lat="43.23361569614926" lon="11.56271567144229"><ele>209.0</ele><time>2026-05-03T15:04:50Z</time></trkpt><trkpt lat="43.233686710299104" lon="11.562656541407073"><ele>209.0</ele><time>2026-05-03T15:04:51Z</time></trkpt><trkpt lat="43.23375049042683" lon="11.562607983763497"><ele>209.0</ele><time>2026-05-03T15:04:52Z</time></trkpt><trkpt lat="43.2338099981767" lon="11.562563694125378"><ele>209.00000000000003</ele><time>2026-05-03T15:04:53Z</time></trkpt><trkpt lat="43.233899076485855" lon="11.562491580287784"><ele>209.0</ele><time>2026-05-03T15:04:55Z</time></trkpt><trkpt lat="43.23394938028328" lon="11.562439195262174"><ele>209.0</ele><time>2026-05-03T15:04:57Z</time></trkpt><trkpt lat="43.23394913464914" lon="11.562297878216162"><ele>209.0</ele><time>2026-05-03T15:05:07Z</time></trkpt><trkpt lat="43.23389685977749" lon="11.562161281818023"><ele>209.0</ele><time>2026-05-03T15:05:09Z</time></trkpt><trkpt lat="43.233852830092054" lon="11.562073588383848"><ele>209.0</ele><time>2026-05-03T15:05:11Z</time></trkpt><trkpt lat="43.2338226756655" lon="11.561989811894609"><ele>209.0</ele><time>2026-05-03T15:05:13Z</time></trkpt><trkpt lat="43.233772184177056" lon="11.561888153561704"><ele>208.39999999999998</ele><time>2026-05-03T15:05:15Z</time></trkpt><trkpt lat="43.23371709223085" lon="11.561776080356466"><ele>207.8</ele><time>2026-05-03T15:05:17Z</time></trkpt><trkpt lat="43.233676444023466" lon="11.561668452548789"><ele>207.2</ele><time>2026-05-03T15:05:19Z</time></trkpt><trkpt lat="43.23362769779627" lon="11.561612834878822"><ele>206.60000000000002</ele><time>2026-05-03T15:05:21Z</time></trkpt><trkpt lat="43.233700938162364" lon="11.561540830120816"><ele>206.0</ele><time>2026-05-03T15:05:22Z</time></trkpt><trkpt lat="43.23377846881391" lon="11.561399515002021"><ele>206.00000000000003</ele><time>2026-05-03T15:05:24Z</time></trkpt><trkpt lat="43.233848225106925" lon="11.561239597428862"><ele>206.0</ele><time>2026-05-03T15:05:26Z</time></trkpt><trkpt lat="43.23391019680757" lon="11.561156163002897"><ele>206.0</ele><time>2026-05-03T15:05:27Z</time></trkpt><trkpt lat="43.2339497714327" lon="11.561054518080082"><ele>206.0</ele><time>2026-05-03T15:05:28Z</time></trkpt><trkpt lat="43.23398097496399" lon="11.560966908055047"><ele>206.00000000000003</ele><time>2026-05-03T15:05:29Z</time></trkpt><trkpt lat="43.234003930302144" lon="11.560885712955079"><ele>206.0</ele><time>2026-05-03T15:05:30Z</time></trkpt><trkpt lat="43.234026750118986" lon="11.560740122551573"><ele>205.8</ele><time>2026-05-03T15:05:32Z</time></trkpt><trkpt lat="43.23401768371857" lon="11.560597025608448"><ele>205.60000000000002</ele><time>2026-05-03T15:05:34Z</time></trkpt><trkpt lat="43.23401108875175" lon="11.560462268899292"><ele>205.4</ele><time>2026-05-03T15:05:36Z</time></trkpt><trkpt lat="43.233996755008214" lon="11.560286317080717"><ele>205.2</ele><time>2026-05-03T15:05:38Z</time></trkpt><trkpt lat="43.23398905367982" lon="11.560166371593336"><ele>205.0</ele><time>2026-05-03T15:05:39Z</time></trkpt><trkpt lat="43.2339846306921" lon="11.560045385156009"><ele>204.0</ele><time>2026-05-03T15:05:40Z</time></trkpt><trkpt lat="43.23396938102174" lon="11.559913302812076"><ele>203.0</ele><time>2026-05-03T15:05:41Z</time></trkpt><trkpt lat="43.23395303536745" lon="11.559770702412084"><ele>202.0</ele><time>2026-05-03T15:05:42Z</time></trkpt><trkpt lat="43.233928827014715" lon="11.559606506321854"><ele>201.0</ele><time>2026-05-03T15:05:43Z</time></trkpt><trkpt lat="43.233900412949" lon="11.559440602440988"><ele>200.0</ele><time>2026-05-03T15:05:44Z</time></trkpt><trkpt lat="43.23387335036848" lon="11.559284870625785"><ele>198.4</ele><time>2026-05-03T15:05:45Z</time></trkpt><trkpt lat="43.23384878703233" lon="11.559135064572438"><ele>196.8</ele><time>2026-05-03T15:05:46Z</time></trkpt><trkpt lat="43.2338248103445" lon="11.558986402217837"><ele>195.2</ele><time>2026-05-03T15:05:47Z</time></trkpt><trkpt lat="43.233801583098156" lon="11.558839461829328"><ele>193.6</ele><time>2026-05-03T15:05:48Z</time></trkpt><trkpt lat="43.23379155450078" lon="11.558693481910094"><ele>192.0</ele><time>2026-05-03T15:05:49Z</time></trkpt><trkpt lat="43.233798885197075" lon="11.5585583327744"><ele>189.75</ele><time>2026-05-03T15:05:50Z</time></trkpt><trkpt lat="43.23383194446525" lon="11.558432793520595"><ele>187.5</ele><time>2026-05-03T15:05:51Z</time></trkpt><trkpt lat="43.23388902875142" lon="11.558305643317055"><ele>185.25</ele><time>2026-05-03T15:05:52Z</time></trkpt><trkpt lat="43.23396879583569" lon="11.558176857757473"><ele>183.0</ele><time>2026-05-03T15:05:53Z</time></trkpt><trkpt lat="43.23405020537648" lon="11.558055221751461"><ele>183.0</ele><time>2026-05-03T15:05:54Z</time></trkpt><trkpt lat="43.23413741079465" lon="11.557924238081945"><ele>183.0</ele><time>2026-05-03T15:05:55Z</time></trkpt><trkpt lat="43.2342289666207" lon="11.557787900228703"><ele>183.0</ele><time>2026-05-03T15:05:56Z</time></trkpt><trkpt lat="43.2343346140099" lon="11.557661785618228"><ele>183.0</ele><time>2026-05-03T15:05:57Z</time></trkpt><trkpt lat="43.23442536589119" lon="11.5575078165323"><ele>182.75</ele><time>2026-05-03T15:05:58Z</time></trkpt><trkpt lat="43.234532627183164" lon="11.557369121770018"><ele>182.5</ele><time>2026-05-03T15:05:59Z</time></trkpt><trkpt lat="43.23462703303745" lon="11.557243666063156"><ele>182.25</ele><time>2026-05-03T15:06:00Z</time></trkpt><trkpt lat="43.234720489368854" lon="11.557134259374795"><ele>182.0</ele><time>2026-05-03T15:06:01Z</time></trkpt><trkpt lat="43.23482388897456" lon="11.557045946976986"><ele>180.5</ele><time>2026-05-03T15:06:02Z</time></trkpt><trkpt lat="43.23493177097999" lon="11.556977178019148"><ele>179.0</ele><time>2026-05-03T15:06:03Z</time></trkpt><trkpt lat="43.23505621457009" lon="11.556910738469089"><ele>177.5</ele><time>2026-05-03T15:06:04Z</time></trkpt><trkpt lat="43.23517667689203" lon="11.556838335685478"><ele>176.0</ele><time>2026-05-03T15:06:05Z</time></trkpt><trkpt lat="43.235305911064366" lon="11.556772877547479"><ele>176.0</ele><time>2026-05-03T15:06:06Z</time></trkpt><trkpt lat="43.23542378817656" lon="11.556699177109266"><ele>176.0</ele><time>2026-05-03T15:06:07Z</time></trkpt><trkpt lat="43.23551503340436" lon="11.556644434129812"><ele>176.0</ele><time>2026-05-03T15:06:08Z</time></trkpt><trkpt lat="43.23560407443052" lon="11.556588016886698"><ele>176.0</ele><time>2026-05-03T15:06:09Z</time></trkpt><trkpt lat="43.23568552858454" lon="11.556539003728266"><ele>176.0</ele><time>2026-05-03T15:06:10Z</time></trkpt><trkpt lat="43.2357686098993" lon="11.556495048764797"><ele>176.16666666666666</ele><time>2026-05-03T15:06:11Z</time></trkpt><trkpt lat="43.235846841152295" lon="11.556477724313577"><ele>176.33333333333331</ele><time>2026-05-03T15:06:12Z</time></trkpt><trkpt lat="43.235919820523755" lon="11.556490193860276"><ele>176.5</ele><time>2026-05-03T15:06:13Z</time></trkpt><trkpt lat="43.235990976930545" lon="11.55652769861715"><ele>176.66666666666666</ele><time>2026-05-03T15:06:14Z</time></trkpt><trkpt lat="43.23606247305347" lon="11.556606063481187"><ele>176.83333333333334</ele><time>2026-05-03T15:06:15Z</time></trkpt><trkpt lat="43.23613128562626" lon="11.556720406621295"><ele>177.0</ele><time>2026-05-03T15:06:16Z</time></trkpt><trkpt lat="43.236196471604536" lon="11.55685297697812"><ele>177.0</ele><time>2026-05-03T15:06:17Z</time></trkpt><trkpt lat="43.236259816679585" lon="11.556985804026016"><ele>177.0</ele><time>2026-05-03T15:06:18Z</time></trkpt><trkpt lat="43.23632477104833" lon="11.557100112190525"><ele>177.0</ele><time>2026-05-03T15:06:19Z</time></trkpt><trkpt lat="43.23639947041705" lon="11.557185540394267"><ele>177.0</ele><time>2026-05-03T15:06:20Z</time></trkpt><trkpt lat="43.23648627734335" lon="11.557232456094635"><ele>177.0</ele><time>2026-05-03T15:06:21Z</time></trkpt><trkpt lat="43.236581696735584" lon="11.557249787898392"><ele>177.8</ele><time>2026-05-03T15:06:22Z</time></trkpt><trkpt lat="43.23666610564718" lon="11.5572592445735"><ele>178.6</ele><time>2026-05-03T15:06:23Z</time></trkpt><trkpt lat="43.23673743660403" lon="11.557272286257925"><ele>179.4</ele><time>2026-05-03T15:06:24Z</time></trkpt><trkpt lat="43.236801037575226" lon="11.557288341325902"><ele>180.20000000000002</ele><time>2026-05-03T15:06:25Z</time></trkpt><trkpt lat="43.236913821944796" lon="11.55726272145534"><ele>181.0</ele><time>2026-05-03T15:06:27Z</time></trkpt><trkpt lat="43.23697813898643" lon="11.557132252000402"><ele>179.60000000000002</ele><time>2026-05-03T15:06:29Z</time></trkpt><trkpt lat="43.23698552396833" lon="11.557030698650445"><ele>178.2</ele><time>2026-05-03T15:06:30Z</time></trkpt><trkpt lat="43.236992877851705" lon="11.556908868840301"><ele>176.8</ele><time>2026-05-03T15:06:31Z</time></trkpt><trkpt lat="43.23702217365187" lon="11.556772706506152"><ele>175.39999999999998</ele><time>2026-05-03T15:06:32Z</time></trkpt><trkpt lat="43.23702990827202" lon="11.556615679532012"><ele>174.0</ele><time>2026-05-03T15:06:33Z</time></trkpt><trkpt lat="43.23706040885729" lon="11.55646511981094"><ele>174.0</ele><time>2026-05-03T15:06:34Z</time></trkpt><trkpt lat="43.2371087245599" lon="11.556335973720131"><ele>174.0</ele><time>2026-05-03T15:06:35Z</time></trkpt><trkpt lat="43.23717842468608" lon="11.556221280805405"><ele>174.0</ele><time>2026-05-03T15:06:36Z</time></trkpt><trkpt lat="43.23725593317044" lon="11.556119104938576"><ele>174.0</ele><time>2026-05-03T15:06:37Z</time></trkpt><trkpt lat="43.237346322024926" lon="11.556014905577468"><ele>174.0</ele><time>2026-05-03T15:06:38Z</time></trkpt><trkpt lat="43.237427626615464" lon="11.555915367880994"><ele>174.33333333333334</ele><time>2026-05-03T15:06:39Z</time></trkpt><trkpt lat="43.23748843182715" lon="11.555822917394172"><ele>174.66666666666666</ele><time>2026-05-03T15:06:40Z</time></trkpt><trkpt lat="43.23754437360125" lon="11.555750590986383"><ele>175.0</ele><time>2026-05-03T15:06:41Z</time></trkpt><trkpt lat="43.237584014304666" lon="11.555681971497558"><ele>175.33333333333331</ele><time>2026-05-03T15:06:42Z</time></trkpt><trkpt lat="43.2376373080097" lon="11.555604106919136"><ele>175.66666666666666</ele><time>2026-05-03T15:06:43Z</time></trkpt><trkpt lat="43.23771352716269" lon="11.55553170814641"><ele>176.0</ele><time>2026-05-03T15:06:44Z</time></trkpt><trkpt lat="43.237781460468916" lon="11.55547320856638"><ele>176.0</ele><time>2026-05-03T15:06:45Z</time></trkpt><trkpt lat="43.23784593657082" lon="11.555438975145242"><ele>176.0</ele><time>2026-05-03T15:06:46Z</time></trkpt><trkpt lat="43.23790071714876" lon="11.5553949736393"><ele>176.0</ele><time>2026-05-03T15:06:47Z</time></trkpt><trkpt lat="43.238007189407796" lon="11.55532241866021"><ele>176.0</ele><time>2026-05-03T15:06:49Z</time></trkpt><trkpt lat="43.23807311966211" lon="11.555281467833998"><ele>176.0</ele><time>2026-05-03T15:06:50Z</time></trkpt><trkpt lat="43.23815210600473" lon="11.555230551976372"><ele>176.0</ele><time>2026-05-03T15:06:51Z</time></trkpt><trkpt lat="43.238246804021784" lon="11.555174210384004"><ele>176.33333333333331</ele><time>2026-05-03T15:06:52Z</time></trkpt><trkpt lat="43.238349108903854" lon="11.555118267270718"><ele>176.66666666666666</ele><time>2026-05-03T15:06:53Z</time></trkpt><trkpt lat="43.23844285705536" lon="11.555067969984398"><ele>177.0</ele><time>2026-05-03T15:06:54Z</time></trkpt><trkpt lat="43.23852174872733" lon="11.555020737132361"><ele>177.33333333333334</ele><time>2026-05-03T15:06:55Z</time></trkpt><trkpt lat="43.23859287423053" lon="11.554976949762974"><ele>177.66666666666669</ele><time>2026-05-03T15:06:56Z</time></trkpt><trkpt lat="43.23865796588244" lon="11.55494018198678"><ele>178.0</ele><time>2026-05-03T15:06:57Z</time></trkpt><trkpt lat="43.238724506593364" lon="11.554929947357437"><ele>178.0</ele><time>2026-05-03T15:06:58Z</time></trkpt><trkpt lat="43.2387921757131" lon="11.554943613574933"><ele>178.0</ele><time>2026-05-03T15:06:59Z</time></trkpt><trkpt lat="43.23886280395895" lon="11.554957183460948"><ele>178.0</ele><time>2026-05-03T15:07:00Z</time></trkpt><trkpt lat="43.23893039484823" lon="11.554936468196875"><ele>178.0</ele><time>2026-05-03T15:07:01Z</time></trkpt><trkpt lat="43.23899191405587" lon="11.554882668402053"><ele>178.0</ele><time>2026-05-03T15:07:02Z</time></trkpt><trkpt lat="43.239041443139214" lon="11.554794164753288"><ele>178.0</ele><time>2026-05-03T15:07:03Z</time></trkpt><trkpt lat="43.239095024149286" lon="11.55469540536316"><ele>177.5</ele><time>2026-05-03T15:07:04Z</time></trkpt><trkpt lat="43.239179987260485" lon="11.554607464885345"><ele>177.0</ele><time>2026-05-03T15:07:05Z</time></trkpt><trkpt lat="43.23928413125532" lon="11.554527180364854"><ele>176.5</ele><time>2026-05-03T15:07:06Z</time></trkpt><trkpt lat="43.23938380587122" lon="11.554435814630807"><ele>176.0</ele><time>2026-05-03T15:07:07Z</time></trkpt><trkpt lat="43.23948783483961" lon="11.554327037983544"><ele>175.5</ele><time>2026-05-03T15:07:08Z</time></trkpt><trkpt lat="43.23959244181383" lon="11.554195987612301"><ele>175.0</ele><time>2026-05-03T15:07:09Z</time></trkpt><trkpt lat="43.23970349886875" lon="11.554052745944466"><ele>174.5</ele><time>2026-05-03T15:07:10Z</time></trkpt><trkpt lat="43.23980710124433" lon="11.553896769403567"><ele>174.0</ele><time>2026-05-03T15:07:11Z</time></trkpt><trkpt lat="43.23991077081389" lon="11.553734719889711"><ele>173.75</ele><time>2026-05-03T15:07:12Z</time></trkpt><trkpt lat="43.23999988756385" lon="11.553590620550274"><ele>173.5</ele><time>2026-05-03T15:07:13Z</time></trkpt><trkpt lat="43.24008087699635" lon="11.55345869256241"><ele>173.25</ele><time>2026-05-03T15:07:14Z</time></trkpt><trkpt lat="43.24014772347569" lon="11.553345330800248"><ele>173.0</ele><time>2026-05-03T15:07:15Z</time></trkpt><trkpt lat="43.24021227659802" lon="11.553249515191151"><ele>173.0</ele><time>2026-05-03T15:07:16Z</time></trkpt><trkpt lat="43.24026863121076" lon="11.5531741300136"><ele>173.0</ele><time>2026-05-03T15:07:17Z</time></trkpt><trkpt lat="43.24032796249671" lon="11.553132259613081"><ele>173.0</ele><time>2026-05-03T15:07:18Z</time></trkpt><trkpt lat="43.24044510800197" lon="11.553151170049638"><ele>173.0</ele><time>2026-05-03T15:07:20Z</time></trkpt><trkpt lat="43.24051794042722" lon="11.553199825116998"><ele>173.0</ele><time>2026-05-03T15:07:21Z</time></trkpt><trkpt lat="43.24060270386415" lon="11.553251787501699"><ele>173.0</ele><time>2026-05-03T15:07:22Z</time></trkpt><trkpt lat="43.240678092683325" lon="11.553297891095934"><ele>173.4</ele><time>2026-05-03T15:07:23Z</time></trkpt><trkpt lat="43.24076402248519" lon="11.553349559850226"><ele>173.8</ele><time>2026-05-03T15:07:24Z</time></trkpt><trkpt lat="43.240850827286124" lon="11.553407921698533"><ele>174.2</ele><time>2026-05-03T15:07:25Z</time></trkpt><trkpt lat="43.240938281666004" lon="11.55347107344954"><ele>174.6</ele><time>2026-05-03T15:07:26Z</time></trkpt><trkpt lat="43.24102242976387" lon="11.553539007390558"><ele>175.0</ele><time>2026-05-03T15:07:27Z</time></trkpt><trkpt lat="43.24110356663178" lon="11.553599874668201"><ele>175.0</ele><time>2026-05-03T15:07:28Z</time></trkpt><trkpt lat="43.24117049123332" lon="11.553666172337135"><ele>175.0</ele><time>2026-05-03T15:07:29Z</time></trkpt><trkpt lat="43.24124760788558" lon="11.553726409984378"><ele>175.0</ele><time>2026-05-03T15:07:30Z</time></trkpt><trkpt lat="43.24133102960988" lon="11.553772599750028"><ele>175.0</ele><time>2026-05-03T15:07:31Z</time></trkpt><trkpt lat="43.24140599397263" lon="11.553802134977728"><ele>175.0</ele><time>2026-05-03T15:07:32Z</time></trkpt><trkpt lat="43.24148355655324" lon="11.553819571677238"><ele>175.0</ele><time>2026-05-03T15:07:33Z</time></trkpt><trkpt lat="43.24156544344119" lon="11.553826522985037"><ele>175.5</ele><time>2026-05-03T15:07:34Z</time></trkpt><trkpt lat="43.24164507612474" lon="11.553819095802956"><ele>176.0</ele><time>2026-05-03T15:07:35Z</time></trkpt><trkpt lat="43.24172627797831" lon="11.553805148860654"><ele>176.5</ele><time>2026-05-03T15:07:36Z</time></trkpt><trkpt lat="43.24180650673729" lon="11.553806561214076"><ele>177.0</ele><time>2026-05-03T15:07:37Z</time></trkpt><trkpt lat="43.24188561325587" lon="11.55382737215012"><ele>177.5</ele><time>2026-05-03T15:07:38Z</time></trkpt><trkpt lat="43.24196249449253" lon="11.55385348767254"><ele>178.0</ele><time>2026-05-03T15:07:39Z</time></trkpt><trkpt lat="43.24204318233177" lon="11.55388821821839"><ele>178.0</ele><time>2026-05-03T15:07:40Z</time></trkpt><trkpt lat="43.24212347849997" lon="11.5539410534014"><ele>178.0</ele><time>2026-05-03T15:07:41Z</time></trkpt><trkpt lat="43.24221051402579" lon="11.554008009483013"><ele>178.0</ele><time>2026-05-03T15:07:42Z</time></trkpt><trkpt lat="43.242297805302734" lon="11.554079925541403"><ele>178.0</ele><time>2026-05-03T15:07:43Z</time></trkpt><trkpt lat="43.24238507288494" lon="11.554154979635584"><ele>178.0</ele><time>2026-05-03T15:07:44Z</time></trkpt><trkpt lat="43.242470333087894" lon="11.554225262678948"><ele>181.2</ele><time>2026-05-03T15:07:45Z</time></trkpt><trkpt lat="43.24255122536995" lon="11.554298444770263"><ele>184.4</ele><time>2026-05-03T15:07:46Z</time></trkpt><trkpt lat="43.242636236588055" lon="11.554369545724965"><ele>187.6</ele><time>2026-05-03T15:07:47Z</time></trkpt><trkpt lat="43.242722807583505" lon="11.554432029334682"><ele>190.79999999999998</ele><time>2026-05-03T15:07:48Z</time></trkpt><trkpt lat="43.242815760655056" lon="11.554478401943792"><ele>194.0</ele><time>2026-05-03T15:07:49Z</time></trkpt><trkpt lat="43.24291285641211" lon="11.554514155112626"><ele>194.0</ele><time>2026-05-03T15:07:50Z</time></trkpt><trkpt lat="43.24301230320585" lon="11.55453643242342"><ele>194.0</ele><time>2026-05-03T15:07:51Z</time></trkpt><trkpt lat="43.243108194856546" lon="11.554546405992275"><ele>194.0</ele><time>2026-05-03T15:07:52Z</time></trkpt><trkpt lat="43.24320519816576" lon="11.554547709252672"><ele>194.0</ele><time>2026-05-03T15:07:53Z</time></trkpt><trkpt lat="43.24330221806155" lon="11.55454451680831"><ele>194.0</ele><time>2026-05-03T15:07:54Z</time></trkpt><trkpt lat="43.24339698641104" lon="11.554529772687554"><ele>195.00000000000003</ele><time>2026-05-03T15:07:55Z</time></trkpt><trkpt lat="43.24348667890112" lon="11.554520013553194"><ele>196.0</ele><time>2026-05-03T15:07:56Z</time></trkpt><trkpt lat="43.24357038578311" lon="11.554507772925772"><ele>197.0</ele><time>2026-05-03T15:07:57Z</time></trkpt><trkpt lat="43.24364840178392" lon="11.55449595588543"><ele>198.0</ele><time>2026-05-03T15:07:58Z</time></trkpt><trkpt lat="43.2437258733699" lon="11.55448687022976"><ele>199.00000000000003</ele><time>2026-05-03T15:07:59Z</time></trkpt><trkpt lat="43.24380002617444" lon="11.554475999933516"><ele>200.0</ele><time>2026-05-03T15:08:00Z</time></trkpt><trkpt lat="43.243873351885306" lon="11.554468865817055"><ele>200.00000000000003</ele><time>2026-05-03T15:08:01Z</time></trkpt><trkpt lat="43.2439444971055" lon="11.554459537546492"><ele>200.0</ele><time>2026-05-03T15:08:02Z</time></trkpt><trkpt lat="43.24401598878038" lon="11.554449414353895"><ele>200.0</ele><time>2026-05-03T15:08:03Z</time></trkpt><trkpt lat="43.24409345262265" lon="11.55443380973702"><ele>200.0</ele><time>2026-05-03T15:08:04Z</time></trkpt><trkpt lat="43.24417946007313" lon="11.554421060234128"><ele>200.00000000000003</ele><time>2026-05-03T15:08:05Z</time></trkpt><trkpt lat="43.24426417428557" lon="11.554405942609113"><ele>200.0</ele><time>2026-05-03T15:08:06Z</time></trkpt><trkpt lat="43.2443528613672" lon="11.554393073154218"><ele>198.33333333333334</ele><time>2026-05-03T15:08:07Z</time></trkpt><trkpt lat="43.2444339814477" lon="11.554380458455556"><ele>196.66666666666669</ele><time>2026-05-03T15:08:08Z</time></trkpt><trkpt lat="43.244512512999336" lon="11.554369825562942"><ele>195.0</ele><time>2026-05-03T15:08:09Z</time></trkpt><trkpt lat="43.24458858427607" lon="11.554366169615463"><ele>193.33333333333334</ele><time>2026-05-03T15:08:10Z</time></trkpt><trkpt lat="43.24466581264285" lon="11.554363137483904"><ele>191.66666666666669</ele><time>2026-05-03T15:08:11Z</time></trkpt><trkpt lat="43.24474889170935" lon="11.554360059692655"><ele>190.0</ele><time>2026-05-03T15:08:12Z</time></trkpt><trkpt lat="43.24483311496741" lon="11.55435081208285"><ele>189.2</ele><time>2026-05-03T15:08:13Z</time></trkpt><trkpt lat="43.24491967056987" lon="11.554338804775485"><ele>188.4</ele><time>2026-05-03T15:08:14Z</time></trkpt><trkpt lat="43.24501027012998" lon="11.554323727786691"><ele>187.60000000000002</ele><time>2026-05-03T15:08:15Z</time></trkpt><trkpt lat="43.24510558581366" lon="11.554309778835298"><ele>186.8</ele><time>2026-05-03T15:08:16Z</time></trkpt><trkpt lat="43.24520429896663" lon="11.554294888653304"><ele>186.0</ele><time>2026-05-03T15:08:17Z</time></trkpt><trkpt lat="43.24530618186387" lon="11.554280687475144"><ele>186.0</ele><time>2026-05-03T15:08:18Z</time></trkpt><trkpt lat="43.24541016883318" lon="11.554266733127713"><ele>186.0</ele><time>2026-05-03T15:08:19Z</time></trkpt><trkpt lat="43.24551366068302" lon="11.554253967786195"><ele>186.0</ele><time>2026-05-03T15:08:20Z</time></trkpt><trkpt lat="43.24561307866778" lon="11.554240711981416"><ele>186.0</ele><time>2026-05-03T15:08:21Z</time></trkpt><trkpt lat="43.245708779636" lon="11.554229067618792"><ele>186.0</ele><time>2026-05-03T15:08:22Z</time></trkpt><trkpt lat="43.24579752058261" lon="11.55420821586692"><ele>184.20000000000002</ele><time>2026-05-03T15:08:23Z</time></trkpt><trkpt lat="43.24588809527834" lon="11.554191201386672"><ele>182.4</ele><time>2026-05-03T15:08:24Z</time></trkpt><trkpt lat="43.24597852021513" lon="11.554174267909788"><ele>180.6</ele><time>2026-05-03T15:08:25Z</time></trkpt><trkpt lat="43.246070513250395" lon="11.554161478379456"><ele>178.8</ele><time>2026-05-03T15:08:26Z</time></trkpt><trkpt lat="43.246168101621926" lon="11.554151221066057"><ele>177.0</ele><time>2026-05-03T15:08:27Z</time></trkpt><trkpt lat="43.24626666903847" lon="11.55414353414049"><ele>177.0</ele><time>2026-05-03T15:08:28Z</time></trkpt><trkpt lat="43.246368494366266" lon="11.554133153812701"><ele>177.0</ele><time>2026-05-03T15:08:29Z</time></trkpt><trkpt lat="43.2464621806347" lon="11.554131398169684"><ele>177.0</ele><time>2026-05-03T15:08:30Z</time></trkpt><trkpt lat="43.246550970863616" lon="11.554132807341832"><ele>177.0</ele><time>2026-05-03T15:08:31Z</time></trkpt><trkpt lat="43.246634256336705" lon="11.554148511873782"><ele>177.0</ele><time>2026-05-03T15:08:32Z</time></trkpt><trkpt lat="43.24671630191992" lon="11.554176046544544"><ele>176.0</ele><time>2026-05-03T15:08:33Z</time></trkpt><trkpt lat="43.24679578175302" lon="11.554214604962876"><ele>175.0</ele><time>2026-05-03T15:08:34Z</time></trkpt><trkpt lat="43.246881021895334" lon="11.554261595160312"><ele>174.0</ele><time>2026-05-03T15:08:35Z</time></trkpt><trkpt lat="43.246968295863" lon="11.554321203888003"><ele>173.0</ele><time>2026-05-03T15:08:36Z</time></trkpt><trkpt lat="43.24705712294256" lon="11.55438593200403"><ele>172.0</ele><time>2026-05-03T15:08:37Z</time></trkpt><trkpt lat="43.247136932646875" lon="11.55445521168401"><ele>172.0</ele><time>2026-05-03T15:08:38Z</time></trkpt><trkpt lat="43.247219548483436" lon="11.554519708354647"><ele>172.0</ele><time>2026-05-03T15:08:39Z</time></trkpt><trkpt lat="43.24730575517258" lon="11.554585756255173"><ele>172.0</ele><time>2026-05-03T15:08:40Z</time></trkpt><trkpt lat="43.24739598253697" lon="11.55465248721585"><ele>172.0</ele><time>2026-05-03T15:08:41Z</time></trkpt><trkpt lat="43.24748817892138" lon="11.554716592226342"><ele>172.0</ele><time>2026-05-03T15:08:42Z</time></trkpt><trkpt lat="43.24757978635318" lon="11.554778256591414"><ele>173.16666666666669</ele><time>2026-05-03T15:08:43Z</time></trkpt><trkpt lat="43.24766354679038" lon="11.554842702870788"><ele>174.33333333333334</ele><time>2026-05-03T15:08:44Z</time></trkpt><trkpt lat="43.24773469231964" lon="11.554894007049027"><ele>175.5</ele><time>2026-05-03T15:08:45Z</time></trkpt><trkpt lat="43.24779522985781" lon="11.554947500788561"><ele>176.66666666666666</ele><time>2026-05-03T15:08:46Z</time></trkpt><trkpt lat="43.24784490861899" lon="11.555015249023969"><ele>177.83333333333331</ele><time>2026-05-03T15:08:47Z</time></trkpt><trkpt lat="43.2478895510446" lon="11.555087398606643"><ele>179.0</ele><time>2026-05-03T15:08:48Z</time></trkpt><trkpt lat="43.24792787707944" lon="11.555171311511755"><ele>179.00000000000003</ele><time>2026-05-03T15:08:49Z</time></trkpt><trkpt lat="43.247965236742004" lon="11.555253686889627"><ele>179.0</ele><time>2026-05-03T15:08:50Z</time></trkpt><trkpt lat="43.24800676167513" lon="11.555324876925672"><ele>179.0</ele><time>2026-05-03T15:08:51Z</time></trkpt><trkpt lat="43.24805563464837" lon="11.555397392443437"><ele>179.0</ele><time>2026-05-03T15:08:52Z</time></trkpt><trkpt lat="43.248105660248314" lon="11.555466200838165"><ele>179.0</ele><time>2026-05-03T15:08:53Z</time></trkpt><trkpt lat="43.24816050772067" lon="11.55552948045781"><ele>179.00000000000003</ele><time>2026-05-03T15:08:54Z</time></trkpt><trkpt lat="43.2482177563238" lon="11.555590928541223"><ele>179.0</ele><time>2026-05-03T15:08:55Z</time></trkpt><trkpt lat="43.24828365530779" lon="11.555638726184087"><ele>180.14285714285717</ele><time>2026-05-03T15:08:56Z</time></trkpt><trkpt lat="43.2483462741376" lon="11.555692695425476"><ele>181.28571428571428</ele><time>2026-05-03T15:08:57Z</time></trkpt><trkpt lat="43.24840823996912" lon="11.555745149400765"><ele>182.42857142857144</ele><time>2026-05-03T15:08:58Z</time></trkpt><trkpt lat="43.248469719335915" lon="11.555793917766533"><ele>183.57142857142858</ele><time>2026-05-03T15:08:59Z</time></trkpt><trkpt lat="43.248529637208065" lon="11.555847108661826"><ele>184.71428571428572</ele><time>2026-05-03T15:09:00Z</time></trkpt><trkpt lat="43.248590508024996" lon="11.555899493214831"><ele>185.85714285714286</ele><time>2026-05-03T15:09:01Z</time></trkpt><trkpt lat="43.248650917953746" lon="11.555955011833742"><ele>187.0</ele><time>2026-05-03T15:09:02Z</time></trkpt><trkpt lat="43.248714572633766" lon="11.555995364487286"><ele>187.0</ele><time>2026-05-03T15:09:03Z</time></trkpt><trkpt lat="43.24877277526785" lon="11.556032186341039"><ele>187.0</ele><time>2026-05-03T15:09:04Z</time></trkpt><trkpt lat="43.24890004423605" lon="11.556074711191382"><ele>187.0</ele><time>2026-05-03T15:09:06Z</time></trkpt><trkpt lat="43.248976728997754" lon="11.55607411518473"><ele>187.0</ele><time>2026-05-03T15:09:07Z</time></trkpt><trkpt lat="43.24905511394564" lon="11.556065451953701"><ele>187.0</ele><time>2026-05-03T15:09:08Z</time></trkpt><trkpt lat="43.249134317718415" lon="11.556059518622229"><ele>187.0</ele><time>2026-05-03T15:09:09Z</time></trkpt><trkpt lat="43.24921791800026" lon="11.556050894206885"><ele>188.5</ele><time>2026-05-03T15:09:10Z</time></trkpt><trkpt lat="43.249304227205116" lon="11.556034925485221"><ele>190.0</ele><time>2026-05-03T15:09:11Z</time></trkpt><trkpt lat="43.24938875110919" lon="11.556004514656667"><ele>191.5</ele><time>2026-05-03T15:09:12Z</time></trkpt><trkpt lat="43.24947522106113" lon="11.555981974830615"><ele>193.0</ele><time>2026-05-03T15:09:13Z</time></trkpt><trkpt lat="43.24956891818724" lon="11.555973490604966"><ele>194.49999999999997</ele><time>2026-05-03T15:09:14Z</time></trkpt><trkpt lat="43.24965789343862" lon="11.555964198368585"><ele>196.0</ele><time>2026-05-03T15:09:15Z</time></trkpt><trkpt lat="43.24974616445963" lon="11.555955062151087"><ele>196.49999999999997</ele><time>2026-05-03T15:09:16Z</time></trkpt><trkpt lat="43.24983645888219" lon="11.555952324920163"><ele>197.0</ele><time>2026-05-03T15:09:17Z</time></trkpt><trkpt lat="43.24992608154378" lon="11.555945824656384"><ele>197.5</ele><time>2026-05-03T15:09:18Z</time></trkpt><trkpt lat="43.25001061396456" lon="11.555922383800217"><ele>198.0</ele><time>2026-05-03T15:09:19Z</time></trkpt><trkpt lat="43.25009184856399" lon="11.555883126856433"><ele>198.49999999999997</ele><time>2026-05-03T15:09:20Z</time></trkpt><trkpt lat="43.25016926016732" lon="11.55582600314969"><ele>199.0</ele><time>2026-05-03T15:09:21Z</time></trkpt><trkpt lat="43.25024339333552" lon="11.55576693423901"><ele>198.99999999999997</ele><time>2026-05-03T15:09:22Z</time></trkpt><trkpt lat="43.25031502434214" lon="11.555708574730557"><ele>199.0</ele><time>2026-05-03T15:09:23Z</time></trkpt><trkpt lat="43.25038071017253" lon="11.555649594504658"><ele>199.0</ele><time>2026-05-03T15:09:24Z</time></trkpt><trkpt lat="43.25044511476912" lon="11.555578528436532"><ele>199.0</ele><time>2026-05-03T15:09:25Z</time></trkpt><trkpt lat="43.250508387489866" lon="11.555506134208473"><ele>198.99999999999997</ele><time>2026-05-03T15:09:26Z</time></trkpt><trkpt lat="43.25057827312938" lon="11.555425861351406"><ele>199.0</ele><time>2026-05-03T15:09:27Z</time></trkpt><trkpt lat="43.25065701976337" lon="11.555345152677562"><ele>202.2</ele><time>2026-05-03T15:09:28Z</time></trkpt><trkpt lat="43.250733452103205" lon="11.555256178775911"><ele>205.39999999999998</ele><time>2026-05-03T15:09:29Z</time></trkpt><trkpt lat="43.25080566061656" lon="11.555169958308376"><ele>208.6</ele><time>2026-05-03T15:09:30Z</time></trkpt><trkpt lat="43.250889680447564" lon="11.55509649156849"><ele>211.8</ele><time>2026-05-03T15:09:31Z</time></trkpt><trkpt lat="43.250969750544265" lon="11.55503065216257"><ele>215.0</ele><time>2026-05-03T15:09:32Z</time></trkpt><trkpt lat="43.25105714783908" lon="11.554986627437438"><ele>215.0</ele><time>2026-05-03T15:09:33Z</time></trkpt><trkpt lat="43.25114588934259" lon="11.554941664972914"><ele>215.0</ele><time>2026-05-03T15:09:34Z</time></trkpt><trkpt lat="43.25124244982123" lon="11.55489639611605"><ele>215.0</ele><time>2026-05-03T15:09:35Z</time></trkpt><trkpt lat="43.25133879144904" lon="11.554833932843913"><ele>215.0</ele><time>2026-05-03T15:09:36Z</time></trkpt><trkpt lat="43.251451310660656" lon="11.554793169132504"><ele>215.0</ele><time>2026-05-03T15:09:37Z</time></trkpt><trkpt lat="43.2515590762416" lon="11.554754816394796"><ele>214.6</ele><time>2026-05-03T15:09:38Z</time></trkpt><trkpt lat="43.25166775834324" lon="11.55471656480975"><ele>214.2</ele><time>2026-05-03T15:09:39Z</time></trkpt><trkpt lat="43.25177178884957" lon="11.554682315712181"><ele>213.8</ele><time>2026-05-03T15:09:40Z</time></trkpt><trkpt lat="43.25186922058905" lon="11.55465599453862"><ele>213.4</ele><time>2026-05-03T15:09:41Z</time></trkpt><trkpt lat="43.25196320433312" lon="11.554636419130961"><ele>213.0</ele><time>2026-05-03T15:09:42Z</time></trkpt><trkpt lat="43.25203741190795" lon="11.554627155184008"><ele>213.0</ele><time>2026-05-03T15:09:43Z</time></trkpt><trkpt lat="43.25210465623503" lon="11.554621193275286"><ele>213.0</ele><time>2026-05-03T15:09:44Z</time></trkpt><trkpt lat="43.2521881470053" lon="11.554628316012408"><ele>213.0</ele><time>2026-05-03T15:09:45Z</time></trkpt><trkpt lat="43.25227329029193" lon="11.554646262019237"><ele>213.0</ele><time>2026-05-03T15:09:46Z</time></trkpt><trkpt lat="43.252362118793776" lon="11.55467718220518"><ele>213.0</ele><time>2026-05-03T15:09:47Z</time></trkpt><trkpt lat="43.252453161050944" lon="11.554709120228345"><ele>213.0</ele><time>2026-05-03T15:09:48Z</time></trkpt><trkpt lat="43.25254542192737" lon="11.554735142579386"><ele>213.2</ele><time>2026-05-03T15:09:49Z</time></trkpt><trkpt lat="43.25263942992687" lon="11.554744956990218"><ele>213.4</ele><time>2026-05-03T15:09:50Z</time></trkpt><trkpt lat="43.25273467649987" lon="11.554733807947636"><ele>213.59999999999997</ele><time>2026-05-03T15:09:51Z</time></trkpt><trkpt lat="43.25282696296435" lon="11.554721071212184"><ele>213.79999999999998</ele><time>2026-05-03T15:09:52Z</time></trkpt><trkpt lat="43.252924695138496" lon="11.554703805544884"><ele>214.0</ele><time>2026-05-03T15:09:53Z</time></trkpt><trkpt lat="43.25302134760761" lon="11.554680064805718"><ele>214.0</ele><time>2026-05-03T15:09:54Z</time></trkpt><trkpt lat="43.25311219921472" lon="11.554648102214573"><ele>213.99999999999997</ele><time>2026-05-03T15:09:55Z</time></trkpt><trkpt lat="43.25320418536834" lon="11.55461352605947"><ele>213.99999999999997</ele><time>2026-05-03T15:09:56Z</time></trkpt><trkpt lat="43.2532870220182" lon="11.554574134687247"><ele>214.0</ele><time>2026-05-03T15:09:57Z</time></trkpt><trkpt lat="43.253361936172155" lon="11.55452512735051"><ele>214.0</ele><time>2026-05-03T15:09:58Z</time></trkpt><trkpt lat="43.25344978080799" lon="11.554485567819228"><ele>216.99999999999997</ele><time>2026-05-03T15:09:59Z</time></trkpt><trkpt lat="43.25352153156461" lon="11.554406542376288"><ele>220.0</ele><time>2026-05-03T15:10:00Z</time></trkpt><trkpt lat="43.253602805486885" lon="11.55435942995173"><ele>223.0</ele><time>2026-05-03T15:10:01Z</time></trkpt><trkpt lat="43.25367335914769" lon="11.554303532337757"><ele>226.0</ele><time>2026-05-03T15:10:02Z</time></trkpt><trkpt lat="43.25374280404366" lon="11.55424737294299"><ele>228.99999999999997</ele><time>2026-05-03T15:10:03Z</time></trkpt><trkpt lat="43.253809362571175" lon="11.554192872205546"><ele>232.0</ele><time>2026-05-03T15:10:04Z</time></trkpt><trkpt lat="43.2538747400037" lon="11.554134315381084"><ele>231.99999999999997</ele><time>2026-05-03T15:10:05Z</time></trkpt><trkpt lat="43.253922393989356" lon="11.554052502151302"><ele>232.0</ele><time>2026-05-03T15:10:06Z</time></trkpt><trkpt lat="43.25397982784081" lon="11.553974804912995"><ele>232.0</ele><time>2026-05-03T15:10:07Z</time></trkpt><trkpt lat="43.2540173796466" lon="11.553875513956843"><ele>232.0</ele><time>2026-05-03T15:10:08Z</time></trkpt><trkpt lat="43.25404545183638" lon="11.55376768810437"><ele>231.99999999999997</ele><time>2026-05-03T15:10:09Z</time></trkpt><trkpt lat="43.25406297218362" lon="11.553659122841573"><ele>232.0</ele><time>2026-05-03T15:10:10Z</time></trkpt><trkpt lat="43.2540671572464" lon="11.553551794923091"><ele>234.16666666666666</ele><time>2026-05-03T15:10:11Z</time></trkpt><trkpt lat="43.2540554925425" lon="11.55344158309434"><ele>236.33333333333331</ele><time>2026-05-03T15:10:12Z</time></trkpt><trkpt lat="43.25408744245718" lon="11.553337949098543"><ele>238.5</ele><time>2026-05-03T15:10:13Z</time></trkpt><trkpt lat="43.25411111022034" lon="11.55323806573458"><ele>240.66666666666669</ele><time>2026-05-03T15:10:14Z</time></trkpt><trkpt lat="43.254140038594855" lon="11.553151635816052"><ele>242.83333333333334</ele><time>2026-05-03T15:10:15Z</time></trkpt><trkpt lat="43.254217906779" lon="11.5530324780543"><ele>245.0</ele><time>2026-05-03T15:10:17Z</time></trkpt><trkpt lat="43.254273929504144" lon="11.552992909640121"><ele>245.00000000000003</ele><time>2026-05-03T15:10:18Z</time></trkpt><trkpt lat="43.25433618795089" lon="11.552952290974323"><ele>245.0</ele><time>2026-05-03T15:10:19Z</time></trkpt><trkpt lat="43.25441003295256" lon="11.552948211441974"><ele>245.0</ele><time>2026-05-03T15:10:20Z</time></trkpt><trkpt lat="43.254487165667875" lon="11.552940135440936"><ele>245.0</ele><time>2026-05-03T15:10:21Z</time></trkpt><trkpt lat="43.254573980375184" lon="11.552933618388026"><ele>245.00000000000003</ele><time>2026-05-03T15:10:22Z</time></trkpt><trkpt lat="43.254663112371055" lon="11.552928030789005"><ele>245.0</ele><time>2026-05-03T15:10:23Z</time></trkpt><trkpt lat="43.25475548114215" lon="11.552923315441255"><ele>245.50000000000003</ele><time>2026-05-03T15:10:24Z</time></trkpt><trkpt lat="43.254849530721465" lon="11.552918786168988"><ele>246.0</ele><time>2026-05-03T15:10:25Z</time></trkpt><trkpt lat="43.254939347080416" lon="11.552916478235105"><ele>246.5</ele><time>2026-05-03T15:10:26Z</time></trkpt><trkpt lat="43.25502776910701" lon="11.552912012581602"><ele>247.0</ele><time>2026-05-03T15:10:27Z</time></trkpt><trkpt lat="43.25511098943686" lon="11.552914068866434"><ele>247.50000000000003</ele><time>2026-05-03T15:10:28Z</time></trkpt><trkpt lat="43.25519183703594" lon="11.552910686802571"><ele>248.0</ele><time>2026-05-03T15:10:29Z</time></trkpt><trkpt lat="43.25526832628809" lon="11.55291010327771"><ele>248.00000000000003</ele><time>2026-05-03T15:10:30Z</time></trkpt><trkpt lat="43.255336758576846" lon="11.552909449088023"><ele>248.0</ele><time>2026-05-03T15:10:31Z</time></trkpt><trkpt lat="43.25540248287957" lon="11.55291221103462"><ele>248.0</ele><time>2026-05-03T15:10:32Z</time></trkpt><trkpt lat="43.25551845689042" lon="11.552935124697065"><ele>248.0</ele><time>2026-05-03T15:10:34Z</time></trkpt><trkpt lat="43.255637942035555" lon="11.552982796820174"><ele>248.00000000000003</ele><time>2026-05-03T15:10:36Z</time></trkpt><trkpt lat="43.25569844927642" lon="11.553012679977211"><ele>248.0</ele><time>2026-05-03T15:10:37Z</time></trkpt><trkpt lat="43.25576082209105" lon="11.553044602229477"><ele>248.57142857142858</ele><time>2026-05-03T15:10:38Z</time></trkpt><trkpt lat="43.255825529247126" lon="11.55308183234994"><ele>249.14285714285717</ele><time>2026-05-03T15:10:39Z</time></trkpt><trkpt lat="43.25588873424849" lon="11.553127171438467"><ele>249.71428571428572</ele><time>2026-05-03T15:10:40Z</time></trkpt><trkpt lat="43.25595808526309" lon="11.55316533986224"><ele>250.28571428571428</ele><time>2026-05-03T15:10:41Z</time></trkpt><trkpt lat="43.256027036229426" lon="11.553206558341673"><ele>250.85714285714286</ele><time>2026-05-03T15:10:42Z</time></trkpt><trkpt lat="43.25609409772411" lon="11.553252289242053"><ele>251.42857142857144</ele><time>2026-05-03T15:10:43Z</time></trkpt><trkpt lat="43.25616323962861" lon="11.55329989273195"><ele>252.0</ele><time>2026-05-03T15:10:44Z</time></trkpt><trkpt lat="43.25623246277708" lon="11.553348501645981"><ele>252.0</ele><time>2026-05-03T15:10:45Z</time></trkpt><trkpt lat="43.25630187962942" lon="11.553387574378675"><ele>252.0</ele><time>2026-05-03T15:10:46Z</time></trkpt><trkpt lat="43.25636293206242" lon="11.553422612536302"><ele>252.0</ele><time>2026-05-03T15:10:47Z</time></trkpt><trkpt lat="43.25646871740026" lon="11.553491829101977"><ele>252.0</ele><time>2026-05-03T15:10:49Z</time></trkpt><trkpt lat="43.256555888845874" lon="11.553551601623827"><ele>252.0</ele><time>2026-05-03T15:10:51Z</time></trkpt><trkpt lat="43.256636243716926" lon="11.553606071422506"><ele>252.0</ele><time>2026-05-03T15:10:53Z</time></trkpt><trkpt lat="43.256705466775294" lon="11.553663186705986"><ele>251.83333333333334</ele><time>2026-05-03T15:10:55Z</time></trkpt><trkpt lat="43.25679170991953" lon="11.553703244342083"><ele>251.66666666666669</ele><time>2026-05-03T15:10:57Z</time></trkpt><trkpt lat="43.25689717429625" lon="11.553732200406813"><ele>251.5</ele><time>2026-05-03T15:10:59Z</time></trkpt><trkpt lat="43.256960660945936" lon="11.553734672709743"><ele>251.33333333333334</ele><time>2026-05-03T15:11:00Z</time></trkpt><trkpt lat="43.257032053640394" lon="11.553730701758806"><ele>251.16666666666669</ele><time>2026-05-03T15:11:01Z</time></trkpt><trkpt lat="43.257105296144914" lon="11.553720637403678"><ele>251.0</ele><time>2026-05-03T15:11:02Z</time></trkpt><trkpt lat="43.257181147275176" lon="11.553702970284068"><ele>251.00000000000003</ele><time>2026-05-03T15:11:03Z</time></trkpt><trkpt lat="43.257259582642504" lon="11.55367813570797"><ele>251.0</ele><time>2026-05-03T15:11:04Z</time></trkpt><trkpt lat="43.25733937837614" lon="11.553649613301376"><ele>251.0</ele><time>2026-05-03T15:11:05Z</time></trkpt><trkpt lat="43.25741958557933" lon="11.5536248929755"><ele>251.0</ele><time>2026-05-03T15:11:06Z</time></trkpt><trkpt lat="43.25749501123205" lon="11.553612032323295"><ele>251.00000000000003</ele><time>2026-05-03T15:11:07Z</time></trkpt><trkpt lat="43.25756716264946" lon="11.553579727796317"><ele>251.0</ele><time>2026-05-03T15:11:08Z</time></trkpt><trkpt lat="43.257640660800256" lon="11.553544144100254"><ele>251.16666666666669</ele><time>2026-05-03T15:11:09Z</time></trkpt><trkpt lat="43.257716756211316" lon="11.553506008442936"><ele>251.33333333333334</ele><time>2026-05-03T15:11:10Z</time></trkpt><trkpt lat="43.25779488150748" lon="11.553469300496577"><ele>251.5</ele><time>2026-05-03T15:11:11Z</time></trkpt><trkpt lat="43.25786920397649" lon="11.553433221635181"><ele>251.66666666666669</ele><time>2026-05-03T15:11:12Z</time></trkpt><trkpt lat="43.257945585115436" lon="11.553392883896239"><ele>251.83333333333334</ele><time>2026-05-03T15:11:13Z</time></trkpt><trkpt lat="43.258010036644365" lon="11.553359649399512"><ele>252.0</ele><time>2026-05-03T15:11:14Z</time></trkpt><trkpt lat="43.25807778058149" lon="11.553329629621254"><ele>252.0</ele><time>2026-05-03T15:11:15Z</time></trkpt><trkpt lat="43.25814218334413" lon="11.553307693255396"><ele>252.0</ele><time>2026-05-03T15:11:16Z</time></trkpt><trkpt lat="43.25820463507199" lon="11.553291867209575"><ele>252.0</ele><time>2026-05-03T15:11:17Z</time></trkpt><trkpt lat="43.2582686900187" lon="11.553278767390497"><ele>252.0</ele><time>2026-05-03T15:11:18Z</time></trkpt><trkpt lat="43.258332945140864" lon="11.553268253428167"><ele>252.0</ele><time>2026-05-03T15:11:19Z</time></trkpt><trkpt lat="43.25839665315124" lon="11.553255611605802"><ele>252.0</ele><time>2026-05-03T15:11:20Z</time></trkpt><trkpt lat="43.25846210721412" lon="11.553241668984281"><ele>252.0</ele><time>2026-05-03T15:11:21Z</time></trkpt><trkpt lat="43.25858303779384" lon="11.553211875560214"><ele>252.0</ele><time>2026-05-03T15:11:23Z</time></trkpt><trkpt lat="43.25869505366203" lon="11.55318328126845"><ele>252.0</ele><time>2026-05-03T15:11:25Z</time></trkpt><trkpt lat="43.2588090879328" lon="11.553151888396657"><ele>252.0</ele><time>2026-05-03T15:11:27Z</time></trkpt><trkpt lat="43.25891459503374" lon="11.553111933600904"><ele>252.0</ele><time>2026-05-03T15:11:29Z</time></trkpt><trkpt lat="43.25900121659676" lon="11.553048992745063"><ele>252.0</ele><time>2026-05-03T15:11:31Z</time></trkpt><trkpt lat="43.25909671486588" lon="11.552967069418967"><ele>251.0</ele><time>2026-05-03T15:11:33Z</time></trkpt><trkpt lat="43.25918862411293" lon="11.552846978106821"><ele>250.0</ele><time>2026-05-03T15:11:35Z</time></trkpt><trkpt lat="43.25923663115726" lon="11.552787934014912"><ele>249.0</ele><time>2026-05-03T15:11:36Z</time></trkpt><trkpt lat="43.25928704569299" lon="11.55273489417331"><ele>248.0</ele><time>2026-05-03T15:11:37Z</time></trkpt><trkpt lat="43.25937884219588" lon="11.55262391903198"><ele>247.0</ele><time>2026-05-03T15:11:39Z</time></trkpt><trkpt lat="43.25941661825176" lon="11.552553780961395"><ele>246.0</ele><time>2026-05-03T15:11:40Z</time></trkpt><trkpt lat="43.25944962757774" lon="11.55247588826081"><ele>246.0</ele><time>2026-05-03T15:11:41Z</time></trkpt><trkpt lat="43.25948559206574" lon="11.552386603098748"><ele>246.0</ele><time>2026-05-03T15:11:42Z</time></trkpt><trkpt lat="43.259518144420966" lon="11.552284507570745"><ele>246.0</ele><time>2026-05-03T15:11:43Z</time></trkpt><trkpt lat="43.25954872171342" lon="11.552170082771443"><ele>246.0</ele><time>2026-05-03T15:11:44Z</time></trkpt><trkpt lat="43.259581685528715" lon="11.552041215626659"><ele>246.0</ele><time>2026-05-03T15:11:45Z</time></trkpt><trkpt lat="43.259608867579374" lon="11.551911219665891"><ele>246.0</ele><time>2026-05-03T15:11:46Z</time></trkpt><trkpt lat="43.25963677073929" lon="11.551785868153384"><ele>246.0</ele><time>2026-05-03T15:11:47Z</time></trkpt><trkpt lat="43.25966360319841" lon="11.551669761020046"><ele>246.00000000000003</ele><time>2026-05-03T15:11:48Z</time></trkpt><trkpt lat="43.25968861970998" lon="11.551567429863558"><ele>246.00000000000003</ele><time>2026-05-03T15:11:49Z</time></trkpt><trkpt lat="43.259724845768204" lon="11.551413540052776"><ele>246.0</ele><time>2026-05-03T15:11:51Z</time></trkpt><trkpt lat="43.25976544766203" lon="11.55126352182793"><ele>246.0</ele><time>2026-05-03T15:11:53Z</time></trkpt><trkpt lat="43.25977742960086" lon="11.551178295425734"><ele>246.4</ele><time>2026-05-03T15:11:54Z</time></trkpt><trkpt lat="43.25985172665415" lon="11.55104459026257"><ele>246.8</ele><time>2026-05-03T15:11:56Z</time></trkpt><trkpt lat="43.25987954069889" lon="11.550962765861193"><ele>247.20000000000002</ele><time>2026-05-03T15:11:57Z</time></trkpt><trkpt lat="43.25994728160335" lon="11.550828976367487"><ele>247.60000000000002</ele><time>2026-05-03T15:11:59Z</time></trkpt><trkpt lat="43.260023101082254" lon="11.550700819586716"><ele>248.0</ele><time>2026-05-03T15:12:01Z</time></trkpt><trkpt lat="43.260064420950116" lon="11.550635510487727"><ele>248.0</ele><time>2026-05-03T15:12:02Z</time></trkpt><trkpt lat="43.260108822626165" lon="11.550566913001022"><ele>248.00000000000003</ele><time>2026-05-03T15:12:03Z</time></trkpt><trkpt lat="43.2601527000237" lon="11.55049897041268"><ele>248.0</ele><time>2026-05-03T15:12:04Z</time></trkpt><trkpt lat="43.26019692154653" lon="11.550428525214256"><ele>248.0</ele><time>2026-05-03T15:12:05Z</time></trkpt><trkpt lat="43.26024236400265" lon="11.550359156847259"><ele>248.00000000000003</ele><time>2026-05-03T15:12:06Z</time></trkpt><trkpt lat="43.26029428654599" lon="11.550289589997574"><ele>248.0</ele><time>2026-05-03T15:12:07Z</time></trkpt><trkpt lat="43.26035028820623" lon="11.550223213551316"><ele>248.0</ele><time>2026-05-03T15:12:08Z</time></trkpt><trkpt lat="43.26040670389119" lon="11.550162931171815"><ele>246.83333333333334</ele><time>2026-05-03T15:12:09Z</time></trkpt><trkpt lat="43.26046681335864" lon="11.550110546541736"><ele>245.66666666666669</ele><time>2026-05-03T15:12:10Z</time></trkpt><trkpt lat="43.26054186934495" lon="11.55006310304533"><ele>244.5</ele><time>2026-05-03T15:12:11Z</time></trkpt><trkpt lat="43.26062748869324" lon="11.550025631225594"><ele>243.33333333333331</ele><time>2026-05-03T15:12:12Z</time></trkpt><trkpt lat="43.26070925794355" lon="11.54999343697583"><ele>242.16666666666666</ele><time>2026-05-03T15:12:13Z</time></trkpt><trkpt lat="43.26078967721756" lon="11.549967357180734"><ele>241.0</ele><time>2026-05-03T15:12:14Z</time></trkpt><trkpt lat="43.26087850211162" lon="11.549952017028035"><ele>239.85714285714286</ele><time>2026-05-03T15:12:15Z</time></trkpt><trkpt lat="43.260962454663805" lon="11.549944871747988"><ele>238.71428571428572</ele><time>2026-05-03T15:12:16Z</time></trkpt><trkpt lat="43.261036094952814" lon="11.549950495741337"><ele>237.57142857142858</ele><time>2026-05-03T15:12:17Z</time></trkpt><trkpt lat="43.261106831653684" lon="11.5499646623077"><ele>236.42857142857144</ele><time>2026-05-03T15:12:18Z</time></trkpt><trkpt lat="43.26117490130674" lon="11.549982480322946"><ele>235.28571428571428</ele><time>2026-05-03T15:12:19Z</time></trkpt><trkpt lat="43.261243314196534" lon="11.549993005178303"><ele>234.14285714285717</ele><time>2026-05-03T15:12:20Z</time></trkpt><trkpt lat="43.261310512581254" lon="11.54999659562059"><ele>233.0</ele><time>2026-05-03T15:12:21Z</time></trkpt><trkpt lat="43.261377194539286" lon="11.549998271626402"><ele>233.00000000000003</ele><time>2026-05-03T15:12:22Z</time></trkpt><trkpt lat="43.26144240332246" lon="11.549992363767515"><ele>233.0</ele><time>2026-05-03T15:12:23Z</time></trkpt><trkpt lat="43.26154819322995" lon="11.549962674852324"><ele>233.0</ele><time>2026-05-03T15:12:25Z</time></trkpt><trkpt lat="43.26162248631568" lon="11.549931232374638"><ele>233.0</ele><time>2026-05-03T15:12:27Z</time></trkpt><trkpt lat="43.26171625056227" lon="11.549897373635904"><ele>233.00000000000003</ele><time>2026-05-03T15:12:29Z</time></trkpt><trkpt lat="43.26180480090538" lon="11.549853273522485"><ele>233.0</ele><time>2026-05-03T15:12:31Z</time></trkpt><trkpt lat="43.261900393955" lon="11.549792230946492"><ele>233.33333333333334</ele><time>2026-05-03T15:12:33Z</time></trkpt><trkpt lat="43.261951543231" lon="11.549741508849925"><ele>233.66666666666669</ele><time>2026-05-03T15:12:34Z</time></trkpt><trkpt lat="43.262010768928675" lon="11.549685118778282"><ele>234.0</ele><time>2026-05-03T15:12:35Z</time></trkpt><trkpt lat="43.26207124503578" lon="11.549623733354123"><ele>234.33333333333331</ele><time>2026-05-03T15:12:36Z</time></trkpt><trkpt lat="43.26213083358692" lon="11.54955621015336"><ele>234.66666666666666</ele><time>2026-05-03T15:12:37Z</time></trkpt><trkpt lat="43.262196243193785" lon="11.549483233706558"><ele>235.0</ele><time>2026-05-03T15:12:38Z</time></trkpt><trkpt lat="43.26226763921961" lon="11.54940253408878"><ele>237.2</ele><time>2026-05-03T15:12:39Z</time></trkpt><trkpt lat="43.26234083629864" lon="11.549312616533898"><ele>239.4</ele><time>2026-05-03T15:12:40Z</time></trkpt><trkpt lat="43.26240952878398" lon="11.549212809906159"><ele>241.60000000000002</ele><time>2026-05-03T15:12:41Z</time></trkpt><trkpt lat="43.26247908273213" lon="11.549110107153536"><ele>243.8</ele><time>2026-05-03T15:12:42Z</time></trkpt><trkpt lat="43.26254674890372" lon="11.54899781917002"><ele>246.0</ele><time>2026-05-03T15:12:43Z</time></trkpt><trkpt lat="43.26261697608129" lon="11.548869668034895"><ele>246.0</ele><time>2026-05-03T15:12:44Z</time></trkpt><trkpt lat="43.26268321980222" lon="11.548736328458059"><ele>246.00000000000003</ele><time>2026-05-03T15:12:45Z</time></trkpt><trkpt lat="43.2627543429707" lon="11.548604427994608"><ele>246.00000000000003</ele><time>2026-05-03T15:12:46Z</time></trkpt><trkpt lat="43.26281782037935" lon="11.548486217140642"><ele>246.0</ele><time>2026-05-03T15:12:47Z</time></trkpt><trkpt lat="43.26288031014837" lon="11.548377109563324"><ele>246.0</ele><time>2026-05-03T15:12:48Z</time></trkpt><trkpt lat="43.26293783613905" lon="11.548274596256741"><ele>247.60000000000002</ele><time>2026-05-03T15:12:49Z</time></trkpt><trkpt lat="43.26299302060234" lon="11.548166865138734"><ele>249.20000000000002</ele><time>2026-05-03T15:12:50Z</time></trkpt><trkpt lat="43.263033961777765" lon="11.54805031972162"><ele>250.79999999999998</ele><time>2026-05-03T15:12:51Z</time></trkpt><trkpt lat="43.26307382251732" lon="11.547932127272505"><ele>252.39999999999998</ele><time>2026-05-03T15:12:52Z</time></trkpt><trkpt lat="43.2631259216222" lon="11.547804416309152"><ele>254.0</ele><time>2026-05-03T15:12:53Z</time></trkpt><trkpt lat="43.26318050263478" lon="11.547673543153174"><ele>256.0</ele><time>2026-05-03T15:12:54Z</time></trkpt><trkpt lat="43.26324037364954" lon="11.547548197398156"><ele>258.0</ele><time>2026-05-03T15:12:55Z</time></trkpt><trkpt lat="43.2633096439065" lon="11.547435261142821"><ele>260.0</ele><time>2026-05-03T15:12:56Z</time></trkpt><trkpt lat="43.26337775548743" lon="11.547341871287859"><ele>262.0</ele><time>2026-05-03T15:12:57Z</time></trkpt><trkpt lat="43.26343709506309" lon="11.547264974597436"><ele>264.0</ele><time>2026-05-03T15:12:58Z</time></trkpt><trkpt lat="43.26349097852384" lon="11.547209758027641"><ele>264.0</ele><time>2026-05-03T15:12:59Z</time></trkpt><trkpt lat="43.26355068899484" lon="11.54715347628882"><ele>264.0</ele><time>2026-05-03T15:13:00Z</time></trkpt><trkpt lat="43.26361353963604" lon="11.547089686964387"><ele>264.0</ele><time>2026-05-03T15:13:01Z</time></trkpt><trkpt lat="43.26368568296309" lon="11.547020483268378"><ele>264.0</ele><time>2026-05-03T15:13:02Z</time></trkpt><trkpt lat="43.26376396004335" lon="11.546952977618341"><ele>264.0</ele><time>2026-05-03T15:13:03Z</time></trkpt><trkpt lat="43.26384251841333" lon="11.546880340012818"><ele>264.0</ele><time>2026-05-03T15:13:04Z</time></trkpt><trkpt lat="43.26391989144218" lon="11.546810383258434"><ele>264.0</ele><time>2026-05-03T15:13:05Z</time></trkpt><trkpt lat="43.26400240466207" lon="11.546736780535596"><ele>264.0</ele><time>2026-05-03T15:13:06Z</time></trkpt><trkpt lat="43.2640813028931" lon="11.54665669888867"><ele>264.0</ele><time>2026-05-03T15:13:07Z</time></trkpt><trkpt lat="43.26415901864381" lon="11.546573565512439"><ele>264.0</ele><time>2026-05-03T15:13:08Z</time></trkpt><trkpt lat="43.26423633264056" lon="11.546482098399254"><ele>264.0</ele><time>2026-05-03T15:13:09Z</time></trkpt><trkpt lat="43.264308139207806" lon="11.546386283807532"><ele>264.0</ele><time>2026-05-03T15:13:10Z</time></trkpt><trkpt lat="43.26436455816834" lon="11.546294435722455"><ele>264.0</ele><time>2026-05-03T15:13:11Z</time></trkpt><trkpt lat="43.264410666341675" lon="11.546191973508545"><ele>264.0</ele><time>2026-05-03T15:13:12Z</time></trkpt><trkpt lat="43.26445290759993" lon="11.546080105867658"><ele>264.0</ele><time>2026-05-03T15:13:13Z</time></trkpt><trkpt lat="43.264487348844426" lon="11.545961706379082"><ele>264.0</ele><time>2026-05-03T15:13:14Z</time></trkpt><trkpt lat="43.264516985944766" lon="11.54583814181194"><ele>266.4</ele><time>2026-05-03T15:13:15Z</time></trkpt><trkpt lat="43.26453976035268" lon="11.545709479373507"><ele>268.79999999999995</ele><time>2026-05-03T15:13:16Z</time></trkpt><trkpt lat="43.26456073107997" lon="11.545578628959543"><ele>271.20000000000005</ele><time>2026-05-03T15:13:17Z</time></trkpt><trkpt lat="43.26458272868195" lon="11.545449227807872"><ele>273.6</ele><time>2026-05-03T15:13:18Z</time></trkpt><trkpt lat="43.26460190001768" lon="11.54532824718952"><ele>276.0</ele><time>2026-05-03T15:13:19Z</time></trkpt><trkpt lat="43.26461765776901" lon="11.545219926749944"><ele>276.2</ele><time>2026-05-03T15:13:20Z</time></trkpt><trkpt lat="43.26462992236707" lon="11.545126153460703"><ele>276.40000000000003</ele><time>2026-05-03T15:13:21Z</time></trkpt><trkpt lat="43.264651822731054" lon="11.544964298497122"><ele>276.6</ele><time>2026-05-03T15:13:23Z</time></trkpt><trkpt lat="43.26466468751162" lon="11.544815037722525"><ele>276.8</ele><time>2026-05-03T15:13:25Z</time></trkpt><trkpt lat="43.264686234291176" lon="11.544694866376593"><ele>277.0</ele><time>2026-05-03T15:13:27Z</time></trkpt><trkpt lat="43.26472678749593" lon="11.544567451231131"><ele>272.2</ele><time>2026-05-03T15:13:29Z</time></trkpt><trkpt lat="43.26478663867146" lon="11.544457319854162"><ele>267.4</ele><time>2026-05-03T15:13:31Z</time></trkpt><trkpt lat="43.26485429753877" lon="11.54434977616822"><ele>262.6</ele><time>2026-05-03T15:13:33Z</time></trkpt><trkpt lat="43.2649271242202" lon="11.544242332164792"><ele>257.8</ele><time>2026-05-03T15:13:35Z</time></trkpt><trkpt lat="43.26499341186682" lon="11.544110650132085"><ele>253.0</ele><time>2026-05-03T15:13:37Z</time></trkpt><trkpt lat="43.265020953356014" lon="11.544031296197222"><ele>253.00000000000003</ele><time>2026-05-03T15:13:38Z</time></trkpt><trkpt lat="43.265053062289354" lon="11.543949687685624"><ele>253.0</ele><time>2026-05-03T15:13:39Z</time></trkpt><trkpt lat="43.26508359912653" lon="11.543870543993192"><ele>253.00000000000003</ele><time>2026-05-03T15:13:40Z</time></trkpt><trkpt lat="43.26511134562704" lon="11.543791680565457"><ele>253.00000000000003</ele><time>2026-05-03T15:13:41Z</time></trkpt><trkpt lat="43.26513832409011" lon="11.543713309527734"><ele>253.0</ele><time>2026-05-03T15:13:42Z</time></trkpt><trkpt lat="43.26516396029399" lon="11.543630959744155"><ele>253.00000000000003</ele><time>2026-05-03T15:13:43Z</time></trkpt><trkpt lat="43.26518342403345" lon="11.54354800793364"><ele>253.00000000000003</ele><time>2026-05-03T15:13:44Z</time></trkpt><trkpt lat="43.26520446666597" lon="11.543463521283797"><ele>251.49999999999997</ele><time>2026-05-03T15:13:45Z</time></trkpt><trkpt lat="43.26522008078208" lon="11.54337827808239"><ele>250.0</ele><time>2026-05-03T15:13:46Z</time></trkpt><trkpt lat="43.26522316380634" lon="11.543210623006315"><ele>248.5</ele><time>2026-05-03T15:13:48Z</time></trkpt><trkpt lat="43.26521960620294" lon="11.543120565854558"><ele>247.0</ele><time>2026-05-03T15:13:49Z</time></trkpt><trkpt lat="43.26520550830841" lon="11.543025181052638"><ele>245.49999999999997</ele><time>2026-05-03T15:13:50Z</time></trkpt><trkpt lat="43.26519242114692" lon="11.54292917880187"><ele>244.0</ele><time>2026-05-03T15:13:51Z</time></trkpt><trkpt lat="43.26517990735606" lon="11.542818299850657"><ele>242.6</ele><time>2026-05-03T15:13:52Z</time></trkpt><trkpt lat="43.26517299373996" lon="11.54269893044217"><ele>241.2</ele><time>2026-05-03T15:13:53Z</time></trkpt><trkpt lat="43.26518551270438" lon="11.542573755751757"><ele>239.79999999999998</ele><time>2026-05-03T15:13:54Z</time></trkpt><trkpt lat="43.26520525617014" lon="11.542446102393267"><ele>238.39999999999998</ele><time>2026-05-03T15:13:55Z</time></trkpt><trkpt lat="43.265235762508695" lon="11.542321204619109"><ele>237.0</ele><time>2026-05-03T15:13:56Z</time></trkpt><trkpt lat="43.26528078816505" lon="11.542201243166987"><ele>237.0</ele><time>2026-05-03T15:13:57Z</time></trkpt><trkpt lat="43.265329594043166" lon="11.542074947272832"><ele>237.0</ele><time>2026-05-03T15:13:58Z</time></trkpt><trkpt lat="43.265375498391215" lon="11.54194181447796"><ele>237.0</ele><time>2026-05-03T15:13:59Z</time></trkpt><trkpt lat="43.2654109536117" lon="11.54180033510736"><ele>237.0</ele><time>2026-05-03T15:14:00Z</time></trkpt><trkpt lat="43.26544236687695" lon="11.541649139204996"><ele>237.0</ele><time>2026-05-03T15:14:01Z</time></trkpt><trkpt lat="43.26546704418767" lon="11.541490516214653"><ele>237.25</ele><time>2026-05-03T15:14:02Z</time></trkpt><trkpt lat="43.26548985905049" lon="11.541324523608955"><ele>237.5</ele><time>2026-05-03T15:14:03Z</time></trkpt><trkpt lat="43.26550589197693" lon="11.541160197718968"><ele>237.75</ele><time>2026-05-03T15:14:04Z</time></trkpt><trkpt lat="43.265518217725536" lon="11.54099906040297"><ele>238.0</ele><time>2026-05-03T15:14:05Z</time></trkpt><trkpt lat="43.26552907824396" lon="11.540858849040962"><ele>238.0</ele><time>2026-05-03T15:14:06Z</time></trkpt><trkpt lat="43.265546664132714" lon="11.54073974314423"><ele>238.0</ele><time>2026-05-03T15:14:07Z</time></trkpt><trkpt lat="43.26557618589254" lon="11.540639338065336"><ele>238.0</ele><time>2026-05-03T15:14:08Z</time></trkpt><trkpt lat="43.26561259678279" lon="11.540558405284948"><ele>238.0</ele><time>2026-05-03T15:14:09Z</time></trkpt><trkpt lat="43.26568829814125" lon="11.540429837754795"><ele>238.0</ele><time>2026-05-03T15:14:11Z</time></trkpt><trkpt lat="43.265766282109695" lon="11.540315960651068"><ele>239.28571428571428</ele><time>2026-05-03T15:14:13Z</time></trkpt><trkpt lat="43.26580996588187" lon="11.540248984256722"><ele>240.57142857142856</ele><time>2026-05-03T15:14:14Z</time></trkpt><trkpt lat="43.265857584485296" lon="11.540179663784143"><ele>241.85714285714286</ele><time>2026-05-03T15:14:15Z</time></trkpt><trkpt lat="43.26590970674752" lon="11.540106935636258"><ele>243.14285714285714</ele><time>2026-05-03T15:14:16Z</time></trkpt><trkpt lat="43.26596041168787" lon="11.540037138284767"><ele>244.42857142857142</ele><time>2026-05-03T15:14:17Z</time></trkpt><trkpt lat="43.266010949802855" lon="11.539970489351479"><ele>245.71428571428572</ele><time>2026-05-03T15:14:18Z</time></trkpt><trkpt lat="43.26606194684124" lon="11.539904419699248"><ele>247.0</ele><time>2026-05-03T15:14:19Z</time></trkpt><trkpt lat="43.26610698752394" lon="11.539836623958509"><ele>247.0</ele><time>2026-05-03T15:14:20Z</time></trkpt><trkpt lat="43.26618794787895" lon="11.539715315543491"><ele>247.0</ele><time>2026-05-03T15:14:22Z</time></trkpt><trkpt lat="43.26626336894083" lon="11.539602352549776"><ele>247.0</ele><time>2026-05-03T15:14:24Z</time></trkpt><trkpt lat="43.266331157439566" lon="11.539476293867924"><ele>247.0</ele><time>2026-05-03T15:14:26Z</time></trkpt><trkpt lat="43.266391742859426" lon="11.539339493298048"><ele>245.2</ele><time>2026-05-03T15:14:28Z</time></trkpt><trkpt lat="43.266467622287756" lon="11.539195430146403"><ele>243.39999999999998</ele><time>2026-05-03T15:14:30Z</time></trkpt><trkpt lat="43.266524949839095" lon="11.539129202923137"><ele>241.60000000000002</ele><time>2026-05-03T15:14:31Z</time></trkpt><trkpt lat="43.266588845071325" lon="11.539077922418253"><ele>239.8</ele><time>2026-05-03T15:14:32Z</time></trkpt><trkpt lat="43.266652147116396" lon="11.539037910904284"><ele>238.0</ele><time>2026-05-03T15:14:33Z</time></trkpt><trkpt lat="43.26675865661418" lon="11.53898474415692"><ele>238.0</ele><time>2026-05-03T15:14:35Z</time></trkpt><trkpt lat="43.266855049138066" lon="11.5389307129933"><ele>238.0</ele><time>2026-05-03T15:14:37Z</time></trkpt><trkpt lat="43.266960714956426" lon="11.538871170597174"><ele>238.0</ele><time>2026-05-03T15:14:39Z</time></trkpt><trkpt lat="43.267058725769104" lon="11.538810970523791"><ele>238.0</ele><time>2026-05-03T15:14:41Z</time></trkpt><trkpt lat="43.26716613555262" lon="11.538751518352667"><ele>238.0</ele><time>2026-05-03T15:14:43Z</time></trkpt><trkpt lat="43.26725781044678" lon="11.538682590322441"><ele>237.0</ele><time>2026-05-03T15:14:45Z</time></trkpt><trkpt lat="43.267351985825705" lon="11.538619990263388"><ele>236.0</ele><time>2026-05-03T15:14:47Z</time></trkpt><trkpt lat="43.26746160529915" lon="11.538541377896511"><ele>235.0</ele><time>2026-05-03T15:14:49Z</time></trkpt><trkpt lat="43.26756127372469" lon="11.538480599178607"><ele>234.0</ele><time>2026-05-03T15:14:51Z</time></trkpt><trkpt lat="43.26763970392013" lon="11.53842321742582"><ele>233.0</ele><time>2026-05-03T15:14:53Z</time></trkpt><trkpt lat="43.26771410043619" lon="11.538366147835758"><ele>233.0</ele><time>2026-05-03T15:14:55Z</time></trkpt><trkpt lat="43.26779313519972" lon="11.538305458018604"><ele>233.0</ele><time>2026-05-03T15:14:57Z</time></trkpt><trkpt lat="43.26787526414345" lon="11.538246236755194"><ele>233.0</ele><time>2026-05-03T15:14:59Z</time></trkpt><trkpt lat="43.26796046413943" lon="11.53818297349261"><ele>233.0</ele><time>2026-05-03T15:15:01Z</time></trkpt><trkpt lat="43.268054910773984" lon="11.538125409270513"><ele>233.0</ele><time>2026-05-03T15:15:03Z</time></trkpt><trkpt lat="43.268141997093934" lon="11.538068749386701"><ele>230.4</ele><time>2026-05-03T15:15:05Z</time></trkpt><trkpt lat="43.268227772752475" lon="11.538010134811817"><ele>227.8</ele><time>2026-05-03T15:15:07Z</time></trkpt><trkpt lat="43.2683060755385" lon="11.537953654555274"><ele>225.2</ele><time>2026-05-03T15:15:09Z</time></trkpt><trkpt lat="43.26837850916186" lon="11.537895654538664"><ele>222.6</ele><time>2026-05-03T15:15:11Z</time></trkpt><trkpt lat="43.268460269611474" lon="11.537834774029614"><ele>220.0</ele><time>2026-05-03T15:15:13Z</time></trkpt><trkpt lat="43.26854501063875" lon="11.53777748860104"><ele>219.4</ele><time>2026-05-03T15:15:15Z</time></trkpt><trkpt lat="43.268639610364296" lon="11.537724890114822"><ele>218.8</ele><time>2026-05-03T15:15:17Z</time></trkpt><trkpt lat="43.268748859489435" lon="11.537708084796321"><ele>218.2</ele><time>2026-05-03T15:15:19Z</time></trkpt><trkpt lat="43.26886026342417" lon="11.537728594672355"><ele>217.6</ele><time>2026-05-03T15:15:21Z</time></trkpt><trkpt lat="43.268960081770174" lon="11.53776166151716"><ele>217.0</ele><time>2026-05-03T15:15:23Z</time></trkpt><trkpt lat="43.26905613741134" lon="11.537804641873377"><ele>214.2</ele><time>2026-05-03T15:15:25Z</time></trkpt><trkpt lat="43.26916067512641" lon="11.53783686056133"><ele>211.39999999999998</ele><time>2026-05-03T15:15:27Z</time></trkpt><trkpt lat="43.26926406306007" lon="11.5378502724024"><ele>208.60000000000002</ele><time>2026-05-03T15:15:29Z</time></trkpt><trkpt lat="43.2693671305622" lon="11.537844179198283"><ele>205.8</ele><time>2026-05-03T15:15:31Z</time></trkpt><trkpt lat="43.26946015269192" lon="11.53782344104846"><ele>203.0</ele><time>2026-05-03T15:15:33Z</time></trkpt><trkpt lat="43.269552590216044" lon="11.537793758793972"><ele>203.0</ele><time>2026-05-03T15:15:35Z</time></trkpt><trkpt lat="43.269642155346816" lon="11.537755756409654"><ele>203.0</ele><time>2026-05-03T15:15:37Z</time></trkpt><trkpt lat="43.269724464537816" lon="11.53770429212397"><ele>203.0</ele><time>2026-05-03T15:15:39Z</time></trkpt><trkpt lat="43.269819504395684" lon="11.537647575174093"><ele>203.0</ele><time>2026-05-03T15:15:41Z</time></trkpt><trkpt lat="43.26992477256004" lon="11.537585622417392"><ele>203.0</ele><time>2026-05-03T15:15:43Z</time></trkpt><trkpt lat="43.270037378998786" lon="11.537559289213034"><ele>200.4</ele><time>2026-05-03T15:15:45Z</time></trkpt><trkpt lat="43.27014691895387" lon="11.537573718694599"><ele>197.8</ele><time>2026-05-03T15:15:47Z</time></trkpt><trkpt lat="43.27026490710377" lon="11.537620628877265"><ele>195.2</ele><time>2026-05-03T15:15:49Z</time></trkpt><trkpt lat="43.270330908925025" lon="11.537652600036663"><ele>192.6</ele><time>2026-05-03T15:15:50Z</time></trkpt><trkpt lat="43.27040026693268" lon="11.537678435381224"><ele>190.0</ele><time>2026-05-03T15:15:51Z</time></trkpt><trkpt lat="43.270475119605656" lon="11.53770052301202"><ele>190.0</ele><time>2026-05-03T15:15:52Z</time></trkpt><trkpt lat="43.270548981433386" lon="11.53771466784174"><ele>190.0</ele><time>2026-05-03T15:15:53Z</time></trkpt><trkpt lat="43.27061549997396" lon="11.537725925600764"><ele>190.0</ele><time>2026-05-03T15:15:54Z</time></trkpt><trkpt lat="43.27073073092676" lon="11.537770174445155"><ele>190.0</ele><time>2026-05-03T15:15:56Z</time></trkpt><trkpt lat="43.27084824353678" lon="11.537842454431734"><ele>190.0</ele><time>2026-05-03T15:15:58Z</time></trkpt><trkpt lat="43.27091125976882" lon="11.537892509751346"><ele>188.83333333333334</ele><time>2026-05-03T15:15:59Z</time></trkpt><trkpt lat="43.27097381053331" lon="11.537949906782272"><ele>187.66666666666669</ele><time>2026-05-03T15:16:00Z</time></trkpt><trkpt lat="43.271031060155785" lon="11.538012960856195"><ele>186.5</ele><time>2026-05-03T15:16:01Z</time></trkpt><trkpt lat="43.27108555804962" lon="11.538084598689004"><ele>185.33333333333334</ele><time>2026-05-03T15:16:02Z</time></trkpt><trkpt lat="43.27113852749343" lon="11.538162749896067"><ele>184.16666666666666</ele><time>2026-05-03T15:16:03Z</time></trkpt><trkpt lat="43.271190623644976" lon="11.538249999884869"><ele>183.0</ele><time>2026-05-03T15:16:04Z</time></trkpt><trkpt lat="43.27124304325237" lon="11.538343467334752"><ele>183.0</ele><time>2026-05-03T15:16:05Z</time></trkpt><trkpt lat="43.27129386096735" lon="11.538443468296649"><ele>183.0</ele><time>2026-05-03T15:16:06Z</time></trkpt><trkpt lat="43.27134049714307" lon="11.538553269626409"><ele>183.0</ele><time>2026-05-03T15:16:07Z</time></trkpt><trkpt lat="43.27138043482923" lon="11.538652600157171"><ele>183.0</ele><time>2026-05-03T15:16:08Z</time></trkpt><trkpt lat="43.27142596391557" lon="11.538762268724554"><ele>183.0</ele><time>2026-05-03T15:16:09Z</time></trkpt><trkpt lat="43.27147248581318" lon="11.538872183714648"><ele>183.0</ele><time>2026-05-03T15:16:10Z</time></trkpt><trkpt lat="43.271516661473875" lon="11.538979655374426"><ele>183.8</ele><time>2026-05-03T15:16:11Z</time></trkpt><trkpt lat="43.27156110345129" lon="11.53908273606759"><ele>184.60000000000002</ele><time>2026-05-03T15:16:12Z</time></trkpt><trkpt lat="43.2716059089505" lon="11.539188421404432"><ele>185.39999999999998</ele><time>2026-05-03T15:16:13Z</time></trkpt><trkpt lat="43.27165181952263" lon="11.539297987094631"><ele>186.2</ele><time>2026-05-03T15:16:14Z</time></trkpt><trkpt lat="43.27169750282274" lon="11.539420073492456"><ele>187.0</ele><time>2026-05-03T15:16:15Z</time></trkpt><trkpt lat="43.27174360945352" lon="11.539538239484113"><ele>187.39999999999998</ele><time>2026-05-03T15:16:16Z</time></trkpt><trkpt lat="43.271797052321205" lon="11.539662235484919"><ele>187.79999999999998</ele><time>2026-05-03T15:16:17Z</time></trkpt><trkpt lat="43.27184524664695" lon="11.53978940654496"><ele>188.2</ele><time>2026-05-03T15:16:18Z</time></trkpt><trkpt lat="43.271896774886805" lon="11.539913074609101"><ele>188.6</ele><time>2026-05-03T15:16:19Z</time></trkpt><trkpt lat="43.2719496580358" lon="11.540044401045643"><ele>189.0</ele><time>2026-05-03T15:16:20Z</time></trkpt><trkpt lat="43.27200500179715" lon="11.540178646275228"><ele>189.0</ele><time>2026-05-03T15:16:21Z</time></trkpt><trkpt lat="43.27205895033962" lon="11.540316908163115"><ele>189.0</ele><time>2026-05-03T15:16:22Z</time></trkpt><trkpt lat="43.27211376536921" lon="11.540446212521656"><ele>189.0</ele><time>2026-05-03T15:16:23Z</time></trkpt><trkpt lat="43.27216350959354" lon="11.540573135734526"><ele>189.0</ele><time>2026-05-03T15:16:24Z</time></trkpt><trkpt lat="43.272211871410306" lon="11.54069824968439"><ele>189.0</ele><time>2026-05-03T15:16:25Z</time></trkpt><trkpt lat="43.272257823940954" lon="11.540822112822177"><ele>190.39999999999998</ele><time>2026-05-03T15:16:26Z</time></trkpt><trkpt lat="43.272302271841724" lon="11.540944341307627"><ele>191.8</ele><time>2026-05-03T15:16:27Z</time></trkpt><trkpt lat="43.272345048157675" lon="11.541067367906543"><ele>193.2</ele><time>2026-05-03T15:16:28Z</time></trkpt><trkpt lat="43.27238134766193" lon="11.541189528229234"><ele>194.60000000000002</ele><time>2026-05-03T15:16:29Z</time></trkpt><trkpt lat="43.27241579167491" lon="11.541316159387941"><ele>196.0</ele><time>2026-05-03T15:16:30Z</time></trkpt><trkpt lat="43.27244322954317" lon="11.541434681230324"><ele>197.4</ele><time>2026-05-03T15:16:31Z</time></trkpt><trkpt lat="43.27246572453101" lon="11.54156147987939"><ele>198.8</ele><time>2026-05-03T15:16:32Z</time></trkpt><trkpt lat="43.27248207946119" lon="11.541690971583362"><ele>200.20000000000002</ele><time>2026-05-03T15:16:33Z</time></trkpt><trkpt lat="43.272494622106954" lon="11.541828754810371"><ele>201.60000000000002</ele><time>2026-05-03T15:16:34Z</time></trkpt><trkpt lat="43.27250602615034" lon="11.541972909817732"><ele>203.0</ele><time>2026-05-03T15:16:35Z</time></trkpt><trkpt lat="43.272519686588936" lon="11.542116900101401"><ele>204.60000000000002</ele><time>2026-05-03T15:16:36Z</time></trkpt><trkpt lat="43.272533119639775" lon="11.542258333717085"><ele>206.20000000000002</ele><time>2026-05-03T15:16:37Z</time></trkpt><trkpt lat="43.27254739636104" lon="11.542386239896064"><ele>207.8</ele><time>2026-05-03T15:16:38Z</time></trkpt><trkpt lat="43.27256234185765" lon="11.542502027091446"><ele>209.4</ele><time>2026-05-03T15:16:39Z</time></trkpt><trkpt lat="43.272580534220424" lon="11.5426034563578"><ele>211.0</ele><time>2026-05-03T15:16:40Z</time></trkpt><trkpt lat="43.27261891981208" lon="11.54276302462215"><ele>212.8</ele><time>2026-05-03T15:16:42Z</time></trkpt><trkpt lat="43.272686430896194" lon="11.542890237140533"><ele>214.60000000000002</ele><time>2026-05-03T15:16:44Z</time></trkpt><trkpt lat="43.272788817301965" lon="11.54295385374474"><ele>216.4</ele><time>2026-05-03T15:16:46Z</time></trkpt><trkpt lat="43.272910736108635" lon="11.542923330396587"><ele>218.2</ele><time>2026-05-03T15:16:48Z</time></trkpt><trkpt lat="43.2729717963551" lon="11.542897037260374"><ele>220.0</ele><time>2026-05-03T15:16:49Z</time></trkpt><trkpt lat="43.27303697961328" lon="11.54288886323742"><ele>219.99999999999997</ele><time>2026-05-03T15:16:50Z</time></trkpt><trkpt lat="43.27310005493659" lon="11.542893396043729"><ele>220.0</ele><time>2026-05-03T15:16:51Z</time></trkpt><trkpt lat="43.27316179166919" lon="11.542918830278042"><ele>220.0</ele><time>2026-05-03T15:16:52Z</time></trkpt><trkpt lat="43.27326956682425" lon="11.542979127852847"><ele>220.0</ele><time>2026-05-03T15:16:54Z</time></trkpt><trkpt lat="43.27337268531193" lon="11.543077414090767"><ele>219.99999999999997</ele><time>2026-05-03T15:16:56Z</time></trkpt><trkpt lat="43.27342626245868" lon="11.543128001304346"><ele>220.0</ele><time>2026-05-03T15:16:57Z</time></trkpt><trkpt lat="43.27347915366223" lon="11.543182635263022"><ele>222.4</ele><time>2026-05-03T15:16:58Z</time></trkpt><trkpt lat="43.27352880398759" lon="11.543241967134545"><ele>224.8</ele><time>2026-05-03T15:16:59Z</time></trkpt><trkpt lat="43.273604449287674" lon="11.543366214632208"><ele>227.2</ele><time>2026-05-03T15:17:01Z</time></trkpt><trkpt lat="43.273633772710205" lon="11.543522229579647"><ele>229.6</ele><time>2026-05-03T15:17:03Z</time></trkpt><trkpt lat="43.273612538758854" lon="11.543693461444013"><ele>232.0</ele><time>2026-05-03T15:17:05Z</time></trkpt><trkpt lat="43.27358544329955" lon="11.54377717029354"><ele>233.33333333333331</ele><time>2026-05-03T15:17:06Z</time></trkpt><trkpt lat="43.273546184741186" lon="11.543861697895222"><ele>234.66666666666666</ele><time>2026-05-03T15:17:07Z</time></trkpt><trkpt lat="43.27349239237113" lon="11.543944527639777"><ele>236.0</ele><time>2026-05-03T15:17:08Z</time></trkpt><trkpt lat="43.273426858632725" lon="11.544040053639051"><ele>237.33333333333331</ele><time>2026-05-03T15:17:09Z</time></trkpt><trkpt lat="43.27336397577669" lon="11.544135215116226"><ele>238.66666666666666</ele><time>2026-05-03T15:17:10Z</time></trkpt><trkpt lat="43.27330189152259" lon="11.544230470377418"><ele>240.0</ele><time>2026-05-03T15:17:11Z</time></trkpt><trkpt lat="43.273251235009845" lon="11.544318754871231"><ele>240.0</ele><time>2026-05-03T15:17:12Z</time></trkpt><trkpt lat="43.27321299346894" lon="11.544411558535892"><ele>240.0</ele><time>2026-05-03T15:17:13Z</time></trkpt><trkpt lat="43.273191072034" lon="11.544509305415449"><ele>240.0</ele><time>2026-05-03T15:17:14Z</time></trkpt><trkpt lat="43.27317819100131" lon="11.54461140660605"><ele>240.0</ele><time>2026-05-03T15:17:15Z</time></trkpt><trkpt lat="43.27317407207742" lon="11.544719109072412"><ele>240.0</ele><time>2026-05-03T15:17:16Z</time></trkpt><trkpt lat="43.273170472051795" lon="11.544827563581125"><ele>240.0</ele><time>2026-05-03T15:17:17Z</time></trkpt><trkpt lat="43.27316799443778" lon="11.544937121090278"><ele>240.83333333333334</ele><time>2026-05-03T15:17:18Z</time></trkpt><trkpt lat="43.27316243587622" lon="11.54504248798493"><ele>241.66666666666669</ele><time>2026-05-03T15:17:19Z</time></trkpt><trkpt lat="43.2731574537722" lon="11.545157541648486"><ele>242.5</ele><time>2026-05-03T15:17:20Z</time></trkpt><trkpt lat="43.27315374788922" lon="11.545280963477545"><ele>243.33333333333334</ele><time>2026-05-03T15:17:21Z</time></trkpt><trkpt lat="43.27314989681483" lon="11.545402740002858"><ele>244.16666666666669</ele><time>2026-05-03T15:17:22Z</time></trkpt><trkpt lat="43.27314719984914" lon="11.545526237341157"><ele>245.0</ele><time>2026-05-03T15:17:23Z</time></trkpt><trkpt lat="43.273150458368235" lon="11.545660493294667"><ele>246.4</ele><time>2026-05-03T15:17:24Z</time></trkpt><trkpt lat="43.27316764459487" lon="11.545808949864712"><ele>247.8</ele><time>2026-05-03T15:17:25Z</time></trkpt><trkpt lat="43.27319321094534" lon="11.545963289778829"><ele>249.2</ele><time>2026-05-03T15:17:26Z</time></trkpt><trkpt lat="43.273220518971236" lon="11.546115373273881"><ele>250.6</ele><time>2026-05-03T15:17:27Z</time></trkpt><trkpt lat="43.27325331156522" lon="11.546254243770484"><ele>252.0</ele><time>2026-05-03T15:17:28Z</time></trkpt><trkpt lat="43.27329117765186" lon="11.546381855034934"><ele>253.8</ele><time>2026-05-03T15:17:29Z</time></trkpt><trkpt lat="43.273333009673465" lon="11.546502412645406"><ele>255.6</ele><time>2026-05-03T15:17:30Z</time></trkpt><trkpt lat="43.27337619259366" lon="11.546617723550078"><ele>257.40000000000003</ele><time>2026-05-03T15:17:31Z</time></trkpt><trkpt lat="43.273419216913744" lon="11.546725924549746"><ele>259.2</ele><time>2026-05-03T15:17:32Z</time></trkpt><trkpt lat="43.273466326195624" lon="11.546821995204242"><ele>261.0</ele><time>2026-05-03T15:17:33Z</time></trkpt><trkpt lat="43.273525374938416" lon="11.546907637294538"><ele>261.0</ele><time>2026-05-03T15:17:34Z</time></trkpt><trkpt lat="43.27359304326465" lon="11.54698192459126"><ele>261.0</ele><time>2026-05-03T15:17:35Z</time></trkpt><trkpt lat="43.27366728595864" lon="11.54704216860764"><ele>261.0</ele><time>2026-05-03T15:17:36Z</time></trkpt><trkpt lat="43.273748028513175" lon="11.547084163871457"><ele>261.0</ele><time>2026-05-03T15:17:37Z</time></trkpt><trkpt lat="43.27383096234245" lon="11.547109557557802"><ele>261.0</ele><time>2026-05-03T15:17:38Z</time></trkpt><trkpt lat="43.273913902634526" lon="11.547114796228206"><ele>261.0</ele><time>2026-05-03T15:17:39Z</time></trkpt><trkpt lat="43.27399935163409" lon="11.54711271352939"><ele>264.0</ele><time>2026-05-03T15:17:40Z</time></trkpt><trkpt lat="43.27408717231369" lon="11.547115613148083"><ele>267.0</ele><time>2026-05-03T15:17:41Z</time></trkpt><trkpt lat="43.2741742949924" lon="11.547119071997727"><ele>270.0</ele><time>2026-05-03T15:17:42Z</time></trkpt><trkpt lat="43.27426165804539" lon="11.547114392836383"><ele>273.0</ele><time>2026-05-03T15:17:43Z</time></trkpt><trkpt lat="43.274346958417524" lon="11.54710519745868"><ele>276.0</ele><time>2026-05-03T15:17:44Z</time></trkpt><trkpt lat="43.27442741886999" lon="11.5470842594992"><ele>279.0</ele><time>2026-05-03T15:17:45Z</time></trkpt><trkpt lat="43.27450385657113" lon="11.547073735015987"><ele>279.0</ele><time>2026-05-03T15:17:46Z</time></trkpt><trkpt lat="43.274575556948726" lon="11.547085214667128"><ele>279.0</ele><time>2026-05-03T15:17:47Z</time></trkpt><trkpt lat="43.274644535464354" lon="11.54711651638631"><ele>279.0</ele><time>2026-05-03T15:17:48Z</time></trkpt><trkpt lat="43.27470672388477" lon="11.547159013422045"><ele>279.0</ele><time>2026-05-03T15:17:49Z</time></trkpt><trkpt lat="43.274771774339875" lon="11.54720829874402"><ele>279.0</ele><time>2026-05-03T15:17:50Z</time></trkpt><trkpt lat="43.27484257950244" lon="11.54726698674984"><ele>279.0</ele><time>2026-05-03T15:17:51Z</time></trkpt><trkpt lat="43.27492516804812" lon="11.547340606127054"><ele>280.4</ele><time>2026-05-03T15:17:52Z</time></trkpt><trkpt lat="43.27501164015396" lon="11.547410879061061"><ele>281.79999999999995</ele><time>2026-05-03T15:17:53Z</time></trkpt><trkpt lat="43.27509949072033" lon="11.547488933375378"><ele>283.20000000000005</ele><time>2026-05-03T15:17:54Z</time></trkpt><trkpt lat="43.2751891600373" lon="11.54756277496451"><ele>284.6</ele><time>2026-05-03T15:17:55Z</time></trkpt><trkpt lat="43.27527533393293" lon="11.547640114052815"><ele>286.0</ele><time>2026-05-03T15:17:56Z</time></trkpt><trkpt lat="43.275353957991726" lon="11.547711685668872"><ele>286.0</ele><time>2026-05-03T15:17:57Z</time></trkpt><trkpt lat="43.275418748796135" lon="11.547772849607647"><ele>286.0</ele><time>2026-05-03T15:17:58Z</time></trkpt><trkpt lat="43.27551865261198" lon="11.547863790791007"><ele>286.0</ele><time>2026-05-03T15:18:00Z</time></trkpt><trkpt lat="43.27562675235182" lon="11.547949837919774"><ele>286.0</ele><time>2026-05-03T15:18:02Z</time></trkpt><trkpt lat="43.275686351814905" lon="11.547990927130922"><ele>286.0</ele><time>2026-05-03T15:18:03Z</time></trkpt><trkpt lat="43.27575273853552" lon="11.54802839958661"><ele>288.5</ele><time>2026-05-03T15:18:04Z</time></trkpt><trkpt lat="43.27582407790172" lon="11.54805932526489"><ele>291.0</ele><time>2026-05-03T15:18:05Z</time></trkpt><trkpt lat="43.27589844610775" lon="11.548088666038707"><ele>293.5</ele><time>2026-05-03T15:18:06Z</time></trkpt><trkpt lat="43.27597494606849" lon="11.54812275094376"><ele>296.0</ele><time>2026-05-03T15:18:07Z</time></trkpt><trkpt lat="43.27605137691746" lon="11.548151466084759"><ele>298.5</ele><time>2026-05-03T15:18:08Z</time></trkpt><trkpt lat="43.276126744164266" lon="11.548176800660933"><ele>301.0</ele><time>2026-05-03T15:18:09Z</time></trkpt><trkpt lat="43.27619561351609" lon="11.54820097640341"><ele>301.0</ele><time>2026-05-03T15:18:10Z</time></trkpt><trkpt lat="43.27630086254148" lon="11.548238367223703"><ele>301.0</ele><time>2026-05-03T15:18:12Z</time></trkpt><trkpt lat="43.27637690005604" lon="11.548266177603017"><ele>301.0</ele><time>2026-05-03T15:18:14Z</time></trkpt><trkpt lat="43.27644641434032" lon="11.548306918754484"><ele>301.0</ele><time>2026-05-03T15:18:16Z</time></trkpt><trkpt lat="43.276511690885506" lon="11.548333012384859"><ele>301.0</ele><time>2026-05-03T15:18:18Z</time></trkpt><trkpt lat="43.27658352773517" lon="11.54836547458811"><ele>301.0</ele><time>2026-05-03T15:18:20Z</time></trkpt><trkpt lat="43.27667264044217" lon="11.54843243688296"><ele>301.3333333333333</ele><time>2026-05-03T15:18:23Z</time></trkpt><trkpt lat="43.27676319171842" lon="11.548494118668337"><ele>301.66666666666663</ele><time>2026-05-03T15:18:25Z</time></trkpt><trkpt lat="43.27681762891022" lon="11.548542867221503"><ele>302.0</ele><time>2026-05-03T15:18:26Z</time></trkpt><trkpt lat="43.27687460102445" lon="11.548598270616424"><ele>302.3333333333333</ele><time>2026-05-03T15:18:27Z</time></trkpt><trkpt lat="43.27693135163329" lon="11.548656219807317"><ele>302.6666666666667</ele><time>2026-05-03T15:18:28Z</time></trkpt><trkpt lat="43.27699339448255" lon="11.548719105827503"><ele>303.0</ele><time>2026-05-03T15:18:29Z</time></trkpt><trkpt lat="43.27705705482297" lon="11.548782502141568"><ele>303.0</ele><time>2026-05-03T15:18:30Z</time></trkpt><trkpt lat="43.2771224013289" lon="11.548843097884498"><ele>303.0</ele><time>2026-05-03T15:18:31Z</time></trkpt><trkpt lat="43.277182260285315" lon="11.548897640029105"><ele>303.0</ele><time>2026-05-03T15:18:32Z</time></trkpt><trkpt lat="43.27724008816499" lon="11.548944246751098"><ele>303.0</ele><time>2026-05-03T15:18:33Z</time></trkpt><trkpt lat="43.27733897470278" lon="11.549027086046697"><ele>303.0</ele><time>2026-05-03T15:18:35Z</time></trkpt><trkpt lat="43.277444596708044" lon="11.549123730719872"><ele>301.0</ele><time>2026-05-03T15:18:37Z</time></trkpt><trkpt lat="43.27750186669514" lon="11.549175545506"><ele>299.0</ele><time>2026-05-03T15:18:38Z</time></trkpt><trkpt lat="43.27756311293959" lon="11.549226819252498"><ele>297.0</ele><time>2026-05-03T15:18:39Z</time></trkpt><trkpt lat="43.27762442873021" lon="11.549275043392502"><ele>295.0</ele><time>2026-05-03T15:18:40Z</time></trkpt><trkpt lat="43.27768309202623" lon="11.549323993532301"><ele>293.0</ele><time>2026-05-03T15:18:41Z</time></trkpt><trkpt lat="43.277745420815656" lon="11.549366013356321"><ele>291.0</ele><time>2026-05-03T15:18:42Z</time></trkpt><trkpt lat="43.27780628184311" lon="11.54940176835294"><ele>289.0</ele><time>2026-05-03T15:18:43Z</time></trkpt><trkpt lat="43.277931949212466" lon="11.54944459041099"><ele>289.0</ele><time>2026-05-03T15:18:45Z</time></trkpt><trkpt lat="43.27799932106751" lon="11.54944865517653"><ele>289.0</ele><time>2026-05-03T15:18:46Z</time></trkpt><trkpt lat="43.27806548184575" lon="11.549447211891763"><ele>289.0</ele><time>2026-05-03T15:18:47Z</time></trkpt><trkpt lat="43.27813316159866" lon="11.549442203750802"><ele>289.0</ele><time>2026-05-03T15:18:48Z</time></trkpt><trkpt lat="43.2782056056703" lon="11.549440957769392"><ele>289.0</ele><time>2026-05-03T15:18:49Z</time></trkpt><trkpt lat="43.27827791410289" lon="11.549444365584426"><ele>289.0</ele><time>2026-05-03T15:18:50Z</time></trkpt><trkpt lat="43.278354864794714" lon="11.549448617717662"><ele>289.0</ele><time>2026-05-03T15:18:51Z</time></trkpt><trkpt lat="43.27843368716815" lon="11.549448909380377"><ele>286.5</ele><time>2026-05-03T15:18:52Z</time></trkpt><trkpt lat="43.27851474077446" lon="11.54945043151553"><ele>284.0</ele><time>2026-05-03T15:18:53Z</time></trkpt><trkpt lat="43.27859808897949" lon="11.549455074139026"><ele>281.5</ele><time>2026-05-03T15:18:54Z</time></trkpt><trkpt lat="43.27868620191078" lon="11.54945710803705"><ele>279.0</ele><time>2026-05-03T15:18:55Z</time></trkpt><trkpt lat="43.27876981072111" lon="11.549465871178365"><ele>276.5</ele><time>2026-05-03T15:18:56Z</time></trkpt><trkpt lat="43.27885160429363" lon="11.549482997297238"><ele>274.0</ele><time>2026-05-03T15:18:57Z</time></trkpt><trkpt lat="43.27892815926892" lon="11.549516233998402"><ele>273.66666666666663</ele><time>2026-05-03T15:18:58Z</time></trkpt><trkpt lat="43.27899534236367" lon="11.549563864050645"><ele>273.3333333333333</ele><time>2026-05-03T15:18:59Z</time></trkpt><trkpt lat="43.279057829065536" lon="11.549610254976917"><ele>273.0</ele><time>2026-05-03T15:19:00Z</time></trkpt><trkpt lat="43.27912362787683" lon="11.549659682259563"><ele>272.6666666666667</ele><time>2026-05-03T15:19:01Z</time></trkpt><trkpt lat="43.27919463990293" lon="11.549709079433391"><ele>272.33333333333337</ele><time>2026-05-03T15:19:02Z</time></trkpt><trkpt lat="43.27926493303087" lon="11.549754612267678"><ele>272.0</ele><time>2026-05-03T15:19:03Z</time></trkpt><trkpt lat="43.27933494093857" lon="11.549796148008767"><ele>272.0</ele><time>2026-05-03T15:19:04Z</time></trkpt><trkpt lat="43.27940647719595" lon="11.549838772597726"><ele>272.0</ele><time>2026-05-03T15:19:05Z</time></trkpt><trkpt lat="43.27947889576178" lon="11.549877288104865"><ele>272.0</ele><time>2026-05-03T15:19:06Z</time></trkpt><trkpt lat="43.27955244400911" lon="11.549904179026639"><ele>272.0</ele><time>2026-05-03T15:19:07Z</time></trkpt><trkpt lat="43.2796270301154" lon="11.549922205163806"><ele>272.0</ele><time>2026-05-03T15:19:08Z</time></trkpt><trkpt lat="43.27970104775719" lon="11.549931064916024"><ele>272.0</ele><time>2026-05-03T15:19:09Z</time></trkpt><trkpt lat="43.27977918301742" lon="11.54992940475603"><ele>271.5</ele><time>2026-05-03T15:19:10Z</time></trkpt><trkpt lat="43.27985505383319" lon="11.549923703716273"><ele>271.0</ele><time>2026-05-03T15:19:11Z</time></trkpt><trkpt lat="43.279932110242115" lon="11.549913643148574"><ele>270.5</ele><time>2026-05-03T15:19:12Z</time></trkpt><trkpt lat="43.28001091523311" lon="11.54989098347641"><ele>270.0</ele><time>2026-05-03T15:19:13Z</time></trkpt><trkpt lat="43.280096159403435" lon="11.549854943134092"><ele>269.5</ele><time>2026-05-03T15:19:14Z</time></trkpt><trkpt lat="43.280186182913944" lon="11.549804173941311"><ele>269.0</ele><time>2026-05-03T15:19:15Z</time></trkpt><trkpt lat="43.28027169840299" lon="11.549750243166011"><ele>269.0</ele><time>2026-05-03T15:19:16Z</time></trkpt><trkpt lat="43.280359275919885" lon="11.549701259798608"><ele>269.0</ele><time>2026-05-03T15:19:17Z</time></trkpt><trkpt lat="43.28043935730163" lon="11.549649575647049"><ele>269.0</ele><time>2026-05-03T15:19:18Z</time></trkpt><trkpt lat="43.280516294358584" lon="11.549596943757125"><ele>269.0</ele><time>2026-05-03T15:19:19Z</time></trkpt><trkpt lat="43.28059103184929" lon="11.549544240824382"><ele>269.0</ele><time>2026-05-03T15:19:20Z</time></trkpt><trkpt lat="43.280660087109005" lon="11.549469188188498"><ele>269.0</ele><time>2026-05-03T15:19:21Z</time></trkpt><trkpt lat="43.2807217332376" lon="11.549383757940097"><ele>271.4</ele><time>2026-05-03T15:19:22Z</time></trkpt><trkpt lat="43.28077941491782" lon="11.549287676147948"><ele>273.79999999999995</ele><time>2026-05-03T15:19:23Z</time></trkpt><trkpt lat="43.280830214558776" lon="11.549186706693451"><ele>276.20000000000005</ele><time>2026-05-03T15:19:24Z</time></trkpt><trkpt lat="43.28088103330967" lon="11.549087515690628"><ele>278.6</ele><time>2026-05-03T15:19:25Z</time></trkpt><trkpt lat="43.28093894549871" lon="11.548987901797295"><ele>281.0</ele><time>2026-05-03T15:19:26Z</time></trkpt><trkpt lat="43.28100781042598" lon="11.548888704618626"><ele>281.0</ele><time>2026-05-03T15:19:27Z</time></trkpt><trkpt lat="43.28108307486819" lon="11.548792305170378"><ele>281.0</ele><time>2026-05-03T15:19:28Z</time></trkpt><trkpt lat="43.28116366068463" lon="11.548698043813507"><ele>281.0</ele><time>2026-05-03T15:19:29Z</time></trkpt><trkpt lat="43.28124364044004" lon="11.548617093767692"><ele>281.0</ele><time>2026-05-03T15:19:30Z</time></trkpt><trkpt lat="43.28131608207113" lon="11.548563577428897"><ele>281.0</ele><time>2026-05-03T15:19:31Z</time></trkpt><trkpt lat="43.2813819348993" lon="11.54848477774876"><ele>283.8571428571429</ele><time>2026-05-03T15:19:32Z</time></trkpt><trkpt lat="43.28144573522287" lon="11.54841464198561"><ele>286.7142857142857</ele><time>2026-05-03T15:19:33Z</time></trkpt><trkpt lat="43.28150096534813" lon="11.548351926054977"><ele>289.57142857142856</ele><time>2026-05-03T15:19:34Z</time></trkpt><trkpt lat="43.2815592879994" lon="11.54829428716337"><ele>292.42857142857144</ele><time>2026-05-03T15:19:35Z</time></trkpt><trkpt lat="43.28161614811019" lon="11.548236927740481"><ele>295.2857142857143</ele><time>2026-05-03T15:19:36Z</time></trkpt><trkpt lat="43.28168122995329" lon="11.548188670645775"><ele>298.14285714285717</ele><time>2026-05-03T15:19:37Z</time></trkpt><trkpt lat="43.28174468149569" lon="11.548151957738032"><ele>301.0</ele><time>2026-05-03T15:19:38Z</time></trkpt><trkpt lat="43.28181178615452" lon="11.548134239068336"><ele>301.0</ele><time>2026-05-03T15:19:39Z</time></trkpt><trkpt lat="43.28188359436485" lon="11.548126947555712"><ele>301.0</ele><time>2026-05-03T15:19:40Z</time></trkpt><trkpt lat="43.281948938288124" lon="11.548136342192679"><ele>301.0</ele><time>2026-05-03T15:19:41Z</time></trkpt><trkpt lat="43.28201351248121" lon="11.548145185520188"><ele>301.0</ele><time>2026-05-03T15:19:42Z</time></trkpt><trkpt lat="43.282111478092496" lon="11.548145178082015"><ele>301.0</ele><time>2026-05-03T15:19:44Z</time></trkpt><trkpt lat="43.28220906618362" lon="11.54812993888268"><ele>301.0</ele><time>2026-05-03T15:19:46Z</time></trkpt><trkpt lat="43.28233432301198" lon="11.548151170667264"><ele>302.16666666666663</ele><time>2026-05-03T15:19:48Z</time></trkpt><trkpt lat="43.28240985304508" lon="11.548149871175987"><ele>303.3333333333333</ele><time>2026-05-03T15:19:49Z</time></trkpt><trkpt lat="43.282491972888884" lon="11.548166237336389"><ele>304.5</ele><time>2026-05-03T15:19:50Z</time></trkpt><trkpt lat="43.28257444013957" lon="11.548173943253461"><ele>305.6666666666667</ele><time>2026-05-03T15:19:51Z</time></trkpt><trkpt lat="43.282659966939114" lon="11.548186087277044"><ele>306.83333333333337</ele><time>2026-05-03T15:19:52Z</time></trkpt><trkpt lat="43.2827339601229" lon="11.548213303691936"><ele>308.0</ele><time>2026-05-03T15:19:53Z</time></trkpt><trkpt lat="43.282813713756276" lon="11.54825378627188"><ele>308.0</ele><time>2026-05-03T15:19:54Z</time></trkpt><trkpt lat="43.28289343147067" lon="11.548296444736023"><ele>308.0</ele><time>2026-05-03T15:19:55Z</time></trkpt><trkpt lat="43.282971631143106" lon="11.548353056510948"><ele>308.0</ele><time>2026-05-03T15:19:56Z</time></trkpt><trkpt lat="43.28305249902219" lon="11.548429143508269"><ele>308.0</ele><time>2026-05-03T15:19:57Z</time></trkpt><trkpt lat="43.28313293539296" lon="11.548499418948833"><ele>308.0</ele><time>2026-05-03T15:19:58Z</time></trkpt><trkpt lat="43.28321050029783" lon="11.548567304791082"><ele>309.33333333333337</ele><time>2026-05-03T15:19:59Z</time></trkpt><trkpt lat="43.28328627297631" lon="11.548630726204673"><ele>310.6666666666667</ele><time>2026-05-03T15:20:00Z</time></trkpt><trkpt lat="43.28335035059265" lon="11.548681195435266"><ele>312.0</ele><time>2026-05-03T15:20:01Z</time></trkpt><trkpt lat="43.28343655825695" lon="11.548725341306941"><ele>313.3333333333333</ele><time>2026-05-03T15:20:02Z</time></trkpt><trkpt lat="43.28352337429965" lon="11.548754891926508"><ele>314.66666666666663</ele><time>2026-05-03T15:20:03Z</time></trkpt><trkpt lat="43.28359718952134" lon="11.548780158520348"><ele>316.0</ele><time>2026-05-03T15:20:04Z</time></trkpt><trkpt lat="43.28366681719603" lon="11.54880091128383"><ele>316.00000000000006</ele><time>2026-05-03T15:20:05Z</time></trkpt><trkpt lat="43.28372804363719" lon="11.548837159863922"><ele>316.0</ele><time>2026-05-03T15:20:06Z</time></trkpt><trkpt lat="43.28379120678901" lon="11.548849055104213"><ele>316.0</ele><time>2026-05-03T15:20:07Z</time></trkpt><trkpt lat="43.283854868483395" lon="11.548834106544243"><ele>316.0</ele><time>2026-05-03T15:20:08Z</time></trkpt><trkpt lat="43.28392602945403" lon="11.548851166526658"><ele>316.0</ele><time>2026-05-03T15:20:09Z</time></trkpt><trkpt lat="43.28399196397228" lon="11.548842510245198"><ele>316.00000000000006</ele><time>2026-05-03T15:20:10Z</time></trkpt><trkpt lat="43.28406556980599" lon="11.548822014141162"><ele>316.0</ele><time>2026-05-03T15:20:11Z</time></trkpt><trkpt lat="43.284141481773446" lon="11.548817139851526"><ele>312.8333333333333</ele><time>2026-05-03T15:20:12Z</time></trkpt><trkpt lat="43.284213572060324" lon="11.548779189542216"><ele>309.66666666666663</ele><time>2026-05-03T15:20:13Z</time></trkpt><trkpt lat="43.28427785717217" lon="11.548725221146222"><ele>306.5</ele><time>2026-05-03T15:20:14Z</time></trkpt><trkpt lat="43.284333666745276" lon="11.54863812520989"><ele>303.3333333333333</ele><time>2026-05-03T15:20:15Z</time></trkpt><trkpt lat="43.28438222166416" lon="11.548550639306425"><ele>300.1666666666667</ele><time>2026-05-03T15:20:16Z</time></trkpt><trkpt lat="43.284422576718356" lon="11.548460945311506"><ele>297.0</ele><time>2026-05-03T15:20:17Z</time></trkpt><trkpt lat="43.28445992640748" lon="11.548370693873686"><ele>296.7142857142857</ele><time>2026-05-03T15:20:18Z</time></trkpt><trkpt lat="43.28449718124734" lon="11.548280671604461"><ele>296.42857142857144</ele><time>2026-05-03T15:20:19Z</time></trkpt><trkpt lat="43.28452952393253" lon="11.548197708180721"><ele>296.14285714285717</ele><time>2026-05-03T15:20:20Z</time></trkpt><trkpt lat="43.28455235070673" lon="11.54809981059362"><ele>295.8571428571429</ele><time>2026-05-03T15:20:21Z</time></trkpt><trkpt lat="43.28458642391951" lon="11.548016374780616"><ele>295.57142857142856</ele><time>2026-05-03T15:20:22Z</time></trkpt><trkpt lat="43.2846133282361" lon="11.54793672683121"><ele>295.28571428571433</ele><time>2026-05-03T15:20:23Z</time></trkpt><trkpt lat="43.284640913490236" lon="11.547850345967525"><ele>295.0</ele><time>2026-05-03T15:20:24Z</time></trkpt><trkpt lat="43.284669932801776" lon="11.547759233619361"><ele>293.3333333333333</ele><time>2026-05-03T15:20:25Z</time></trkpt><trkpt lat="43.28469732233641" lon="11.547665224786426"><ele>291.66666666666663</ele><time>2026-05-03T15:20:26Z</time></trkpt><trkpt lat="43.28471403448516" lon="11.547555197516465"><ele>290.0</ele><time>2026-05-03T15:20:27Z</time></trkpt><trkpt lat="43.28472519845698" lon="11.547438433203517"><ele>288.3333333333333</ele><time>2026-05-03T15:20:28Z</time></trkpt><trkpt lat="43.28473222921942" lon="11.547322360384547"><ele>286.6666666666667</ele><time>2026-05-03T15:20:29Z</time></trkpt><trkpt lat="43.28475886726669" lon="11.54721041125056"><ele>285.0</ele><time>2026-05-03T15:20:30Z</time></trkpt><trkpt lat="43.28477823873621" lon="11.547101947526446"><ele>289.1666666666667</ele><time>2026-05-03T15:20:31Z</time></trkpt><trkpt lat="43.28480705539006" lon="11.54699895917665"><ele>293.3333333333333</ele><time>2026-05-03T15:20:32Z</time></trkpt><trkpt lat="43.284838539756215" lon="11.546891774304502"><ele>297.5</ele><time>2026-05-03T15:20:33Z</time></trkpt><trkpt lat="43.28489585065554" lon="11.546805986868721"><ele>301.66666666666663</ele><time>2026-05-03T15:20:34Z</time></trkpt><trkpt lat="43.28495900351852" lon="11.546724123101326"><ele>305.8333333333333</ele><time>2026-05-03T15:20:35Z</time></trkpt><trkpt lat="43.285030372013665" lon="11.546656711921406"><ele>310.0</ele><time>2026-05-03T15:20:36Z</time></trkpt><trkpt lat="43.285109470727406" lon="11.546588494582327"><ele>310.0</ele><time>2026-05-03T15:20:37Z</time></trkpt><trkpt lat="43.28519955429123" lon="11.546533871111436"><ele>310.0</ele><time>2026-05-03T15:20:38Z</time></trkpt><trkpt lat="43.28528427617258" lon="11.54648517293793"><ele>310.0</ele><time>2026-05-03T15:20:39Z</time></trkpt><trkpt lat="43.285366524353655" lon="11.546450866805824"><ele>310.0</ele><time>2026-05-03T15:20:40Z</time></trkpt><trkpt lat="43.28544873008188" lon="11.546417750389406"><ele>310.0</ele><time>2026-05-03T15:20:41Z</time></trkpt><trkpt lat="43.28554458878175" lon="11.546383855153659"><ele>309.6</ele><time>2026-05-03T15:20:42Z</time></trkpt><trkpt lat="43.28563595247263" lon="11.546339391811582"><ele>309.2</ele><time>2026-05-03T15:20:43Z</time></trkpt><trkpt lat="43.28571757536154" lon="11.54627957739631"><ele>308.8</ele><time>2026-05-03T15:20:44Z</time></trkpt><trkpt lat="43.28580007233253" lon="11.546216359670556"><ele>308.4</ele><time>2026-05-03T15:20:45Z</time></trkpt><trkpt lat="43.285887634838645" lon="11.546157973136886"><ele>308.0</ele><time>2026-05-03T15:20:46Z</time></trkpt><trkpt lat="43.28596015312113" lon="11.546088767688273"><ele>308.85714285714283</ele><time>2026-05-03T15:20:47Z</time></trkpt><trkpt lat="43.28602750432197" lon="11.546027395351597"><ele>309.7142857142857</ele><time>2026-05-03T15:20:48Z</time></trkpt><trkpt lat="43.28608840145668" lon="11.54597561043844"><ele>310.57142857142856</ele><time>2026-05-03T15:20:49Z</time></trkpt><trkpt lat="43.28614677977278" lon="11.545932879832531"><ele>311.42857142857144</ele><time>2026-05-03T15:20:50Z</time></trkpt><trkpt lat="43.286208617836486" lon="11.545891366241857"><ele>312.2857142857143</ele><time>2026-05-03T15:20:51Z</time></trkpt><trkpt lat="43.28627189817807" lon="11.545878050482036"><ele>313.1428571428571</ele><time>2026-05-03T15:20:52Z</time></trkpt><trkpt lat="43.28634140376981" lon="11.545884027747277"><ele>314.0</ele><time>2026-05-03T15:20:53Z</time></trkpt><trkpt lat="43.286413248903926" lon="11.545897034411011"><ele>313.71428571428567</ele><time>2026-05-03T15:20:54Z</time></trkpt><trkpt lat="43.2864776203566" lon="11.545933084950443"><ele>313.42857142857144</ele><time>2026-05-03T15:20:55Z</time></trkpt><trkpt lat="43.2865359004228" lon="11.54597916045612"><ele>313.1428571428571</ele><time>2026-05-03T15:20:56Z</time></trkpt><trkpt lat="43.28659776889563" lon="11.546028644839515"><ele>312.85714285714283</ele><time>2026-05-03T15:20:57Z</time></trkpt><trkpt lat="43.286662867939704" lon="11.546076472204277"><ele>312.57142857142856</ele><time>2026-05-03T15:20:58Z</time></trkpt><trkpt lat="43.28672728043703" lon="11.546123918027694"><ele>312.2857142857143</ele><time>2026-05-03T15:20:59Z</time></trkpt><trkpt lat="43.28679774712245" lon="11.546159085626707"><ele>312.0</ele><time>2026-05-03T15:21:00Z</time></trkpt><trkpt lat="43.28687655096328" lon="11.54616770384928"><ele>312.0</ele><time>2026-05-03T15:21:01Z</time></trkpt><trkpt lat="43.28695830144977" lon="11.546157469722441"><ele>312.0</ele><time>2026-05-03T15:21:02Z</time></trkpt><trkpt lat="43.28703998658051" lon="11.546126937209278"><ele>312.0</ele><time>2026-05-03T15:21:03Z</time></trkpt><trkpt lat="43.28711786521965" lon="11.546114720206484"><ele>312.0</ele><time>2026-05-03T15:21:04Z</time></trkpt><trkpt lat="43.28717834345951" lon="11.546063079506961"><ele>312.0</ele><time>2026-05-03T15:21:05Z</time></trkpt><trkpt lat="43.28722875213416" lon="11.545974288317485"><ele>312.0</ele><time>2026-05-03T15:21:06Z</time></trkpt><trkpt lat="43.28726061929715" lon="11.545876530010021"><ele>309.8</ele><time>2026-05-03T15:21:07Z</time></trkpt><trkpt lat="43.28728828611328" lon="11.545769275923739"><ele>307.6</ele><time>2026-05-03T15:21:08Z</time></trkpt><trkpt lat="43.28731413231781" lon="11.545647159343723"><ele>305.40000000000003</ele><time>2026-05-03T15:21:09Z</time></trkpt><trkpt lat="43.28733480331149" lon="11.54551828935424"><ele>303.2</ele><time>2026-05-03T15:21:10Z</time></trkpt><trkpt lat="43.28735336784449" lon="11.545380438664377"><ele>301.0</ele><time>2026-05-03T15:21:11Z</time></trkpt><trkpt lat="43.28735498948283" lon="11.545233513991406"><ele>301.0</ele><time>2026-05-03T15:21:12Z</time></trkpt><trkpt lat="43.28737128761564" lon="11.545082054315298"><ele>301.0</ele><time>2026-05-03T15:21:13Z</time></trkpt><trkpt lat="43.28738094004613" lon="11.54492537393809"><ele>301.0</ele><time>2026-05-03T15:21:14Z</time></trkpt><trkpt lat="43.28740181691181" lon="11.544770795637538"><ele>301.0</ele><time>2026-05-03T15:21:15Z</time></trkpt><trkpt lat="43.28742638884059" lon="11.544621336362754"><ele>300.66666666666663</ele><time>2026-05-03T15:21:16Z</time></trkpt><trkpt lat="43.28745382046538" lon="11.544481580366519"><ele>300.3333333333333</ele><time>2026-05-03T15:21:17Z</time></trkpt><trkpt lat="43.287485343283066" lon="11.544353257085696"><ele>300.0</ele><time>2026-05-03T15:21:18Z</time></trkpt><trkpt lat="43.287518393710734" lon="11.544239167531932"><ele>299.6666666666667</ele><time>2026-05-03T15:21:19Z</time></trkpt><trkpt lat="43.28755849439181" lon="11.544141833797102"><ele>299.33333333333337</ele><time>2026-05-03T15:21:20Z</time></trkpt><trkpt lat="43.28759255395101" lon="11.544054364071572"><ele>299.0</ele><time>2026-05-03T15:21:21Z</time></trkpt><trkpt lat="43.2876145275514" lon="11.543966783037856"><ele>299.0</ele><time>2026-05-03T15:21:22Z</time></trkpt><trkpt lat="43.28763115152483" lon="11.543802290926891"><ele>299.0</ele><time>2026-05-03T15:21:24Z</time></trkpt><trkpt lat="43.287624559634374" lon="11.543649533227455"><ele>299.0</ele><time>2026-05-03T15:21:26Z</time></trkpt><trkpt lat="43.28761582011474" lon="11.543510789950078"><ele>299.0</ele><time>2026-05-03T15:21:28Z</time></trkpt><trkpt lat="43.287624533163125" lon="11.543403211201065"><ele>299.0</ele><time>2026-05-03T15:21:30Z</time></trkpt><trkpt lat="43.28762909485716" lon="11.543314666375128"><ele>298.1666666666667</ele><time>2026-05-03T15:21:32Z</time></trkpt><trkpt lat="43.287656727930795" lon="11.543204300235283"><ele>297.33333333333337</ele><time>2026-05-03T15:21:35Z</time></trkpt><trkpt lat="43.28767870661273" lon="11.543108880311935"><ele>296.5</ele><time>2026-05-03T15:21:39Z</time></trkpt><trkpt lat="43.287710068207105" lon="11.542988737930388"><ele>295.6666666666667</ele><time>2026-05-03T15:21:41Z</time></trkpt><trkpt lat="43.287747908452616" lon="11.542832235558222"><ele>294.8333333333333</ele><time>2026-05-03T15:21:43Z</time></trkpt><trkpt lat="43.28777110196914" lon="11.542751012503116"><ele>294.0</ele><time>2026-05-03T15:21:44Z</time></trkpt><trkpt lat="43.2878029753443" lon="11.542625108552977"><ele>291.59999999999997</ele><time>2026-05-03T15:21:46Z</time></trkpt><trkpt lat="43.28783965348037" lon="11.5425541542149"><ele>289.2</ele><time>2026-05-03T15:21:48Z</time></trkpt><trkpt lat="43.287794991668164" lon="11.54247433566786"><ele>286.79999999999995</ele><time>2026-05-03T15:22:48Z</time></trkpt><trkpt lat="43.28787640787819" lon="11.542434466997298"><ele>284.4</ele><time>2026-05-03T15:27:36Z</time></trkpt><trkpt lat="43.28795201986652" lon="11.542351669376929"><ele>282.0</ele><time>2026-05-03T15:27:38Z</time></trkpt><trkpt lat="43.28802580389413" lon="11.542176460135217"><ele>282.0</ele><time>2026-05-03T15:27:40Z</time></trkpt><trkpt lat="43.28808403552207" lon="11.54207825236272"><ele>282.0</ele><time>2026-05-03T15:27:41Z</time></trkpt><trkpt lat="43.28815061586391" lon="11.541990363787987"><ele>282.0</ele><time>2026-05-03T15:27:42Z</time></trkpt><trkpt lat="43.288193511016786" lon="11.541887037984765"><ele>282.0</ele><time>2026-05-03T15:27:43Z</time></trkpt><trkpt lat="43.28822008651269" lon="11.54178108773716"><ele>282.0</ele><time>2026-05-03T15:27:44Z</time></trkpt><trkpt lat="43.28825207462371" lon="11.541677174144015"><ele>282.0</ele><time>2026-05-03T15:27:45Z</time></trkpt><trkpt lat="43.28830248500905" lon="11.541590259515008"><ele>285.3333333333333</ele><time>2026-05-03T15:27:46Z</time></trkpt><trkpt lat="43.28833182586845" lon="11.541502123470421"><ele>288.6666666666667</ele><time>2026-05-03T15:27:47Z</time></trkpt><trkpt lat="43.28839836073855" lon="11.5414426477652"><ele>292.0</ele><time>2026-05-03T15:27:48Z</time></trkpt><trkpt lat="43.288464574249446" lon="11.541373311635306"><ele>295.33333333333337</ele><time>2026-05-03T15:27:49Z</time></trkpt><trkpt lat="43.2885422990274" lon="11.541319244021535"><ele>298.6666666666667</ele><time>2026-05-03T15:27:50Z</time></trkpt><trkpt lat="43.28862757274968" lon="11.541277994419506"><ele>302.0</ele><time>2026-05-03T15:27:51Z</time></trkpt><trkpt lat="43.28872981414854" lon="11.541247929743324"><ele>302.0</ele><time>2026-05-03T15:27:52Z</time></trkpt><trkpt lat="43.28884742265482" lon="11.541214161391688"><ele>302.0</ele><time>2026-05-03T15:27:53Z</time></trkpt><trkpt lat="43.28895745671759" lon="11.541165105095121"><ele>302.0</ele><time>2026-05-03T15:27:54Z</time></trkpt><trkpt lat="43.28905598714297" lon="11.541137640925461"><ele>302.0</ele><time>2026-05-03T15:27:55Z</time></trkpt><trkpt lat="43.289140821920135" lon="11.541106335375002"><ele>302.0</ele><time>2026-05-03T15:27:56Z</time></trkpt><trkpt lat="43.289233159480894" lon="11.541088754716913"><ele>302.0</ele><time>2026-05-03T15:27:57Z</time></trkpt><trkpt lat="43.2893241862899" lon="11.541087953833536"><ele>302.0</ele><time>2026-05-03T15:27:58Z</time></trkpt><trkpt lat="43.28941922407224" lon="11.541105362701146"><ele>302.0</ele><time>2026-05-03T15:27:59Z</time></trkpt><trkpt lat="43.289497851790664" lon="11.541162801745118"><ele>302.0</ele><time>2026-05-03T15:28:00Z</time></trkpt><trkpt lat="43.289586225348025" lon="11.541195109911675"><ele>302.0</ele><time>2026-05-03T15:28:01Z</time></trkpt><trkpt lat="43.28968010516789" lon="11.541215502882004"><ele>302.0</ele><time>2026-05-03T15:28:02Z</time></trkpt><trkpt lat="43.28976299110923" lon="11.541231540618725"><ele>302.0</ele><time>2026-05-03T15:28:03Z</time></trkpt><trkpt lat="43.289859915144724" lon="11.541240576013758"><ele>302.0</ele><time>2026-05-03T15:28:04Z</time></trkpt><trkpt lat="43.28995931656087" lon="11.541226166686537"><ele>302.0</ele><time>2026-05-03T15:28:05Z</time></trkpt><trkpt lat="43.29005122806992" lon="11.541214134052773"><ele>302.0</ele><time>2026-05-03T15:28:06Z</time></trkpt><trkpt lat="43.29014322912998" lon="11.54120040919509"><ele>302.0</ele><time>2026-05-03T15:28:07Z</time></trkpt><trkpt lat="43.29023845621191" lon="11.541209999791436"><ele>302.0</ele><time>2026-05-03T15:28:08Z</time></trkpt><trkpt lat="43.29032938403068" lon="11.541220224686876"><ele>302.0</ele><time>2026-05-03T15:28:09Z</time></trkpt><trkpt lat="43.290422807150975" lon="11.541247873732923"><ele>302.0</ele><time>2026-05-03T15:28:10Z</time></trkpt><trkpt lat="43.29051182981585" lon="11.541279535603348"><ele>302.0</ele><time>2026-05-03T15:28:11Z</time></trkpt><trkpt lat="43.29059756575735" lon="11.541319104172262"><ele>303.14285714285717</ele><time>2026-05-03T15:28:12Z</time></trkpt><trkpt lat="43.290669983947225" lon="11.541349821367687"><ele>304.2857142857143</ele><time>2026-05-03T15:28:13Z</time></trkpt><trkpt lat="43.2907450534721" lon="11.541375071592247"><ele>305.42857142857144</ele><time>2026-05-03T15:28:14Z</time></trkpt><trkpt lat="43.29080908478614" lon="11.541392248922865"><ele>306.57142857142856</ele><time>2026-05-03T15:28:15Z</time></trkpt><trkpt lat="43.29087681007701" lon="11.541399056871182"><ele>307.7142857142857</ele><time>2026-05-03T15:28:16Z</time></trkpt><trkpt lat="43.29094932094139" lon="11.541393752712171"><ele>308.8571428571429</ele><time>2026-05-03T15:28:17Z</time></trkpt><trkpt lat="43.29101492957495" lon="11.541369250478542"><ele>310.0</ele><time>2026-05-03T15:28:18Z</time></trkpt><trkpt lat="43.2910780346417" lon="11.541331599103824"><ele>310.0</ele><time>2026-05-03T15:28:19Z</time></trkpt><trkpt lat="43.29113969621549" lon="11.541282775638916"><ele>310.0</ele><time>2026-05-03T15:28:20Z</time></trkpt><trkpt lat="43.29119366921848" lon="11.541217655745806"><ele>310.0</ele><time>2026-05-03T15:28:21Z</time></trkpt><trkpt lat="43.291247409426774" lon="11.541143619018925"><ele>310.0</ele><time>2026-05-03T15:28:22Z</time></trkpt><trkpt lat="43.29130229811861" lon="11.54107480077041"><ele>310.0</ele><time>2026-05-03T15:28:23Z</time></trkpt><trkpt lat="43.291336426382486" lon="11.540995024349831"><ele>310.0</ele><time>2026-05-03T15:28:24Z</time></trkpt><trkpt lat="43.291328914982046" lon="11.540891552529654"><ele>310.0</ele><time>2026-05-03T15:28:25Z</time></trkpt><trkpt lat="43.291332469515204" lon="11.540718371352213"><ele>309.0</ele><time>2026-05-03T15:28:27Z</time></trkpt><trkpt lat="43.29131952920585" lon="11.540620503068267"><ele>308.0</ele><time>2026-05-03T15:28:28Z</time></trkpt><trkpt lat="43.29132674332219" lon="11.540512366289947"><ele>307.0</ele><time>2026-05-03T15:28:29Z</time></trkpt><trkpt lat="43.29131845208314" lon="11.540395266117873"><ele>306.0</ele><time>2026-05-03T15:28:30Z</time></trkpt><trkpt lat="43.2913232896022" lon="11.54027370771218"><ele>305.0</ele><time>2026-05-03T15:28:31Z</time></trkpt><trkpt lat="43.29133816713677" lon="11.540150071287856"><ele>304.0</ele><time>2026-05-03T15:28:32Z</time></trkpt><trkpt lat="43.29136232454723" lon="11.540028272091073"><ele>303.59999999999997</ele><time>2026-05-03T15:28:33Z</time></trkpt><trkpt lat="43.29139773740927" lon="11.539907894757981"><ele>303.2</ele><time>2026-05-03T15:28:34Z</time></trkpt><trkpt lat="43.291444676737406" lon="11.539776693325967"><ele>302.79999999999995</ele><time>2026-05-03T15:28:35Z</time></trkpt><trkpt lat="43.29149422401164" lon="11.539637828169893"><ele>302.4</ele><time>2026-05-03T15:28:36Z</time></trkpt><trkpt lat="43.291539109507944" lon="11.539513728125593"><ele>302.0</ele><time>2026-05-03T15:28:37Z</time></trkpt><trkpt lat="43.29159026308156" lon="11.539374577530777"><ele>305.0</ele><time>2026-05-03T15:28:38Z</time></trkpt><trkpt lat="43.29163369589733" lon="11.539216118892906"><ele>308.0</ele><time>2026-05-03T15:28:39Z</time></trkpt><trkpt lat="43.291689190519406" lon="11.539088398217677"><ele>311.0</ele><time>2026-05-03T15:28:40Z</time></trkpt><trkpt lat="43.29173801896638" lon="11.53898165991634"><ele>314.0</ele><time>2026-05-03T15:28:41Z</time></trkpt><trkpt lat="43.29179261334679" lon="11.53890111872979"><ele>317.0</ele><time>2026-05-03T15:28:42Z</time></trkpt><trkpt lat="43.29184733907941" lon="11.538843601014461"><ele>317.0</ele><time>2026-05-03T15:28:43Z</time></trkpt><trkpt lat="43.29190593547552" lon="11.538808256245986"><ele>317.0</ele><time>2026-05-03T15:28:44Z</time></trkpt><trkpt lat="43.2919701179336" lon="11.538818067734976"><ele>317.0</ele><time>2026-05-03T15:28:45Z</time></trkpt><trkpt lat="43.29204069562709" lon="11.538818925070363"><ele>317.0</ele><time>2026-05-03T15:28:46Z</time></trkpt><trkpt lat="43.292119168670006" lon="11.538837820741564"><ele>317.0</ele><time>2026-05-03T15:28:47Z</time></trkpt><trkpt lat="43.292198103567365" lon="11.538844907105936"><ele>317.0</ele><time>2026-05-03T15:28:48Z</time></trkpt><trkpt lat="43.29227449359114" lon="11.538876605256785"><ele>317.0</ele><time>2026-05-03T15:28:49Z</time></trkpt><trkpt lat="43.292354192087956" lon="11.538904110651657"><ele>317.0</ele><time>2026-05-03T15:28:50Z</time></trkpt><trkpt lat="43.29243434116633" lon="11.538926336624012"><ele>317.0</ele><time>2026-05-03T15:28:51Z</time></trkpt><trkpt lat="43.292504885625874" lon="11.538946578737093"><ele>317.0</ele><time>2026-05-03T15:28:52Z</time></trkpt><trkpt lat="43.29257743535346" lon="11.538946232598253"><ele>317.0</ele><time>2026-05-03T15:28:53Z</time></trkpt><trkpt lat="43.29264608943136" lon="11.538926966536238"><ele>317.0</ele><time>2026-05-03T15:28:54Z</time></trkpt><trkpt lat="43.292719349389955" lon="11.538886825846937"><ele>317.0</ele><time>2026-05-03T15:28:55Z</time></trkpt><trkpt lat="43.292795633229595" lon="11.538827144058303"><ele>317.0</ele><time>2026-05-03T15:28:56Z</time></trkpt><trkpt lat="43.29287348667738" lon="11.538750557437371"><ele>317.0</ele><time>2026-05-03T15:28:57Z</time></trkpt><trkpt lat="43.2929606710217" lon="11.538662359061046"><ele>317.0</ele><time>2026-05-03T15:28:58Z</time></trkpt><trkpt lat="43.293056255769145" lon="11.5385771923903"><ele>317.0</ele><time>2026-05-03T15:28:59Z</time></trkpt><trkpt lat="43.293155367432746" lon="11.53848191950358"><ele>317.0</ele><time>2026-05-03T15:29:00Z</time></trkpt><trkpt lat="43.29324826925219" lon="11.538393960105486"><ele>316.0</ele><time>2026-05-03T15:29:01Z</time></trkpt><trkpt lat="43.293344217727565" lon="11.538311484184879"><ele>315.0</ele><time>2026-05-03T15:29:02Z</time></trkpt><trkpt lat="43.293431337996935" lon="11.538233363961307"><ele>314.0</ele><time>2026-05-03T15:29:03Z</time></trkpt><trkpt lat="43.29351471336584" lon="11.5381578703921"><ele>313.0</ele><time>2026-05-03T15:29:04Z</time></trkpt><trkpt lat="43.29360109634412" lon="11.538081410761267"><ele>312.0</ele><time>2026-05-03T15:29:05Z</time></trkpt><trkpt lat="43.29368641775709" lon="11.538000058378564"><ele>312.0</ele><time>2026-05-03T15:29:06Z</time></trkpt><trkpt lat="43.29377515212633" lon="11.537912797580484"><ele>312.0</ele><time>2026-05-03T15:29:07Z</time></trkpt><trkpt lat="43.29387321773045" lon="11.537830265653488"><ele>312.0</ele><time>2026-05-03T15:29:08Z</time></trkpt><trkpt lat="43.29397478448617" lon="11.537743018276053"><ele>312.0</ele><time>2026-05-03T15:29:09Z</time></trkpt><trkpt lat="43.294066363387444" lon="11.5376384552229"><ele>312.25</ele><time>2026-05-03T15:29:10Z</time></trkpt><trkpt lat="43.294159703437465" lon="11.537526358475661"><ele>312.5</ele><time>2026-05-03T15:29:11Z</time></trkpt><trkpt lat="43.294249669289634" lon="11.537409862851241"><ele>312.75</ele><time>2026-05-03T15:29:12Z</time></trkpt><trkpt lat="43.29433889895467" lon="11.537296131111091"><ele>313.0</ele><time>2026-05-03T15:29:13Z</time></trkpt><trkpt lat="43.29442971122121" lon="11.537188340680613"><ele>313.0</ele><time>2026-05-03T15:29:14Z</time></trkpt><trkpt lat="43.29452188290824" lon="11.537096630372062"><ele>313.0</ele><time>2026-05-03T15:29:15Z</time></trkpt><trkpt lat="43.29461761912985" lon="11.53702593398112"><ele>313.0</ele><time>2026-05-03T15:29:16Z</time></trkpt><trkpt lat="43.29470496757265" lon="11.536974797799376"><ele>313.0</ele><time>2026-05-03T15:29:17Z</time></trkpt><trkpt lat="43.29477858138424" lon="11.536932157851329"><ele>313.0</ele><time>2026-05-03T15:29:18Z</time></trkpt><trkpt lat="43.29485498391116" lon="11.536884682026242"><ele>312.0</ele><time>2026-05-03T15:29:19Z</time></trkpt><trkpt lat="43.29493082764186" lon="11.536837801826113"><ele>311.0</ele><time>2026-05-03T15:29:20Z</time></trkpt><trkpt lat="43.2950115804902" lon="11.536807317470965"><ele>310.0</ele><time>2026-05-03T15:29:21Z</time></trkpt><trkpt lat="43.29509606442032" lon="11.5367981238003"><ele>309.0</ele><time>2026-05-03T15:29:22Z</time></trkpt><trkpt lat="43.2951781599013" lon="11.536789573032593"><ele>308.0</ele><time>2026-05-03T15:29:23Z</time></trkpt><trkpt lat="43.29525556503027" lon="11.536775807874934"><ele>307.0</ele><time>2026-05-03T15:29:24Z</time></trkpt><trkpt lat="43.29532562202364" lon="11.536737395051556"><ele>307.0</ele><time>2026-05-03T15:29:25Z</time></trkpt><trkpt lat="43.29539207396853" lon="11.53667931930712"><ele>307.0</ele><time>2026-05-03T15:29:26Z</time></trkpt><trkpt lat="43.29545581248839" lon="11.53660734743899"><ele>307.0</ele><time>2026-05-03T15:29:27Z</time></trkpt><trkpt lat="43.29551043877785" lon="11.536514207637156"><ele>307.0</ele><time>2026-05-03T15:29:28Z</time></trkpt><trkpt lat="43.29555759391344" lon="11.536410821552717"><ele>307.0</ele><time>2026-05-03T15:29:29Z</time></trkpt><trkpt lat="43.295602161457595" lon="11.53630633189662"><ele>307.0</ele><time>2026-05-03T15:29:30Z</time></trkpt><trkpt lat="43.29564078849905" lon="11.536191783130189"><ele>310.2</ele><time>2026-05-03T15:29:31Z</time></trkpt><trkpt lat="43.295690069531275" lon="11.536081054452158"><ele>313.4</ele><time>2026-05-03T15:29:32Z</time></trkpt><trkpt lat="43.295716452348145" lon="11.53594877263098"><ele>316.59999999999997</ele><time>2026-05-03T15:29:33Z</time></trkpt><trkpt lat="43.29575886044739" lon="11.535823786880782"><ele>319.79999999999995</ele><time>2026-05-03T15:29:34Z</time></trkpt><trkpt lat="43.295786719159956" lon="11.535696484092844"><ele>323.0</ele><time>2026-05-03T15:29:35Z</time></trkpt><trkpt lat="43.29579942764682" lon="11.535562531640942"><ele>323.0</ele><time>2026-05-03T15:29:36Z</time></trkpt><trkpt lat="43.29580927314413" lon="11.535427524544724"><ele>323.0</ele><time>2026-05-03T15:29:37Z</time></trkpt><trkpt lat="43.29582375006054" lon="11.535294648331059"><ele>323.0</ele><time>2026-05-03T15:29:38Z</time></trkpt><trkpt lat="43.29583566161035" lon="11.535166590933535"><ele>323.0</ele><time>2026-05-03T15:29:39Z</time></trkpt><trkpt lat="43.295844255029195" lon="11.535055249719935"><ele>323.0</ele><time>2026-05-03T15:29:40Z</time></trkpt><trkpt lat="43.29584947185705" lon="11.534959505723165"><ele>323.0</ele><time>2026-05-03T15:29:41Z</time></trkpt><trkpt lat="43.2958604106196" lon="11.534867693723013"><ele>323.6666666666667</ele><time>2026-05-03T15:29:42Z</time></trkpt><trkpt lat="43.29581863421164" lon="11.534777063122995"><ele>324.33333333333337</ele><time>2026-05-03T15:29:43Z</time></trkpt><trkpt lat="43.29577705313544" lon="11.534697728041772"><ele>325.0</ele><time>2026-05-03T15:29:44Z</time></trkpt><trkpt lat="43.29572350002902" lon="11.534629588910978"><ele>325.6666666666667</ele><time>2026-05-03T15:29:45Z</time></trkpt><trkpt lat="43.295655942339266" lon="11.53457436578063"><ele>326.3333333333333</ele><time>2026-05-03T15:29:46Z</time></trkpt><trkpt lat="43.29558540099244" lon="11.534517499000263"><ele>327.0</ele><time>2026-05-03T15:29:47Z</time></trkpt><trkpt lat="43.29551121541217" lon="11.53445683337809"><ele>327.5</ele><time>2026-05-03T15:29:48Z</time></trkpt><trkpt lat="43.29543265218251" lon="11.534396389138847"><ele>328.0</ele><time>2026-05-03T15:29:49Z</time></trkpt><trkpt lat="43.29535516771567" lon="11.53433013681507"><ele>328.5</ele><time>2026-05-03T15:29:50Z</time></trkpt><trkpt lat="43.29528252326543" lon="11.534259403312646"><ele>329.0</ele><time>2026-05-03T15:29:51Z</time></trkpt><trkpt lat="43.2952230563571" lon="11.53417923763269"><ele>329.5</ele><time>2026-05-03T15:29:52Z</time></trkpt><trkpt lat="43.29516826691072" lon="11.53409540835705"><ele>330.0</ele><time>2026-05-03T15:29:53Z</time></trkpt><trkpt lat="43.295112874650144" lon="11.534008169033683"><ele>330.0</ele><time>2026-05-03T15:29:54Z</time></trkpt><trkpt lat="43.29505597711384" lon="11.533936441148837"><ele>330.0</ele><time>2026-05-03T15:29:55Z</time></trkpt><trkpt lat="43.29498681266954" lon="11.533891201804153"><ele>330.0</ele><time>2026-05-03T15:29:56Z</time></trkpt><trkpt lat="43.29491391357962" lon="11.533848322238283"><ele>330.0</ele><time>2026-05-03T15:29:57Z</time></trkpt><trkpt lat="43.294835241962176" lon="11.533804860830058"><ele>330.0</ele><time>2026-05-03T15:29:58Z</time></trkpt><trkpt lat="43.294756650669775" lon="11.53376446276658"><ele>330.0</ele><time>2026-05-03T15:29:59Z</time></trkpt><trkpt lat="43.29468084119527" lon="11.533724657224608"><ele>329.00000000000006</ele><time>2026-05-03T15:30:00Z</time></trkpt><trkpt lat="43.29461555865868" lon="11.533683446376871"><ele>328.0</ele><time>2026-05-03T15:30:01Z</time></trkpt><trkpt lat="43.29456079941526" lon="11.533624105027787"><ele>327.0</ele><time>2026-05-03T15:30:02Z</time></trkpt><trkpt lat="43.29451657850207" lon="11.533554762033676"><ele>326.0</ele><time>2026-05-03T15:30:03Z</time></trkpt><trkpt lat="43.29448357126568" lon="11.533474707895886"><ele>325.0</ele><time>2026-05-03T15:30:04Z</time></trkpt><trkpt lat="43.294482621788994" lon="11.533370728878408"><ele>324.00000000000006</ele><time>2026-05-03T15:30:05Z</time></trkpt><trkpt lat="43.29448145596195" lon="11.533276546458827"><ele>323.0</ele><time>2026-05-03T15:30:06Z</time></trkpt><trkpt lat="43.29448829021508" lon="11.533170885867795"><ele>323.0</ele><time>2026-05-03T15:30:07Z</time></trkpt><trkpt lat="43.29446825577132" lon="11.533063589956104"><ele>323.0</ele><time>2026-05-03T15:30:08Z</time></trkpt><trkpt lat="43.29446158844279" lon="11.532951591658026"><ele>323.0</ele><time>2026-05-03T15:30:09Z</time></trkpt><trkpt lat="43.29445675479382" lon="11.53284011598166"><ele>323.0</ele><time>2026-05-03T15:30:10Z</time></trkpt><trkpt lat="43.294460968748155" lon="11.532726063978531"><ele>323.0</ele><time>2026-05-03T15:30:11Z</time></trkpt><trkpt lat="43.29446727420461" lon="11.532614666302788"><ele>323.0</ele><time>2026-05-03T15:30:12Z</time></trkpt><trkpt lat="43.294480883507624" lon="11.532507428783525"><ele>323.33333333333337</ele><time>2026-05-03T15:30:13Z</time></trkpt><trkpt lat="43.294496429559835" lon="11.532406740763767"><ele>323.6666666666667</ele><time>2026-05-03T15:30:14Z</time></trkpt><trkpt lat="43.29454149709848" lon="11.532320942017114"><ele>324.0</ele><time>2026-05-03T15:30:15Z</time></trkpt><trkpt lat="43.29456247075383" lon="11.532222141484668"><ele>324.3333333333333</ele><time>2026-05-03T15:30:16Z</time></trkpt><trkpt lat="43.29459041961891" lon="11.532130072686279"><ele>324.66666666666663</ele><time>2026-05-03T15:30:17Z</time></trkpt><trkpt lat="43.294623307275785" lon="11.53203121693526"><ele>325.0</ele><time>2026-05-03T15:30:18Z</time></trkpt><trkpt lat="43.2946602538887" lon="11.531931742134594"><ele>325.4</ele><time>2026-05-03T15:30:19Z</time></trkpt><trkpt lat="43.294708736052165" lon="11.531824173699436"><ele>325.8</ele><time>2026-05-03T15:30:20Z</time></trkpt><trkpt lat="43.29476141605105" lon="11.53172024277471"><ele>326.20000000000005</ele><time>2026-05-03T15:30:21Z</time></trkpt><trkpt lat="43.29481740183214" lon="11.531610688916858"><ele>326.6</ele><time>2026-05-03T15:30:22Z</time></trkpt><trkpt lat="43.29487595675292" lon="11.531496149950204"><ele>327.0</ele><time>2026-05-03T15:30:23Z</time></trkpt><trkpt lat="43.294928701631136" lon="11.531372491516459"><ele>325.6</ele><time>2026-05-03T15:30:24Z</time></trkpt><trkpt lat="43.2949885711379" lon="11.531262839898544"><ele>324.20000000000005</ele><time>2026-05-03T15:30:25Z</time></trkpt><trkpt lat="43.29505467175348" lon="11.531157822427152"><ele>322.8</ele><time>2026-05-03T15:30:26Z</time></trkpt><trkpt lat="43.2951274487828" lon="11.53106153939753"><ele>321.4</ele><time>2026-05-03T15:30:27Z</time></trkpt><trkpt lat="43.29520379389783" lon="11.530976379233135"><ele>320.0</ele><time>2026-05-03T15:30:28Z</time></trkpt><trkpt lat="43.29528585654332" lon="11.530896765909478"><ele>320.0</ele><time>2026-05-03T15:30:29Z</time></trkpt><trkpt lat="43.29537317499181" lon="11.530823156805827"><ele>320.0</ele><time>2026-05-03T15:30:30Z</time></trkpt><trkpt lat="43.2954640821218" lon="11.53075383609482"><ele>320.0</ele><time>2026-05-03T15:30:31Z</time></trkpt><trkpt lat="43.29555908109001" lon="11.530689789226143"><ele>320.0</ele><time>2026-05-03T15:30:32Z</time></trkpt><trkpt lat="43.2956533025963" lon="11.530630153092762"><ele>320.0</ele><time>2026-05-03T15:30:33Z</time></trkpt><trkpt lat="43.29574737809419" lon="11.530591665643092"><ele>317.5</ele><time>2026-05-03T15:30:34Z</time></trkpt><trkpt lat="43.2958324995065" lon="11.530548685423616"><ele>315.0</ele><time>2026-05-03T15:30:35Z</time></trkpt><trkpt lat="43.29591479963334" lon="11.530515830574801"><ele>312.5</ele><time>2026-05-03T15:30:36Z</time></trkpt><trkpt lat="43.29599157874232" lon="11.53048447934234"><ele>310.0</ele><time>2026-05-03T15:30:37Z</time></trkpt><trkpt lat="43.29606724737938" lon="11.530452690407994"><ele>307.5</ele><time>2026-05-03T15:30:38Z</time></trkpt><trkpt lat="43.29613897850554" lon="11.530423593656039"><ele>305.0</ele><time>2026-05-03T15:30:39Z</time></trkpt><trkpt lat="43.296209788664534" lon="11.530398422816411"><ele>305.5</ele><time>2026-05-03T15:30:40Z</time></trkpt><trkpt lat="43.296279609559484" lon="11.530370295484197"><ele>306.0</ele><time>2026-05-03T15:30:41Z</time></trkpt><trkpt lat="43.29634616374768" lon="11.530341360387176"><ele>306.5</ele><time>2026-05-03T15:30:42Z</time></trkpt><trkpt lat="43.2964096455816" lon="11.530314943847548"><ele>307.0</ele><time>2026-05-03T15:30:43Z</time></trkpt><trkpt lat="43.29647389009645" lon="11.530286217407053"><ele>307.5</ele><time>2026-05-03T15:30:44Z</time></trkpt><trkpt lat="43.29657599988192" lon="11.53021478331552"><ele>308.0</ele><time>2026-05-03T15:30:46Z</time></trkpt><trkpt lat="43.29663666843091" lon="11.530100327001241"><ele>308.0</ele><time>2026-05-03T15:30:48Z</time></trkpt><trkpt lat="43.29664523376082" lon="11.529976009302683"><ele>308.0</ele><time>2026-05-03T15:30:50Z</time></trkpt><trkpt lat="43.296603468376276" lon="11.529867247502239"><ele>308.0</ele><time>2026-05-03T15:30:52Z</time></trkpt><trkpt lat="43.2964997246833" lon="11.529757697956637"><ele>308.0</ele><time>2026-05-03T15:30:54Z</time></trkpt><trkpt lat="43.296423135488126" lon="11.529711428282102"><ele>308.0</ele><time>2026-05-03T15:30:55Z</time></trkpt><trkpt lat="43.29634689646651" lon="11.52967289255897"><ele>308.0</ele><time>2026-05-03T15:30:56Z</time></trkpt><trkpt lat="43.29627126815347" lon="11.529658377999047"><ele>308.0</ele><time>2026-05-03T15:30:57Z</time></trkpt><trkpt lat="43.29619678140457" lon="11.529626045050751"><ele>308.0</ele><time>2026-05-03T15:30:58Z</time></trkpt><trkpt lat="43.29612290307854" lon="11.529602262306605"><ele>308.0</ele><time>2026-05-03T15:30:59Z</time></trkpt><trkpt lat="43.29604788572081" lon="11.529592397580997"><ele>308.0</ele><time>2026-05-03T15:31:00Z</time></trkpt><trkpt lat="43.295974164681" lon="11.52958091696996"><ele>308.0</ele><time>2026-05-03T15:31:01Z</time></trkpt><trkpt lat="43.29590150436982" lon="11.529544982002689"><ele>306.1666666666667</ele><time>2026-05-03T15:31:02Z</time></trkpt><trkpt lat="43.29582591878675" lon="11.529491862957943"><ele>304.33333333333337</ele><time>2026-05-03T15:31:03Z</time></trkpt><trkpt lat="43.295747771030555" lon="11.529429973849725"><ele>302.5</ele><time>2026-05-03T15:31:04Z</time></trkpt><trkpt lat="43.29566691735946" lon="11.52936496866232"><ele>300.6666666666667</ele><time>2026-05-03T15:31:05Z</time></trkpt><trkpt lat="43.29558863382853" lon="11.52931991572713"><ele>298.8333333333333</ele><time>2026-05-03T15:31:06Z</time></trkpt><trkpt lat="43.29551617655633" lon="11.529289999313834"><ele>297.0</ele><time>2026-05-03T15:31:07Z</time></trkpt><trkpt lat="43.295452074551974" lon="11.529271147842778"><ele>297.0</ele><time>2026-05-03T15:31:08Z</time></trkpt><trkpt lat="43.295354029893424" lon="11.529204278598062"><ele>297.0</ele><time>2026-05-03T15:31:10Z</time></trkpt><trkpt lat="43.295293460746215" lon="11.529109799357649"><ele>297.0</ele><time>2026-05-03T15:31:12Z</time></trkpt><trkpt lat="43.295332675934624" lon="11.52898689565756"><ele>297.0</ele><time>2026-05-03T15:31:14Z</time></trkpt><trkpt lat="43.29540494501843" lon="11.528898904859709"><ele>297.0</ele><time>2026-05-03T15:31:16Z</time></trkpt><trkpt lat="43.295519841088684" lon="11.528821174755388"><ele>296.57142857142856</ele><time>2026-05-03T15:31:18Z</time></trkpt><trkpt lat="43.295587455046736" lon="11.528773066685506"><ele>296.14285714285717</ele><time>2026-05-03T15:31:19Z</time></trkpt><trkpt lat="43.29565239693391" lon="11.528722379069286"><ele>295.7142857142857</ele><time>2026-05-03T15:31:20Z</time></trkpt><trkpt lat="43.295705440261735" lon="11.52865055186828"><ele>295.2857142857143</ele><time>2026-05-03T15:31:21Z</time></trkpt><trkpt lat="43.29576579883147" lon="11.528593608919904"><ele>294.8571428571429</ele><time>2026-05-03T15:31:22Z</time></trkpt><trkpt lat="43.29581918273691" lon="11.528521570508278"><ele>294.42857142857144</ele><time>2026-05-03T15:31:23Z</time></trkpt><trkpt lat="43.29585692734656" lon="11.528432929868401"><ele>294.0</ele><time>2026-05-03T15:31:24Z</time></trkpt><trkpt lat="43.295902079527245" lon="11.52833909062409"><ele>293.59999999999997</ele><time>2026-05-03T15:31:25Z</time></trkpt><trkpt lat="43.29592641946666" lon="11.52821185330574"><ele>293.2</ele><time>2026-05-03T15:31:26Z</time></trkpt><trkpt lat="43.29594263638486" lon="11.528071402040526"><ele>292.79999999999995</ele><time>2026-05-03T15:31:27Z</time></trkpt><trkpt lat="43.295957437947045" lon="11.527915458137173"><ele>292.4</ele><time>2026-05-03T15:31:28Z</time></trkpt><trkpt lat="43.29595920487548" lon="11.527750257789094"><ele>292.0</ele><time>2026-05-03T15:31:29Z</time></trkpt><trkpt lat="43.295989339091335" lon="11.527586351370982"><ele>292.0</ele><time>2026-05-03T15:31:30Z</time></trkpt><trkpt lat="43.296010091061376" lon="11.527434093661558"><ele>292.0</ele><time>2026-05-03T15:31:31Z</time></trkpt><trkpt lat="43.29603620923046" lon="11.527291373197233"><ele>292.0</ele><time>2026-05-03T15:31:32Z</time></trkpt><trkpt lat="43.296068748406896" lon="11.527162300181587"><ele>292.0</ele><time>2026-05-03T15:31:33Z</time></trkpt><trkpt lat="43.29610996835243" lon="11.527052482084603"><ele>292.0</ele><time>2026-05-03T15:31:34Z</time></trkpt><trkpt lat="43.29615376664109" lon="11.526953939490605"><ele>291.4</ele><time>2026-05-03T15:31:35Z</time></trkpt><trkpt lat="43.29620088205406" lon="11.526856032706332"><ele>290.79999999999995</ele><time>2026-05-03T15:31:36Z</time></trkpt><trkpt lat="43.296256542732436" lon="11.526758809778071"><ele>290.2</ele><time>2026-05-03T15:31:37Z</time></trkpt><trkpt lat="43.29631809204603" lon="11.526662362541659"><ele>289.59999999999997</ele><time>2026-05-03T15:31:38Z</time></trkpt><trkpt lat="43.29637730504253" lon="11.52656650240626"><ele>289.0</ele><time>2026-05-03T15:31:39Z</time></trkpt><trkpt lat="43.296436457134746" lon="11.526470773225562"><ele>289.0</ele><time>2026-05-03T15:31:40Z</time></trkpt><trkpt lat="43.29649653102096" lon="11.526373598188917"><ele>289.0</ele><time>2026-05-03T15:31:41Z</time></trkpt><trkpt lat="43.29655736037828" lon="11.526293555872739"><ele>289.0</ele><time>2026-05-03T15:31:42Z</time></trkpt><trkpt lat="43.29662168098443" lon="11.526225637175727"><ele>289.0</ele><time>2026-05-03T15:31:43Z</time></trkpt><trkpt lat="43.296680923773806" lon="11.526166836652076"><ele>289.0</ele><time>2026-05-03T15:31:44Z</time></trkpt><trkpt lat="43.29672796704327" lon="11.526099893035564"><ele>289.0</ele><time>2026-05-03T15:31:45Z</time></trkpt><trkpt lat="43.29675665510214" lon="11.526014170769997"><ele>289.0</ele><time>2026-05-03T15:31:46Z</time></trkpt><trkpt lat="43.296790584142464" lon="11.525922200335993"><ele>289.0</ele><time>2026-05-03T15:31:47Z</time></trkpt><trkpt lat="43.296776237954504" lon="11.52581384030185"><ele>289.0</ele><time>2026-05-03T15:31:48Z</time></trkpt><trkpt lat="43.296761812996536" lon="11.525707500425655"><ele>289.0</ele><time>2026-05-03T15:31:49Z</time></trkpt><trkpt lat="43.29674802046565" lon="11.525597385439735"><ele>289.0</ele><time>2026-05-03T15:31:50Z</time></trkpt><trkpt lat="43.29673654310731" lon="11.525482817307083"><ele>289.0</ele><time>2026-05-03T15:31:51Z</time></trkpt><trkpt lat="43.296744569041" lon="11.525359299529105"><ele>289.59999999999997</ele><time>2026-05-03T15:31:52Z</time></trkpt><trkpt lat="43.29675901470306" lon="11.525237453206255"><ele>290.2</ele><time>2026-05-03T15:31:53Z</time></trkpt><trkpt lat="43.296769204568974" lon="11.525116872953113"><ele>290.79999999999995</ele><time>2026-05-03T15:31:54Z</time></trkpt><trkpt lat="43.296755534948716" lon="11.525000480940307"><ele>291.4</ele><time>2026-05-03T15:31:55Z</time></trkpt><trkpt lat="43.29672151639667" lon="11.524880069399792"><ele>292.0</ele><time>2026-05-03T15:31:56Z</time></trkpt><trkpt lat="43.296679025944236" lon="11.524755748064372"><ele>292.0</ele><time>2026-05-03T15:31:57Z</time></trkpt><trkpt lat="43.29663069659826" lon="11.524630511638327"><ele>292.0</ele><time>2026-05-03T15:31:58Z</time></trkpt><trkpt lat="43.2965952090781" lon="11.524492363331612"><ele>292.0</ele><time>2026-05-03T15:31:59Z</time></trkpt><trkpt lat="43.29657217947069" lon="11.524348832455098"><ele>292.0</ele><time>2026-05-03T15:32:00Z</time></trkpt><trkpt lat="43.29655218724546" lon="11.524198387447148"><ele>292.0</ele><time>2026-05-03T15:32:01Z</time></trkpt><trkpt lat="43.296531040854276" lon="11.524032498932227"><ele>294.0</ele><time>2026-05-03T15:32:02Z</time></trkpt><trkpt lat="43.29650760882031" lon="11.523869466365834"><ele>296.0</ele><time>2026-05-03T15:32:03Z</time></trkpt><trkpt lat="43.296482441599586" lon="11.523714218674247"><ele>298.0</ele><time>2026-05-03T15:32:04Z</time></trkpt><trkpt lat="43.29646093655865" lon="11.523580074318486"><ele>300.0</ele><time>2026-05-03T15:32:05Z</time></trkpt><trkpt lat="43.29644590888578" lon="11.523457032164002"><ele>302.0</ele><time>2026-05-03T15:32:06Z</time></trkpt><trkpt lat="43.29643665856061" lon="11.523327211362187"><ele>302.6666666666667</ele><time>2026-05-03T15:32:07Z</time></trkpt><trkpt lat="43.29643013230647" lon="11.523199663531877"><ele>303.33333333333337</ele><time>2026-05-03T15:32:08Z</time></trkpt><trkpt lat="43.29642661749046" lon="11.523078417675835"><ele>304.0</ele><time>2026-05-03T15:32:09Z</time></trkpt><trkpt lat="43.296421767256234" lon="11.522964953160145"><ele>304.6666666666667</ele><time>2026-05-03T15:32:10Z</time></trkpt><trkpt lat="43.29642179822372" lon="11.522860586799833"><ele>305.3333333333333</ele><time>2026-05-03T15:32:11Z</time></trkpt><trkpt lat="43.296428883324594" lon="11.522770407930683"><ele>306.0</ele><time>2026-05-03T15:32:12Z</time></trkpt><trkpt lat="43.296444540912134" lon="11.522684527881973"><ele>306.0</ele><time>2026-05-03T15:32:13Z</time></trkpt><trkpt lat="43.29646736790702" lon="11.522602421578167"><ele>306.0</ele><time>2026-05-03T15:32:14Z</time></trkpt><trkpt lat="43.29650177404872" lon="11.522519574447186"><ele>306.0</ele><time>2026-05-03T15:32:15Z</time></trkpt><trkpt lat="43.2965415770284" lon="11.522435093959821"><ele>306.0</ele><time>2026-05-03T15:32:16Z</time></trkpt><trkpt lat="43.29660573787002" lon="11.522364338149128"><ele>306.0</ele><time>2026-05-03T15:32:17Z</time></trkpt><trkpt lat="43.29664236873268" lon="11.522253862658873"><ele>306.0</ele><time>2026-05-03T15:32:18Z</time></trkpt><trkpt lat="43.29668805007218" lon="11.522155270961795"><ele>304.3333333333333</ele><time>2026-05-03T15:32:19Z</time></trkpt><trkpt lat="43.296709846963125" lon="11.522044419901164"><ele>302.6666666666667</ele><time>2026-05-03T15:32:20Z</time></trkpt><trkpt lat="43.29672236231395" lon="11.52194214423824"><ele>301.0</ele><time>2026-05-03T15:32:21Z</time></trkpt><trkpt lat="43.296719879070025" lon="11.521853613542053"><ele>299.33333333333337</ele><time>2026-05-03T15:32:22Z</time></trkpt><trkpt lat="43.2967462833449" lon="11.521722228260133"><ele>297.6666666666667</ele><time>2026-05-03T15:32:24Z</time></trkpt><trkpt lat="43.29678316035897" lon="11.521638890956938"><ele>296.0</ele><time>2026-05-03T15:32:26Z</time></trkpt><trkpt lat="43.29683800902625" lon="11.521537806840323"><ele>296.0</ele><time>2026-05-03T15:32:29Z</time></trkpt><trkpt lat="43.296917341052804" lon="11.52153051669453"><ele>296.0</ele><time>2026-05-03T15:32:32Z</time></trkpt><trkpt lat="43.2969924082663" lon="11.521484253566811"><ele>296.0</ele><time>2026-05-03T15:32:35Z</time></trkpt><trkpt lat="43.29706370659983" lon="11.521446530003125"><ele>296.0</ele><time>2026-05-03T15:32:38Z</time></trkpt><trkpt lat="43.297131447243885" lon="11.521414759571947"><ele>296.0</ele><time>2026-05-03T15:32:41Z</time></trkpt><trkpt lat="43.29719354244809" lon="11.521378209277605"><ele>296.0</ele><time>2026-05-03T15:32:43Z</time></trkpt><trkpt lat="43.297256758028716" lon="11.521363920412233"><ele>296.0</ele><time>2026-05-03T15:32:45Z</time></trkpt><trkpt lat="43.29733600462814" lon="11.521345426855842"><ele>297.33333333333337</ele><time>2026-05-03T15:32:47Z</time></trkpt><trkpt lat="43.29742238918234" lon="11.521358173257303"><ele>298.6666666666667</ele><time>2026-05-03T15:32:49Z</time></trkpt><trkpt lat="43.29751375081366" lon="11.521379241755291"><ele>300.0</ele><time>2026-05-03T15:32:51Z</time></trkpt><trkpt lat="43.29761452156371" lon="11.521433605133431"><ele>301.3333333333333</ele><time>2026-05-03T15:32:53Z</time></trkpt><trkpt lat="43.29768629474884" lon="11.521504820300736"><ele>302.66666666666663</ele><time>2026-05-03T15:32:55Z</time></trkpt><trkpt lat="43.29774016268694" lon="11.521559538404489"><ele>304.0</ele><time>2026-05-03T15:32:57Z</time></trkpt><trkpt lat="43.297805439986035" lon="11.5216167560758"><ele>304.0</ele><time>2026-05-03T15:32:59Z</time></trkpt><trkpt lat="43.297879897217875" lon="11.52173095341563"><ele>304.0</ele><time>2026-05-03T15:33:01Z</time></trkpt><trkpt lat="43.297936414758325" lon="11.521773908926518"><ele>304.0</ele><time>2026-05-03T15:33:02Z</time></trkpt><trkpt lat="43.29798365093706" lon="11.52184254712457"><ele>304.0</ele><time>2026-05-03T15:33:03Z</time></trkpt><trkpt lat="43.29802640572639" lon="11.521916647541955"><ele>304.0</ele><time>2026-05-03T15:33:04Z</time></trkpt><trkpt lat="43.298065550528335" lon="11.521999503886285"><ele>304.0</ele><time>2026-05-03T15:33:05Z</time></trkpt><trkpt lat="43.298102593799044" lon="11.522089613051225"><ele>304.1428571428571</ele><time>2026-05-03T15:33:06Z</time></trkpt><trkpt lat="43.298144688574716" lon="11.522174939903804"><ele>304.28571428571433</ele><time>2026-05-03T15:33:07Z</time></trkpt><trkpt lat="43.29819639151914" lon="11.522249971150492"><ele>304.42857142857144</ele><time>2026-05-03T15:33:08Z</time></trkpt><trkpt lat="43.29824801379989" lon="11.522311070108634"><ele>304.57142857142856</ele><time>2026-05-03T15:33:09Z</time></trkpt><trkpt lat="43.29831902612228" lon="11.522332859396613"><ele>304.71428571428567</ele><time>2026-05-03T15:33:10Z</time></trkpt><trkpt lat="43.29839255529691" lon="11.52232494352088"><ele>304.8571428571429</ele><time>2026-05-03T15:33:11Z</time></trkpt><trkpt lat="43.29845875751619" lon="11.522299488961824"><ele>305.0</ele><time>2026-05-03T15:33:12Z</time></trkpt><trkpt lat="43.298573739546775" lon="11.52226643263585"><ele>305.0</ele><time>2026-05-03T15:33:14Z</time></trkpt><trkpt lat="43.29869297584636" lon="11.522297422163085"><ele>305.0</ele><time>2026-05-03T15:33:16Z</time></trkpt><trkpt lat="43.29879980598618" lon="11.522387418879042"><ele>305.0</ele><time>2026-05-03T15:33:18Z</time></trkpt><trkpt lat="43.298850046238904" lon="11.522445831140637"><ele>305.0</ele><time>2026-05-03T15:33:19Z</time></trkpt><trkpt lat="43.298905907726116" lon="11.522492635055366"><ele>305.0</ele><time>2026-05-03T15:33:20Z</time></trkpt><trkpt lat="43.29896602960029" lon="11.522524982875305"><ele>305.0</ele><time>2026-05-03T15:33:21Z</time></trkpt><trkpt lat="43.2990312029029" lon="11.522537686552443"><ele>304.0</ele><time>2026-05-03T15:33:22Z</time></trkpt><trkpt lat="43.2991039952925" lon="11.522536417905368"><ele>303.0</ele><time>2026-05-03T15:33:23Z</time></trkpt><trkpt lat="43.29917640354473" lon="11.52253352354859"><ele>302.0</ele><time>2026-05-03T15:33:24Z</time></trkpt><trkpt lat="43.299247423720054" lon="11.522519531170706"><ele>301.0</ele><time>2026-05-03T15:33:25Z</time></trkpt><trkpt lat="43.29931338593662" lon="11.522508098259546"><ele>300.0</ele><time>2026-05-03T15:33:26Z</time></trkpt><trkpt lat="43.29937919005191" lon="11.522485871740667"><ele>299.0</ele><time>2026-05-03T15:33:27Z</time></trkpt><trkpt lat="43.29944405463077" lon="11.522462698947882"><ele>298.0</ele><time>2026-05-03T15:33:28Z</time></trkpt><trkpt lat="43.29950819820959" lon="11.522435014007936"><ele>298.0</ele><time>2026-05-03T15:33:29Z</time></trkpt><trkpt lat="43.29959963305684" lon="11.522356159044108"><ele>298.0</ele><time>2026-05-03T15:33:31Z</time></trkpt><trkpt lat="43.29970499962965" lon="11.52227542293251"><ele>298.0</ele><time>2026-05-03T15:33:33Z</time></trkpt><trkpt lat="43.29977709094198" lon="11.522252121132517"><ele>298.0</ele><time>2026-05-03T15:33:34Z</time></trkpt><trkpt lat="43.29984161210318" lon="11.522234371884014"><ele>298.0</ele><time>2026-05-03T15:33:35Z</time></trkpt><trkpt lat="43.29991024234517" lon="11.522226524538313"><ele>298.0</ele><time>2026-05-03T15:33:36Z</time></trkpt><trkpt lat="43.29998597415977" lon="11.522222278323438"><ele>298.16666666666663</ele><time>2026-05-03T15:33:37Z</time></trkpt><trkpt lat="43.30005999242499" lon="11.52225113171795"><ele>298.3333333333333</ele><time>2026-05-03T15:33:38Z</time></trkpt><trkpt lat="43.3001467700598" lon="11.522268794303622"><ele>298.5</ele><time>2026-05-03T15:33:39Z</time></trkpt><trkpt lat="43.30022785144526" lon="11.52229017279286"><ele>298.6666666666667</ele><time>2026-05-03T15:33:40Z</time></trkpt><trkpt lat="43.30029945284596" lon="11.522315623106447"><ele>298.83333333333337</ele><time>2026-05-03T15:33:41Z</time></trkpt><trkpt lat="43.300378769372784" lon="11.522354044760185"><ele>299.0</ele><time>2026-05-03T15:33:42Z</time></trkpt><trkpt lat="43.30045920913781" lon="11.522395506286694"><ele>299.0</ele><time>2026-05-03T15:33:43Z</time></trkpt><trkpt lat="43.30054747221639" lon="11.52243378776133"><ele>299.0</ele><time>2026-05-03T15:33:44Z</time></trkpt><trkpt lat="43.3006392553776" lon="11.522473283404963"><ele>299.0</ele><time>2026-05-03T15:33:45Z</time></trkpt><trkpt lat="43.30072606951448" lon="11.522504189627755"><ele>299.0</ele><time>2026-05-03T15:33:46Z</time></trkpt><trkpt lat="43.300815983839485" lon="11.522531442460297"><ele>299.0</ele><time>2026-05-03T15:33:47Z</time></trkpt><trkpt lat="43.300909006447505" lon="11.522561084416804"><ele>298.1666666666667</ele><time>2026-05-03T15:33:48Z</time></trkpt><trkpt lat="43.30100174649872" lon="11.522592253079234"><ele>297.33333333333337</ele><time>2026-05-03T15:33:49Z</time></trkpt><trkpt lat="43.30109217738714" lon="11.52262641361637"><ele>296.5</ele><time>2026-05-03T15:33:50Z</time></trkpt><trkpt lat="43.30117346796689" lon="11.52267320598707"><ele>295.6666666666667</ele><time>2026-05-03T15:33:51Z</time></trkpt><trkpt lat="43.301247741868025" lon="11.522710415340585"><ele>294.8333333333333</ele><time>2026-05-03T15:33:52Z</time></trkpt><trkpt lat="43.301316046431594" lon="11.522762133353151"><ele>294.0</ele><time>2026-05-03T15:33:53Z</time></trkpt><trkpt lat="43.30138474857082" lon="11.522798848318766"><ele>293.3333333333333</ele><time>2026-05-03T15:33:54Z</time></trkpt><trkpt lat="43.30145744144202" lon="11.522829521251724"><ele>292.6666666666667</ele><time>2026-05-03T15:33:55Z</time></trkpt><trkpt lat="43.30153159641444" lon="11.522859835841874"><ele>292.0</ele><time>2026-05-03T15:33:56Z</time></trkpt><trkpt lat="43.30160916488004" lon="11.522885116441094"><ele>291.33333333333337</ele><time>2026-05-03T15:33:57Z</time></trkpt><trkpt lat="43.3016960212613" lon="11.522900088785521"><ele>290.6666666666667</ele><time>2026-05-03T15:33:58Z</time></trkpt><trkpt lat="43.301785145923326" lon="11.52290799202968"><ele>290.0</ele><time>2026-05-03T15:33:59Z</time></trkpt><trkpt lat="43.301870298086214" lon="11.52293178969861"><ele>290.33333333333337</ele><time>2026-05-03T15:34:00Z</time></trkpt><trkpt lat="43.30195644341873" lon="11.522931212638854"><ele>290.6666666666667</ele><time>2026-05-03T15:34:01Z</time></trkpt><trkpt lat="43.30203390117006" lon="11.522947338357495"><ele>291.0</ele><time>2026-05-03T15:34:02Z</time></trkpt><trkpt lat="43.30210675688167" lon="11.522938541307132"><ele>291.3333333333333</ele><time>2026-05-03T15:34:03Z</time></trkpt><trkpt lat="43.302183986784755" lon="11.522938055820248"><ele>291.66666666666663</ele><time>2026-05-03T15:34:04Z</time></trkpt><trkpt lat="43.3022655825092" lon="11.522916190561855"><ele>292.0</ele><time>2026-05-03T15:34:05Z</time></trkpt><trkpt lat="43.30234618824499" lon="11.52288400438294"><ele>292.0</ele><time>2026-05-03T15:34:06Z</time></trkpt><trkpt lat="43.302434222003804" lon="11.52282412633858"><ele>292.0</ele><time>2026-05-03T15:34:07Z</time></trkpt><trkpt lat="43.302532220256225" lon="11.522778981630632"><ele>292.0</ele><time>2026-05-03T15:34:08Z</time></trkpt><trkpt lat="43.30262581268384" lon="11.522741380695676"><ele>292.0</ele><time>2026-05-03T15:34:09Z</time></trkpt><trkpt lat="43.302714046154684" lon="11.522713226917835"><ele>292.0</ele><time>2026-05-03T15:34:10Z</time></trkpt><trkpt lat="43.30280123617283" lon="11.522690960662292"><ele>292.0</ele><time>2026-05-03T15:34:11Z</time></trkpt><trkpt lat="43.30288999776101" lon="11.522687324532466"><ele>292.0</ele><time>2026-05-03T15:34:12Z</time></trkpt><trkpt lat="43.30297751149143" lon="11.522677938184033"><ele>292.0</ele><time>2026-05-03T15:34:13Z</time></trkpt><trkpt lat="43.303048073003076" lon="11.522675492336878"><ele>292.0</ele><time>2026-05-03T15:34:14Z</time></trkpt><trkpt lat="43.303128518288226" lon="11.522678409838717"><ele>292.0</ele><time>2026-05-03T15:34:15Z</time></trkpt><trkpt lat="43.30321131473331" lon="11.522710970529847"><ele>292.0</ele><time>2026-05-03T15:34:16Z</time></trkpt><trkpt lat="43.303268724543074" lon="11.522749337143257"><ele>291.4</ele><time>2026-05-03T15:34:17Z</time></trkpt><trkpt lat="43.30333177545566" lon="11.522803081546474"><ele>290.79999999999995</ele><time>2026-05-03T15:34:18Z</time></trkpt><trkpt lat="43.30339469640339" lon="11.522891691559407"><ele>290.2</ele><time>2026-05-03T15:34:19Z</time></trkpt><trkpt lat="43.30346534081959" lon="11.522980254546589"><ele>289.59999999999997</ele><time>2026-05-03T15:34:20Z</time></trkpt><trkpt lat="43.3035326459918" lon="11.523088059876185"><ele>289.0</ele><time>2026-05-03T15:34:21Z</time></trkpt><trkpt lat="43.303594835520535" lon="11.52318585228666"><ele>292.8</ele><time>2026-05-03T15:34:22Z</time></trkpt><trkpt lat="43.30366246365974" lon="11.5233033035502"><ele>296.59999999999997</ele><time>2026-05-03T15:34:23Z</time></trkpt><trkpt lat="43.303724656621846" lon="11.523415276696559"><ele>300.4</ele><time>2026-05-03T15:34:24Z</time></trkpt><trkpt lat="43.303786366629076" lon="11.52351890206743"><ele>304.2</ele><time>2026-05-03T15:34:25Z</time></trkpt><trkpt lat="43.30384418163415" lon="11.523612043493934"><ele>308.0</ele><time>2026-05-03T15:34:26Z</time></trkpt><trkpt lat="43.303883607116184" lon="11.523707505038674"><ele>306.0</ele><time>2026-05-03T15:34:27Z</time></trkpt><trkpt lat="43.30393939942996" lon="11.523786124995892"><ele>304.0</ele><time>2026-05-03T15:34:28Z</time></trkpt><trkpt lat="43.30400135686757" lon="11.523835310127971"><ele>302.0</ele><time>2026-05-03T15:34:29Z</time></trkpt><trkpt lat="43.30406865929891" lon="11.5238766284275"><ele>300.0</ele><time>2026-05-03T15:34:30Z</time></trkpt><trkpt lat="43.30413490777378" lon="11.523886946558296"><ele>298.0</ele><time>2026-05-03T15:34:31Z</time></trkpt><trkpt lat="43.304206495725154" lon="11.523876619091544"><ele>296.0</ele><time>2026-05-03T15:34:32Z</time></trkpt><trkpt lat="43.30427503592975" lon="11.52384389422077"><ele>294.0</ele><time>2026-05-03T15:34:33Z</time></trkpt><trkpt lat="43.30434108040742" lon="11.523803843193365"><ele>294.0</ele><time>2026-05-03T15:34:34Z</time></trkpt><trkpt lat="43.30439729743419" lon="11.5237457658441"><ele>294.0</ele><time>2026-05-03T15:34:35Z</time></trkpt><trkpt lat="43.304458136970936" lon="11.523674630895977"><ele>294.0</ele><time>2026-05-03T15:34:36Z</time></trkpt><trkpt lat="43.304509999114735" lon="11.523595026549733"><ele>294.0</ele><time>2026-05-03T15:34:37Z</time></trkpt><trkpt lat="43.30456755421452" lon="11.523518608302936"><ele>294.0</ele><time>2026-05-03T15:34:38Z</time></trkpt><trkpt lat="43.30462461944064" lon="11.523428432629727"><ele>294.0</ele><time>2026-05-03T15:34:39Z</time></trkpt><trkpt lat="43.30468028481338" lon="11.52334834228867"><ele>294.0</ele><time>2026-05-03T15:34:40Z</time></trkpt><trkpt lat="43.3047434082774" lon="11.523278790417587"><ele>294.0</ele><time>2026-05-03T15:34:41Z</time></trkpt><trkpt lat="43.30479976769106" lon="11.523238627444268"><ele>294.0</ele><time>2026-05-03T15:34:42Z</time></trkpt><trkpt lat="43.30486769952614" lon="11.523189123887626"><ele>294.0</ele><time>2026-05-03T15:34:43Z</time></trkpt><trkpt lat="43.30495737971089" lon="11.523123771782881"><ele>294.0</ele><time>2026-05-03T15:34:44Z</time></trkpt><trkpt lat="43.30503286671788" lon="11.523072283859278"><ele>294.0</ele><time>2026-05-03T15:34:45Z</time></trkpt><trkpt lat="43.30510230984378" lon="11.523029062159555"><ele>295.3333333333333</ele><time>2026-05-03T15:34:46Z</time></trkpt><trkpt lat="43.30518353982255" lon="11.522985895166164"><ele>296.6666666666667</ele><time>2026-05-03T15:34:47Z</time></trkpt><trkpt lat="43.305258276922935" lon="11.52294915536845"><ele>298.0</ele><time>2026-05-03T15:34:48Z</time></trkpt><trkpt lat="43.30534137767001" lon="11.522909113220967"><ele>299.33333333333337</ele><time>2026-05-03T15:34:49Z</time></trkpt><trkpt lat="43.30542129143983" lon="11.522871133159535"><ele>300.6666666666667</ele><time>2026-05-03T15:34:50Z</time></trkpt><trkpt lat="43.305499134591315" lon="11.52283932126561"><ele>302.0</ele><time>2026-05-03T15:34:51Z</time></trkpt><trkpt lat="43.30557575054539" lon="11.522815155643091"><ele>304.0</ele><time>2026-05-03T15:34:52Z</time></trkpt><trkpt lat="43.30564544463402" lon="11.522785104962715"><ele>306.0</ele><time>2026-05-03T15:34:53Z</time></trkpt><trkpt lat="43.30572662489922" lon="11.522789080753881"><ele>308.0</ele><time>2026-05-03T15:34:54Z</time></trkpt><trkpt lat="43.30580491345699" lon="11.522830272944631"><ele>310.0</ele><time>2026-05-03T15:34:55Z</time></trkpt><trkpt lat="43.30587577879056" lon="11.522858262262057"><ele>312.0</ele><time>2026-05-03T15:34:56Z</time></trkpt><trkpt lat="43.30594506243873" lon="11.522890074533073"><ele>314.0</ele><time>2026-05-03T15:34:57Z</time></trkpt><trkpt lat="43.30601548622222" lon="11.52292297838911"><ele>314.6666666666667</ele><time>2026-05-03T15:34:58Z</time></trkpt><trkpt lat="43.306089336297354" lon="11.522954827154406"><ele>315.33333333333337</ele><time>2026-05-03T15:34:59Z</time></trkpt><trkpt lat="43.306174104847905" lon="11.52298722762989"><ele>316.0</ele><time>2026-05-03T15:35:00Z</time></trkpt><trkpt lat="43.30624004523249" lon="11.52298633888067"><ele>316.6666666666667</ele><time>2026-05-03T15:35:01Z</time></trkpt><trkpt lat="43.30631173038229" lon="11.523007649265931"><ele>317.3333333333333</ele><time>2026-05-03T15:35:02Z</time></trkpt><trkpt lat="43.30638383168285" lon="11.523043895733437"><ele>318.0</ele><time>2026-05-03T15:35:03Z</time></trkpt><trkpt lat="43.30645717324647" lon="11.52305318895244"><ele>319.4</ele><time>2026-05-03T15:35:04Z</time></trkpt><trkpt lat="43.30654198032488" lon="11.52305746462771"><ele>320.8</ele><time>2026-05-03T15:35:06Z</time></trkpt><trkpt lat="43.306655140728054" lon="11.523081991542455"><ele>322.2</ele><time>2026-05-03T15:35:08Z</time></trkpt><trkpt lat="43.306745966770016" lon="11.523094200030586"><ele>323.6</ele><time>2026-05-03T15:35:10Z</time></trkpt><trkpt lat="43.306851618146965" lon="11.523097959102056"><ele>325.0</ele><time>2026-05-03T15:35:12Z</time></trkpt><trkpt lat="43.306968107277484" lon="11.523096040116323"><ele>325.0</ele><time>2026-05-03T15:35:14Z</time></trkpt><trkpt lat="43.30707767494477" lon="11.523081045032244"><ele>325.0</ele><time>2026-05-03T15:35:16Z</time></trkpt><trkpt lat="43.307214622627" lon="11.523093945636496"><ele>325.0</ele><time>2026-05-03T15:35:18Z</time></trkpt><trkpt lat="43.307308758680755" lon="11.523093931931625"><ele>325.0</ele><time>2026-05-03T15:35:20Z</time></trkpt><trkpt lat="43.30739662717822" lon="11.52312572633495"><ele>325.0</ele><time>2026-05-03T15:35:22Z</time></trkpt><trkpt lat="43.307490836109835" lon="11.523180763591485"><ele>325.16666666666663</ele><time>2026-05-03T15:35:24Z</time></trkpt><trkpt lat="43.307570547294915" lon="11.523284725061208"><ele>325.3333333333333</ele><time>2026-05-03T15:35:26Z</time></trkpt><trkpt lat="43.30761484033352" lon="11.523365358029725"><ele>325.5</ele><time>2026-05-03T15:35:27Z</time></trkpt><trkpt lat="43.30767988584866" lon="11.523429330541124"><ele>325.6666666666667</ele><time>2026-05-03T15:35:28Z</time></trkpt><trkpt lat="43.30775010833904" lon="11.5234692983226"><ele>325.83333333333337</ele><time>2026-05-03T15:35:29Z</time></trkpt><trkpt lat="43.30781934266933" lon="11.523519851268219"><ele>326.0</ele><time>2026-05-03T15:35:30Z</time></trkpt><trkpt lat="43.30789356189509" lon="11.523577952864779"><ele>326.0</ele><time>2026-05-03T15:35:31Z</time></trkpt><trkpt lat="43.307963602889224" lon="11.52363035637146"><ele>326.0</ele><time>2026-05-03T15:35:32Z</time></trkpt><trkpt lat="43.30802445153514" lon="11.523698062886336"><ele>326.0</ele><time>2026-05-03T15:35:33Z</time></trkpt><trkpt lat="43.308102584441116" lon="11.523733030826328"><ele>326.0</ele><time>2026-05-03T15:35:34Z</time></trkpt><trkpt lat="43.308168496091426" lon="11.523804562401612"><ele>326.0</ele><time>2026-05-03T15:35:35Z</time></trkpt><trkpt lat="43.30823548208411" lon="11.523855293897094"><ele>326.0</ele><time>2026-05-03T15:35:36Z</time></trkpt><trkpt lat="43.30830489070082" lon="11.523902227119285"><ele>326.0</ele><time>2026-05-03T15:35:37Z</time></trkpt><trkpt lat="43.30837026149013" lon="11.523950308614506"><ele>326.0</ele><time>2026-05-03T15:35:38Z</time></trkpt><trkpt lat="43.30843526643653" lon="11.524002343286744"><ele>326.0</ele><time>2026-05-03T15:35:39Z</time></trkpt><trkpt lat="43.3084904714507" lon="11.52406241590925"><ele>326.0</ele><time>2026-05-03T15:35:40Z</time></trkpt><trkpt lat="43.30853631098361" lon="11.52413273117184"><ele>326.0</ele><time>2026-05-03T15:35:41Z</time></trkpt><trkpt lat="43.3085672733162" lon="11.524212786045597"><ele>326.0</ele><time>2026-05-03T15:35:42Z</time></trkpt><trkpt lat="43.30863287142659" lon="11.524321475282573"><ele>326.0</ele><time>2026-05-03T15:35:44Z</time></trkpt><trkpt lat="43.30869590105057" lon="11.524419406750553"><ele>326.0</ele><time>2026-05-03T15:35:46Z</time></trkpt><trkpt lat="43.308773017322174" lon="11.524477903545066"><ele>326.0</ele><time>2026-05-03T15:35:48Z</time></trkpt><trkpt lat="43.3088403090133" lon="11.52432853721048"><ele>326.0</ele><time>2026-05-03T15:35:49Z</time></trkpt><trkpt lat="43.30885722901536" lon="11.524230262900733"><ele>326.0</ele><time>2026-05-03T15:35:50Z</time></trkpt><trkpt lat="43.30888127263207" lon="11.524128700295742"><ele>326.0</ele><time>2026-05-03T15:35:51Z</time></trkpt><trkpt lat="43.30889904336342" lon="11.524038331443482"><ele>326.0</ele><time>2026-05-03T15:35:52Z</time></trkpt><trkpt lat="43.30892139372774" lon="11.5238804438746"><ele>326.0</ele><time>2026-05-03T15:35:54Z</time></trkpt><trkpt lat="43.308915408616365" lon="11.52378725282707"><ele>326.0</ele><time>2026-05-03T15:35:55Z</time></trkpt><trkpt lat="43.30889572622209" lon="11.523685391849572"><ele>326.0</ele><time>2026-05-03T15:35:56Z</time></trkpt><trkpt lat="43.30887388843593" lon="11.52357966033683"><ele>326.0</ele><time>2026-05-03T15:35:57Z</time></trkpt><trkpt lat="43.308867486097746" lon="11.523483950299813"><ele>326.20000000000005</ele><time>2026-05-03T15:35:58Z</time></trkpt><trkpt lat="43.30884540536683" lon="11.523326412033564"><ele>326.40000000000003</ele><time>2026-05-03T15:36:00Z</time></trkpt><trkpt lat="43.308912623468196" lon="11.52316916786547"><ele>326.6</ele><time>2026-05-03T15:36:02Z</time></trkpt><trkpt lat="43.30896216030703" lon="11.52307600575138"><ele>326.8</ele><time>2026-05-03T15:36:03Z</time></trkpt><trkpt lat="43.309042478414945" lon="11.52299518329492"><ele>327.0</ele><time>2026-05-03T15:36:04Z</time></trkpt><trkpt lat="43.309119043384214" lon="11.522887912169553"><ele>322.75</ele><time>2026-05-03T15:36:05Z</time></trkpt><trkpt lat="43.30921233090751" lon="11.522808065752276"><ele>318.5</ele><time>2026-05-03T15:36:06Z</time></trkpt><trkpt lat="43.30931866569139" lon="11.522731228882202"><ele>314.25</ele><time>2026-05-03T15:36:07Z</time></trkpt><trkpt lat="43.30943086935311" lon="11.522682166025325"><ele>310.0</ele><time>2026-05-03T15:36:08Z</time></trkpt><trkpt lat="43.30953686161423" lon="11.522611900484005"><ele>310.0</ele><time>2026-05-03T15:36:09Z</time></trkpt><trkpt lat="43.30963297061097" lon="11.522505664345815"><ele>310.0</ele><time>2026-05-03T15:36:10Z</time></trkpt><trkpt lat="43.30972577167627" lon="11.522431606706897"><ele>310.0</ele><time>2026-05-03T15:36:11Z</time></trkpt><trkpt lat="43.30978337869039" lon="11.5223113053552"><ele>310.0</ele><time>2026-05-03T15:36:12Z</time></trkpt><trkpt lat="43.30983139462118" lon="11.522191032115863"><ele>310.0</ele><time>2026-05-03T15:36:13Z</time></trkpt><trkpt lat="43.30986265617476" lon="11.522061983899034"><ele>309.0</ele><time>2026-05-03T15:36:14Z</time></trkpt><trkpt lat="43.309872543904284" lon="11.521921672074491"><ele>308.0</ele><time>2026-05-03T15:36:15Z</time></trkpt><trkpt lat="43.30985285861344" lon="11.521774564842415"><ele>307.0</ele><time>2026-05-03T15:36:16Z</time></trkpt><trkpt lat="43.309823173629006" lon="11.521620122342755"><ele>306.0</ele><time>2026-05-03T15:36:17Z</time></trkpt><trkpt lat="43.30977464840679" lon="11.521469006003056"><ele>305.0</ele><time>2026-05-03T15:36:18Z</time></trkpt><trkpt lat="43.30973798226594" lon="11.521315440277476"><ele>300.75</ele><time>2026-05-03T15:36:19Z</time></trkpt><trkpt lat="43.30971241404776" lon="11.52114698598832"><ele>296.5</ele><time>2026-05-03T15:36:20Z</time></trkpt><trkpt lat="43.309693486942926" lon="11.520959599255237"><ele>292.25</ele><time>2026-05-03T15:36:21Z</time></trkpt><trkpt lat="43.30967902928524" lon="11.520763202103325"><ele>288.0</ele><time>2026-05-03T15:36:22Z</time></trkpt><trkpt lat="43.30966739866293" lon="11.520580633437946"><ele>288.0</ele><time>2026-05-03T15:36:23Z</time></trkpt><trkpt lat="43.30965983264044" lon="11.520403194330799"><ele>288.0</ele><time>2026-05-03T15:36:24Z</time></trkpt><trkpt lat="43.30964525671582" lon="11.520233601023486"><ele>288.0</ele><time>2026-05-03T15:36:25Z</time></trkpt><trkpt lat="43.3096366760724" lon="11.520068948429106"><ele>288.0</ele><time>2026-05-03T15:36:26Z</time></trkpt><trkpt lat="43.30963938595528" lon="11.519919022503432"><ele>290.0</ele><time>2026-05-03T15:36:27Z</time></trkpt><trkpt lat="43.30966844187209" lon="11.519777196517651"><ele>292.0</ele><time>2026-05-03T15:36:28Z</time></trkpt><trkpt lat="43.30969755402908" lon="11.519629317494053"><ele>294.0</ele><time>2026-05-03T15:36:29Z</time></trkpt><trkpt lat="43.309747176458835" lon="11.5194767595996"><ele>296.0</ele><time>2026-05-03T15:36:30Z</time></trkpt><trkpt lat="43.30981008819878" lon="11.5193213336431"><ele>296.0</ele><time>2026-05-03T15:36:31Z</time></trkpt><trkpt lat="43.30987545019031" lon="11.519171869287064"><ele>296.0</ele><time>2026-05-03T15:36:32Z</time></trkpt><trkpt lat="43.309911656829094" lon="11.519011482344515"><ele>296.0</ele><time>2026-05-03T15:36:33Z</time></trkpt><trkpt lat="43.3099344395907" lon="11.51884800958476"><ele>296.0</ele><time>2026-05-03T15:36:34Z</time></trkpt><trkpt lat="43.309934836971806" lon="11.518681278701065"><ele>295.75</ele><time>2026-05-03T15:36:35Z</time></trkpt><trkpt lat="43.30991497961119" lon="11.51850662205586"><ele>295.5</ele><time>2026-05-03T15:36:36Z</time></trkpt><trkpt lat="43.30987721150486" lon="11.518328717992539"><ele>295.25</ele><time>2026-05-03T15:36:37Z</time></trkpt><trkpt lat="43.309826288415884" lon="11.518156018857708"><ele>295.0</ele><time>2026-05-03T15:36:38Z</time></trkpt><trkpt lat="43.309762917822" lon="11.517998231614296"><ele>293.75</ele><time>2026-05-03T15:36:39Z</time></trkpt><trkpt lat="43.30969023437006" lon="11.517859461606696"><ele>292.5</ele><time>2026-05-03T15:36:40Z</time></trkpt><trkpt lat="43.309617274891956" lon="11.517710232399383"><ele>291.25</ele><time>2026-05-03T15:36:41Z</time></trkpt><trkpt lat="43.30952195422338" lon="11.51758001358097"><ele>290.0</ele><time>2026-05-03T15:36:42Z</time></trkpt><trkpt lat="43.30941753432204" lon="11.517484691998694"><ele>290.0</ele><time>2026-05-03T15:36:43Z</time></trkpt><trkpt lat="43.30932999363729" lon="11.51738086744505"><ele>290.0</ele><time>2026-05-03T15:36:44Z</time></trkpt><trkpt lat="43.30926095984494" lon="11.517270708510448"><ele>290.0</ele><time>2026-05-03T15:36:45Z</time></trkpt><trkpt lat="43.30921078128456" lon="11.517156188345865"><ele>290.0</ele><time>2026-05-03T15:36:46Z</time></trkpt><trkpt lat="43.30917537898023" lon="11.517024939790305"><ele>290.0</ele><time>2026-05-03T15:36:47Z</time></trkpt><trkpt lat="43.30916339274441" lon="11.516895483406426"><ele>290.8</ele><time>2026-05-03T15:36:48Z</time></trkpt><trkpt lat="43.309171977629106" lon="11.516777708352326"><ele>291.6</ele><time>2026-05-03T15:36:49Z</time></trkpt><trkpt lat="43.30920371536384" lon="11.516661301363659"><ele>292.4</ele><time>2026-05-03T15:36:50Z</time></trkpt><trkpt lat="43.3092719549237" lon="11.516574388743079"><ele>293.2</ele><time>2026-05-03T15:36:51Z</time></trkpt><trkpt lat="43.30933051345386" lon="11.516461754086222"><ele>294.0</ele><time>2026-05-03T15:36:52Z</time></trkpt><trkpt lat="43.30942048072176" lon="11.51636937010316"><ele>294.0</ele><time>2026-05-03T15:36:53Z</time></trkpt><trkpt lat="43.30950883664219" lon="11.516257520955177"><ele>294.0</ele><time>2026-05-03T15:36:54Z</time></trkpt><trkpt lat="43.30959688570097" lon="11.516136925782707"><ele>294.0</ele><time>2026-05-03T15:36:55Z</time></trkpt><trkpt lat="43.30969012600482" lon="11.516019860765642"><ele>294.0</ele><time>2026-05-03T15:36:56Z</time></trkpt><trkpt lat="43.309784247812736" lon="11.51590318172044"><ele>292.75</ele><time>2026-05-03T15:36:57Z</time></trkpt><trkpt lat="43.309878481648354" lon="11.515784988663993"><ele>291.5</ele><time>2026-05-03T15:36:58Z</time></trkpt><trkpt lat="43.30997797545075" lon="11.515668543824743"><ele>290.25</ele><time>2026-05-03T15:36:59Z</time></trkpt><trkpt lat="43.31008613436447" lon="11.515563239094243"><ele>289.0</ele><time>2026-05-03T15:37:00Z</time></trkpt><trkpt lat="43.31020066564904" lon="11.515474186402368"><ele>287.5</ele><time>2026-05-03T15:37:01Z</time></trkpt><trkpt lat="43.31032629601804" lon="11.515401129332671"><ele>286.0</ele><time>2026-05-03T15:37:02Z</time></trkpt><trkpt lat="43.310467408675514" lon="11.515339727902868"><ele>284.5</ele><time>2026-05-03T15:37:03Z</time></trkpt><trkpt lat="43.31062503725333" lon="11.515286662009354"><ele>283.0</ele><time>2026-05-03T15:37:04Z</time></trkpt><trkpt lat="43.3107800091971" lon="11.515234267467672"><ele>283.0</ele><time>2026-05-03T15:37:05Z</time></trkpt><trkpt lat="43.31094004907366" lon="11.51519035017564"><ele>283.0</ele><time>2026-05-03T15:37:06Z</time></trkpt><trkpt lat="43.311103539921085" lon="11.515167925574668"><ele>283.0</ele><time>2026-05-03T15:37:07Z</time></trkpt><trkpt lat="43.31125927664213" lon="11.515160076462859"><ele>285.0</ele><time>2026-05-03T15:37:08Z</time></trkpt><trkpt lat="43.311408180871744" lon="11.5151635500649"><ele>287.0</ele><time>2026-05-03T15:37:09Z</time></trkpt><trkpt lat="43.31154798286552" lon="11.515164564570306"><ele>289.0</ele><time>2026-05-03T15:37:10Z</time></trkpt><trkpt lat="43.31167691096589" lon="11.515167741005799"><ele>291.0</ele><time>2026-05-03T15:37:11Z</time></trkpt><trkpt lat="43.31179801078725" lon="11.515158139942937"><ele>291.0</ele><time>2026-05-03T15:37:12Z</time></trkpt><trkpt lat="43.31190473791172" lon="11.515113821416518"><ele>291.0</ele><time>2026-05-03T15:37:13Z</time></trkpt><trkpt lat="43.31199967511037" lon="11.5150386591071"><ele>291.0</ele><time>2026-05-03T15:37:14Z</time></trkpt><trkpt lat="43.312077665066376" lon="11.514926033951124"><ele>291.0</ele><time>2026-05-03T15:37:15Z</time></trkpt><trkpt lat="43.31215130656869" lon="11.514785864565871"><ele>291.0</ele><time>2026-05-03T15:37:16Z</time></trkpt><trkpt lat="43.31222831292565" lon="11.514629871435492"><ele>291.0</ele><time>2026-05-03T15:37:17Z</time></trkpt><trkpt lat="43.31230278120632" lon="11.51447710837939"><ele>291.0</ele><time>2026-05-03T15:37:18Z</time></trkpt><trkpt lat="43.31238270102099" lon="11.514336117302799"><ele>291.0</ele><time>2026-05-03T15:37:19Z</time></trkpt><trkpt lat="43.31247944588331" lon="11.514215486147778"><ele>292.5</ele><time>2026-05-03T15:37:20Z</time></trkpt><trkpt lat="43.31259055818523" lon="11.51410691099219"><ele>294.0</ele><time>2026-05-03T15:37:21Z</time></trkpt><trkpt lat="43.312715667019695" lon="11.514004904027194"><ele>295.5</ele><time>2026-05-03T15:37:22Z</time></trkpt><trkpt lat="43.312840738669856" lon="11.513920085542805"><ele>297.0</ele><time>2026-05-03T15:37:23Z</time></trkpt><trkpt lat="43.31295649115378" lon="11.513862511717813"><ele>297.0</ele><time>2026-05-03T15:37:24Z</time></trkpt><trkpt lat="43.31307130702792" lon="11.51383309710343"><ele>297.0</ele><time>2026-05-03T15:37:25Z</time></trkpt><trkpt lat="43.31318836104063" lon="11.513836833125085"><ele>297.0</ele><time>2026-05-03T15:37:26Z</time></trkpt><trkpt lat="43.31330270126806" lon="11.51387248192723"><ele>297.0</ele><time>2026-05-03T15:37:27Z</time></trkpt><trkpt lat="43.31341647161569" lon="11.51392399256572"><ele>297.5</ele><time>2026-05-03T15:37:28Z</time></trkpt><trkpt lat="43.31352667409601" lon="11.513992209298824"><ele>298.0</ele><time>2026-05-03T15:37:29Z</time></trkpt><trkpt lat="43.31363798223942" lon="11.514075119764168"><ele>298.5</ele><time>2026-05-03T15:37:30Z</time></trkpt><trkpt lat="43.31374740572704" lon="11.5141783285504"><ele>299.0</ele><time>2026-05-03T15:37:31Z</time></trkpt><trkpt lat="43.31385141524852" lon="11.514285089338692"><ele>299.0</ele><time>2026-05-03T15:37:32Z</time></trkpt><trkpt lat="43.31394659189875" lon="11.51439826307651"><ele>299.0</ele><time>2026-05-03T15:37:33Z</time></trkpt><trkpt lat="43.31402487295295" lon="11.514507340129745"><ele>299.0</ele><time>2026-05-03T15:37:34Z</time></trkpt><trkpt lat="43.31409909733839" lon="11.514585019320243"><ele>299.0</ele><time>2026-05-03T15:37:35Z</time></trkpt><trkpt lat="43.314168995358756" lon="11.514661081570592"><ele>299.0</ele><time>2026-05-03T15:37:36Z</time></trkpt><trkpt lat="43.31425086873017" lon="11.514684896581834"><ele>299.0</ele><time>2026-05-03T15:37:37Z</time></trkpt><trkpt lat="43.314340867409925" lon="11.514662401814002"><ele>299.0</ele><time>2026-05-03T15:37:38Z</time></trkpt><trkpt lat="43.3144292507478" lon="11.514609059047098"><ele>299.0</ele><time>2026-05-03T15:37:39Z</time></trkpt><trkpt lat="43.314514531193325" lon="11.514520574953426"><ele>299.0</ele><time>2026-05-03T15:37:40Z</time></trkpt><trkpt lat="43.31457992144569" lon="11.514386043443963"><ele>299.0</ele><time>2026-05-03T15:37:41Z</time></trkpt><trkpt lat="43.31464885082858" lon="11.51426500261558"><ele>299.2</ele><time>2026-05-03T15:37:42Z</time></trkpt><trkpt lat="43.314707463751624" lon="11.514146704087834"><ele>299.4</ele><time>2026-05-03T15:37:43Z</time></trkpt><trkpt lat="43.31476843113412" lon="11.514037410096016"><ele>299.6</ele><time>2026-05-03T15:37:44Z</time></trkpt><trkpt lat="43.314844154533766" lon="11.513957220143629"><ele>299.8</ele><time>2026-05-03T15:37:45Z</time></trkpt><trkpt lat="43.31493109697839" lon="11.513913993458733"><ele>300.0</ele><time>2026-05-03T15:37:46Z</time></trkpt><trkpt lat="43.315020669038276" lon="11.513897886608264"><ele>300.6666666666667</ele><time>2026-05-03T15:37:47Z</time></trkpt><trkpt lat="43.315109146323046" lon="11.513887807103691"><ele>301.3333333333333</ele><time>2026-05-03T15:37:48Z</time></trkpt><trkpt lat="43.3151941589943" lon="11.513880998394841"><ele>302.0</ele><time>2026-05-03T15:37:49Z</time></trkpt><trkpt lat="43.31528165037781" lon="11.51387646608027"><ele>302.66666666666663</ele><time>2026-05-03T15:37:50Z</time></trkpt><trkpt lat="43.31536885965649" lon="11.513886235677015"><ele>303.3333333333333</ele><time>2026-05-03T15:37:51Z</time></trkpt><trkpt lat="43.315452259468515" lon="11.513924590349623"><ele>304.0</ele><time>2026-05-03T15:37:52Z</time></trkpt><trkpt lat="43.315513047389736" lon="11.51400101350731"><ele>304.0</ele><time>2026-05-03T15:37:53Z</time></trkpt><trkpt lat="43.31554863624638" lon="11.514087157752424"><ele>304.0</ele><time>2026-05-03T15:37:54Z</time></trkpt><trkpt lat="43.31555685190377" lon="11.514188969573175"><ele>304.0</ele><time>2026-05-03T15:37:55Z</time></trkpt><trkpt lat="43.31556132279638" lon="11.514290885154313"><ele>304.0</ele><time>2026-05-03T15:37:56Z</time></trkpt><trkpt lat="43.31556871688386" lon="11.514399362816159"><ele>304.0</ele><time>2026-05-03T15:37:57Z</time></trkpt><trkpt lat="43.315582017530886" lon="11.514529848231566"><ele>304.0</ele><time>2026-05-03T15:37:58Z</time></trkpt><trkpt lat="43.31560367500839" lon="11.514667882412555"><ele>302.75</ele><time>2026-05-03T15:37:59Z</time></trkpt><trkpt lat="43.3156379608294" lon="11.514813619063608"><ele>301.5</ele><time>2026-05-03T15:38:00Z</time></trkpt><trkpt lat="43.315698683223104" lon="11.5149502587334"><ele>300.25</ele><time>2026-05-03T15:38:01Z</time></trkpt><trkpt lat="43.31577289217515" lon="11.51506825629583"><ele>299.0</ele><time>2026-05-03T15:38:02Z</time></trkpt><trkpt lat="43.315853661165406" lon="11.515170109718863"><ele>299.0</ele><time>2026-05-03T15:38:03Z</time></trkpt><trkpt lat="43.315947481954176" lon="11.51526562037664"><ele>299.0</ele><time>2026-05-03T15:38:04Z</time></trkpt><trkpt lat="43.31607691236841" lon="11.515303486321944"><ele>299.0</ele><time>2026-05-03T15:38:05Z</time></trkpt><trkpt lat="43.316221299342146" lon="11.515294594691252"><ele>299.0</ele><time>2026-05-03T15:38:06Z</time></trkpt><trkpt lat="43.3163768198605" lon="11.515255655802553"><ele>299.33333333333337</ele><time>2026-05-03T15:38:07Z</time></trkpt><trkpt lat="43.31653533319994" lon="11.515197933981726"><ele>299.6666666666667</ele><time>2026-05-03T15:38:08Z</time></trkpt><trkpt lat="43.31668890966859" lon="11.515112719977335"><ele>300.0</ele><time>2026-05-03T15:38:09Z</time></trkpt><trkpt lat="43.31684302402055" lon="11.51505520396563"><ele>300.0</ele><time>2026-05-03T15:38:10Z</time></trkpt><trkpt lat="43.31698683172859" lon="11.514991343953128"><ele>300.0</ele><time>2026-05-03T15:38:11Z</time></trkpt><trkpt lat="43.3171211920396" lon="11.514929551385968"><ele>300.0</ele><time>2026-05-03T15:38:12Z</time></trkpt><trkpt lat="43.3172444048362" lon="11.514870356681506"><ele>300.0</ele><time>2026-05-03T15:38:13Z</time></trkpt><trkpt lat="43.3173516837935" lon="11.514808027237493"><ele>300.25</ele><time>2026-05-03T15:38:14Z</time></trkpt><trkpt lat="43.3174491345124" lon="11.514725792257147"><ele>300.5</ele><time>2026-05-03T15:38:15Z</time></trkpt><trkpt lat="43.31752603601722" lon="11.514616338085135"><ele>300.75</ele><time>2026-05-03T15:38:16Z</time></trkpt><trkpt lat="43.31758105106665" lon="11.51447320837816"><ele>301.0</ele><time>2026-05-03T15:38:17Z</time></trkpt><trkpt lat="43.3176248147213" lon="11.514297682367571"><ele>301.0</ele><time>2026-05-03T15:38:18Z</time></trkpt><trkpt lat="43.31766700980519" lon="11.5141268248048"><ele>301.0</ele><time>2026-05-03T15:38:19Z</time></trkpt><trkpt lat="43.317708529775125" lon="11.513966252709949"><ele>301.0</ele><time>2026-05-03T15:38:20Z</time></trkpt><trkpt lat="43.31774549096472" lon="11.5138162688211"><ele>301.0</ele><time>2026-05-03T15:38:21Z</time></trkpt><trkpt lat="43.317788645833694" lon="11.513688108521336"><ele>300.40000000000003</ele><time>2026-05-03T15:38:22Z</time></trkpt><trkpt lat="43.317845795475904" lon="11.513581111349229"><ele>299.8</ele><time>2026-05-03T15:38:23Z</time></trkpt><trkpt lat="43.3179187544447" lon="11.513498046338153"><ele>299.20000000000005</ele><time>2026-05-03T15:38:24Z</time></trkpt><trkpt lat="43.3180094465342" lon="11.513441889724737"><ele>298.6</ele><time>2026-05-03T15:38:25Z</time></trkpt><trkpt lat="43.318112279703584" lon="11.513399449840925"><ele>298.0</ele><time>2026-05-03T15:38:26Z</time></trkpt><trkpt lat="43.31821968092834" lon="11.513375063983219"><ele>298.0</ele><time>2026-05-03T15:38:27Z</time></trkpt><trkpt lat="43.31833263502267" lon="11.513376904960769"><ele>298.0</ele><time>2026-05-03T15:38:28Z</time></trkpt><trkpt lat="43.31843914160496" lon="11.513401769592086"><ele>298.0</ele><time>2026-05-03T15:38:29Z</time></trkpt><trkpt lat="43.318530664698166" lon="11.513449436590356"><ele>298.0</ele><time>2026-05-03T15:38:30Z</time></trkpt><trkpt lat="43.31860866768743" lon="11.513521605899093"><ele>298.0</ele><time>2026-05-03T15:38:31Z</time></trkpt><trkpt lat="43.31867303675803" lon="11.513618071662075"><ele>298.0</ele><time>2026-05-03T15:38:32Z</time></trkpt><trkpt lat="43.318719134319025" lon="11.513734917737745"><ele>298.0</ele><time>2026-05-03T15:38:33Z</time></trkpt><trkpt lat="43.318739845646434" lon="11.513858161832939"><ele>298.0</ele><time>2026-05-03T15:38:34Z</time></trkpt><trkpt lat="43.318740943118264" lon="11.513994504309716"><ele>298.0</ele><time>2026-05-03T15:38:35Z</time></trkpt><trkpt lat="43.31872405719603" lon="11.514127537788083"><ele>298.0</ele><time>2026-05-03T15:38:36Z</time></trkpt><trkpt lat="43.318681860157724" lon="11.514249048901995"><ele>298.0</ele><time>2026-05-03T15:38:37Z</time></trkpt><trkpt lat="43.31861766722183" lon="11.514358201631484"><ele>298.0</ele><time>2026-05-03T15:38:38Z</time></trkpt><trkpt lat="43.31854371763829" lon="11.514457151522054"><ele>298.0</ele><time>2026-05-03T15:38:39Z</time></trkpt><trkpt lat="43.31847096489611" lon="11.514539202301465"><ele>298.0</ele><time>2026-05-03T15:38:40Z</time></trkpt><trkpt lat="43.31839832802474" lon="11.514614060250711"><ele>298.0</ele><time>2026-05-03T15:38:41Z</time></trkpt><trkpt lat="43.31834272647886" lon="11.514701630602818"><ele>298.0</ele><time>2026-05-03T15:38:42Z</time></trkpt><trkpt lat="43.318316164489815" lon="11.514802053935453"><ele>298.0</ele><time>2026-05-03T15:38:43Z</time></trkpt><trkpt lat="43.318321085104984" lon="11.51490559208951"><ele>298.0</ele><time>2026-05-03T15:38:44Z</time></trkpt><trkpt lat="43.31835391227671" lon="11.514999772459383"><ele>298.0</ele><time>2026-05-03T15:38:45Z</time></trkpt><trkpt lat="43.31841483233429" lon="11.51508475730224"><ele>298.0</ele><time>2026-05-03T15:38:46Z</time></trkpt><trkpt lat="43.31852929822407" lon="11.51511241311288"><ele>298.0</ele><time>2026-05-03T15:38:47Z</time></trkpt><trkpt lat="43.318606001185444" lon="11.515211108146078"><ele>298.0</ele><time>2026-05-03T15:38:48Z</time></trkpt><trkpt lat="43.31868591903654" lon="11.515315556283825"><ele>298.0</ele><time>2026-05-03T15:38:49Z</time></trkpt><trkpt lat="43.31877288546664" lon="11.515410676945454"><ele>298.0</ele><time>2026-05-03T15:38:50Z</time></trkpt><trkpt lat="43.31885247917246" lon="11.515535474880753"><ele>298.0</ele><time>2026-05-03T15:38:51Z</time></trkpt><trkpt lat="43.31891529544369" lon="11.515674679532331"><ele>296.25</ele><time>2026-05-03T15:38:52Z</time></trkpt><trkpt lat="43.31897345000075" lon="11.51581961176308"><ele>294.5</ele><time>2026-05-03T15:38:53Z</time></trkpt><trkpt lat="43.31905434824421" lon="11.515952746741302"><ele>292.75</ele><time>2026-05-03T15:38:54Z</time></trkpt><trkpt lat="43.31914065643119" lon="11.516041416175408"><ele>291.0</ele><time>2026-05-03T15:38:55Z</time></trkpt><trkpt lat="43.319232086659106" lon="11.51611316126059"><ele>291.0</ele><time>2026-05-03T15:38:56Z</time></trkpt><trkpt lat="43.31934215030648" lon="11.516095560773962"><ele>291.0</ele><time>2026-05-03T15:38:57Z</time></trkpt><trkpt lat="43.31944552464819" lon="11.516078668518858"><ele>291.0</ele><time>2026-05-03T15:38:58Z</time></trkpt><trkpt lat="43.31954419023473" lon="11.516055521715552"><ele>291.0</ele><time>2026-05-03T15:38:59Z</time></trkpt><trkpt lat="43.31964382526163" lon="11.516059861823011"><ele>291.0</ele><time>2026-05-03T15:39:00Z</time></trkpt><trkpt lat="43.31975072883621" lon="11.516106030945455"><ele>289.5</ele><time>2026-05-03T15:39:01Z</time></trkpt><trkpt lat="43.31985228491905" lon="11.516201630896616"><ele>288.0</ele><time>2026-05-03T15:39:02Z</time></trkpt><trkpt lat="43.31994633783362" lon="11.51633739004876"><ele>286.5</ele><time>2026-05-03T15:39:03Z</time></trkpt><trkpt lat="43.320037049647404" lon="11.516506405125103"><ele>285.0</ele><time>2026-05-03T15:39:04Z</time></trkpt><trkpt lat="43.320135290396664" lon="11.51670069971239"><ele>284.6666666666667</ele><time>2026-05-03T15:39:05Z</time></trkpt><trkpt lat="43.32023676017492" lon="11.516909845721806"><ele>284.33333333333337</ele><time>2026-05-03T15:39:06Z</time></trkpt><trkpt lat="43.3203370554083" lon="11.517121114480107"><ele>284.0</ele><time>2026-05-03T15:39:07Z</time></trkpt><trkpt lat="43.320435510027764" lon="11.517317813151475"><ele>282.6666666666667</ele><time>2026-05-03T15:39:08Z</time></trkpt><trkpt lat="43.32053436473298" lon="11.517501463030522"><ele>281.3333333333333</ele><time>2026-05-03T15:39:09Z</time></trkpt><trkpt lat="43.32063724109713" lon="11.517672936057334"><ele>280.0</ele><time>2026-05-03T15:39:10Z</time></trkpt><trkpt lat="43.32073580171702" lon="11.517831594812867"><ele>278.0</ele><time>2026-05-03T15:39:11Z</time></trkpt><trkpt lat="43.320825376841874" lon="11.51798636608988"><ele>276.0</ele><time>2026-05-03T15:39:12Z</time></trkpt><trkpt lat="43.32089835715329" lon="11.518135670752477"><ele>274.0</ele><time>2026-05-03T15:39:13Z</time></trkpt><trkpt lat="43.32095341571867" lon="11.51829327950254"><ele>272.0</ele><time>2026-05-03T15:39:14Z</time></trkpt><trkpt lat="43.320992163383195" lon="11.51848097260603"><ele>272.0</ele><time>2026-05-03T15:39:15Z</time></trkpt><trkpt lat="43.32102066858068" lon="11.5187091572114"><ele>272.0</ele><time>2026-05-03T15:39:16Z</time></trkpt><trkpt lat="43.321036778522" lon="11.518942835361193"><ele>272.0</ele><time>2026-05-03T15:39:17Z</time></trkpt><trkpt lat="43.321049605942555" lon="11.51919450628624"><ele>271.0</ele><time>2026-05-03T15:39:18Z</time></trkpt><trkpt lat="43.32106724400586" lon="11.519460704517124"><ele>270.0</ele><time>2026-05-03T15:39:19Z</time></trkpt><trkpt lat="43.32108192068712" lon="11.519715931332701"><ele>269.0</ele><time>2026-05-03T15:39:20Z</time></trkpt><trkpt lat="43.32109125286532" lon="11.519971411475408"><ele>267.6666666666667</ele><time>2026-05-03T15:39:21Z</time></trkpt><trkpt lat="43.321102312758654" lon="11.520224787881247"><ele>266.3333333333333</ele><time>2026-05-03T15:39:22Z</time></trkpt><trkpt lat="43.321115881282395" lon="11.520466283641086"><ele>265.0</ele><time>2026-05-03T15:39:23Z</time></trkpt><trkpt lat="43.321126628375154" lon="11.520705943510015"><ele>264.3333333333333</ele><time>2026-05-03T15:39:24Z</time></trkpt><trkpt lat="43.32113941787118" lon="11.520935923329768"><ele>263.6666666666667</ele><time>2026-05-03T15:39:25Z</time></trkpt><trkpt lat="43.32114067758415" lon="11.521159073002718"><ele>263.0</ele><time>2026-05-03T15:39:26Z</time></trkpt><trkpt lat="43.3211415650882" lon="11.521374387278502"><ele>263.0</ele><time>2026-05-03T15:39:27Z</time></trkpt><trkpt lat="43.32113949051522" lon="11.521584759713425"><ele>263.0</ele><time>2026-05-03T15:39:28Z</time></trkpt><trkpt lat="43.321138727379264" lon="11.52178642268577"><ele>263.0</ele><time>2026-05-03T15:39:29Z</time></trkpt><trkpt lat="43.32113666883978" lon="11.521983303627096"><ele>263.0</ele><time>2026-05-03T15:39:30Z</time></trkpt><trkpt lat="43.321132971028135" lon="11.522173147006441"><ele>262.8</ele><time>2026-05-03T15:39:31Z</time></trkpt><trkpt lat="43.321128878394454" lon="11.522350252757269"><ele>262.6</ele><time>2026-05-03T15:39:32Z</time></trkpt><trkpt lat="43.321126271814414" lon="11.522509621659175"><ele>262.4</ele><time>2026-05-03T15:39:33Z</time></trkpt><trkpt lat="43.32112749495135" lon="11.522651928194914"><ele>262.2</ele><time>2026-05-03T15:39:34Z</time></trkpt><trkpt lat="43.32114350358217" lon="11.522780456145629"><ele>262.0</ele><time>2026-05-03T15:39:35Z</time></trkpt><trkpt lat="43.32117114754746" lon="11.52290500109591"><ele>261.8</ele><time>2026-05-03T15:39:36Z</time></trkpt><trkpt lat="43.321237783604914" lon="11.523012924344956"><ele>261.6</ele><time>2026-05-03T15:39:37Z</time></trkpt><trkpt lat="43.321317946017025" lon="11.52310674487124"><ele>261.40000000000003</ele><time>2026-05-03T15:39:38Z</time></trkpt><trkpt lat="43.32140289440272" lon="11.523205806521794"><ele>261.2</ele><time>2026-05-03T15:39:39Z</time></trkpt><trkpt lat="43.32148032452429" lon="11.52328842987661"><ele>261.0</ele><time>2026-05-03T15:39:40Z</time></trkpt><trkpt lat="43.32154690232516" lon="11.52337343925425"><ele>261.0</ele><time>2026-05-03T15:39:41Z</time></trkpt><trkpt lat="43.32159218064204" lon="11.523473875494517"><ele>261.0</ele><time>2026-05-03T15:39:42Z</time></trkpt><trkpt lat="43.321632111988286" lon="11.523603354633769"><ele>261.0</ele><time>2026-05-03T15:39:43Z</time></trkpt><trkpt lat="43.32162926985955" lon="11.523774917434713"><ele>261.0</ele><time>2026-05-03T15:39:44Z</time></trkpt><trkpt lat="43.32161165634693" lon="11.523973032749648"><ele>260.6666666666667</ele><time>2026-05-03T15:39:45Z</time></trkpt><trkpt lat="43.32158579934539" lon="11.524189212499873"><ele>260.33333333333337</ele><time>2026-05-03T15:39:46Z</time></trkpt><trkpt lat="43.3215516181722" lon="11.524412213302016"><ele>260.0</ele><time>2026-05-03T15:39:47Z</time></trkpt><trkpt lat="43.32151368885686" lon="11.524638949322144"><ele>260.0</ele><time>2026-05-03T15:39:48Z</time></trkpt><trkpt lat="43.321468955272664" lon="11.524870290375206"><ele>260.0</ele><time>2026-05-03T15:39:49Z</time></trkpt><trkpt lat="43.321405270311665" lon="11.52511661023587"><ele>260.0</ele><time>2026-05-03T15:39:50Z</time></trkpt><trkpt lat="43.32133554750833" lon="11.525353511259643"><ele>258.0</ele><time>2026-05-03T15:39:51Z</time></trkpt><trkpt lat="43.32127480375196" lon="11.525576514624273"><ele>256.0</ele><time>2026-05-03T15:39:52Z</time></trkpt><trkpt lat="43.32120972299798" lon="11.525788819859102"><ele>254.0</ele><time>2026-05-03T15:39:53Z</time></trkpt><trkpt lat="43.32115080637984" lon="11.52599502541065"><ele>254.0</ele><time>2026-05-03T15:39:54Z</time></trkpt><trkpt lat="43.321094249963636" lon="11.526213567704074"><ele>254.0</ele><time>2026-05-03T15:39:55Z</time></trkpt><trkpt lat="43.32104587047578" lon="11.526443868306716"><ele>254.0</ele><time>2026-05-03T15:39:56Z</time></trkpt><trkpt lat="43.321008649936836" lon="11.526696322772914"><ele>254.0</ele><time>2026-05-03T15:39:57Z</time></trkpt><trkpt lat="43.320972143822516" lon="11.526965133656025"><ele>254.0</ele><time>2026-05-03T15:39:58Z</time></trkpt><trkpt lat="43.32093366340045" lon="11.527241602404827"><ele>254.0</ele><time>2026-05-03T15:39:59Z</time></trkpt><trkpt lat="43.32089631317032" lon="11.527517525606973"><ele>254.0</ele><time>2026-05-03T15:40:00Z</time></trkpt><trkpt lat="43.320858160203294" lon="11.527794595131162"><ele>254.0</ele><time>2026-05-03T15:40:01Z</time></trkpt><trkpt lat="43.32081873024155" lon="11.528068740783583"><ele>254.0</ele><time>2026-05-03T15:40:02Z</time></trkpt><trkpt lat="43.32077585159183" lon="11.528335832034156"><ele>253.66666666666669</ele><time>2026-05-03T15:40:03Z</time></trkpt><trkpt lat="43.32074317687819" lon="11.528595708054592"><ele>253.33333333333331</ele><time>2026-05-03T15:40:04Z</time></trkpt><trkpt lat="43.3207114698864" lon="11.528849919800717"><ele>253.0</ele><time>2026-05-03T15:40:05Z</time></trkpt><trkpt lat="43.32068970744196" lon="11.529094139013193"><ele>253.66666666666666</ele><time>2026-05-03T15:40:06Z</time></trkpt><trkpt lat="43.32067865588565" lon="11.529337907590694"><ele>254.33333333333331</ele><time>2026-05-03T15:40:07Z</time></trkpt><trkpt lat="43.320681996682985" lon="11.529578102982226"><ele>255.0</ele><time>2026-05-03T15:40:08Z</time></trkpt><trkpt lat="43.320689652643885" lon="11.52981118981235"><ele>255.0</ele><time>2026-05-03T15:40:09Z</time></trkpt><trkpt lat="43.32069762687352" lon="11.530029548705434"><ele>255.0</ele><time>2026-05-03T15:40:10Z</time></trkpt><trkpt lat="43.3207038134706" lon="11.530234727664151"><ele>255.0</ele><time>2026-05-03T15:40:11Z</time></trkpt><trkpt lat="43.32070961392092" lon="11.530432857266934"><ele>255.5</ele><time>2026-05-03T15:40:12Z</time></trkpt><trkpt lat="43.32072106827696" lon="11.530625386832916"><ele>256.0</ele><time>2026-05-03T15:40:13Z</time></trkpt><trkpt lat="43.32074591742898" lon="11.530826530723662"><ele>256.5</ele><time>2026-05-03T15:40:14Z</time></trkpt><trkpt lat="43.320775690605416" lon="11.531040484640712"><ele>257.0</ele><time>2026-05-03T15:40:15Z</time></trkpt><trkpt lat="43.32083360200925" lon="11.531254327434407"><ele>254.66666666666669</ele><time>2026-05-03T15:40:16Z</time></trkpt><trkpt lat="43.320901575519954" lon="11.531473928741908"><ele>252.33333333333331</ele><time>2026-05-03T15:40:17Z</time></trkpt><trkpt lat="43.3209710710044" lon="11.531697222599078"><ele>250.0</ele><time>2026-05-03T15:40:18Z</time></trkpt><trkpt lat="43.32105500127507" lon="11.531910840863114"><ele>248.33333333333331</ele><time>2026-05-03T15:40:19Z</time></trkpt><trkpt lat="43.32112223480908" lon="11.532133235577044"><ele>246.66666666666669</ele><time>2026-05-03T15:40:20Z</time></trkpt><trkpt lat="43.321180870009506" lon="11.532362424980384"><ele>245.0</ele><time>2026-05-03T15:40:21Z</time></trkpt><trkpt lat="43.3212758033833" lon="11.532589950223862"><ele>244.66666666666669</ele><time>2026-05-03T15:40:22Z</time></trkpt><trkpt lat="43.32140306689643" lon="11.532805861672044"><ele>244.33333333333331</ele><time>2026-05-03T15:40:23Z</time></trkpt><trkpt lat="43.3215211241939" lon="11.53304833711336"><ele>244.0</ele><time>2026-05-03T15:40:24Z</time></trkpt><trkpt lat="43.321642718463046" lon="11.533296876257303"><ele>244.0</ele><time>2026-05-03T15:40:25Z</time></trkpt><trkpt lat="43.32176916849794" lon="11.533542461509578"><ele>244.0</ele><time>2026-05-03T15:40:26Z</time></trkpt><trkpt lat="43.321895703857074" lon="11.533782781692826"><ele>244.0</ele><time>2026-05-03T15:40:27Z</time></trkpt><trkpt lat="43.32202255504555" lon="11.534023659303148"><ele>243.33333333333331</ele><time>2026-05-03T15:40:28Z</time></trkpt><trkpt lat="43.322145603844056" lon="11.534267633812465"><ele>242.66666666666669</ele><time>2026-05-03T15:40:29Z</time></trkpt><trkpt lat="43.32226860160992" lon="11.534507518802616"><ele>242.0</ele><time>2026-05-03T15:40:30Z</time></trkpt><trkpt lat="43.32239068948751" lon="11.53474192193448"><ele>241.0</ele><time>2026-05-03T15:40:31Z</time></trkpt><trkpt lat="43.322510596371416" lon="11.534972004441993"><ele>240.0</ele><time>2026-05-03T15:40:32Z</time></trkpt><trkpt lat="43.322628398382875" lon="11.535198939076158"><ele>239.0</ele><time>2026-05-03T15:40:33Z</time></trkpt><trkpt lat="43.322746249359334" lon="11.535421742947435"><ele>239.0</ele><time>2026-05-03T15:40:34Z</time></trkpt><trkpt lat="43.32286358436541" lon="11.535644174844153"><ele>239.0</ele><time>2026-05-03T15:40:35Z</time></trkpt><trkpt lat="43.322974358441606" lon="11.53587389725576"><ele>239.0</ele><time>2026-05-03T15:40:36Z</time></trkpt><trkpt lat="43.32308175190356" lon="11.536103304275294"><ele>237.0</ele><time>2026-05-03T15:40:37Z</time></trkpt><trkpt lat="43.32318287199338" lon="11.536334948299702"><ele>235.0</ele><time>2026-05-03T15:40:38Z</time></trkpt><trkpt lat="43.32327367629826" lon="11.536557592770754"><ele>233.0</ele><time>2026-05-03T15:40:39Z</time></trkpt><trkpt lat="43.32336037467942" lon="11.536774265300858"><ele>233.0</ele><time>2026-05-03T15:40:40Z</time></trkpt><trkpt lat="43.323449029514016" lon="11.536974700055785"><ele>233.0</ele><time>2026-05-03T15:40:41Z</time></trkpt><trkpt lat="43.32353159692013" lon="11.537172799158952"><ele>233.0</ele><time>2026-05-03T15:40:42Z</time></trkpt><trkpt lat="43.32361195788953" lon="11.537351207862098"><ele>232.75</ele><time>2026-05-03T15:40:43Z</time></trkpt><trkpt lat="43.32369716694024" lon="11.537504011712798"><ele>232.5</ele><time>2026-05-03T15:40:44Z</time></trkpt><trkpt lat="43.32380200319169" lon="11.537624560902557"><ele>232.25</ele><time>2026-05-03T15:40:45Z</time></trkpt><trkpt lat="43.32392071120198" lon="11.537726779926075"><ele>232.0</ele><time>2026-05-03T15:40:46Z</time></trkpt><trkpt lat="43.32404564752656" lon="11.537821373720679"><ele>233.0</ele><time>2026-05-03T15:40:47Z</time></trkpt><trkpt lat="43.32416723189372" lon="11.537913564533536"><ele>234.0</ele><time>2026-05-03T15:40:48Z</time></trkpt><trkpt lat="43.32428252815316" lon="11.538024237456584"><ele>235.0</ele><time>2026-05-03T15:40:49Z</time></trkpt><trkpt lat="43.324378761530454" lon="11.538157214453701"><ele>236.0</ele><time>2026-05-03T15:40:50Z</time></trkpt><trkpt lat="43.324456075020485" lon="11.538315850604004"><ele>236.0</ele><time>2026-05-03T15:40:51Z</time></trkpt><trkpt lat="43.32452483240257" lon="11.53849447909208"><ele>236.0</ele><time>2026-05-03T15:40:52Z</time></trkpt><trkpt lat="43.324585507769655" lon="11.53870739907989"><ele>236.0</ele><time>2026-05-03T15:40:53Z</time></trkpt><trkpt lat="43.32465342896705" lon="11.538925916415506"><ele>235.0</ele><time>2026-05-03T15:40:54Z</time></trkpt><trkpt lat="43.32472568261447" lon="11.539166972414707"><ele>234.0</ele><time>2026-05-03T15:40:55Z</time></trkpt><trkpt lat="43.324798353905926" lon="11.539424210516938"><ele>233.0</ele><time>2026-05-03T15:40:56Z</time></trkpt><trkpt lat="43.32487362962747" lon="11.53969097659291"><ele>234.66666666666669</ele><time>2026-05-03T15:40:57Z</time></trkpt><trkpt lat="43.32495398961506" lon="11.539958966643121"><ele>236.33333333333331</ele><time>2026-05-03T15:40:58Z</time></trkpt><trkpt lat="43.32503691424721" lon="11.540223038743575"><ele>238.0</ele><time>2026-05-03T15:40:59Z</time></trkpt><trkpt lat="43.32511872850271" lon="11.54048740872417"><ele>238.0</ele><time>2026-05-03T15:41:00Z</time></trkpt><trkpt lat="43.325199374406104" lon="11.540750740121796"><ele>238.0</ele><time>2026-05-03T15:41:01Z</time></trkpt><trkpt lat="43.32528089117882" lon="11.54100857399633"><ele>238.0</ele><time>2026-05-03T15:41:02Z</time></trkpt><trkpt lat="43.32535665517143" lon="11.541272482781805"><ele>238.0</ele><time>2026-05-03T15:41:03Z</time></trkpt><trkpt lat="43.32543279289481" lon="11.5415349145244"><ele>238.0</ele><time>2026-05-03T15:41:04Z</time></trkpt><trkpt lat="43.325507475196815" lon="11.541796281541213"><ele>238.0</ele><time>2026-05-03T15:41:05Z</time></trkpt><trkpt lat="43.3255809611716" lon="11.542057852784433"><ele>238.0</ele><time>2026-05-03T15:41:06Z</time></trkpt><trkpt lat="43.32565507900611" lon="11.542316854102916"><ele>238.0</ele><time>2026-05-03T15:41:07Z</time></trkpt><trkpt lat="43.32572525979516" lon="11.542579218126564"><ele>238.0</ele><time>2026-05-03T15:41:08Z</time></trkpt><trkpt lat="43.32579557295231" lon="11.542830922236815"><ele>237.33333333333331</ele><time>2026-05-03T15:41:09Z</time></trkpt><trkpt lat="43.325863532716575" lon="11.543070196256439"><ele>236.66666666666669</ele><time>2026-05-03T15:41:10Z</time></trkpt><trkpt lat="43.32592935901089" lon="11.543291374937587"><ele>236.0</ele><time>2026-05-03T15:41:11Z</time></trkpt><trkpt lat="43.325991995511046" lon="11.543498982725687"><ele>236.0</ele><time>2026-05-03T15:41:12Z</time></trkpt><trkpt lat="43.326050725135595" lon="11.543700780584546"><ele>236.0</ele><time>2026-05-03T15:41:13Z</time></trkpt><trkpt lat="43.32610746415317" lon="11.54389980677898"><ele>236.0</ele><time>2026-05-03T15:41:14Z</time></trkpt><trkpt lat="43.32616575498011" lon="11.54409144551169"><ele>236.25</ele><time>2026-05-03T15:41:15Z</time></trkpt><trkpt lat="43.32622874753011" lon="11.54427359720977"><ele>236.5</ele><time>2026-05-03T15:41:16Z</time></trkpt><trkpt lat="43.326281304152104" lon="11.544455033311682"><ele>236.75</ele><time>2026-05-03T15:41:17Z</time></trkpt><trkpt lat="43.32633116856088" lon="11.544629771539897"><ele>237.0</ele><time>2026-05-03T15:41:18Z</time></trkpt><trkpt lat="43.326381095225614" lon="11.544789204786479"><ele>237.2</ele><time>2026-05-03T15:41:19Z</time></trkpt><trkpt lat="43.32642565546701" lon="11.544936642758515"><ele>237.39999999999998</ele><time>2026-05-03T15:41:20Z</time></trkpt><trkpt lat="43.32647119538983" lon="11.545068162937696"><ele>237.60000000000002</ele><time>2026-05-03T15:41:21Z</time></trkpt><trkpt lat="43.3265362431439" lon="11.545179851300029"><ele>237.8</ele><time>2026-05-03T15:41:22Z</time></trkpt><trkpt lat="43.326621534654585" lon="11.545260396104027"><ele>238.0</ele><time>2026-05-03T15:41:23Z</time></trkpt><trkpt lat="43.32671976366775" lon="11.545327083723905"><ele>236.75</ele><time>2026-05-03T15:41:24Z</time></trkpt><trkpt lat="43.32683023899079" lon="11.54539586185071"><ele>235.5</ele><time>2026-05-03T15:41:25Z</time></trkpt><trkpt lat="43.326942203821865" lon="11.545474701417406"><ele>234.25</ele><time>2026-05-03T15:41:26Z</time></trkpt><trkpt lat="43.32704845158694" lon="11.545555706469479"><ele>233.0</ele><time>2026-05-03T15:41:27Z</time></trkpt><trkpt lat="43.32713908803608" lon="11.545638580348873"><ele>233.00000000000003</ele><time>2026-05-03T15:41:28Z</time></trkpt><trkpt lat="43.32720948562909" lon="11.545727930863556"><ele>233.0</ele><time>2026-05-03T15:41:29Z</time></trkpt><trkpt lat="43.32725509749125" lon="11.545829078685799"><ele>233.0</ele><time>2026-05-03T15:41:30Z</time></trkpt><trkpt lat="43.32727022381624" lon="11.545939449678965"><ele>233.0</ele><time>2026-05-03T15:41:31Z</time></trkpt><trkpt lat="43.327253857282074" lon="11.54604989979612"><ele>233.00000000000003</ele><time>2026-05-03T15:41:32Z</time></trkpt><trkpt lat="43.32722496592462" lon="11.54614213713136"><ele>233.0</ele><time>2026-05-03T15:41:33Z</time></trkpt><trkpt lat="43.32719423790022" lon="11.546225431554042"><ele>232.4</ele><time>2026-05-03T15:41:34Z</time></trkpt><trkpt lat="43.32716473550548" lon="11.546305368304921"><ele>231.8</ele><time>2026-05-03T15:41:35Z</time></trkpt><trkpt lat="43.32712312039308" lon="11.546435051357339"><ele>231.2</ele><time>2026-05-03T15:41:37Z</time></trkpt><trkpt lat="43.3270940691631" lon="11.546525351158888"><ele>230.6</ele><time>2026-05-03T15:41:40Z</time></trkpt><trkpt lat="43.32704171384378" lon="11.546698032359114"><ele>230.0</ele><time>2026-05-03T15:43:10Z</time></trkpt><trkpt lat="43.32702122128279" lon="11.546828754019193"><ele>230.00000000000003</ele><time>2026-05-03T15:43:11Z</time></trkpt><trkpt lat="43.3270015545931" lon="11.546941411222388"><ele>230.0</ele><time>2026-05-03T15:43:12Z</time></trkpt><trkpt lat="43.32699369208038" lon="11.547043126689067"><ele>230.0</ele><time>2026-05-03T15:43:13Z</time></trkpt><trkpt lat="43.32698092528947" lon="11.547143631796516"><ele>230.0</ele><time>2026-05-03T15:43:14Z</time></trkpt><trkpt lat="43.32696223345335" lon="11.547241275660518"><ele>230.00000000000003</ele><time>2026-05-03T15:43:15Z</time></trkpt><trkpt lat="43.3269436865082" lon="11.547326007962027"><ele>230.0</ele><time>2026-05-03T15:43:16Z</time></trkpt><trkpt lat="43.3269071436989" lon="11.547441003921776"><ele>229.66666666666669</ele><time>2026-05-03T15:43:18Z</time></trkpt><trkpt lat="43.326937592009905" lon="11.547560062922392"><ele>229.33333333333334</ele><time>2026-05-03T15:43:23Z</time></trkpt><trkpt lat="43.32697676692841" lon="11.547632130250443"><ele>229.0</ele><time>2026-05-03T15:43:24Z</time></trkpt><trkpt lat="43.32700669564618" lon="11.547744603137133"><ele>228.66666666666669</ele><time>2026-05-03T15:43:25Z</time></trkpt><trkpt lat="43.32701699450771" lon="11.547874557625432"><ele>228.33333333333334</ele><time>2026-05-03T15:43:26Z</time></trkpt><trkpt lat="43.32702637575149" lon="11.548006170328904"><ele>228.0</ele><time>2026-05-03T15:43:27Z</time></trkpt><trkpt lat="43.32704932748273" lon="11.548149539829666"><ele>227.83333333333334</ele><time>2026-05-03T15:43:28Z</time></trkpt><trkpt lat="43.32707674375291" lon="11.548282033945704"><ele>227.66666666666669</ele><time>2026-05-03T15:43:29Z</time></trkpt><trkpt lat="43.32710599752225" lon="11.548394658055663"><ele>227.5</ele><time>2026-05-03T15:43:30Z</time></trkpt><trkpt lat="43.32712493411415" lon="11.54849306764432"><ele>227.33333333333334</ele><time>2026-05-03T15:43:31Z</time></trkpt><trkpt lat="43.32714604709201" lon="11.54858239417035"><ele>227.16666666666669</ele><time>2026-05-03T15:43:32Z</time></trkpt><trkpt lat="43.327167455860874" lon="11.548667684179403"><ele>227.0</ele><time>2026-05-03T15:43:33Z</time></trkpt><trkpt lat="43.327186129778276" lon="11.54882507303435"><ele>226.75</ele><time>2026-05-03T15:43:35Z</time></trkpt><trkpt lat="43.32713862987179" lon="11.548960688885714"><ele>226.5</ele><time>2026-05-03T15:43:37Z</time></trkpt><trkpt lat="43.32702638261788" lon="11.549055660840065"><ele>226.25</ele><time>2026-05-03T15:43:39Z</time></trkpt><trkpt lat="43.32691790941201" lon="11.54908035152525"><ele>226.0</ele><time>2026-05-03T15:43:40Z</time></trkpt><trkpt lat="43.32678142086188" lon="11.549070393637308"><ele>226.0</ele><time>2026-05-03T15:43:41Z</time></trkpt><trkpt lat="43.32662096404693" lon="11.549031443351899"><ele>226.0</ele><time>2026-05-03T15:43:42Z</time></trkpt><trkpt lat="43.32646929927352" lon="11.549017964884568"><ele>226.0</ele><time>2026-05-03T15:43:43Z</time></trkpt><trkpt lat="43.32631878196395" lon="11.54901655412349"><ele>226.0</ele><time>2026-05-03T15:43:44Z</time></trkpt><trkpt lat="43.32618227152969" lon="11.549003050343611"><ele>226.0</ele><time>2026-05-03T15:43:45Z</time></trkpt><trkpt lat="43.32604732877604" lon="11.548982289369656"><ele>226.0</ele><time>2026-05-03T15:43:46Z</time></trkpt><trkpt lat="43.32594243038811" lon="11.548942586913265"><ele>226.0</ele><time>2026-05-03T15:43:47Z</time></trkpt><trkpt lat="43.32582720399714" lon="11.548856958953316"><ele>226.0</ele><time>2026-05-03T15:43:48Z</time></trkpt><trkpt lat="43.32571807717218" lon="11.548731864983724"><ele>226.0</ele><time>2026-05-03T15:43:49Z</time></trkpt><trkpt lat="43.325615754655935" lon="11.54857153119887"><ele>226.0</ele><time>2026-05-03T15:43:50Z</time></trkpt><trkpt lat="43.32554344947239" lon="11.548400201495301"><ele>226.0</ele><time>2026-05-03T15:43:51Z</time></trkpt><trkpt lat="43.325501021040395" lon="11.548241611862405"><ele>226.49999999999997</ele><time>2026-05-03T15:43:52Z</time></trkpt><trkpt lat="43.325455367777245" lon="11.548111860274732"><ele>227.0</ele><time>2026-05-03T15:43:53Z</time></trkpt><trkpt lat="43.32545009769181" lon="11.547994100018032"><ele>227.5</ele><time>2026-05-03T15:43:54Z</time></trkpt><trkpt lat="43.32546238183663" lon="11.547881166355817"><ele>228.0</ele><time>2026-05-03T15:43:55Z</time></trkpt><trkpt lat="43.32549898619945" lon="11.547786691463871"><ele>228.49999999999997</ele><time>2026-05-03T15:43:56Z</time></trkpt><trkpt lat="43.32554881259022" lon="11.547704838860525"><ele>229.0</ele><time>2026-05-03T15:43:57Z</time></trkpt><trkpt lat="43.325615620408065" lon="11.547646520840667"><ele>228.99999999999997</ele><time>2026-05-03T15:43:58Z</time></trkpt><trkpt lat="43.325693222278375" lon="11.547608071102506"><ele>229.0</ele><time>2026-05-03T15:43:59Z</time></trkpt><trkpt lat="43.32577648026798" lon="11.547600865994466"><ele>229.0</ele><time>2026-05-03T15:44:00Z</time></trkpt><trkpt lat="43.325856029382116" lon="11.547632758942104"><ele>229.0</ele><time>2026-05-03T15:44:01Z</time></trkpt><trkpt lat="43.32592964980913" lon="11.547695803272832"><ele>228.99999999999997</ele><time>2026-05-03T15:44:02Z</time></trkpt><trkpt lat="43.3259958389784" lon="11.547784428739124"><ele>229.0</ele><time>2026-05-03T15:44:03Z</time></trkpt><trkpt lat="43.326044913902194" lon="11.547921075410356"><ele>228.25</ele><time>2026-05-03T15:44:04Z</time></trkpt><trkpt lat="43.326084687682595" lon="11.548072478006723"><ele>227.5</ele><time>2026-05-03T15:44:05Z</time></trkpt><trkpt lat="43.32612740017484" lon="11.548239353292404"><ele>226.75</ele><time>2026-05-03T15:44:06Z</time></trkpt><trkpt lat="43.32618650118145" lon="11.548440775268952"><ele>226.0</ele><time>2026-05-03T15:44:07Z</time></trkpt><trkpt lat="43.32625453326708" lon="11.548664481443984"><ele>226.0</ele><time>2026-05-03T15:44:08Z</time></trkpt><trkpt lat="43.32632420270277" lon="11.548898695361279"><ele>226.0</ele><time>2026-05-03T15:44:09Z</time></trkpt><trkpt lat="43.326397670046205" lon="11.54914833930666"><ele>226.0</ele><time>2026-05-03T15:44:10Z</time></trkpt><trkpt lat="43.32647346861544" lon="11.549421588071448"><ele>226.0</ele><time>2026-05-03T15:44:11Z</time></trkpt><trkpt lat="43.326548095833104" lon="11.549703081629838"><ele>226.0</ele><time>2026-05-03T15:44:12Z</time></trkpt><trkpt lat="43.326627876416396" lon="11.550000522589558"><ele>226.0</ele><time>2026-05-03T15:44:13Z</time></trkpt><trkpt lat="43.32670516486263" lon="11.550303788936162"><ele>229.5</ele><time>2026-05-03T15:44:14Z</time></trkpt><trkpt lat="43.32677845585047" lon="11.550602135749743"><ele>233.0</ele><time>2026-05-03T15:44:15Z</time></trkpt><trkpt lat="43.32684320053992" lon="11.550895840654112"><ele>233.0</ele><time>2026-05-03T15:44:16Z</time></trkpt><trkpt lat="43.32690105783924" lon="11.551180022270561"><ele>233.0</ele><time>2026-05-03T15:44:17Z</time></trkpt><trkpt lat="43.32694784133092" lon="11.55147556153926"><ele>233.0</ele><time>2026-05-03T15:44:18Z</time></trkpt><trkpt lat="43.32698175185976" lon="11.551775693052413"><ele>233.5</ele><time>2026-05-03T15:44:19Z</time></trkpt><trkpt lat="43.32700278405543" lon="11.55208501506812"><ele>234.0</ele><time>2026-05-03T15:44:20Z</time></trkpt><trkpt lat="43.327018302716176" lon="11.552391876858968"><ele>234.0</ele><time>2026-05-03T15:44:21Z</time></trkpt><trkpt lat="43.32702070079008" lon="11.552704377210452"><ele>234.0</ele><time>2026-05-03T15:44:22Z</time></trkpt><trkpt lat="43.32701026970105" lon="11.553029261560647"><ele>231.0</ele><time>2026-05-03T15:44:23Z</time></trkpt><trkpt lat="43.326986908033504" lon="11.553353982577256"><ele>228.0</ele><time>2026-05-03T15:44:24Z</time></trkpt><trkpt lat="43.32695164883661" lon="11.553676935920997"><ele>227.5</ele><time>2026-05-03T15:44:25Z</time></trkpt><trkpt lat="43.32690042944823" lon="11.554000156406458"><ele>227.0</ele><time>2026-05-03T15:44:26Z</time></trkpt><trkpt lat="43.32683686819038" lon="11.554316855964553"><ele>226.0</ele><time>2026-05-03T15:44:27Z</time></trkpt><trkpt lat="43.32676005877872" lon="11.554630356263642"><ele>225.0</ele><time>2026-05-03T15:44:28Z</time></trkpt><trkpt lat="43.32667391916631" lon="11.554934217236902"><ele>225.0</ele><time>2026-05-03T15:44:29Z</time></trkpt><trkpt lat="43.32658171746229" lon="11.555223960122444"><ele>225.0</ele><time>2026-05-03T15:44:30Z</time></trkpt><trkpt lat="43.32648346638236" lon="11.555499760053364"><ele>225.0</ele><time>2026-05-03T15:44:31Z</time></trkpt><trkpt lat="43.32638947638117" lon="11.555758440562954"><ele>225.0</ele><time>2026-05-03T15:44:32Z</time></trkpt><trkpt lat="43.32629536813415" lon="11.556006948682398"><ele>225.0</ele><time>2026-05-03T15:44:33Z</time></trkpt><trkpt lat="43.32620094355329" lon="11.556248026317643"><ele>223.66666666666669</ele><time>2026-05-03T15:44:34Z</time></trkpt><trkpt lat="43.32610914064213" lon="11.556496417122707"><ele>222.33333333333334</ele><time>2026-05-03T15:44:35Z</time></trkpt><trkpt lat="43.3260168257609" lon="11.556753278842887"><ele>221.0</ele><time>2026-05-03T15:44:36Z</time></trkpt><trkpt lat="43.32592100524474" lon="11.55701521258354"><ele>220.0</ele><time>2026-05-03T15:44:37Z</time></trkpt><trkpt lat="43.32582257025406" lon="11.557277096924839"><ele>219.0</ele><time>2026-05-03T15:44:38Z</time></trkpt><trkpt lat="43.325727545356195" lon="11.557538311407075"><ele>218.0</ele><time>2026-05-03T15:44:39Z</time></trkpt><trkpt lat="43.32563241546163" lon="11.557800309549593"><ele>217.33333333333334</ele><time>2026-05-03T15:44:40Z</time></trkpt><trkpt lat="43.32553574791958" lon="11.558059436267023"><ele>216.66666666666669</ele><time>2026-05-03T15:44:41Z</time></trkpt><trkpt lat="43.325441949192786" lon="11.558314010854573"><ele>216.0</ele><time>2026-05-03T15:44:42Z</time></trkpt><trkpt lat="43.32535009861685" lon="11.558567348335622"><ele>215.0</ele><time>2026-05-03T15:44:43Z</time></trkpt><trkpt lat="43.3252571336614" lon="11.55881586042064"><ele>214.0</ele><time>2026-05-03T15:44:44Z</time></trkpt><trkpt lat="43.32516438627586" lon="11.559067245450011"><ele>213.0</ele><time>2026-05-03T15:44:45Z</time></trkpt><trkpt lat="43.325072282152796" lon="11.559315672000839"><ele>213.33333333333331</ele><time>2026-05-03T15:44:46Z</time></trkpt><trkpt lat="43.324981072052545" lon="11.559563529263047"><ele>213.66666666666666</ele><time>2026-05-03T15:44:47Z</time></trkpt><trkpt lat="43.3248883495073" lon="11.559818867541539"><ele>214.0</ele><time>2026-05-03T15:44:48Z</time></trkpt><trkpt lat="43.3247932027144" lon="11.56008320534635"><ele>212.5</ele><time>2026-05-03T15:44:49Z</time></trkpt><trkpt lat="43.324688255200606" lon="11.560356306776356"><ele>211.0</ele><time>2026-05-03T15:44:50Z</time></trkpt><trkpt lat="43.32458520914335" lon="11.560637083978607"><ele>211.0</ele><time>2026-05-03T15:44:51Z</time></trkpt><trkpt lat="43.32447775826848" lon="11.560920322795486"><ele>211.0</ele><time>2026-05-03T15:44:52Z</time></trkpt><trkpt lat="43.32437263443813" lon="11.561207867482521"><ele>211.0</ele><time>2026-05-03T15:44:53Z</time></trkpt><trkpt lat="43.32426684811187" lon="11.5614982342111"><ele>211.0</ele><time>2026-05-03T15:44:54Z</time></trkpt><trkpt lat="43.32416029172617" lon="11.561791190242287"><ele>210.5</ele><time>2026-05-03T15:44:55Z</time></trkpt><trkpt lat="43.32405463287776" lon="11.56207990169341"><ele>210.0</ele><time>2026-05-03T15:44:56Z</time></trkpt><trkpt lat="43.32394728193298" lon="11.562376149381127"><ele>209.0</ele><time>2026-05-03T15:44:57Z</time></trkpt><trkpt lat="43.32383831091043" lon="11.562675505884428"><ele>208.0</ele><time>2026-05-03T15:44:58Z</time></trkpt><trkpt lat="43.3237241074157" lon="11.562975936203525"><ele>207.5</ele><time>2026-05-03T15:44:59Z</time></trkpt><trkpt lat="43.32361310838613" lon="11.563276555218595"><ele>207.0</ele><time>2026-05-03T15:45:00Z</time></trkpt><trkpt lat="43.323503560521544" lon="11.56357994157977"><ele>207.5</ele><time>2026-05-03T15:45:01Z</time></trkpt><trkpt lat="43.323390913652275" lon="11.563887704803356"><ele>208.0</ele><time>2026-05-03T15:45:02Z</time></trkpt><trkpt lat="43.32327550111521" lon="11.564194260542447"><ele>208.0</ele><time>2026-05-03T15:45:03Z</time></trkpt><trkpt lat="43.32316245304506" lon="11.564500335298844"><ele>208.0</ele><time>2026-05-03T15:45:04Z</time></trkpt><trkpt lat="43.323050067959656" lon="11.564806974874232"><ele>207.5</ele><time>2026-05-03T15:45:05Z</time></trkpt><trkpt lat="43.32293744943809" lon="11.565110827240527"><ele>207.0</ele><time>2026-05-03T15:45:06Z</time></trkpt><trkpt lat="43.32282643859431" lon="11.565412030781465"><ele>207.0</ele><time>2026-05-03T15:45:07Z</time></trkpt><trkpt lat="43.32271365280615" lon="11.56571449814541"><ele>207.0</ele><time>2026-05-03T15:45:08Z</time></trkpt><trkpt lat="43.32260032042358" lon="11.566015743642016"><ele>208.0</ele><time>2026-05-03T15:45:09Z</time></trkpt><trkpt lat="43.322487368011885" lon="11.566319290024463"><ele>209.0</ele><time>2026-05-03T15:45:10Z</time></trkpt><trkpt lat="43.32237419662752" lon="11.566624774254036"><ele>209.0</ele><time>2026-05-03T15:45:11Z</time></trkpt><trkpt lat="43.32226034010963" lon="11.566931019809525"><ele>209.0</ele><time>2026-05-03T15:45:12Z</time></trkpt><trkpt lat="43.322141159859875" lon="11.567234771176139"><ele>207.5</ele><time>2026-05-03T15:45:13Z</time></trkpt><trkpt lat="43.32201721752535" lon="11.567539568653139"><ele>206.0</ele><time>2026-05-03T15:45:14Z</time></trkpt><trkpt lat="43.32188324142097" lon="11.567838607670343"><ele>206.5</ele><time>2026-05-03T15:45:15Z</time></trkpt><trkpt lat="43.32174604602434" lon="11.56813296502528"><ele>207.0</ele><time>2026-05-03T15:45:16Z</time></trkpt><trkpt lat="43.32159662807344" lon="11.56842108081377"><ele>206.5</ele><time>2026-05-03T15:45:17Z</time></trkpt><trkpt lat="43.32144282135768" lon="11.568705429181943"><ele>206.0</ele><time>2026-05-03T15:45:18Z</time></trkpt><trkpt lat="43.32128351809092" lon="11.568986073543154"><ele>204.5</ele><time>2026-05-03T15:45:19Z</time></trkpt><trkpt lat="43.32112037594527" lon="11.569257036696026"><ele>203.0</ele><time>2026-05-03T15:45:20Z</time></trkpt><trkpt lat="43.320950567892176" lon="11.569519060433663"><ele>204.5</ele><time>2026-05-03T15:45:21Z</time></trkpt><trkpt lat="43.32077586950193" lon="11.569771051102181"><ele>206.0</ele><time>2026-05-03T15:45:22Z</time></trkpt><trkpt lat="43.32059847072927" lon="11.570012176441244"><ele>206.0</ele><time>2026-05-03T15:45:23Z</time></trkpt><trkpt lat="43.32042202416305" lon="11.570237124958018"><ele>206.0</ele><time>2026-05-03T15:45:24Z</time></trkpt><trkpt lat="43.320254270478536" lon="11.570447894381592"><ele>206.0</ele><time>2026-05-03T15:45:25Z</time></trkpt><trkpt lat="43.320088344998894" lon="11.570640680189214"><ele>206.0</ele><time>2026-05-03T15:45:26Z</time></trkpt><trkpt lat="43.31992839644766" lon="11.570820607187885"><ele>206.0</ele><time>2026-05-03T15:45:27Z</time></trkpt><trkpt lat="43.319769740111994" lon="11.57099330978791"><ele>205.66666666666669</ele><time>2026-05-03T15:45:28Z</time></trkpt><trkpt lat="43.31960918741025" lon="11.571158167530958"><ele>205.33333333333331</ele><time>2026-05-03T15:45:29Z</time></trkpt><trkpt lat="43.31944887424572" lon="11.571319610940854"><ele>205.0</ele><time>2026-05-03T15:45:30Z</time></trkpt><trkpt lat="43.31928193580103" lon="11.571475490869958"><ele>204.66666666666666</ele><time>2026-05-03T15:45:31Z</time></trkpt><trkpt lat="43.31911776965021" lon="11.571634151355415"><ele>204.33333333333331</ele><time>2026-05-03T15:45:32Z</time></trkpt><trkpt lat="43.31894889793167" lon="11.57178384014309"><ele>204.0</ele><time>2026-05-03T15:45:33Z</time></trkpt><trkpt lat="43.31877883620907" lon="11.571934311877442"><ele>205.0</ele><time>2026-05-03T15:45:34Z</time></trkpt><trkpt lat="43.31860925815051" lon="11.572088001820498"><ele>206.0</ele><time>2026-05-03T15:45:35Z</time></trkpt><trkpt lat="43.31844117257544" lon="11.572244874336656"><ele>207.0</ele><time>2026-05-03T15:45:36Z</time></trkpt><trkpt lat="43.31826970406331" lon="11.572400633727609"><ele>207.0</ele><time>2026-05-03T15:45:37Z</time></trkpt><trkpt lat="43.318097524038755" lon="11.572556239450032"><ele>207.0</ele><time>2026-05-03T15:45:38Z</time></trkpt><trkpt lat="43.31792231329561" lon="11.57270757074856"><ele>207.0</ele><time>2026-05-03T15:45:39Z</time></trkpt><trkpt lat="43.31775427530749" lon="11.572867589272423"><ele>207.66666666666669</ele><time>2026-05-03T15:45:40Z</time></trkpt><trkpt lat="43.31759281306758" lon="11.57303041883215"><ele>208.33333333333334</ele><time>2026-05-03T15:45:41Z</time></trkpt><trkpt lat="43.317432640518774" lon="11.573192534967705"><ele>209.0</ele><time>2026-05-03T15:45:42Z</time></trkpt><trkpt lat="43.3172727064325" lon="11.57335230403405"><ele>209.33333333333334</ele><time>2026-05-03T15:45:43Z</time></trkpt><trkpt lat="43.31712239703192" lon="11.573508398364563"><ele>209.66666666666669</ele><time>2026-05-03T15:45:44Z</time></trkpt><trkpt lat="43.31697409237089" lon="11.57367004838924"><ele>210.0</ele><time>2026-05-03T15:45:45Z</time></trkpt><trkpt lat="43.31682158089758" lon="11.57385226789325"><ele>210.0</ele><time>2026-05-03T15:45:46Z</time></trkpt><trkpt lat="43.316664201945464" lon="11.574048639632492"><ele>210.0</ele><time>2026-05-03T15:45:47Z</time></trkpt><trkpt lat="43.31649356835014" lon="11.574240862831326"><ele>210.0</ele><time>2026-05-03T15:45:48Z</time></trkpt><trkpt lat="43.31632145482081" lon="11.574451893870572"><ele>207.5</ele><time>2026-05-03T15:45:49Z</time></trkpt><trkpt lat="43.31614387339091" lon="11.574668478649073"><ele>205.0</ele><time>2026-05-03T15:45:50Z</time></trkpt><trkpt lat="43.31596060012482" lon="11.574898120684614"><ele>205.0</ele><time>2026-05-03T15:45:51Z</time></trkpt><trkpt lat="43.31577366057087" lon="11.575132857011743"><ele>205.0</ele><time>2026-05-03T15:45:52Z</time></trkpt><trkpt lat="43.315588132550026" lon="11.575368925511105"><ele>203.5</ele><time>2026-05-03T15:45:53Z</time></trkpt><trkpt lat="43.315407319359146" lon="11.575605336343889"><ele>202.0</ele><time>2026-05-03T15:45:54Z</time></trkpt><trkpt lat="43.315227057096884" lon="11.575848593170395"><ele>202.0</ele><time>2026-05-03T15:45:55Z</time></trkpt><trkpt lat="43.31505278747487" lon="11.576082591740859"><ele>202.0</ele><time>2026-05-03T15:45:56Z</time></trkpt><trkpt lat="43.31488617071337" lon="11.576322590797337"><ele>201.0</ele><time>2026-05-03T15:45:57Z</time></trkpt><trkpt lat="43.3147226303844" lon="11.576561582424384"><ele>200.0</ele><time>2026-05-03T15:45:58Z</time></trkpt><trkpt lat="43.314561256216116" lon="11.576800061525491"><ele>200.0</ele><time>2026-05-03T15:45:59Z</time></trkpt><trkpt lat="43.31439321016999" lon="11.577040726276767"><ele>200.0</ele><time>2026-05-03T15:46:00Z</time></trkpt><trkpt lat="43.314224137377735" lon="11.57728217869295"><ele>200.0</ele><time>2026-05-03T15:46:01Z</time></trkpt><trkpt lat="43.31405727341279" lon="11.57752143646416"><ele>200.0</ele><time>2026-05-03T15:46:02Z</time></trkpt><trkpt lat="43.31389581788058" lon="11.577760302940934"><ele>201.0</ele><time>2026-05-03T15:46:03Z</time></trkpt><trkpt lat="43.31373465355372" lon="11.577993894055473"><ele>202.0</ele><time>2026-05-03T15:46:04Z</time></trkpt><trkpt lat="43.31356793086698" lon="11.5782245731772"><ele>202.0</ele><time>2026-05-03T15:46:05Z</time></trkpt><trkpt lat="43.31340539026042" lon="11.57844432977238"><ele>202.0</ele><time>2026-05-03T15:46:06Z</time></trkpt><trkpt lat="43.313235148854545" lon="11.578661777752474"><ele>204.0</ele><time>2026-05-03T15:46:07Z</time></trkpt><trkpt lat="43.313061173316406" lon="11.578876697322654"><ele>206.0</ele><time>2026-05-03T15:46:08Z</time></trkpt><trkpt lat="43.3128826931537" lon="11.579083858737317"><ele>206.0</ele><time>2026-05-03T15:46:09Z</time></trkpt><trkpt lat="43.312703073704114" lon="11.57928529869595"><ele>206.0</ele><time>2026-05-03T15:46:10Z</time></trkpt><trkpt lat="43.31252251408503" lon="11.579486745336546"><ele>206.5</ele><time>2026-05-03T15:46:11Z</time></trkpt><trkpt lat="43.312341262267445" lon="11.579691534207445"><ele>207.0</ele><time>2026-05-03T15:46:12Z</time></trkpt><trkpt lat="43.31215945716063" lon="11.57989355664868"><ele>207.0</ele><time>2026-05-03T15:46:13Z</time></trkpt><trkpt lat="43.31197840403964" lon="11.580095502613915"><ele>207.0</ele><time>2026-05-03T15:46:14Z</time></trkpt><trkpt lat="43.31180012782516" lon="11.58030004892254"><ele>210.5</ele><time>2026-05-03T15:46:15Z</time></trkpt><trkpt lat="43.31162279943266" lon="11.58051579743574"><ele>214.0</ele><time>2026-05-03T15:46:16Z</time></trkpt><trkpt lat="43.31144980537165" lon="11.580744221662764"><ele>215.0</ele><time>2026-05-03T15:46:17Z</time></trkpt><trkpt lat="43.3112944349281" lon="11.580981532097457"><ele>216.0</ele><time>2026-05-03T15:46:18Z</time></trkpt><trkpt lat="43.311142729749314" lon="11.58125146399892"><ele>216.0</ele><time>2026-05-03T15:46:19Z</time></trkpt><trkpt lat="43.310999459674306" lon="11.581531470466683"><ele>216.0</ele><time>2026-05-03T15:46:20Z</time></trkpt><trkpt lat="43.310868095422165" lon="11.581827078192275"><ele>220.5</ele><time>2026-05-03T15:46:21Z</time></trkpt><trkpt lat="43.31074877628178" lon="11.582136112313284"><ele>225.0</ele><time>2026-05-03T15:46:22Z</time></trkpt><trkpt lat="43.310629037177875" lon="11.582450698650936"><ele>222.0</ele><time>2026-05-03T15:46:23Z</time></trkpt><trkpt lat="43.310507593417036" lon="11.582759511252974"><ele>219.0</ele><time>2026-05-03T15:46:24Z</time></trkpt><trkpt lat="43.31038434673884" lon="11.583067731009063"><ele>219.0</ele><time>2026-05-03T15:46:25Z</time></trkpt><trkpt lat="43.31026525459525" lon="11.583374630647757"><ele>219.0</ele><time>2026-05-03T15:46:26Z</time></trkpt><trkpt lat="43.31014533159006" lon="11.583684583186736"><ele>221.5</ele><time>2026-05-03T15:46:27Z</time></trkpt><trkpt lat="43.31002826576461" lon="11.5839947148911"><ele>224.0</ele><time>2026-05-03T15:46:28Z</time></trkpt><trkpt lat="43.30990203136449" lon="11.584309693805046"><ele>224.0</ele><time>2026-05-03T15:46:29Z</time></trkpt><trkpt lat="43.30976383211695" lon="11.584623958447388"><ele>224.0</ele><time>2026-05-03T15:46:30Z</time></trkpt><trkpt lat="43.309615258193766" lon="11.584935811758653"><ele>223.0</ele><time>2026-05-03T15:46:31Z</time></trkpt><trkpt lat="43.309450845056084" lon="11.585240294339954"><ele>222.0</ele><time>2026-05-03T15:46:32Z</time></trkpt><trkpt lat="43.30927965415765" lon="11.585535510238838"><ele>220.5</ele><time>2026-05-03T15:46:33Z</time></trkpt><trkpt lat="43.30910399191449" lon="11.585815117101108"><ele>219.0</ele><time>2026-05-03T15:46:34Z</time></trkpt><trkpt lat="43.30891734702911" lon="11.586082848929014"><ele>217.0</ele><time>2026-05-03T15:46:35Z</time></trkpt><trkpt lat="43.308714073606424" lon="11.586341061601063"><ele>215.0</ele><time>2026-05-03T15:46:36Z</time></trkpt><trkpt lat="43.30850839188253" lon="11.586582057377573"><ele>215.0</ele><time>2026-05-03T15:46:37Z</time></trkpt><trkpt lat="43.30829734790213" lon="11.58681637768859"><ele>215.0</ele><time>2026-05-03T15:46:38Z</time></trkpt><trkpt lat="43.30808266985747" lon="11.587034072310427"><ele>215.0</ele><time>2026-05-03T15:46:39Z</time></trkpt><trkpt lat="43.307872293752304" lon="11.58724041719749"><ele>215.0</ele><time>2026-05-03T15:46:40Z</time></trkpt><trkpt lat="43.30766879774146" lon="11.5874468610412"><ele>215.0</ele><time>2026-05-03T15:46:41Z</time></trkpt><trkpt lat="43.30746462754713" lon="11.587649547030118"><ele>215.0</ele><time>2026-05-03T15:46:42Z</time></trkpt><trkpt lat="43.30726240168311" lon="11.587851801930364"><ele>219.5</ele><time>2026-05-03T15:46:43Z</time></trkpt><trkpt lat="43.30705906989647" lon="11.588050680097416"><ele>224.0</ele><time>2026-05-03T15:46:44Z</time></trkpt><trkpt lat="43.306853494169516" lon="11.588253374102749"><ele>224.0</ele><time>2026-05-03T15:46:45Z</time></trkpt><trkpt lat="43.30664898611033" lon="11.588460107255944"><ele>224.0</ele><time>2026-05-03T15:46:46Z</time></trkpt><trkpt lat="43.30645204785848" lon="11.588678134635833"><ele>222.5</ele><time>2026-05-03T15:46:47Z</time></trkpt><trkpt lat="43.3062648563286" lon="11.588915746055047"><ele>221.0</ele><time>2026-05-03T15:46:48Z</time></trkpt><trkpt lat="43.30608180492583" lon="11.589168532661706"><ele>221.0</ele><time>2026-05-03T15:46:49Z</time></trkpt><trkpt lat="43.305902657242356" lon="11.589424608387048"><ele>221.0</ele><time>2026-05-03T15:46:50Z</time></trkpt><trkpt lat="43.30573304671402" lon="11.589690462540146"><ele>219.0</ele><time>2026-05-03T15:46:51Z</time></trkpt><trkpt lat="43.30557128783979" lon="11.58997238820857"><ele>217.0</ele><time>2026-05-03T15:46:52Z</time></trkpt><trkpt lat="43.30541676780442" lon="11.590261435799563"><ele>221.0</ele><time>2026-05-03T15:46:53Z</time></trkpt><trkpt lat="43.30527266453875" lon="11.590561647638959"><ele>225.0</ele><time>2026-05-03T15:46:54Z</time></trkpt><trkpt lat="43.305141807489726" lon="11.590872338373961"><ele>227.5</ele><time>2026-05-03T15:46:55Z</time></trkpt><trkpt lat="43.30501515236282" lon="11.591187285024773"><ele>230.0</ele><time>2026-05-03T15:46:56Z</time></trkpt><trkpt lat="43.30488992941384" lon="11.591498644027304"><ele>230.0</ele><time>2026-05-03T15:46:57Z</time></trkpt><trkpt lat="43.30476675557265" lon="11.591812036830163"><ele>230.0</ele><time>2026-05-03T15:46:58Z</time></trkpt><trkpt lat="43.30464179507117" lon="11.592126337167254"><ele>236.0</ele><time>2026-05-03T15:46:59Z</time></trkpt><trkpt lat="43.30452008275297" lon="11.592436372362252"><ele>242.0</ele><time>2026-05-03T15:47:00Z</time></trkpt><trkpt lat="43.304395951396515" lon="11.592738147450307"><ele>246.0</ele><time>2026-05-03T15:47:01Z</time></trkpt><trkpt lat="43.30427556271642" lon="11.593033123864075"><ele>250.0</ele><time>2026-05-03T15:47:02Z</time></trkpt><trkpt lat="43.304158513807884" lon="11.593328710461435"><ele>250.0</ele><time>2026-05-03T15:47:03Z</time></trkpt><trkpt lat="43.304043235080115" lon="11.593614255646024"><ele>250.0</ele><time>2026-05-03T15:47:04Z</time></trkpt><trkpt lat="43.303928841151155" lon="11.593903282469878"><ele>246.5</ele><time>2026-05-03T15:47:05Z</time></trkpt><trkpt lat="43.30381498995359" lon="11.59418834733284"><ele>243.0</ele><time>2026-05-03T15:47:06Z</time></trkpt><trkpt lat="43.303696829496225" lon="11.594472635902422"><ele>245.0</ele><time>2026-05-03T15:47:07Z</time></trkpt><trkpt lat="43.30358790663722" lon="11.594759858758092"><ele>247.0</ele><time>2026-05-03T15:47:08Z</time></trkpt><trkpt lat="43.30348180566471" lon="11.595044305167663"><ele>247.0</ele><time>2026-05-03T15:47:09Z</time></trkpt><trkpt lat="43.30336740126289" lon="11.595328223281568"><ele>247.0</ele><time>2026-05-03T15:47:10Z</time></trkpt><trkpt lat="43.30324943447589" lon="11.595607750818408"><ele>247.5</ele><time>2026-05-03T15:47:11Z</time></trkpt><trkpt lat="43.303126204606116" lon="11.595881119034175"><ele>248.0</ele><time>2026-05-03T15:47:12Z</time></trkpt><trkpt lat="43.30299229339973" lon="11.596141883264066"><ele>250.5</ele><time>2026-05-03T15:47:13Z</time></trkpt><trkpt lat="43.302844756663326" lon="11.59640465156596"><ele>253.0</ele><time>2026-05-03T15:47:14Z</time></trkpt><trkpt lat="43.30268937030952" lon="11.596653174071784"><ele>253.0</ele><time>2026-05-03T15:47:15Z</time></trkpt><trkpt lat="43.302523380710646" lon="11.59689382437054"><ele>253.0</ele><time>2026-05-03T15:47:16Z</time></trkpt><trkpt lat="43.30234991943192" lon="11.59711658760344"><ele>257.5</ele><time>2026-05-03T15:47:17Z</time></trkpt><trkpt lat="43.30216188369861" lon="11.597324381890234"><ele>262.0</ele><time>2026-05-03T15:47:18Z</time></trkpt><trkpt lat="43.30197320727962" lon="11.59752700280368"><ele>262.0</ele><time>2026-05-03T15:47:19Z</time></trkpt><trkpt lat="43.30176886273919" lon="11.597712712233317"><ele>262.0</ele><time>2026-05-03T15:47:20Z</time></trkpt><trkpt lat="43.30155711607432" lon="11.597889204104067"><ele>268.5</ele><time>2026-05-03T15:47:21Z</time></trkpt><trkpt lat="43.30134610137711" lon="11.598061711297502"><ele>275.0</ele><time>2026-05-03T15:47:22Z</time></trkpt><trkpt lat="43.30113404745379" lon="11.598236332666579"><ele>275.0</ele><time>2026-05-03T15:47:23Z</time></trkpt><trkpt lat="43.30092045409849" lon="11.598405204363198"><ele>275.0</ele><time>2026-05-03T15:47:24Z</time></trkpt><trkpt lat="43.30071138179004" lon="11.598571124617203"><ele>279.5</ele><time>2026-05-03T15:47:25Z</time></trkpt><trkpt lat="43.30050946995832" lon="11.598733708889965"><ele>284.0</ele><time>2026-05-03T15:47:26Z</time></trkpt><trkpt lat="43.30030751269981" lon="11.598896403219706"><ele>284.0</ele><time>2026-05-03T15:47:27.022Z</time></trkpt><trkpt lat="43.30011311371031" lon="11.599050869728421"><ele>284.0</ele><time>2026-05-03T15:47:28.022Z</time></trkpt><trkpt lat="43.29992091852041" lon="11.599204294164013"><ele>284.0</ele><time>2026-05-03T15:47:29.022Z</time></trkpt><trkpt lat="43.2997320172833" lon="11.599359140722719"><ele>283.0</ele><time>2026-05-03T15:47:30.021Z</time></trkpt><trkpt lat="43.29954388514922" lon="11.599510518618713"><ele>282.0</ele><time>2026-05-03T15:47:31.022Z</time></trkpt><trkpt lat="43.29879191708127" lon="11.600195411603526"><ele>285.0</ele><time>2026-05-03T15:47:35Z</time></trkpt><trkpt lat="43.29859804945471" lon="11.600370420739067"><ele>288.0</ele><time>2026-05-03T15:47:36Z</time></trkpt><trkpt lat="43.29839208754917" lon="11.600557909359393"><ele>288.0</ele><time>2026-05-03T15:47:37Z</time></trkpt><trkpt lat="43.29820763095503" lon="11.600747845181433"><ele>288.0</ele><time>2026-05-03T15:47:38Z</time></trkpt><trkpt lat="43.298021655121524" lon="11.600949147439897"><ele>290.5</ele><time>2026-05-03T15:47:39Z</time></trkpt><trkpt lat="43.29783637194078" lon="11.601159850830335"><ele>293.0</ele><time>2026-05-03T15:47:40Z</time></trkpt><trkpt lat="43.2976386767198" lon="11.601393022502542"><ele>293.0</ele><time>2026-05-03T15:47:41Z</time></trkpt><trkpt lat="43.29745458050934" lon="11.601624592486528"><ele>293.0</ele><time>2026-05-03T15:47:42Z</time></trkpt><trkpt lat="43.297271056696566" lon="11.601858742176312"><ele>295.5</ele><time>2026-05-03T15:47:43Z</time></trkpt><trkpt lat="43.29708912243968" lon="11.602103935385559"><ele>298.0</ele><time>2026-05-03T15:47:44Z</time></trkpt><trkpt lat="43.29690924973435" lon="11.602351358587836"><ele>298.0</ele><time>2026-05-03T15:47:45Z</time></trkpt><trkpt lat="43.296733450686204" lon="11.602603368977473"><ele>298.0</ele><time>2026-05-03T15:47:46Z</time></trkpt><trkpt lat="43.296558922229785" lon="11.602857153784372"><ele>299.5</ele><time>2026-05-03T15:47:47Z</time></trkpt><trkpt lat="43.29639767133841" lon="11.603112797656864"><ele>301.0</ele><time>2026-05-03T15:47:48Z</time></trkpt><trkpt lat="43.2962428398526" lon="11.603364393325304"><ele>301.0</ele><time>2026-05-03T15:47:49Z</time></trkpt><trkpt lat="43.29609031318885" lon="11.603617567874961"><ele>301.0</ele><time>2026-05-03T15:47:50Z</time></trkpt><trkpt lat="43.29593733284294" lon="11.603863054630256"><ele>301.5</ele><time>2026-05-03T15:47:51Z</time></trkpt><trkpt lat="43.29578078512545" lon="11.604110442107228"><ele>302.0</ele><time>2026-05-03T15:47:52Z</time></trkpt><trkpt lat="43.29562543470897" lon="11.6043634584657"><ele>302.5</ele><time>2026-05-03T15:47:53Z</time></trkpt><trkpt lat="43.29547155281683" lon="11.604618809883323"><ele>303.0</ele><time>2026-05-03T15:47:54Z</time></trkpt><trkpt lat="43.295309880944416" lon="11.604873484468534"><ele>303.0</ele><time>2026-05-03T15:47:55Z</time></trkpt><trkpt lat="43.2951487592783" lon="11.605132736432125"><ele>303.0</ele><time>2026-05-03T15:47:56Z</time></trkpt><trkpt lat="43.294984102079425" lon="11.605396109622058"><ele>303.0</ele><time>2026-05-03T15:47:57Z</time></trkpt><trkpt lat="43.29481347728273" lon="11.6056676501621"><ele>303.0</ele><time>2026-05-03T15:47:58Z</time></trkpt><trkpt lat="43.29464399071405" lon="11.605942220203026"><ele>303.5</ele><time>2026-05-03T15:47:59Z</time></trkpt><trkpt lat="43.29446955421939" lon="11.606225038720076"><ele>304.0</ele><time>2026-05-03T15:48:00Z</time></trkpt><trkpt lat="43.29429359515972" lon="11.606508261106933"><ele>304.0</ele><time>2026-05-03T15:48:01Z</time></trkpt><trkpt lat="43.29412161119937" lon="11.606786282982544"><ele>304.0</ele><time>2026-05-03T15:48:02Z</time></trkpt><trkpt lat="43.293949231467884" lon="11.607061279332223"><ele>305.0</ele><time>2026-05-03T15:48:03Z</time></trkpt><trkpt lat="43.2937801026506" lon="11.607334269633538"><ele>306.0</ele><time>2026-05-03T15:48:04Z</time></trkpt><trkpt lat="43.29361400063881" lon="11.607604343057465"><ele>307.0</ele><time>2026-05-03T15:48:05Z</time></trkpt><trkpt lat="43.293447633812555" lon="11.607874027836848"><ele>308.0</ele><time>2026-05-03T15:48:06Z</time></trkpt><trkpt lat="43.29327958263978" lon="11.608143866833304"><ele>308.0</ele><time>2026-05-03T15:48:07Z</time></trkpt><trkpt lat="43.29311461340598" lon="11.608409609182262"><ele>308.0</ele><time>2026-05-03T15:48:08Z</time></trkpt><trkpt lat="43.29294778373347" lon="11.608677369080263"><ele>309.0</ele><time>2026-05-03T15:48:09Z</time></trkpt><trkpt lat="43.2927881245266" lon="11.60894804389929"><ele>310.0</ele><time>2026-05-03T15:48:10Z</time></trkpt><trkpt lat="43.292622824658615" lon="11.60922237783049"><ele>312.5</ele><time>2026-05-03T15:48:11Z</time></trkpt><trkpt lat="43.29245410815987" lon="11.609497691082"><ele>315.0</ele><time>2026-05-03T15:48:12Z</time></trkpt><trkpt lat="43.292286352033116" lon="11.609771465318437"><ele>312.5</ele><time>2026-05-03T15:48:13Z</time></trkpt><trkpt lat="43.29211298366993" lon="11.610044117570714"><ele>310.0</ele><time>2026-05-03T15:48:14Z</time></trkpt><trkpt lat="43.291941435711195" lon="11.610315648936872"><ele>312.5</ele><time>2026-05-03T15:48:15Z</time></trkpt><trkpt lat="43.29176552407088" lon="11.610592450296057"><ele>315.0</ele><time>2026-05-03T15:48:16Z</time></trkpt><trkpt lat="43.29159082705001" lon="11.610874371407684"><ele>314.0</ele><time>2026-05-03T15:48:17Z</time></trkpt><trkpt lat="43.291417441814644" lon="11.611153321225052"><ele>313.0</ele><time>2026-05-03T15:48:18Z</time></trkpt><trkpt lat="43.2912418443281" lon="11.611435365827857"><ele>313.0</ele><time>2026-05-03T15:48:19Z</time></trkpt><trkpt lat="43.29107049476906" lon="11.611718505113496"><ele>313.0</ele><time>2026-05-03T15:48:20Z</time></trkpt><trkpt lat="43.290898290425964" lon="11.612005234993614"><ele>314.0</ele><time>2026-05-03T15:48:21Z</time></trkpt><trkpt lat="43.29073173165426" lon="11.612290635810362"><ele>315.0</ele><time>2026-05-03T15:48:22Z</time></trkpt><trkpt lat="43.29057498921979" lon="11.612579952716084"><ele>314.0</ele><time>2026-05-03T15:48:23Z</time></trkpt><trkpt lat="43.29042504271841" lon="11.612881641926608"><ele>313.0</ele><time>2026-05-03T15:48:24Z</time></trkpt><trkpt lat="43.29028154659591" lon="11.61319631543654"><ele>313.0</ele><time>2026-05-03T15:48:25Z</time></trkpt><trkpt lat="43.290152710616745" lon="11.613519236891952"><ele>313.0</ele><time>2026-05-03T15:48:26Z</time></trkpt><trkpt lat="43.290030934744564" lon="11.613851897958794"><ele>313.0</ele><time>2026-05-03T15:48:27Z</time></trkpt><trkpt lat="43.2899171401386" lon="11.614192405400772"><ele>313.0</ele><time>2026-05-03T15:48:28Z</time></trkpt><trkpt lat="43.289813739788684" lon="11.614541602890217"><ele>320.5</ele><time>2026-05-03T15:48:29Z</time></trkpt><trkpt lat="43.289727787747395" lon="11.61490005562829"><ele>328.0</ele><time>2026-05-03T15:48:30Z</time></trkpt><trkpt lat="43.2896527747724" lon="11.61526332322631"><ele>332.0</ele><time>2026-05-03T15:48:31Z</time></trkpt><trkpt lat="43.28958598934676" lon="11.615621630551807"><ele>336.0</ele><time>2026-05-03T15:48:32Z</time></trkpt><trkpt lat="43.28953043073679" lon="11.615969856736728"><ele>340.5</ele><time>2026-05-03T15:48:33Z</time></trkpt><trkpt lat="43.28948597647555" lon="11.616314117716772"><ele>345.0</ele><time>2026-05-03T15:48:34Z</time></trkpt><trkpt lat="43.2894474260524" lon="11.616649873975144"><ele>345.0</ele><time>2026-05-03T15:48:35Z</time></trkpt><trkpt lat="43.289413496488706" lon="11.616979834855135"><ele>345.0</ele><time>2026-05-03T15:48:36Z</time></trkpt><trkpt lat="43.28938281693705" lon="11.617300886691647"><ele>344.5</ele><time>2026-05-03T15:48:37Z</time></trkpt><trkpt lat="43.28935119589997" lon="11.617620460518259"><ele>344.0</ele><time>2026-05-03T15:48:38Z</time></trkpt><trkpt lat="43.28932104153633" lon="11.617941130150522"><ele>341.0</ele><time>2026-05-03T15:48:39Z</time></trkpt><trkpt lat="43.28928957101911" lon="11.618264940921078"><ele>338.0</ele><time>2026-05-03T15:48:40Z</time></trkpt><trkpt lat="43.289259013396276" lon="11.618588662497977"><ele>335.0</ele><time>2026-05-03T15:48:41Z</time></trkpt><trkpt lat="43.28922445786817" lon="11.6189146756477"><ele>332.0</ele><time>2026-05-03T15:48:42Z</time></trkpt><trkpt lat="43.28918190720764" lon="11.619245365865225"><ele>327.5</ele><time>2026-05-03T15:48:43Z</time></trkpt><trkpt lat="43.28913673267586" lon="11.619572936329465"><ele>323.0</ele><time>2026-05-03T15:48:44Z</time></trkpt><trkpt lat="43.28907796484784" lon="11.619906506309183"><ele>323.0</ele><time>2026-05-03T15:48:45Z</time></trkpt><trkpt lat="43.28900592872463" lon="11.620240059925559"><ele>323.0</ele><time>2026-05-03T15:48:46Z</time></trkpt><trkpt lat="43.2889205076293" lon="11.620581355961605"><ele>329.5</ele><time>2026-05-03T15:48:47Z</time></trkpt><trkpt lat="43.28882967226726" lon="11.620901273532386"><ele>336.0</ele><time>2026-05-03T15:48:48Z</time></trkpt><trkpt lat="43.28872641420867" lon="11.621218911299712"><ele>336.0</ele><time>2026-05-03T15:48:49Z</time></trkpt><trkpt lat="43.28860303577119" lon="11.621529910557955"><ele>336.0</ele><time>2026-05-03T15:48:50Z</time></trkpt><trkpt lat="43.288472573360245" lon="11.621834952072204"><ele>329.0</ele><time>2026-05-03T15:48:51Z</time></trkpt><trkpt lat="43.28833000655686" lon="11.622128574520403"><ele>322.0</ele><time>2026-05-03T15:48:52Z</time></trkpt><trkpt lat="43.28817805568307" lon="11.62241513427048"><ele>321.5</ele><time>2026-05-03T15:48:53Z</time></trkpt><trkpt lat="43.28801173856592" lon="11.622695104042643"><ele>321.0</ele><time>2026-05-03T15:48:54Z</time></trkpt><trkpt lat="43.28783893573102" lon="11.622966393975124"><ele>321.0</ele><time>2026-05-03T15:48:55Z</time></trkpt><trkpt lat="43.28765424087438" lon="11.623220384711507"><ele>321.0</ele><time>2026-05-03T15:48:56Z</time></trkpt><trkpt lat="43.28745828460194" lon="11.623461687414574"><ele>324.0</ele><time>2026-05-03T15:48:57Z</time></trkpt><trkpt lat="43.287255188311164" lon="11.623685379111816"><ele>327.0</ele><time>2026-05-03T15:48:58Z</time></trkpt><trkpt lat="43.28704568811942" lon="11.62389926825469"><ele>327.0</ele><time>2026-05-03T15:48:59Z</time></trkpt><trkpt lat="43.28683014050829" lon="11.624109144008665"><ele>327.0</ele><time>2026-05-03T15:49:00Z</time></trkpt><trkpt lat="43.286610821693856" lon="11.624304211712285"><ele>324.0</ele><time>2026-05-03T15:49:01Z</time></trkpt><trkpt lat="43.286390200009144" lon="11.624497118125065"><ele>321.0</ele><time>2026-05-03T15:49:02Z</time></trkpt><trkpt lat="43.28616926580626" lon="11.624685187020969"><ele>321.0</ele><time>2026-05-03T15:49:03Z</time></trkpt><trkpt lat="43.28594380054584" lon="11.624874731885178"><ele>321.0</ele><time>2026-05-03T15:49:04Z</time></trkpt><trkpt lat="43.28571769270609" lon="11.625064611920234"><ele>322.5</ele><time>2026-05-03T15:49:05Z</time></trkpt><trkpt lat="43.285491382368214" lon="11.625250618436045"><ele>324.0</ele><time>2026-05-03T15:49:06Z</time></trkpt><trkpt lat="43.28526952093734" lon="11.62543225637607"><ele>320.0</ele><time>2026-05-03T15:49:07Z</time></trkpt><trkpt lat="43.2850463003898" lon="11.625612656411834"><ele>316.0</ele><time>2026-05-03T15:49:08Z</time></trkpt><trkpt lat="43.28482490646386" lon="11.62579440328666"><ele>315.5</ele><time>2026-05-03T15:49:09Z</time></trkpt><trkpt lat="43.28460476870977" lon="11.62597704987007"><ele>315.0</ele><time>2026-05-03T15:49:10Z</time></trkpt><trkpt lat="43.2843835347923" lon="11.626160638286281"><ele>315.0</ele><time>2026-05-03T15:49:11Z</time></trkpt><trkpt lat="43.284161999694085" lon="11.626347953326638"><ele>315.0</ele><time>2026-05-03T15:49:12Z</time></trkpt><trkpt lat="43.28393897314145" lon="11.626529989147881"><ele>317.5</ele><time>2026-05-03T15:49:13Z</time></trkpt><trkpt lat="43.283715406002635" lon="11.626709335404383"><ele>320.0</ele><time>2026-05-03T15:49:14Z</time></trkpt><trkpt lat="43.283486827998196" lon="11.626881913597705"><ele>317.5</ele><time>2026-05-03T15:49:15Z</time></trkpt><trkpt lat="43.28325718618528" lon="11.62704942346496"><ele>315.0</ele><time>2026-05-03T15:49:16Z</time></trkpt><trkpt lat="43.28302494096163" lon="11.627213733444027"><ele>320.0</ele><time>2026-05-03T15:49:17Z</time></trkpt><trkpt lat="43.28279230609354" lon="11.62737478324078"><ele>325.0</ele><time>2026-05-03T15:49:18Z</time></trkpt><trkpt lat="43.28256145307556" lon="11.627526503348754"><ele>325.0</ele><time>2026-05-03T15:49:19Z</time></trkpt><trkpt lat="43.2823326955639" lon="11.627671993716715"><ele>325.0</ele><time>2026-05-03T15:49:20Z</time></trkpt><trkpt lat="43.28210257370263" lon="11.627811744870327"><ele>329.5</ele><time>2026-05-03T15:49:21Z</time></trkpt><trkpt lat="43.28187226590648" lon="11.627947211757867"><ele>334.0</ele><time>2026-05-03T15:49:22Z</time></trkpt><trkpt lat="43.28164217462115" lon="11.628075766468639"><ele>338.0</ele><time>2026-05-03T15:49:23Z</time></trkpt><trkpt lat="43.281408007549345" lon="11.628195390028223"><ele>342.0</ele><time>2026-05-03T15:49:24Z</time></trkpt><trkpt lat="43.281170212956184" lon="11.628308736097505"><ele>342.0</ele><time>2026-05-03T15:49:25Z</time></trkpt><trkpt lat="43.28093207170774" lon="11.628419652468105"><ele>342.0</ele><time>2026-05-03T15:49:26Z</time></trkpt><trkpt lat="43.28069175989532" lon="11.628526010746924"><ele>342.0</ele><time>2026-05-03T15:49:27Z</time></trkpt><trkpt lat="43.28044484217139" lon="11.628630882159841"><ele>342.0</ele><time>2026-05-03T15:49:28Z</time></trkpt><trkpt lat="43.28019209734972" lon="11.628725136297222"><ele>342.0</ele><time>2026-05-03T15:49:29Z</time></trkpt><trkpt lat="43.27993284650043" lon="11.62881236018725"><ele>342.0</ele><time>2026-05-03T15:49:30Z</time></trkpt><trkpt lat="43.27967027365584" lon="11.628890499487715"><ele>341.0</ele><time>2026-05-03T15:49:31Z</time></trkpt><trkpt lat="43.2794100374922" lon="11.62896176908932"><ele>340.0</ele><time>2026-05-03T15:49:32Z</time></trkpt><trkpt lat="43.27915344817624" lon="11.629024340575754"><ele>339.0</ele><time>2026-05-03T15:49:33Z</time></trkpt><trkpt lat="43.27889534293573" lon="11.629082309758319"><ele>338.0</ele><time>2026-05-03T15:49:34Z</time></trkpt><trkpt lat="43.278635617907256" lon="11.629136801855756"><ele>338.0</ele><time>2026-05-03T15:49:35Z</time></trkpt><trkpt lat="43.27837623361026" lon="11.629184942520347"><ele>338.0</ele><time>2026-05-03T15:49:36Z</time></trkpt><trkpt lat="43.27811850032259" lon="11.629223356467026"><ele>336.5</ele><time>2026-05-03T15:49:37Z</time></trkpt><trkpt lat="43.27786071480738" lon="11.629251019362993"><ele>335.0</ele><time>2026-05-03T15:49:38Z</time></trkpt><trkpt lat="43.277601146825845" lon="11.629270263976114"><ele>335.0</ele><time>2026-05-03T15:49:39Z</time></trkpt><trkpt lat="43.277337695102794" lon="11.629284536564768"><ele>335.0</ele><time>2026-05-03T15:49:40Z</time></trkpt><trkpt lat="43.277079832141474" lon="11.629295434781437"><ele>334.0</ele><time>2026-05-03T15:49:41Z</time></trkpt><trkpt lat="43.276822750933164" lon="11.629296329044196"><ele>333.0</ele><time>2026-05-03T15:49:42Z</time></trkpt><trkpt lat="43.276563644935486" lon="11.629289487139474"><ele>329.0</ele><time>2026-05-03T15:49:43Z</time></trkpt><trkpt lat="43.276303578195616" lon="11.629282294486364"><ele>325.0</ele><time>2026-05-03T15:49:44Z</time></trkpt><trkpt lat="43.27604458786719" lon="11.629275524360263"><ele>325.0</ele><time>2026-05-03T15:49:45Z</time></trkpt><trkpt lat="43.27578561682534" lon="11.629270422705966"><ele>325.0</ele><time>2026-05-03T15:49:46Z</time></trkpt><trkpt lat="43.275524395729754" lon="11.629264215311188"><ele>323.0</ele><time>2026-05-03T15:49:47Z</time></trkpt><trkpt lat="43.27526601113097" lon="11.629255810431703"><ele>321.0</ele><time>2026-05-03T15:49:48Z</time></trkpt><trkpt lat="43.275008270351265" lon="11.629251490651477"><ele>318.0</ele><time>2026-05-03T15:49:49Z</time></trkpt><trkpt lat="43.274752290335464" lon="11.629245370287196"><ele>315.0</ele><time>2026-05-03T15:49:50Z</time></trkpt><trkpt lat="43.27449554659927" lon="11.629233032609177"><ele>315.0</ele><time>2026-05-03T15:49:51Z</time></trkpt><trkpt lat="43.27423955024969" lon="11.629224491952858"><ele>315.0</ele><time>2026-05-03T15:49:52Z</time></trkpt><trkpt lat="43.27398607241637" lon="11.629217859040008"><ele>312.5</ele><time>2026-05-03T15:49:53Z</time></trkpt><trkpt lat="43.27373076223216" lon="11.629208081505071"><ele>310.0</ele><time>2026-05-03T15:49:54Z</time></trkpt><trkpt lat="43.27347639882474" lon="11.629203982703352"><ele>310.0</ele><time>2026-05-03T15:49:55Z</time></trkpt><trkpt lat="43.27321892933582" lon="11.629191738154915"><ele>310.0</ele><time>2026-05-03T15:49:56Z</time></trkpt><trkpt lat="43.27295991682203" lon="11.629182941654378"><ele>308.5</ele><time>2026-05-03T15:49:57Z</time></trkpt><trkpt lat="43.27270258113548" lon="11.62917762611135"><ele>307.0</ele><time>2026-05-03T15:49:58Z</time></trkpt><trkpt lat="43.27244630779082" lon="11.629173615187353"><ele>306.5</ele><time>2026-05-03T15:49:59Z</time></trkpt><trkpt lat="43.27218758438455" lon="11.62916992194201"><ele>306.0</ele><time>2026-05-03T15:50:00Z</time></trkpt><trkpt lat="43.271928832224006" lon="11.629159353042"><ele>306.0</ele><time>2026-05-03T15:50:01Z</time></trkpt><trkpt lat="43.27167128656511" lon="11.629155645126547"><ele>306.0</ele><time>2026-05-03T15:50:02Z</time></trkpt><trkpt lat="43.27141402939452" lon="11.629148956004382"><ele>304.5</ele><time>2026-05-03T15:50:03Z</time></trkpt><trkpt lat="43.27115493660644" lon="11.629140189428176"><ele>303.0</ele><time>2026-05-03T15:50:04Z</time></trkpt><trkpt lat="43.270895562949576" lon="11.629135167778271"><ele>303.0</ele><time>2026-05-03T15:50:05Z</time></trkpt><trkpt lat="43.270640286652764" lon="11.629131135930443"><ele>303.0</ele><time>2026-05-03T15:50:06Z</time></trkpt><trkpt lat="43.270381983981636" lon="11.629127011305744"><ele>302.5</ele><time>2026-05-03T15:50:07Z</time></trkpt><trkpt lat="43.27012753474357" lon="11.62912041815901"><ele>302.0</ele><time>2026-05-03T15:50:08Z</time></trkpt><trkpt lat="43.2698699483434" lon="11.629118448111944"><ele>302.5</ele><time>2026-05-03T15:50:09Z</time></trkpt><trkpt lat="43.26960997122815" lon="11.629109543392019"><ele>303.0</ele><time>2026-05-03T15:50:10Z</time></trkpt><trkpt lat="43.269348899410616" lon="11.629100433854978"><ele>303.0</ele><time>2026-05-03T15:50:11Z</time></trkpt><trkpt lat="43.26909176896445" lon="11.6290878608388"><ele>303.0</ele><time>2026-05-03T15:50:12Z</time></trkpt><trkpt lat="43.26883804187804" lon="11.629074185197494"><ele>302.0</ele><time>2026-05-03T15:50:13Z</time></trkpt><trkpt lat="43.268586619620244" lon="11.62906254402981"><ele>301.0</ele><time>2026-05-03T15:50:14Z</time></trkpt><trkpt lat="43.26834100865071" lon="11.629048573333892"><ele>301.0</ele><time>2026-05-03T15:50:15Z</time></trkpt><trkpt lat="43.268098593900184" lon="11.629034504685256"><ele>301.0</ele><time>2026-05-03T15:50:16Z</time></trkpt><trkpt lat="43.26785777070966" lon="11.629024181496298"><ele>301.0</ele><time>2026-05-03T15:50:17Z</time></trkpt><trkpt lat="43.26761748254409" lon="11.629010706407378"><ele>301.0</ele><time>2026-05-03T15:50:18Z</time></trkpt><trkpt lat="43.267379901494245" lon="11.628999761482403"><ele>302.0</ele><time>2026-05-03T15:50:19Z</time></trkpt><trkpt lat="43.26714580075644" lon="11.628990058148041"><ele>303.0</ele><time>2026-05-03T15:50:20Z</time></trkpt><trkpt lat="43.266916402622655" lon="11.628985149435623"><ele>303.0</ele><time>2026-05-03T15:50:21Z</time></trkpt><trkpt lat="43.266689087936044" lon="11.628985833977243"><ele>303.0</ele><time>2026-05-03T15:50:22Z</time></trkpt><trkpt lat="43.26646440588648" lon="11.628990450009448"><ele>302.5</ele><time>2026-05-03T15:50:23Z</time></trkpt><trkpt lat="43.26623845379407" lon="11.62899727296609"><ele>302.0</ele><time>2026-05-03T15:50:24Z</time></trkpt><trkpt lat="43.26601431181955" lon="11.62900963119951"><ele>302.0</ele><time>2026-05-03T15:50:25Z</time></trkpt><trkpt lat="43.26579006428599" lon="11.629031172473207"><ele>302.0</ele><time>2026-05-03T15:50:26Z</time></trkpt><trkpt lat="43.26556632449" lon="11.629062297325243"><ele>303.0</ele><time>2026-05-03T15:50:27Z</time></trkpt><trkpt lat="43.26533773484095" lon="11.629096498372444"><ele>304.0</ele><time>2026-05-03T15:50:28Z</time></trkpt><trkpt lat="43.265107785231926" lon="11.629138943061063"><ele>304.0</ele><time>2026-05-03T15:50:29Z</time></trkpt><trkpt lat="43.264875141213906" lon="11.629190772788554"><ele>304.0</ele><time>2026-05-03T15:50:30Z</time></trkpt><trkpt lat="43.264638858520186" lon="11.629254834320466"><ele>305.5</ele><time>2026-05-03T15:50:31Z</time></trkpt><trkpt lat="43.26440143901831" lon="11.629327425208771"><ele>307.0</ele><time>2026-05-03T15:50:32Z</time></trkpt><trkpt lat="43.26416374407044" lon="11.629409582342454"><ele>306.5</ele><time>2026-05-03T15:50:33Z</time></trkpt><trkpt lat="43.26392419000243" lon="11.629497647715207"><ele>306.0</ele><time>2026-05-03T15:50:34Z</time></trkpt><trkpt lat="43.26368424301613" lon="11.629600475123599"><ele>306.0</ele><time>2026-05-03T15:50:35Z</time></trkpt><trkpt lat="43.263443373274924" lon="11.629710588396259"><ele>306.0</ele><time>2026-05-03T15:50:36Z</time></trkpt><trkpt lat="43.26319561303784" lon="11.629826887262363"><ele>308.5</ele><time>2026-05-03T15:50:37Z</time></trkpt><trkpt lat="43.26293970590859" lon="11.629949372688383"><ele>311.0</ele><time>2026-05-03T15:50:38Z</time></trkpt><trkpt lat="43.2626804346362" lon="11.630076773004955"><ele>311.0</ele><time>2026-05-03T15:50:39Z</time></trkpt><trkpt lat="43.26242126160932" lon="11.630211015838567"><ele>311.0</ele><time>2026-05-03T15:50:40Z</time></trkpt><trkpt lat="43.262162765062264" lon="11.630333103534465"><ele>308.0</ele><time>2026-05-03T15:50:41Z</time></trkpt><trkpt lat="43.2619144426551" lon="11.630449069684072"><ele>305.0</ele><time>2026-05-03T15:50:42Z</time></trkpt><trkpt lat="43.26166180780138" lon="11.630564328188791"><ele>307.5</ele><time>2026-05-03T15:50:43Z</time></trkpt><trkpt lat="43.261409098040886" lon="11.630681625011029"><ele>310.0</ele><time>2026-05-03T15:50:44Z</time></trkpt><trkpt lat="43.26115838791584" lon="11.630798121879321"><ele>310.0</ele><time>2026-05-03T15:50:45Z</time></trkpt><trkpt lat="43.260915312346164" lon="11.630913242116296"><ele>310.0</ele><time>2026-05-03T15:50:46Z</time></trkpt><trkpt lat="43.26067333439353" lon="11.631029099528869"><ele>311.0</ele><time>2026-05-03T15:50:47Z</time></trkpt><trkpt lat="43.26043403490476" lon="11.631139112483813"><ele>312.0</ele><time>2026-05-03T15:50:48Z</time></trkpt><trkpt lat="43.26019230110884" lon="11.631253169839663"><ele>306.5</ele><time>2026-05-03T15:50:49Z</time></trkpt><trkpt lat="43.259950537595834" lon="11.631366265504955"><ele>301.0</ele><time>2026-05-03T15:50:50Z</time></trkpt><trkpt lat="43.25970942253712" lon="11.631477757877457"><ele>300.5</ele><time>2026-05-03T15:50:51Z</time></trkpt><trkpt lat="43.25946401631629" lon="11.631587845289998"><ele>300.0</ele><time>2026-05-03T15:50:52Z</time></trkpt><trkpt lat="43.25922179777331" lon="11.631698798097545"><ele>300.0</ele><time>2026-05-03T15:50:53Z</time></trkpt><trkpt lat="43.25897724824737" lon="11.63180857235359"><ele>300.0</ele><time>2026-05-03T15:50:54Z</time></trkpt><trkpt lat="43.25873385518238" lon="11.631924355611307"><ele>299.0</ele><time>2026-05-03T15:50:55Z</time></trkpt><trkpt lat="43.25849183859531" lon="11.632043611571886"><ele>298.0</ele><time>2026-05-03T15:50:56Z</time></trkpt><trkpt lat="43.25825512552556" lon="11.632167079483784"><ele>299.5</ele><time>2026-05-03T15:50:57Z</time></trkpt><trkpt lat="43.25802046808905" lon="11.63230003047782"><ele>301.0</ele><time>2026-05-03T15:50:58Z</time></trkpt><trkpt lat="43.257789912411745" lon="11.632442645532654"><ele>301.0</ele><time>2026-05-03T15:50:59Z</time></trkpt><trkpt lat="43.25756281916871" lon="11.632595347935174"><ele>301.0</ele><time>2026-05-03T15:51:00Z</time></trkpt><trkpt lat="43.25733648849156" lon="11.632754640848477"><ele>299.0</ele><time>2026-05-03T15:51:01Z</time></trkpt><trkpt lat="43.25711011393515" lon="11.632923054645518"><ele>297.0</ele><time>2026-05-03T15:51:02Z</time></trkpt><trkpt lat="43.256886738679384" lon="11.633099235925432"><ele>297.0</ele><time>2026-05-03T15:51:03Z</time></trkpt><trkpt lat="43.25666467114775" lon="11.633283519291753"><ele>297.0</ele><time>2026-05-03T15:51:04Z</time></trkpt><trkpt lat="43.256447669411706" lon="11.633477678624173"><ele>295.5</ele><time>2026-05-03T15:51:05Z</time></trkpt><trkpt lat="43.25623368491484" lon="11.633679527821407"><ele>294.0</ele><time>2026-05-03T15:51:06Z</time></trkpt><trkpt lat="43.256021752081885" lon="11.633884624062519"><ele>294.0</ele><time>2026-05-03T15:51:07Z</time></trkpt><trkpt lat="43.255812390829504" lon="11.634095363021093"><ele>294.0</ele><time>2026-05-03T15:51:08Z</time></trkpt><trkpt lat="43.255601027531625" lon="11.63430805434024"><ele>295.5</ele><time>2026-05-03T15:51:09Z</time></trkpt><trkpt lat="43.255393133722585" lon="11.63452136483928"><ele>297.0</ele><time>2026-05-03T15:51:10Z</time></trkpt><trkpt lat="43.25518686539257" lon="11.634736452873728"><ele>297.0</ele><time>2026-05-03T15:51:11Z</time></trkpt><trkpt lat="43.25497983918022" lon="11.634951044419408"><ele>297.0</ele><time>2026-05-03T15:51:12Z</time></trkpt><trkpt lat="43.25477428708479" lon="11.63516531542721"><ele>296.5</ele><time>2026-05-03T15:51:13Z</time></trkpt><trkpt lat="43.254567626559485" lon="11.63537635580152"><ele>296.0</ele><time>2026-05-03T15:51:14Z</time></trkpt><trkpt lat="43.25436173106642" lon="11.635583719637328"><ele>296.0</ele><time>2026-05-03T15:51:15Z</time></trkpt><trkpt lat="43.254161301686764" lon="11.635796567042677"><ele>296.0</ele><time>2026-05-03T15:51:16Z</time></trkpt><trkpt lat="43.253961302750874" lon="11.63601155652851"><ele>295.5</ele><time>2026-05-03T15:51:17Z</time></trkpt><trkpt lat="43.253766592632054" lon="11.636234246070963"><ele>295.0</ele><time>2026-05-03T15:51:18Z</time></trkpt><trkpt lat="43.25357640884411" lon="11.63646352205966"><ele>295.0</ele><time>2026-05-03T15:51:19Z</time></trkpt><trkpt lat="43.25338728913611" lon="11.636700187859944"><ele>295.0</ele><time>2026-05-03T15:51:20Z</time></trkpt><trkpt lat="43.253205862727235" lon="11.636945812973517"><ele>294.5</ele><time>2026-05-03T15:51:21Z</time></trkpt><trkpt lat="43.25302715943639" lon="11.637195115750638"><ele>294.0</ele><time>2026-05-03T15:51:22Z</time></trkpt><trkpt lat="43.25286002116158" lon="11.637451960749917"><ele>294.0</ele><time>2026-05-03T15:51:23Z</time></trkpt><trkpt lat="43.25269413856213" lon="11.637710856476554"><ele>294.0</ele><time>2026-05-03T15:51:24Z</time></trkpt><trkpt lat="43.25252751398463" lon="11.637973117024035"><ele>292.5</ele><time>2026-05-03T15:51:25Z</time></trkpt><trkpt lat="43.25236494358485" lon="11.63824208209328"><ele>291.0</ele><time>2026-05-03T15:51:26Z</time></trkpt><trkpt lat="43.252202240352894" lon="11.638515161414471"><ele>291.0</ele><time>2026-05-03T15:51:27Z</time></trkpt><trkpt lat="43.25203375143899" lon="11.638790287328712"><ele>291.0</ele><time>2026-05-03T15:51:28Z</time></trkpt><trkpt lat="43.25186176016597" lon="11.639065468246095"><ele>291.0</ele><time>2026-05-03T15:51:29Z</time></trkpt><trkpt lat="43.25168922601208" lon="11.639340558622804"><ele>291.0</ele><time>2026-05-03T15:51:30Z</time></trkpt><trkpt lat="43.2515207443736" lon="11.639617746474583"><ele>290.5</ele><time>2026-05-03T15:51:31Z</time></trkpt><trkpt lat="43.25135043996529" lon="11.639897519975147"><ele>290.0</ele><time>2026-05-03T15:51:32Z</time></trkpt><trkpt lat="43.251178204471294" lon="11.640172789407083"><ele>289.5</ele><time>2026-05-03T15:51:33Z</time></trkpt><trkpt lat="43.25100552803071" lon="11.640447830762351"><ele>289.0</ele><time>2026-05-03T15:51:34Z</time></trkpt><trkpt lat="43.2508326456096" lon="11.640725987979422"><ele>289.0</ele><time>2026-05-03T15:51:35Z</time></trkpt><trkpt lat="43.25065869195858" lon="11.6410051206698"><ele>289.0</ele><time>2026-05-03T15:51:36Z</time></trkpt><trkpt lat="43.25048382223931" lon="11.64129093951402"><ele>289.5</ele><time>2026-05-03T15:51:37Z</time></trkpt><trkpt lat="43.25030869521814" lon="11.641574389868888"><ele>290.0</ele><time>2026-05-03T15:51:38Z</time></trkpt><trkpt lat="43.250133077701015" lon="11.641856115302794"><ele>290.0</ele><time>2026-05-03T15:51:39Z</time></trkpt><trkpt lat="43.24995887342194" lon="11.642138217622643"><ele>290.0</ele><time>2026-05-03T15:51:40Z</time></trkpt><trkpt lat="43.24978093409466" lon="11.642420731377145"><ele>290.0</ele><time>2026-05-03T15:51:41Z</time></trkpt><trkpt lat="43.24960371542041" lon="11.642702447730152"><ele>290.0</ele><time>2026-05-03T15:51:42Z</time></trkpt><trkpt lat="43.24942871753042" lon="11.642984036475077"><ele>290.0</ele><time>2026-05-03T15:51:43Z</time></trkpt><trkpt lat="43.24925511769112" lon="11.643264818610984"><ele>290.0</ele><time>2026-05-03T15:51:44Z</time></trkpt><trkpt lat="43.24907903291551" lon="11.643544201210288"><ele>290.0</ele><time>2026-05-03T15:51:45Z</time></trkpt><trkpt lat="43.24890302339992" lon="11.643822812933228"><ele>290.0</ele><time>2026-05-03T15:51:46Z</time></trkpt><trkpt lat="43.24872727604202" lon="11.644096289011804"><ele>290.0</ele><time>2026-05-03T15:51:47Z</time></trkpt><trkpt lat="43.24855912762807" lon="11.64437113186623"><ele>290.0</ele><time>2026-05-03T15:51:48Z</time></trkpt><trkpt lat="43.24839199828323" lon="11.644647064975523"><ele>289.5</ele><time>2026-05-03T15:51:49Z</time></trkpt><trkpt lat="43.24823053678607" lon="11.644921301247242"><ele>289.0</ele><time>2026-05-03T15:51:50Z</time></trkpt><trkpt lat="43.24807961731549" lon="11.645208460114164"><ele>288.5</ele><time>2026-05-03T15:51:51Z</time></trkpt><trkpt lat="43.24792757925676" lon="11.645500221168192"><ele>288.0</ele><time>2026-05-03T15:51:52Z</time></trkpt><trkpt lat="43.24778689364899" lon="11.645795749976463"><ele>288.0</ele><time>2026-05-03T15:51:53Z</time></trkpt><trkpt lat="43.24765291613942" lon="11.646098187264219"><ele>288.0</ele><time>2026-05-03T15:51:54Z</time></trkpt><trkpt lat="43.24752703685451" lon="11.64640516171153"><ele>288.0</ele><time>2026-05-03T15:51:55Z</time></trkpt><trkpt lat="43.247397453002215" lon="11.646725813785102"><ele>288.0</ele><time>2026-05-03T15:51:56Z</time></trkpt><trkpt lat="43.24728244335308" lon="11.647045776814698"><ele>288.0</ele><time>2026-05-03T15:51:57Z</time></trkpt><trkpt lat="43.24717631373956" lon="11.647370812893309"><ele>288.0</ele><time>2026-05-03T15:51:58Z</time></trkpt><trkpt lat="43.247082634255044" lon="11.647706156919941"><ele>287.5</ele><time>2026-05-03T15:51:59Z</time></trkpt><trkpt lat="43.246991440161715" lon="11.648052926920833"><ele>287.0</ele><time>2026-05-03T15:52:00Z</time></trkpt><trkpt lat="43.24690527606475" lon="11.648414548839355"><ele>287.0</ele><time>2026-05-03T15:52:01Z</time></trkpt><trkpt lat="43.246823581878736" lon="11.648779770472386"><ele>287.0</ele><time>2026-05-03T15:52:02Z</time></trkpt><trkpt lat="43.24675832255598" lon="11.649147501561954"><ele>287.0</ele><time>2026-05-03T15:52:03Z</time></trkpt><trkpt lat="43.24671243290396" lon="11.649520350052333"><ele>287.0</ele><time>2026-05-03T15:52:04Z</time></trkpt><trkpt lat="43.2466709212336" lon="11.649894174270989"><ele>287.0</ele><time>2026-05-03T15:52:05Z</time></trkpt><trkpt lat="43.24663813099057" lon="11.650281656111273"><ele>287.0</ele><time>2026-05-03T15:52:06Z</time></trkpt><trkpt lat="43.24662426723979" lon="11.650666646649244"><ele>287.0</ele><time>2026-05-03T15:52:07Z</time></trkpt><trkpt lat="43.246614881976164" lon="11.651055651440412"><ele>287.0</ele><time>2026-05-03T15:52:08Z</time></trkpt><trkpt lat="43.2466163801516" lon="11.6514455142871"><ele>287.0</ele><time>2026-05-03T15:52:09Z</time></trkpt><trkpt lat="43.24662868226774" lon="11.65183781290841"><ele>287.0</ele><time>2026-05-03T15:52:10Z</time></trkpt><trkpt lat="43.24665150067783" lon="11.652237024074504"><ele>287.0</ele><time>2026-05-03T15:52:11Z</time></trkpt><trkpt lat="43.2466871188453" lon="11.652629352521524"><ele>287.0</ele><time>2026-05-03T15:52:12Z</time></trkpt><trkpt lat="43.24673592751705" lon="11.65302405390195"><ele>287.0</ele><time>2026-05-03T15:52:13Z</time></trkpt><trkpt lat="43.24679450271353" lon="11.65340902784367"><ele>287.0</ele><time>2026-05-03T15:52:14Z</time></trkpt><trkpt lat="43.246851046864975" lon="11.653790169491693"><ele>287.0</ele><time>2026-05-03T15:52:15Z</time></trkpt><trkpt lat="43.2469062762787" lon="11.65417239356055"><ele>287.0</ele><time>2026-05-03T15:52:16Z</time></trkpt><trkpt lat="43.24695591175725" lon="11.65453692100287"><ele>290.5</ele><time>2026-05-03T15:52:17Z</time></trkpt><trkpt lat="43.24701124311831" lon="11.654892417703124"><ele>294.0</ele><time>2026-05-03T15:52:18Z</time></trkpt><trkpt lat="43.247069663167416" lon="11.655237812929412"><ele>295.5</ele><time>2026-05-03T15:52:19Z</time></trkpt><trkpt lat="43.2471231320733" lon="11.65558908031589"><ele>297.0</ele><time>2026-05-03T15:52:20Z</time></trkpt><trkpt lat="43.247171326384596" lon="11.655935000627558"><ele>295.5</ele><time>2026-05-03T15:52:21Z</time></trkpt><trkpt lat="43.24722076985399" lon="11.656288779235775"><ele>294.0</ele><time>2026-05-03T15:52:22Z</time></trkpt><trkpt lat="43.247273358836615" lon="11.656626099806228"><ele>290.5</ele><time>2026-05-03T15:52:23Z</time></trkpt><trkpt lat="43.24732634923932" lon="11.656965546575105"><ele>287.0</ele><time>2026-05-03T15:52:24Z</time></trkpt><trkpt lat="43.247379928918946" lon="11.657297381823794"><ele>287.0</ele><time>2026-05-03T15:52:25Z</time></trkpt><trkpt lat="43.2474359257104" lon="11.65762858167397"><ele>287.0</ele><time>2026-05-03T15:52:26Z</time></trkpt><trkpt lat="43.2474881298135" lon="11.657964482892798"><ele>287.0</ele><time>2026-05-03T15:52:27Z</time></trkpt><trkpt lat="43.247540738029954" lon="11.658290517114013"><ele>287.0</ele><time>2026-05-03T15:52:28Z</time></trkpt><trkpt lat="43.24759773997299" lon="11.658618323253325"><ele>287.0</ele><time>2026-05-03T15:52:29Z</time></trkpt><trkpt lat="43.24765075233398" lon="11.658957971020401"><ele>287.0</ele><time>2026-05-03T15:52:30Z</time></trkpt><trkpt lat="43.247706234280514" lon="11.659297946640446"><ele>287.0</ele><time>2026-05-03T15:52:31Z</time></trkpt><trkpt lat="43.2477610516173" lon="11.659644726665189"><ele>287.0</ele><time>2026-05-03T15:52:32Z</time></trkpt><trkpt lat="43.24781766267278" lon="11.659994684885023"><ele>287.5</ele><time>2026-05-03T15:52:33Z</time></trkpt><trkpt lat="43.247876630799915" lon="11.660335635819767"><ele>288.0</ele><time>2026-05-03T15:52:34Z</time></trkpt><trkpt lat="43.247935550787034" lon="11.660680181829006"><ele>288.0</ele><time>2026-05-03T15:52:35Z</time></trkpt><trkpt lat="43.247993901246765" lon="11.661022571965768"><ele>288.0</ele><time>2026-05-03T15:52:36Z</time></trkpt><trkpt lat="43.24804827861946" lon="11.6613738981396"><ele>288.0</ele><time>2026-05-03T15:52:37Z</time></trkpt><trkpt lat="43.248106703549205" lon="11.661720985779926"><ele>288.0</ele><time>2026-05-03T15:52:38Z</time></trkpt><trkpt lat="43.24816565285697" lon="11.662072745856726"><ele>288.0</ele><time>2026-05-03T15:52:39Z</time></trkpt><trkpt lat="43.248225600973385" lon="11.662421872651132"><ele>288.0</ele><time>2026-05-03T15:52:40Z</time></trkpt><trkpt lat="43.24828386979757" lon="11.662774816110762"><ele>288.0</ele><time>2026-05-03T15:52:41Z</time></trkpt><trkpt lat="43.24833883139335" lon="11.663131328414039"><ele>288.0</ele><time>2026-05-03T15:52:42Z</time></trkpt><trkpt lat="43.24839553364143" lon="11.663476214491254"><ele>290.0</ele><time>2026-05-03T15:52:43Z</time></trkpt><trkpt lat="43.24845117678849" lon="11.66384725918829"><ele>292.0</ele><time>2026-05-03T15:52:44Z</time></trkpt><trkpt lat="43.24851273649524" lon="11.664206799753519"><ele>295.0</ele><time>2026-05-03T15:52:45Z</time></trkpt><trkpt lat="43.248580365323235" lon="11.664550577925988"><ele>298.0</ele><time>2026-05-03T15:52:46Z</time></trkpt><trkpt lat="43.24864857697466" lon="11.66491274119737"><ele>300.5</ele><time>2026-05-03T15:52:47Z</time></trkpt><trkpt lat="43.24871594553978" lon="11.665285173819642"><ele>303.0</ele><time>2026-05-03T15:52:48Z</time></trkpt><trkpt lat="43.24878940011383" lon="11.665640052371515"><ele>303.0</ele><time>2026-05-03T15:52:49Z</time></trkpt><trkpt lat="43.248865820478215" lon="11.666001354569186"><ele>303.0</ele><time>2026-05-03T15:52:50Z</time></trkpt><trkpt lat="43.24894367953111" lon="11.666357913950772"><ele>296.0</ele><time>2026-05-03T15:52:51Z</time></trkpt><trkpt lat="43.249023752924906" lon="11.666718865265306"><ele>289.0</ele><time>2026-05-03T15:52:52Z</time></trkpt><trkpt lat="43.24910555587303" lon="11.66707118480154"><ele>289.0</ele><time>2026-05-03T15:52:53Z</time></trkpt><trkpt lat="43.249193550613086" lon="11.667429060818671"><ele>289.0</ele><time>2026-05-03T15:52:54Z</time></trkpt><trkpt lat="43.24928199722734" lon="11.667778102604125"><ele>288.5</ele><time>2026-05-03T15:52:55Z</time></trkpt><trkpt lat="43.249377586761675" lon="11.668146451498075"><ele>288.0</ele><time>2026-05-03T15:52:56Z</time></trkpt><trkpt lat="43.249480371788934" lon="11.668490196237036"><ele>289.0</ele><time>2026-05-03T15:52:57Z</time></trkpt><trkpt lat="43.24959720805048" lon="11.668818554330603"><ele>290.0</ele><time>2026-05-03T15:52:58Z</time></trkpt><trkpt lat="43.24970854758778" lon="11.669150294765432"><ele>289.0</ele><time>2026-05-03T15:52:59Z</time></trkpt><trkpt lat="43.249817391149534" lon="11.669482569704975"><ele>288.0</ele><time>2026-05-03T15:53:00Z</time></trkpt><trkpt lat="43.2499227080987" lon="11.6698102730803"><ele>288.0</ele><time>2026-05-03T15:53:01Z</time></trkpt><trkpt lat="43.2500359698083" lon="11.670138003407807"><ele>288.0</ele><time>2026-05-03T15:53:02Z</time></trkpt><trkpt lat="43.250161080665706" lon="11.670449091921109"><ele>291.0</ele><time>2026-05-03T15:53:03Z</time></trkpt><trkpt lat="43.250281043223694" lon="11.670770807025042"><ele>294.0</ele><time>2026-05-03T15:53:04Z</time></trkpt><trkpt lat="43.250399117012805" lon="11.671086902518022"><ele>290.5</ele><time>2026-05-03T15:53:05Z</time></trkpt><trkpt lat="43.250509932442846" lon="11.671409523704959"><ele>287.0</ele><time>2026-05-03T15:53:06Z</time></trkpt><trkpt lat="43.25062676973191" lon="11.671734557754675"><ele>289.0</ele><time>2026-05-03T15:53:07Z</time></trkpt><trkpt lat="43.250744878697226" lon="11.67205740857115"><ele>291.0</ele><time>2026-05-03T15:53:08Z</time></trkpt><trkpt lat="43.250866810788764" lon="11.672392603887745"><ele>291.0</ele><time>2026-05-03T15:53:09Z</time></trkpt><trkpt lat="43.25099128853707" lon="11.672722523751343"><ele>291.0</ele><time>2026-05-03T15:53:10Z</time></trkpt><trkpt lat="43.25110971113287" lon="11.673044538542154"><ele>294.5</ele><time>2026-05-03T15:53:11Z</time></trkpt><trkpt lat="43.25123142383583" lon="11.673370835451632"><ele>298.0</ele><time>2026-05-03T15:53:12Z</time></trkpt><trkpt lat="43.2513458229968" lon="11.673720744479507"><ele>300.5</ele><time>2026-05-03T15:53:13Z</time></trkpt><trkpt lat="43.251453397491076" lon="11.674072623900818"><ele>303.0</ele><time>2026-05-03T15:53:14Z</time></trkpt><trkpt lat="43.25155448786339" lon="11.674434692703592"><ele>299.0</ele><time>2026-05-03T15:53:15Z</time></trkpt><trkpt lat="43.251644518338225" lon="11.674797130012033"><ele>295.0</ele><time>2026-05-03T15:53:16Z</time></trkpt><trkpt lat="43.251728943591736" lon="11.675164725867129"><ele>296.5</ele><time>2026-05-03T15:53:17Z</time></trkpt><trkpt lat="43.25179421003049" lon="11.675539605775066"><ele>298.0</ele><time>2026-05-03T15:53:18Z</time></trkpt><trkpt lat="43.251864346823766" lon="11.675911123033623"><ele>300.5</ele><time>2026-05-03T15:53:19Z</time></trkpt><trkpt lat="43.251930275590254" lon="11.676279922898965"><ele>303.0</ele><time>2026-05-03T15:53:20Z</time></trkpt><trkpt lat="43.25199226401047" lon="11.676652719474113"><ele>301.0</ele><time>2026-05-03T15:53:21Z</time></trkpt><trkpt lat="43.25205464239016" lon="11.67702606471154"><ele>299.0</ele><time>2026-05-03T15:53:22Z</time></trkpt><trkpt lat="43.252116070285595" lon="11.677397904698344"><ele>298.5</ele><time>2026-05-03T15:53:23Z</time></trkpt><trkpt lat="43.25217668936175" lon="11.677769812052425"><ele>298.0</ele><time>2026-05-03T15:53:24Z</time></trkpt><trkpt lat="43.25223887080322" lon="11.678140573237384"><ele>290.5</ele><time>2026-05-03T15:53:25Z</time></trkpt><trkpt lat="43.25230498458852" lon="11.678508488607811"><ele>283.0</ele><time>2026-05-03T15:53:26Z</time></trkpt><trkpt lat="43.25237569433185" lon="11.678870111153335"><ele>282.5</ele><time>2026-05-03T15:53:27Z</time></trkpt><trkpt lat="43.25245006669836" lon="11.679233897597106"><ele>282.0</ele><time>2026-05-03T15:53:28Z</time></trkpt><trkpt lat="43.25252743172472" lon="11.679597383408936"><ele>281.5</ele><time>2026-05-03T15:53:29Z</time></trkpt><trkpt lat="43.252610724748976" lon="11.679948598462639"><ele>281.0</ele><time>2026-05-03T15:53:30Z</time></trkpt><trkpt lat="43.25268982812713" lon="11.680300582347137"><ele>280.5</ele><time>2026-05-03T15:53:31Z</time></trkpt><trkpt lat="43.25276575387219" lon="11.68064910705345"><ele>280.0</ele><time>2026-05-03T15:53:32Z</time></trkpt><trkpt lat="43.25284057034394" lon="11.68099991098981"><ele>281.0</ele><time>2026-05-03T15:53:33Z</time></trkpt><trkpt lat="43.252916038318574" lon="11.681356838671435"><ele>282.0</ele><time>2026-05-03T15:53:34Z</time></trkpt><trkpt lat="43.252999671764" lon="11.681701829078854"><ele>282.5</ele><time>2026-05-03T15:53:35Z</time></trkpt><trkpt lat="43.253076490689395" lon="11.682053861987958"><ele>283.0</ele><time>2026-05-03T15:53:36Z</time></trkpt><trkpt lat="43.253158637299215" lon="11.682403103234428"><ele>282.5</ele><time>2026-05-03T15:53:37Z</time></trkpt><trkpt lat="43.25324151822736" lon="11.68275492566342"><ele>282.0</ele><time>2026-05-03T15:53:38Z</time></trkpt><trkpt lat="43.253321218796735" lon="11.683111679357397"><ele>282.0</ele><time>2026-05-03T15:53:39Z</time></trkpt><trkpt lat="43.25339946109587" lon="11.683471218459841"><ele>282.0</ele><time>2026-05-03T15:53:40Z</time></trkpt><trkpt lat="43.25348105976964" lon="11.68382713319576"><ele>284.0</ele><time>2026-05-03T15:53:41Z</time></trkpt><trkpt lat="43.253563462710325" lon="11.684187956738885"><ele>286.0</ele><time>2026-05-03T15:53:42Z</time></trkpt><trkpt lat="43.253648696973464" lon="11.68455212584235"><ele>289.0</ele><time>2026-05-03T15:53:43Z</time></trkpt><trkpt lat="43.253743307928985" lon="11.684906453423903"><ele>292.0</ele><time>2026-05-03T15:53:44Z</time></trkpt><trkpt lat="43.253848576161786" lon="11.685266880566605"><ele>288.0</ele><time>2026-05-03T15:53:45Z</time></trkpt><trkpt lat="43.2539679056262" lon="11.685627154987971"><ele>284.0</ele><time>2026-05-03T15:53:46Z</time></trkpt><trkpt lat="43.25409396140271" lon="11.685982323009888"><ele>287.5</ele><time>2026-05-03T15:53:47Z</time></trkpt><trkpt lat="43.254227202909355" lon="11.686330898619898"><ele>291.0</ele><time>2026-05-03T15:53:48Z</time></trkpt><trkpt lat="43.25437298453153" lon="11.68666764903998"><ele>294.5</ele><time>2026-05-03T15:53:49Z</time></trkpt><trkpt lat="43.25451614702191" lon="11.6870147059659"><ele>298.0</ele><time>2026-05-03T15:53:50Z</time></trkpt><trkpt lat="43.25466188604453" lon="11.687344425826607"><ele>292.0</ele><time>2026-05-03T15:53:51Z</time></trkpt><trkpt lat="43.25480891731554" lon="11.687669852773196"><ele>286.0</ele><time>2026-05-03T15:53:52Z</time></trkpt><trkpt lat="43.254952750860625" lon="11.687995437370445"><ele>286.0</ele><time>2026-05-03T15:53:53Z</time></trkpt><trkpt lat="43.255094769645275" lon="11.6883196364246"><ele>286.0</ele><time>2026-05-03T15:53:54Z</time></trkpt><trkpt lat="43.2552395583993" lon="11.688650092590358"><ele>293.0</ele><time>2026-05-03T15:53:55Z</time></trkpt><trkpt lat="43.25537590043474" lon="11.688978572937037"><ele>300.0</ele><time>2026-05-03T15:53:56Z</time></trkpt><trkpt lat="43.25550277711227" lon="11.689315686591426"><ele>293.0</ele><time>2026-05-03T15:53:57Z</time></trkpt><trkpt lat="43.25562113695468" lon="11.68965697045501"><ele>286.0</ele><time>2026-05-03T15:53:58Z</time></trkpt><trkpt lat="43.25572022263993" lon="11.69000549789565"><ele>288.0</ele><time>2026-05-03T15:53:59Z</time></trkpt><trkpt lat="43.25579580506539" lon="11.690359499183666"><ele>290.0</ele><time>2026-05-03T15:54:00Z</time></trkpt><trkpt lat="43.25586698296476" lon="11.690708858445438"><ele>290.0</ele><time>2026-05-03T15:54:01Z</time></trkpt><trkpt lat="43.2559153731954" lon="11.691065510973125"><ele>290.0</ele><time>2026-05-03T15:54:02Z</time></trkpt><trkpt lat="43.25595268238688" lon="11.69142562014074"><ele>290.5</ele><time>2026-05-03T15:54:03Z</time></trkpt><trkpt lat="43.255977977389264" lon="11.69178763287898"><ele>291.0</ele><time>2026-05-03T15:54:04Z</time></trkpt><trkpt lat="43.25599762696667" lon="11.692152352389561"><ele>291.0</ele><time>2026-05-03T15:54:05Z</time></trkpt><trkpt lat="43.25601006535734" lon="11.692520160282953"><ele>291.0</ele><time>2026-05-03T15:54:06Z</time></trkpt><trkpt lat="43.2560222070249" lon="11.692888904521114"><ele>289.5</ele><time>2026-05-03T15:54:07Z</time></trkpt><trkpt lat="43.25603377346045" lon="11.693251478514076"><ele>288.0</ele><time>2026-05-03T15:54:08Z</time></trkpt><trkpt lat="43.25604709586739" lon="11.693608040082351"><ele>288.0</ele><time>2026-05-03T15:54:09Z</time></trkpt><trkpt lat="43.256054673172095" lon="11.69397173470132"><ele>288.0</ele><time>2026-05-03T15:54:10Z</time></trkpt><trkpt lat="43.256067418585936" lon="11.694330454547536"><ele>291.0</ele><time>2026-05-03T15:54:11Z</time></trkpt><trkpt lat="43.25607741682219" lon="11.694690833208766"><ele>294.0</ele><time>2026-05-03T15:54:12Z</time></trkpt><trkpt lat="43.25608825190407" lon="11.695052409408476"><ele>297.5</ele><time>2026-05-03T15:54:13Z</time></trkpt><trkpt lat="43.256103898541525" lon="11.695402845109374"><ele>301.0</ele><time>2026-05-03T15:54:14Z</time></trkpt><trkpt lat="43.25611901575184" lon="11.695763729012782"><ele>302.5</ele><time>2026-05-03T15:54:15Z</time></trkpt><trkpt lat="43.25612940200885" lon="11.696131792310167"><ele>304.0</ele><time>2026-05-03T15:54:16Z</time></trkpt><trkpt lat="43.25614178171361" lon="11.696493355590821"><ele>304.0</ele><time>2026-05-03T15:54:17Z</time></trkpt><trkpt lat="43.25615453200102" lon="11.696858009218136"><ele>304.0</ele><time>2026-05-03T15:54:18Z</time></trkpt><trkpt lat="43.25616813184768" lon="11.6972231724029"><ele>301.5</ele><time>2026-05-03T15:54:19Z</time></trkpt><trkpt lat="43.256183854163595" lon="11.697586480782675"><ele>299.0</ele><time>2026-05-03T15:54:20Z</time></trkpt><trkpt lat="43.25619448350006" lon="11.697954115672866"><ele>297.0</ele><time>2026-05-03T15:54:21Z</time></trkpt><trkpt lat="43.25619364596094" lon="11.698329379043157"><ele>295.0</ele><time>2026-05-03T15:54:22Z</time></trkpt><trkpt lat="43.25618826536964" lon="11.698702344206005"><ele>293.5</ele><time>2026-05-03T15:54:23Z</time></trkpt><trkpt lat="43.25617140671248" lon="11.699077710776573"><ele>292.0</ele><time>2026-05-03T15:54:24Z</time></trkpt><trkpt lat="43.2561456195472" lon="11.699452054272426"><ele>290.5</ele><time>2026-05-03T15:54:25Z</time></trkpt><trkpt lat="43.256110934882685" lon="11.69982740444666"><ele>289.0</ele><time>2026-05-03T15:54:26Z</time></trkpt><trkpt lat="43.25606364773836" lon="11.700205420975557"><ele>287.0</ele><time>2026-05-03T15:54:27Z</time></trkpt><trkpt lat="43.256005670466465" lon="11.700581706819364"><ele>285.0</ele><time>2026-05-03T15:54:28Z</time></trkpt><trkpt lat="43.25594222483827" lon="11.700961252236999"><ele>286.0</ele><time>2026-05-03T15:54:29Z</time></trkpt><trkpt lat="43.255877281323464" lon="11.701334310109987"><ele>287.0</ele><time>2026-05-03T15:54:30Z</time></trkpt><trkpt lat="43.255812197091885" lon="11.701708240575082"><ele>284.0</ele><time>2026-05-03T15:54:31Z</time></trkpt><trkpt lat="43.25574694669321" lon="11.702079081648831"><ele>281.0</ele><time>2026-05-03T15:54:32Z</time></trkpt><trkpt lat="43.25567718895671" lon="11.702451909028444"><ele>290.5</ele><time>2026-05-03T15:54:33Z</time></trkpt><trkpt lat="43.255597961805734" lon="11.702819167074082"><ele>300.0</ele><time>2026-05-03T15:54:34Z</time></trkpt><trkpt lat="43.255504517179205" lon="11.703179987327253"><ele>300.0</ele><time>2026-05-03T15:54:35Z</time></trkpt><trkpt lat="43.255404968430156" lon="11.703530396301145"><ele>300.0</ele><time>2026-05-03T15:54:36Z</time></trkpt><trkpt lat="43.25529558414167" lon="11.703873805849321"><ele>296.5</ele><time>2026-05-03T15:54:37Z</time></trkpt><trkpt lat="43.25518244212039" lon="11.704213868436081"><ele>293.0</ele><time>2026-05-03T15:54:38Z</time></trkpt><trkpt lat="43.25507551636619" lon="11.704555356477258"><ele>288.0</ele><time>2026-05-03T15:54:39Z</time></trkpt><trkpt lat="43.25496527117363" lon="11.704894156579591"><ele>283.0</ele><time>2026-05-03T15:54:40Z</time></trkpt><trkpt lat="43.254884113590236" lon="11.705219092677499"><ele>284.0</ele><time>2026-05-03T15:54:41Z</time></trkpt><trkpt lat="43.25479185913113" lon="11.705536114494302"><ele>285.0</ele><time>2026-05-03T15:54:42Z</time></trkpt><trkpt lat="43.25469489154789" lon="11.705835452989485"><ele>282.0</ele><time>2026-05-03T15:54:43Z</time></trkpt><trkpt lat="43.254602786807745" lon="11.706115727252813"><ele>279.0</ele><time>2026-05-03T15:54:44Z</time></trkpt><trkpt lat="43.25451817010355" lon="11.70638946575993"><ele>276.0</ele><time>2026-05-03T15:54:45Z</time></trkpt><trkpt lat="43.25443247703608" lon="11.706645644847878"><ele>276.0</ele><time>2026-05-03T15:54:46Z</time></trkpt><trkpt lat="43.254349000864885" lon="11.70688726005624"><ele>276.0</ele><time>2026-05-03T15:54:47Z</time></trkpt><trkpt lat="43.25426738573762" lon="11.707121016763518"><ele>276.0</ele><time>2026-05-03T15:54:48Z</time></trkpt><trkpt lat="43.25418950068687" lon="11.707354668670247"><ele>275.3333333333333</ele><time>2026-05-03T15:54:49Z</time></trkpt><trkpt lat="43.25411363324706" lon="11.707589995470034"><ele>274.66666666666663</ele><time>2026-05-03T15:54:50Z</time></trkpt><trkpt lat="43.25404695173994" lon="11.707815514098572"><ele>274.0</ele><time>2026-05-03T15:54:51Z</time></trkpt><trkpt lat="43.25398343047249" lon="11.708026919815527"><ele>274.0</ele><time>2026-05-03T15:54:52Z</time></trkpt><trkpt lat="43.25391416079964" lon="11.70822240578977"><ele>274.0</ele><time>2026-05-03T15:54:53Z</time></trkpt><trkpt lat="43.25383860987813" lon="11.708401220016942"><ele>274.0</ele><time>2026-05-03T15:54:54Z</time></trkpt><trkpt lat="43.2537588425601" lon="11.708568865113161"><ele>273.5</ele><time>2026-05-03T15:54:55Z</time></trkpt><trkpt lat="43.253685927801016" lon="11.708729530242623"><ele>273.0</ele><time>2026-05-03T15:54:56Z</time></trkpt><trkpt lat="43.25361353029358" lon="11.708887215906437"><ele>272.5</ele><time>2026-05-03T15:54:57Z</time></trkpt><trkpt lat="43.25354493940661" lon="11.709037058800616"><ele>272.0</ele><time>2026-05-03T15:54:58Z</time></trkpt><trkpt lat="43.25347688677489" lon="11.70918466327663"><ele>272.0</ele><time>2026-05-03T15:54:59Z</time></trkpt><trkpt lat="43.25341184115902" lon="11.70932762302287"><ele>272.0</ele><time>2026-05-03T15:55:00Z</time></trkpt><trkpt lat="43.25334634588701" lon="11.70946594240173"><ele>272.0</ele><time>2026-05-03T15:55:01Z</time></trkpt><trkpt lat="43.253290379186794" lon="11.709585755428881"><ele>272.0</ele><time>2026-05-03T15:55:02Z</time></trkpt><trkpt lat="43.253239553614" lon="11.709687681918357"><ele>272.0</ele><time>2026-05-03T15:55:03Z</time></trkpt><trkpt lat="43.25318868599672" lon="11.709786272158274"><ele>271.8</ele><time>2026-05-03T15:55:04Z</time></trkpt><trkpt lat="43.25313160602626" lon="11.709891168033357"><ele>271.6</ele><time>2026-05-03T15:55:05Z</time></trkpt><trkpt lat="43.253065556283055" lon="11.709995059940832"><ele>271.40000000000003</ele><time>2026-05-03T15:55:06Z</time></trkpt><trkpt lat="43.252995078079756" lon="11.710115827538413"><ele>271.2</ele><time>2026-05-03T15:55:07Z</time></trkpt><trkpt lat="43.25292934522432" lon="11.710256401662194"><ele>271.0</ele><time>2026-05-03T15:55:08Z</time></trkpt><trkpt lat="43.25287879087172" lon="11.71041092381758"><ele>271.5</ele><time>2026-05-03T15:55:09Z</time></trkpt><trkpt lat="43.25284329828939" lon="11.71057595530368"><ele>272.0</ele><time>2026-05-03T15:55:10Z</time></trkpt><trkpt lat="43.252828416041815" lon="11.710744920334776"><ele>272.5</ele><time>2026-05-03T15:55:11Z</time></trkpt><trkpt lat="43.252832224085196" lon="11.710902555398881"><ele>273.0</ele><time>2026-05-03T15:55:12Z</time></trkpt><trkpt lat="43.25285417062679" lon="11.711047679355953"><ele>272.8</ele><time>2026-05-03T15:55:13Z</time></trkpt><trkpt lat="43.25289504309356" lon="11.711170964351288"><ele>272.6</ele><time>2026-05-03T15:55:14Z</time></trkpt><trkpt lat="43.252957796977746" lon="11.711267143902848"><ele>272.4</ele><time>2026-05-03T15:55:15Z</time></trkpt><trkpt lat="43.253036513584284" lon="11.711342423450422"><ele>272.2</ele><time>2026-05-03T15:55:16Z</time></trkpt><trkpt lat="43.25312964864304" lon="11.711383435416115"><ele>272.0</ele><time>2026-05-03T15:55:17Z</time></trkpt><trkpt lat="43.25322911762814" lon="11.71139576405486"><ele>271.6</ele><time>2026-05-03T15:55:18Z</time></trkpt><trkpt lat="43.253334462904384" lon="11.711372630670963"><ele>271.2</ele><time>2026-05-03T15:55:19Z</time></trkpt><trkpt lat="43.25343798052831" lon="11.711316164488691"><ele>270.8</ele><time>2026-05-03T15:55:20Z</time></trkpt><trkpt lat="43.25352827022744" lon="11.711229415271749"><ele>270.4</ele><time>2026-05-03T15:55:21Z</time></trkpt><trkpt lat="43.25361176016897" lon="11.711133861385868"><ele>270.0</ele><time>2026-05-03T15:55:22Z</time></trkpt><trkpt lat="43.25370208827976" lon="11.711056685937686"><ele>270.0</ele><time>2026-05-03T15:55:23Z</time></trkpt><trkpt lat="43.253792003640285" lon="11.711013694138245"><ele>270.0</ele><time>2026-05-03T15:55:24Z</time></trkpt><trkpt lat="43.25388086753845" lon="11.711001926664256"><ele>270.0</ele><time>2026-05-03T15:55:25Z</time></trkpt><trkpt lat="43.253963414753954" lon="11.71103759212859"><ele>270.0</ele><time>2026-05-03T15:55:26Z</time></trkpt><trkpt lat="43.25404393555218" lon="11.711021971421513"><ele>270.0</ele><time>2026-05-03T15:55:27Z</time></trkpt><trkpt lat="43.25412130551559" lon="11.710999585444954"><ele>270.0</ele><time>2026-05-03T15:55:28Z</time></trkpt><trkpt lat="43.254193872280126" lon="11.71094171344931"><ele>270.2</ele><time>2026-05-03T15:55:29Z</time></trkpt><trkpt lat="43.254250845064966" lon="11.710859050294811"><ele>270.4</ele><time>2026-05-03T15:55:30Z</time></trkpt><trkpt lat="43.25428641683739" lon="11.710748242315974"><ele>270.6</ele><time>2026-05-03T15:55:31Z</time></trkpt><trkpt lat="43.25430627551867" lon="11.710620956447327"><ele>270.8</ele><time>2026-05-03T15:55:32Z</time></trkpt><trkpt lat="43.254306326341045" lon="11.710488402024119"><ele>271.0</ele><time>2026-05-03T15:55:33Z</time></trkpt><trkpt lat="43.25429931805198" lon="11.710348029951401"><ele>270.5</ele><time>2026-05-03T15:55:34Z</time></trkpt><trkpt lat="43.25429205958551" lon="11.710195335461158"><ele>270.0</ele><time>2026-05-03T15:55:35Z</time></trkpt><trkpt lat="43.25428889181491" lon="11.710022417525417"><ele>269.5</ele><time>2026-05-03T15:55:36Z</time></trkpt><trkpt lat="43.25428841801627" lon="11.709842560490982"><ele>269.0</ele><time>2026-05-03T15:55:37Z</time></trkpt><trkpt lat="43.25428387420014" lon="11.709649265235868"><ele>269.0</ele><time>2026-05-03T15:55:38Z</time></trkpt><trkpt lat="43.25428129528172" lon="11.709445360559306"><ele>269.0</ele><time>2026-05-03T15:55:39Z</time></trkpt><trkpt lat="43.25427515238462" lon="11.709243303200124"><ele>269.0</ele><time>2026-05-03T15:55:40Z</time></trkpt><trkpt lat="43.25427364994356" lon="11.709037264197828"><ele>269.0</ele><time>2026-05-03T15:55:41Z</time></trkpt><trkpt lat="43.25428160967141" lon="11.708833137243902"><ele>269.33333333333337</ele><time>2026-05-03T15:55:42Z</time></trkpt><trkpt lat="43.2542988027418" lon="11.708625978083472"><ele>269.6666666666667</ele><time>2026-05-03T15:55:43Z</time></trkpt><trkpt lat="43.25433286480968" lon="11.70840626522054"><ele>270.0</ele><time>2026-05-03T15:55:44Z</time></trkpt><trkpt lat="43.25437685139025" lon="11.708181199371788"><ele>270.3333333333333</ele><time>2026-05-03T15:55:45Z</time></trkpt><trkpt lat="43.25443014721453" lon="11.707954659532275"><ele>270.66666666666663</ele><time>2026-05-03T15:55:46Z</time></trkpt><trkpt lat="43.25447824964774" lon="11.70773440151874"><ele>271.0</ele><time>2026-05-03T15:55:47Z</time></trkpt><trkpt lat="43.25452739363243" lon="11.707497325462743"><ele>272.0</ele><time>2026-05-03T15:55:48Z</time></trkpt><trkpt lat="43.254579477301796" lon="11.707258599688574"><ele>273.0</ele><time>2026-05-03T15:55:49Z</time></trkpt><trkpt lat="43.25463424693014" lon="11.707016708770137"><ele>274.0</ele><time>2026-05-03T15:55:50Z</time></trkpt><trkpt lat="43.254692414931704" lon="11.706782458562984"><ele>273.66666666666663</ele><time>2026-05-03T15:55:51Z</time></trkpt><trkpt lat="43.254747202939036" lon="11.706568828223856"><ele>273.3333333333333</ele><time>2026-05-03T15:55:52Z</time></trkpt><trkpt lat="43.254802827992414" lon="11.706373562067528"><ele>273.0</ele><time>2026-05-03T15:55:53Z</time></trkpt><trkpt lat="43.254858087238986" lon="11.706197718848257"><ele>273.75</ele><time>2026-05-03T15:55:54Z</time></trkpt><trkpt lat="43.254917258385966" lon="11.706042194486823"><ele>274.5</ele><time>2026-05-03T15:55:55Z</time></trkpt><trkpt lat="43.25498748125834" lon="11.705902123471752"><ele>275.25</ele><time>2026-05-03T15:55:56Z</time></trkpt><trkpt lat="43.25506699384956" lon="11.70579251685002"><ele>276.0</ele><time>2026-05-03T15:55:57Z</time></trkpt><trkpt lat="43.25516933400438" lon="11.705695325308875"><ele>276.0</ele><time>2026-05-03T15:55:58Z</time></trkpt><trkpt lat="43.25526996178359" lon="11.70562176887237"><ele>276.0</ele><time>2026-05-03T15:55:59Z</time></trkpt><trkpt lat="43.255374467815784" lon="11.705572460688648"><ele>276.0</ele><time>2026-05-03T15:56:00Z</time></trkpt><trkpt lat="43.255482155267906" lon="11.705545171250801"><ele>276.0</ele><time>2026-05-03T15:56:01Z</time></trkpt><trkpt lat="43.25559411639876" lon="11.705567711297439"><ele>276.0</ele><time>2026-05-03T15:56:02Z</time></trkpt><trkpt lat="43.25571340808552" lon="11.705558376533865"><ele>275.5</ele><time>2026-05-03T15:56:03Z</time></trkpt><trkpt lat="43.255831769063136" lon="11.70557780539159"><ele>275.0</ele><time>2026-05-03T15:56:04Z</time></trkpt><trkpt lat="43.25595095887186" lon="11.705595704089495"><ele>274.5</ele><time>2026-05-03T15:56:05Z</time></trkpt><trkpt lat="43.25606840499272" lon="11.705613789511853"><ele>274.0</ele><time>2026-05-03T15:56:06Z</time></trkpt><trkpt lat="43.25618900456094" lon="11.705629889317072"><ele>274.0</ele><time>2026-05-03T15:56:07Z</time></trkpt><trkpt lat="43.256300851556155" lon="11.705645308159069"><ele>274.0</ele><time>2026-05-03T15:56:08Z</time></trkpt><trkpt lat="43.256493887172844" lon="11.705671947300434"><ele>274.0</ele><time>2026-05-03T15:56:10Z</time></trkpt><trkpt lat="43.25658188327646" lon="11.705681232119911"><ele>274.0</ele><time>2026-05-03T15:56:11Z</time></trkpt><trkpt lat="43.25666582509366" lon="11.705695272789772"><ele>274.0</ele><time>2026-05-03T15:56:12Z</time></trkpt><trkpt lat="43.25674618721301" lon="11.705708762157311"><ele>274.0</ele><time>2026-05-03T15:56:13Z</time></trkpt><trkpt lat="43.25681763876161" lon="11.705716710774468"><ele>274.0</ele><time>2026-05-03T15:56:14Z</time></trkpt><trkpt lat="43.2568816828071" lon="11.705732363581813"><ele>274.0</ele><time>2026-05-03T15:56:15Z</time></trkpt><trkpt lat="43.256987787118526" lon="11.705774417563006"><ele>274.0</ele><time>2026-05-03T15:56:17Z</time></trkpt><trkpt lat="43.25706140575508" lon="11.705890318681393"><ele>274.0</ele><time>2026-05-03T15:56:19Z</time></trkpt><trkpt lat="43.25707175154685" lon="11.705984422868905"><ele>273.8333333333333</ele><time>2026-05-03T15:56:20Z</time></trkpt><trkpt lat="43.257068221556096" lon="11.706084154056418"><ele>273.66666666666663</ele><time>2026-05-03T15:56:21Z</time></trkpt><trkpt lat="43.25706002740179" lon="11.706187553332043"><ele>273.5</ele><time>2026-05-03T15:56:22Z</time></trkpt><trkpt lat="43.25705309126414" lon="11.706288640377224"><ele>273.3333333333333</ele><time>2026-05-03T15:56:23Z</time></trkpt><trkpt lat="43.25704408467948" lon="11.706395087358521"><ele>273.1666666666667</ele><time>2026-05-03T15:56:24Z</time></trkpt><trkpt lat="43.257036379351604" lon="11.706511620696617"><ele>273.0</ele><time>2026-05-03T15:56:25Z</time></trkpt><trkpt lat="43.25702860437535" lon="11.706643794601522"><ele>273.0</ele><time>2026-05-03T15:56:26Z</time></trkpt><trkpt lat="43.25701625908355" lon="11.706778606458013"><ele>273.0</ele><time>2026-05-03T15:56:27Z</time></trkpt><trkpt lat="43.257005235420536" lon="11.706912467549925"><ele>273.0</ele><time>2026-05-03T15:56:28Z</time></trkpt><trkpt lat="43.25699411657225" lon="11.707053234341807"><ele>273.0</ele><time>2026-05-03T15:56:29Z</time></trkpt><trkpt lat="43.25698072925938" lon="11.707193765097708"><ele>273.0</ele><time>2026-05-03T15:56:30Z</time></trkpt><trkpt lat="43.2569678043674" lon="11.70733589284709"><ele>273.0</ele><time>2026-05-03T15:56:31Z</time></trkpt><trkpt lat="43.256952116580734" lon="11.707490827763637"><ele>273.0</ele><time>2026-05-03T15:56:32Z</time></trkpt><trkpt lat="43.256941501686796" lon="11.70764320566568"><ele>273.0</ele><time>2026-05-03T15:56:33Z</time></trkpt><trkpt lat="43.25693597238794" lon="11.70780544016479"><ele>273.0</ele><time>2026-05-03T15:56:34Z</time></trkpt><trkpt lat="43.256917669848725" lon="11.707964622422509"><ele>273.0</ele><time>2026-05-03T15:56:35Z</time></trkpt><trkpt lat="43.256941782506814" lon="11.70812460217485"><ele>273.0</ele><time>2026-05-03T15:56:36Z</time></trkpt><trkpt lat="43.25699380110268" lon="11.708282586798726"><ele>273.0</ele><time>2026-05-03T15:56:37Z</time></trkpt><trkpt lat="43.257076957493794" lon="11.708425590877416"><ele>273.0</ele><time>2026-05-03T15:56:38Z</time></trkpt><trkpt lat="43.25718004386737" lon="11.708551239928658"><ele>272.5</ele><time>2026-05-03T15:56:39Z</time></trkpt><trkpt lat="43.25729433278819" lon="11.708671977830805"><ele>272.0</ele><time>2026-05-03T15:56:40Z</time></trkpt><trkpt lat="43.25741934670849" lon="11.708781159950016"><ele>271.5</ele><time>2026-05-03T15:56:41Z</time></trkpt><trkpt lat="43.25752665907357" lon="11.708933390177348"><ele>271.0</ele><time>2026-05-03T15:56:42Z</time></trkpt><trkpt lat="43.257644360972385" lon="11.70907724307373"><ele>271.0</ele><time>2026-05-03T15:56:43Z</time></trkpt><trkpt lat="43.25776229220022" lon="11.709226718441462"><ele>271.0</ele><time>2026-05-03T15:56:44Z</time></trkpt><trkpt lat="43.25788692128649" lon="11.709384683183435"><ele>271.0</ele><time>2026-05-03T15:56:45Z</time></trkpt><trkpt lat="43.258013518404766" lon="11.709540667270605"><ele>270.0</ele><time>2026-05-03T15:56:46Z</time></trkpt><trkpt lat="43.25815513773346" lon="11.709685453896295"><ele>269.0</ele><time>2026-05-03T15:56:47Z</time></trkpt><trkpt lat="43.25828882303971" lon="11.709842168335685"><ele>268.0</ele><time>2026-05-03T15:56:48Z</time></trkpt><trkpt lat="43.258417313047325" lon="11.70999911678242"><ele>268.0</ele><time>2026-05-03T15:56:49Z</time></trkpt><trkpt lat="43.25854711101163" lon="11.710159360734972"><ele>268.0</ele><time>2026-05-03T15:56:50Z</time></trkpt><trkpt lat="43.25868261948888" lon="11.710321446430097"><ele>268.0</ele><time>2026-05-03T15:56:51Z</time></trkpt><trkpt lat="43.25882881865107" lon="11.710492071957953"><ele>268.3333333333333</ele><time>2026-05-03T15:56:52Z</time></trkpt><trkpt lat="43.25897250453122" lon="11.710670739608942"><ele>268.6666666666667</ele><time>2026-05-03T15:56:53Z</time></trkpt><trkpt lat="43.25911916451718" lon="11.710855769843242"><ele>269.0</ele><time>2026-05-03T15:56:54Z</time></trkpt><trkpt lat="43.259266647427786" lon="11.711049273657087"><ele>268.6666666666667</ele><time>2026-05-03T15:56:55Z</time></trkpt><trkpt lat="43.25941684940428" lon="11.711236085662383"><ele>268.3333333333333</ele><time>2026-05-03T15:56:56Z</time></trkpt><trkpt lat="43.2595724484703" lon="11.7114305696435"><ele>268.0</ele><time>2026-05-03T15:56:57Z</time></trkpt><trkpt lat="43.25972832550914" lon="11.711618014741365"><ele>268.0</ele><time>2026-05-03T15:56:58Z</time></trkpt><trkpt lat="43.2598832264604" lon="11.711816261765495"><ele>268.0</ele><time>2026-05-03T15:56:59Z</time></trkpt><trkpt lat="43.260037927024015" lon="11.712007539152355"><ele>268.0</ele><time>2026-05-03T15:57:00Z</time></trkpt><trkpt lat="43.26019494105739" lon="11.712194386259387"><ele>268.0</ele><time>2026-05-03T15:57:01Z</time></trkpt><trkpt lat="43.2603628055664" lon="11.71238007631655"><ele>268.0</ele><time>2026-05-03T15:57:02Z</time></trkpt><trkpt lat="43.26053571321588" lon="11.712570692658145"><ele>268.0</ele><time>2026-05-03T15:57:03Z</time></trkpt><trkpt lat="43.260729962944374" lon="11.712723587555306"><ele>267.0</ele><time>2026-05-03T15:57:04Z</time></trkpt><trkpt lat="43.26093553929271" lon="11.712857355365006"><ele>266.0</ele><time>2026-05-03T15:57:05Z</time></trkpt><trkpt lat="43.26114789750343" lon="11.712977482407968"><ele>266.0</ele><time>2026-05-03T15:57:06Z</time></trkpt><trkpt lat="43.26136319947832" lon="11.713098176294334"><ele>266.0</ele><time>2026-05-03T15:57:07Z</time></trkpt><trkpt lat="43.261586322290725" lon="11.713199640153185"><ele>266.5</ele><time>2026-05-03T15:57:08Z</time></trkpt><trkpt lat="43.261796301568054" lon="11.713341242364033"><ele>267.0</ele><time>2026-05-03T15:57:09Z</time></trkpt><trkpt lat="43.26200949881187" lon="11.713461501417548"><ele>267.0</ele><time>2026-05-03T15:57:10Z</time></trkpt><trkpt lat="43.26222491304859" lon="11.713583011022322"><ele>267.0</ele><time>2026-05-03T15:57:11Z</time></trkpt><trkpt lat="43.26243626782251" lon="11.713703698203302"><ele>267.5</ele><time>2026-05-03T15:57:12Z</time></trkpt><trkpt lat="43.26264787740929" lon="11.713825347626198"><ele>268.0</ele><time>2026-05-03T15:57:13Z</time></trkpt><trkpt lat="43.262856938780395" lon="11.713943457127808"><ele>268.0</ele><time>2026-05-03T15:57:14Z</time></trkpt><trkpt lat="43.26306554367547" lon="11.714062422767833"><ele>268.0</ele><time>2026-05-03T15:57:15Z</time></trkpt><trkpt lat="43.26327273604843" lon="11.714178855341013"><ele>268.0</ele><time>2026-05-03T15:57:16Z</time></trkpt><trkpt lat="43.26347672724204" lon="11.71429521528017"><ele>268.0</ele><time>2026-05-03T15:57:17Z</time></trkpt><trkpt lat="43.26367752579218" lon="11.714413058608338"><ele>268.0</ele><time>2026-05-03T15:57:18Z</time></trkpt><trkpt lat="43.26387315084762" lon="11.714534180285318"><ele>268.66666666666663</ele><time>2026-05-03T15:57:19Z</time></trkpt><trkpt lat="43.26406820722222" lon="11.714651261540865"><ele>269.3333333333333</ele><time>2026-05-03T15:57:20Z</time></trkpt><trkpt lat="43.26424022275158" lon="11.714838972154865"><ele>270.0</ele><time>2026-05-03T15:57:21Z</time></trkpt><trkpt lat="43.264419823729284" lon="11.715033303407562"><ele>270.0</ele><time>2026-05-03T15:57:22Z</time></trkpt><trkpt lat="43.264603813375544" lon="11.715211263082168"><ele>270.0</ele><time>2026-05-03T15:57:23Z</time></trkpt><trkpt lat="43.264765725331365" lon="11.715412735457639"><ele>270.0</ele><time>2026-05-03T15:57:24Z</time></trkpt><trkpt lat="43.26493496608669" lon="11.715602549214555"><ele>270.3333333333333</ele><time>2026-05-03T15:57:25Z</time></trkpt><trkpt lat="43.26510066444554" lon="11.715787607783394"><ele>270.66666666666663</ele><time>2026-05-03T15:57:26Z</time></trkpt><trkpt lat="43.26526528324508" lon="11.71597032991421"><ele>271.0</ele><time>2026-05-03T15:57:27Z</time></trkpt><trkpt lat="43.265426339724485" lon="11.716146323157673"><ele>271.0</ele><time>2026-05-03T15:57:28Z</time></trkpt><trkpt lat="43.26558340907354" lon="11.716323567774877"><ele>271.0</ele><time>2026-05-03T15:57:29Z</time></trkpt><trkpt lat="43.26573968876116" lon="11.716499662944912"><ele>271.0</ele><time>2026-05-03T15:57:30Z</time></trkpt><trkpt lat="43.26586493405664" lon="11.71670001151839"><ele>270.66666666666663</ele><time>2026-05-03T15:57:31Z</time></trkpt><trkpt lat="43.26595920585136" lon="11.716936134283145"><ele>270.3333333333333</ele><time>2026-05-03T15:57:32Z</time></trkpt><trkpt lat="43.26604759268633" lon="11.717192527700053"><ele>270.0</ele><time>2026-05-03T15:57:33Z</time></trkpt><trkpt lat="43.26612736220694" lon="11.717452770420733"><ele>270.0</ele><time>2026-05-03T15:57:34Z</time></trkpt><trkpt lat="43.26620442348421" lon="11.717711359129446"><ele>270.0</ele><time>2026-05-03T15:57:35Z</time></trkpt><trkpt lat="43.26628489299131" lon="11.717962164512343"><ele>270.0</ele><time>2026-05-03T15:57:36Z</time></trkpt><trkpt lat="43.26637123820922" lon="11.71819522135592"><ele>270.0</ele><time>2026-05-03T15:57:37Z</time></trkpt><trkpt lat="43.26647483403502" lon="11.718393280635587"><ele>270.0</ele><time>2026-05-03T15:57:38Z</time></trkpt><trkpt lat="43.26660577747194" lon="11.718566418206585"><ele>270.0</ele><time>2026-05-03T15:57:39Z</time></trkpt><trkpt lat="43.266754292472136" lon="11.718715485497523"><ele>270.0</ele><time>2026-05-03T15:57:40Z</time></trkpt><trkpt lat="43.266909500510565" lon="11.71884818259808"><ele>270.0</ele><time>2026-05-03T15:57:41Z</time></trkpt><trkpt lat="43.267056036462364" lon="11.718958722549925"><ele>270.0</ele><time>2026-05-03T15:57:42Z</time></trkpt><trkpt lat="43.267198147640606" lon="11.719067428320841"><ele>270.0</ele><time>2026-05-03T15:57:43Z</time></trkpt><trkpt lat="43.26733358867983" lon="11.719188682728197"><ele>270.0</ele><time>2026-05-03T15:57:44Z</time></trkpt><trkpt lat="43.26745859707604" lon="11.719337272431655"><ele>270.0</ele><time>2026-05-03T15:57:45Z</time></trkpt><trkpt lat="43.26756217739246" lon="11.719506763029056"><ele>270.0</ele><time>2026-05-03T15:57:46Z</time></trkpt><trkpt lat="43.267657371442986" lon="11.719687534846965"><ele>270.0</ele><time>2026-05-03T15:57:47Z</time></trkpt><trkpt lat="43.26774729849931" lon="11.71987843694858"><ele>270.0</ele><time>2026-05-03T15:57:48Z</time></trkpt><trkpt lat="43.26782920781035" lon="11.720092069452448"><ele>269.6666666666667</ele><time>2026-05-03T15:57:49Z</time></trkpt><trkpt lat="43.2679001066903" lon="11.720322423855217"><ele>269.33333333333337</ele><time>2026-05-03T15:57:50Z</time></trkpt><trkpt lat="43.267962528233916" lon="11.72057647238722"><ele>269.0</ele><time>2026-05-03T15:57:51Z</time></trkpt><trkpt lat="43.26801016455849" lon="11.720850282895363"><ele>269.0</ele><time>2026-05-03T15:57:52Z</time></trkpt><trkpt lat="43.26805642039215" lon="11.721125881737501"><ele>269.0</ele><time>2026-05-03T15:57:53Z</time></trkpt><trkpt lat="43.26810445401896" lon="11.721408594883128"><ele>269.0</ele><time>2026-05-03T15:57:54Z</time></trkpt><trkpt lat="43.26818169555399" lon="11.721686645229372"><ele>269.6666666666667</ele><time>2026-05-03T15:57:55Z</time></trkpt><trkpt lat="43.2682291902101" lon="11.721967107339436"><ele>270.3333333333333</ele><time>2026-05-03T15:57:56Z</time></trkpt><trkpt lat="43.268267484990005" lon="11.722254033143958"><ele>271.0</ele><time>2026-05-03T15:57:57Z</time></trkpt><trkpt lat="43.26829181062943" lon="11.722544045893311"><ele>271.0</ele><time>2026-05-03T15:57:58Z</time></trkpt><trkpt lat="43.268301391422455" lon="11.722828332216677"><ele>271.0</ele><time>2026-05-03T15:57:59Z</time></trkpt><trkpt lat="43.26830745953529" lon="11.723088428943239"><ele>271.0</ele><time>2026-05-03T15:58:00Z</time></trkpt><trkpt lat="43.26831666751633" lon="11.723344022216217"><ele>271.0</ele><time>2026-05-03T15:58:01Z</time></trkpt><trkpt lat="43.268338776827655" lon="11.723592079605403"><ele>271.0</ele><time>2026-05-03T15:58:02Z</time></trkpt><trkpt lat="43.268335632234404" lon="11.72384445610401"><ele>271.0</ele><time>2026-05-03T15:58:03Z</time></trkpt><trkpt lat="43.26837847600811" lon="11.724093079360914"><ele>271.0</ele><time>2026-05-03T15:58:04Z</time></trkpt><trkpt lat="43.26842572937314" lon="11.724335328152534"><ele>271.0</ele><time>2026-05-03T15:58:05Z</time></trkpt><trkpt lat="43.26847696421468" lon="11.724579443574779"><ele>271.0</ele><time>2026-05-03T15:58:06Z</time></trkpt><trkpt lat="43.268527747333714" lon="11.724822302342101"><ele>270.66666666666663</ele><time>2026-05-03T15:58:07Z</time></trkpt><trkpt lat="43.268579643640045" lon="11.725070047111275"><ele>270.3333333333333</ele><time>2026-05-03T15:58:08Z</time></trkpt><trkpt lat="43.26863146587124" lon="11.725319813092208"><ele>270.0</ele><time>2026-05-03T15:58:09Z</time></trkpt><trkpt lat="43.2686841455213" lon="11.725573711532542"><ele>270.0</ele><time>2026-05-03T15:58:10Z</time></trkpt><trkpt lat="43.26873620188213" lon="11.725821887230248"><ele>270.0</ele><time>2026-05-03T15:58:11Z</time></trkpt><trkpt lat="43.268785992433855" lon="11.726055587550846"><ele>270.0</ele><time>2026-05-03T15:58:12Z</time></trkpt><trkpt lat="43.26883341185216" lon="11.726278158659822"><ele>270.0</ele><time>2026-05-03T15:58:13Z</time></trkpt><trkpt lat="43.268878464237154" lon="11.726489619582036"><ele>270.0</ele><time>2026-05-03T15:58:14Z</time></trkpt><trkpt lat="43.268921890470295" lon="11.726693447968412"><ele>270.0</ele><time>2026-05-03T15:58:15Z</time></trkpt><trkpt lat="43.268961551205074" lon="11.72687900350225"><ele>270.2</ele><time>2026-05-03T15:58:16Z</time></trkpt><trkpt lat="43.26899817949944" lon="11.727045005089009"><ele>270.4</ele><time>2026-05-03T15:58:17Z</time></trkpt><trkpt lat="43.26903034030805" lon="11.727194821197667"><ele>270.6</ele><time>2026-05-03T15:58:18Z</time></trkpt><trkpt lat="43.26906749631681" lon="11.727330748231237"><ele>270.8</ele><time>2026-05-03T15:58:19Z</time></trkpt><trkpt lat="43.26905584868048" lon="11.727460931993498"><ele>271.0</ele><time>2026-05-03T15:58:20Z</time></trkpt><trkpt lat="43.269029703542095" lon="11.727582297570045"><ele>271.0</ele><time>2026-05-03T15:58:21Z</time></trkpt><trkpt lat="43.26899620696348" lon="11.727706279492516"><ele>271.0</ele><time>2026-05-03T15:58:22Z</time></trkpt><trkpt lat="43.26898674636271" lon="11.727832921507916"><ele>271.0</ele><time>2026-05-03T15:58:23Z</time></trkpt><trkpt lat="43.26898035837139" lon="11.72796189662402"><ele>271.0</ele><time>2026-05-03T15:58:24Z</time></trkpt><trkpt lat="43.269031232703554" lon="11.72807105261021"><ele>271.0</ele><time>2026-05-03T15:58:25Z</time></trkpt><trkpt lat="43.26912235359244" lon="11.728126169615809"><ele>271.5</ele><time>2026-05-03T15:58:26Z</time></trkpt><trkpt lat="43.26919566113427" lon="11.728205590259856"><ele>272.0</ele><time>2026-05-03T15:58:27Z</time></trkpt><trkpt lat="43.26926558800836" lon="11.728307120984299"><ele>272.5</ele><time>2026-05-03T15:58:28Z</time></trkpt><trkpt lat="43.26932132511156" lon="11.728457953657704"><ele>273.0</ele><time>2026-05-03T15:58:29Z</time></trkpt><trkpt lat="43.26933954274122" lon="11.728651006800236"><ele>274.0</ele><time>2026-05-03T15:58:30Z</time></trkpt><trkpt lat="43.269381748644875" lon="11.728849605678436"><ele>275.0</ele><time>2026-05-03T15:58:31Z</time></trkpt><trkpt lat="43.2694256897342" lon="11.729060865146224"><ele>276.0</ele><time>2026-05-03T15:58:32Z</time></trkpt><trkpt lat="43.2694731226208" lon="11.729289013254315"><ele>276.3333333333333</ele><time>2026-05-03T15:58:33Z</time></trkpt><trkpt lat="43.26952207140952" lon="11.729524452695136"><ele>276.66666666666663</ele><time>2026-05-03T15:58:34Z</time></trkpt><trkpt lat="43.26956971531738" lon="11.729753615761439"><ele>277.0</ele><time>2026-05-03T15:58:35Z</time></trkpt><trkpt lat="43.26961363622958" lon="11.729964870778756"><ele>277.0</ele><time>2026-05-03T15:58:36Z</time></trkpt><trkpt lat="43.26965246753738" lon="11.730158427131004"><ele>277.0</ele><time>2026-05-03T15:58:37Z</time></trkpt><trkpt lat="43.26969199555806" lon="11.730342614062392"><ele>277.0</ele><time>2026-05-03T15:58:38Z</time></trkpt><trkpt lat="43.26974134910557" lon="11.730524749332245"><ele>277.0</ele><time>2026-05-03T15:58:39Z</time></trkpt><trkpt lat="43.26981386237784" lon="11.730705659649036"><ele>278.0</ele><time>2026-05-03T15:58:40Z</time></trkpt><trkpt lat="43.269921436063235" lon="11.730884541941622"><ele>279.0</ele><time>2026-05-03T15:58:41Z</time></trkpt><trkpt lat="43.27004710370711" lon="11.731030447322393"><ele>280.0</ele><time>2026-05-03T15:58:42Z</time></trkpt><trkpt lat="43.27017766837726" lon="11.731167705478953"><ele>280.66666666666663</ele><time>2026-05-03T15:58:43Z</time></trkpt><trkpt lat="43.27030098181298" lon="11.731309136543512"><ele>281.3333333333333</ele><time>2026-05-03T15:58:44Z</time></trkpt><trkpt lat="43.27040858775055" lon="11.731462563479429"><ele>282.0</ele><time>2026-05-03T15:58:45Z</time></trkpt><trkpt lat="43.270509087931295" lon="11.731640842582566"><ele>282.0</ele><time>2026-05-03T15:58:46Z</time></trkpt><trkpt lat="43.2705990959996" lon="11.731835973326794"><ele>282.0</ele><time>2026-05-03T15:58:47Z</time></trkpt><trkpt lat="43.27066958014178" lon="11.732038697502073"><ele>282.0</ele><time>2026-05-03T15:58:48Z</time></trkpt><trkpt lat="43.27071434115874" lon="11.732252746278133"><ele>283.0</ele><time>2026-05-03T15:58:49Z</time></trkpt><trkpt lat="43.27074349494371" lon="11.732464886377132"><ele>284.0</ele><time>2026-05-03T15:58:50Z</time></trkpt><trkpt lat="43.27079813088764" lon="11.732676395499162"><ele>285.0</ele><time>2026-05-03T15:58:51Z</time></trkpt><trkpt lat="43.27081924381254" lon="11.732883201176284"><ele>285.75</ele><time>2026-05-03T15:58:52Z</time></trkpt><trkpt lat="43.27084099862088" lon="11.733070592710217"><ele>286.5</ele><time>2026-05-03T15:58:53Z</time></trkpt><trkpt lat="43.270864971802624" lon="11.733241111374117"><ele>287.25</ele><time>2026-05-03T15:58:54Z</time></trkpt><trkpt lat="43.27088206395759" lon="11.73340664951027"><ele>288.0</ele><time>2026-05-03T15:58:55Z</time></trkpt><trkpt lat="43.27088952178427" lon="11.733555494007872"><ele>289.75</ele><time>2026-05-03T15:58:56Z</time></trkpt><trkpt lat="43.27086682427483" lon="11.733699625765585"><ele>291.5</ele><time>2026-05-03T15:58:57Z</time></trkpt><trkpt lat="43.270813813061956" lon="11.733821236903008"><ele>293.25</ele><time>2026-05-03T15:58:58Z</time></trkpt><trkpt lat="43.27073280640062" lon="11.733926553498412"><ele>295.0</ele><time>2026-05-03T15:58:59Z</time></trkpt><trkpt lat="43.27062084139002" lon="11.734014832239215"><ele>294.75</ele><time>2026-05-03T15:59:00Z</time></trkpt><trkpt lat="43.27050129693185" lon="11.734106193694544"><ele>294.5</ele><time>2026-05-03T15:59:01Z</time></trkpt><trkpt lat="43.270374458389384" lon="11.734198616851035"><ele>294.25</ele><time>2026-05-03T15:59:02Z</time></trkpt><trkpt lat="43.270242269035236" lon="11.734287465996069"><ele>294.0</ele><time>2026-05-03T15:59:03Z</time></trkpt><trkpt lat="43.270101656959476" lon="11.734356708694909"><ele>294.75</ele><time>2026-05-03T15:59:04Z</time></trkpt><trkpt lat="43.269963017147134" lon="11.734394825287291"><ele>295.5</ele><time>2026-05-03T15:59:05Z</time></trkpt><trkpt lat="43.26983583747182" lon="11.734406442845849"><ele>296.25</ele><time>2026-05-03T15:59:06Z</time></trkpt><trkpt lat="43.26970873154655" lon="11.734413806648854"><ele>297.0</ele><time>2026-05-03T15:59:07Z</time></trkpt><trkpt lat="43.26960132134971" lon="11.734445481575408"><ele>297.0</ele><time>2026-05-03T15:59:08Z</time></trkpt><trkpt lat="43.26950889470881" lon="11.734511432238735"><ele>297.0</ele><time>2026-05-03T15:59:09Z</time></trkpt><trkpt lat="43.26942345357699" lon="11.734604306083533"><ele>297.0</ele><time>2026-05-03T15:59:10Z</time></trkpt><trkpt lat="43.26935808488881" lon="11.734728879504242"><ele>297.0</ele><time>2026-05-03T15:59:11Z</time></trkpt><trkpt lat="43.26931298789634" lon="11.73487089405376"><ele>297.0</ele><time>2026-05-03T15:59:12Z</time></trkpt><trkpt lat="43.26929414995799" lon="11.735020771754995"><ele>297.0</ele><time>2026-05-03T15:59:13Z</time></trkpt><trkpt lat="43.26930646266849" lon="11.735172694233153"><ele>297.0</ele><time>2026-05-03T15:59:14Z</time></trkpt><trkpt lat="43.26934827968596" lon="11.735313434538831"><ele>297.0</ele><time>2026-05-03T15:59:15Z</time></trkpt><trkpt lat="43.26941580256774" lon="11.735435279452586"><ele>297.0</ele><time>2026-05-03T15:59:16Z</time></trkpt><trkpt lat="43.269508995855745" lon="11.735537800959568"><ele>297.0</ele><time>2026-05-03T15:59:17Z</time></trkpt><trkpt lat="43.26962547140724" lon="11.735629557452825"><ele>297.0</ele><time>2026-05-03T15:59:18Z</time></trkpt><trkpt lat="43.26975575856242" lon="11.735718109316656"><ele>297.0</ele><time>2026-05-03T15:59:19Z</time></trkpt><trkpt lat="43.26988957571535" lon="11.735801532872424"><ele>297.0</ele><time>2026-05-03T15:59:20Z</time></trkpt><trkpt lat="43.27001091289186" lon="11.735923145353187"><ele>298.5</ele><time>2026-05-03T15:59:21Z</time></trkpt><trkpt lat="43.270143484574255" lon="11.736006477652067"><ele>300.0</ele><time>2026-05-03T15:59:22Z</time></trkpt><trkpt lat="43.270265017389" lon="11.736104898187909"><ele>301.5</ele><time>2026-05-03T15:59:23Z</time></trkpt><trkpt lat="43.27037527003944" lon="11.736240681213081"><ele>303.0</ele><time>2026-05-03T15:59:24Z</time></trkpt><trkpt lat="43.2704619095675" lon="11.736400602039021"><ele>303.0</ele><time>2026-05-03T15:59:25Z</time></trkpt><trkpt lat="43.27052877360291" lon="11.736568935876933"><ele>303.0</ele><time>2026-05-03T15:59:26Z</time></trkpt><trkpt lat="43.270587285119426" lon="11.73675148216861"><ele>303.0</ele><time>2026-05-03T15:59:27Z</time></trkpt><trkpt lat="43.27058751665445" lon="11.736946173872644"><ele>303.0</ele><time>2026-05-03T15:59:28Z</time></trkpt><trkpt lat="43.27059587074687" lon="11.737134728552693"><ele>303.2</ele><time>2026-05-03T15:59:29Z</time></trkpt><trkpt lat="43.27060350805774" lon="11.73730526173626"><ele>303.4</ele><time>2026-05-03T15:59:30Z</time></trkpt><trkpt lat="43.270612948731696" lon="11.737452651592633"><ele>303.59999999999997</ele><time>2026-05-03T15:59:31Z</time></trkpt><trkpt lat="43.27062986114251" lon="11.737595508211575"><ele>303.8</ele><time>2026-05-03T15:59:32Z</time></trkpt><trkpt lat="43.270671299949406" lon="11.737737223326707"><ele>304.0</ele><time>2026-05-03T15:59:33Z</time></trkpt><trkpt lat="43.2707481712742" lon="11.737857531272084"><ele>307.25</ele><time>2026-05-03T15:59:34Z</time></trkpt><trkpt lat="43.27084564964522" lon="11.737949735602724"><ele>310.5</ele><time>2026-05-03T15:59:35Z</time></trkpt><trkpt lat="43.270952197904286" lon="11.738016480807742"><ele>313.75</ele><time>2026-05-03T15:59:36Z</time></trkpt><trkpt lat="43.271055811634085" lon="11.738081913192298"><ele>317.0</ele><time>2026-05-03T15:59:37Z</time></trkpt><trkpt lat="43.2711449646166" lon="11.738167010794763"><ele>317.0</ele><time>2026-05-03T15:59:38Z</time></trkpt><trkpt lat="43.27119907425163" lon="11.738285740735716"><ele>317.0</ele><time>2026-05-03T15:59:39Z</time></trkpt><trkpt lat="43.271232434679355" lon="11.738419400759527"><ele>317.0</ele><time>2026-05-03T15:59:40Z</time></trkpt><trkpt lat="43.27124403987046" lon="11.73856201671139"><ele>317.0</ele><time>2026-05-03T15:59:41Z</time></trkpt><trkpt lat="43.271237131636894" lon="11.738700687764645"><ele>317.0</ele><time>2026-05-03T15:59:42Z</time></trkpt><trkpt lat="43.27122140823184" lon="11.738826083447437"><ele>318.6</ele><time>2026-05-03T15:59:43Z</time></trkpt><trkpt lat="43.27116325181982" lon="11.738932833567974"><ele>320.2</ele><time>2026-05-03T15:59:44Z</time></trkpt><trkpt lat="43.27108130285916" lon="11.739034287524442"><ele>321.8</ele><time>2026-05-03T15:59:45Z</time></trkpt><trkpt lat="43.270990599256564" lon="11.739116638111119"><ele>323.4</ele><time>2026-05-03T15:59:46Z</time></trkpt><trkpt lat="43.270880950832016" lon="11.739211883732995"><ele>325.0</ele><time>2026-05-03T15:59:47Z</time></trkpt><trkpt lat="43.27076856283325" lon="11.739308596489455"><ele>327.75</ele><time>2026-05-03T15:59:48Z</time></trkpt><trkpt lat="43.27065008250311" lon="11.739408027345714"><ele>330.5</ele><time>2026-05-03T15:59:49Z</time></trkpt><trkpt lat="43.27052476513689" lon="11.739512335793776"><ele>333.25</ele><time>2026-05-03T15:59:50Z</time></trkpt><trkpt lat="43.270390889242115" lon="11.739621642718864"><ele>336.0</ele><time>2026-05-03T15:59:51Z</time></trkpt><trkpt lat="43.27024386494547" lon="11.739731159610836"><ele>336.0</ele><time>2026-05-03T15:59:52Z</time></trkpt><trkpt lat="43.270085824630044" lon="11.739837923066599"><ele>336.0</ele><time>2026-05-03T15:59:53Z</time></trkpt><trkpt lat="43.26992406670096" lon="11.739941986096035"><ele>336.0</ele><time>2026-05-03T15:59:54Z</time></trkpt><trkpt lat="43.26975486134651" lon="11.740044629404204"><ele>334.3333333333333</ele><time>2026-05-03T15:59:55Z</time></trkpt><trkpt lat="43.26959479143968" lon="11.740150189863101"><ele>332.66666666666663</ele><time>2026-05-03T15:59:56Z</time></trkpt><trkpt lat="43.26944520866476" lon="11.740259758540168"><ele>331.0</ele><time>2026-05-03T15:59:57Z</time></trkpt><trkpt lat="43.26931484236733" lon="11.740387153164729"><ele>335.66666666666663</ele><time>2026-05-03T15:59:58Z</time></trkpt><trkpt lat="43.26920559000348" lon="11.740541499491151"><ele>340.3333333333333</ele><time>2026-05-03T15:59:59Z</time></trkpt><trkpt lat="43.26910799003337" lon="11.740711978172053"><ele>345.0</ele><time>2026-05-03T16:00:00Z</time></trkpt><trkpt lat="43.26901938464807" lon="11.74088925813987"><ele>344.5</ele><time>2026-05-03T16:00:01Z</time></trkpt><trkpt lat="43.26894343186391" lon="11.741069311388648"><ele>344.0</ele><time>2026-05-03T16:00:02Z</time></trkpt><trkpt lat="43.26887701657832" lon="11.741248664493726"><ele>343.5</ele><time>2026-05-03T16:00:03Z</time></trkpt><trkpt lat="43.26882431296584" lon="11.741423812379256"><ele>343.0</ele><time>2026-05-03T16:00:04Z</time></trkpt><trkpt lat="43.26878330850765" lon="11.741580980249646"><ele>343.0</ele><time>2026-05-03T16:00:05Z</time></trkpt><trkpt lat="43.268757105996926" lon="11.741715755524112"><ele>343.0</ele><time>2026-05-03T16:00:06Z</time></trkpt><trkpt lat="43.26874143136223" lon="11.741824083055217"><ele>343.0</ele><time>2026-05-03T16:00:07Z</time></trkpt><trkpt lat="43.26872903020946" lon="11.741913008580983"><ele>343.0</ele><time>2026-05-03T16:00:08Z</time></trkpt><trkpt lat="43.26871828783553" lon="11.742069074390228"><ele>343.0</ele><time>2026-05-03T16:00:10Z</time></trkpt><trkpt lat="43.26871586108234" lon="11.742156715270596"><ele>343.0</ele><time>2026-05-03T16:00:11Z</time></trkpt><trkpt lat="43.26872181116861" lon="11.742250352202815"><ele>343.4</ele><time>2026-05-03T16:00:12Z</time></trkpt><trkpt lat="43.26873973914826" lon="11.742350489172528"><ele>343.79999999999995</ele><time>2026-05-03T16:00:13Z</time></trkpt><trkpt lat="43.26874094777427" lon="11.742467484363853"><ele>344.2</ele><time>2026-05-03T16:00:14Z</time></trkpt><trkpt lat="43.26877335562476" lon="11.742584569573493"><ele>344.6</ele><time>2026-05-03T16:00:15Z</time></trkpt><trkpt lat="43.268826486682826" lon="11.74270291954292"><ele>345.0</ele><time>2026-05-03T16:00:16Z</time></trkpt><trkpt lat="43.26889798353978" lon="11.742806066013497"><ele>347.2</ele><time>2026-05-03T16:00:17Z</time></trkpt><trkpt lat="43.268988022266164" lon="11.74288928373732"><ele>349.4</ele><time>2026-05-03T16:00:18Z</time></trkpt><trkpt lat="43.269067663885615" lon="11.742949974539403"><ele>351.6</ele><time>2026-05-03T16:00:19Z</time></trkpt><trkpt lat="43.269145389116694" lon="11.743004046004836"><ele>353.8</ele><time>2026-05-03T16:00:20Z</time></trkpt><trkpt lat="43.269229610916554" lon="11.743063714829473"><ele>356.0</ele><time>2026-05-03T16:00:21Z</time></trkpt><trkpt lat="43.26931814281285" lon="11.74311841378297"><ele>356.0</ele><time>2026-05-03T16:00:22Z</time></trkpt><trkpt lat="43.2693970287827" lon="11.743168836464891"><ele>356.0</ele><time>2026-05-03T16:00:23Z</time></trkpt><trkpt lat="43.26947737749485" lon="11.743219958357951"><ele>356.0</ele><time>2026-05-03T16:00:24Z</time></trkpt><trkpt lat="43.269556044888404" lon="11.74326869332207"><ele>356.0</ele><time>2026-05-03T16:00:25Z</time></trkpt><trkpt lat="43.26962886595557" lon="11.743312900677177"><ele>356.0</ele><time>2026-05-03T16:00:26Z</time></trkpt><trkpt lat="43.26970285207913" lon="11.743357815283114"><ele>356.0</ele><time>2026-05-03T16:00:27Z</time></trkpt><trkpt lat="43.26977823870034" lon="11.743403552463606"><ele>356.33333333333337</ele><time>2026-05-03T16:00:28Z</time></trkpt><trkpt lat="43.2698625172059" lon="11.743432017253953"><ele>356.6666666666667</ele><time>2026-05-03T16:00:29Z</time></trkpt><trkpt lat="43.269935771380666" lon="11.743494482596585"><ele>357.0</ele><time>2026-05-03T16:00:30Z</time></trkpt><trkpt lat="43.270012568336575" lon="11.743542395482354"><ele>357.3333333333333</ele><time>2026-05-03T16:00:31Z</time></trkpt><trkpt lat="43.27008277362203" lon="11.74359043201316"><ele>357.66666666666663</ele><time>2026-05-03T16:00:32Z</time></trkpt><trkpt lat="43.270154926378495" lon="11.743633493953794"><ele>358.0</ele><time>2026-05-03T16:00:33Z</time></trkpt><trkpt lat="43.27023023885902" lon="11.74367784373058"><ele>358.0</ele><time>2026-05-03T16:00:34Z</time></trkpt><trkpt lat="43.27030849406773" lon="11.743727905780286"><ele>358.0</ele><time>2026-05-03T16:00:35Z</time></trkpt><trkpt lat="43.2703916011493" lon="11.74377428901724"><ele>358.0</ele><time>2026-05-03T16:00:36Z</time></trkpt><trkpt lat="43.270480744864926" lon="11.743831300439668"><ele>358.0</ele><time>2026-05-03T16:00:37Z</time></trkpt><trkpt lat="43.270585587433715" lon="11.743860417703551"><ele>358.0</ele><time>2026-05-03T16:00:38Z</time></trkpt><trkpt lat="43.27069870245266" lon="11.743885876662734"><ele>360.5</ele><time>2026-05-03T16:00:39Z</time></trkpt><trkpt lat="43.27082102517022" lon="11.743932031564471"><ele>363.0</ele><time>2026-05-03T16:00:40Z</time></trkpt><trkpt lat="43.270949120312736" lon="11.743967035745131"><ele>365.5</ele><time>2026-05-03T16:00:41Z</time></trkpt><trkpt lat="43.271081056140055" lon="11.744009381675594"><ele>368.0</ele><time>2026-05-03T16:00:42Z</time></trkpt><trkpt lat="43.27121720691355" lon="11.744048941159337"><ele>368.0</ele><time>2026-05-03T16:00:43Z</time></trkpt><trkpt lat="43.27134862765764" lon="11.74408758738653"><ele>368.0</ele><time>2026-05-03T16:00:44Z</time></trkpt><trkpt lat="43.271474995222896" lon="11.74413988282205"><ele>368.0</ele><time>2026-05-03T16:00:45Z</time></trkpt><trkpt lat="43.2715827684969" lon="11.744173371337451"><ele>368.0</ele><time>2026-05-03T16:00:46Z</time></trkpt><trkpt lat="43.27167698070116" lon="11.74420160755383"><ele>370.0</ele><time>2026-05-03T16:00:47Z</time></trkpt><trkpt lat="43.27175257771071" lon="11.744222906347709"><ele>372.0</ele><time>2026-05-03T16:00:48Z</time></trkpt><trkpt lat="43.27181780852727" lon="11.744239894230148"><ele>374.0</ele><time>2026-05-03T16:00:49Z</time></trkpt><trkpt lat="43.27188863884044" lon="11.74426407770732"><ele>376.0</ele><time>2026-05-03T16:00:50Z</time></trkpt><trkpt lat="43.27197510178354" lon="11.744304650018243"><ele>378.0</ele><time>2026-05-03T16:00:51Z</time></trkpt><trkpt lat="43.27207449431297" lon="11.744335494176044"><ele>380.0</ele><time>2026-05-03T16:00:52Z</time></trkpt><trkpt lat="43.2721772909138" lon="11.744368352883946"><ele>381.0</ele><time>2026-05-03T16:00:53Z</time></trkpt><trkpt lat="43.27227600422028" lon="11.744397299098956"><ele>382.0</ele><time>2026-05-03T16:00:54Z</time></trkpt><trkpt lat="43.27237115366101" lon="11.744422049394531"><ele>383.0</ele><time>2026-05-03T16:00:55Z</time></trkpt><trkpt lat="43.27246009699793" lon="11.744440094456186"><ele>384.0</ele><time>2026-05-03T16:00:56Z</time></trkpt><trkpt lat="43.27254455719316" lon="11.74444633801301"><ele>385.0</ele><time>2026-05-03T16:00:57Z</time></trkpt><trkpt lat="43.27262546977794" lon="11.744442196167656"><ele>384.6</ele><time>2026-05-03T16:00:58Z</time></trkpt><trkpt lat="43.2727023896045" lon="11.744374699346043"><ele>384.2</ele><time>2026-05-03T16:00:59Z</time></trkpt><trkpt lat="43.27278615921866" lon="11.744331257411954"><ele>383.79999999999995</ele><time>2026-05-03T16:01:00Z</time></trkpt><trkpt lat="43.272859823141026" lon="11.74428354100842"><ele>383.4</ele><time>2026-05-03T16:01:01Z</time></trkpt><trkpt lat="43.27291894584867" lon="11.744220399673594"><ele>383.0</ele><time>2026-05-03T16:01:02Z</time></trkpt><trkpt lat="43.27303637314886" lon="11.744216957328325"><ele>383.6666666666667</ele><time>2026-05-03T16:01:04Z</time></trkpt><trkpt lat="43.27313096907749" lon="11.744323377033126"><ele>384.33333333333337</ele><time>2026-05-03T16:01:06Z</time></trkpt><trkpt lat="43.27316782696604" lon="11.744409049752566"><ele>385.0</ele><time>2026-05-03T16:01:07Z</time></trkpt><trkpt lat="43.2732008942515" lon="11.744502455131737"><ele>385.6666666666667</ele><time>2026-05-03T16:01:08Z</time></trkpt><trkpt lat="43.27323289039968" lon="11.744579985105188"><ele>386.3333333333333</ele><time>2026-05-03T16:01:09Z</time></trkpt><trkpt lat="43.273280451157895" lon="11.744715858523504"><ele>387.0</ele><time>2026-05-03T16:01:11Z</time></trkpt><trkpt lat="43.273308371443015" lon="11.744804389134519"><ele>386.6</ele><time>2026-05-03T16:01:13Z</time></trkpt><trkpt lat="43.27320054774057" lon="11.744920994546096"><ele>386.20000000000005</ele><time>2026-05-03T16:01:16Z</time></trkpt><trkpt lat="43.273140443108275" lon="11.744971892171694"><ele>385.8</ele><time>2026-05-03T16:01:18Z</time></trkpt><trkpt lat="43.27306572346867" lon="11.745055049539237"><ele>385.4</ele><time>2026-05-03T16:01:21Z</time></trkpt><trkpt lat="43.2730397007052" lon="11.745208666965121"><ele>385.0</ele><time>2026-05-03T16:01:23Z</time></trkpt><trkpt lat="43.27305770879475" lon="11.745306296106255"><ele>384.1666666666667</ele><time>2026-05-03T16:01:24Z</time></trkpt><trkpt lat="43.273070956551095" lon="11.745397944975965"><ele>383.33333333333337</ele><time>2026-05-03T16:01:25Z</time></trkpt><trkpt lat="43.273104392284104" lon="11.745561143963435"><ele>382.5</ele><time>2026-05-03T16:01:27Z</time></trkpt><trkpt lat="43.273113425578536" lon="11.745650365391555"><ele>381.6666666666667</ele><time>2026-05-03T16:01:28Z</time></trkpt><trkpt lat="43.27313278892072" lon="11.74574772131691"><ele>380.83333333333337</ele><time>2026-05-03T16:01:29Z</time></trkpt><trkpt lat="43.27316016649315" lon="11.745846359018973"><ele>380.0</ele><time>2026-05-03T16:01:30Z</time></trkpt><trkpt lat="43.2731895987347" lon="11.745943659243109"><ele>381.33333333333337</ele><time>2026-05-03T16:01:31Z</time></trkpt><trkpt lat="43.27321012409686" lon="11.746041963920431"><ele>382.6666666666667</ele><time>2026-05-03T16:01:32Z</time></trkpt><trkpt lat="43.2732327740105" lon="11.74612882836586"><ele>384.0</ele><time>2026-05-03T16:01:33Z</time></trkpt><trkpt lat="43.27325553738544" lon="11.746213060310515"><ele>385.33333333333337</ele><time>2026-05-03T16:01:34Z</time></trkpt><trkpt lat="43.273294497265496" lon="11.746347787835122"><ele>386.6666666666667</ele><time>2026-05-03T16:01:36Z</time></trkpt><trkpt lat="43.27333238545657" lon="11.746472555901125"><ele>388.0</ele><time>2026-05-03T16:01:38Z</time></trkpt><trkpt lat="43.27336147809193" lon="11.746551683436785"><ele>388.00000000000006</ele><time>2026-05-03T16:01:39Z</time></trkpt><trkpt lat="43.27341133266823" lon="11.746629330657088"><ele>388.0</ele><time>2026-05-03T16:01:40Z</time></trkpt><trkpt lat="43.27347399440631" lon="11.746700688317949"><ele>388.0</ele><time>2026-05-03T16:01:41Z</time></trkpt><trkpt lat="43.27354457946199" lon="11.746772671850525"><ele>388.0</ele><time>2026-05-03T16:01:42Z</time></trkpt><trkpt lat="43.27362561565475" lon="11.746841501695409"><ele>388.00000000000006</ele><time>2026-05-03T16:01:43Z</time></trkpt><trkpt lat="43.27370773004946" lon="11.746925323086346"><ele>388.0</ele><time>2026-05-03T16:01:44Z</time></trkpt><trkpt lat="43.27378138579152" lon="11.74701230356113"><ele>387.1666666666667</ele><time>2026-05-03T16:01:45Z</time></trkpt><trkpt lat="43.27385333225216" lon="11.747097714180867"><ele>386.33333333333337</ele><time>2026-05-03T16:01:46Z</time></trkpt><trkpt lat="43.273923022670026" lon="11.747182391698892"><ele>385.5</ele><time>2026-05-03T16:01:47Z</time></trkpt><trkpt lat="43.27399360423193" lon="11.747261530574116"><ele>384.6666666666667</ele><time>2026-05-03T16:01:48Z</time></trkpt><trkpt lat="43.27406351703832" lon="11.747330131238286"><ele>383.83333333333337</ele><time>2026-05-03T16:01:49Z</time></trkpt><trkpt lat="43.27412709724164" lon="11.747400207487203"><ele>383.0</ele><time>2026-05-03T16:01:50Z</time></trkpt><trkpt lat="43.27417910603053" lon="11.74745911212842"><ele>383.0</ele><time>2026-05-03T16:01:51Z</time></trkpt><trkpt lat="43.27424284832335" lon="11.74757169062749"><ele>383.0</ele><time>2026-05-03T16:01:53Z</time></trkpt><trkpt lat="43.27423291268365" lon="11.747659368619821"><ele>383.0</ele><time>2026-05-03T16:01:55Z</time></trkpt><trkpt lat="43.27423820567357" lon="11.747750251056308"><ele>383.0</ele><time>2026-05-03T16:01:57Z</time></trkpt><trkpt lat="43.27434187082124" lon="11.747828562538423"><ele>383.0</ele><time>2026-05-03T16:01:58Z</time></trkpt><trkpt lat="43.274425345619335" lon="11.747867912527171"><ele>383.0</ele><time>2026-05-03T16:01:59Z</time></trkpt><trkpt lat="43.27451162593537" lon="11.74791059648717"><ele>381.79999999999995</ele><time>2026-05-03T16:02:00Z</time></trkpt><trkpt lat="43.27459852071763" lon="11.74795358431666"><ele>380.6</ele><time>2026-05-03T16:02:01Z</time></trkpt><trkpt lat="43.2746940280641" lon="11.747997423378138"><ele>379.4</ele><time>2026-05-03T16:02:02Z</time></trkpt><trkpt lat="43.2747921010508" lon="11.748039712666268"><ele>378.20000000000005</ele><time>2026-05-03T16:02:03Z</time></trkpt><trkpt lat="43.27489212011829" lon="11.748055676642085"><ele>377.0</ele><time>2026-05-03T16:02:04Z</time></trkpt><trkpt lat="43.274975211878676" lon="11.748048456675264"><ele>377.0</ele><time>2026-05-03T16:02:05Z</time></trkpt><trkpt lat="43.27509120027313" lon="11.748059504738215"><ele>377.0</ele><time>2026-05-03T16:02:07Z</time></trkpt><trkpt lat="43.27515282899315" lon="11.748095979225672"><ele>377.0</ele><time>2026-05-03T16:02:08Z</time></trkpt><trkpt lat="43.275224647923494" lon="11.748169850179089"><ele>377.0</ele><time>2026-05-03T16:02:09Z</time></trkpt><trkpt lat="43.275282140572344" lon="11.748277657733123"><ele>377.0</ele><time>2026-05-03T16:02:10Z</time></trkpt><trkpt lat="43.27533966491031" lon="11.748394825366702"><ele>377.0</ele><time>2026-05-03T16:02:11Z</time></trkpt><trkpt lat="43.275399154164504" lon="11.748517953017762"><ele>377.0</ele><time>2026-05-03T16:02:12Z</time></trkpt><trkpt lat="43.27544967678547" lon="11.748622522024247"><ele>377.0</ele><time>2026-05-03T16:02:13Z</time></trkpt><trkpt lat="43.27550265449573" lon="11.748732172477576"><ele>377.0</ele><time>2026-05-03T16:02:14Z</time></trkpt><trkpt lat="43.2755618623876" lon="11.748820883987982"><ele>377.0</ele><time>2026-05-03T16:02:15Z</time></trkpt><trkpt lat="43.275599661934706" lon="11.748914109348297"><ele>376.20000000000005</ele><time>2026-05-03T16:02:16Z</time></trkpt><trkpt lat="43.2756309254271" lon="11.749011770971572"><ele>375.4</ele><time>2026-05-03T16:02:17Z</time></trkpt><trkpt lat="43.27565031623377" lon="11.749131631158816"><ele>374.6</ele><time>2026-05-03T16:02:18Z</time></trkpt><trkpt lat="43.27569981849795" lon="11.749252989439558"><ele>373.79999999999995</ele><time>2026-05-03T16:02:19Z</time></trkpt><trkpt lat="43.27572831635828" lon="11.749393003849399"><ele>373.0</ele><time>2026-05-03T16:02:20Z</time></trkpt><trkpt lat="43.27576497418599" lon="11.749522670855344"><ele>372.4</ele><time>2026-05-03T16:02:21Z</time></trkpt><trkpt lat="43.27580030473552" lon="11.749665859709447"><ele>371.79999999999995</ele><time>2026-05-03T16:02:22Z</time></trkpt><trkpt lat="43.27583441790081" lon="11.749798952451604"><ele>371.2</ele><time>2026-05-03T16:02:23Z</time></trkpt><trkpt lat="43.27587032646242" lon="11.749930862411032"><ele>370.6</ele><time>2026-05-03T16:02:24Z</time></trkpt><trkpt lat="43.27590430555746" lon="11.750055298677434"><ele>370.0</ele><time>2026-05-03T16:02:25Z</time></trkpt><trkpt lat="43.275921527308455" lon="11.750181597632176"><ele>369.6</ele><time>2026-05-03T16:02:26Z</time></trkpt><trkpt lat="43.27595349344419" lon="11.75030936851615"><ele>369.2</ele><time>2026-05-03T16:02:27Z</time></trkpt><trkpt lat="43.27598521931338" lon="11.750436179005645"><ele>368.79999999999995</ele><time>2026-05-03T16:02:28Z</time></trkpt><trkpt lat="43.27601967413879" lon="11.75057389724576"><ele>368.4</ele><time>2026-05-03T16:02:29Z</time></trkpt><trkpt lat="43.276051885480335" lon="11.7507028167491"><ele>368.0</ele><time>2026-05-03T16:02:30Z</time></trkpt><trkpt lat="43.27608239128845" lon="11.750825231005681"><ele>368.0</ele><time>2026-05-03T16:02:31Z</time></trkpt><trkpt lat="43.276129717119716" lon="11.75094056818191"><ele>368.0</ele><time>2026-05-03T16:02:32Z</time></trkpt><trkpt lat="43.27615810177622" lon="11.751067138973289"><ele>368.0</ele><time>2026-05-03T16:02:33Z</time></trkpt><trkpt lat="43.27618645900481" lon="11.75120299064412"><ele>368.0</ele><time>2026-05-03T16:02:34Z</time></trkpt><trkpt lat="43.276204977545696" lon="11.751348407450745"><ele>368.0</ele><time>2026-05-03T16:02:35Z</time></trkpt><trkpt lat="43.27620881902846" lon="11.751508687763652"><ele>366.5</ele><time>2026-05-03T16:02:36Z</time></trkpt><trkpt lat="43.27620870379174" lon="11.751681251356294"><ele>365.0</ele><time>2026-05-03T16:02:37Z</time></trkpt><trkpt lat="43.27620497315762" lon="11.751864131742954"><ele>363.5</ele><time>2026-05-03T16:02:38Z</time></trkpt><trkpt lat="43.27619884694374" lon="11.752049819097781"><ele>362.0</ele><time>2026-05-03T16:02:39Z</time></trkpt><trkpt lat="43.276193375840194" lon="11.752237649374322"><ele>360.75</ele><time>2026-05-03T16:02:40Z</time></trkpt><trkpt lat="43.276185254345314" lon="11.752431186944364"><ele>359.5</ele><time>2026-05-03T16:02:41Z</time></trkpt><trkpt lat="43.276195238716106" lon="11.752620231833063"><ele>358.25</ele><time>2026-05-03T16:02:42Z</time></trkpt><trkpt lat="43.2762235996566" lon="11.752809334507441"><ele>357.0</ele><time>2026-05-03T16:02:43Z</time></trkpt><trkpt lat="43.276268632667275" lon="11.753001815109794"><ele>356.0</ele><time>2026-05-03T16:02:44Z</time></trkpt><trkpt lat="43.27631592366035" lon="11.753204083510765"><ele>355.0</ele><time>2026-05-03T16:02:45Z</time></trkpt><trkpt lat="43.276397297988304" lon="11.753391747071722"><ele>354.0</ele><time>2026-05-03T16:02:46Z</time></trkpt><trkpt lat="43.276454351783016" lon="11.753600818443095"><ele>353.0</ele><time>2026-05-03T16:02:47Z</time></trkpt><trkpt lat="43.276499379503996" lon="11.753812280183267"><ele>352.0</ele><time>2026-05-03T16:02:48Z</time></trkpt><trkpt lat="43.27654049736495" lon="11.754020973589611"><ele>351.0</ele><time>2026-05-03T16:02:49Z</time></trkpt><trkpt lat="43.27658359109974" lon="11.754219978676218"><ele>350.25</ele><time>2026-05-03T16:02:50Z</time></trkpt><trkpt lat="43.276615117653854" lon="11.754418630619682"><ele>349.5</ele><time>2026-05-03T16:02:51Z</time></trkpt><trkpt lat="43.27666541112143" lon="11.754608039479976"><ele>348.75</ele><time>2026-05-03T16:02:52Z</time></trkpt><trkpt lat="43.27670396504058" lon="11.754794355880145"><ele>348.0</ele><time>2026-05-03T16:02:53Z</time></trkpt><trkpt lat="43.27674277029978" lon="11.75497654957659"><ele>348.0</ele><time>2026-05-03T16:02:54Z</time></trkpt><trkpt lat="43.276781486085454" lon="11.755149311699718"><ele>348.0</ele><time>2026-05-03T16:02:55Z</time></trkpt><trkpt lat="43.27681664421766" lon="11.755322018331686"><ele>348.0</ele><time>2026-05-03T16:02:56Z</time></trkpt><trkpt lat="43.2768410582598" lon="11.755485347596801"><ele>348.0</ele><time>2026-05-03T16:02:57Z</time></trkpt><trkpt lat="43.27685331223585" lon="11.75563360042685"><ele>346.59999999999997</ele><time>2026-05-03T16:02:58Z</time></trkpt><trkpt lat="43.27684491802331" lon="11.75577569415081"><ele>345.2</ele><time>2026-05-03T16:02:59Z</time></trkpt><trkpt lat="43.27680833065699" lon="11.75590705188104"><ele>343.8</ele><time>2026-05-03T16:03:00Z</time></trkpt><trkpt lat="43.27673841592755" lon="11.756019183174166"><ele>342.4</ele><time>2026-05-03T16:03:01Z</time></trkpt><trkpt lat="43.27664527285343" lon="11.75612344455431"><ele>341.0</ele><time>2026-05-03T16:03:02Z</time></trkpt><trkpt lat="43.27653592126141" lon="11.756231541622812"><ele>339.6666666666667</ele><time>2026-05-03T16:03:03Z</time></trkpt><trkpt lat="43.27641373103678" lon="11.75634579026906"><ele>338.3333333333333</ele><time>2026-05-03T16:03:04Z</time></trkpt><trkpt lat="43.27628471248006" lon="11.75646958353204"><ele>337.0</ele><time>2026-05-03T16:03:05Z</time></trkpt><trkpt lat="43.276162205961334" lon="11.756600583784953"><ele>337.0</ele><time>2026-05-03T16:03:06Z</time></trkpt><trkpt lat="43.276042533901865" lon="11.756746789505836"><ele>337.0</ele><time>2026-05-03T16:03:07Z</time></trkpt><trkpt lat="43.27592839370311" lon="11.756912692974"><ele>337.0</ele><time>2026-05-03T16:03:08Z</time></trkpt><trkpt lat="43.27582160956802" lon="11.757084642075483"><ele>336.66666666666663</ele><time>2026-05-03T16:03:09Z</time></trkpt><trkpt lat="43.2757168206916" lon="11.757260105188227"><ele>336.3333333333333</ele><time>2026-05-03T16:03:10Z</time></trkpt><trkpt lat="43.275612895013396" lon="11.757436455868762"><ele>336.0</ele><time>2026-05-03T16:03:11Z</time></trkpt><trkpt lat="43.275510707621656" lon="11.757619185886911"><ele>330.3333333333333</ele><time>2026-05-03T16:03:12Z</time></trkpt><trkpt lat="43.275410696009374" lon="11.757810501091672"><ele>324.66666666666663</ele><time>2026-05-03T16:03:13Z</time></trkpt><trkpt lat="43.275298178648086" lon="11.757990716587813"><ele>319.0</ele><time>2026-05-03T16:03:14Z</time></trkpt><trkpt lat="43.275179822636666" lon="11.758170963388956"><ele>319.0</ele><time>2026-05-03T16:03:15Z</time></trkpt><trkpt lat="43.27505736224876" lon="11.758348133625923"><ele>319.0</ele><time>2026-05-03T16:03:16Z</time></trkpt><trkpt lat="43.27492784108293" lon="11.758521568220118"><ele>319.0</ele><time>2026-05-03T16:03:17Z</time></trkpt><trkpt lat="43.274796229417944" lon="11.758689738203962"><ele>315.66666666666663</ele><time>2026-05-03T16:03:18Z</time></trkpt><trkpt lat="43.27466341950085" lon="11.758854321836582"><ele>312.3333333333333</ele><time>2026-05-03T16:03:19Z</time></trkpt><trkpt lat="43.27453226304294" lon="11.759017612554322"><ele>309.0</ele><time>2026-05-03T16:03:20Z</time></trkpt><trkpt lat="43.2744028251383" lon="11.759181202588955"><ele>309.0</ele><time>2026-05-03T16:03:21Z</time></trkpt><trkpt lat="43.27427161497475" lon="11.759339380020773"><ele>309.0</ele><time>2026-05-03T16:03:22Z</time></trkpt><trkpt lat="43.27414437532974" lon="11.759489997741651"><ele>309.0</ele><time>2026-05-03T16:03:23Z</time></trkpt><trkpt lat="43.27401948353078" lon="11.759642713382872"><ele>308.0</ele><time>2026-05-03T16:03:24Z</time></trkpt><trkpt lat="43.273900337337814" lon="11.759793701535768"><ele>307.0</ele><time>2026-05-03T16:03:25Z</time></trkpt><trkpt lat="43.27379252768998" lon="11.759932257805124"><ele>306.0</ele><time>2026-05-03T16:03:26Z</time></trkpt><trkpt lat="43.273695323850504" lon="11.760062496125986"><ele>305.0</ele><time>2026-05-03T16:03:27Z</time></trkpt><trkpt lat="43.27361378124039" lon="11.760197414164647"><ele>302.5</ele><time>2026-05-03T16:03:28Z</time></trkpt><trkpt lat="43.27355490694262" lon="11.760345335691262"><ele>300.0</ele><time>2026-05-03T16:03:29Z</time></trkpt><trkpt lat="43.27352179505397" lon="11.760502419946981"><ele>297.5</ele><time>2026-05-03T16:03:30Z</time></trkpt><trkpt lat="43.273514541269016" lon="11.760652423445505"><ele>295.0</ele><time>2026-05-03T16:03:31Z</time></trkpt><trkpt lat="43.27351824784632" lon="11.760792288191226"><ele>295.0</ele><time>2026-05-03T16:03:32Z</time></trkpt><trkpt lat="43.27352474836943" lon="11.760923613162053"><ele>295.0</ele><time>2026-05-03T16:03:33Z</time></trkpt><trkpt lat="43.27353456333819" lon="11.761039896043037"><ele>295.0</ele><time>2026-05-03T16:03:34Z</time></trkpt><trkpt lat="43.27354820368581" lon="11.761129257833918"><ele>295.0</ele><time>2026-05-03T16:03:35Z</time></trkpt><trkpt lat="43.27355616338311" lon="11.761243892724055"><ele>295.0</ele><time>2026-05-03T16:03:37Z</time></trkpt><trkpt lat="43.2737321045578" lon="11.761215489000735"><ele>294.5</ele><time>2026-05-03T16:03:40Z</time></trkpt><trkpt lat="43.273831390032456" lon="11.761138488480473"><ele>294.0</ele><time>2026-05-03T16:03:42Z</time></trkpt><trkpt lat="43.27388988813474" lon="11.761100840097976"><ele>293.5</ele><time>2026-05-03T16:03:43Z</time></trkpt><trkpt lat="43.27396153359531" lon="11.761081203576612"><ele>293.0</ele><time>2026-05-03T16:03:44Z</time></trkpt><trkpt lat="43.274028813389144" lon="11.761038712251342"><ele>292.5</ele><time>2026-05-03T16:03:45Z</time></trkpt><trkpt lat="43.274105315424436" lon="11.76099000650359"><ele>292.0</ele><time>2026-05-03T16:03:46Z</time></trkpt><trkpt lat="43.27417850351722" lon="11.760943226065681"><ele>292.0</ele><time>2026-05-03T16:03:47Z</time></trkpt><trkpt lat="43.27426289160359" lon="11.76088688328605"><ele>292.0</ele><time>2026-05-03T16:03:48Z</time></trkpt><trkpt lat="43.274357963560156" lon="11.76082138513932"><ele>292.0</ele><time>2026-05-03T16:03:49Z</time></trkpt><trkpt lat="43.274461818266836" lon="11.760747320981352"><ele>292.0</ele><time>2026-05-03T16:03:50Z</time></trkpt><trkpt lat="43.274573099439245" lon="11.760665109601788"><ele>292.0</ele><time>2026-05-03T16:03:51Z</time></trkpt><trkpt lat="43.274685136499315" lon="11.760576462487752"><ele>289.25</ele><time>2026-05-03T16:03:52Z</time></trkpt><trkpt lat="43.27480089423029" lon="11.760488577786974"><ele>286.5</ele><time>2026-05-03T16:03:53Z</time></trkpt><trkpt lat="43.27491969647725" lon="11.76039889127611"><ele>283.75</ele><time>2026-05-03T16:03:54Z</time></trkpt><trkpt lat="43.275035578204836" lon="11.760289689372042"><ele>281.0</ele><time>2026-05-03T16:03:55Z</time></trkpt><trkpt lat="43.27516194499685" lon="11.760209571008579"><ele>281.5</ele><time>2026-05-03T16:03:56Z</time></trkpt><trkpt lat="43.27528543241528" lon="11.760115599926182"><ele>282.0</ele><time>2026-05-03T16:03:57Z</time></trkpt><trkpt lat="43.27541859442244" lon="11.76002087131338"><ele>282.5</ele><time>2026-05-03T16:03:58Z</time></trkpt><trkpt lat="43.275549074384564" lon="11.759922652800208"><ele>283.0</ele><time>2026-05-03T16:03:59Z</time></trkpt><trkpt lat="43.27568169784051" lon="11.75982517942078"><ele>283.0</ele><time>2026-05-03T16:04:00Z</time></trkpt><trkpt lat="43.27581481103984" lon="11.759728641833787"><ele>283.0</ele><time>2026-05-03T16:04:01Z</time></trkpt><trkpt lat="43.275940280165685" lon="11.759644122991727"><ele>283.0</ele><time>2026-05-03T16:04:02Z</time></trkpt><trkpt lat="43.27606725224969" lon="11.759584834620469"><ele>283.0</ele><time>2026-05-03T16:04:03Z</time></trkpt><trkpt lat="43.27619034942703" lon="11.759552069728215"><ele>283.0</ele><time>2026-05-03T16:04:04Z</time></trkpt><trkpt lat="43.276313340866615" lon="11.759551416253565"><ele>283.0</ele><time>2026-05-03T16:04:05Z</time></trkpt><trkpt lat="43.276434118262245" lon="11.759572966989191"><ele>283.0</ele><time>2026-05-03T16:04:06Z</time></trkpt><trkpt lat="43.276554785487065" lon="11.759625400893384"><ele>283.0</ele><time>2026-05-03T16:04:07Z</time></trkpt><trkpt lat="43.27667505402028" lon="11.759702417730555"><ele>281.66666666666663</ele><time>2026-05-03T16:04:08Z</time></trkpt><trkpt lat="43.276790121841444" lon="11.75980719911611"><ele>280.3333333333333</ele><time>2026-05-03T16:04:09Z</time></trkpt><trkpt lat="43.276891521514756" lon="11.759967449522351"><ele>279.0</ele><time>2026-05-03T16:04:10Z</time></trkpt><trkpt lat="43.277014202915524" lon="11.760135944093106"><ele>279.3333333333333</ele><time>2026-05-03T16:04:11Z</time></trkpt><trkpt lat="43.27712152141475" lon="11.760334492074724"><ele>279.66666666666663</ele><time>2026-05-03T16:04:12Z</time></trkpt><trkpt lat="43.27721815944013" lon="11.760553294026174"><ele>280.0</ele><time>2026-05-03T16:04:13Z</time></trkpt><trkpt lat="43.277324228053274" lon="11.760746164852861"><ele>280.0</ele><time>2026-05-03T16:04:14Z</time></trkpt><trkpt lat="43.27743606081728" lon="11.760949516890287"><ele>280.0</ele><time>2026-05-03T16:04:15Z</time></trkpt><trkpt lat="43.27755122735213" lon="11.76115891923135"><ele>280.0</ele><time>2026-05-03T16:04:16Z</time></trkpt><trkpt lat="43.27767399598561" lon="11.761364587200417"><ele>277.66666666666663</ele><time>2026-05-03T16:04:17Z</time></trkpt><trkpt lat="43.27779394940681" lon="11.76157294390682"><ele>275.3333333333333</ele><time>2026-05-03T16:04:18Z</time></trkpt><trkpt lat="43.27791110079256" lon="11.76179152493039"><ele>273.0</ele><time>2026-05-03T16:04:19Z</time></trkpt><trkpt lat="43.27802199250317" lon="11.761998967511513"><ele>271.3333333333333</ele><time>2026-05-03T16:04:20Z</time></trkpt><trkpt lat="43.27812959082346" lon="11.762183731335009"><ele>269.66666666666663</ele><time>2026-05-03T16:04:21Z</time></trkpt><trkpt lat="43.278244375191036" lon="11.762353301434908"><ele>268.0</ele><time>2026-05-03T16:04:22Z</time></trkpt><trkpt lat="43.27836889028491" lon="11.762494625805855"><ele>268.0</ele><time>2026-05-03T16:04:23Z</time></trkpt><trkpt lat="43.27849342835126" lon="11.762636344099125"><ele>268.0</ele><time>2026-05-03T16:04:24Z</time></trkpt><trkpt lat="43.27864200463241" lon="11.762747204063373"><ele>268.0</ele><time>2026-05-03T16:04:25Z</time></trkpt><trkpt lat="43.27880399008424" lon="11.762851232181292"><ele>264.66666666666663</ele><time>2026-05-03T16:04:26Z</time></trkpt><trkpt lat="43.27897501737843" lon="11.762957319629065"><ele>261.3333333333333</ele><time>2026-05-03T16:04:27Z</time></trkpt><trkpt lat="43.279153467732215" lon="11.763067958204285"><ele>258.0</ele><time>2026-05-03T16:04:28Z</time></trkpt><trkpt lat="43.2793357648931" lon="11.763182250688471"><ele>258.0</ele><time>2026-05-03T16:04:29Z</time></trkpt><trkpt lat="43.27952226849834" lon="11.763299666617902"><ele>258.0</ele><time>2026-05-03T16:04:30Z</time></trkpt><trkpt lat="43.27970546960895" lon="11.763415003466193"><ele>258.0</ele><time>2026-05-03T16:04:31Z</time></trkpt><trkpt lat="43.27988528305395" lon="11.76352820749955"><ele>259.0</ele><time>2026-05-03T16:04:32Z</time></trkpt><trkpt lat="43.28005279493323" lon="11.76363308117722"><ele>260.0</ele><time>2026-05-03T16:04:33Z</time></trkpt><trkpt lat="43.28020341326907" lon="11.763730059803766"><ele>261.0</ele><time>2026-05-03T16:04:34Z</time></trkpt><trkpt lat="43.280338346094425" lon="11.763806164456179"><ele>261.0</ele><time>2026-05-03T16:04:35Z</time></trkpt><trkpt lat="43.28043771823143" lon="11.763913234959691"><ele>261.0</ele><time>2026-05-03T16:04:36Z</time></trkpt><trkpt lat="43.28051839690691" lon="11.764035003254262"><ele>261.0</ele><time>2026-05-03T16:04:37Z</time></trkpt><trkpt lat="43.28057077110706" lon="11.764178515571702"><ele>261.0</ele><time>2026-05-03T16:04:38Z</time></trkpt><trkpt lat="43.28062613186431" lon="11.764340397716424"><ele>261.75</ele><time>2026-05-03T16:04:39Z</time></trkpt><trkpt lat="43.2806884368469" lon="11.764494134962828"><ele>262.5</ele><time>2026-05-03T16:04:40Z</time></trkpt><trkpt lat="43.28072069930887" lon="11.76467220449798"><ele>263.25</ele><time>2026-05-03T16:04:41Z</time></trkpt><trkpt lat="43.280763316973605" lon="11.76482874357878"><ele>264.0</ele><time>2026-05-03T16:04:42Z</time></trkpt><trkpt lat="43.28080989375246" lon="11.764985551281477"><ele>264.0</ele><time>2026-05-03T16:04:43Z</time></trkpt><trkpt lat="43.28085447817653" lon="11.765167288865097"><ele>264.0</ele><time>2026-05-03T16:04:44Z</time></trkpt><trkpt lat="43.28091535255755" lon="11.765354589200008"><ele>264.0</ele><time>2026-05-03T16:04:45Z</time></trkpt><trkpt lat="43.28098219140941" lon="11.765553088513233"><ele>264.0</ele><time>2026-05-03T16:04:46Z</time></trkpt><trkpt lat="43.28105381784486" lon="11.765755578942585"><ele>263.0</ele><time>2026-05-03T16:04:47Z</time></trkpt><trkpt lat="43.28112822956942" lon="11.765949071085675"><ele>262.0</ele><time>2026-05-03T16:04:48Z</time></trkpt><trkpt lat="43.28119966161124" lon="11.76614354809776"><ele>261.0</ele><time>2026-05-03T16:04:49Z</time></trkpt><trkpt lat="43.28126372792763" lon="11.766335382133954"><ele>260.0</ele><time>2026-05-03T16:04:50Z</time></trkpt><trkpt lat="43.28133328342684" lon="11.766513249581632"><ele>259.0</ele><time>2026-05-03T16:04:51Z</time></trkpt><trkpt lat="43.281415540491196" lon="11.76669165549999"><ele>258.0</ele><time>2026-05-03T16:04:52Z</time></trkpt><trkpt lat="43.281521413647454" lon="11.766842814022372"><ele>257.3333333333333</ele><time>2026-05-03T16:04:53Z</time></trkpt><trkpt lat="43.281633539374226" lon="11.766999681034484"><ele>256.66666666666663</ele><time>2026-05-03T16:04:54Z</time></trkpt><trkpt lat="43.28177381756993" lon="11.76711892740508"><ele>256.0</ele><time>2026-05-03T16:04:55Z</time></trkpt><trkpt lat="43.28192402044591" lon="11.76721146569223"><ele>256.0</ele><time>2026-05-03T16:04:56Z</time></trkpt><trkpt lat="43.28209086387844" lon="11.767263331396856"><ele>256.0</ele><time>2026-05-03T16:04:57Z</time></trkpt><trkpt lat="43.28225397309847" lon="11.767328030752722"><ele>256.0</ele><time>2026-05-03T16:04:58Z</time></trkpt><trkpt lat="43.28242352014038" lon="11.767390920996668"><ele>255.66666666666666</ele><time>2026-05-03T16:04:59Z</time></trkpt><trkpt lat="43.28259936473785" lon="11.76747630889084"><ele>255.33333333333331</ele><time>2026-05-03T16:05:00Z</time></trkpt><trkpt lat="43.28277422440773" lon="11.767610335534885"><ele>255.0</ele><time>2026-05-03T16:05:01Z</time></trkpt><trkpt lat="43.28293857344104" lon="11.76778172373987"><ele>255.33333333333331</ele><time>2026-05-03T16:05:02Z</time></trkpt><trkpt lat="43.283099228116946" lon="11.767972486589134"><ele>255.66666666666666</ele><time>2026-05-03T16:05:03Z</time></trkpt><trkpt lat="43.28326533490144" lon="11.768164415641815"><ele>256.0</ele><time>2026-05-03T16:05:04Z</time></trkpt><trkpt lat="43.283432190319886" lon="11.76834950447526"><ele>256.3333333333333</ele><time>2026-05-03T16:05:05Z</time></trkpt><trkpt lat="43.28359512166228" lon="11.768535917046666"><ele>256.6666666666667</ele><time>2026-05-03T16:05:06Z</time></trkpt><trkpt lat="43.28375280594837" lon="11.768723475887436"><ele>257.0</ele><time>2026-05-03T16:05:07Z</time></trkpt><trkpt lat="43.2839041552619" lon="11.768911407268124"><ele>257.0</ele><time>2026-05-03T16:05:08Z</time></trkpt><trkpt lat="43.28403910553998" lon="11.769098805252284"><ele>257.0</ele><time>2026-05-03T16:05:09Z</time></trkpt><trkpt lat="43.284170854663806" lon="11.769262209418445"><ele>257.0</ele><time>2026-05-03T16:05:10Z</time></trkpt><trkpt lat="43.28430343357443" lon="11.769400301082312"><ele>257.0</ele><time>2026-05-03T16:05:11Z</time></trkpt><trkpt lat="43.28442157618448" lon="11.769566002820014"><ele>257.0</ele><time>2026-05-03T16:05:12Z</time></trkpt><trkpt lat="43.284541880339795" lon="11.769759385195476"><ele>257.0</ele><time>2026-05-03T16:05:13Z</time></trkpt><trkpt lat="43.284657352172985" lon="11.7699761269029"><ele>256.6666666666667</ele><time>2026-05-03T16:05:14Z</time></trkpt><trkpt lat="43.28476676670167" lon="11.770192723983998"><ele>256.3333333333333</ele><time>2026-05-03T16:05:15Z</time></trkpt><trkpt lat="43.28484825330128" lon="11.770416725150913"><ele>256.0</ele><time>2026-05-03T16:05:16Z</time></trkpt><trkpt lat="43.28493818929242" lon="11.770617406444176"><ele>256.0</ele><time>2026-05-03T16:05:17Z</time></trkpt><trkpt lat="43.28502375522715" lon="11.770802393890122"><ele>256.0</ele><time>2026-05-03T16:05:18Z</time></trkpt><trkpt lat="43.285104758128874" lon="11.770980492251695"><ele>256.0</ele><time>2026-05-03T16:05:19Z</time></trkpt><trkpt lat="43.28518245672068" lon="11.771152259531632"><ele>256.25</ele><time>2026-05-03T16:05:20Z</time></trkpt><trkpt lat="43.28524996186158" lon="11.771302563404928"><ele>256.5</ele><time>2026-05-03T16:05:21Z</time></trkpt><trkpt lat="43.285317067882275" lon="11.771452095979159"><ele>256.75</ele><time>2026-05-03T16:05:22Z</time></trkpt><trkpt lat="43.28537631239067" lon="11.771580520421685"><ele>257.0</ele><time>2026-05-03T16:05:23Z</time></trkpt><trkpt lat="43.285443134223506" lon="11.771679309984188"><ele>257.0</ele><time>2026-05-03T16:05:24Z</time></trkpt><trkpt lat="43.28547874119416" lon="11.771786308913281"><ele>257.0</ele><time>2026-05-03T16:05:25Z</time></trkpt><trkpt lat="43.28548642895153" lon="11.77189819603171"><ele>257.0</ele><time>2026-05-03T16:05:26Z</time></trkpt><trkpt lat="43.2854720652873" lon="11.772025563415994"><ele>257.0</ele><time>2026-05-03T16:05:27Z</time></trkpt><trkpt lat="43.285463860565656" lon="11.772161304291759"><ele>257.0</ele><time>2026-05-03T16:05:28Z</time></trkpt><trkpt lat="43.28535195102129" lon="11.772285334102222"><ele>256.75</ele><time>2026-05-03T16:05:29Z</time></trkpt><trkpt lat="43.285261364568726" lon="11.772400038964008"><ele>256.5</ele><time>2026-05-03T16:05:30Z</time></trkpt><trkpt lat="43.28518186963632" lon="11.772537937082301"><ele>256.25</ele><time>2026-05-03T16:05:31Z</time></trkpt><trkpt lat="43.28513750477891" lon="11.77269763219721"><ele>256.0</ele><time>2026-05-03T16:05:32Z</time></trkpt><trkpt lat="43.285129422247664" lon="11.77286480136576"><ele>256.0</ele><time>2026-05-03T16:05:33Z</time></trkpt><trkpt lat="43.28514094264688" lon="11.773041221767107"><ele>256.0</ele><time>2026-05-03T16:05:34Z</time></trkpt><trkpt lat="43.28521256036665" lon="11.773201216922706"><ele>256.0</ele><time>2026-05-03T16:05:35Z</time></trkpt><trkpt lat="43.285282719841575" lon="11.773360029255443"><ele>256.0</ele><time>2026-05-03T16:05:36Z</time></trkpt><trkpt lat="43.28533763648704" lon="11.77351958759301"><ele>255.75</ele><time>2026-05-03T16:05:37Z</time></trkpt><trkpt lat="43.28540142176553" lon="11.773659518572527"><ele>255.5</ele><time>2026-05-03T16:05:38Z</time></trkpt><trkpt lat="43.28546574929481" lon="11.773800639145517"><ele>255.25</ele><time>2026-05-03T16:05:39Z</time></trkpt><trkpt lat="43.285531292736366" lon="11.773944427165606"><ele>255.0</ele><time>2026-05-03T16:05:40Z</time></trkpt><trkpt lat="43.28559405694971" lon="11.774082517801032"><ele>255.0</ele><time>2026-05-03T16:05:41Z</time></trkpt><trkpt lat="43.28565446318207" lon="11.774214649682325"><ele>255.0</ele><time>2026-05-03T16:05:42Z</time></trkpt><trkpt lat="43.28571548761935" lon="11.774347416155415"><ele>255.0</ele><time>2026-05-03T16:05:43Z</time></trkpt><trkpt lat="43.28577642932078" lon="11.774480002510138"><ele>255.0</ele><time>2026-05-03T16:05:44Z</time></trkpt><trkpt lat="43.2858379181132" lon="11.774613774827444"><ele>255.0</ele><time>2026-05-03T16:05:45Z</time></trkpt><trkpt lat="43.285902489706224" lon="11.774754575586442"><ele>255.0</ele><time>2026-05-03T16:05:46Z</time></trkpt><trkpt lat="43.28597550968718" lon="11.774891403604713"><ele>255.0</ele><time>2026-05-03T16:05:47Z</time></trkpt><trkpt lat="43.286046062205706" lon="11.775036711737844"><ele>255.0</ele><time>2026-05-03T16:05:48Z</time></trkpt><trkpt lat="43.28612026682116" lon="11.775187511794924"><ele>254.75</ele><time>2026-05-03T16:05:49Z</time></trkpt><trkpt lat="43.28622162992288" lon="11.775319495313832"><ele>254.5</ele><time>2026-05-03T16:05:50Z</time></trkpt><trkpt lat="43.286348626683875" lon="11.775434139560907"><ele>254.25</ele><time>2026-05-03T16:05:51Z</time></trkpt><trkpt lat="43.286488049965406" lon="11.775534942203702"><ele>254.0</ele><time>2026-05-03T16:05:52Z</time></trkpt><trkpt lat="43.286618348523284" lon="11.775641757625468"><ele>254.0</ele><time>2026-05-03T16:05:53Z</time></trkpt><trkpt lat="43.28674626831271" lon="11.775723996104215"><ele>254.0</ele><time>2026-05-03T16:05:54Z</time></trkpt><trkpt lat="43.28687494138368" lon="11.77578364533859"><ele>254.0</ele><time>2026-05-03T16:05:55Z</time></trkpt><trkpt lat="43.28699052831313" lon="11.775861229473191"><ele>254.0</ele><time>2026-05-03T16:05:56Z</time></trkpt><trkpt lat="43.28709920029293" lon="11.775931331013666"><ele>254.0</ele><time>2026-05-03T16:05:57Z</time></trkpt><trkpt lat="43.287200794965926" lon="11.775995700558061"><ele>253.99999999999997</ele><time>2026-05-03T16:05:58Z</time></trkpt><trkpt lat="43.28729063531846" lon="11.776078711552804"><ele>253.99999999999997</ele><time>2026-05-03T16:05:59Z</time></trkpt><trkpt lat="43.28739033500894" lon="11.776124853325229"><ele>254.0</ele><time>2026-05-03T16:06:00Z</time></trkpt><trkpt lat="43.28748633122099" lon="11.776190225359779"><ele>254.0</ele><time>2026-05-03T16:06:01Z</time></trkpt><trkpt lat="43.28757671979966" lon="11.776304374107077"><ele>254.25</ele><time>2026-05-03T16:06:02Z</time></trkpt><trkpt lat="43.28767706749594" lon="11.776418587519377"><ele>254.5</ele><time>2026-05-03T16:06:03Z</time></trkpt><trkpt lat="43.28777605248563" lon="11.776542391298017"><ele>254.75</ele><time>2026-05-03T16:06:04Z</time></trkpt><trkpt lat="43.28786865432123" lon="11.776684959107685"><ele>255.0</ele><time>2026-05-03T16:06:05Z</time></trkpt><trkpt lat="43.287966623407186" lon="11.776836301217841"><ele>255.0</ele><time>2026-05-03T16:06:06Z</time></trkpt><trkpt lat="43.28806305457055" lon="11.776985267658851"><ele>255.0</ele><time>2026-05-03T16:06:07Z</time></trkpt><trkpt lat="43.2881576300533" lon="11.777130908232396"><ele>255.0</ele><time>2026-05-03T16:06:08Z</time></trkpt><trkpt lat="43.28825057901264" lon="11.777273896502098"><ele>255.0</ele><time>2026-05-03T16:06:09Z</time></trkpt><trkpt lat="43.288343839683854" lon="11.777416162538218"><ele>255.5</ele><time>2026-05-03T16:06:10Z</time></trkpt><trkpt lat="43.288434690770075" lon="11.777554466794662"><ele>256.0</ele><time>2026-05-03T16:06:11Z</time></trkpt><trkpt lat="43.288519741203366" lon="11.777683358364634"><ele>256.5</ele><time>2026-05-03T16:06:12Z</time></trkpt><trkpt lat="43.288614094358294" lon="11.777794411058984"><ele>257.0</ele><time>2026-05-03T16:06:13Z</time></trkpt><trkpt lat="43.288688085149566" lon="11.77793377005877"><ele>257.25</ele><time>2026-05-03T16:06:14Z</time></trkpt><trkpt lat="43.288770198588125" lon="11.778059849142013"><ele>257.5</ele><time>2026-05-03T16:06:15Z</time></trkpt><trkpt lat="43.28884663753689" lon="11.778177769511542"><ele>257.75</ele><time>2026-05-03T16:06:16Z</time></trkpt><trkpt lat="43.28892145636525" lon="11.778302392165445"><ele>258.0</ele><time>2026-05-03T16:06:17Z</time></trkpt><trkpt lat="43.28898689653912" lon="11.778427759034924"><ele>258.0</ele><time>2026-05-03T16:06:18Z</time></trkpt><trkpt lat="43.28904334074122" lon="11.778539837077043"><ele>258.0</ele><time>2026-05-03T16:06:19Z</time></trkpt><trkpt lat="43.28909190428231" lon="11.778649383017745"><ele>258.0</ele><time>2026-05-03T16:06:20Z</time></trkpt><trkpt lat="43.28912967863436" lon="11.778769299146532"><ele>258.0</ele><time>2026-05-03T16:06:21Z</time></trkpt><trkpt lat="43.28917137888685" lon="11.778890619221729"><ele>258.0</ele><time>2026-05-03T16:06:22Z</time></trkpt><trkpt lat="43.28921928344765" lon="11.778998616302513"><ele>258.0</ele><time>2026-05-03T16:06:23Z</time></trkpt><trkpt lat="43.28926820034187" lon="11.779119980749577"><ele>258.0</ele><time>2026-05-03T16:06:24Z</time></trkpt><trkpt lat="43.28934988444264" lon="11.779216175991905"><ele>258.0</ele><time>2026-05-03T16:06:25Z</time></trkpt><trkpt lat="43.28944997914575" lon="11.77929900405955"><ele>258.0</ele><time>2026-05-03T16:06:26Z</time></trkpt><trkpt lat="43.28956883800205" lon="11.779364165214236"><ele>258.25</ele><time>2026-05-03T16:06:27Z</time></trkpt><trkpt lat="43.28970026484094" lon="11.779400814126928"><ele>258.5</ele><time>2026-05-03T16:06:28Z</time></trkpt><trkpt lat="43.28983021382653" lon="11.779418919416221"><ele>258.75</ele><time>2026-05-03T16:06:29Z</time></trkpt><trkpt lat="43.28995505860117" lon="11.779429623160828"><ele>259.0</ele><time>2026-05-03T16:06:30Z</time></trkpt><trkpt lat="43.29007418123526" lon="11.779417678247848"><ele>260.75</ele><time>2026-05-03T16:06:31Z</time></trkpt><trkpt lat="43.29018946785256" lon="11.77944713619313"><ele>262.5</ele><time>2026-05-03T16:06:32Z</time></trkpt><trkpt lat="43.29030274196198" lon="11.779455262552188"><ele>264.25</ele><time>2026-05-03T16:06:33Z</time></trkpt><trkpt lat="43.29041506752492" lon="11.77946372008245"><ele>266.0</ele><time>2026-05-03T16:06:34Z</time></trkpt><trkpt lat="43.29052975971614" lon="11.779453575966555"><ele>267.75</ele><time>2026-05-03T16:06:35Z</time></trkpt><trkpt lat="43.29064787301453" lon="11.779482820721668"><ele>269.5</ele><time>2026-05-03T16:06:36Z</time></trkpt><trkpt lat="43.29077305765779" lon="11.779509258119566"><ele>271.25</ele><time>2026-05-03T16:06:37Z</time></trkpt><trkpt lat="43.29090114610076" lon="11.77955233351245"><ele>273.0</ele><time>2026-05-03T16:06:38Z</time></trkpt><trkpt lat="43.29103853987809" lon="11.779602687124163"><ele>273.0</ele><time>2026-05-03T16:06:39Z</time></trkpt><trkpt lat="43.29117153867912" lon="11.779660546812684"><ele>273.0</ele><time>2026-05-03T16:06:40Z</time></trkpt><trkpt lat="43.291299472355995" lon="11.779746111211944"><ele>273.0</ele><time>2026-05-03T16:06:41Z</time></trkpt><trkpt lat="43.29143368710096" lon="11.779812530082706"><ele>273.0</ele><time>2026-05-03T16:06:42Z</time></trkpt><trkpt lat="43.29156237805811" lon="11.779874534158546"><ele>273.25</ele><time>2026-05-03T16:06:43Z</time></trkpt><trkpt lat="43.29168488951088" lon="11.77993356104023"><ele>273.5</ele><time>2026-05-03T16:06:44Z</time></trkpt><trkpt lat="43.291799155620254" lon="11.779995450760433"><ele>273.75</ele><time>2026-05-03T16:06:45Z</time></trkpt><trkpt lat="43.29191433988542" lon="11.780045275892249"><ele>274.0</ele><time>2026-05-03T16:06:46Z</time></trkpt><trkpt lat="43.292020229476485" lon="11.780119596154753"><ele>275.5</ele><time>2026-05-03T16:06:47Z</time></trkpt><trkpt lat="43.29212277285247" lon="11.780204943492905"><ele>277.0</ele><time>2026-05-03T16:06:48Z</time></trkpt><trkpt lat="43.29223113920306" lon="11.78031387703977"><ele>278.5</ele><time>2026-05-03T16:06:49Z</time></trkpt><trkpt lat="43.29234677222447" lon="11.780423407415956"><ele>280.0</ele><time>2026-05-03T16:06:50Z</time></trkpt><trkpt lat="43.29245816582454" lon="11.780545512742544"><ele>280.0</ele><time>2026-05-03T16:06:51Z</time></trkpt><trkpt lat="43.29254816879861" lon="11.780680702957191"><ele>280.0</ele><time>2026-05-03T16:06:52Z</time></trkpt><trkpt lat="43.292646598486236" lon="11.78082341188194"><ele>280.0</ele><time>2026-05-03T16:06:53Z</time></trkpt><trkpt lat="43.29273882529839" lon="11.780981865605243"><ele>280.0</ele><time>2026-05-03T16:06:54Z</time></trkpt><trkpt lat="43.2928223172" lon="11.781160479973083"><ele>282.0</ele><time>2026-05-03T16:06:55Z</time></trkpt><trkpt lat="43.29289720873704" lon="11.781339283398324"><ele>284.0</ele><time>2026-05-03T16:06:56Z</time></trkpt><trkpt lat="43.29297180673041" lon="11.781531395282277"><ele>286.0</ele><time>2026-05-03T16:06:57Z</time></trkpt><trkpt lat="43.29304401343646" lon="11.781728614513801"><ele>286.0</ele><time>2026-05-03T16:06:58Z</time></trkpt><trkpt lat="43.293112859512746" lon="11.781918255178137"><ele>286.0</ele><time>2026-05-03T16:06:59Z</time></trkpt><trkpt lat="43.2931820776736" lon="11.782108920939434"><ele>286.0</ele><time>2026-05-03T16:07:00Z</time></trkpt><trkpt lat="43.29325081942459" lon="11.782296977167416"><ele>286.0</ele><time>2026-05-03T16:07:01Z</time></trkpt><trkpt lat="43.29332027509145" lon="11.782486549009377"><ele>286.0</ele><time>2026-05-03T16:07:02Z</time></trkpt><trkpt lat="43.293389670335344" lon="11.782675531525575"><ele>286.0</ele><time>2026-05-03T16:07:03Z</time></trkpt><trkpt lat="43.29347335134903" lon="11.782860589777197"><ele>286.0</ele><time>2026-05-03T16:07:04Z</time></trkpt><trkpt lat="43.2935482423097" lon="11.783046857433668"><ele>286.0</ele><time>2026-05-03T16:07:05Z</time></trkpt><trkpt lat="43.29361438225848" lon="11.783244621128485"><ele>286.0</ele><time>2026-05-03T16:07:06Z</time></trkpt><trkpt lat="43.293706404972895" lon="11.78341549267059"><ele>285.66666666666663</ele><time>2026-05-03T16:07:07Z</time></trkpt><trkpt lat="43.293826218931116" lon="11.783562516131072"><ele>285.3333333333333</ele><time>2026-05-03T16:07:08Z</time></trkpt><trkpt lat="43.29393815316029" lon="11.783713457115534"><ele>285.0</ele><time>2026-05-03T16:07:09Z</time></trkpt><trkpt lat="43.294055094648506" lon="11.783856386987923"><ele>285.0</ele><time>2026-05-03T16:07:10Z</time></trkpt><trkpt lat="43.29416450203847" lon="11.784012906071808"><ele>285.0</ele><time>2026-05-03T16:07:11Z</time></trkpt><trkpt lat="43.29429045205118" lon="11.784145641308543"><ele>285.0</ele><time>2026-05-03T16:07:12Z</time></trkpt><trkpt lat="43.29442729154128" lon="11.784266685763173"><ele>284.6666666666667</ele><time>2026-05-03T16:07:13Z</time></trkpt><trkpt lat="43.29457382906845" lon="11.784368609677756"><ele>284.33333333333337</ele><time>2026-05-03T16:07:14Z</time></trkpt><trkpt lat="43.2947275871293" lon="11.784442893271862"><ele>284.0</ele><time>2026-05-03T16:07:15Z</time></trkpt><trkpt lat="43.29488466129713" lon="11.784495092257991"><ele>284.0</ele><time>2026-05-03T16:07:16Z</time></trkpt><trkpt lat="43.295045639243234" lon="11.784537080446094"><ele>284.0</ele><time>2026-05-03T16:07:17Z</time></trkpt><trkpt lat="43.29520401842212" lon="11.784572417714847"><ele>284.0</ele><time>2026-05-03T16:07:18Z</time></trkpt><trkpt lat="43.29536105443682" lon="11.784608139969839"><ele>284.0</ele><time>2026-05-03T16:07:19Z</time></trkpt><trkpt lat="43.2955170000724" lon="11.784643749624982"><ele>284.0</ele><time>2026-05-03T16:07:20Z</time></trkpt><trkpt lat="43.2956687324577" lon="11.784677870616134"><ele>284.0</ele><time>2026-05-03T16:07:21Z</time></trkpt><trkpt lat="43.2958173537775" lon="11.784710957587667"><ele>285.0</ele><time>2026-05-03T16:07:22Z</time></trkpt><trkpt lat="43.295961509339215" lon="11.78474305036409"><ele>286.0</ele><time>2026-05-03T16:07:23Z</time></trkpt><trkpt lat="43.29610304417825" lon="11.784774559683958"><ele>287.0</ele><time>2026-05-03T16:07:24Z</time></trkpt><trkpt lat="43.29624119681026" lon="11.784805316033676"><ele>288.0</ele><time>2026-05-03T16:07:25Z</time></trkpt><trkpt lat="43.29637967560906" lon="11.784836145025182"><ele>289.0</ele><time>2026-05-03T16:07:26Z</time></trkpt><trkpt lat="43.29652025993705" lon="11.784868310885779"><ele>290.0</ele><time>2026-05-03T16:07:27Z</time></trkpt><trkpt lat="43.29666079237166" lon="11.784900492314781"><ele>291.0</ele><time>2026-05-03T16:07:28Z</time></trkpt><trkpt lat="43.296801696015066" lon="11.784932758780855"><ele>292.0</ele><time>2026-05-03T16:07:29Z</time></trkpt><trkpt lat="43.2969413044416" lon="11.784964728669852"><ele>292.0</ele><time>2026-05-03T16:07:30Z</time></trkpt><trkpt lat="43.29708548040735" lon="11.78499774451179"><ele>292.0</ele><time>2026-05-03T16:07:31Z</time></trkpt><trkpt lat="43.29723277733421" lon="11.785031885241693"><ele>292.0</ele><time>2026-05-03T16:07:32Z</time></trkpt><trkpt lat="43.297380136278484" lon="11.785067119170272"><ele>292.0</ele><time>2026-05-03T16:07:33Z</time></trkpt><trkpt lat="43.297526570243896" lon="11.785102131943333"><ele>292.75</ele><time>2026-05-03T16:07:34Z</time></trkpt><trkpt lat="43.297669988681804" lon="11.785135528758888"><ele>293.5</ele><time>2026-05-03T16:07:35Z</time></trkpt><trkpt lat="43.297814070418674" lon="11.785168354405634"><ele>294.25</ele><time>2026-05-03T16:07:36Z</time></trkpt><trkpt lat="43.297950742255765" lon="11.785199491885166"><ele>295.0</ele><time>2026-05-03T16:07:37Z</time></trkpt><trkpt lat="43.29808581042507" lon="11.785230264008474"><ele>296.5</ele><time>2026-05-03T16:07:38Z</time></trkpt><trkpt lat="43.298220409155576" lon="11.78526326554717"><ele>298.0</ele><time>2026-05-03T16:07:39Z</time></trkpt><trkpt lat="43.29835601198969" lon="11.785299525463616"><ele>299.5</ele><time>2026-05-03T16:07:40Z</time></trkpt><trkpt lat="43.298494774092426" lon="11.78533674572648"><ele>301.0</ele><time>2026-05-03T16:07:41Z</time></trkpt><trkpt lat="43.298636582035606" lon="11.785376798084805"><ele>301.0</ele><time>2026-05-03T16:07:42Z</time></trkpt><trkpt lat="43.29878320523376" lon="11.785410786570598"><ele>301.0</ele><time>2026-05-03T16:07:43Z</time></trkpt><trkpt lat="43.2989368710983" lon="11.785421858914493"><ele>301.0</ele><time>2026-05-03T16:07:44Z</time></trkpt><trkpt lat="43.29909069221183" lon="11.785443286748576"><ele>300.3333333333333</ele><time>2026-05-03T16:07:45Z</time></trkpt><trkpt lat="43.2992462702166" lon="11.785482289610302"><ele>299.6666666666667</ele><time>2026-05-03T16:07:46Z</time></trkpt><trkpt lat="43.29940387763937" lon="11.785489060420533"><ele>299.0</ele><time>2026-05-03T16:07:47Z</time></trkpt><trkpt lat="43.299562493780336" lon="11.785491854701817"><ele>299.0</ele><time>2026-05-03T16:07:48Z</time></trkpt><trkpt lat="43.2997226834092" lon="11.785490936488253"><ele>299.0</ele><time>2026-05-03T16:07:49Z</time></trkpt><trkpt lat="43.29988155133845" lon="11.785468054975558"><ele>299.0</ele><time>2026-05-03T16:07:50Z</time></trkpt><trkpt lat="43.30004119064582" lon="11.785477673990496"><ele>298.0</ele><time>2026-05-03T16:07:51Z</time></trkpt><trkpt lat="43.30020049107342" lon="11.785484850551603"><ele>297.0</ele><time>2026-05-03T16:07:52Z</time></trkpt><trkpt lat="43.300361361684615" lon="11.785497496378655"><ele>296.0</ele><time>2026-05-03T16:07:53Z</time></trkpt><trkpt lat="43.30051865679978" lon="11.7855184196398"><ele>297.6666666666667</ele><time>2026-05-03T16:07:54Z</time></trkpt><trkpt lat="43.30067360765945" lon="11.785534288061534"><ele>299.3333333333333</ele><time>2026-05-03T16:07:55Z</time></trkpt><trkpt lat="43.3008228967018" lon="11.785551669624882"><ele>301.0</ele><time>2026-05-03T16:07:56Z</time></trkpt><trkpt lat="43.30097456367713" lon="11.785570729473795"><ele>301.0</ele><time>2026-05-03T16:07:57Z</time></trkpt><trkpt lat="43.30111990182668" lon="11.78558921898684"><ele>301.0</ele><time>2026-05-03T16:07:58Z</time></trkpt><trkpt lat="43.301260275864955" lon="11.78560916617651"><ele>301.0</ele><time>2026-05-03T16:07:59Z</time></trkpt><trkpt lat="43.30140202781" lon="11.785624474692112"><ele>301.0</ele><time>2026-05-03T16:08:00Z</time></trkpt><trkpt lat="43.30153427129804" lon="11.785639525348687"><ele>303.0</ele><time>2026-05-03T16:08:01Z</time></trkpt><trkpt lat="43.30166495776183" lon="11.785657291884911"><ele>305.0</ele><time>2026-05-03T16:08:02Z</time></trkpt><trkpt lat="43.301793879691786" lon="11.785671127644815"><ele>307.0</ele><time>2026-05-03T16:08:03Z</time></trkpt><trkpt lat="43.30192621941986" lon="11.78568799944899"><ele>309.0</ele><time>2026-05-03T16:08:04Z</time></trkpt><trkpt lat="43.302060172524" lon="11.785706345989999"><ele>309.0</ele><time>2026-05-03T16:08:05Z</time></trkpt><trkpt lat="43.30219692604728" lon="11.78572428155229"><ele>309.0</ele><time>2026-05-03T16:08:06Z</time></trkpt><trkpt lat="43.30233459749365" lon="11.785744957578206"><ele>309.0</ele><time>2026-05-03T16:08:07Z</time></trkpt><trkpt lat="43.30247234924123" lon="11.785776001838109"><ele>309.0</ele><time>2026-05-03T16:08:08Z</time></trkpt><trkpt lat="43.30260646698426" lon="11.785812588749032"><ele>309.5</ele><time>2026-05-03T16:08:09Z</time></trkpt><trkpt lat="43.30271137396341" lon="11.785855199576455"><ele>310.0</ele><time>2026-05-03T16:08:10Z</time></trkpt><trkpt lat="43.30282623328217" lon="11.785888686178804"><ele>310.5</ele><time>2026-05-03T16:08:11Z</time></trkpt><trkpt lat="43.30294531959777" lon="11.785933343430866"><ele>311.0</ele><time>2026-05-03T16:08:12Z</time></trkpt><trkpt lat="43.303054798953134" lon="11.785973932087323"><ele>310.5</ele><time>2026-05-03T16:08:13Z</time></trkpt><trkpt lat="43.30317141477774" lon="11.78600873255201"><ele>310.0</ele><time>2026-05-03T16:08:14Z</time></trkpt><trkpt lat="43.303278119855136" lon="11.786044440013114"><ele>309.5</ele><time>2026-05-03T16:08:15Z</time></trkpt><trkpt lat="43.30338707828413" lon="11.786081565272443"><ele>309.0</ele><time>2026-05-03T16:08:16Z</time></trkpt><trkpt lat="43.30349934130695" lon="11.786110944387918"><ele>308.8</ele><time>2026-05-03T16:08:17Z</time></trkpt><trkpt lat="43.30360014960109" lon="11.786139794275998"><ele>308.59999999999997</ele><time>2026-05-03T16:08:18Z</time></trkpt><trkpt lat="43.30369433004014" lon="11.786167789783313"><ele>308.4</ele><time>2026-05-03T16:08:19Z</time></trkpt><trkpt lat="43.30378107786937" lon="11.786199101561987"><ele>308.2</ele><time>2026-05-03T16:08:20Z</time></trkpt><trkpt lat="43.30386378454848" lon="11.78623533490298"><ele>308.0</ele><time>2026-05-03T16:08:21Z</time></trkpt><trkpt lat="43.303949373643476" lon="11.786275494238978"><ele>308.5</ele><time>2026-05-03T16:08:22Z</time></trkpt><trkpt lat="43.304034796926395" lon="11.786319380891062"><ele>309.0</ele><time>2026-05-03T16:08:23Z</time></trkpt><trkpt lat="43.3041096405807" lon="11.786370585115879"><ele>309.5</ele><time>2026-05-03T16:08:24Z</time></trkpt><trkpt lat="43.30418441387738" lon="11.786399737281004"><ele>310.0</ele><time>2026-05-03T16:08:25Z</time></trkpt><trkpt lat="43.30425271477932" lon="11.786426366015236"><ele>310.5</ele><time>2026-05-03T16:08:26Z</time></trkpt><trkpt lat="43.3043144836326" lon="11.786453463245948"><ele>311.0</ele><time>2026-05-03T16:08:27Z</time></trkpt><trkpt lat="43.30437410792214" lon="11.786485029414441"><ele>311.0</ele><time>2026-05-03T16:08:28Z</time></trkpt><trkpt lat="43.304441131545474" lon="11.786530495720724"><ele>311.0</ele><time>2026-05-03T16:08:29Z</time></trkpt><trkpt lat="43.304510657069606" lon="11.786603099489524"><ele>311.0</ele><time>2026-05-03T16:08:30Z</time></trkpt><trkpt lat="43.30460499810392" lon="11.786685154394494"><ele>311.0</ele><time>2026-05-03T16:08:31Z</time></trkpt><trkpt lat="43.30468640084954" lon="11.786779802204583"><ele>311.0</ele><time>2026-05-03T16:08:32Z</time></trkpt><trkpt lat="43.30476738662262" lon="11.786875845304667"><ele>311.33333333333337</ele><time>2026-05-03T16:08:33Z</time></trkpt><trkpt lat="43.304842355871365" lon="11.786956445308231"><ele>311.6666666666667</ele><time>2026-05-03T16:08:34Z</time></trkpt><trkpt lat="43.304915546438934" lon="11.787026529207854"><ele>312.0</ele><time>2026-05-03T16:08:35Z</time></trkpt><trkpt lat="43.30497078458936" lon="11.787092369255998"><ele>312.3333333333333</ele><time>2026-05-03T16:08:36Z</time></trkpt><trkpt lat="43.30505372730045" lon="11.7871817246945"><ele>312.66666666666663</ele><time>2026-05-03T16:08:38Z</time></trkpt><trkpt lat="43.305102047276925" lon="11.787274014711777"><ele>313.0</ele><time>2026-05-03T16:08:40Z</time></trkpt><trkpt lat="43.305160233341915" lon="11.78731223536539"><ele>313.0</ele><time>2026-05-03T16:08:42Z</time></trkpt><trkpt lat="43.305235704758715" lon="11.787427924953363"><ele>313.0</ele><time>2026-05-03T16:08:44Z</time></trkpt><trkpt lat="43.30529780519856" lon="11.787499128566795"><ele>313.0</ele><time>2026-05-03T16:08:45Z</time></trkpt><trkpt lat="43.30534029896964" lon="11.787591991776026"><ele>313.0</ele><time>2026-05-03T16:08:46Z</time></trkpt><trkpt lat="43.305381122233705" lon="11.787706973151357"><ele>313.0</ele><time>2026-05-03T16:08:47Z</time></trkpt><trkpt lat="43.30542438300406" lon="11.787842731289828"><ele>313.5</ele><time>2026-05-03T16:08:48Z</time></trkpt><trkpt lat="43.30547407417898" lon="11.787986471791166"><ele>314.0</ele><time>2026-05-03T16:08:49Z</time></trkpt><trkpt lat="43.305521178658594" lon="11.788122036702065"><ele>314.5</ele><time>2026-05-03T16:08:50Z</time></trkpt><trkpt lat="43.30557717845974" lon="11.788268253111806"><ele>315.0</ele><time>2026-05-03T16:08:51Z</time></trkpt><trkpt lat="43.30564788133451" lon="11.788416723885748"><ele>313.75</ele><time>2026-05-03T16:08:52Z</time></trkpt><trkpt lat="43.30572785558846" lon="11.788569571423823"><ele>312.5</ele><time>2026-05-03T16:08:53Z</time></trkpt><trkpt lat="43.305806729051646" lon="11.788716914185724"><ele>311.25</ele><time>2026-05-03T16:08:54Z</time></trkpt><trkpt lat="43.305889188655115" lon="11.788865248668605"><ele>310.0</ele><time>2026-05-03T16:08:55Z</time></trkpt><trkpt lat="43.30597649056654" lon="11.789013709234178"><ele>310.0</ele><time>2026-05-03T16:08:56Z</time></trkpt><trkpt lat="43.306050993895845" lon="11.789178920988705"><ele>310.0</ele><time>2026-05-03T16:08:57Z</time></trkpt><trkpt lat="43.3061469241666" lon="11.789316515422707"><ele>310.0</ele><time>2026-05-03T16:08:58Z</time></trkpt><trkpt lat="43.306217670367005" lon="11.789486105884167"><ele>310.0</ele><time>2026-05-03T16:08:59Z</time></trkpt><trkpt lat="43.30627061357837" lon="11.789678751763477"><ele>308.0</ele><time>2026-05-03T16:09:00Z</time></trkpt><trkpt lat="43.30629918611624" lon="11.789894772229836"><ele>306.0</ele><time>2026-05-03T16:09:01Z</time></trkpt><trkpt lat="43.30631594543075" lon="11.790106346941783"><ele>304.0</ele><time>2026-05-03T16:09:02Z</time></trkpt><trkpt lat="43.30632592539112" lon="11.790328294420922"><ele>303.0</ele><time>2026-05-03T16:09:03Z</time></trkpt><trkpt lat="43.306331808523815" lon="11.790559188946192"><ele>302.0</ele><time>2026-05-03T16:09:04Z</time></trkpt><trkpt lat="43.30634000719274" lon="11.790804894791618"><ele>301.0</ele><time>2026-05-03T16:09:05Z</time></trkpt><trkpt lat="43.306346589746695" lon="11.79105958534245"><ele>300.3333333333333</ele><time>2026-05-03T16:09:06Z</time></trkpt><trkpt lat="43.306332275884294" lon="11.791310486889298"><ele>299.6666666666667</ele><time>2026-05-03T16:09:07Z</time></trkpt><trkpt lat="43.30633697279536" lon="11.79155504363159"><ele>299.0</ele><time>2026-05-03T16:09:08Z</time></trkpt><trkpt lat="43.30634413610364" lon="11.791798287450474"><ele>299.6666666666667</ele><time>2026-05-03T16:09:09Z</time></trkpt><trkpt lat="43.30631758646887" lon="11.792034979637675"><ele>300.3333333333333</ele><time>2026-05-03T16:09:10Z</time></trkpt><trkpt lat="43.30626978832168" lon="11.792276985794379"><ele>301.0</ele><time>2026-05-03T16:09:11Z</time></trkpt><trkpt lat="43.306203167332605" lon="11.792526471476918"><ele>302.0</ele><time>2026-05-03T16:09:12Z</time></trkpt><trkpt lat="43.30614104008434" lon="11.79276825878302"><ele>303.0</ele><time>2026-05-03T16:09:13Z</time></trkpt><trkpt lat="43.30607524896511" lon="11.793003484553708"><ele>304.0</ele><time>2026-05-03T16:09:14Z</time></trkpt><trkpt lat="43.306011485365595" lon="11.793220746656557"><ele>304.0</ele><time>2026-05-03T16:09:15Z</time></trkpt><trkpt lat="43.30595552222031" lon="11.793410023183782"><ele>304.0</ele><time>2026-05-03T16:09:16Z</time></trkpt><trkpt lat="43.30590278967594" lon="11.793589872913158"><ele>304.0</ele><time>2026-05-03T16:09:17Z</time></trkpt><trkpt lat="43.305851246976914" lon="11.79376083262663"><ele>304.0</ele><time>2026-05-03T16:09:18Z</time></trkpt><trkpt lat="43.30579681479498" lon="11.793934350759757"><ele>303.5</ele><time>2026-05-03T16:09:19Z</time></trkpt><trkpt lat="43.30574524986107" lon="11.794119523009043"><ele>303.0</ele><time>2026-05-03T16:09:20Z</time></trkpt><trkpt lat="43.30570334928129" lon="11.794312908974259"><ele>302.5</ele><time>2026-05-03T16:09:21Z</time></trkpt><trkpt lat="43.305682382864276" lon="11.79451959011072"><ele>302.0</ele><time>2026-05-03T16:09:22Z</time></trkpt><trkpt lat="43.30567781069369" lon="11.794737566788514"><ele>300.6666666666667</ele><time>2026-05-03T16:09:23Z</time></trkpt><trkpt lat="43.305686996208095" lon="11.79496762208359"><ele>299.3333333333333</ele><time>2026-05-03T16:09:24Z</time></trkpt><trkpt lat="43.30570352856531" lon="11.795222542826853"><ele>298.0</ele><time>2026-05-03T16:09:25Z</time></trkpt><trkpt lat="43.3057194424892" lon="11.795482092199554"><ele>297.0</ele><time>2026-05-03T16:09:26Z</time></trkpt><trkpt lat="43.30573771536479" lon="11.795740375870158"><ele>296.0</ele><time>2026-05-03T16:09:27Z</time></trkpt><trkpt lat="43.30575555579406" lon="11.796001481170054"><ele>295.0</ele><time>2026-05-03T16:09:28Z</time></trkpt><trkpt lat="43.3057885903016" lon="11.796254508706925"><ele>294.0</ele><time>2026-05-03T16:09:29Z</time></trkpt><trkpt lat="43.30583980783663" lon="11.796519671663493"><ele>293.0</ele><time>2026-05-03T16:09:30Z</time></trkpt><trkpt lat="43.305899108052415" lon="11.796796775450657"><ele>292.0</ele><time>2026-05-03T16:09:31Z</time></trkpt><trkpt lat="43.30599381725374" lon="11.797055171903658"><ele>291.3333333333333</ele><time>2026-05-03T16:09:32Z</time></trkpt><trkpt lat="43.30607737135781" lon="11.7973119185119"><ele>290.6666666666667</ele><time>2026-05-03T16:09:33Z</time></trkpt><trkpt lat="43.30615403459973" lon="11.797574963676311"><ele>290.0</ele><time>2026-05-03T16:09:34Z</time></trkpt><trkpt lat="43.306254910775756" lon="11.79783001585764"><ele>290.0</ele><time>2026-05-03T16:09:35Z</time></trkpt><trkpt lat="43.30636419664952" lon="11.798079679095414"><ele>290.0</ele><time>2026-05-03T16:09:36Z</time></trkpt><trkpt lat="43.30647784367588" lon="11.798326581403765"><ele>290.0</ele><time>2026-05-03T16:09:37Z</time></trkpt><trkpt lat="43.30660438962211" lon="11.79855625108604"><ele>290.0</ele><time>2026-05-03T16:09:38Z</time></trkpt><trkpt lat="43.306755334118435" lon="11.798742175623184"><ele>290.0</ele><time>2026-05-03T16:09:39Z</time></trkpt><trkpt lat="43.30689226352586" lon="11.798932659507292"><ele>290.0</ele><time>2026-05-03T16:09:40Z</time></trkpt><trkpt lat="43.30703310686487" lon="11.799107535687565"><ele>290.0</ele><time>2026-05-03T16:09:41Z</time></trkpt><trkpt lat="43.307176600156296" lon="11.7992861870812"><ele>290.0</ele><time>2026-05-03T16:09:42Z</time></trkpt><trkpt lat="43.30730959816813" lon="11.7994831182956"><ele>290.0</ele><time>2026-05-03T16:09:43Z</time></trkpt><trkpt lat="43.30746190639359" lon="11.799650939915693"><ele>291.6666666666667</ele><time>2026-05-03T16:09:44Z</time></trkpt><trkpt lat="43.30761288892477" lon="11.799822775991725"><ele>293.3333333333333</ele><time>2026-05-03T16:09:45Z</time></trkpt><trkpt lat="43.307763492258424" lon="11.799995394495184"><ele>295.0</ele><time>2026-05-03T16:09:46Z</time></trkpt><trkpt lat="43.30792355510492" lon="11.800153943506478"><ele>295.0</ele><time>2026-05-03T16:09:47Z</time></trkpt><trkpt lat="43.308075140376204" lon="11.800317087088427"><ele>295.0</ele><time>2026-05-03T16:09:48Z</time></trkpt><trkpt lat="43.30822345035953" lon="11.800471580732818"><ele>295.0</ele><time>2026-05-03T16:09:49Z</time></trkpt><trkpt lat="43.308379320461526" lon="11.800627115063751"><ele>294.0</ele><time>2026-05-03T16:09:50Z</time></trkpt><trkpt lat="43.30854866847681" lon="11.800787996009865"><ele>293.0</ele><time>2026-05-03T16:09:51Z</time></trkpt><trkpt lat="43.3087129106125" lon="11.80095604439638"><ele>292.0</ele><time>2026-05-03T16:09:52Z</time></trkpt><trkpt lat="43.3088932942437" lon="11.801087605255898"><ele>289.0</ele><time>2026-05-03T16:09:53Z</time></trkpt><trkpt lat="43.30905676199575" lon="11.80124834881697"><ele>286.0</ele><time>2026-05-03T16:09:54Z</time></trkpt><trkpt lat="43.30922307293617" lon="11.801385423893008"><ele>283.0</ele><time>2026-05-03T16:09:55Z</time></trkpt><trkpt lat="43.309398603854845" lon="11.801524342370737"><ele>283.0</ele><time>2026-05-03T16:09:56Z</time></trkpt><trkpt lat="43.309579896189724" lon="11.801664252577382"><ele>283.0</ele><time>2026-05-03T16:09:57Z</time></trkpt><trkpt lat="43.30976767772309" lon="11.801810480651215"><ele>283.0</ele><time>2026-05-03T16:09:58Z</time></trkpt><trkpt lat="43.30995761793757" lon="11.801960857000251"><ele>280.3333333333333</ele><time>2026-05-03T16:09:59Z</time></trkpt><trkpt lat="43.310152577105924" lon="11.802111057872922"><ele>277.6666666666667</ele><time>2026-05-03T16:10:00Z</time></trkpt><trkpt lat="43.31035481694396" lon="11.802242968386974"><ele>275.0</ele><time>2026-05-03T16:10:01Z</time></trkpt><trkpt lat="43.310544143260266" lon="11.802412845875526"><ele>273.33333333333337</ele><time>2026-05-03T16:10:02Z</time></trkpt><trkpt lat="43.31074111525622" lon="11.802540560371467"><ele>271.6666666666667</ele><time>2026-05-03T16:10:03Z</time></trkpt><trkpt lat="43.310926462472075" lon="11.802680094029393"><ele>270.0</ele><time>2026-05-03T16:10:04Z</time></trkpt><trkpt lat="43.311109388223294" lon="11.802811393337484"><ele>269.0</ele><time>2026-05-03T16:10:05Z</time></trkpt><trkpt lat="43.31128752729269" lon="11.802941410414183"><ele>268.0</ele><time>2026-05-03T16:10:06Z</time></trkpt><trkpt lat="43.31146693440524" lon="11.803065970573703"><ele>267.0</ele><time>2026-05-03T16:10:07Z</time></trkpt><trkpt lat="43.31164022865532" lon="11.80319862537745"><ele>265.0</ele><time>2026-05-03T16:10:08Z</time></trkpt><trkpt lat="43.31180295883272" lon="11.803363640573592"><ele>263.0</ele><time>2026-05-03T16:10:09Z</time></trkpt><trkpt lat="43.3119688812693" lon="11.803526408249748"><ele>261.0</ele><time>2026-05-03T16:10:10Z</time></trkpt><trkpt lat="43.3121297773679" lon="11.803721738744594"><ele>258.0</ele><time>2026-05-03T16:10:11Z</time></trkpt><trkpt lat="43.312283194826435" lon="11.80394447103734"><ele>255.0</ele><time>2026-05-03T16:10:12Z</time></trkpt><trkpt lat="43.31243673355156" lon="11.804201619763468"><ele>254.5</ele><time>2026-05-03T16:10:13Z</time></trkpt><trkpt lat="43.31259101179921" lon="11.8044582509749"><ele>254.0</ele><time>2026-05-03T16:10:14Z</time></trkpt><trkpt lat="43.31274573181751" lon="11.804713178567933"><ele>254.0</ele><time>2026-05-03T16:10:15Z</time></trkpt><trkpt lat="43.31290024328714" lon="11.80497092800863"><ele>254.0</ele><time>2026-05-03T16:10:16Z</time></trkpt><trkpt lat="43.31305744493925" lon="11.80522200350157"><ele>254.5</ele><time>2026-05-03T16:10:17Z</time></trkpt><trkpt lat="43.31321552350041" lon="11.805475340977885"><ele>255.0</ele><time>2026-05-03T16:10:18Z</time></trkpt><trkpt lat="43.31336776772487" lon="11.805724972897742"><ele>255.0</ele><time>2026-05-03T16:10:19Z</time></trkpt><trkpt lat="43.31351911234294" lon="11.805974968250002"><ele>255.0</ele><time>2026-05-03T16:10:20Z</time></trkpt><trkpt lat="43.31367177952217" lon="11.806222587635352"><ele>255.5</ele><time>2026-05-03T16:10:21Z</time></trkpt><trkpt lat="43.31381248751552" lon="11.806480602513936"><ele>256.0</ele><time>2026-05-03T16:10:22Z</time></trkpt><trkpt lat="43.31395816203787" lon="11.80672160686261"><ele>258.3333333333333</ele><time>2026-05-03T16:10:23Z</time></trkpt><trkpt lat="43.31409509250785" lon="11.8069481536268"><ele>260.6666666666667</ele><time>2026-05-03T16:10:24Z</time></trkpt><trkpt lat="43.31422470117345" lon="11.807162611348076"><ele>263.0</ele><time>2026-05-03T16:10:25Z</time></trkpt><trkpt lat="43.314346374951036" lon="11.807363939654207"><ele>263.0</ele><time>2026-05-03T16:10:26Z</time></trkpt><trkpt lat="43.31445914989811" lon="11.807550543481689"><ele>263.0</ele><time>2026-05-03T16:10:27Z</time></trkpt><trkpt lat="43.3145649940226" lon="11.807725679018676"><ele>263.0</ele><time>2026-05-03T16:10:28Z</time></trkpt><trkpt lat="43.31466935788817" lon="11.807898365342156"><ele>262.0</ele><time>2026-05-03T16:10:29Z</time></trkpt><trkpt lat="43.31478751902912" lon="11.808058383286554"><ele>261.0</ele><time>2026-05-03T16:10:30Z</time></trkpt><trkpt lat="43.314889683139725" lon="11.808262927913235"><ele>260.0</ele><time>2026-05-03T16:10:31Z</time></trkpt><trkpt lat="43.31502615463444" lon="11.80845700321755"><ele>259.0</ele><time>2026-05-03T16:10:32Z</time></trkpt><trkpt lat="43.315147887679984" lon="11.808692005918362"><ele>258.0</ele><time>2026-05-03T16:10:33Z</time></trkpt><trkpt lat="43.31530314613921" lon="11.80891555984348"><ele>257.0</ele><time>2026-05-03T16:10:34Z</time></trkpt><trkpt lat="43.31542956426197" lon="11.809157808725786"><ele>255.33333333333334</ele><time>2026-05-03T16:10:35Z</time></trkpt><trkpt lat="43.315576311807504" lon="11.809366739733898"><ele>253.66666666666669</ele><time>2026-05-03T16:10:36Z</time></trkpt><trkpt lat="43.31570858223729" lon="11.809579237590814"><ele>252.0</ele><time>2026-05-03T16:10:37Z</time></trkpt><trkpt lat="43.31583949056021" lon="11.809772559004156"><ele>252.0</ele><time>2026-05-03T16:10:38Z</time></trkpt><trkpt lat="43.315966260611084" lon="11.809960840391852"><ele>252.0</ele><time>2026-05-03T16:10:39Z</time></trkpt><trkpt lat="43.316083398182535" lon="11.810140771172486"><ele>252.0</ele><time>2026-05-03T16:10:40Z</time></trkpt><trkpt lat="43.31619858539943" lon="11.810309902045846"><ele>251.33333333333331</ele><time>2026-05-03T16:10:41Z</time></trkpt><trkpt lat="43.31631506748643" lon="11.810454653420635"><ele>250.66666666666666</ele><time>2026-05-03T16:10:42Z</time></trkpt><trkpt lat="43.31642691570394" lon="11.810612634196895"><ele>250.0</ele><time>2026-05-03T16:10:43Z</time></trkpt><trkpt lat="43.316541628104524" lon="11.810769614960718"><ele>250.0</ele><time>2026-05-03T16:10:44Z</time></trkpt><trkpt lat="43.31666087261262" lon="11.810924691614673"><ele>250.0</ele><time>2026-05-03T16:10:45Z</time></trkpt><trkpt lat="43.31676217217404" lon="11.811123769514984"><ele>250.0</ele><time>2026-05-03T16:10:46Z</time></trkpt><trkpt lat="43.31688331558154" lon="11.811294922887237"><ele>250.0</ele><time>2026-05-03T16:10:47Z</time></trkpt><trkpt lat="43.31699820759852" lon="11.811457244341454"><ele>250.0</ele><time>2026-05-03T16:10:48Z</time></trkpt><trkpt lat="43.31711241393043" lon="11.811618596804825"><ele>250.0</ele><time>2026-05-03T16:10:49Z</time></trkpt><trkpt lat="43.31723043306351" lon="11.811753535857934"><ele>249.75</ele><time>2026-05-03T16:10:50Z</time></trkpt><trkpt lat="43.317317469016004" lon="11.811907750285675"><ele>249.5</ele><time>2026-05-03T16:10:51Z</time></trkpt><trkpt lat="43.31741902179027" lon="11.812027583272947"><ele>249.25</ele><time>2026-05-03T16:10:52Z</time></trkpt><trkpt lat="43.317499750681684" lon="11.812142191901435"><ele>249.0</ele><time>2026-05-03T16:10:53Z</time></trkpt><trkpt lat="43.31756464015741" lon="11.812256566614561"><ele>249.0</ele><time>2026-05-03T16:10:54Z</time></trkpt><trkpt lat="43.31764317552657" lon="11.812336673404067"><ele>249.0</ele><time>2026-05-03T16:10:55Z</time></trkpt><trkpt lat="43.317704315907854" lon="11.812428668256732"><ele>249.0</ele><time>2026-05-03T16:10:56Z</time></trkpt><trkpt lat="43.31775059520981" lon="11.8125260129409"><ele>249.0</ele><time>2026-05-03T16:10:57Z</time></trkpt><trkpt lat="43.317794128746556" lon="11.812630136363799"><ele>249.0</ele><time>2026-05-03T16:10:58Z</time></trkpt><trkpt lat="43.317836961072544" lon="11.812723805680713"><ele>249.0</ele><time>2026-05-03T16:10:59Z</time></trkpt><trkpt lat="43.31790304432455" lon="11.812810739932118"><ele>248.75</ele><time>2026-05-03T16:11:00Z</time></trkpt><trkpt lat="43.31799475277894" lon="11.812903804517747"><ele>248.5</ele><time>2026-05-03T16:11:01Z</time></trkpt><trkpt lat="43.31809995789303" lon="11.813027694193615"><ele>248.25</ele><time>2026-05-03T16:11:02Z</time></trkpt><trkpt lat="43.31820762606398" lon="11.813176434110357"><ele>248.0</ele><time>2026-05-03T16:11:03Z</time></trkpt><trkpt lat="43.31831371113625" lon="11.813329897881767"><ele>247.33333333333334</ele><time>2026-05-03T16:11:04Z</time></trkpt><trkpt lat="43.318426100083904" lon="11.813495216394776"><ele>246.66666666666669</ele><time>2026-05-03T16:11:05Z</time></trkpt><trkpt lat="43.3185493638301" lon="11.813669145076982"><ele>246.0</ele><time>2026-05-03T16:11:06Z</time></trkpt><trkpt lat="43.31867048708722" lon="11.813844792256065"><ele>246.0</ele><time>2026-05-03T16:11:07Z</time></trkpt><trkpt lat="43.31880533249082" lon="11.81403556649021"><ele>246.0</ele><time>2026-05-03T16:11:08Z</time></trkpt><trkpt lat="43.31894290256825" lon="11.81422561652941"><ele>246.0</ele><time>2026-05-03T16:11:09Z</time></trkpt><trkpt lat="43.31907480464957" lon="11.814416628802311"><ele>245.66666666666669</ele><time>2026-05-03T16:11:10Z</time></trkpt><trkpt lat="43.31920113495547" lon="11.81460013136975"><ele>245.33333333333334</ele><time>2026-05-03T16:11:11Z</time></trkpt><trkpt lat="43.319317529526664" lon="11.81477783767187"><ele>245.0</ele><time>2026-05-03T16:11:12Z</time></trkpt><trkpt lat="43.319414032174" lon="11.814966275944954"><ele>245.0</ele><time>2026-05-03T16:11:13Z</time></trkpt><trkpt lat="43.31949423148081" lon="11.815151509559183"><ele>245.0</ele><time>2026-05-03T16:11:14Z</time></trkpt><trkpt lat="43.31955096104174" lon="11.815347963948629"><ele>245.0</ele><time>2026-05-03T16:11:15Z</time></trkpt><trkpt lat="43.319584441721915" lon="11.815555100529668"><ele>245.0</ele><time>2026-05-03T16:11:16Z</time></trkpt><trkpt lat="43.31959629590393" lon="11.81577394538463"><ele>245.0</ele><time>2026-05-03T16:11:17Z</time></trkpt><trkpt lat="43.319590058134395" lon="11.81599204932148"><ele>245.0</ele><time>2026-05-03T16:11:18Z</time></trkpt><trkpt lat="43.319565845222236" lon="11.816223906196697"><ele>245.0</ele><time>2026-05-03T16:11:19Z</time></trkpt><trkpt lat="43.3195332806666" lon="11.816485111070236"><ele>245.0</ele><time>2026-05-03T16:11:20Z</time></trkpt><trkpt lat="43.319503264919895" lon="11.816758254802837"><ele>245.0</ele><time>2026-05-03T16:11:21Z</time></trkpt><trkpt lat="43.31947067402194" lon="11.817052113508668"><ele>245.0</ele><time>2026-05-03T16:11:22Z</time></trkpt><trkpt lat="43.319437967911405" lon="11.817356178190332"><ele>245.0</ele><time>2026-05-03T16:11:23Z</time></trkpt><trkpt lat="43.31940385586298" lon="11.817672875340243"><ele>244.5</ele><time>2026-05-03T16:11:24Z</time></trkpt><trkpt lat="43.31936929606873" lon="11.817997124564767"><ele>244.0</ele><time>2026-05-03T16:11:25Z</time></trkpt><trkpt lat="43.31933471619563" lon="11.818326568466388"><ele>245.0</ele><time>2026-05-03T16:11:26Z</time></trkpt><trkpt lat="43.31930385440723" lon="11.81863541745806"><ele>246.0</ele><time>2026-05-03T16:11:27Z</time></trkpt><trkpt lat="43.31927115571428" lon="11.81896079143834"><ele>246.0</ele><time>2026-05-03T16:11:28Z</time></trkpt><trkpt lat="43.31923926756493" lon="11.81929079708161"><ele>246.0</ele><time>2026-05-03T16:11:29Z</time></trkpt><trkpt lat="43.31919386241325" lon="11.8196037661615"><ele>246.0</ele><time>2026-05-03T16:11:30Z</time></trkpt><trkpt lat="43.3191646668092" lon="11.819917207444488"><ele>246.0</ele><time>2026-05-03T16:11:31Z</time></trkpt><trkpt lat="43.31913532968653" lon="11.820239016929596"><ele>246.0</ele><time>2026-05-03T16:11:32Z</time></trkpt><trkpt lat="43.31910630815541" lon="11.820563833472916"><ele>246.0</ele><time>2026-05-03T16:11:33Z</time></trkpt><trkpt lat="43.31907625299822" lon="11.820893590319299"><ele>245.0</ele><time>2026-05-03T16:11:34Z</time></trkpt><trkpt lat="43.31905760769849" lon="11.821226653539204"><ele>244.0</ele><time>2026-05-03T16:11:35Z</time></trkpt><trkpt lat="43.31902429223494" lon="11.821566569387915"><ele>244.5</ele><time>2026-05-03T16:11:36Z</time></trkpt><trkpt lat="43.31899203583486" lon="11.82190925527872"><ele>245.0</ele><time>2026-05-03T16:11:37Z</time></trkpt><trkpt lat="43.31896106867258" lon="11.822250607683836"><ele>245.0</ele><time>2026-05-03T16:11:38Z</time></trkpt><trkpt lat="43.31892729383551" lon="11.822590889962205"><ele>245.0</ele><time>2026-05-03T16:11:39Z</time></trkpt><trkpt lat="43.31889398917403" lon="11.822933737613607"><ele>245.0</ele><time>2026-05-03T16:11:40Z</time></trkpt><trkpt lat="43.3188616331212" lon="11.823276827227819"><ele>245.0</ele><time>2026-05-03T16:11:41Z</time></trkpt><trkpt lat="43.318826356903486" lon="11.823618279625903"><ele>245.0</ele><time>2026-05-03T16:11:42Z</time></trkpt><trkpt lat="43.3187904856548" lon="11.8239602216255"><ele>245.0</ele><time>2026-05-03T16:11:43Z</time></trkpt><trkpt lat="43.31875477071774" lon="11.824300083505443"><ele>244.0</ele><time>2026-05-03T16:11:44Z</time></trkpt><trkpt lat="43.31872250100494" lon="11.82463527979318"><ele>243.0</ele><time>2026-05-03T16:11:45Z</time></trkpt><trkpt lat="43.318692896870445" lon="11.824967285245807"><ele>243.5</ele><time>2026-05-03T16:11:46Z</time></trkpt><trkpt lat="43.31866185979178" lon="11.825293193722654"><ele>244.0</ele><time>2026-05-03T16:11:47Z</time></trkpt><trkpt lat="43.318631210918085" lon="11.825610582010956"><ele>244.0</ele><time>2026-05-03T16:11:48Z</time></trkpt><trkpt lat="43.31860158863882" lon="11.825911053657796"><ele>244.0</ele><time>2026-05-03T16:11:49Z</time></trkpt><trkpt lat="43.318574773777804" lon="11.826196042520765"><ele>244.0</ele><time>2026-05-03T16:11:50Z</time></trkpt><trkpt lat="43.318549587098296" lon="11.826466638733848"><ele>244.0</ele><time>2026-05-03T16:11:51Z</time></trkpt><trkpt lat="43.31852449974387" lon="11.82672234163385"><ele>244.0</ele><time>2026-05-03T16:11:52Z</time></trkpt><trkpt lat="43.31849932747231" lon="11.826966124394007"><ele>244.0</ele><time>2026-05-03T16:11:53Z</time></trkpt><trkpt lat="43.318474897838705" lon="11.82719904727228"><ele>244.0</ele><time>2026-05-03T16:11:54Z</time></trkpt><trkpt lat="43.31845404505986" lon="11.827418820532099"><ele>244.0</ele><time>2026-05-03T16:11:55Z</time></trkpt><trkpt lat="43.31843384530717" lon="11.827632405434066"><ele>244.0</ele><time>2026-05-03T16:11:56Z</time></trkpt><trkpt lat="43.31841345046471" lon="11.8278469199213"><ele>244.0</ele><time>2026-05-03T16:11:57Z</time></trkpt><trkpt lat="43.318393651154814" lon="11.82806224796367"><ele>244.0</ele><time>2026-05-03T16:11:58Z</time></trkpt><trkpt lat="43.3183723658124" lon="11.828280042308585"><ele>244.0</ele><time>2026-05-03T16:11:59Z</time></trkpt><trkpt lat="43.318351768482174" lon="11.828505208417"><ele>244.33333333333331</ele><time>2026-05-03T16:12:00Z</time></trkpt><trkpt lat="43.31832890082841" lon="11.828732669476933"><ele>244.66666666666669</ele><time>2026-05-03T16:12:01Z</time></trkpt><trkpt lat="43.31830853448258" lon="11.828963940310418"><ele>245.0</ele><time>2026-05-03T16:12:02Z</time></trkpt><trkpt lat="43.31828644057179" lon="11.829195687203311"><ele>245.0</ele><time>2026-05-03T16:12:03Z</time></trkpt><trkpt lat="43.31826656095909" lon="11.829418947037677"><ele>245.0</ele><time>2026-05-03T16:12:04Z</time></trkpt><trkpt lat="43.31824658196573" lon="11.829637350719803"><ele>245.0</ele><time>2026-05-03T16:12:05Z</time></trkpt><trkpt lat="43.31822460474841" lon="11.829849927638124"><ele>245.0</ele><time>2026-05-03T16:12:06Z</time></trkpt><trkpt lat="43.31820307701009" lon="11.830056525434484"><ele>245.0</ele><time>2026-05-03T16:12:07Z</time></trkpt><trkpt lat="43.31818277694645" lon="11.83025895982229"><ele>245.0</ele><time>2026-05-03T16:12:08Z</time></trkpt><trkpt lat="43.31816449626679" lon="11.830459031766733"><ele>245.0</ele><time>2026-05-03T16:12:09Z</time></trkpt><trkpt lat="43.318145959356364" lon="11.830652245331528"><ele>244.5</ele><time>2026-05-03T16:12:10Z</time></trkpt><trkpt lat="43.31813143336992" lon="11.830843797951552"><ele>244.0</ele><time>2026-05-03T16:12:11Z</time></trkpt><trkpt lat="43.318119082771986" lon="11.831034009975838"><ele>243.5</ele><time>2026-05-03T16:12:12Z</time></trkpt><trkpt lat="43.318113103644116" lon="11.831220076314098"><ele>243.0</ele><time>2026-05-03T16:12:13Z</time></trkpt><trkpt lat="43.31811941601922" lon="11.831402536055233"><ele>243.0</ele><time>2026-05-03T16:12:14Z</time></trkpt><trkpt lat="43.31813784147856" lon="11.83158889201352"><ele>243.0</ele><time>2026-05-03T16:12:15Z</time></trkpt><trkpt lat="43.318167823013" lon="11.831780882661091"><ele>243.0</ele><time>2026-05-03T16:12:16Z</time></trkpt><trkpt lat="43.318217790085434" lon="11.831967623412414"><ele>243.0</ele><time>2026-05-03T16:12:17Z</time></trkpt><trkpt lat="43.31828754995593" lon="11.832144520792763"><ele>243.0</ele><time>2026-05-03T16:12:18Z</time></trkpt><trkpt lat="43.31836391871259" lon="11.832314182005435"><ele>243.0</ele><time>2026-05-03T16:12:19Z</time></trkpt><trkpt lat="43.3184451825867" lon="11.832473880531177"><ele>243.0</ele><time>2026-05-03T16:12:20Z</time></trkpt><trkpt lat="43.31852224399935" lon="11.832625305144893"><ele>243.0</ele><time>2026-05-03T16:12:21Z</time></trkpt><trkpt lat="43.31859769196436" lon="11.832774095576589"><ele>243.0</ele><time>2026-05-03T16:12:22Z</time></trkpt><trkpt lat="43.318672225149705" lon="11.832921322198407"><ele>243.0</ele><time>2026-05-03T16:12:23Z</time></trkpt><trkpt lat="43.318748402193286" lon="11.833065003904073"><ele>243.0</ele><time>2026-05-03T16:12:24Z</time></trkpt><trkpt lat="43.318824931399476" lon="11.833214268413283"><ele>243.0</ele><time>2026-05-03T16:12:25Z</time></trkpt><trkpt lat="43.3189038327639" lon="11.833368397661927"><ele>243.0</ele><time>2026-05-03T16:12:26Z</time></trkpt><trkpt lat="43.318986426474105" lon="11.8335290949778"><ele>243.0</ele><time>2026-05-03T16:12:27Z</time></trkpt><trkpt lat="43.31907328241764" lon="11.8336902406029"><ele>243.0</ele><time>2026-05-03T16:12:28Z</time></trkpt><trkpt lat="43.31915832516906" lon="11.833855931066134"><ele>243.0</ele><time>2026-05-03T16:12:29Z</time></trkpt><trkpt lat="43.31925116140118" lon="11.834014574892288"><ele>243.0</ele><time>2026-05-03T16:12:30Z</time></trkpt><trkpt lat="43.31933719130187" lon="11.83417093486511"><ele>243.0</ele><time>2026-05-03T16:12:31Z</time></trkpt><trkpt lat="43.319423404662906" lon="11.834311044576987"><ele>243.0</ele><time>2026-05-03T16:12:32Z</time></trkpt><trkpt lat="43.31950631016451" lon="11.834441286971298"><ele>243.0</ele><time>2026-05-03T16:12:33Z</time></trkpt><trkpt lat="43.31958517098827" lon="11.834560843539032"><ele>243.0</ele><time>2026-05-03T16:12:34Z</time></trkpt><trkpt lat="43.31965629854868" lon="11.834673923889452"><ele>243.0</ele><time>2026-05-03T16:12:35Z</time></trkpt><trkpt lat="43.31972258497187" lon="11.834776192298037"><ele>243.0</ele><time>2026-05-03T16:12:36Z</time></trkpt><trkpt lat="43.31978986433523" lon="11.834867804560854"><ele>243.0</ele><time>2026-05-03T16:12:37Z</time></trkpt><trkpt lat="43.31984908759866" lon="11.834952703115313"><ele>243.0</ele><time>2026-05-03T16:12:38Z</time></trkpt><trkpt lat="43.319901639980394" lon="11.835027183976607"><ele>243.0</ele><time>2026-05-03T16:12:39Z</time></trkpt><trkpt lat="43.31995140284588" lon="11.835101839111298"><ele>243.0</ele><time>2026-05-03T16:12:40Z</time></trkpt><trkpt lat="43.32000041566846" lon="11.835178421782201"><ele>243.0</ele><time>2026-05-03T16:12:41Z</time></trkpt><trkpt lat="43.32004352275454" lon="11.835245745780968"><ele>243.0</ele><time>2026-05-03T16:12:42Z</time></trkpt><trkpt lat="43.320107077854935" lon="11.8353571442294"><ele>243.0</ele><time>2026-05-03T16:12:44Z</time></trkpt><trkpt lat="43.3201488374438" lon="11.83547985883755"><ele>243.0</ele><time>2026-05-03T16:13:34Z</time></trkpt><trkpt lat="43.32022040557403" lon="11.835644989839407"><ele>242.66666666666666</ele><time>2026-05-03T16:13:36Z</time></trkpt><trkpt lat="43.320268623387776" lon="11.835738348834557"><ele>242.33333333333331</ele><time>2026-05-03T16:13:37Z</time></trkpt><trkpt lat="43.320307720912375" lon="11.835845010892344"><ele>242.0</ele><time>2026-05-03T16:13:38Z</time></trkpt><trkpt lat="43.32033078128106" lon="11.835961267564565"><ele>241.66666666666666</ele><time>2026-05-03T16:13:39Z</time></trkpt><trkpt lat="43.32035685846688" lon="11.836080324035056"><ele>241.33333333333331</ele><time>2026-05-03T16:13:40Z</time></trkpt><trkpt lat="43.320389949838564" lon="11.83619435941756"><ele>241.0</ele><time>2026-05-03T16:13:41Z</time></trkpt><trkpt lat="43.32041681830134" lon="11.836327110410226"><ele>241.0</ele><time>2026-05-03T16:13:42Z</time></trkpt><trkpt lat="43.3204482271371" lon="11.836444395231526"><ele>241.00000000000003</ele><time>2026-05-03T16:13:43Z</time></trkpt><trkpt lat="43.320485485062314" lon="11.836558237552147"><ele>241.00000000000003</ele><time>2026-05-03T16:13:44Z</time></trkpt><trkpt lat="43.320530086818536" lon="11.836683031230347"><ele>241.0</ele><time>2026-05-03T16:13:45Z</time></trkpt><trkpt lat="43.32058332715541" lon="11.836812016905819"><ele>241.0</ele><time>2026-05-03T16:13:46Z</time></trkpt><trkpt lat="43.320641720205955" lon="11.836955196702522"><ele>241.20000000000002</ele><time>2026-05-03T16:13:47Z</time></trkpt><trkpt lat="43.32070283921743" lon="11.837091802201604"><ele>241.40000000000003</ele><time>2026-05-03T16:13:48Z</time></trkpt><trkpt lat="43.320756615933334" lon="11.837218726465084"><ele>241.6</ele><time>2026-05-03T16:13:49Z</time></trkpt><trkpt lat="43.3208090329422" lon="11.837337883869996"><ele>241.8</ele><time>2026-05-03T16:13:50Z</time></trkpt><trkpt lat="43.32086196272966" lon="11.837464545131613"><ele>242.0</ele><time>2026-05-03T16:13:51Z</time></trkpt><trkpt lat="43.32091722936845" lon="11.837592499511857"><ele>241.75</ele><time>2026-05-03T16:13:52Z</time></trkpt><trkpt lat="43.32097557282133" lon="11.837727301927737"><ele>241.5</ele><time>2026-05-03T16:13:53Z</time></trkpt><trkpt lat="43.3210302598717" lon="11.8378771677406"><ele>241.25</ele><time>2026-05-03T16:13:54Z</time></trkpt><trkpt lat="43.32109156482807" lon="11.838019379689264"><ele>241.0</ele><time>2026-05-03T16:13:55Z</time></trkpt><trkpt lat="43.32115330648863" lon="11.83819931840728"><ele>241.0</ele><time>2026-05-03T16:13:56Z</time></trkpt><trkpt lat="43.32122729401359" lon="11.838382765022757"><ele>241.0</ele><time>2026-05-03T16:13:57Z</time></trkpt><trkpt lat="43.32129896615187" lon="11.838572698368065"><ele>241.0</ele><time>2026-05-03T16:13:58Z</time></trkpt><trkpt lat="43.32137271626378" lon="11.838752319590348"><ele>241.0</ele><time>2026-05-03T16:13:59Z</time></trkpt><trkpt lat="43.32144762823608" lon="11.838930574109698"><ele>241.0</ele><time>2026-05-03T16:14:00Z</time></trkpt><trkpt lat="43.321516690155036" lon="11.839108245255611"><ele>241.0</ele><time>2026-05-03T16:14:01Z</time></trkpt><trkpt lat="43.321588379805114" lon="11.839286549483681"><ele>241.0</ele><time>2026-05-03T16:14:02Z</time></trkpt><trkpt lat="43.321660352238396" lon="11.83946597970459"><ele>240.66666666666666</ele><time>2026-05-03T16:14:03Z</time></trkpt><trkpt lat="43.321727624633624" lon="11.83964311191173"><ele>240.33333333333331</ele><time>2026-05-03T16:14:04Z</time></trkpt><trkpt lat="43.32179738909774" lon="11.839831394284785"><ele>240.0</ele><time>2026-05-03T16:14:05Z</time></trkpt><trkpt lat="43.32187167517337" lon="11.84001821830397"><ele>240.33333333333331</ele><time>2026-05-03T16:14:06Z</time></trkpt><trkpt lat="43.32194829569276" lon="11.840211177517071"><ele>240.66666666666666</ele><time>2026-05-03T16:14:07Z</time></trkpt><trkpt lat="43.3220257566013" lon="11.840401921417774"><ele>241.0</ele><time>2026-05-03T16:14:08Z</time></trkpt><trkpt lat="43.32210062105281" lon="11.840598616277251"><ele>241.0</ele><time>2026-05-03T16:14:09Z</time></trkpt><trkpt lat="43.32217707533641" lon="11.840798367659707"><ele>241.0</ele><time>2026-05-03T16:14:10Z</time></trkpt><trkpt lat="43.322248883947665" lon="11.841002696500857"><ele>241.0</ele><time>2026-05-03T16:14:11Z</time></trkpt><trkpt lat="43.32231503688909" lon="11.84121070321526"><ele>241.0</ele><time>2026-05-03T16:14:12Z</time></trkpt><trkpt lat="43.32237666595468" lon="11.841412403076538"><ele>241.0</ele><time>2026-05-03T16:14:13Z</time></trkpt><trkpt lat="43.322435821950585" lon="11.84162154664145"><ele>241.0</ele><time>2026-05-03T16:14:14Z</time></trkpt><trkpt lat="43.32249280223545" lon="11.841830752409255"><ele>241.0</ele><time>2026-05-03T16:14:15Z</time></trkpt><trkpt lat="43.32254001293229" lon="11.842058084917904"><ele>241.0</ele><time>2026-05-03T16:14:16Z</time></trkpt><trkpt lat="43.32260618474067" lon="11.842301019347428"><ele>241.0</ele><time>2026-05-03T16:14:17Z</time></trkpt><trkpt lat="43.322676679970144" lon="11.842559826356474"><ele>240.66666666666666</ele><time>2026-05-03T16:14:18Z</time></trkpt><trkpt lat="43.322750813666715" lon="11.842831991330222"><ele>240.33333333333331</ele><time>2026-05-03T16:14:19Z</time></trkpt><trkpt lat="43.32282615482014" lon="11.84310858898597"><ele>240.0</ele><time>2026-05-03T16:14:20Z</time></trkpt><trkpt lat="43.32290101252416" lon="11.843382242307507"><ele>240.0</ele><time>2026-05-03T16:14:21Z</time></trkpt><trkpt lat="43.3229906395108" lon="11.843651474912477"><ele>240.0</ele><time>2026-05-03T16:14:22Z</time></trkpt><trkpt lat="43.32306568453002" lon="11.843927179329517"><ele>240.0</ele><time>2026-05-03T16:14:23Z</time></trkpt><trkpt lat="43.32314001272" lon="11.844194497144874"><ele>240.33333333333331</ele><time>2026-05-03T16:14:24Z</time></trkpt><trkpt lat="43.323200910454695" lon="11.844472124754958"><ele>240.66666666666666</ele><time>2026-05-03T16:14:25Z</time></trkpt><trkpt lat="43.323277217259324" lon="11.8447494666031"><ele>241.0</ele><time>2026-05-03T16:14:26Z</time></trkpt><trkpt lat="43.32335462106461" lon="11.845030795599529"><ele>241.33333333333331</ele><time>2026-05-03T16:14:27Z</time></trkpt><trkpt lat="43.323431092787146" lon="11.845308736949772"><ele>241.66666666666669</ele><time>2026-05-03T16:14:28Z</time></trkpt><trkpt lat="43.32350645080849" lon="11.845582630450103"><ele>242.0</ele><time>2026-05-03T16:14:29Z</time></trkpt><trkpt lat="43.32359552226493" lon="11.845846303465676"><ele>243.0</ele><time>2026-05-03T16:14:30Z</time></trkpt><trkpt lat="43.32366995731999" lon="11.846110901006528"><ele>244.0</ele><time>2026-05-03T16:14:31Z</time></trkpt><trkpt lat="43.3237368821517" lon="11.846370250443758"><ele>245.0</ele><time>2026-05-03T16:14:32Z</time></trkpt><trkpt lat="43.32385621506785" lon="11.846590127785763"><ele>246.0</ele><time>2026-05-03T16:14:33Z</time></trkpt><trkpt lat="43.323969403980584" lon="11.846794701996949"><ele>247.0</ele><time>2026-05-03T16:14:34Z</time></trkpt><trkpt lat="43.32409016643481" lon="11.84697734183509"><ele>248.0</ele><time>2026-05-03T16:14:35Z</time></trkpt><trkpt lat="43.32422700497937" lon="11.847133357062233"><ele>248.0</ele><time>2026-05-03T16:14:36Z</time></trkpt><trkpt lat="43.32437019505685" lon="11.847293628487058"><ele>248.0</ele><time>2026-05-03T16:14:37Z</time></trkpt><trkpt lat="43.32453366026814" lon="11.84742470389039"><ele>248.0</ele><time>2026-05-03T16:14:38Z</time></trkpt><trkpt lat="43.324708930408896" lon="11.847544603364394"><ele>251.66666666666669</ele><time>2026-05-03T16:14:39Z</time></trkpt><trkpt lat="43.32486915252985" lon="11.84770690677949"><ele>255.33333333333331</ele><time>2026-05-03T16:14:40Z</time></trkpt><trkpt lat="43.32504273672098" lon="11.847853926249972"><ele>259.0</ele><time>2026-05-03T16:14:41Z</time></trkpt><trkpt lat="43.32522040685033" lon="11.84800335090437"><ele>259.0</ele><time>2026-05-03T16:14:42Z</time></trkpt><trkpt lat="43.3254012244558" lon="11.848154852486827"><ele>259.0</ele><time>2026-05-03T16:14:43Z</time></trkpt><trkpt lat="43.3255835723649" lon="11.848307636051832"><ele>259.0</ele><time>2026-05-03T16:14:44Z</time></trkpt><trkpt lat="43.32576877841213" lon="11.848461473878157"><ele>261.3333333333333</ele><time>2026-05-03T16:14:45Z</time></trkpt><trkpt lat="43.32595351783811" lon="11.848614895974192"><ele>263.6666666666667</ele><time>2026-05-03T16:14:46Z</time></trkpt><trkpt lat="43.32614514694386" lon="11.848751758077286"><ele>266.0</ele><time>2026-05-03T16:14:47Z</time></trkpt><trkpt lat="43.32632227184782" lon="11.84889579900514"><ele>266.0</ele><time>2026-05-03T16:14:48Z</time></trkpt><trkpt lat="43.32649094386686" lon="11.849043631353506"><ele>266.0</ele><time>2026-05-03T16:14:49Z</time></trkpt><trkpt lat="43.32664638556888" lon="11.849183088280286"><ele>266.0</ele><time>2026-05-03T16:14:50Z</time></trkpt><trkpt lat="43.326786091026044" lon="11.849332727856087"><ele>266.33333333333337</ele><time>2026-05-03T16:14:51Z</time></trkpt><trkpt lat="43.32691421904938" lon="11.849498163373411"><ele>266.6666666666667</ele><time>2026-05-03T16:14:52Z</time></trkpt><trkpt lat="43.32702589081867" lon="11.849686052041072"><ele>267.0</ele><time>2026-05-03T16:14:53Z</time></trkpt><trkpt lat="43.32712540221756" lon="11.849901061943457"><ele>267.0</ele><time>2026-05-03T16:14:54Z</time></trkpt><trkpt lat="43.32721269572253" lon="11.850139887236153"><ele>267.0</ele><time>2026-05-03T16:14:55Z</time></trkpt><trkpt lat="43.3272974867222" lon="11.85039025685161"><ele>267.0</ele><time>2026-05-03T16:14:56Z</time></trkpt><trkpt lat="43.327387893307126" lon="11.850644945384133"><ele>267.0</ele><time>2026-05-03T16:14:57Z</time></trkpt><trkpt lat="43.32746400798557" lon="11.850923638998257"><ele>267.0</ele><time>2026-05-03T16:14:58Z</time></trkpt><trkpt lat="43.32755612997541" lon="11.85119884467279"><ele>267.0</ele><time>2026-05-03T16:14:59Z</time></trkpt><trkpt lat="43.32765202665708" lon="11.851479527211728"><ele>266.5</ele><time>2026-05-03T16:15:00Z</time></trkpt><trkpt lat="43.32774791151471" lon="11.851760174465808"><ele>266.0</ele><time>2026-05-03T16:15:01Z</time></trkpt><trkpt lat="43.32784760045668" lon="11.85204706837165"><ele>266.0</ele><time>2026-05-03T16:15:02Z</time></trkpt><trkpt lat="43.3279513560085" lon="11.85233793187848"><ele>266.0</ele><time>2026-05-03T16:15:03Z</time></trkpt><trkpt lat="43.328056523134094" lon="11.852627714912973"><ele>265.5</ele><time>2026-05-03T16:15:04Z</time></trkpt><trkpt lat="43.328179055047535" lon="11.852916245777461"><ele>265.0</ele><time>2026-05-03T16:15:05Z</time></trkpt><trkpt lat="43.32827562007279" lon="11.853229205379906"><ele>265.0</ele><time>2026-05-03T16:15:06Z</time></trkpt><trkpt lat="43.328390191477254" lon="11.853541126017443"><ele>265.0</ele><time>2026-05-03T16:15:07Z</time></trkpt><trkpt lat="43.32850734843968" lon="11.853858559449119"><ele>265.0</ele><time>2026-05-03T16:15:08Z</time></trkpt><trkpt lat="43.32862557176651" lon="11.854177060022321"><ele>265.0</ele><time>2026-05-03T16:15:09Z</time></trkpt><trkpt lat="43.328745545738634" lon="11.854495330515816"><ele>265.0</ele><time>2026-05-03T16:15:10Z</time></trkpt><trkpt lat="43.32886741430458" lon="11.8548150263098"><ele>265.0</ele><time>2026-05-03T16:15:11Z</time></trkpt><trkpt lat="43.3289861167211" lon="11.855129882052768"><ele>265.5</ele><time>2026-05-03T16:15:12Z</time></trkpt><trkpt lat="43.32910412501724" lon="11.855442456664111"><ele>266.0</ele><time>2026-05-03T16:15:13Z</time></trkpt><trkpt lat="43.32922405721208" lon="11.855760127309473"><ele>265.5</ele><time>2026-05-03T16:15:14Z</time></trkpt><trkpt lat="43.32934205598947" lon="11.85607678078249"><ele>265.0</ele><time>2026-05-03T16:15:15Z</time></trkpt><trkpt lat="43.329461377930066" lon="11.856397470754198"><ele>265.0</ele><time>2026-05-03T16:15:16Z</time></trkpt><trkpt lat="43.32957972406992" lon="11.856713710015038"><ele>265.0</ele><time>2026-05-03T16:15:17Z</time></trkpt><trkpt lat="43.32969794194858" lon="11.857025989450909"><ele>265.0</ele><time>2026-05-03T16:15:18Z</time></trkpt><trkpt lat="43.329818053342514" lon="11.85733964754953"><ele>265.0</ele><time>2026-05-03T16:15:19Z</time></trkpt><trkpt lat="43.329937040724" lon="11.857647604397725"><ele>263.5</ele><time>2026-05-03T16:15:20Z</time></trkpt><trkpt lat="43.33005582819577" lon="11.85795504378195"><ele>262.0</ele><time>2026-05-03T16:15:21Z</time></trkpt><trkpt lat="43.33017506801492" lon="11.858263653899455"><ele>262.0</ele><time>2026-05-03T16:15:22Z</time></trkpt><trkpt lat="43.33031175506741" lon="11.858554966656817"><ele>262.0</ele><time>2026-05-03T16:15:23Z</time></trkpt><trkpt lat="43.33042833677454" lon="11.85886232157809"><ele>262.0</ele><time>2026-05-03T16:15:24Z</time></trkpt><trkpt lat="43.33054428377225" lon="11.859165451136745"><ele>262.0</ele><time>2026-05-03T16:15:25Z</time></trkpt><trkpt lat="43.33065963068318" lon="11.859467816116716"><ele>261.5</ele><time>2026-05-03T16:15:26Z</time></trkpt><trkpt lat="43.33077564522108" lon="11.859774117937656"><ele>261.0</ele><time>2026-05-03T16:15:27Z</time></trkpt><trkpt lat="43.33089468656712" lon="11.860077871624885"><ele>261.0</ele><time>2026-05-03T16:15:28Z</time></trkpt><trkpt lat="43.331012709098204" lon="11.860386954563177"><ele>261.0</ele><time>2026-05-03T16:15:29Z</time></trkpt><trkpt lat="43.331130570719466" lon="11.860687115022225"><ele>260.5</ele><time>2026-05-03T16:15:30Z</time></trkpt><trkpt lat="43.331248690796414" lon="11.86099069492214"><ele>260.0</ele><time>2026-05-03T16:15:31Z</time></trkpt><trkpt lat="43.33136757688741" lon="11.861288998261214"><ele>260.0</ele><time>2026-05-03T16:15:32Z</time></trkpt><trkpt lat="43.33148150780261" lon="11.861597936682676"><ele>260.0</ele><time>2026-05-03T16:15:33Z</time></trkpt><trkpt lat="43.331596733825144" lon="11.861902357219634"><ele>260.5</ele><time>2026-05-03T16:15:34Z</time></trkpt><trkpt lat="43.331718821727584" lon="11.862199316570603"><ele>261.0</ele><time>2026-05-03T16:15:35Z</time></trkpt><trkpt lat="43.33183400677763" lon="11.862505495496759"><ele>260.5</ele><time>2026-05-03T16:15:36Z</time></trkpt><trkpt lat="43.331952800429185" lon="11.862817677867476"><ele>260.0</ele><time>2026-05-03T16:15:37Z</time></trkpt><trkpt lat="43.332073420680736" lon="11.863130256844842"><ele>260.0</ele><time>2026-05-03T16:15:38Z</time></trkpt><trkpt lat="43.33219627377629" lon="11.863453897753855"><ele>260.0</ele><time>2026-05-03T16:15:39Z</time></trkpt><trkpt lat="43.33232193068574" lon="11.86377890897646"><ele>260.0</ele><time>2026-05-03T16:15:40Z</time></trkpt><trkpt lat="43.33245083815422" lon="11.864105355438621"><ele>260.0</ele><time>2026-05-03T16:15:41Z</time></trkpt><trkpt lat="43.33257616064269" lon="11.864436782422608"><ele>259.5</ele><time>2026-05-03T16:15:42Z</time></trkpt><trkpt lat="43.33269607322489" lon="11.864771938235323"><ele>259.0</ele><time>2026-05-03T16:15:43Z</time></trkpt><trkpt lat="43.33281730705681" lon="11.86509782463296"><ele>259.0</ele><time>2026-05-03T16:15:44Z</time></trkpt><trkpt lat="43.33293421433661" lon="11.865424476471526"><ele>259.0</ele><time>2026-05-03T16:15:45Z</time></trkpt><trkpt lat="43.33305024326297" lon="11.865742698878389"><ele>259.5</ele><time>2026-05-03T16:15:46Z</time></trkpt><trkpt lat="43.33316528420875" lon="11.866060149252494"><ele>260.0</ele><time>2026-05-03T16:15:47Z</time></trkpt><trkpt lat="43.33327863358017" lon="11.866374231872477"><ele>260.0</ele><time>2026-05-03T16:15:48Z</time></trkpt><trkpt lat="43.33339050124662" lon="11.866684443223129"><ele>260.0</ele><time>2026-05-03T16:15:49Z</time></trkpt><trkpt lat="43.33350167757633" lon="11.866991263302516"><ele>259.5</ele><time>2026-05-03T16:15:50Z</time></trkpt><trkpt lat="43.333598638182956" lon="11.867298605475021"><ele>259.0</ele><time>2026-05-03T16:15:51Z</time></trkpt><trkpt lat="43.33370925896512" lon="11.86760407960957"><ele>258.5</ele><time>2026-05-03T16:15:52Z</time></trkpt><trkpt lat="43.33382048335741" lon="11.86791122017656"><ele>258.0</ele><time>2026-05-03T16:15:53Z</time></trkpt><trkpt lat="43.33393208964044" lon="11.868219415580937"><ele>257.0</ele><time>2026-05-03T16:15:54Z</time></trkpt><trkpt lat="43.33404449044893" lon="11.868534271259241"><ele>256.0</ele><time>2026-05-03T16:15:55Z</time></trkpt><trkpt lat="43.334155338510946" lon="11.86884553521892"><ele>256.0</ele><time>2026-05-03T16:15:56Z</time></trkpt><trkpt lat="43.334268065166754" lon="11.869159522837057"><ele>256.0</ele><time>2026-05-03T16:15:57Z</time></trkpt><trkpt lat="43.33438562949959" lon="11.869477225228936"><ele>256.5</ele><time>2026-05-03T16:15:58Z</time></trkpt><trkpt lat="43.334501636946825" lon="11.869789380947342"><ele>257.0</ele><time>2026-05-03T16:15:59Z</time></trkpt><trkpt lat="43.3346077810524" lon="11.870095779062332"><ele>256.0</ele><time>2026-05-03T16:16:00Z</time></trkpt><trkpt lat="43.33470666906045" lon="11.870383789636824"><ele>255.0</ele><time>2026-05-03T16:16:01Z</time></trkpt><trkpt lat="43.334798271261796" lon="11.870665392922003"><ele>255.5</ele><time>2026-05-03T16:16:02Z</time></trkpt><trkpt lat="43.33488525786616" lon="11.87096749318156"><ele>256.0</ele><time>2026-05-03T16:16:03Z</time></trkpt><trkpt lat="43.33496241879011" lon="11.871272463033158"><ele>256.0</ele><time>2026-05-03T16:16:04Z</time></trkpt><trkpt lat="43.33503212993235" lon="11.871560638178808"><ele>256.0</ele><time>2026-05-03T16:16:05Z</time></trkpt><trkpt lat="43.33509725743511" lon="11.87183209566047"><ele>256.0</ele><time>2026-05-03T16:16:06Z</time></trkpt><trkpt lat="43.335163988365075" lon="11.872087623919334"><ele>256.0</ele><time>2026-05-03T16:16:07Z</time></trkpt><trkpt lat="43.33520647819018" lon="11.8723468283587"><ele>256.0</ele><time>2026-05-03T16:16:08Z</time></trkpt><trkpt lat="43.335230822949626" lon="11.8726099812916"><ele>256.0</ele><time>2026-05-03T16:16:09Z</time></trkpt><trkpt lat="43.33523604659854" lon="11.872875478967531"><ele>255.33333333333331</ele><time>2026-05-03T16:16:10Z</time></trkpt><trkpt lat="43.33521890339867" lon="11.87317436096075"><ele>254.66666666666669</ele><time>2026-05-03T16:16:11Z</time></trkpt><trkpt lat="43.33518863260203" lon="11.873463314920315"><ele>254.0</ele><time>2026-05-03T16:16:12Z</time></trkpt><trkpt lat="43.33515108996111" lon="11.873767036831193"><ele>253.5</ele><time>2026-05-03T16:16:13Z</time></trkpt><trkpt lat="43.335116016990796" lon="11.874080753350631"><ele>253.0</ele><time>2026-05-03T16:16:14Z</time></trkpt><trkpt lat="43.33508056144115" lon="11.87440776420281"><ele>253.0</ele><time>2026-05-03T16:16:15Z</time></trkpt><trkpt lat="43.335046792637144" lon="11.874735798748056"><ele>253.0</ele><time>2026-05-03T16:16:16Z</time></trkpt><trkpt lat="43.33502063919029" lon="11.87506138253872"><ele>254.0</ele><time>2026-05-03T16:16:17Z</time></trkpt><trkpt lat="43.335010352052855" lon="11.875389283589461"><ele>255.0</ele><time>2026-05-03T16:16:18Z</time></trkpt><trkpt lat="43.335012319817224" lon="11.875713331853923"><ele>255.0</ele><time>2026-05-03T16:16:19Z</time></trkpt><trkpt lat="43.335019893127516" lon="11.876034947781525"><ele>255.0</ele><time>2026-05-03T16:16:20Z</time></trkpt><trkpt lat="43.335027695224724" lon="11.876352504781638"><ele>255.0</ele><time>2026-05-03T16:16:21Z</time></trkpt><trkpt lat="43.33503486626424" lon="11.876671359544954"><ele>255.0</ele><time>2026-05-03T16:16:22Z</time></trkpt><trkpt lat="43.33504001689355" lon="11.876988662233394"><ele>254.5</ele><time>2026-05-03T16:16:23Z</time></trkpt><trkpt lat="43.33504309076015" lon="11.87730493746441"><ele>254.0</ele><time>2026-05-03T16:16:24Z</time></trkpt><trkpt lat="43.33504872862994" lon="11.877611768888283"><ele>254.0</ele><time>2026-05-03T16:16:25Z</time></trkpt><trkpt lat="43.33506125106443" lon="11.877898696779212"><ele>254.0</ele><time>2026-05-03T16:16:26Z</time></trkpt><trkpt lat="43.33506985655428" lon="11.878172373745969"><ele>254.0</ele><time>2026-05-03T16:16:27Z</time></trkpt><trkpt lat="43.33507172493973" lon="11.878445405937844"><ele>254.33333333333334</ele><time>2026-05-03T16:16:28Z</time></trkpt><trkpt lat="43.33507526131366" lon="11.878721800342662"><ele>254.66666666666669</ele><time>2026-05-03T16:16:29Z</time></trkpt><trkpt lat="43.33507855525834" lon="11.878998062040894"><ele>255.0</ele><time>2026-05-03T16:16:30Z</time></trkpt><trkpt lat="43.335083359220626" lon="11.879269929171631"><ele>255.0</ele><time>2026-05-03T16:16:31Z</time></trkpt><trkpt lat="43.33508459667511" lon="11.87953469828131"><ele>255.0</ele><time>2026-05-03T16:16:32Z</time></trkpt><trkpt lat="43.335085610023334" lon="11.879783827092735"><ele>255.0</ele><time>2026-05-03T16:16:33Z</time></trkpt><trkpt lat="43.33508563198091" lon="11.880022737341566"><ele>255.0</ele><time>2026-05-03T16:16:34Z</time></trkpt><trkpt lat="43.33508609021552" lon="11.88024927366852"><ele>255.0</ele><time>2026-05-03T16:16:35Z</time></trkpt><trkpt lat="43.335085697280675" lon="11.880479236668934"><ele>255.0</ele><time>2026-05-03T16:16:36Z</time></trkpt><trkpt lat="43.335096921436474" lon="11.880701966847655"><ele>255.0</ele><time>2026-05-03T16:16:37Z</time></trkpt><trkpt lat="43.3351159722733" lon="11.880900611076449"><ele>255.0</ele><time>2026-05-03T16:16:38Z</time></trkpt><trkpt lat="43.33514321054652" lon="11.881076709210918"><ele>255.0</ele><time>2026-05-03T16:16:39Z</time></trkpt><trkpt lat="43.33517321493505" lon="11.88123133171725"><ele>255.0</ele><time>2026-05-03T16:16:40Z</time></trkpt><trkpt lat="43.335197935518536" lon="11.881371272936136"><ele>255.0</ele><time>2026-05-03T16:16:41Z</time></trkpt><trkpt lat="43.3352225066348" lon="11.881483546676566"><ele>255.0</ele><time>2026-05-03T16:16:42Z</time></trkpt><trkpt lat="43.335240839673745" lon="11.881571899485161"><ele>255.0</ele><time>2026-05-03T16:16:43Z</time></trkpt><trkpt lat="43.33526636389985" lon="11.881708570026392"><ele>255.0</ele><time>2026-05-03T16:16:45Z</time></trkpt><trkpt lat="43.33526794035459" lon="11.881840071705916"><ele>255.0</ele><time>2026-05-03T16:17:32Z</time></trkpt><trkpt lat="43.335284439567296" lon="11.882020634000787"><ele>255.0</ele><time>2026-05-03T16:17:34Z</time></trkpt><trkpt lat="43.33529805534407" lon="11.882146152173211"><ele>255.0</ele><time>2026-05-03T16:17:35Z</time></trkpt><trkpt lat="43.33530787804068" lon="11.882262754728655"><ele>255.0</ele><time>2026-05-03T16:17:36Z</time></trkpt><trkpt lat="43.335318993663435" lon="11.882403868858196"><ele>255.0</ele><time>2026-05-03T16:17:37Z</time></trkpt><trkpt lat="43.33533072180064" lon="11.882571273840503"><ele>255.0</ele><time>2026-05-03T16:17:38Z</time></trkpt><trkpt lat="43.33534679708199" lon="11.88273372786832"><ele>254.25</ele><time>2026-05-03T16:17:39Z</time></trkpt><trkpt lat="43.335363046787705" lon="11.882902793255676"><ele>253.5</ele><time>2026-05-03T16:17:40Z</time></trkpt><trkpt lat="43.33537962683678" lon="11.883086491689923"><ele>252.75</ele><time>2026-05-03T16:17:41Z</time></trkpt><trkpt lat="43.33539993135931" lon="11.883286964080236"><ele>252.0</ele><time>2026-05-03T16:17:42Z</time></trkpt><trkpt lat="43.33542353764971" lon="11.883514237206443"><ele>252.0</ele><time>2026-05-03T16:17:43Z</time></trkpt><trkpt lat="43.335447495960906" lon="11.883743706566955"><ele>252.0</ele><time>2026-05-03T16:17:44Z</time></trkpt><trkpt lat="43.33547270619099" lon="11.883978679787246"><ele>252.0</ele><time>2026-05-03T16:17:45Z</time></trkpt><trkpt lat="43.335497389356746" lon="11.884232928538172"><ele>252.0</ele><time>2026-05-03T16:17:46Z</time></trkpt><trkpt lat="43.33553319188764" lon="11.88448985572357"><ele>252.0</ele><time>2026-05-03T16:17:47Z</time></trkpt><trkpt lat="43.33556207014707" lon="11.884738125687335"><ele>252.0</ele><time>2026-05-03T16:17:48Z</time></trkpt><trkpt lat="43.33559029383289" lon="11.88499028498651"><ele>252.0</ele><time>2026-05-03T16:17:49Z</time></trkpt><trkpt lat="43.33561871220689" lon="11.885252320409554"><ele>252.0</ele><time>2026-05-03T16:17:50Z</time></trkpt><trkpt lat="43.335649468713186" lon="11.885521649512526"><ele>252.0</ele><time>2026-05-03T16:17:51Z</time></trkpt><trkpt lat="43.33567944898857" lon="11.885793936037935"><ele>251.33333333333331</ele><time>2026-05-03T16:17:52Z</time></trkpt><trkpt lat="43.33570898303527" lon="11.886070278235355"><ele>250.66666666666666</ele><time>2026-05-03T16:17:53Z</time></trkpt><trkpt lat="43.33574107707628" lon="11.886346412364485"><ele>250.0</ele><time>2026-05-03T16:17:54Z</time></trkpt><trkpt lat="43.33577029820544" lon="11.886629732872379"><ele>250.0</ele><time>2026-05-03T16:17:55Z</time></trkpt><trkpt lat="43.335802594597354" lon="11.88691519405989"><ele>250.0</ele><time>2026-05-03T16:17:56Z</time></trkpt><trkpt lat="43.33583162012498" lon="11.88720099871968"><ele>250.0</ele><time>2026-05-03T16:17:57Z</time></trkpt><trkpt lat="43.33586840200445" lon="11.887481446166186"><ele>250.0</ele><time>2026-05-03T16:17:58Z</time></trkpt><trkpt lat="43.335922982034475" lon="11.887748464435028"><ele>250.0</ele><time>2026-05-03T16:17:59Z</time></trkpt><trkpt lat="43.33600145455597" lon="11.888008990012878"><ele>250.0</ele><time>2026-05-03T16:18:00Z</time></trkpt><trkpt lat="43.336094971795895" lon="11.888260253346212"><ele>249.66666666666666</ele><time>2026-05-03T16:18:01Z</time></trkpt><trkpt lat="43.336200899911184" lon="11.888512049751034"><ele>249.33333333333331</ele><time>2026-05-03T16:18:02Z</time></trkpt><trkpt lat="43.33631275537989" lon="11.888763436581872"><ele>249.0</ele><time>2026-05-03T16:18:03Z</time></trkpt><trkpt lat="43.33642075501787" lon="11.889021335336224"><ele>249.66666666666669</ele><time>2026-05-03T16:18:04Z</time></trkpt><trkpt lat="43.3365300505956" lon="11.8892786480722"><ele>250.33333333333334</ele><time>2026-05-03T16:18:05Z</time></trkpt><trkpt lat="43.33664139992298" lon="11.889528382989452"><ele>251.0</ele><time>2026-05-03T16:18:06Z</time></trkpt><trkpt lat="43.33674738687235" lon="11.889770220396619"><ele>251.0</ele><time>2026-05-03T16:18:07Z</time></trkpt><trkpt lat="43.336845547740914" lon="11.89000058894089"><ele>251.0</ele><time>2026-05-03T16:18:08Z</time></trkpt><trkpt lat="43.336932574246184" lon="11.890235668414718"><ele>251.0</ele><time>2026-05-03T16:18:09Z</time></trkpt><trkpt lat="43.33699836908086" lon="11.890487494131113"><ele>251.0</ele><time>2026-05-03T16:18:10Z</time></trkpt><trkpt lat="43.33704143705234" lon="11.890748820709701"><ele>251.0</ele><time>2026-05-03T16:18:11Z</time></trkpt><trkpt lat="43.33706383878949" lon="11.891021872258383"><ele>251.0</ele><time>2026-05-03T16:18:12Z</time></trkpt><trkpt lat="43.33708638572016" lon="11.891295128124822"><ele>251.0</ele><time>2026-05-03T16:18:13Z</time></trkpt><trkpt lat="43.33711720882734" lon="11.891567811889791"><ele>251.0</ele><time>2026-05-03T16:18:14Z</time></trkpt><trkpt lat="43.33715890206279" lon="11.891841094030141"><ele>251.0</ele><time>2026-05-03T16:18:15Z</time></trkpt><trkpt lat="43.33721740101452" lon="11.892106030149563"><ele>251.33333333333334</ele><time>2026-05-03T16:18:16Z</time></trkpt><trkpt lat="43.337277795659304" lon="11.892360148383657"><ele>251.66666666666669</ele><time>2026-05-03T16:18:17Z</time></trkpt><trkpt lat="43.337335447798914" lon="11.892608745175663"><ele>252.0</ele><time>2026-05-03T16:18:18Z</time></trkpt><trkpt lat="43.33739182312813" lon="11.89284571909593"><ele>252.33333333333331</ele><time>2026-05-03T16:18:19Z</time></trkpt><trkpt lat="43.33744504592198" lon="11.893071531929634"><ele>252.66666666666666</ele><time>2026-05-03T16:18:20Z</time></trkpt><trkpt lat="43.33749540666722" lon="11.893284439950234"><ele>253.0</ele><time>2026-05-03T16:18:21Z</time></trkpt><trkpt lat="43.337541852322204" lon="11.893488540725325"><ele>253.25</ele><time>2026-05-03T16:18:22Z</time></trkpt><trkpt lat="43.33758632144328" lon="11.893678288761025"><ele>253.5</ele><time>2026-05-03T16:18:23Z</time></trkpt><trkpt lat="43.33763049395011" lon="11.893869140233328"><ele>253.75</ele><time>2026-05-03T16:18:24Z</time></trkpt><trkpt lat="43.33767616977199" lon="11.894057224318036"><ele>254.0</ele><time>2026-05-03T16:18:25Z</time></trkpt><trkpt lat="43.3377165896555" lon="11.89423769983417"><ele>253.75</ele><time>2026-05-03T16:18:26Z</time></trkpt><trkpt lat="43.337755590858684" lon="11.894405818106891"><ele>253.5</ele><time>2026-05-03T16:18:27Z</time></trkpt><trkpt lat="43.33779323451856" lon="11.894573010588033"><ele>253.25</ele><time>2026-05-03T16:18:28Z</time></trkpt><trkpt lat="43.33783703651556" lon="11.894735550918929"><ele>253.0</ele><time>2026-05-03T16:18:29Z</time></trkpt><trkpt lat="43.33788821096844" lon="11.894907855979836"><ele>253.33333333333331</ele><time>2026-05-03T16:18:30Z</time></trkpt><trkpt lat="43.337962674038465" lon="11.895099537333232"><ele>253.66666666666669</ele><time>2026-05-03T16:18:31Z</time></trkpt><trkpt lat="43.33804867992052" lon="11.895318919044962"><ele>254.0</ele><time>2026-05-03T16:18:32Z</time></trkpt><trkpt lat="43.33813415184573" lon="11.895560209387499"><ele>254.0</ele><time>2026-05-03T16:18:33Z</time></trkpt><trkpt lat="43.33822350975427" lon="11.895799092391757"><ele>254.0</ele><time>2026-05-03T16:18:34Z</time></trkpt><trkpt lat="43.338313580938696" lon="11.896031243235983"><ele>254.0</ele><time>2026-05-03T16:18:35Z</time></trkpt><trkpt lat="43.33840915411575" lon="11.89627178646341"><ele>253.33333333333334</ele><time>2026-05-03T16:18:36Z</time></trkpt><trkpt lat="43.33850510949165" lon="11.896510793832892"><ele>252.66666666666669</ele><time>2026-05-03T16:18:37Z</time></trkpt><trkpt lat="43.338601361428054" lon="11.896750447802193"><ele>252.0</ele><time>2026-05-03T16:18:38Z</time></trkpt><trkpt lat="43.338682515468186" lon="11.897020536379994"><ele>252.0</ele><time>2026-05-03T16:18:39Z</time></trkpt><trkpt lat="43.33875320594239" lon="11.897304751682862"><ele>252.0</ele><time>2026-05-03T16:18:40Z</time></trkpt><trkpt lat="43.33881631514394" lon="11.897597619085843"><ele>252.0</ele><time>2026-05-03T16:18:41Z</time></trkpt><trkpt lat="43.338876681769214" lon="11.897897474336299"><ele>252.5</ele><time>2026-05-03T16:18:42Z</time></trkpt><trkpt lat="43.3389395494258" lon="11.89819574031046"><ele>253.0</ele><time>2026-05-03T16:18:43Z</time></trkpt><trkpt lat="43.33900874526532" lon="11.898489314484722"><ele>253.0</ele><time>2026-05-03T16:18:44Z</time></trkpt><trkpt lat="43.33909066059285" lon="11.89877600002169"><ele>253.0</ele><time>2026-05-03T16:18:45Z</time></trkpt><trkpt lat="43.339187830310614" lon="11.899055752869467"><ele>253.0</ele><time>2026-05-03T16:18:46Z</time></trkpt><trkpt lat="43.33929893386667" lon="11.89932559900448"><ele>253.0</ele><time>2026-05-03T16:18:47Z</time></trkpt><trkpt lat="43.33942368792496" lon="11.899584422857822"><ele>253.0</ele><time>2026-05-03T16:18:48Z</time></trkpt><trkpt lat="43.33955648331732" lon="11.899840713072946"><ele>253.5</ele><time>2026-05-03T16:18:49Z</time></trkpt><trkpt lat="43.33969176971647" lon="11.900100212386574"><ele>254.0</ele><time>2026-05-03T16:18:50Z</time></trkpt><trkpt lat="43.33982952535352" lon="11.900359375032888"><ele>254.0</ele><time>2026-05-03T16:18:51Z</time></trkpt><trkpt lat="43.33997146269108" lon="11.900605181830784"><ele>254.0</ele><time>2026-05-03T16:18:52Z</time></trkpt><trkpt lat="43.34011263326196" lon="11.900851470239632"><ele>253.66666666666669</ele><time>2026-05-03T16:18:53Z</time></trkpt><trkpt lat="43.34024752410514" lon="11.901083288892332"><ele>253.33333333333331</ele><time>2026-05-03T16:18:54Z</time></trkpt><trkpt lat="43.34037410299436" lon="11.90129252449756"><ele>253.0</ele><time>2026-05-03T16:18:55Z</time></trkpt><trkpt lat="43.340494853487414" lon="11.901498552999332"><ele>253.33333333333331</ele><time>2026-05-03T16:18:56Z</time></trkpt><trkpt lat="43.34060619475374" lon="11.901695043837979"><ele>253.66666666666669</ele><time>2026-05-03T16:18:57Z</time></trkpt><trkpt lat="43.34071297824772" lon="11.901875669548877"><ele>254.0</ele><time>2026-05-03T16:18:58Z</time></trkpt><trkpt lat="43.340821234355126" lon="11.902054297715544"><ele>254.33333333333334</ele><time>2026-05-03T16:18:59Z</time></trkpt><trkpt lat="43.34093104629412" lon="11.902236181801728"><ele>254.66666666666669</ele><time>2026-05-03T16:19:00Z</time></trkpt><trkpt lat="43.341041929844266" lon="11.902418639788662"><ele>255.0</ele><time>2026-05-03T16:19:01Z</time></trkpt><trkpt lat="43.34115030749852" lon="11.902605218666961"><ele>255.33333333333331</ele><time>2026-05-03T16:19:02Z</time></trkpt><trkpt lat="43.34124871251569" lon="11.902794909256116"><ele>255.66666666666666</ele><time>2026-05-03T16:19:03Z</time></trkpt><trkpt lat="43.34132810769619" lon="11.90298356178484"><ele>256.0</ele><time>2026-05-03T16:19:04Z</time></trkpt><trkpt lat="43.341379274147705" lon="11.903175177345497"><ele>256.0</ele><time>2026-05-03T16:19:05Z</time></trkpt><trkpt lat="43.3414061698038" lon="11.903373214471344"><ele>256.0</ele><time>2026-05-03T16:19:06Z</time></trkpt><trkpt lat="43.34140795317645" lon="11.903569920309206"><ele>256.0</ele><time>2026-05-03T16:19:07Z</time></trkpt><trkpt lat="43.341400303466116" lon="11.903753232461396"><ele>256.0</ele><time>2026-05-03T16:19:08Z</time></trkpt><trkpt lat="43.34138367760649" lon="11.903944890152214"><ele>256.0</ele><time>2026-05-03T16:19:09Z</time></trkpt><trkpt lat="43.34137425784781" lon="11.904134087355413"><ele>256.0</ele><time>2026-05-03T16:19:10Z</time></trkpt><trkpt lat="43.341403946548404" lon="11.904308295189134"><ele>256.0</ele><time>2026-05-03T16:19:11Z</time></trkpt><trkpt lat="43.341349945158484" lon="11.90450969390567"><ele>256.0</ele><time>2026-05-03T16:19:12Z</time></trkpt><trkpt lat="43.341337901048405" lon="11.90467809734739"><ele>256.0</ele><time>2026-05-03T16:19:13Z</time></trkpt><trkpt lat="43.34133231192069" lon="11.904831224399931"><ele>256.0</ele><time>2026-05-03T16:19:14Z</time></trkpt><trkpt lat="43.341339632402835" lon="11.90498955300593"><ele>256.0</ele><time>2026-05-03T16:19:15Z</time></trkpt><trkpt lat="43.34137307185811" lon="11.90515671647135"><ele>256.0</ele><time>2026-05-03T16:19:16Z</time></trkpt><trkpt lat="43.34142552757537" lon="11.905327917675594"><ele>256.5</ele><time>2026-05-03T16:19:17Z</time></trkpt><trkpt lat="43.3415008386227" lon="11.905488830156077"><ele>257.0</ele><time>2026-05-03T16:19:18Z</time></trkpt><trkpt lat="43.341563814062766" lon="11.905668781250887"><ele>257.5</ele><time>2026-05-03T16:19:19Z</time></trkpt><trkpt lat="43.341626140643726" lon="11.905856621986523"><ele>258.0</ele><time>2026-05-03T16:19:20Z</time></trkpt><trkpt lat="43.341679349854985" lon="11.906029705762714"><ele>258.0</ele><time>2026-05-03T16:19:21Z</time></trkpt><trkpt lat="43.3417424473224" lon="11.906188980045952"><ele>258.0</ele><time>2026-05-03T16:19:22Z</time></trkpt><trkpt lat="43.3417852286652" lon="11.906350551559193"><ele>258.0</ele><time>2026-05-03T16:19:23Z</time></trkpt><trkpt lat="43.34183159491183" lon="11.906503792379185"><ele>258.0</ele><time>2026-05-03T16:19:24Z</time></trkpt><trkpt lat="43.341883125421624" lon="11.906659824040256"><ele>257.75</ele><time>2026-05-03T16:19:25Z</time></trkpt><trkpt lat="43.341930793702716" lon="11.906820746717777"><ele>257.5</ele><time>2026-05-03T16:19:26Z</time></trkpt><trkpt lat="43.34197107997795" lon="11.906986385512752"><ele>257.25</ele><time>2026-05-03T16:19:27Z</time></trkpt><trkpt lat="43.342001829978834" lon="11.907155766331043"><ele>257.0</ele><time>2026-05-03T16:19:28Z</time></trkpt><trkpt lat="43.34202778454894" lon="11.907329788629688"><ele>257.0</ele><time>2026-05-03T16:19:29Z</time></trkpt><trkpt lat="43.34205084676324" lon="11.907508142116717"><ele>257.0</ele><time>2026-05-03T16:19:30Z</time></trkpt><trkpt lat="43.34206906084566" lon="11.907690047044879"><ele>257.0</ele><time>2026-05-03T16:19:31Z</time></trkpt><trkpt lat="43.34207354038766" lon="11.907881470277387"><ele>257.0</ele><time>2026-05-03T16:19:32Z</time></trkpt><trkpt lat="43.342078972704016" lon="11.908053138292546"><ele>257.0</ele><time>2026-05-03T16:19:33Z</time></trkpt><trkpt lat="43.34207596558901" lon="11.908214494519209"><ele>257.0</ele><time>2026-05-03T16:19:34Z</time></trkpt><trkpt lat="43.342072245410066" lon="11.90836171841515"><ele>257.0</ele><time>2026-05-03T16:19:35Z</time></trkpt><trkpt lat="43.342066770961125" lon="11.908497073451079"><ele>257.0</ele><time>2026-05-03T16:19:36Z</time></trkpt><trkpt lat="43.34205140864117" lon="11.908628051661713"><ele>257.0</ele><time>2026-05-03T16:19:37Z</time></trkpt><trkpt lat="43.34202209147872" lon="11.90876292639576"><ele>257.0</ele><time>2026-05-03T16:19:38Z</time></trkpt><trkpt lat="43.3419806120804" lon="11.908904323761446"><ele>257.0</ele><time>2026-05-03T16:19:39Z</time></trkpt><trkpt lat="43.34192490633148" lon="11.90905018363964"><ele>257.0</ele><time>2026-05-03T16:19:40Z</time></trkpt><trkpt lat="43.34186789091516" lon="11.909202668082854"><ele>257.0</ele><time>2026-05-03T16:19:41Z</time></trkpt><trkpt lat="43.341820141126675" lon="11.909367855215178"><ele>257.0</ele><time>2026-05-03T16:19:42Z</time></trkpt><trkpt lat="43.34177417596383" lon="11.909544428012252"><ele>257.0</ele><time>2026-05-03T16:19:43Z</time></trkpt><trkpt lat="43.34172807877761" lon="11.90972433826798"><ele>257.0</ele><time>2026-05-03T16:19:44Z</time></trkpt><trkpt lat="43.34167819626149" lon="11.909914060135067"><ele>257.0</ele><time>2026-05-03T16:19:45Z</time></trkpt><trkpt lat="43.341627829846075" lon="11.910107923031477"><ele>257.0</ele><time>2026-05-03T16:19:46Z</time></trkpt><trkpt lat="43.34157581623201" lon="11.910303621165667"><ele>257.0</ele><time>2026-05-03T16:19:47Z</time></trkpt><trkpt lat="43.34152436705378" lon="11.9105012292633"><ele>257.0</ele><time>2026-05-03T16:19:48Z</time></trkpt><trkpt lat="43.34147385058624" lon="11.910701110084648"><ele>257.0</ele><time>2026-05-03T16:19:49Z</time></trkpt><trkpt lat="43.34142669332426" lon="11.91090527564864"><ele>257.0</ele><time>2026-05-03T16:19:50Z</time></trkpt><trkpt lat="43.341383211549584" lon="11.91111215602354"><ele>257.0</ele><time>2026-05-03T16:19:51Z</time></trkpt><trkpt lat="43.34133889471563" lon="11.911323462672298"><ele>257.0</ele><time>2026-05-03T16:19:52Z</time></trkpt><trkpt lat="43.341294433594086" lon="11.911536352424987"><ele>257.0</ele><time>2026-05-03T16:19:53Z</time></trkpt><trkpt lat="43.34124882958033" lon="11.911748786356267"><ele>257.0</ele><time>2026-05-03T16:19:54Z</time></trkpt><trkpt lat="43.341202515860246" lon="11.911964397727516"><ele>257.33333333333337</ele><time>2026-05-03T16:19:55Z</time></trkpt><trkpt lat="43.3411534285702" lon="11.912178296368479"><ele>257.6666666666667</ele><time>2026-05-03T16:19:56Z</time></trkpt><trkpt lat="43.341102248956645" lon="11.912393587288422"><ele>258.0</ele><time>2026-05-03T16:19:57Z</time></trkpt><trkpt lat="43.34104989088782" lon="11.912605543162613"><ele>258.6666666666667</ele><time>2026-05-03T16:19:58Z</time></trkpt><trkpt lat="43.34099246259741" lon="11.912813001024094"><ele>259.33333333333337</ele><time>2026-05-03T16:19:59Z</time></trkpt><trkpt lat="43.34092133930268" lon="11.913007969520628"><ele>260.0</ele><time>2026-05-03T16:20:00Z</time></trkpt><trkpt lat="43.340847459174256" lon="11.913186073098766"><ele>260.0</ele><time>2026-05-03T16:20:01Z</time></trkpt><trkpt lat="43.34076373849238" lon="11.913353087650398"><ele>260.0</ele><time>2026-05-03T16:20:02Z</time></trkpt><trkpt lat="43.34067393525036" lon="11.913522451033819"><ele>260.0</ele><time>2026-05-03T16:20:03Z</time></trkpt><trkpt lat="43.34059411075471" lon="11.913696682983966"><ele>259.0</ele><time>2026-05-03T16:20:04Z</time></trkpt><trkpt lat="43.34052811164387" lon="11.91388644462321"><ele>258.0</ele><time>2026-05-03T16:20:05Z</time></trkpt><trkpt lat="43.34047432673927" lon="11.914082153584753"><ele>257.0</ele><time>2026-05-03T16:20:06Z</time></trkpt><trkpt lat="43.34042796643919" lon="11.914282759090154"><ele>257.0</ele><time>2026-05-03T16:20:07Z</time></trkpt><trkpt lat="43.34038913083292" lon="11.914486527003364"><ele>257.0</ele><time>2026-05-03T16:20:08Z</time></trkpt><trkpt lat="43.34036863812853" lon="11.914686149526444"><ele>257.0</ele><time>2026-05-03T16:20:09Z</time></trkpt><trkpt lat="43.34035350234492" lon="11.914902920001873"><ele>257.0</ele><time>2026-05-03T16:20:10Z</time></trkpt><trkpt lat="43.34034509483457" lon="11.915123655882542"><ele>257.0</ele><time>2026-05-03T16:20:11Z</time></trkpt><trkpt lat="43.34033273307448" lon="11.91535141666299"><ele>257.0</ele><time>2026-05-03T16:20:12Z</time></trkpt><trkpt lat="43.34031339255793" lon="11.915582905294706"><ele>257.0</ele><time>2026-05-03T16:20:13Z</time></trkpt><trkpt lat="43.340285665360376" lon="11.915813541552373"><ele>257.0</ele><time>2026-05-03T16:20:14Z</time></trkpt><trkpt lat="43.3402434804134" lon="11.91604103237872"><ele>257.0</ele><time>2026-05-03T16:20:15Z</time></trkpt><trkpt lat="43.34019526561597" lon="11.916251369370139"><ele>257.5</ele><time>2026-05-03T16:20:16Z</time></trkpt><trkpt lat="43.34014534475847" lon="11.916450802201124"><ele>258.0</ele><time>2026-05-03T16:20:17Z</time></trkpt><trkpt lat="43.34009251175132" lon="11.91664145652743"><ele>258.5</ele><time>2026-05-03T16:20:18Z</time></trkpt><trkpt lat="43.340033650800024" lon="11.916825778246855"><ele>259.0</ele><time>2026-05-03T16:20:19Z</time></trkpt><trkpt lat="43.33997010838713" lon="11.91701027121928"><ele>259.0</ele><time>2026-05-03T16:20:20Z</time></trkpt><trkpt lat="43.33990738250687" lon="11.917193398136352"><ele>259.0</ele><time>2026-05-03T16:20:21Z</time></trkpt><trkpt lat="43.3398433412365" lon="11.917382132084658"><ele>259.0</ele><time>2026-05-03T16:20:22Z</time></trkpt><trkpt lat="43.33977991600821" lon="11.917576091522406"><ele>258.3333333333333</ele><time>2026-05-03T16:20:23Z</time></trkpt><trkpt lat="43.339714141024345" lon="11.917774389326693"><ele>257.6666666666667</ele><time>2026-05-03T16:20:24Z</time></trkpt><trkpt lat="43.339646571612015" lon="11.91797385078307"><ele>257.0</ele><time>2026-05-03T16:20:25Z</time></trkpt><trkpt lat="43.33957823870746" lon="11.918177518293435"><ele>257.0</ele><time>2026-05-03T16:20:26Z</time></trkpt><trkpt lat="43.33950941556999" lon="11.918382421282125"><ele>257.0</ele><time>2026-05-03T16:20:27Z</time></trkpt><trkpt lat="43.33943235787477" lon="11.91857897638387"><ele>257.0</ele><time>2026-05-03T16:20:28Z</time></trkpt><trkpt lat="43.339353150331696" lon="11.918773153952513"><ele>257.33333333333337</ele><time>2026-05-03T16:20:29Z</time></trkpt><trkpt lat="43.33927135567345" lon="11.918951902617637"><ele>257.6666666666667</ele><time>2026-05-03T16:20:30Z</time></trkpt><trkpt lat="43.339183696463834" lon="11.919117463083658"><ele>258.0</ele><time>2026-05-03T16:20:31Z</time></trkpt><trkpt lat="43.339093153678625" lon="11.919279427766893"><ele>257.75</ele><time>2026-05-03T16:20:32Z</time></trkpt><trkpt lat="43.339002819483014" lon="11.919433641022975"><ele>257.5</ele><time>2026-05-03T16:20:33Z</time></trkpt><trkpt lat="43.33891521391397" lon="11.919578000964696"><ele>257.25</ele><time>2026-05-03T16:20:34Z</time></trkpt><trkpt lat="43.338832554961066" lon="11.919713992298279"><ele>257.0</ele><time>2026-05-03T16:20:35Z</time></trkpt><trkpt lat="43.33875439979925" lon="11.919831463450912"><ele>257.0</ele><time>2026-05-03T16:20:36Z</time></trkpt><trkpt lat="43.33868092681844" lon="11.919936105540366"><ele>257.0</ele><time>2026-05-03T16:20:37Z</time></trkpt><trkpt lat="43.33861995856325" lon="11.920022105806922"><ele>257.0</ele><time>2026-05-03T16:20:38Z</time></trkpt><trkpt lat="43.338562143591744" lon="11.920094975859838"><ele>257.0</ele><time>2026-05-03T16:20:39Z</time></trkpt><trkpt lat="43.33850620440664" lon="11.920149590501824"><ele>257.0</ele><time>2026-05-03T16:20:40Z</time></trkpt><trkpt lat="43.338393005404626" lon="11.920225420947588"><ele>257.0</ele><time>2026-05-03T16:20:42Z</time></trkpt><trkpt lat="43.338328895125244" lon="11.920273518876465"><ele>257.0</ele><time>2026-05-03T16:20:43Z</time></trkpt><trkpt lat="43.3382506836814" lon="11.920348000435254"><ele>257.0</ele><time>2026-05-03T16:20:44Z</time></trkpt><trkpt lat="43.338162958903006" lon="11.92042817061033"><ele>257.0</ele><time>2026-05-03T16:20:45Z</time></trkpt><trkpt lat="43.33806600459545" lon="11.920509402797"><ele>257.0</ele><time>2026-05-03T16:20:46Z</time></trkpt><trkpt lat="43.33796055844926" lon="11.92059883524072"><ele>257.0</ele><time>2026-05-03T16:20:47Z</time></trkpt><trkpt lat="43.33785100231217" lon="11.920690501908599"><ele>257.0</ele><time>2026-05-03T16:20:48Z</time></trkpt><trkpt lat="43.33773969469903" lon="11.920793678711252"><ele>257.0</ele><time>2026-05-03T16:20:49Z</time></trkpt><trkpt lat="43.33763437428024" lon="11.92090686105501"><ele>257.0</ele><time>2026-05-03T16:20:50Z</time></trkpt><trkpt lat="43.337513729012876" lon="11.921034933284211"><ele>256.6666666666667</ele><time>2026-05-03T16:20:51Z</time></trkpt><trkpt lat="43.337375568971" lon="11.921165229992445"><ele>256.3333333333333</ele><time>2026-05-03T16:20:52Z</time></trkpt><trkpt lat="43.33723204417772" lon="11.921281684666164"><ele>256.0</ele><time>2026-05-03T16:20:53Z</time></trkpt><trkpt lat="43.33707195051635" lon="11.921387521825118"><ele>256.0</ele><time>2026-05-03T16:20:54Z</time></trkpt><trkpt lat="43.336892660476394" lon="11.921475863975388"><ele>256.0</ele><time>2026-05-03T16:20:55Z</time></trkpt><trkpt lat="43.33669912016207" lon="11.921554542824541"><ele>256.0</ele><time>2026-05-03T16:20:56Z</time></trkpt><trkpt lat="43.336501588422024" lon="11.921627629028483"><ele>256.0</ele><time>2026-05-03T16:20:57Z</time></trkpt><trkpt lat="43.33630199921201" lon="11.921692218236226"><ele>256.0</ele><time>2026-05-03T16:20:58Z</time></trkpt><trkpt lat="43.3361006641359" lon="11.921743269665878"><ele>256.0</ele><time>2026-05-03T16:20:59Z</time></trkpt><trkpt lat="43.33589952062844" lon="11.921783705874935"><ele>256.0</ele><time>2026-05-03T16:21:00Z</time></trkpt><trkpt lat="43.335694250124284" lon="11.921813137354196"><ele>256.0</ele><time>2026-05-03T16:21:01Z</time></trkpt><trkpt lat="43.33549171853094" lon="11.921835374664441"><ele>256.0</ele><time>2026-05-03T16:21:02Z</time></trkpt><trkpt lat="43.33529442884494" lon="11.921853405657997"><ele>256.3333333333333</ele><time>2026-05-03T16:21:03Z</time></trkpt><trkpt lat="43.33511101546767" lon="11.921863269653478"><ele>256.6666666666667</ele><time>2026-05-03T16:21:04Z</time></trkpt><trkpt lat="43.33493885162355" lon="11.921866437340736"><ele>257.0</ele><time>2026-05-03T16:21:05Z</time></trkpt><trkpt lat="43.33477689392744" lon="11.921864988882314"><ele>256.5</ele><time>2026-05-03T16:21:06Z</time></trkpt><trkpt lat="43.33462389381425" lon="11.92185222037974"><ele>256.0</ele><time>2026-05-03T16:21:07Z</time></trkpt><trkpt lat="43.33447929649607" lon="11.92181865768358"><ele>255.5</ele><time>2026-05-03T16:21:08Z</time></trkpt><trkpt lat="43.3343459293844" lon="11.921757513394171"><ele>255.0</ele><time>2026-05-03T16:21:09Z</time></trkpt><trkpt lat="43.33422659134405" lon="11.921676363232843"><ele>255.0</ele><time>2026-05-03T16:21:10Z</time></trkpt><trkpt lat="43.33411856868361" lon="11.921595451629404"><ele>255.0</ele><time>2026-05-03T16:21:11Z</time></trkpt><trkpt lat="43.33401227191524" lon="11.921528295193394"><ele>255.0</ele><time>2026-05-03T16:21:12Z</time></trkpt><trkpt lat="43.33391324666704" lon="11.921472566710973"><ele>255.0</ele><time>2026-05-03T16:21:13Z</time></trkpt><trkpt lat="43.33381776916065" lon="11.921420360603182"><ele>255.0</ele><time>2026-05-03T16:21:14Z</time></trkpt><trkpt lat="43.33371453822741" lon="11.92136110308186"><ele>255.0</ele><time>2026-05-03T16:21:15Z</time></trkpt><trkpt lat="43.33362361558792" lon="11.921310091466518"><ele>255.0</ele><time>2026-05-03T16:21:16Z</time></trkpt><trkpt lat="43.33354679519386" lon="11.921278796392665"><ele>255.0</ele><time>2026-05-03T16:21:17Z</time></trkpt><trkpt lat="43.333434640551815" lon="11.921331872702318"><ele>255.0</ele><time>2026-05-03T16:21:19Z</time></trkpt><trkpt lat="43.333389039030266" lon="11.921463808936501"><ele>255.0</ele><time>2026-05-03T16:21:21Z</time></trkpt><trkpt lat="43.33340553099355" lon="11.921564250163033"><ele>255.0</ele><time>2026-05-03T16:21:22Z</time></trkpt><trkpt lat="43.33344708735832" lon="11.92167390329835"><ele>255.0</ele><time>2026-05-03T16:21:23Z</time></trkpt><trkpt lat="43.33350890695086" lon="11.921807097683986"><ele>255.0</ele><time>2026-05-03T16:21:24Z</time></trkpt><trkpt lat="43.333567096073295" lon="11.92195439143741"><ele>255.0</ele><time>2026-05-03T16:21:25Z</time></trkpt><trkpt lat="43.33361888930373" lon="11.92208555420187"><ele>255.0</ele><time>2026-05-03T16:21:26Z</time></trkpt><trkpt lat="43.33367498642327" lon="11.922196787149202"><ele>255.0</ele><time>2026-05-03T16:21:27Z</time></trkpt><trkpt lat="43.333739812380855" lon="11.922272739916663"><ele>255.0</ele><time>2026-05-03T16:21:28Z</time></trkpt><trkpt lat="43.33381851804623" lon="11.922325114844446"><ele>255.0</ele><time>2026-05-03T16:21:29Z</time></trkpt><trkpt lat="43.333917402460365" lon="11.922381335861695"><ele>255.0</ele><time>2026-05-03T16:21:30Z</time></trkpt><trkpt lat="43.33402622115647" lon="11.92244255947649"><ele>255.0</ele><time>2026-05-03T16:21:31Z</time></trkpt><trkpt lat="43.33412671509841" lon="11.922507654300908"><ele>255.0</ele><time>2026-05-03T16:21:32Z</time></trkpt><trkpt lat="43.334232857444384" lon="11.922553393848972"><ele>255.0</ele><time>2026-05-03T16:21:33Z</time></trkpt><trkpt lat="43.33434934660961" lon="11.922571250729058"><ele>255.0</ele><time>2026-05-03T16:21:34Z</time></trkpt><trkpt lat="43.334470286320034" lon="11.922571980371595"><ele>255.0</ele><time>2026-05-03T16:21:35Z</time></trkpt><trkpt lat="43.33458253098524" lon="11.922589658044648"><ele>255.0</ele><time>2026-05-03T16:21:36Z</time></trkpt><trkpt lat="43.334683642889004" lon="11.922621205700889"><ele>255.0</ele><time>2026-05-03T16:21:37Z</time></trkpt><trkpt lat="43.33477715572121" lon="11.92262905515961"><ele>255.0</ele><time>2026-05-03T16:21:38Z</time></trkpt><trkpt lat="43.33486165979307" lon="11.92263592294376"><ele>255.0</ele><time>2026-05-03T16:21:39Z</time></trkpt><trkpt lat="43.33493261337565" lon="11.922621631101405"><ele>255.0</ele><time>2026-05-03T16:21:40Z</time></trkpt><trkpt lat="43.33501237039054" lon="11.922686280924731"><ele>255.0</ele><time>2026-05-03T16:21:42Z</time></trkpt><trkpt lat="43.335025850760154" lon="11.922782000000005"><ele>255.0</ele><time>2026-05-03T16:21:44Z</time></trkpt><trkpt lat="43.33500557688626" lon="11.922887722291678"><ele>255.0</ele><time>2026-05-03T16:21:46Z</time></trkpt><trkpt lat="43.33498691853138" lon="11.923013737486835"><ele>255.0</ele><time>2026-05-03T16:21:48Z</time></trkpt><trkpt lat="43.33496360509208" lon="11.923111394624202"><ele>255.0</ele><time>2026-05-03T16:21:50Z</time></trkpt><trkpt lat="43.33492976095369" lon="11.923201922971824"><ele>255.0</ele><time>2026-05-03T16:22:06Z</time></trkpt><trkpt lat="43.33489366313384" lon="11.923280490874896"><ele>255.0</ele><time>2026-05-03T16:22:07Z</time></trkpt><trkpt lat="43.33485830213818" lon="11.923393983680137"><ele>255.0</ele><time>2026-05-03T16:22:08Z</time></trkpt><trkpt lat="43.33480071622339" lon="11.923480668497538"><ele>255.0</ele><time>2026-05-03T16:22:09Z</time></trkpt><trkpt lat="43.334752501584205" lon="11.923579892846343"><ele>255.0</ele><time>2026-05-03T16:22:10Z</time></trkpt><trkpt lat="43.33470781693623" lon="11.923675172980728"><ele>255.0</ele><time>2026-05-03T16:22:11Z</time></trkpt><trkpt lat="43.334689567981044" lon="11.923759243875194"><ele>255.2</ele><time>2026-05-03T16:22:12Z</time></trkpt><trkpt lat="43.33473831164231" lon="11.92391788241428"><ele>255.4</ele><time>2026-05-03T16:22:14Z</time></trkpt><trkpt lat="43.33479210896301" lon="11.92401616782511"><ele>255.60000000000002</ele><time>2026-05-03T16:22:15Z</time></trkpt><trkpt lat="43.334847438111154" lon="11.924154890658063"><ele>255.8</ele><time>2026-05-03T16:22:16Z</time></trkpt><trkpt lat="43.33491125776666" lon="11.924286743379623"><ele>256.0</ele><time>2026-05-03T16:22:17Z</time></trkpt><trkpt lat="43.33497551691101" lon="11.924420049403471"><ele>256.0</ele><time>2026-05-03T16:22:18Z</time></trkpt><trkpt lat="43.335037607562846" lon="11.924561167332767"><ele>256.0</ele><time>2026-05-03T16:22:19Z</time></trkpt><trkpt lat="43.33509442085155" lon="11.92471845060361"><ele>256.0</ele><time>2026-05-03T16:22:20Z</time></trkpt><trkpt lat="43.335131951155496" lon="11.924874805574362"><ele>256.0</ele><time>2026-05-03T16:22:21Z</time></trkpt><trkpt lat="43.335172627717284" lon="11.925044430291551"><ele>256.0</ele><time>2026-05-03T16:22:22Z</time></trkpt><trkpt lat="43.33520971193987" lon="11.92523013930299"><ele>256.0</ele><time>2026-05-03T16:22:23Z</time></trkpt><trkpt lat="43.335245173286665" lon="11.925433976223825"><ele>256.0</ele><time>2026-05-03T16:22:24Z</time></trkpt><trkpt lat="43.33527200929158" lon="11.925641323483315"><ele>256.0</ele><time>2026-05-03T16:22:25Z</time></trkpt><trkpt lat="43.33528624196286" lon="11.925846205298694"><ele>256.3333333333333</ele><time>2026-05-03T16:22:26Z</time></trkpt><trkpt lat="43.33530000712526" lon="11.926055568086916"><ele>256.6666666666667</ele><time>2026-05-03T16:22:27Z</time></trkpt><trkpt lat="43.33531890288212" lon="11.926265298717276"><ele>257.0</ele><time>2026-05-03T16:22:28Z</time></trkpt><trkpt lat="43.33534339083264" lon="11.926477484961502"><ele>257.0</ele><time>2026-05-03T16:22:29Z</time></trkpt><trkpt lat="43.335378885895324" lon="11.926692048925663"><ele>257.0</ele><time>2026-05-03T16:22:30Z</time></trkpt><trkpt lat="43.33543463792661" lon="11.926901834007358"><ele>257.0</ele><time>2026-05-03T16:22:31Z</time></trkpt><trkpt lat="43.33550157687317" lon="11.927097766627726"><ele>257.0</ele><time>2026-05-03T16:22:32Z</time></trkpt><trkpt lat="43.33557303474254" lon="11.927263733391031"><ele>257.0</ele><time>2026-05-03T16:22:33Z</time></trkpt><trkpt lat="43.33564279025006" lon="11.927419230091328"><ele>257.0</ele><time>2026-05-03T16:22:34Z</time></trkpt><trkpt lat="43.33570897382902" lon="11.927560300769246"><ele>257.0</ele><time>2026-05-03T16:22:35Z</time></trkpt><trkpt lat="43.33576987730362" lon="11.927687144751621"><ele>257.0</ele><time>2026-05-03T16:22:36Z</time></trkpt><trkpt lat="43.33582557836058" lon="11.927793987213546"><ele>257.0</ele><time>2026-05-03T16:22:37Z</time></trkpt><trkpt lat="43.335883186593705" lon="11.927867271776806"><ele>257.0</ele><time>2026-05-03T16:22:38Z</time></trkpt><trkpt lat="43.33590361399941" lon="11.927951192376465"><ele>257.0</ele><time>2026-05-03T16:22:39Z</time></trkpt><trkpt lat="43.33586137750551" lon="11.928112515926626"><ele>257.0</ele><time>2026-05-03T16:22:41Z</time></trkpt><trkpt lat="43.33580375674145" lon="11.92818482815768"><ele>257.0</ele><time>2026-05-03T16:22:42Z</time></trkpt><trkpt lat="43.33572898981556" lon="11.928272736029946"><ele>257.0</ele><time>2026-05-03T16:22:43Z</time></trkpt><trkpt lat="43.335633865852024" lon="11.928364817110648"><ele>257.0</ele><time>2026-05-03T16:22:44Z</time></trkpt><trkpt lat="43.33553201769084" lon="11.928472066953121"><ele>257.0</ele><time>2026-05-03T16:22:45Z</time></trkpt><trkpt lat="43.335432647586664" lon="11.928589035200112"><ele>257.0</ele><time>2026-05-03T16:22:46Z</time></trkpt><trkpt lat="43.335342748802624" lon="11.928731510797252"><ele>257.0</ele><time>2026-05-03T16:22:47Z</time></trkpt><trkpt lat="43.335238798027966" lon="11.928881115008089"><ele>257.0</ele><time>2026-05-03T16:22:48Z</time></trkpt><trkpt lat="43.33513051322224" lon="11.92902756398412"><ele>257.0</ele><time>2026-05-03T16:22:49Z</time></trkpt><trkpt lat="43.33501746033737" lon="11.929170682018581"><ele>257.0</ele><time>2026-05-03T16:22:50Z</time></trkpt><trkpt lat="43.33489779906609" lon="11.929309655293425"><ele>257.0</ele><time>2026-05-03T16:22:51Z</time></trkpt><trkpt lat="43.334768179802666" lon="11.92944359415712"><ele>257.0</ele><time>2026-05-03T16:22:52Z</time></trkpt><trkpt lat="43.33463160509484" lon="11.92959164416883"><ele>257.0</ele><time>2026-05-03T16:22:53Z</time></trkpt><trkpt lat="43.33449683120783" lon="11.929743249061483"><ele>257.0</ele><time>2026-05-03T16:22:54Z</time></trkpt><trkpt lat="43.33436768517876" lon="11.929892128969229"><ele>257.0</ele><time>2026-05-03T16:22:55Z</time></trkpt><trkpt lat="43.33423148473862" lon="11.93004051688331"><ele>257.33333333333337</ele><time>2026-05-03T16:22:56Z</time></trkpt><trkpt lat="43.334081155222215" lon="11.93018483107148"><ele>257.6666666666667</ele><time>2026-05-03T16:22:57Z</time></trkpt><trkpt lat="43.3339333131639" lon="11.930326170353476"><ele>258.0</ele><time>2026-05-03T16:22:58Z</time></trkpt><trkpt lat="43.33379670511361" lon="11.930460677574208"><ele>258.0</ele><time>2026-05-03T16:22:59Z</time></trkpt><trkpt lat="43.333669114204284" lon="11.930582624203343"><ele>258.0</ele><time>2026-05-03T16:23:00Z</time></trkpt><trkpt lat="43.33355532177021" lon="11.930706850186695"><ele>258.0</ele><time>2026-05-03T16:23:01Z</time></trkpt><trkpt lat="43.33344671960769" lon="11.930824896967566"><ele>258.0</ele><time>2026-05-03T16:23:02Z</time></trkpt><trkpt lat="43.333344495121224" lon="11.930946556713687"><ele>258.0</ele><time>2026-05-03T16:23:03Z</time></trkpt><trkpt lat="43.333239256656334" lon="11.931071644917417"><ele>258.0</ele><time>2026-05-03T16:23:04Z</time></trkpt><trkpt lat="43.33314269698117" lon="11.931195496707375"><ele>258.0</ele><time>2026-05-03T16:23:05Z</time></trkpt><trkpt lat="43.33305092748638" lon="11.93130583363969"><ele>258.0</ele><time>2026-05-03T16:23:06Z</time></trkpt><trkpt lat="43.33295852327539" lon="11.93140970575829"><ele>257.75</ele><time>2026-05-03T16:23:07Z</time></trkpt><trkpt lat="43.33287449455494" lon="11.93149556975786"><ele>257.5</ele><time>2026-05-03T16:23:08Z</time></trkpt><trkpt lat="43.332787505237434" lon="11.93158585398927"><ele>257.25</ele><time>2026-05-03T16:23:09Z</time></trkpt><trkpt lat="43.332686386019795" lon="11.931680450573422"><ele>257.0</ele><time>2026-05-03T16:23:10Z</time></trkpt><trkpt lat="43.33257602100389" lon="11.93177955201494"><ele>257.0</ele><time>2026-05-03T16:23:11Z</time></trkpt><trkpt lat="43.332450154235595" lon="11.93189426845178"><ele>257.0</ele><time>2026-05-03T16:23:12Z</time></trkpt><trkpt lat="43.33230847619082" lon="11.932003966174452"><ele>257.0</ele><time>2026-05-03T16:23:13Z</time></trkpt><trkpt lat="43.332150134179216" lon="11.9321035348551"><ele>256.33333333333337</ele><time>2026-05-03T16:23:14Z</time></trkpt><trkpt lat="43.331981320080125" lon="11.932203281389837"><ele>255.66666666666669</ele><time>2026-05-03T16:23:15Z</time></trkpt><trkpt lat="43.33180932109224" lon="11.932303564201062"><ele>255.0</ele><time>2026-05-03T16:23:16Z</time></trkpt><trkpt lat="43.3316295918013" lon="11.93240387910707"><ele>255.0</ele><time>2026-05-03T16:23:17Z</time></trkpt><trkpt lat="43.33144590505011" lon="11.93250596585893"><ele>255.0</ele><time>2026-05-03T16:23:18Z</time></trkpt><trkpt lat="43.331259215921136" lon="11.932613601915822"><ele>255.0</ele><time>2026-05-03T16:23:19Z</time></trkpt><trkpt lat="43.33107160973158" lon="11.932719546985659"><ele>255.0</ele><time>2026-05-03T16:23:20Z</time></trkpt><trkpt lat="43.33088433664472" lon="11.932827001159508"><ele>255.0</ele><time>2026-05-03T16:23:21Z</time></trkpt><trkpt lat="43.330699789032806" lon="11.93293089293978"><ele>255.0</ele><time>2026-05-03T16:23:22Z</time></trkpt><trkpt lat="43.33052978394409" lon="11.933035902799261"><ele>255.33333333333331</ele><time>2026-05-03T16:23:23Z</time></trkpt><trkpt lat="43.330371574371796" lon="11.933136328295813"><ele>255.66666666666666</ele><time>2026-05-03T16:23:24Z</time></trkpt><trkpt lat="43.33022358407567" lon="11.933240778131578"><ele>256.0</ele><time>2026-05-03T16:23:25Z</time></trkpt><trkpt lat="43.330096846750145" lon="11.933331440152987"><ele>256.40000000000003</ele><time>2026-05-03T16:23:26Z</time></trkpt><trkpt lat="43.32999004491991" lon="11.933419132402486"><ele>256.8</ele><time>2026-05-03T16:23:27Z</time></trkpt><trkpt lat="43.32989546036234" lon="11.933491383228478"><ele>257.20000000000005</ele><time>2026-05-03T16:23:28Z</time></trkpt><trkpt lat="43.32981553746181" lon="11.933553870045245"><ele>257.6</ele><time>2026-05-03T16:23:29Z</time></trkpt><trkpt lat="43.32974465434231" lon="11.93361212766142"><ele>258.0</ele><time>2026-05-03T16:23:30Z</time></trkpt><trkpt lat="43.329670156967616" lon="11.933675943289055"><ele>258.0</ele><time>2026-05-03T16:23:31Z</time></trkpt><trkpt lat="43.3295818893888" lon="11.93375237121152"><ele>258.0</ele><time>2026-05-03T16:23:32Z</time></trkpt><trkpt lat="43.32947836872038" lon="11.933833361221238"><ele>258.0</ele><time>2026-05-03T16:23:33Z</time></trkpt><trkpt lat="43.32936633055189" lon="11.93391892669845"><ele>258.0</ele><time>2026-05-03T16:23:34Z</time></trkpt><trkpt lat="43.32923874642159" lon="11.9340052078033"><ele>258.0</ele><time>2026-05-03T16:23:35Z</time></trkpt><trkpt lat="43.329085262023824" lon="11.934063742736548"><ele>258.0</ele><time>2026-05-03T16:23:36Z</time></trkpt><trkpt lat="43.32891690533843" lon="11.934128745602937"><ele>258.0</ele><time>2026-05-03T16:23:37Z</time></trkpt><trkpt lat="43.32873949565387" lon="11.93419837404497"><ele>258.0</ele><time>2026-05-03T16:23:38Z</time></trkpt><trkpt lat="43.32856164877314" lon="11.934285948141408"><ele>258.0</ele><time>2026-05-03T16:23:39Z</time></trkpt><trkpt lat="43.328389922888924" lon="11.934372071919956"><ele>258.0</ele><time>2026-05-03T16:23:40Z</time></trkpt><trkpt lat="43.328223252589936" lon="11.934468447881008"><ele>258.0</ele><time>2026-05-03T16:23:41Z</time></trkpt><trkpt lat="43.328052512869974" lon="11.934581027974602"><ele>258.0</ele><time>2026-05-03T16:23:42Z</time></trkpt><trkpt lat="43.327875928356775" lon="11.934703264061055"><ele>258.0</ele><time>2026-05-03T16:23:43Z</time></trkpt><trkpt lat="43.32768718048302" lon="11.934830516220515"><ele>258.0</ele><time>2026-05-03T16:23:44Z</time></trkpt><trkpt lat="43.32749597753337" lon="11.934957939902693"><ele>258.0</ele><time>2026-05-03T16:23:45Z</time></trkpt><trkpt lat="43.32730660100318" lon="11.93508314846168"><ele>258.0</ele><time>2026-05-03T16:23:46Z</time></trkpt><trkpt lat="43.32711187569075" lon="11.935196587643128"><ele>258.6666666666667</ele><time>2026-05-03T16:23:47Z</time></trkpt><trkpt lat="43.326914145482284" lon="11.93529875807331"><ele>259.33333333333337</ele><time>2026-05-03T16:23:48Z</time></trkpt><trkpt lat="43.32670764374804" lon="11.935388854497633"><ele>260.0</ele><time>2026-05-03T16:23:49Z</time></trkpt><trkpt lat="43.326502809800225" lon="11.93546555887939"><ele>260.0</ele><time>2026-05-03T16:23:50Z</time></trkpt><trkpt lat="43.326299338836876" lon="11.935536898855137"><ele>260.0</ele><time>2026-05-03T16:23:51Z</time></trkpt><trkpt lat="43.32611160504226" lon="11.935589534168866"><ele>260.0</ele><time>2026-05-03T16:23:52Z</time></trkpt><trkpt lat="43.325934797719604" lon="11.935630706939229"><ele>260.0</ele><time>2026-05-03T16:23:53Z</time></trkpt><trkpt lat="43.32577072885014" lon="11.93565968451806"><ele>260.0</ele><time>2026-05-03T16:23:54Z</time></trkpt><trkpt lat="43.32562685882743" lon="11.93567996933584"><ele>260.0</ele><time>2026-05-03T16:23:55Z</time></trkpt><trkpt lat="43.325503536406714" lon="11.935700593008276"><ele>260.0</ele><time>2026-05-03T16:23:56Z</time></trkpt><trkpt lat="43.325402711214934" lon="11.935729265716164"><ele>260.0</ele><time>2026-05-03T16:23:57Z</time></trkpt><trkpt lat="43.32532218122209" lon="11.935781592102416"><ele>260.0</ele><time>2026-05-03T16:23:58Z</time></trkpt><trkpt lat="43.3252680577814" lon="11.935866295757076"><ele>260.0</ele><time>2026-05-03T16:23:59Z</time></trkpt><trkpt lat="43.32523678156571" lon="11.935986031794164"><ele>260.0</ele><time>2026-05-03T16:24:00Z</time></trkpt><trkpt lat="43.325219158202344" lon="11.936131444190856"><ele>260.0</ele><time>2026-05-03T16:24:01Z</time></trkpt><trkpt lat="43.32520540884312" lon="11.93629934157217"><ele>260.5</ele><time>2026-05-03T16:24:02Z</time></trkpt><trkpt lat="43.32516176410128" lon="11.93647444609194"><ele>261.0</ele><time>2026-05-03T16:24:03Z</time></trkpt><trkpt lat="43.32508231959701" lon="11.936644199752704"><ele>261.5</ele><time>2026-05-03T16:24:04Z</time></trkpt><trkpt lat="43.32497652720508" lon="11.936806478734676"><ele>262.0</ele><time>2026-05-03T16:24:05Z</time></trkpt><trkpt lat="43.32485514184608" lon="11.93697089688017"><ele>263.0</ele><time>2026-05-03T16:24:06Z</time></trkpt><trkpt lat="43.324724307118274" lon="11.937134059220618"><ele>264.0</ele><time>2026-05-03T16:24:07Z</time></trkpt><trkpt lat="43.32457048841889" lon="11.937273918849165"><ele>265.0</ele><time>2026-05-03T16:24:08Z</time></trkpt><trkpt lat="43.324398485630674" lon="11.937384174794298"><ele>265.0</ele><time>2026-05-03T16:24:09Z</time></trkpt><trkpt lat="43.32421644851429" lon="11.937476329057088"><ele>265.0</ele><time>2026-05-03T16:24:10Z</time></trkpt><trkpt lat="43.32404116986658" lon="11.93756080507067"><ele>265.0</ele><time>2026-05-03T16:24:11Z</time></trkpt><trkpt lat="43.32386430321391" lon="11.937642665666843"><ele>266.0</ele><time>2026-05-03T16:24:12Z</time></trkpt><trkpt lat="43.323695905805124" lon="11.937718157014835"><ele>267.0</ele><time>2026-05-03T16:24:13Z</time></trkpt><trkpt lat="43.32353090020522" lon="11.937792621910774"><ele>268.0</ele><time>2026-05-03T16:24:14Z</time></trkpt><trkpt lat="43.323372007989605" lon="11.93786682324571"><ele>268.0</ele><time>2026-05-03T16:24:15Z</time></trkpt><trkpt lat="43.323220480845215" lon="11.937934656739722"><ele>268.0</ele><time>2026-05-03T16:24:16Z</time></trkpt><trkpt lat="43.32308209462807" lon="11.938003028497436"><ele>268.0</ele><time>2026-05-03T16:24:17Z</time></trkpt><trkpt lat="43.32294721645541" lon="11.938063145224993"><ele>268.0</ele><time>2026-05-03T16:24:18Z</time></trkpt><trkpt lat="43.32282464563072" lon="11.938122448205917"><ele>268.0</ele><time>2026-05-03T16:24:19Z</time></trkpt><trkpt lat="43.32271264208463" lon="11.938191223544377"><ele>268.0</ele><time>2026-05-03T16:24:20Z</time></trkpt><trkpt lat="43.32261379541831" lon="11.938290582199661"><ele>268.0</ele><time>2026-05-03T16:24:21Z</time></trkpt><trkpt lat="43.32253254827379" lon="11.938423173585278"><ele>268.0</ele><time>2026-05-03T16:24:22Z</time></trkpt><trkpt lat="43.322458849575874" lon="11.93858010164315"><ele>268.75</ele><time>2026-05-03T16:24:23Z</time></trkpt><trkpt lat="43.32238578280483" lon="11.938745010164753"><ele>269.5</ele><time>2026-05-03T16:24:24Z</time></trkpt><trkpt lat="43.322313557930386" lon="11.938908285559084"><ele>270.25</ele><time>2026-05-03T16:24:25Z</time></trkpt><trkpt lat="43.32224724727971" lon="11.939055819908997"><ele>271.0</ele><time>2026-05-03T16:24:26Z</time></trkpt><trkpt lat="43.32218022542848" lon="11.939182938180302"><ele>271.8</ele><time>2026-05-03T16:24:27Z</time></trkpt><trkpt lat="43.3221067204581" lon="11.939285232112887"><ele>272.6</ele><time>2026-05-03T16:24:28Z</time></trkpt><trkpt lat="43.32202095302062" lon="11.939353349234024"><ele>273.4</ele><time>2026-05-03T16:24:29Z</time></trkpt><trkpt lat="43.32191987513974" lon="11.939382182643863"><ele>274.2</ele><time>2026-05-03T16:24:30Z</time></trkpt><trkpt lat="43.321813387128394" lon="11.93937104421529"><ele>275.0</ele><time>2026-05-03T16:24:31Z</time></trkpt><trkpt lat="43.32169575478899" lon="11.939355945027083"><ele>275.0</ele><time>2026-05-03T16:24:32Z</time></trkpt><trkpt lat="43.321568350719225" lon="11.939341890778357"><ele>275.0</ele><time>2026-05-03T16:24:33Z</time></trkpt><trkpt lat="43.32144229767318" lon="11.939350693262833"><ele>275.0</ele><time>2026-05-03T16:24:34Z</time></trkpt><trkpt lat="43.32132432905247" lon="11.939387712920384"><ele>275.0</ele><time>2026-05-03T16:24:35Z</time></trkpt><trkpt lat="43.32121931602261" lon="11.939460077378346"><ele>275.0</ele><time>2026-05-03T16:24:36Z</time></trkpt><trkpt lat="43.32111729944816" lon="11.939556370308441"><ele>275.0</ele><time>2026-05-03T16:24:37Z</time></trkpt><trkpt lat="43.321021434819684" lon="11.939672025011811"><ele>275.0</ele><time>2026-05-03T16:24:38Z</time></trkpt><trkpt lat="43.32092578683082" lon="11.93979892141796"><ele>275.0</ele><time>2026-05-03T16:24:39Z</time></trkpt><trkpt lat="43.32083188070596" lon="11.939938104597857"><ele>274.75</ele><time>2026-05-03T16:24:40Z</time></trkpt><trkpt lat="43.320751219553664" lon="11.940099857413939"><ele>274.5</ele><time>2026-05-03T16:24:41Z</time></trkpt><trkpt lat="43.320666185661295" lon="11.940271017530407"><ele>274.25</ele><time>2026-05-03T16:24:42Z</time></trkpt><trkpt lat="43.320580082636646" lon="11.940445050408446"><ele>274.0</ele><time>2026-05-03T16:24:43Z</time></trkpt><trkpt lat="43.32053118086976" lon="11.940645376175581"><ele>274.0</ele><time>2026-05-03T16:24:44Z</time></trkpt><trkpt lat="43.32049132225114" lon="11.940842279754474"><ele>274.0</ele><time>2026-05-03T16:24:45Z</time></trkpt><trkpt lat="43.320462908233814" lon="11.941041942721697"><ele>274.0</ele><time>2026-05-03T16:24:46Z</time></trkpt><trkpt lat="43.320377421184" lon="11.941198860967393"><ele>274.0</ele><time>2026-05-03T16:24:47Z</time></trkpt><trkpt lat="43.32031068905564" lon="11.941354097731244"><ele>274.8</ele><time>2026-05-03T16:24:48Z</time></trkpt><trkpt lat="43.32023812452513" lon="11.94147853158894"><ele>275.59999999999997</ele><time>2026-05-03T16:24:49Z</time></trkpt><trkpt lat="43.320174457516664" lon="11.941603091973555"><ele>276.4</ele><time>2026-05-03T16:24:50Z</time></trkpt><trkpt lat="43.32012350732484" lon="11.941723449838813"><ele>277.2</ele><time>2026-05-03T16:24:51Z</time></trkpt><trkpt lat="43.32008332983146" lon="11.941864618361901"><ele>278.0</ele><time>2026-05-03T16:24:52Z</time></trkpt><trkpt lat="43.32002724177734" lon="11.942007855820483"><ele>278.25</ele><time>2026-05-03T16:24:53Z</time></trkpt><trkpt lat="43.31999367574333" lon="11.942175109646115"><ele>278.5</ele><time>2026-05-03T16:24:54Z</time></trkpt><trkpt lat="43.31997783812881" lon="11.942355438785425"><ele>278.75</ele><time>2026-05-03T16:24:55Z</time></trkpt><trkpt lat="43.31997478037461" lon="11.942546327822065"><ele>279.0</ele><time>2026-05-03T16:24:56Z</time></trkpt><trkpt lat="43.319988096624314" lon="11.9427392966014"><ele>279.0</ele><time>2026-05-03T16:24:57Z</time></trkpt><trkpt lat="43.319988358315996" lon="11.942917621445718"><ele>279.0</ele><time>2026-05-03T16:24:58Z</time></trkpt><trkpt lat="43.31997666955797" lon="11.94309343727376"><ele>279.0</ele><time>2026-05-03T16:24:59Z</time></trkpt><trkpt lat="43.31991818551082" lon="11.943253898199922"><ele>279.0</ele><time>2026-05-03T16:25:00Z</time></trkpt><trkpt lat="43.31983492386735" lon="11.943385346944892"><ele>278.25</ele><time>2026-05-03T16:25:01Z</time></trkpt><trkpt lat="43.31973228429678" lon="11.943492982935448"><ele>277.5</ele><time>2026-05-03T16:25:02Z</time></trkpt><trkpt lat="43.31963277840536" lon="11.943582215655196"><ele>276.75</ele><time>2026-05-03T16:25:03Z</time></trkpt><trkpt lat="43.31953447047701" lon="11.943686399255105"><ele>276.0</ele><time>2026-05-03T16:25:04Z</time></trkpt><trkpt lat="43.31945557488431" lon="11.94380831360297"><ele>276.0</ele><time>2026-05-03T16:25:05Z</time></trkpt><trkpt lat="43.31937451075118" lon="11.943953414693937"><ele>276.0</ele><time>2026-05-03T16:25:06Z</time></trkpt><trkpt lat="43.3193125016355" lon="11.94410812423465"><ele>276.0</ele><time>2026-05-03T16:25:07Z</time></trkpt><trkpt lat="43.31925547606545" lon="11.944272126279218"><ele>276.0</ele><time>2026-05-03T16:25:08Z</time></trkpt><trkpt lat="43.319224966333124" lon="11.944460824911108"><ele>276.6666666666667</ele><time>2026-05-03T16:25:09Z</time></trkpt><trkpt lat="43.3191983539718" lon="11.944659410105805"><ele>277.33333333333337</ele><time>2026-05-03T16:25:10Z</time></trkpt><trkpt lat="43.31916886283866" lon="11.944870897351453"><ele>278.0</ele><time>2026-05-03T16:25:11Z</time></trkpt><trkpt lat="43.319136983467864" lon="11.945092262002413"><ele>279.6666666666667</ele><time>2026-05-03T16:25:12Z</time></trkpt><trkpt lat="43.31910577459176" lon="11.94530674492401"><ele>281.3333333333333</ele><time>2026-05-03T16:25:13Z</time></trkpt><trkpt lat="43.31906823230246" lon="11.945520412077935"><ele>283.0</ele><time>2026-05-03T16:25:14Z</time></trkpt><trkpt lat="43.31902215528876" lon="11.945739508099843"><ele>283.0</ele><time>2026-05-03T16:25:15Z</time></trkpt><trkpt lat="43.31897234232289" lon="11.945960569950833"><ele>283.0</ele><time>2026-05-03T16:25:16Z</time></trkpt><trkpt lat="43.31892305302658" lon="11.946177397122689"><ele>283.0</ele><time>2026-05-03T16:25:17Z</time></trkpt><trkpt lat="43.31887402058318" lon="11.946391775343951"><ele>282.66666666666663</ele><time>2026-05-03T16:25:18Z</time></trkpt><trkpt lat="43.31883164134228" lon="11.946601577725238"><ele>282.3333333333333</ele><time>2026-05-03T16:25:19Z</time></trkpt><trkpt lat="43.318801294460606" lon="11.946811812006434"><ele>282.0</ele><time>2026-05-03T16:25:20Z</time></trkpt><trkpt lat="43.318764563072385" lon="11.94700985663322"><ele>282.0</ele><time>2026-05-03T16:25:21Z</time></trkpt><trkpt lat="43.31870117173913" lon="11.947191985704196"><ele>282.0</ele><time>2026-05-03T16:25:22Z</time></trkpt><trkpt lat="43.31863175336384" lon="11.94736360591764"><ele>282.0</ele><time>2026-05-03T16:25:23Z</time></trkpt><trkpt lat="43.31855839206441" lon="11.947517626345627"><ele>282.0</ele><time>2026-05-03T16:25:24Z</time></trkpt><trkpt lat="43.31847365168418" lon="11.94768727424061"><ele>282.0</ele><time>2026-05-03T16:25:25Z</time></trkpt><trkpt lat="43.318425136117305" lon="11.947849654086822"><ele>282.0</ele><time>2026-05-03T16:25:26Z</time></trkpt><trkpt lat="43.318370457144106" lon="11.947991705974253"><ele>282.0</ele><time>2026-05-03T16:25:27Z</time></trkpt><trkpt lat="43.318318972866045" lon="11.948124252458879"><ele>282.0</ele><time>2026-05-03T16:25:28Z</time></trkpt><trkpt lat="43.31829122500624" lon="11.948271855476"><ele>282.75</ele><time>2026-05-03T16:25:29Z</time></trkpt><trkpt lat="43.3182906163766" lon="11.948435416726522"><ele>283.5</ele><time>2026-05-03T16:25:30Z</time></trkpt><trkpt lat="43.31830590307078" lon="11.94861871503925"><ele>284.25</ele><time>2026-05-03T16:25:31Z</time></trkpt><trkpt lat="43.318329468613314" lon="11.948813705224053"><ele>285.0</ele><time>2026-05-03T16:25:32Z</time></trkpt><trkpt lat="43.318402498235315" lon="11.948993581511546"><ele>285.0</ele><time>2026-05-03T16:25:33Z</time></trkpt><trkpt lat="43.318432828331" lon="11.949187692369858"><ele>285.0</ele><time>2026-05-03T16:25:34Z</time></trkpt><trkpt lat="43.31842873728126" lon="11.949384338832376"><ele>285.0</ele><time>2026-05-03T16:25:35Z</time></trkpt><trkpt lat="43.31843548799589" lon="11.949572303789322"><ele>285.0</ele><time>2026-05-03T16:25:36Z</time></trkpt><trkpt lat="43.31845736216097" lon="11.949749553592522"><ele>285.5</ele><time>2026-05-03T16:25:37Z</time></trkpt><trkpt lat="43.31846452499033" lon="11.949910288388669"><ele>286.0</ele><time>2026-05-03T16:25:38Z</time></trkpt><trkpt lat="43.318466682685624" lon="11.950066127442078"><ele>286.5</ele><time>2026-05-03T16:25:39Z</time></trkpt><trkpt lat="43.31851106517346" lon="11.950224346757242"><ele>287.0</ele><time>2026-05-03T16:25:40Z</time></trkpt><trkpt lat="43.318571050870844" lon="11.950392582906016"><ele>287.5</ele><time>2026-05-03T16:25:41Z</time></trkpt><trkpt lat="43.31864820086474" lon="11.950577212920857"><ele>288.0</ele><time>2026-05-03T16:25:42Z</time></trkpt><trkpt lat="43.318731980706424" lon="11.950738401018652"><ele>288.5</ele><time>2026-05-03T16:25:43Z</time></trkpt><trkpt lat="43.318780000932485" lon="11.950918870549797"><ele>289.0</ele><time>2026-05-03T16:25:44Z</time></trkpt><trkpt lat="43.31880466565532" lon="11.951107237571156"><ele>290.0</ele><time>2026-05-03T16:25:45Z</time></trkpt><trkpt lat="43.31880667552976" lon="11.951303326188679"><ele>291.0</ele><time>2026-05-03T16:25:46Z</time></trkpt><trkpt lat="43.318795174132696" lon="11.951511854630906"><ele>292.0</ele><time>2026-05-03T16:25:47Z</time></trkpt><trkpt lat="43.318775035988736" lon="11.951730938288483"><ele>293.66666666666663</ele><time>2026-05-03T16:25:48Z</time></trkpt><trkpt lat="43.31875077755558" lon="11.951953780619759"><ele>295.3333333333333</ele><time>2026-05-03T16:25:49Z</time></trkpt><trkpt lat="43.3187212956866" lon="11.952171265544568"><ele>297.0</ele><time>2026-05-03T16:25:50Z</time></trkpt><trkpt lat="43.318700143463104" lon="11.952380126232661"><ele>297.25</ele><time>2026-05-03T16:25:51Z</time></trkpt><trkpt lat="43.31868619723421" lon="11.95257256888524"><ele>297.5</ele><time>2026-05-03T16:25:52Z</time></trkpt><trkpt lat="43.318667449221344" lon="11.952752607965886"><ele>297.75</ele><time>2026-05-03T16:25:53Z</time></trkpt><trkpt lat="43.31865769383384" lon="11.952906565269698"><ele>298.0</ele><time>2026-05-03T16:25:54Z</time></trkpt><trkpt lat="43.3186481227773" lon="11.953045046236728"><ele>298.0</ele><time>2026-05-03T16:25:55Z</time></trkpt><trkpt lat="43.31865001930424" lon="11.953172597856158"><ele>298.0</ele><time>2026-05-03T16:25:56Z</time></trkpt><trkpt lat="43.318681329108855" lon="11.953299032626793"><ele>298.0</ele><time>2026-05-03T16:25:57Z</time></trkpt><trkpt lat="43.31873220245811" lon="11.95343326410434"><ele>298.0</ele><time>2026-05-03T16:25:58Z</time></trkpt><trkpt lat="43.3187907226557" lon="11.9535879327049"><ele>298.0</ele><time>2026-05-03T16:25:59Z</time></trkpt><trkpt lat="43.31885695600599" lon="11.953772870503537"><ele>300.0</ele><time>2026-05-03T16:26:00Z</time></trkpt><trkpt lat="43.31892530073789" lon="11.953976874311198"><ele>302.0</ele><time>2026-05-03T16:26:01Z</time></trkpt><trkpt lat="43.31899174584984" lon="11.95418802156666"><ele>304.0</ele><time>2026-05-03T16:26:02Z</time></trkpt><trkpt lat="43.31906125865804" lon="11.95440040456208"><ele>305.0</ele><time>2026-05-03T16:26:03Z</time></trkpt><trkpt lat="43.319133124559016" lon="11.954612369272287"><ele>306.0</ele><time>2026-05-03T16:26:04Z</time></trkpt><trkpt lat="43.319203499819366" lon="11.954818575934258"><ele>307.0</ele><time>2026-05-03T16:26:05Z</time></trkpt><trkpt lat="43.319267629235604" lon="11.95500882910758"><ele>307.75</ele><time>2026-05-03T16:26:06Z</time></trkpt><trkpt lat="43.319324893001166" lon="11.955177320875665"><ele>308.5</ele><time>2026-05-03T16:26:07Z</time></trkpt><trkpt lat="43.31937987438806" lon="11.955327312854068"><ele>309.25</ele><time>2026-05-03T16:26:08Z</time></trkpt><trkpt lat="43.31942728183886" lon="11.955463872906128"><ele>310.0</ele><time>2026-05-03T16:26:09Z</time></trkpt><trkpt lat="43.31946398727341" lon="11.955573562589343"><ele>310.0</ele><time>2026-05-03T16:26:10Z</time></trkpt><trkpt lat="43.319491455031596" lon="11.955666677189738"><ele>310.0</ele><time>2026-05-03T16:26:11Z</time></trkpt><trkpt lat="43.31949232361065" lon="11.955803945318317"><ele>310.0</ele><time>2026-05-03T16:26:13Z</time></trkpt><trkpt lat="43.31943108510848" lon="11.955882136389796"><ele>310.0</ele><time>2026-05-03T16:26:15Z</time></trkpt><trkpt lat="43.31934670431416" lon="11.955882532262986"><ele>310.0</ele><time>2026-05-03T16:26:17Z</time></trkpt><trkpt lat="43.3192546882833" lon="11.955831689691257"><ele>310.0</ele><time>2026-05-03T16:26:19Z</time></trkpt><trkpt lat="43.31914530999952" lon="11.955739369049056"><ele>310.0</ele><time>2026-05-03T16:26:21Z</time></trkpt><trkpt lat="43.31908199288433" lon="11.955698810518514"><ele>310.0</ele><time>2026-05-03T16:26:22Z</time></trkpt><trkpt lat="43.319015673353626" lon="11.955652280650893"><ele>310.0</ele><time>2026-05-03T16:26:23Z</time></trkpt><trkpt lat="43.31894552749504" lon="11.955609206631692"><ele>310.0</ele><time>2026-05-03T16:26:24Z</time></trkpt><trkpt lat="43.3188795100997" lon="11.955563653791586"><ele>310.0</ele><time>2026-05-03T16:26:25Z</time></trkpt><trkpt lat="43.3187812743779" lon="11.955509005845554"><ele>310.0</ele><time>2026-05-03T16:26:27Z</time></trkpt><trkpt lat="43.31870910876113" lon="11.955443784222052"><ele>310.2857142857143</ele><time>2026-05-03T16:26:30Z</time></trkpt><trkpt lat="43.3187001794014" lon="11.95533454889275"><ele>310.57142857142856</ele><time>2026-05-03T16:26:33Z</time></trkpt><trkpt lat="43.31870201412741" lon="11.955244770051518"><ele>310.8571428571429</ele><time>2026-05-03T16:26:35Z</time></trkpt><trkpt lat="43.31870937842521" lon="11.955156944157423"><ele>311.1428571428571</ele><time>2026-05-03T16:26:38Z</time></trkpt><trkpt lat="43.31870160629908" lon="11.955043464307526"><ele>311.4285714285714</ele><time>2026-05-03T16:26:41Z</time></trkpt><trkpt lat="43.318691338049454" lon="11.954926851715992"><ele>311.7142857142857</ele><time>2026-05-03T16:26:44Z</time></trkpt><trkpt lat="43.31869163506098" lon="11.954835189104962"><ele>312.0</ele><time>2026-05-03T16:26:47Z</time></trkpt><trkpt lat="43.3186470450095" lon="11.954764204226969"><ele>312.0</ele><time>2026-05-03T16:27:08Z</time></trkpt><trkpt lat="43.318648133995694" lon="11.954676435545801"><ele>312.0</ele><time>2026-05-03T16:27:11Z</time></trkpt><trkpt lat="43.31863916843469" lon="11.95457993782986"><ele>312.0</ele><time>2026-05-03T16:27:13Z</time></trkpt><trkpt lat="43.31860642606424" lon="11.954457120294713"><ele>312.0</ele><time>2026-05-03T16:27:15Z</time></trkpt><trkpt lat="43.31853245715047" lon="11.954333240618768"><ele>312.0</ele><time>2026-05-03T16:27:17Z</time></trkpt><trkpt lat="43.318443297870715" lon="11.954220751610622"><ele>312.3333333333333</ele><time>2026-05-03T16:27:19Z</time></trkpt><trkpt lat="43.31835250033873" lon="11.95413279058676"><ele>312.6666666666667</ele><time>2026-05-03T16:27:21Z</time></trkpt><trkpt lat="43.31826470742832" lon="11.954040545598474"><ele>313.0</ele><time>2026-05-03T16:27:23Z</time></trkpt><trkpt lat="43.3182113921725" lon="11.953976342635404"><ele>313.33333333333337</ele><time>2026-05-03T16:27:24Z</time></trkpt><trkpt lat="43.3181531774022" lon="11.953911089049846"><ele>313.6666666666667</ele><time>2026-05-03T16:27:25Z</time></trkpt><trkpt lat="43.318093139365644" lon="11.95384457502586"><ele>314.0</ele><time>2026-05-03T16:27:26Z</time></trkpt><trkpt lat="43.31803581293603" lon="11.953777561300665"><ele>314.0</ele><time>2026-05-03T16:27:27Z</time></trkpt><trkpt lat="43.317984133561" lon="11.953717270600462"><ele>314.0</ele><time>2026-05-03T16:27:28Z</time></trkpt><trkpt lat="43.31792628852248" lon="11.953627648403936"><ele>314.0</ele><time>2026-05-03T16:27:30Z</time></trkpt><trkpt lat="43.31791719086546" lon="11.953538247127872"><ele>314.0</ele><time>2026-05-03T16:27:32Z</time></trkpt><trkpt lat="43.31796677285816" lon="11.95345081608556"><ele>314.0</ele><time>2026-05-03T16:27:34Z</time></trkpt><trkpt lat="43.31801792461788" lon="11.953365341433177"><ele>314.0</ele><time>2026-05-03T16:27:36Z</time></trkpt><trkpt lat="43.31805253704748" lon="11.953282304320973"><ele>312.57142857142856</ele><time>2026-05-03T16:27:38Z</time></trkpt><trkpt lat="43.31806533178268" lon="11.953195594980311"><ele>311.1428571428571</ele><time>2026-05-03T16:27:46Z</time></trkpt><trkpt lat="43.31807009166936" lon="11.953283037583088"><ele>309.71428571428567</ele><time>2026-05-03T16:28:13Z</time></trkpt><trkpt lat="43.31808661807122" lon="11.953383776874313"><ele>308.2857142857143</ele><time>2026-05-03T16:28:55Z</time></trkpt><trkpt lat="43.318154947065544" lon="11.953407064821336"><ele>306.8571428571429</ele><time>2026-05-03T16:29:10Z</time></trkpt><trkpt lat="43.31820371596402" lon="11.953483844333226"><ele>305.4285714285714</ele><time>2026-05-03T16:30:57Z</time></trkpt><trkpt lat="43.318267164401455" lon="11.95354547353598"><ele>304.0</ele><time>2026-05-03T16:31:03Z</time></trkpt><trkpt lat="43.31819862265082" lon="11.95348886146883"><ele>303.0</ele><time>2026-05-03T16:31:14Z</time></trkpt><trkpt lat="43.31821686952922" lon="11.953585302954382"><ele>302.0</ele><time>2026-05-03T16:31:20.025Z</time></trkpt><trkpt lat="43.318044523455" lon="11.953508979677034"><ele>301.0</ele><time>2026-05-03T16:31:53.498Z</time></trkpt><trkpt lat="43.31825177731779" lon="11.953644622676586"><ele>301.0</ele><time>2026-05-03T16:32:20.017Z</time></trkpt><trkpt lat="43.31816966354682" lon="11.953581774264771"><ele>301.0</ele><time>2026-05-03T16:32:22Z</time></trkpt><trkpt lat="43.31820554663989" lon="11.95349305161363"><ele>301.0</ele><time>2026-05-03T16:32:26Z</time></trkpt><trkpt lat="43.31815844211045" lon="11.953425839799614"><ele>301.0</ele><time>2026-05-03T16:32:29Z</time></trkpt><trkpt lat="43.31803302299749" lon="11.953528128111792"><ele>301.0</ele><time>2026-05-03T16:33:53Z</time></trkpt><trkpt lat="43.31797766548658" lon="11.953465582145006"><ele>314.0</ele><time>2026-05-03T16:35:04Z</time></trkpt><trkpt lat="43.318098635786484" lon="11.95351880978381"><ele>301.0</ele><time>2026-05-03T16:36:00Z</time></trkpt><trkpt lat="43.31801202205588" lon="11.953516380414285"><ele>314.0</ele><time>2026-05-03T16:36:08Z</time></trkpt></trkseg></trk></gpx>